<gpx xmlns="http://www.topografix.com/GPX/1/1" version="1.1" creator="Bryton">
  <metadata>
    <name>2014/11/15 08:31</name>
    <bounds maxLng="-3.128581" minLng="-3.479593" maxLat="54.601781" minLat="54.180433"/>
  </metadata>
  <rte>
    <number>2</number>
    <rtept lat="54.183645" lon="-3.211055"/>
    <rtept lat="54.601658" lon="-3.141906"/>
  </rte>
  <trk>
    <trkseg>
      <trkpt lat="54.183645" lon="-3.211055">
        <ele>198.0</ele>
        <time>2014-11-15T08:31:19Z</time>
      </trkpt>
      <trkpt lat="54.183556" lon="-3.21082">
        <ele>198.0</ele>
        <time>2014-11-15T08:31:23Z</time>
      </trkpt>
      <trkpt lat="54.18346" lon="-3.21059">
        <ele>198.0</ele>
        <time>2014-11-15T08:31:27Z</time>
      </trkpt>
      <trkpt lat="54.183363" lon="-3.21034">
        <ele>198.0</ele>
        <time>2014-11-15T08:31:31Z</time>
      </trkpt>
      <trkpt lat="54.183271" lon="-3.21007">
        <ele>199.0</ele>
        <time>2014-11-15T08:31:35Z</time>
      </trkpt>
      <trkpt lat="54.183175" lon="-3.2098">
        <ele>199.0</ele>
        <time>2014-11-15T08:31:39Z</time>
      </trkpt>
      <trkpt lat="54.183086" lon="-3.209551">
        <ele>200.0</ele>
        <time>2014-11-15T08:31:43Z</time>
      </trkpt>
      <trkpt lat="54.182995" lon="-3.2093">
        <ele>200.0</ele>
        <time>2014-11-15T08:31:47Z</time>
      </trkpt>
      <trkpt lat="54.182893" lon="-3.20903">
        <ele>199.0</ele>
        <time>2014-11-15T08:31:51Z</time>
      </trkpt>
      <trkpt lat="54.182771" lon="-3.2087">
        <ele>199.0</ele>
        <time>2014-11-15T08:31:55Z</time>
      </trkpt>
      <trkpt lat="54.182705" lon="-3.208515">
        <ele>199.0</ele>
        <time>2014-11-15T08:31:59Z</time>
      </trkpt>
      <trkpt lat="54.182665" lon="-3.208256">
        <ele>200.0</ele>
        <time>2014-11-15T08:32:03Z</time>
      </trkpt>
      <trkpt lat="54.18268" lon="-3.207931">
        <ele>200.0</ele>
        <time>2014-11-15T08:32:07Z</time>
      </trkpt>
      <trkpt lat="54.182631" lon="-3.207606">
        <ele>199.0</ele>
        <time>2014-11-15T08:32:11Z</time>
      </trkpt>
      <trkpt lat="54.18258" lon="-3.207266">
        <ele>200.0</ele>
        <time>2014-11-15T08:32:15Z</time>
      </trkpt>
      <trkpt lat="54.182563" lon="-3.206913">
        <ele>200.0</ele>
        <time>2014-11-15T08:32:19Z</time>
      </trkpt>
      <trkpt lat="54.18252" lon="-3.206571">
        <ele>200.0</ele>
        <time>2014-11-15T08:32:23Z</time>
      </trkpt>
      <trkpt lat="54.182435" lon="-3.206203">
        <ele>200.0</ele>
        <time>2014-11-15T08:32:27Z</time>
      </trkpt>
      <trkpt lat="54.18239" lon="-3.205948">
        <ele>200.0</ele>
        <time>2014-11-15T08:32:31Z</time>
      </trkpt>
      <trkpt lat="54.182215" lon="-3.205948">
        <ele>200.0</ele>
        <time>2014-11-15T08:32:35Z</time>
      </trkpt>
      <trkpt lat="54.182058" lon="-3.206046">
        <ele>201.0</ele>
        <time>2014-11-15T08:32:39Z</time>
      </trkpt>
      <trkpt lat="54.181938" lon="-3.206096">
        <ele>201.0</ele>
        <time>2014-11-15T08:32:43Z</time>
      </trkpt>
      <trkpt lat="54.181768" lon="-3.206226">
        <ele>202.0</ele>
        <time>2014-11-15T08:32:47Z</time>
      </trkpt>
      <trkpt lat="54.181675" lon="-3.206285">
        <ele>203.0</ele>
        <time>2014-11-15T08:32:51Z</time>
      </trkpt>
      <trkpt lat="54.181516" lon="-3.206276">
        <ele>204.0</ele>
        <time>2014-11-15T08:32:55Z</time>
      </trkpt>
      <trkpt lat="54.18139" lon="-3.206125">
        <ele>204.0</ele>
        <time>2014-11-15T08:32:59Z</time>
      </trkpt>
      <trkpt lat="54.18124" lon="-3.205868">
        <ele>204.0</ele>
        <time>2014-11-15T08:33:03Z</time>
      </trkpt>
      <trkpt lat="54.18113" lon="-3.205513">
        <ele>203.0</ele>
        <time>2014-11-15T08:33:07Z</time>
      </trkpt>
      <trkpt lat="54.180993" lon="-3.205215">
        <ele>202.0</ele>
        <time>2014-11-15T08:33:11Z</time>
      </trkpt>
      <trkpt lat="54.180843" lon="-3.204893">
        <ele>202.0</ele>
        <time>2014-11-15T08:33:15Z</time>
      </trkpt>
      <trkpt lat="54.180695" lon="-3.20456">
        <ele>202.0</ele>
        <time>2014-11-15T08:33:19Z</time>
      </trkpt>
      <trkpt lat="54.180591" lon="-3.20421">
        <ele>202.0</ele>
        <time>2014-11-15T08:33:23Z</time>
      </trkpt>
      <trkpt lat="54.18047" lon="-3.203861">
        <ele>202.0</ele>
        <time>2014-11-15T08:33:27Z</time>
      </trkpt>
      <trkpt lat="54.180433" lon="-3.203521">
        <ele>202.0</ele>
        <time>2014-11-15T08:33:31Z</time>
      </trkpt>
      <trkpt lat="54.180475" lon="-3.203173">
        <ele>203.0</ele>
        <time>2014-11-15T08:33:35Z</time>
      </trkpt>
      <trkpt lat="54.18052" lon="-3.202858">
        <ele>204.0</ele>
        <time>2014-11-15T08:33:39Z</time>
      </trkpt>
      <trkpt lat="54.18047" lon="-3.202586">
        <ele>205.0</ele>
        <time>2014-11-15T08:33:43Z</time>
      </trkpt>
      <trkpt lat="54.180506" lon="-3.20222">
        <ele>206.0</ele>
        <time>2014-11-15T08:33:47Z</time>
      </trkpt>
      <trkpt lat="54.180503" lon="-3.201938">
        <ele>207.0</ele>
        <time>2014-11-15T08:33:51Z</time>
      </trkpt>
      <trkpt lat="54.180516" lon="-3.201635">
        <ele>208.0</ele>
        <time>2014-11-15T08:33:55Z</time>
      </trkpt>
      <trkpt lat="54.18061" lon="-3.201358">
        <ele>208.0</ele>
        <time>2014-11-15T08:33:59Z</time>
      </trkpt>
      <trkpt lat="54.180791" lon="-3.201221">
        <ele>209.0</ele>
        <time>2014-11-15T08:34:03Z</time>
      </trkpt>
      <trkpt lat="54.180996" lon="-3.201261">
        <ele>209.0</ele>
        <time>2014-11-15T08:34:07Z</time>
      </trkpt>
      <trkpt lat="54.181166" lon="-3.201321">
        <ele>209.0</ele>
        <time>2014-11-15T08:34:11Z</time>
      </trkpt>
      <trkpt lat="54.181403" lon="-3.201361">
        <ele>209.0</ele>
        <time>2014-11-15T08:34:15Z</time>
      </trkpt>
      <trkpt lat="54.181601" lon="-3.201368">
        <ele>209.0</ele>
        <time>2014-11-15T08:34:19Z</time>
      </trkpt>
      <trkpt lat="54.181843" lon="-3.201398">
        <ele>209.0</ele>
        <time>2014-11-15T08:34:23Z</time>
      </trkpt>
      <trkpt lat="54.182146" lon="-3.201433">
        <ele>208.0</ele>
        <time>2014-11-15T08:34:27Z</time>
      </trkpt>
      <trkpt lat="54.182475" lon="-3.201545">
        <ele>208.0</ele>
        <time>2014-11-15T08:34:31Z</time>
      </trkpt>
      <trkpt lat="54.182818" lon="-3.20163">
        <ele>207.0</ele>
        <time>2014-11-15T08:34:35Z</time>
      </trkpt>
      <trkpt lat="54.183171" lon="-3.201743">
        <ele>205.0</ele>
        <time>2014-11-15T08:34:39Z</time>
      </trkpt>
      <trkpt lat="54.183461" lon="-3.20181">
        <ele>204.0</ele>
        <time>2014-11-15T08:34:43Z</time>
      </trkpt>
      <trkpt lat="54.183786" lon="-3.201913">
        <ele>202.0</ele>
        <time>2014-11-15T08:34:47Z</time>
      </trkpt>
      <trkpt lat="54.184136" lon="-3.202063">
        <ele>201.0</ele>
        <time>2014-11-15T08:34:51Z</time>
      </trkpt>
      <trkpt lat="54.18445" lon="-3.202271">
        <ele>199.0</ele>
        <time>2014-11-15T08:34:55Z</time>
      </trkpt>
      <trkpt lat="54.184826" lon="-3.20249">
        <ele>198.0</ele>
        <time>2014-11-15T08:34:59Z</time>
      </trkpt>
      <trkpt lat="54.185163" lon="-3.202711">
        <ele>196.0</ele>
        <time>2014-11-15T08:35:03Z</time>
      </trkpt>
      <trkpt lat="54.18547" lon="-3.202918">
        <ele>195.0</ele>
        <time>2014-11-15T08:35:07Z</time>
      </trkpt>
      <trkpt lat="54.185786" lon="-3.203098">
        <ele>194.0</ele>
        <time>2014-11-15T08:35:11Z</time>
      </trkpt>
      <trkpt lat="54.18606" lon="-3.203215">
        <ele>194.0</ele>
        <time>2014-11-15T08:35:15Z</time>
      </trkpt>
      <trkpt lat="54.186378" lon="-3.203295">
        <ele>193.0</ele>
        <time>2014-11-15T08:35:19Z</time>
      </trkpt>
      <trkpt lat="54.186658" lon="-3.203398">
        <ele>193.0</ele>
        <time>2014-11-15T08:35:23Z</time>
      </trkpt>
      <trkpt lat="54.186921" lon="-3.203543">
        <ele>193.0</ele>
        <time>2014-11-15T08:35:27Z</time>
      </trkpt>
      <trkpt lat="54.187233" lon="-3.203636">
        <ele>193.0</ele>
        <time>2014-11-15T08:35:31Z</time>
      </trkpt>
      <trkpt lat="54.187511" lon="-3.203736">
        <ele>192.0</ele>
        <time>2014-11-15T08:35:35Z</time>
      </trkpt>
      <trkpt lat="54.187826" lon="-3.203818">
        <ele>192.0</ele>
        <time>2014-11-15T08:35:39Z</time>
      </trkpt>
      <trkpt lat="54.188105" lon="-3.20397">
        <ele>192.0</ele>
        <time>2014-11-15T08:35:43Z</time>
      </trkpt>
      <trkpt lat="54.188345" lon="-3.204035">
        <ele>192.0</ele>
        <time>2014-11-15T08:35:47Z</time>
      </trkpt>
      <trkpt lat="54.18862" lon="-3.204081">
        <ele>192.0</ele>
        <time>2014-11-15T08:35:51Z</time>
      </trkpt>
      <trkpt lat="54.188771" lon="-3.203795">
        <ele>192.0</ele>
        <time>2014-11-15T08:35:55Z</time>
      </trkpt>
      <trkpt lat="54.188821" lon="-3.203365">
        <ele>192.0</ele>
        <time>2014-11-15T08:35:59Z</time>
      </trkpt>
      <trkpt lat="54.188861" lon="-3.202903">
        <ele>191.0</ele>
        <time>2014-11-15T08:36:03Z</time>
      </trkpt>
      <trkpt lat="54.188876" lon="-3.202565">
        <ele>192.0</ele>
        <time>2014-11-15T08:36:07Z</time>
      </trkpt>
      <trkpt lat="54.188893" lon="-3.202325">
        <ele>193.0</ele>
        <time>2014-11-15T08:36:11Z</time>
      </trkpt>
      <trkpt lat="54.188941" lon="-3.201961">
        <ele>193.0</ele>
        <time>2014-11-15T08:36:15Z</time>
      </trkpt>
      <trkpt lat="54.189" lon="-3.201591">
        <ele>194.0</ele>
        <time>2014-11-15T08:36:19Z</time>
      </trkpt>
      <trkpt lat="54.188938" lon="-3.201205">
        <ele>195.0</ele>
        <time>2014-11-15T08:36:23Z</time>
      </trkpt>
      <trkpt lat="54.188873" lon="-3.200821">
        <ele>195.0</ele>
        <time>2014-11-15T08:36:27Z</time>
      </trkpt>
      <trkpt lat="54.188835" lon="-3.2005">
        <ele>196.0</ele>
        <time>2014-11-15T08:36:31Z</time>
      </trkpt>
      <trkpt lat="54.188778" lon="-3.200241">
        <ele>197.0</ele>
        <time>2014-11-15T08:36:35Z</time>
      </trkpt>
      <trkpt lat="54.188676" lon="-3.199935">
        <ele>197.0</ele>
        <time>2014-11-15T08:36:39Z</time>
      </trkpt>
      <trkpt lat="54.188606" lon="-3.19963">
        <ele>198.0</ele>
        <time>2014-11-15T08:36:43Z</time>
      </trkpt>
      <trkpt lat="54.188586" lon="-3.199395">
        <ele>199.0</ele>
        <time>2014-11-15T08:36:47Z</time>
      </trkpt>
      <trkpt lat="54.188516" lon="-3.199191">
        <ele>200.0</ele>
        <time>2014-11-15T08:36:51Z</time>
      </trkpt>
      <trkpt lat="54.188498" lon="-3.198886">
        <ele>201.0</ele>
        <time>2014-11-15T08:36:55Z</time>
      </trkpt>
      <trkpt lat="54.188376" lon="-3.19854">
        <ele>202.0</ele>
        <time>2014-11-15T08:36:59Z</time>
      </trkpt>
      <trkpt lat="54.188343" lon="-3.198293">
        <ele>203.0</ele>
        <time>2014-11-15T08:37:03Z</time>
      </trkpt>
      <trkpt lat="54.188303" lon="-3.198045">
        <ele>204.0</ele>
        <time>2014-11-15T08:37:07Z</time>
      </trkpt>
      <trkpt lat="54.188256" lon="-3.197895">
        <ele>206.0</ele>
        <time>2014-11-15T08:37:11Z</time>
      </trkpt>
      <trkpt lat="54.18823" lon="-3.197685">
        <ele>207.0</ele>
        <time>2014-11-15T08:37:15Z</time>
      </trkpt>
      <trkpt lat="54.188281" lon="-3.197445">
        <ele>207.0</ele>
        <time>2014-11-15T08:37:19Z</time>
      </trkpt>
      <trkpt lat="54.188305" lon="-3.197166">
        <ele>208.0</ele>
        <time>2014-11-15T08:37:23Z</time>
      </trkpt>
      <trkpt lat="54.188328" lon="-3.196873">
        <ele>209.0</ele>
        <time>2014-11-15T08:37:27Z</time>
      </trkpt>
      <trkpt lat="54.188403" lon="-3.196595">
        <ele>210.0</ele>
        <time>2014-11-15T08:37:31Z</time>
      </trkpt>
      <trkpt lat="54.188438" lon="-3.196335">
        <ele>210.0</ele>
        <time>2014-11-15T08:37:35Z</time>
      </trkpt>
      <trkpt lat="54.188385" lon="-3.196043">
        <ele>210.0</ele>
        <time>2014-11-15T08:37:39Z</time>
      </trkpt>
      <trkpt lat="54.188411" lon="-3.195725">
        <ele>211.0</ele>
        <time>2014-11-15T08:37:43Z</time>
      </trkpt>
      <trkpt lat="54.188415" lon="-3.195468">
        <ele>211.0</ele>
        <time>2014-11-15T08:37:47Z</time>
      </trkpt>
      <trkpt lat="54.188416" lon="-3.195201">
        <ele>211.0</ele>
        <time>2014-11-15T08:37:51Z</time>
      </trkpt>
      <trkpt lat="54.18838" lon="-3.194963">
        <ele>212.0</ele>
        <time>2014-11-15T08:37:55Z</time>
      </trkpt>
      <trkpt lat="54.188373" lon="-3.194656">
        <ele>213.0</ele>
        <time>2014-11-15T08:37:59Z</time>
      </trkpt>
      <trkpt lat="54.188351" lon="-3.194358">
        <ele>213.0</ele>
        <time>2014-11-15T08:38:03Z</time>
      </trkpt>
      <trkpt lat="54.188306" lon="-3.194118">
        <ele>213.0</ele>
        <time>2014-11-15T08:38:07Z</time>
      </trkpt>
      <trkpt lat="54.188296" lon="-3.19389">
        <ele>215.0</ele>
        <time>2014-11-15T08:38:11Z</time>
      </trkpt>
      <trkpt lat="54.188271" lon="-3.193623">
        <ele>217.0</ele>
        <time>2014-11-15T08:38:15Z</time>
      </trkpt>
      <trkpt lat="54.188328" lon="-3.19346">
        <ele>218.0</ele>
        <time>2014-11-15T08:38:19Z</time>
      </trkpt>
      <trkpt lat="54.188336" lon="-3.193345">
        <ele>220.0</ele>
        <time>2014-11-15T08:38:23Z</time>
      </trkpt>
      <trkpt lat="54.188356" lon="-3.193163">
        <ele>222.0</ele>
        <time>2014-11-15T08:38:27Z</time>
      </trkpt>
      <trkpt lat="54.188331" lon="-3.192996">
        <ele>224.0</ele>
        <time>2014-11-15T08:38:31Z</time>
      </trkpt>
      <trkpt lat="54.188298" lon="-3.192805">
        <ele>225.0</ele>
        <time>2014-11-15T08:38:35Z</time>
      </trkpt>
      <trkpt lat="54.18826" lon="-3.192616">
        <ele>227.0</ele>
        <time>2014-11-15T08:38:39Z</time>
      </trkpt>
      <trkpt lat="54.18822" lon="-3.19244">
        <ele>228.0</ele>
        <time>2014-11-15T08:38:43Z</time>
      </trkpt>
      <trkpt lat="54.18821" lon="-3.192211">
        <ele>230.0</ele>
        <time>2014-11-15T08:38:47Z</time>
      </trkpt>
      <trkpt lat="54.18817" lon="-3.191981">
        <ele>231.0</ele>
        <time>2014-11-15T08:38:51Z</time>
      </trkpt>
      <trkpt lat="54.188216" lon="-3.191836">
        <ele>232.0</ele>
        <time>2014-11-15T08:38:55Z</time>
      </trkpt>
      <trkpt lat="54.188308" lon="-3.191673">
        <ele>233.0</ele>
        <time>2014-11-15T08:38:59Z</time>
      </trkpt>
      <trkpt lat="54.188428" lon="-3.191575">
        <ele>234.0</ele>
        <time>2014-11-15T08:39:03Z</time>
      </trkpt>
      <trkpt lat="54.18857" lon="-3.191563">
        <ele>234.0</ele>
        <time>2014-11-15T08:39:07Z</time>
      </trkpt>
      <trkpt lat="54.188765" lon="-3.191703">
        <ele>235.0</ele>
        <time>2014-11-15T08:39:11Z</time>
      </trkpt>
      <trkpt lat="54.188911" lon="-3.19183">
        <ele>235.0</ele>
        <time>2014-11-15T08:39:15Z</time>
      </trkpt>
      <trkpt lat="54.189106" lon="-3.191893">
        <ele>236.0</ele>
        <time>2014-11-15T08:39:19Z</time>
      </trkpt>
      <trkpt lat="54.189221" lon="-3.192025">
        <ele>237.0</ele>
        <time>2014-11-15T08:39:23Z</time>
      </trkpt>
      <trkpt lat="54.189361" lon="-3.192111">
        <ele>236.0</ele>
        <time>2014-11-15T08:39:27Z</time>
      </trkpt>
      <trkpt lat="54.18955" lon="-3.19218">
        <ele>237.0</ele>
        <time>2014-11-15T08:39:31Z</time>
      </trkpt>
      <trkpt lat="54.189681" lon="-3.19217">
        <ele>237.0</ele>
        <time>2014-11-15T08:39:35Z</time>
      </trkpt>
      <trkpt lat="54.189835" lon="-3.192191">
        <ele>237.0</ele>
        <time>2014-11-15T08:39:39Z</time>
      </trkpt>
      <trkpt lat="54.190005" lon="-3.192188">
        <ele>237.0</ele>
        <time>2014-11-15T08:39:43Z</time>
      </trkpt>
      <trkpt lat="54.190251" lon="-3.192223">
        <ele>238.0</ele>
        <time>2014-11-15T08:39:47Z</time>
      </trkpt>
      <trkpt lat="54.190443" lon="-3.192168">
        <ele>238.0</ele>
        <time>2014-11-15T08:39:51Z</time>
      </trkpt>
      <trkpt lat="54.190648" lon="-3.192128">
        <ele>238.0</ele>
        <time>2014-11-15T08:39:55Z</time>
      </trkpt>
      <trkpt lat="54.190846" lon="-3.192078">
        <ele>239.0</ele>
        <time>2014-11-15T08:39:59Z</time>
      </trkpt>
      <trkpt lat="54.191031" lon="-3.192015">
        <ele>239.0</ele>
        <time>2014-11-15T08:40:03Z</time>
      </trkpt>
      <trkpt lat="54.191171" lon="-3.191988">
        <ele>239.0</ele>
        <time>2014-11-15T08:40:07Z</time>
      </trkpt>
      <trkpt lat="54.191345" lon="-3.191953">
        <ele>240.0</ele>
        <time>2014-11-15T08:40:11Z</time>
      </trkpt>
      <trkpt lat="54.19153" lon="-3.191866">
        <ele>240.0</ele>
        <time>2014-11-15T08:40:15Z</time>
      </trkpt>
      <trkpt lat="54.191743" lon="-3.191745">
        <ele>241.0</ele>
        <time>2014-11-15T08:40:19Z</time>
      </trkpt>
      <trkpt lat="54.191953" lon="-3.191626">
        <ele>241.0</ele>
        <time>2014-11-15T08:40:23Z</time>
      </trkpt>
      <trkpt lat="54.192161" lon="-3.1915">
        <ele>242.0</ele>
        <time>2014-11-15T08:40:27Z</time>
      </trkpt>
      <trkpt lat="54.192371" lon="-3.191385">
        <ele>241.0</ele>
        <time>2014-11-15T08:40:31Z</time>
      </trkpt>
      <trkpt lat="54.192573" lon="-3.191251">
        <ele>242.0</ele>
        <time>2014-11-15T08:40:35Z</time>
      </trkpt>
      <trkpt lat="54.192785" lon="-3.191098">
        <ele>242.0</ele>
        <time>2014-11-15T08:40:39Z</time>
      </trkpt>
      <trkpt lat="54.192956" lon="-3.191">
        <ele>242.0</ele>
        <time>2014-11-15T08:40:43Z</time>
      </trkpt>
      <trkpt lat="54.193203" lon="-3.190875">
        <ele>242.0</ele>
        <time>2014-11-15T08:40:47Z</time>
      </trkpt>
      <trkpt lat="54.193391" lon="-3.190735">
        <ele>242.0</ele>
        <time>2014-11-15T08:40:51Z</time>
      </trkpt>
      <trkpt lat="54.193506" lon="-3.190615">
        <ele>242.0</ele>
        <time>2014-11-15T08:40:55Z</time>
      </trkpt>
      <trkpt lat="54.193691" lon="-3.190366">
        <ele>243.0</ele>
        <time>2014-11-15T08:40:59Z</time>
      </trkpt>
      <trkpt lat="54.193823" lon="-3.190208">
        <ele>245.0</ele>
        <time>2014-11-15T08:41:03Z</time>
      </trkpt>
      <trkpt lat="54.194056" lon="-3.19001">
        <ele>245.0</ele>
        <time>2014-11-15T08:41:07Z</time>
      </trkpt>
      <trkpt lat="54.194205" lon="-3.189951">
        <ele>245.0</ele>
        <time>2014-11-15T08:41:11Z</time>
      </trkpt>
      <trkpt lat="54.194363" lon="-3.189841">
        <ele>246.0</ele>
        <time>2014-11-15T08:41:15Z</time>
      </trkpt>
      <trkpt lat="54.19456" lon="-3.189581">
        <ele>248.0</ele>
        <time>2014-11-15T08:41:19Z</time>
      </trkpt>
      <trkpt lat="54.194685" lon="-3.189355">
        <ele>247.0</ele>
        <time>2014-11-15T08:41:23Z</time>
      </trkpt>
      <trkpt lat="54.194881" lon="-3.189131">
        <ele>248.0</ele>
        <time>2014-11-15T08:41:27Z</time>
      </trkpt>
      <trkpt lat="54.195015" lon="-3.188966">
        <ele>249.0</ele>
        <time>2014-11-15T08:41:31Z</time>
      </trkpt>
      <trkpt lat="54.195165" lon="-3.1888">
        <ele>250.0</ele>
        <time>2014-11-15T08:41:35Z</time>
      </trkpt>
      <trkpt lat="54.195386" lon="-3.188601">
        <ele>251.0</ele>
        <time>2014-11-15T08:41:39Z</time>
      </trkpt>
      <trkpt lat="54.195586" lon="-3.188473">
        <ele>250.0</ele>
        <time>2014-11-15T08:41:43Z</time>
      </trkpt>
      <trkpt lat="54.195775" lon="-3.188296">
        <ele>250.0</ele>
        <time>2014-11-15T08:41:47Z</time>
      </trkpt>
      <trkpt lat="54.19593" lon="-3.188138">
        <ele>249.0</ele>
        <time>2014-11-15T08:41:51Z</time>
      </trkpt>
      <trkpt lat="54.196163" lon="-3.18798">
        <ele>249.0</ele>
        <time>2014-11-15T08:41:55Z</time>
      </trkpt>
      <trkpt lat="54.196371" lon="-3.187841">
        <ele>249.0</ele>
        <time>2014-11-15T08:41:59Z</time>
      </trkpt>
      <trkpt lat="54.196576" lon="-3.187728">
        <ele>250.0</ele>
        <time>2014-11-15T08:42:03Z</time>
      </trkpt>
      <trkpt lat="54.196863" lon="-3.187608">
        <ele>249.0</ele>
        <time>2014-11-15T08:42:07Z</time>
      </trkpt>
      <trkpt lat="54.19711" lon="-3.187525">
        <ele>249.0</ele>
        <time>2014-11-15T08:42:11Z</time>
      </trkpt>
      <trkpt lat="54.197423" lon="-3.18749">
        <ele>249.0</ele>
        <time>2014-11-15T08:42:15Z</time>
      </trkpt>
      <trkpt lat="54.197596" lon="-3.187538">
        <ele>249.0</ele>
        <time>2014-11-15T08:42:19Z</time>
      </trkpt>
      <trkpt lat="54.197841" lon="-3.187615">
        <ele>249.0</ele>
        <time>2014-11-15T08:42:23Z</time>
      </trkpt>
      <trkpt lat="54.198065" lon="-3.187715">
        <ele>249.0</ele>
        <time>2014-11-15T08:42:27Z</time>
      </trkpt>
      <trkpt lat="54.198386" lon="-3.18777">
        <ele>249.0</ele>
        <time>2014-11-15T08:42:31Z</time>
      </trkpt>
      <trkpt lat="54.198671" lon="-3.187796">
        <ele>247.0</ele>
        <time>2014-11-15T08:42:35Z</time>
      </trkpt>
      <trkpt lat="54.19894" lon="-3.187786">
        <ele>245.0</ele>
        <time>2014-11-15T08:42:39Z</time>
      </trkpt>
      <trkpt lat="54.199223" lon="-3.187761">
        <ele>244.0</ele>
        <time>2014-11-15T08:42:43Z</time>
      </trkpt>
      <trkpt lat="54.199591" lon="-3.187788">
        <ele>242.0</ele>
        <time>2014-11-15T08:42:47Z</time>
      </trkpt>
      <trkpt lat="54.200038" lon="-3.187701">
        <ele>239.0</ele>
        <time>2014-11-15T08:42:51Z</time>
      </trkpt>
      <trkpt lat="54.2005" lon="-3.187691">
        <ele>236.0</ele>
        <time>2014-11-15T08:42:55Z</time>
      </trkpt>
      <trkpt lat="54.200838" lon="-3.187665">
        <ele>233.0</ele>
        <time>2014-11-15T08:42:59Z</time>
      </trkpt>
      <trkpt lat="54.201196" lon="-3.187671">
        <ele>231.0</ele>
        <time>2014-11-15T08:43:03Z</time>
      </trkpt>
      <trkpt lat="54.201566" lon="-3.187623">
        <ele>230.0</ele>
        <time>2014-11-15T08:43:07Z</time>
      </trkpt>
      <trkpt lat="54.201923" lon="-3.187678">
        <ele>229.0</ele>
        <time>2014-11-15T08:43:11Z</time>
      </trkpt>
      <trkpt lat="54.202305" lon="-3.187678">
        <ele>227.0</ele>
        <time>2014-11-15T08:43:15Z</time>
      </trkpt>
      <trkpt lat="54.202648" lon="-3.187741">
        <ele>225.0</ele>
        <time>2014-11-15T08:43:19Z</time>
      </trkpt>
      <trkpt lat="54.20302" lon="-3.187771">
        <ele>224.0</ele>
        <time>2014-11-15T08:43:23Z</time>
      </trkpt>
      <trkpt lat="54.203416" lon="-3.187866">
        <ele>221.0</ele>
        <time>2014-11-15T08:43:27Z</time>
      </trkpt>
      <trkpt lat="54.203943" lon="-3.18797">
        <ele>218.0</ele>
        <time>2014-11-15T08:43:31Z</time>
      </trkpt>
      <trkpt lat="54.204285" lon="-3.187845">
        <ele>216.0</ele>
        <time>2014-11-15T08:43:35Z</time>
      </trkpt>
      <trkpt lat="54.204481" lon="-3.187688">
        <ele>216.0</ele>
        <time>2014-11-15T08:43:39Z</time>
      </trkpt>
      <trkpt lat="54.204826" lon="-3.187598">
        <ele>216.0</ele>
        <time>2014-11-15T08:43:43Z</time>
      </trkpt>
      <trkpt lat="54.205143" lon="-3.187393">
        <ele>213.0</ele>
        <time>2014-11-15T08:43:47Z</time>
      </trkpt>
      <trkpt lat="54.205535" lon="-3.187201">
        <ele>211.0</ele>
        <time>2014-11-15T08:43:51Z</time>
      </trkpt>
      <trkpt lat="54.205833" lon="-3.187021">
        <ele>210.0</ele>
        <time>2014-11-15T08:43:55Z</time>
      </trkpt>
      <trkpt lat="54.206031" lon="-3.186638">
        <ele>209.0</ele>
        <time>2014-11-15T08:43:59Z</time>
      </trkpt>
      <trkpt lat="54.20631" lon="-3.186458">
        <ele>210.0</ele>
        <time>2014-11-15T08:44:03Z</time>
      </trkpt>
      <trkpt lat="54.206576" lon="-3.186336">
        <ele>211.0</ele>
        <time>2014-11-15T08:44:07Z</time>
      </trkpt>
      <trkpt lat="54.206838" lon="-3.186196">
        <ele>212.0</ele>
        <time>2014-11-15T08:44:11Z</time>
      </trkpt>
      <trkpt lat="54.207076" lon="-3.186056">
        <ele>212.0</ele>
        <time>2014-11-15T08:44:15Z</time>
      </trkpt>
      <trkpt lat="54.207271" lon="-3.185896">
        <ele>213.0</ele>
        <time>2014-11-15T08:44:19Z</time>
      </trkpt>
      <trkpt lat="54.207505" lon="-3.185726">
        <ele>213.0</ele>
        <time>2014-11-15T08:44:23Z</time>
      </trkpt>
      <trkpt lat="54.20773" lon="-3.185725">
        <ele>213.0</ele>
        <time>2014-11-15T08:44:27Z</time>
      </trkpt>
      <trkpt lat="54.208033" lon="-3.185823">
        <ele>213.0</ele>
        <time>2014-11-15T08:44:31Z</time>
      </trkpt>
      <trkpt lat="54.2084" lon="-3.185918">
        <ele>212.0</ele>
        <time>2014-11-15T08:44:35Z</time>
      </trkpt>
      <trkpt lat="54.208693" lon="-3.186026">
        <ele>211.0</ele>
        <time>2014-11-15T08:44:39Z</time>
      </trkpt>
      <trkpt lat="54.209141" lon="-3.186003">
        <ele>210.0</ele>
        <time>2014-11-15T08:44:43Z</time>
      </trkpt>
      <trkpt lat="54.209525" lon="-3.185948">
        <ele>209.0</ele>
        <time>2014-11-15T08:44:47Z</time>
      </trkpt>
      <trkpt lat="54.2099" lon="-3.185811">
        <ele>207.0</ele>
        <time>2014-11-15T08:44:51Z</time>
      </trkpt>
      <trkpt lat="54.21019" lon="-3.185741">
        <ele>205.0</ele>
        <time>2014-11-15T08:44:55Z</time>
      </trkpt>
      <trkpt lat="54.210585" lon="-3.185628">
        <ele>204.0</ele>
        <time>2014-11-15T08:44:59Z</time>
      </trkpt>
      <trkpt lat="54.210965" lon="-3.185558">
        <ele>201.0</ele>
        <time>2014-11-15T08:45:03Z</time>
      </trkpt>
      <trkpt lat="54.211346" lon="-3.185461">
        <ele>201.0</ele>
        <time>2014-11-15T08:45:07Z</time>
      </trkpt>
      <trkpt lat="54.211671" lon="-3.18545">
        <ele>202.0</ele>
        <time>2014-11-15T08:45:11Z</time>
      </trkpt>
      <trkpt lat="54.212011" lon="-3.185433">
        <ele>202.0</ele>
        <time>2014-11-15T08:45:15Z</time>
      </trkpt>
      <trkpt lat="54.21232" lon="-3.185471">
        <ele>202.0</ele>
        <time>2014-11-15T08:45:19Z</time>
      </trkpt>
      <trkpt lat="54.212631" lon="-3.18551">
        <ele>202.0</ele>
        <time>2014-11-15T08:45:23Z</time>
      </trkpt>
      <trkpt lat="54.212928" lon="-3.185518">
        <ele>201.0</ele>
        <time>2014-11-15T08:45:27Z</time>
      </trkpt>
      <trkpt lat="54.213221" lon="-3.185523">
        <ele>201.0</ele>
        <time>2014-11-15T08:45:31Z</time>
      </trkpt>
      <trkpt lat="54.213553" lon="-3.185488">
        <ele>200.0</ele>
        <time>2014-11-15T08:45:35Z</time>
      </trkpt>
      <trkpt lat="54.213903" lon="-3.185375">
        <ele>199.0</ele>
        <time>2014-11-15T08:45:39Z</time>
      </trkpt>
      <trkpt lat="54.214246" lon="-3.185263">
        <ele>198.0</ele>
        <time>2014-11-15T08:45:43Z</time>
      </trkpt>
      <trkpt lat="54.214608" lon="-3.185145">
        <ele>196.0</ele>
        <time>2014-11-15T08:45:47Z</time>
      </trkpt>
      <trkpt lat="54.214956" lon="-3.18496">
        <ele>194.0</ele>
        <time>2014-11-15T08:45:51Z</time>
      </trkpt>
      <trkpt lat="54.21523" lon="-3.184586">
        <ele>193.0</ele>
        <time>2014-11-15T08:45:55Z</time>
      </trkpt>
      <trkpt lat="54.215566" lon="-3.184366">
        <ele>192.0</ele>
        <time>2014-11-15T08:45:59Z</time>
      </trkpt>
      <trkpt lat="54.21594" lon="-3.184238">
        <ele>192.0</ele>
        <time>2014-11-15T08:46:03Z</time>
      </trkpt>
      <trkpt lat="54.21631" lon="-3.18419">
        <ele>191.0</ele>
        <time>2014-11-15T08:46:07Z</time>
      </trkpt>
      <trkpt lat="54.216545" lon="-3.184151">
        <ele>191.0</ele>
        <time>2014-11-15T08:46:11Z</time>
      </trkpt>
      <trkpt lat="54.216846" lon="-3.184143">
        <ele>190.0</ele>
        <time>2014-11-15T08:46:15Z</time>
      </trkpt>
      <trkpt lat="54.217161" lon="-3.184101">
        <ele>190.0</ele>
        <time>2014-11-15T08:46:19Z</time>
      </trkpt>
      <trkpt lat="54.217451" lon="-3.184058">
        <ele>190.0</ele>
        <time>2014-11-15T08:46:23Z</time>
      </trkpt>
      <trkpt lat="54.217731" lon="-3.184033">
        <ele>191.0</ele>
        <time>2014-11-15T08:46:27Z</time>
      </trkpt>
      <trkpt lat="54.217953" lon="-3.18399">
        <ele>191.0</ele>
        <time>2014-11-15T08:46:31Z</time>
      </trkpt>
      <trkpt lat="54.218235" lon="-3.18384">
        <ele>191.0</ele>
        <time>2014-11-15T08:46:35Z</time>
      </trkpt>
      <trkpt lat="54.218481" lon="-3.183746">
        <ele>192.0</ele>
        <time>2014-11-15T08:46:39Z</time>
      </trkpt>
      <trkpt lat="54.21876" lon="-3.183636">
        <ele>192.0</ele>
        <time>2014-11-15T08:46:43Z</time>
      </trkpt>
      <trkpt lat="54.219016" lon="-3.183496">
        <ele>191.0</ele>
        <time>2014-11-15T08:46:47Z</time>
      </trkpt>
      <trkpt lat="54.219281" lon="-3.183378">
        <ele>192.0</ele>
        <time>2014-11-15T08:46:51Z</time>
      </trkpt>
      <trkpt lat="54.219513" lon="-3.183186">
        <ele>192.0</ele>
        <time>2014-11-15T08:46:55Z</time>
      </trkpt>
      <trkpt lat="54.219731" lon="-3.182935">
        <ele>193.0</ele>
        <time>2014-11-15T08:46:59Z</time>
      </trkpt>
      <trkpt lat="54.219936" lon="-3.182808">
        <ele>193.0</ele>
        <time>2014-11-15T08:47:03Z</time>
      </trkpt>
      <trkpt lat="54.220168" lon="-3.18272">
        <ele>194.0</ele>
        <time>2014-11-15T08:47:07Z</time>
      </trkpt>
      <trkpt lat="54.2204" lon="-3.182691">
        <ele>194.0</ele>
        <time>2014-11-15T08:47:11Z</time>
      </trkpt>
      <trkpt lat="54.220635" lon="-3.182648">
        <ele>195.0</ele>
        <time>2014-11-15T08:47:15Z</time>
      </trkpt>
      <trkpt lat="54.220821" lon="-3.182736">
        <ele>197.0</ele>
        <time>2014-11-15T08:47:19Z</time>
      </trkpt>
      <trkpt lat="54.22098" lon="-3.183075">
        <ele>198.0</ele>
        <time>2014-11-15T08:47:23Z</time>
      </trkpt>
      <trkpt lat="54.221151" lon="-3.18351">
        <ele>196.0</ele>
        <time>2014-11-15T08:47:27Z</time>
      </trkpt>
      <trkpt lat="54.221308" lon="-3.183978">
        <ele>195.0</ele>
        <time>2014-11-15T08:47:31Z</time>
      </trkpt>
      <trkpt lat="54.221441" lon="-3.184465">
        <ele>194.0</ele>
        <time>2014-11-15T08:47:35Z</time>
      </trkpt>
      <trkpt lat="54.221625" lon="-3.184866">
        <ele>194.0</ele>
        <time>2014-11-15T08:47:39Z</time>
      </trkpt>
      <trkpt lat="54.221888" lon="-3.18519">
        <ele>193.0</ele>
        <time>2014-11-15T08:47:43Z</time>
      </trkpt>
      <trkpt lat="54.222143" lon="-3.185535">
        <ele>192.0</ele>
        <time>2014-11-15T08:47:47Z</time>
      </trkpt>
      <trkpt lat="54.222386" lon="-3.18583">
        <ele>192.0</ele>
        <time>2014-11-15T08:47:51Z</time>
      </trkpt>
      <trkpt lat="54.222618" lon="-3.185968">
        <ele>192.0</ele>
        <time>2014-11-15T08:47:55Z</time>
      </trkpt>
      <trkpt lat="54.222868" lon="-3.186028">
        <ele>193.0</ele>
        <time>2014-11-15T08:47:59Z</time>
      </trkpt>
      <trkpt lat="54.223156" lon="-3.18614">
        <ele>193.0</ele>
        <time>2014-11-15T08:48:03Z</time>
      </trkpt>
      <trkpt lat="54.22345" lon="-3.186211">
        <ele>193.0</ele>
        <time>2014-11-15T08:48:07Z</time>
      </trkpt>
      <trkpt lat="54.223718" lon="-3.186203">
        <ele>193.0</ele>
        <time>2014-11-15T08:48:11Z</time>
      </trkpt>
      <trkpt lat="54.22395" lon="-3.186175">
        <ele>193.0</ele>
        <time>2014-11-15T08:48:15Z</time>
      </trkpt>
      <trkpt lat="54.224205" lon="-3.18617">
        <ele>194.0</ele>
        <time>2014-11-15T08:48:19Z</time>
      </trkpt>
      <trkpt lat="54.224426" lon="-3.186185">
        <ele>194.0</ele>
        <time>2014-11-15T08:48:23Z</time>
      </trkpt>
      <trkpt lat="54.224711" lon="-3.186276">
        <ele>195.0</ele>
        <time>2014-11-15T08:48:27Z</time>
      </trkpt>
      <trkpt lat="54.224965" lon="-3.18641">
        <ele>195.0</ele>
        <time>2014-11-15T08:48:31Z</time>
      </trkpt>
      <trkpt lat="54.225218" lon="-3.18644">
        <ele>196.0</ele>
        <time>2014-11-15T08:48:35Z</time>
      </trkpt>
      <trkpt lat="54.225478" lon="-3.18641">
        <ele>196.0</ele>
        <time>2014-11-15T08:48:39Z</time>
      </trkpt>
      <trkpt lat="54.225728" lon="-3.186333">
        <ele>196.0</ele>
        <time>2014-11-15T08:48:43Z</time>
      </trkpt>
      <trkpt lat="54.225945" lon="-3.186255">
        <ele>197.0</ele>
        <time>2014-11-15T08:48:47Z</time>
      </trkpt>
      <trkpt lat="54.22616" lon="-3.186201">
        <ele>197.0</ele>
        <time>2014-11-15T08:48:51Z</time>
      </trkpt>
      <trkpt lat="54.22639" lon="-3.18612">
        <ele>198.0</ele>
        <time>2014-11-15T08:48:55Z</time>
      </trkpt>
      <trkpt lat="54.226561" lon="-3.186061">
        <ele>199.0</ele>
        <time>2014-11-15T08:48:59Z</time>
      </trkpt>
      <trkpt lat="54.226746" lon="-3.185996">
        <ele>201.0</ele>
        <time>2014-11-15T08:49:03Z</time>
      </trkpt>
      <trkpt lat="54.22691" lon="-3.185946">
        <ele>202.0</ele>
        <time>2014-11-15T08:49:07Z</time>
      </trkpt>
      <trkpt lat="54.227056" lon="-3.185823">
        <ele>203.0</ele>
        <time>2014-11-15T08:49:11Z</time>
      </trkpt>
      <trkpt lat="54.227201" lon="-3.185725">
        <ele>204.0</ele>
        <time>2014-11-15T08:49:15Z</time>
      </trkpt>
      <trkpt lat="54.227373" lon="-3.185551">
        <ele>205.0</ele>
        <time>2014-11-15T08:49:19Z</time>
      </trkpt>
      <trkpt lat="54.227456" lon="-3.185421">
        <ele>206.0</ele>
        <time>2014-11-15T08:49:23Z</time>
      </trkpt>
      <trkpt lat="54.227648" lon="-3.185273">
        <ele>207.0</ele>
        <time>2014-11-15T08:49:27Z</time>
      </trkpt>
      <trkpt lat="54.227783" lon="-3.18509">
        <ele>208.0</ele>
        <time>2014-11-15T08:49:31Z</time>
      </trkpt>
      <trkpt lat="54.22793" lon="-3.184931">
        <ele>209.0</ele>
        <time>2014-11-15T08:49:35Z</time>
      </trkpt>
      <trkpt lat="54.22801" lon="-3.184791">
        <ele>210.0</ele>
        <time>2014-11-15T08:49:39Z</time>
      </trkpt>
      <trkpt lat="54.228168" lon="-3.184623">
        <ele>211.0</ele>
        <time>2014-11-15T08:49:43Z</time>
      </trkpt>
      <trkpt lat="54.228305" lon="-3.184475">
        <ele>213.0</ele>
        <time>2014-11-15T08:49:47Z</time>
      </trkpt>
      <trkpt lat="54.228461" lon="-3.184253">
        <ele>213.0</ele>
        <time>2014-11-15T08:49:51Z</time>
      </trkpt>
      <trkpt lat="54.228605" lon="-3.184136">
        <ele>214.0</ele>
        <time>2014-11-15T08:49:55Z</time>
      </trkpt>
      <trkpt lat="54.228763" lon="-3.183971">
        <ele>214.0</ele>
        <time>2014-11-15T08:49:59Z</time>
      </trkpt>
      <trkpt lat="54.228908" lon="-3.183768">
        <ele>215.0</ele>
        <time>2014-11-15T08:50:03Z</time>
      </trkpt>
      <trkpt lat="54.229053" lon="-3.183583">
        <ele>216.0</ele>
        <time>2014-11-15T08:50:07Z</time>
      </trkpt>
      <trkpt lat="54.22922" lon="-3.183385">
        <ele>216.0</ele>
        <time>2014-11-15T08:50:11Z</time>
      </trkpt>
      <trkpt lat="54.22943" lon="-3.183208">
        <ele>216.0</ele>
        <time>2014-11-15T08:50:15Z</time>
      </trkpt>
      <trkpt lat="54.229661" lon="-3.18305">
        <ele>215.0</ele>
        <time>2014-11-15T08:50:19Z</time>
      </trkpt>
      <trkpt lat="54.229933" lon="-3.182895">
        <ele>213.0</ele>
        <time>2014-11-15T08:50:23Z</time>
      </trkpt>
      <trkpt lat="54.23021" lon="-3.182761">
        <ele>213.0</ele>
        <time>2014-11-15T08:50:27Z</time>
      </trkpt>
      <trkpt lat="54.230513" lon="-3.182596">
        <ele>212.0</ele>
        <time>2014-11-15T08:50:31Z</time>
      </trkpt>
      <trkpt lat="54.230691" lon="-3.182495">
        <ele>212.0</ele>
        <time>2014-11-15T08:50:35Z</time>
      </trkpt>
      <trkpt lat="54.230921" lon="-3.182303">
        <ele>211.0</ele>
        <time>2014-11-15T08:50:39Z</time>
      </trkpt>
      <trkpt lat="54.231121" lon="-3.18208">
        <ele>211.0</ele>
        <time>2014-11-15T08:50:43Z</time>
      </trkpt>
      <trkpt lat="54.231298" lon="-3.181813">
        <ele>211.0</ele>
        <time>2014-11-15T08:50:47Z</time>
      </trkpt>
      <trkpt lat="54.231521" lon="-3.181596">
        <ele>211.0</ele>
        <time>2014-11-15T08:50:51Z</time>
      </trkpt>
      <trkpt lat="54.231706" lon="-3.181363">
        <ele>212.0</ele>
        <time>2014-11-15T08:50:55Z</time>
      </trkpt>
      <trkpt lat="54.23187" lon="-3.181125">
        <ele>212.0</ele>
        <time>2014-11-15T08:50:59Z</time>
      </trkpt>
      <trkpt lat="54.232011" lon="-3.18094">
        <ele>213.0</ele>
        <time>2014-11-15T08:51:03Z</time>
      </trkpt>
      <trkpt lat="54.232181" lon="-3.180715">
        <ele>214.0</ele>
        <time>2014-11-15T08:51:07Z</time>
      </trkpt>
      <trkpt lat="54.232323" lon="-3.180506">
        <ele>215.0</ele>
        <time>2014-11-15T08:51:11Z</time>
      </trkpt>
      <trkpt lat="54.2325" lon="-3.18029">
        <ele>215.0</ele>
        <time>2014-11-15T08:51:15Z</time>
      </trkpt>
      <trkpt lat="54.232661" lon="-3.180095">
        <ele>216.0</ele>
        <time>2014-11-15T08:51:19Z</time>
      </trkpt>
      <trkpt lat="54.232825" lon="-3.179918">
        <ele>217.0</ele>
        <time>2014-11-15T08:51:23Z</time>
      </trkpt>
      <trkpt lat="54.232953" lon="-3.179715">
        <ele>217.0</ele>
        <time>2014-11-15T08:51:27Z</time>
      </trkpt>
      <trkpt lat="54.233151" lon="-3.179508">
        <ele>218.0</ele>
        <time>2014-11-15T08:51:31Z</time>
      </trkpt>
      <trkpt lat="54.233308" lon="-3.179263">
        <ele>218.0</ele>
        <time>2014-11-15T08:51:35Z</time>
      </trkpt>
      <trkpt lat="54.233505" lon="-3.179048">
        <ele>219.0</ele>
        <time>2014-11-15T08:51:39Z</time>
      </trkpt>
      <trkpt lat="54.233636" lon="-3.1789">
        <ele>220.0</ele>
        <time>2014-11-15T08:51:43Z</time>
      </trkpt>
      <trkpt lat="54.233825" lon="-3.17878">
        <ele>220.0</ele>
        <time>2014-11-15T08:51:47Z</time>
      </trkpt>
      <trkpt lat="54.234096" lon="-3.178613">
        <ele>221.0</ele>
        <time>2014-11-15T08:51:51Z</time>
      </trkpt>
      <trkpt lat="54.234328" lon="-3.178441">
        <ele>220.0</ele>
        <time>2014-11-15T08:51:55Z</time>
      </trkpt>
      <trkpt lat="54.234515" lon="-3.178256">
        <ele>220.0</ele>
        <time>2014-11-15T08:51:59Z</time>
      </trkpt>
      <trkpt lat="54.23473" lon="-3.178081">
        <ele>219.0</ele>
        <time>2014-11-15T08:52:03Z</time>
      </trkpt>
      <trkpt lat="54.234965" lon="-3.177861">
        <ele>218.0</ele>
        <time>2014-11-15T08:52:07Z</time>
      </trkpt>
      <trkpt lat="54.23517" lon="-3.17768">
        <ele>218.0</ele>
        <time>2014-11-15T08:52:11Z</time>
      </trkpt>
      <trkpt lat="54.23544" lon="-3.177463">
        <ele>217.0</ele>
        <time>2014-11-15T08:52:15Z</time>
      </trkpt>
      <trkpt lat="54.235755" lon="-3.177191">
        <ele>216.0</ele>
        <time>2014-11-15T08:52:19Z</time>
      </trkpt>
      <trkpt lat="54.236088" lon="-3.177005">
        <ele>216.0</ele>
        <time>2014-11-15T08:52:23Z</time>
      </trkpt>
      <trkpt lat="54.236415" lon="-3.176843">
        <ele>215.0</ele>
        <time>2014-11-15T08:52:27Z</time>
      </trkpt>
      <trkpt lat="54.236736" lon="-3.176656">
        <ele>213.0</ele>
        <time>2014-11-15T08:52:31Z</time>
      </trkpt>
      <trkpt lat="54.237085" lon="-3.176503">
        <ele>211.0</ele>
        <time>2014-11-15T08:52:35Z</time>
      </trkpt>
      <trkpt lat="54.23745" lon="-3.176376">
        <ele>210.0</ele>
        <time>2014-11-15T08:52:39Z</time>
      </trkpt>
      <trkpt lat="54.237815" lon="-3.176368">
        <ele>209.0</ele>
        <time>2014-11-15T08:52:43Z</time>
      </trkpt>
      <trkpt lat="54.238141" lon="-3.176336">
        <ele>209.0</ele>
        <time>2014-11-15T08:52:47Z</time>
      </trkpt>
      <trkpt lat="54.238453" lon="-3.176365">
        <ele>208.0</ele>
        <time>2014-11-15T08:52:51Z</time>
      </trkpt>
      <trkpt lat="54.238766" lon="-3.176348">
        <ele>208.0</ele>
        <time>2014-11-15T08:52:55Z</time>
      </trkpt>
      <trkpt lat="54.239066" lon="-3.17639">
        <ele>207.0</ele>
        <time>2014-11-15T08:52:59Z</time>
      </trkpt>
      <trkpt lat="54.239471" lon="-3.176433">
        <ele>204.0</ele>
        <time>2014-11-15T08:53:03Z</time>
      </trkpt>
      <trkpt lat="54.239961" lon="-3.17648">
        <ele>201.0</ele>
        <time>2014-11-15T08:53:07Z</time>
      </trkpt>
      <trkpt lat="54.24056" lon="-3.176545">
        <ele>197.0</ele>
        <time>2014-11-15T08:53:11Z</time>
      </trkpt>
      <trkpt lat="54.240921" lon="-3.176575">
        <ele>191.0</ele>
        <time>2014-11-15T08:53:15Z</time>
      </trkpt>
      <trkpt lat="54.241341" lon="-3.176526">
        <ele>189.0</ele>
        <time>2014-11-15T08:53:19Z</time>
      </trkpt>
      <trkpt lat="54.241716" lon="-3.176333">
        <ele>189.0</ele>
        <time>2014-11-15T08:53:23Z</time>
      </trkpt>
      <trkpt lat="54.242006" lon="-3.176126">
        <ele>189.0</ele>
        <time>2014-11-15T08:53:27Z</time>
      </trkpt>
      <trkpt lat="54.242295" lon="-3.175795">
        <ele>189.0</ele>
        <time>2014-11-15T08:53:31Z</time>
      </trkpt>
      <trkpt lat="54.242516" lon="-3.175588">
        <ele>189.0</ele>
        <time>2014-11-15T08:53:35Z</time>
      </trkpt>
      <trkpt lat="54.242708" lon="-3.175313">
        <ele>189.0</ele>
        <time>2014-11-15T08:53:39Z</time>
      </trkpt>
      <trkpt lat="54.242876" lon="-3.175113">
        <ele>190.0</ele>
        <time>2014-11-15T08:53:43Z</time>
      </trkpt>
      <trkpt lat="54.243103" lon="-3.174936">
        <ele>191.0</ele>
        <time>2014-11-15T08:53:47Z</time>
      </trkpt>
      <trkpt lat="54.243293" lon="-3.174651">
        <ele>191.0</ele>
        <time>2014-11-15T08:53:51Z</time>
      </trkpt>
      <trkpt lat="54.243408" lon="-3.174525">
        <ele>192.0</ele>
        <time>2014-11-15T08:53:55Z</time>
      </trkpt>
      <trkpt lat="54.243608" lon="-3.174383">
        <ele>193.0</ele>
        <time>2014-11-15T08:53:59Z</time>
      </trkpt>
      <trkpt lat="54.243805" lon="-3.174251">
        <ele>194.0</ele>
        <time>2014-11-15T08:54:03Z</time>
      </trkpt>
      <trkpt lat="54.243885" lon="-3.174165">
        <ele>194.0</ele>
        <time>2014-11-15T08:54:07Z</time>
      </trkpt>
      <trkpt lat="54.244101" lon="-3.17407">
        <ele>194.0</ele>
        <time>2014-11-15T08:54:11Z</time>
      </trkpt>
      <trkpt lat="54.244268" lon="-3.173961">
        <ele>196.0</ele>
        <time>2014-11-15T08:54:15Z</time>
      </trkpt>
      <trkpt lat="54.244465" lon="-3.17382">
        <ele>196.0</ele>
        <time>2014-11-15T08:54:19Z</time>
      </trkpt>
      <trkpt lat="54.244658" lon="-3.173706">
        <ele>197.0</ele>
        <time>2014-11-15T08:54:23Z</time>
      </trkpt>
      <trkpt lat="54.244831" lon="-3.173588">
        <ele>198.0</ele>
        <time>2014-11-15T08:54:27Z</time>
      </trkpt>
      <trkpt lat="54.245011" lon="-3.17346">
        <ele>198.0</ele>
        <time>2014-11-15T08:54:31Z</time>
      </trkpt>
      <trkpt lat="54.24518" lon="-3.173436">
        <ele>199.0</ele>
        <time>2014-11-15T08:54:35Z</time>
      </trkpt>
      <trkpt lat="54.245306" lon="-3.17345">
        <ele>199.0</ele>
        <time>2014-11-15T08:54:39Z</time>
      </trkpt>
      <trkpt lat="54.245421" lon="-3.173498">
        <ele>200.0</ele>
        <time>2014-11-15T08:54:43Z</time>
      </trkpt>
      <trkpt lat="54.245538" lon="-3.17357">
        <ele>202.0</ele>
        <time>2014-11-15T08:54:47Z</time>
      </trkpt>
      <trkpt lat="54.245648" lon="-3.173571">
        <ele>203.0</ele>
        <time>2014-11-15T08:54:51Z</time>
      </trkpt>
      <trkpt lat="54.245785" lon="-3.173598">
        <ele>204.0</ele>
        <time>2014-11-15T08:54:55Z</time>
      </trkpt>
      <trkpt lat="54.245926" lon="-3.17367">
        <ele>205.0</ele>
        <time>2014-11-15T08:54:59Z</time>
      </trkpt>
      <trkpt lat="54.246068" lon="-3.17374">
        <ele>206.0</ele>
        <time>2014-11-15T08:55:03Z</time>
      </trkpt>
      <trkpt lat="54.24621" lon="-3.173863">
        <ele>208.0</ele>
        <time>2014-11-15T08:55:07Z</time>
      </trkpt>
      <trkpt lat="54.246396" lon="-3.173953">
        <ele>209.0</ele>
        <time>2014-11-15T08:55:11Z</time>
      </trkpt>
      <trkpt lat="54.246498" lon="-3.174088">
        <ele>209.0</ele>
        <time>2014-11-15T08:55:15Z</time>
      </trkpt>
      <trkpt lat="54.24676" lon="-3.174233">
        <ele>208.0</ele>
        <time>2014-11-15T08:55:19Z</time>
      </trkpt>
      <trkpt lat="54.247031" lon="-3.174441">
        <ele>207.0</ele>
        <time>2014-11-15T08:55:23Z</time>
      </trkpt>
      <trkpt lat="54.247311" lon="-3.174693">
        <ele>205.0</ele>
        <time>2014-11-15T08:55:27Z</time>
      </trkpt>
      <trkpt lat="54.247636" lon="-3.174943">
        <ele>203.0</ele>
        <time>2014-11-15T08:55:31Z</time>
      </trkpt>
      <trkpt lat="54.248001" lon="-3.175175">
        <ele>200.0</ele>
        <time>2014-11-15T08:55:35Z</time>
      </trkpt>
      <trkpt lat="54.2484" lon="-3.175191">
        <ele>196.0</ele>
        <time>2014-11-15T08:55:39Z</time>
      </trkpt>
      <trkpt lat="54.248943" lon="-3.175165">
        <ele>193.0</ele>
        <time>2014-11-15T08:55:43Z</time>
      </trkpt>
      <trkpt lat="54.249305" lon="-3.175093">
        <ele>191.0</ele>
        <time>2014-11-15T08:55:47Z</time>
      </trkpt>
      <trkpt lat="54.249536" lon="-3.175166">
        <ele>192.0</ele>
        <time>2014-11-15T08:55:51Z</time>
      </trkpt>
      <trkpt lat="54.249801" lon="-3.175161">
        <ele>192.0</ele>
        <time>2014-11-15T08:55:55Z</time>
      </trkpt>
      <trkpt lat="54.25005" lon="-3.175148">
        <ele>193.0</ele>
        <time>2014-11-15T08:55:59Z</time>
      </trkpt>
      <trkpt lat="54.250316" lon="-3.175113">
        <ele>193.0</ele>
        <time>2014-11-15T08:56:03Z</time>
      </trkpt>
      <trkpt lat="54.250583" lon="-3.175086">
        <ele>193.0</ele>
        <time>2014-11-15T08:56:07Z</time>
      </trkpt>
      <trkpt lat="54.250906" lon="-3.175116">
        <ele>192.0</ele>
        <time>2014-11-15T08:56:11Z</time>
      </trkpt>
      <trkpt lat="54.251153" lon="-3.175213">
        <ele>192.0</ele>
        <time>2014-11-15T08:56:15Z</time>
      </trkpt>
      <trkpt lat="54.25139" lon="-3.175373">
        <ele>192.0</ele>
        <time>2014-11-15T08:56:19Z</time>
      </trkpt>
      <trkpt lat="54.251573" lon="-3.175241">
        <ele>192.0</ele>
        <time>2014-11-15T08:56:23Z</time>
      </trkpt>
      <trkpt lat="54.25183" lon="-3.175096">
        <ele>192.0</ele>
        <time>2014-11-15T08:56:27Z</time>
      </trkpt>
      <trkpt lat="54.252066" lon="-3.174995">
        <ele>191.0</ele>
        <time>2014-11-15T08:56:31Z</time>
      </trkpt>
      <trkpt lat="54.252256" lon="-3.175105">
        <ele>192.0</ele>
        <time>2014-11-15T08:56:35Z</time>
      </trkpt>
      <trkpt lat="54.252476" lon="-3.175011">
        <ele>192.0</ele>
        <time>2014-11-15T08:56:39Z</time>
      </trkpt>
      <trkpt lat="54.252721" lon="-3.175011">
        <ele>192.0</ele>
        <time>2014-11-15T08:56:43Z</time>
      </trkpt>
      <trkpt lat="54.253076" lon="-3.17493">
        <ele>189.0</ele>
        <time>2014-11-15T08:56:47Z</time>
      </trkpt>
      <trkpt lat="54.253361" lon="-3.174826">
        <ele>187.0</ele>
        <time>2014-11-15T08:56:51Z</time>
      </trkpt>
      <trkpt lat="54.253488" lon="-3.175195">
        <ele>186.0</ele>
        <time>2014-11-15T08:56:55Z</time>
      </trkpt>
      <trkpt lat="54.253711" lon="-3.17564">
        <ele>184.0</ele>
        <time>2014-11-15T08:56:59Z</time>
      </trkpt>
      <trkpt lat="54.253793" lon="-3.176071">
        <ele>184.0</ele>
        <time>2014-11-15T08:57:03Z</time>
      </trkpt>
      <trkpt lat="54.25392" lon="-3.176345">
        <ele>183.0</ele>
        <time>2014-11-15T08:57:07Z</time>
      </trkpt>
      <trkpt lat="54.254211" lon="-3.176273">
        <ele>182.0</ele>
        <time>2014-11-15T08:57:11Z</time>
      </trkpt>
      <trkpt lat="54.254398" lon="-3.17601">
        <ele>182.0</ele>
        <time>2014-11-15T08:57:15Z</time>
      </trkpt>
      <trkpt lat="54.25457" lon="-3.175793">
        <ele>183.0</ele>
        <time>2014-11-15T08:57:19Z</time>
      </trkpt>
      <trkpt lat="54.254766" lon="-3.175555">
        <ele>183.0</ele>
        <time>2014-11-15T08:57:23Z</time>
      </trkpt>
      <trkpt lat="54.254945" lon="-3.175408">
        <ele>183.0</ele>
        <time>2014-11-15T08:57:27Z</time>
      </trkpt>
      <trkpt lat="54.255205" lon="-3.17532">
        <ele>183.0</ele>
        <time>2014-11-15T08:57:31Z</time>
      </trkpt>
      <trkpt lat="54.255436" lon="-3.175176">
        <ele>183.0</ele>
        <time>2014-11-15T08:57:35Z</time>
      </trkpt>
      <trkpt lat="54.255713" lon="-3.17519">
        <ele>183.0</ele>
        <time>2014-11-15T08:57:39Z</time>
      </trkpt>
      <trkpt lat="54.255906" lon="-3.175396">
        <ele>183.0</ele>
        <time>2014-11-15T08:57:43Z</time>
      </trkpt>
      <trkpt lat="54.256046" lon="-3.175666">
        <ele>183.0</ele>
        <time>2014-11-15T08:57:47Z</time>
      </trkpt>
      <trkpt lat="54.256143" lon="-3.175908">
        <ele>184.0</ele>
        <time>2014-11-15T08:57:51Z</time>
      </trkpt>
      <trkpt lat="54.256235" lon="-3.176111">
        <ele>186.0</ele>
        <time>2014-11-15T08:57:55Z</time>
      </trkpt>
      <trkpt lat="54.25627" lon="-3.176241">
        <ele>188.0</ele>
        <time>2014-11-15T08:57:59Z</time>
      </trkpt>
      <trkpt lat="54.256281" lon="-3.176368">
        <ele>190.0</ele>
        <time>2014-11-15T08:58:03Z</time>
      </trkpt>
      <trkpt lat="54.256333" lon="-3.176525">
        <ele>192.0</ele>
        <time>2014-11-15T08:58:07Z</time>
      </trkpt>
      <trkpt lat="54.256366" lon="-3.176708">
        <ele>193.0</ele>
        <time>2014-11-15T08:58:11Z</time>
      </trkpt>
      <trkpt lat="54.256428" lon="-3.17679">
        <ele>195.0</ele>
        <time>2014-11-15T08:58:15Z</time>
      </trkpt>
      <trkpt lat="54.256435" lon="-3.176911">
        <ele>197.0</ele>
        <time>2014-11-15T08:58:19Z</time>
      </trkpt>
      <trkpt lat="54.256428" lon="-3.177138">
        <ele>199.0</ele>
        <time>2014-11-15T08:58:23Z</time>
      </trkpt>
      <trkpt lat="54.256493" lon="-3.177303">
        <ele>199.0</ele>
        <time>2014-11-15T08:58:27Z</time>
      </trkpt>
      <trkpt lat="54.256516" lon="-3.177408">
        <ele>202.0</ele>
        <time>2014-11-15T08:58:31Z</time>
      </trkpt>
      <trkpt lat="54.256485" lon="-3.177605">
        <ele>203.0</ele>
        <time>2014-11-15T08:58:35Z</time>
      </trkpt>
      <trkpt lat="54.256521" lon="-3.177705">
        <ele>204.0</ele>
        <time>2014-11-15T08:58:39Z</time>
      </trkpt>
      <trkpt lat="54.256513" lon="-3.177875">
        <ele>205.0</ele>
        <time>2014-11-15T08:58:43Z</time>
      </trkpt>
      <trkpt lat="54.25652" lon="-3.178008">
        <ele>206.0</ele>
        <time>2014-11-15T08:58:47Z</time>
      </trkpt>
      <trkpt lat="54.256551" lon="-3.178213">
        <ele>207.0</ele>
        <time>2014-11-15T08:58:51Z</time>
      </trkpt>
      <trkpt lat="54.256558" lon="-3.178461">
        <ele>208.0</ele>
        <time>2014-11-15T08:58:55Z</time>
      </trkpt>
      <trkpt lat="54.256606" lon="-3.178756">
        <ele>208.0</ele>
        <time>2014-11-15T08:58:59Z</time>
      </trkpt>
      <trkpt lat="54.25674" lon="-3.178963">
        <ele>207.0</ele>
        <time>2014-11-15T08:59:03Z</time>
      </trkpt>
      <trkpt lat="54.25693" lon="-3.179153">
        <ele>207.0</ele>
        <time>2014-11-15T08:59:07Z</time>
      </trkpt>
      <trkpt lat="54.257105" lon="-3.179321">
        <ele>207.0</ele>
        <time>2014-11-15T08:59:11Z</time>
      </trkpt>
      <trkpt lat="54.257315" lon="-3.179451">
        <ele>207.0</ele>
        <time>2014-11-15T08:59:15Z</time>
      </trkpt>
      <trkpt lat="54.25752" lon="-3.179663">
        <ele>206.0</ele>
        <time>2014-11-15T08:59:19Z</time>
      </trkpt>
      <trkpt lat="54.257628" lon="-3.180016">
        <ele>205.0</ele>
        <time>2014-11-15T08:59:23Z</time>
      </trkpt>
      <trkpt lat="54.257815" lon="-3.180475">
        <ele>204.0</ele>
        <time>2014-11-15T08:59:27Z</time>
      </trkpt>
      <trkpt lat="54.258156" lon="-3.180865">
        <ele>201.0</ele>
        <time>2014-11-15T08:59:31Z</time>
      </trkpt>
      <trkpt lat="54.25864" lon="-3.18091">
        <ele>196.0</ele>
        <time>2014-11-15T08:59:35Z</time>
      </trkpt>
      <trkpt lat="54.259111" lon="-3.18117">
        <ele>192.0</ele>
        <time>2014-11-15T08:59:39Z</time>
      </trkpt>
      <trkpt lat="54.25956" lon="-3.180955">
        <ele>191.0</ele>
        <time>2014-11-15T08:59:43Z</time>
      </trkpt>
      <trkpt lat="54.259911" lon="-3.180883">
        <ele>188.0</ele>
        <time>2014-11-15T08:59:47Z</time>
      </trkpt>
      <trkpt lat="54.260293" lon="-3.180746">
        <ele>187.0</ele>
        <time>2014-11-15T08:59:51Z</time>
      </trkpt>
      <trkpt lat="54.26063" lon="-3.180491">
        <ele>187.0</ele>
        <time>2014-11-15T08:59:55Z</time>
      </trkpt>
      <trkpt lat="54.260931" lon="-3.180285">
        <ele>187.0</ele>
        <time>2014-11-15T08:59:59Z</time>
      </trkpt>
      <trkpt lat="54.261256" lon="-3.180225">
        <ele>187.0</ele>
        <time>2014-11-15T09:00:03Z</time>
      </trkpt>
      <trkpt lat="54.261536" lon="-3.18054">
        <ele>187.0</ele>
        <time>2014-11-15T09:00:07Z</time>
      </trkpt>
      <trkpt lat="54.261885" lon="-3.18083">
        <ele>185.0</ele>
        <time>2014-11-15T09:00:11Z</time>
      </trkpt>
      <trkpt lat="54.262241" lon="-3.180941">
        <ele>182.0</ele>
        <time>2014-11-15T09:00:15Z</time>
      </trkpt>
      <trkpt lat="54.262578" lon="-3.181051">
        <ele>182.0</ele>
        <time>2014-11-15T09:00:19Z</time>
      </trkpt>
      <trkpt lat="54.262883" lon="-3.18114">
        <ele>182.0</ele>
        <time>2014-11-15T09:00:23Z</time>
      </trkpt>
      <trkpt lat="54.263155" lon="-3.181071">
        <ele>182.0</ele>
        <time>2014-11-15T09:00:27Z</time>
      </trkpt>
      <trkpt lat="54.263456" lon="-3.18107">
        <ele>182.0</ele>
        <time>2014-11-15T09:00:31Z</time>
      </trkpt>
      <trkpt lat="54.263713" lon="-3.180991">
        <ele>182.0</ele>
        <time>2014-11-15T09:00:35Z</time>
      </trkpt>
      <trkpt lat="54.263963" lon="-3.180805">
        <ele>182.0</ele>
        <time>2014-11-15T09:00:39Z</time>
      </trkpt>
      <trkpt lat="54.26419" lon="-3.180721">
        <ele>183.0</ele>
        <time>2014-11-15T09:00:43Z</time>
      </trkpt>
      <trkpt lat="54.264358" lon="-3.180725">
        <ele>183.0</ele>
        <time>2014-11-15T09:00:47Z</time>
      </trkpt>
      <trkpt lat="54.264603" lon="-3.180603">
        <ele>184.0</ele>
        <time>2014-11-15T09:00:51Z</time>
      </trkpt>
      <trkpt lat="54.26486" lon="-3.180681">
        <ele>185.0</ele>
        <time>2014-11-15T09:00:55Z</time>
      </trkpt>
      <trkpt lat="54.265166" lon="-3.180671">
        <ele>185.0</ele>
        <time>2014-11-15T09:00:59Z</time>
      </trkpt>
      <trkpt lat="54.265508" lon="-3.180866">
        <ele>184.0</ele>
        <time>2014-11-15T09:01:03Z</time>
      </trkpt>
      <trkpt lat="54.265701" lon="-3.181176">
        <ele>182.0</ele>
        <time>2014-11-15T09:01:07Z</time>
      </trkpt>
      <trkpt lat="54.265775" lon="-3.181751">
        <ele>182.0</ele>
        <time>2014-11-15T09:01:11Z</time>
      </trkpt>
      <trkpt lat="54.265941" lon="-3.182281">
        <ele>182.0</ele>
        <time>2014-11-15T09:01:15Z</time>
      </trkpt>
      <trkpt lat="54.266098" lon="-3.182726">
        <ele>182.0</ele>
        <time>2014-11-15T09:01:19Z</time>
      </trkpt>
      <trkpt lat="54.266273" lon="-3.18313">
        <ele>182.0</ele>
        <time>2014-11-15T09:01:23Z</time>
      </trkpt>
      <trkpt lat="54.266421" lon="-3.183546">
        <ele>182.0</ele>
        <time>2014-11-15T09:01:27Z</time>
      </trkpt>
      <trkpt lat="54.266541" lon="-3.183953">
        <ele>182.0</ele>
        <time>2014-11-15T09:01:31Z</time>
      </trkpt>
      <trkpt lat="54.26668" lon="-3.184375">
        <ele>182.0</ele>
        <time>2014-11-15T09:01:35Z</time>
      </trkpt>
      <trkpt lat="54.266831" lon="-3.184823">
        <ele>182.0</ele>
        <time>2014-11-15T09:01:39Z</time>
      </trkpt>
      <trkpt lat="54.267053" lon="-3.185225">
        <ele>182.0</ele>
        <time>2014-11-15T09:01:43Z</time>
      </trkpt>
      <trkpt lat="54.26722" lon="-3.185641">
        <ele>182.0</ele>
        <time>2014-11-15T09:01:47Z</time>
      </trkpt>
      <trkpt lat="54.267398" lon="-3.18607">
        <ele>181.0</ele>
        <time>2014-11-15T09:01:51Z</time>
      </trkpt>
      <trkpt lat="54.267528" lon="-3.186506">
        <ele>182.0</ele>
        <time>2014-11-15T09:01:55Z</time>
      </trkpt>
      <trkpt lat="54.267695" lon="-3.186976">
        <ele>182.0</ele>
        <time>2014-11-15T09:01:59Z</time>
      </trkpt>
      <trkpt lat="54.26782" lon="-3.187495">
        <ele>181.0</ele>
        <time>2014-11-15T09:02:03Z</time>
      </trkpt>
      <trkpt lat="54.267918" lon="-3.187991">
        <ele>182.0</ele>
        <time>2014-11-15T09:02:07Z</time>
      </trkpt>
      <trkpt lat="54.268001" lon="-3.188485">
        <ele>182.0</ele>
        <time>2014-11-15T09:02:11Z</time>
      </trkpt>
      <trkpt lat="54.268123" lon="-3.188981">
        <ele>182.0</ele>
        <time>2014-11-15T09:02:15Z</time>
      </trkpt>
      <trkpt lat="54.26821" lon="-3.189511">
        <ele>182.0</ele>
        <time>2014-11-15T09:02:19Z</time>
      </trkpt>
      <trkpt lat="54.26836" lon="-3.189981">
        <ele>182.0</ele>
        <time>2014-11-15T09:02:23Z</time>
      </trkpt>
      <trkpt lat="54.268455" lon="-3.190513">
        <ele>182.0</ele>
        <time>2014-11-15T09:02:27Z</time>
      </trkpt>
      <trkpt lat="54.268558" lon="-3.19102">
        <ele>182.0</ele>
        <time>2014-11-15T09:02:31Z</time>
      </trkpt>
      <trkpt lat="54.268626" lon="-3.191588">
        <ele>182.0</ele>
        <time>2014-11-15T09:02:35Z</time>
      </trkpt>
      <trkpt lat="54.268738" lon="-3.192106">
        <ele>182.0</ele>
        <time>2014-11-15T09:02:39Z</time>
      </trkpt>
      <trkpt lat="54.268821" lon="-3.192766">
        <ele>182.0</ele>
        <time>2014-11-15T09:02:43Z</time>
      </trkpt>
      <trkpt lat="54.268865" lon="-3.193188">
        <ele>182.0</ele>
        <time>2014-11-15T09:02:47Z</time>
      </trkpt>
      <trkpt lat="54.268915" lon="-3.193716">
        <ele>182.0</ele>
        <time>2014-11-15T09:02:51Z</time>
      </trkpt>
      <trkpt lat="54.268903" lon="-3.194275">
        <ele>182.0</ele>
        <time>2014-11-15T09:02:55Z</time>
      </trkpt>
      <trkpt lat="54.268768" lon="-3.19479">
        <ele>181.0</ele>
        <time>2014-11-15T09:02:59Z</time>
      </trkpt>
      <trkpt lat="54.268588" lon="-3.19517">
        <ele>182.0</ele>
        <time>2014-11-15T09:03:03Z</time>
      </trkpt>
      <trkpt lat="54.268373" lon="-3.195528">
        <ele>182.0</ele>
        <time>2014-11-15T09:03:07Z</time>
      </trkpt>
      <trkpt lat="54.268173" lon="-3.195835">
        <ele>182.0</ele>
        <time>2014-11-15T09:03:11Z</time>
      </trkpt>
      <trkpt lat="54.267998" lon="-3.196071">
        <ele>183.0</ele>
        <time>2014-11-15T09:03:15Z</time>
      </trkpt>
      <trkpt lat="54.267783" lon="-3.196341">
        <ele>185.0</ele>
        <time>2014-11-15T09:03:19Z</time>
      </trkpt>
      <trkpt lat="54.267688" lon="-3.196518">
        <ele>187.0</ele>
        <time>2014-11-15T09:03:23Z</time>
      </trkpt>
      <trkpt lat="54.267791" lon="-3.196668">
        <ele>187.0</ele>
        <time>2014-11-15T09:03:27Z</time>
      </trkpt>
      <trkpt lat="54.267905" lon="-3.19663">
        <ele>189.0</ele>
        <time>2014-11-15T09:03:31Z</time>
      </trkpt>
      <trkpt lat="54.26807" lon="-3.196601">
        <ele>191.0</ele>
        <time>2014-11-15T09:03:35Z</time>
      </trkpt>
      <trkpt lat="54.26819" lon="-3.196596">
        <ele>192.0</ele>
        <time>2014-11-15T09:03:39Z</time>
      </trkpt>
      <trkpt lat="54.268325" lon="-3.19657">
        <ele>193.0</ele>
        <time>2014-11-15T09:03:43Z</time>
      </trkpt>
      <trkpt lat="54.268403" lon="-3.19638">
        <ele>194.0</ele>
        <time>2014-11-15T09:03:47Z</time>
      </trkpt>
      <trkpt lat="54.268523" lon="-3.196375">
        <ele>195.0</ele>
        <time>2014-11-15T09:03:51Z</time>
      </trkpt>
      <trkpt lat="54.268653" lon="-3.196305">
        <ele>196.0</ele>
        <time>2014-11-15T09:03:55Z</time>
      </trkpt>
      <trkpt lat="54.268786" lon="-3.19624">
        <ele>198.0</ele>
        <time>2014-11-15T09:03:59Z</time>
      </trkpt>
      <trkpt lat="54.268913" lon="-3.196175">
        <ele>198.0</ele>
        <time>2014-11-15T09:04:03Z</time>
      </trkpt>
      <trkpt lat="54.269003" lon="-3.19615">
        <ele>201.0</ele>
        <time>2014-11-15T09:04:07Z</time>
      </trkpt>
      <trkpt lat="54.269071" lon="-3.196083">
        <ele>202.0</ele>
        <time>2014-11-15T09:04:11Z</time>
      </trkpt>
      <trkpt lat="54.269255" lon="-3.196176">
        <ele>202.0</ele>
        <time>2014-11-15T09:04:15Z</time>
      </trkpt>
      <trkpt lat="54.269338" lon="-3.1964">
        <ele>203.0</ele>
        <time>2014-11-15T09:04:19Z</time>
      </trkpt>
      <trkpt lat="54.269411" lon="-3.196595">
        <ele>203.0</ele>
        <time>2014-11-15T09:04:23Z</time>
      </trkpt>
      <trkpt lat="54.269443" lon="-3.196906">
        <ele>204.0</ele>
        <time>2014-11-15T09:04:27Z</time>
      </trkpt>
      <trkpt lat="54.269461" lon="-3.197126">
        <ele>204.0</ele>
        <time>2014-11-15T09:04:31Z</time>
      </trkpt>
      <trkpt lat="54.269461" lon="-3.197355">
        <ele>204.0</ele>
        <time>2014-11-15T09:04:35Z</time>
      </trkpt>
      <trkpt lat="54.269506" lon="-3.197536">
        <ele>205.0</ele>
        <time>2014-11-15T09:04:39Z</time>
      </trkpt>
      <trkpt lat="54.26952" lon="-3.197693">
        <ele>207.0</ele>
        <time>2014-11-15T09:04:43Z</time>
      </trkpt>
      <trkpt lat="54.269596" lon="-3.197925">
        <ele>208.0</ele>
        <time>2014-11-15T09:04:47Z</time>
      </trkpt>
      <trkpt lat="54.269651" lon="-3.198203">
        <ele>209.0</ele>
        <time>2014-11-15T09:04:51Z</time>
      </trkpt>
      <trkpt lat="54.269668" lon="-3.198438">
        <ele>209.0</ele>
        <time>2014-11-15T09:04:55Z</time>
      </trkpt>
      <trkpt lat="54.26972" lon="-3.198665">
        <ele>209.0</ele>
        <time>2014-11-15T09:04:59Z</time>
      </trkpt>
      <trkpt lat="54.269755" lon="-3.198866">
        <ele>210.0</ele>
        <time>2014-11-15T09:05:03Z</time>
      </trkpt>
      <trkpt lat="54.269768" lon="-3.199035">
        <ele>212.0</ele>
        <time>2014-11-15T09:05:07Z</time>
      </trkpt>
      <trkpt lat="54.269886" lon="-3.199173">
        <ele>213.0</ele>
        <time>2014-11-15T09:05:11Z</time>
      </trkpt>
      <trkpt lat="54.269923" lon="-3.199458">
        <ele>214.0</ele>
        <time>2014-11-15T09:05:15Z</time>
      </trkpt>
      <trkpt lat="54.269973" lon="-3.199681">
        <ele>216.0</ele>
        <time>2014-11-15T09:05:19Z</time>
      </trkpt>
      <trkpt lat="54.269935" lon="-3.199955">
        <ele>216.0</ele>
        <time>2014-11-15T09:05:23Z</time>
      </trkpt>
      <trkpt lat="54.269888" lon="-3.20018">
        <ele>217.0</ele>
        <time>2014-11-15T09:05:27Z</time>
      </trkpt>
      <trkpt lat="54.269833" lon="-3.200373">
        <ele>217.0</ele>
        <time>2014-11-15T09:05:31Z</time>
      </trkpt>
      <trkpt lat="54.269803" lon="-3.200596">
        <ele>217.0</ele>
        <time>2014-11-15T09:05:35Z</time>
      </trkpt>
      <trkpt lat="54.269746" lon="-3.200841">
        <ele>218.0</ele>
        <time>2014-11-15T09:05:39Z</time>
      </trkpt>
      <trkpt lat="54.269696" lon="-3.201125">
        <ele>218.0</ele>
        <time>2014-11-15T09:05:43Z</time>
      </trkpt>
      <trkpt lat="54.269633" lon="-3.201546">
        <ele>217.0</ele>
        <time>2014-11-15T09:05:47Z</time>
      </trkpt>
      <trkpt lat="54.269575" lon="-3.201988">
        <ele>216.0</ele>
        <time>2014-11-15T09:05:51Z</time>
      </trkpt>
      <trkpt lat="54.269526" lon="-3.202541">
        <ele>214.0</ele>
        <time>2014-11-15T09:05:55Z</time>
      </trkpt>
      <trkpt lat="54.269558" lon="-3.203001">
        <ele>210.0</ele>
        <time>2014-11-15T09:05:59Z</time>
      </trkpt>
      <trkpt lat="54.269838" lon="-3.203103">
        <ele>206.0</ele>
        <time>2014-11-15T09:06:03Z</time>
      </trkpt>
      <trkpt lat="54.270206" lon="-3.203081">
        <ele>203.0</ele>
        <time>2014-11-15T09:06:07Z</time>
      </trkpt>
      <trkpt lat="54.270625" lon="-3.202933">
        <ele>201.0</ele>
        <time>2014-11-15T09:06:11Z</time>
      </trkpt>
      <trkpt lat="54.270925" lon="-3.202691">
        <ele>198.0</ele>
        <time>2014-11-15T09:06:15Z</time>
      </trkpt>
      <trkpt lat="54.271053" lon="-3.203048">
        <ele>194.0</ele>
        <time>2014-11-15T09:06:19Z</time>
      </trkpt>
      <trkpt lat="54.27123" lon="-3.20366">
        <ele>189.0</ele>
        <time>2014-11-15T09:06:23Z</time>
      </trkpt>
      <trkpt lat="54.271491" lon="-3.20423">
        <ele>185.0</ele>
        <time>2014-11-15T09:06:27Z</time>
      </trkpt>
      <trkpt lat="54.271658" lon="-3.204783">
        <ele>185.0</ele>
        <time>2014-11-15T09:06:31Z</time>
      </trkpt>
      <trkpt lat="54.27186" lon="-3.205021">
        <ele>186.0</ele>
        <time>2014-11-15T09:06:35Z</time>
      </trkpt>
      <trkpt lat="54.272025" lon="-3.20523">
        <ele>187.0</ele>
        <time>2014-11-15T09:06:39Z</time>
      </trkpt>
      <trkpt lat="54.272136" lon="-3.205388">
        <ele>189.0</ele>
        <time>2014-11-15T09:06:43Z</time>
      </trkpt>
      <trkpt lat="54.272296" lon="-3.205548">
        <ele>189.0</ele>
        <time>2014-11-15T09:06:47Z</time>
      </trkpt>
      <trkpt lat="54.27246" lon="-3.205701">
        <ele>191.0</ele>
        <time>2014-11-15T09:06:51Z</time>
      </trkpt>
      <trkpt lat="54.272638" lon="-3.205956">
        <ele>191.0</ele>
        <time>2014-11-15T09:06:55Z</time>
      </trkpt>
      <trkpt lat="54.272778" lon="-3.206336">
        <ele>189.0</ele>
        <time>2014-11-15T09:06:59Z</time>
      </trkpt>
      <trkpt lat="54.272825" lon="-3.20674">
        <ele>189.0</ele>
        <time>2014-11-15T09:07:03Z</time>
      </trkpt>
      <trkpt lat="54.272958" lon="-3.207121">
        <ele>189.0</ele>
        <time>2014-11-15T09:07:07Z</time>
      </trkpt>
      <trkpt lat="54.27316" lon="-3.207425">
        <ele>188.0</ele>
        <time>2014-11-15T09:07:11Z</time>
      </trkpt>
      <trkpt lat="54.273401" lon="-3.207621">
        <ele>188.0</ele>
        <time>2014-11-15T09:07:15Z</time>
      </trkpt>
      <trkpt lat="54.273633" lon="-3.207818">
        <ele>189.0</ele>
        <time>2014-11-15T09:07:19Z</time>
      </trkpt>
      <trkpt lat="54.27387" lon="-3.207981">
        <ele>190.0</ele>
        <time>2014-11-15T09:07:23Z</time>
      </trkpt>
      <trkpt lat="54.274091" lon="-3.20793">
        <ele>189.0</ele>
        <time>2014-11-15T09:07:27Z</time>
      </trkpt>
      <trkpt lat="54.274288" lon="-3.20789">
        <ele>190.0</ele>
        <time>2014-11-15T09:07:31Z</time>
      </trkpt>
      <trkpt lat="54.274493" lon="-3.207863">
        <ele>191.0</ele>
        <time>2014-11-15T09:07:35Z</time>
      </trkpt>
      <trkpt lat="54.274636" lon="-3.207893">
        <ele>192.0</ele>
        <time>2014-11-15T09:07:39Z</time>
      </trkpt>
      <trkpt lat="54.27476" lon="-3.20786">
        <ele>194.0</ele>
        <time>2014-11-15T09:07:43Z</time>
      </trkpt>
      <trkpt lat="54.274875" lon="-3.207876">
        <ele>196.0</ele>
        <time>2014-11-15T09:07:47Z</time>
      </trkpt>
      <trkpt lat="54.27501" lon="-3.207963">
        <ele>197.0</ele>
        <time>2014-11-15T09:07:51Z</time>
      </trkpt>
      <trkpt lat="54.275141" lon="-3.208095">
        <ele>199.0</ele>
        <time>2014-11-15T09:07:55Z</time>
      </trkpt>
      <trkpt lat="54.275175" lon="-3.208241">
        <ele>200.0</ele>
        <time>2014-11-15T09:07:59Z</time>
      </trkpt>
      <trkpt lat="54.275353" lon="-3.208366">
        <ele>201.0</ele>
        <time>2014-11-15T09:08:03Z</time>
      </trkpt>
      <trkpt lat="54.275498" lon="-3.208553">
        <ele>201.0</ele>
        <time>2014-11-15T09:08:07Z</time>
      </trkpt>
      <trkpt lat="54.275666" lon="-3.208713">
        <ele>200.0</ele>
        <time>2014-11-15T09:08:11Z</time>
      </trkpt>
      <trkpt lat="54.275903" lon="-3.208955">
        <ele>200.0</ele>
        <time>2014-11-15T09:08:15Z</time>
      </trkpt>
      <trkpt lat="54.276165" lon="-3.209153">
        <ele>197.0</ele>
        <time>2014-11-15T09:08:19Z</time>
      </trkpt>
      <trkpt lat="54.276511" lon="-3.209175">
        <ele>194.0</ele>
        <time>2014-11-15T09:08:23Z</time>
      </trkpt>
      <trkpt lat="54.276795" lon="-3.20947">
        <ele>189.0</ele>
        <time>2014-11-15T09:08:27Z</time>
      </trkpt>
      <trkpt lat="54.276946" lon="-3.209881">
        <ele>187.0</ele>
        <time>2014-11-15T09:08:31Z</time>
      </trkpt>
      <trkpt lat="54.27711" lon="-3.210225">
        <ele>187.0</ele>
        <time>2014-11-15T09:08:35Z</time>
      </trkpt>
      <trkpt lat="54.277266" lon="-3.210508">
        <ele>187.0</ele>
        <time>2014-11-15T09:08:39Z</time>
      </trkpt>
      <trkpt lat="54.277365" lon="-3.21074">
        <ele>188.0</ele>
        <time>2014-11-15T09:08:43Z</time>
      </trkpt>
      <trkpt lat="54.277473" lon="-3.210996">
        <ele>191.0</ele>
        <time>2014-11-15T09:08:47Z</time>
      </trkpt>
      <trkpt lat="54.277563" lon="-3.21124">
        <ele>192.0</ele>
        <time>2014-11-15T09:08:51Z</time>
      </trkpt>
      <trkpt lat="54.277618" lon="-3.21145">
        <ele>194.0</ele>
        <time>2014-11-15T09:08:55Z</time>
      </trkpt>
      <trkpt lat="54.277676" lon="-3.211655">
        <ele>195.0</ele>
        <time>2014-11-15T09:08:59Z</time>
      </trkpt>
      <trkpt lat="54.277798" lon="-3.211691">
        <ele>195.0</ele>
        <time>2014-11-15T09:09:03Z</time>
      </trkpt>
      <trkpt lat="54.277921" lon="-3.211893">
        <ele>197.0</ele>
        <time>2014-11-15T09:09:07Z</time>
      </trkpt>
      <trkpt lat="54.278001" lon="-3.212078">
        <ele>198.0</ele>
        <time>2014-11-15T09:09:11Z</time>
      </trkpt>
      <trkpt lat="54.278038" lon="-3.212335">
        <ele>199.0</ele>
        <time>2014-11-15T09:09:15Z</time>
      </trkpt>
      <trkpt lat="54.278098" lon="-3.212553">
        <ele>200.0</ele>
        <time>2014-11-15T09:09:19Z</time>
      </trkpt>
      <trkpt lat="54.278183" lon="-3.212741">
        <ele>201.0</ele>
        <time>2014-11-15T09:09:23Z</time>
      </trkpt>
      <trkpt lat="54.27826" lon="-3.21293">
        <ele>203.0</ele>
        <time>2014-11-15T09:09:27Z</time>
      </trkpt>
      <trkpt lat="54.278316" lon="-3.213145">
        <ele>204.0</ele>
        <time>2014-11-15T09:09:31Z</time>
      </trkpt>
      <trkpt lat="54.278416" lon="-3.2134">
        <ele>205.0</ele>
        <time>2014-11-15T09:09:35Z</time>
      </trkpt>
      <trkpt lat="54.278523" lon="-3.21366">
        <ele>205.0</ele>
        <time>2014-11-15T09:09:39Z</time>
      </trkpt>
      <trkpt lat="54.278681" lon="-3.213856">
        <ele>205.0</ele>
        <time>2014-11-15T09:09:43Z</time>
      </trkpt>
      <trkpt lat="54.278831" lon="-3.213958">
        <ele>205.0</ele>
        <time>2014-11-15T09:09:47Z</time>
      </trkpt>
      <trkpt lat="54.279091" lon="-3.213908">
        <ele>205.0</ele>
        <time>2014-11-15T09:09:51Z</time>
      </trkpt>
      <trkpt lat="54.279353" lon="-3.213961">
        <ele>205.0</ele>
        <time>2014-11-15T09:09:55Z</time>
      </trkpt>
      <trkpt lat="54.279593" lon="-3.213895">
        <ele>204.0</ele>
        <time>2014-11-15T09:09:59Z</time>
      </trkpt>
      <trkpt lat="54.279825" lon="-3.21375">
        <ele>205.0</ele>
        <time>2014-11-15T09:10:03Z</time>
      </trkpt>
      <trkpt lat="54.28007" lon="-3.213596">
        <ele>204.0</ele>
        <time>2014-11-15T09:10:07Z</time>
      </trkpt>
      <trkpt lat="54.280305" lon="-3.213441">
        <ele>204.0</ele>
        <time>2014-11-15T09:10:11Z</time>
      </trkpt>
      <trkpt lat="54.280523" lon="-3.213286">
        <ele>204.0</ele>
        <time>2014-11-15T09:10:15Z</time>
      </trkpt>
      <trkpt lat="54.28073" lon="-3.21313">
        <ele>204.0</ele>
        <time>2014-11-15T09:10:19Z</time>
      </trkpt>
      <trkpt lat="54.280948" lon="-3.212973">
        <ele>205.0</ele>
        <time>2014-11-15T09:10:23Z</time>
      </trkpt>
      <trkpt lat="54.281168" lon="-3.212815">
        <ele>205.0</ele>
        <time>2014-11-15T09:10:27Z</time>
      </trkpt>
      <trkpt lat="54.28143" lon="-3.212635">
        <ele>205.0</ele>
        <time>2014-11-15T09:10:31Z</time>
      </trkpt>
      <trkpt lat="54.28164" lon="-3.212503">
        <ele>205.0</ele>
        <time>2014-11-15T09:10:35Z</time>
      </trkpt>
      <trkpt lat="54.28184" lon="-3.212323">
        <ele>206.0</ele>
        <time>2014-11-15T09:10:39Z</time>
      </trkpt>
      <trkpt lat="54.281981" lon="-3.212216">
        <ele>207.0</ele>
        <time>2014-11-15T09:10:43Z</time>
      </trkpt>
      <trkpt lat="54.282146" lon="-3.21201">
        <ele>208.0</ele>
        <time>2014-11-15T09:10:47Z</time>
      </trkpt>
      <trkpt lat="54.28234" lon="-3.211853">
        <ele>208.0</ele>
        <time>2014-11-15T09:10:51Z</time>
      </trkpt>
      <trkpt lat="54.282525" lon="-3.21165">
        <ele>208.0</ele>
        <time>2014-11-15T09:10:55Z</time>
      </trkpt>
      <trkpt lat="54.282741" lon="-3.211523">
        <ele>208.0</ele>
        <time>2014-11-15T09:10:59Z</time>
      </trkpt>
      <trkpt lat="54.2829" lon="-3.211286">
        <ele>209.0</ele>
        <time>2014-11-15T09:11:03Z</time>
      </trkpt>
      <trkpt lat="54.282995" lon="-3.210941">
        <ele>209.0</ele>
        <time>2014-11-15T09:11:07Z</time>
      </trkpt>
      <trkpt lat="54.283113" lon="-3.210566">
        <ele>209.0</ele>
        <time>2014-11-15T09:11:11Z</time>
      </trkpt>
      <trkpt lat="54.28322" lon="-3.210191">
        <ele>209.0</ele>
        <time>2014-11-15T09:11:15Z</time>
      </trkpt>
      <trkpt lat="54.283375" lon="-3.209868">
        <ele>209.0</ele>
        <time>2014-11-15T09:11:19Z</time>
      </trkpt>
      <trkpt lat="54.283558" lon="-3.209496">
        <ele>209.0</ele>
        <time>2014-11-15T09:11:23Z</time>
      </trkpt>
      <trkpt lat="54.283693" lon="-3.209238">
        <ele>209.0</ele>
        <time>2014-11-15T09:11:27Z</time>
      </trkpt>
      <trkpt lat="54.283875" lon="-3.209118">
        <ele>210.0</ele>
        <time>2014-11-15T09:11:31Z</time>
      </trkpt>
      <trkpt lat="54.284083" lon="-3.208958">
        <ele>211.0</ele>
        <time>2014-11-15T09:11:35Z</time>
      </trkpt>
      <trkpt lat="54.284248" lon="-3.208786">
        <ele>211.0</ele>
        <time>2014-11-15T09:11:39Z</time>
      </trkpt>
      <trkpt lat="54.284463" lon="-3.208696">
        <ele>212.0</ele>
        <time>2014-11-15T09:11:43Z</time>
      </trkpt>
      <trkpt lat="54.284661" lon="-3.20865">
        <ele>212.0</ele>
        <time>2014-11-15T09:11:47Z</time>
      </trkpt>
      <trkpt lat="54.284796" lon="-3.208565">
        <ele>214.0</ele>
        <time>2014-11-15T09:11:51Z</time>
      </trkpt>
      <trkpt lat="54.284928" lon="-3.208476">
        <ele>215.0</ele>
        <time>2014-11-15T09:11:55Z</time>
      </trkpt>
      <trkpt lat="54.285003" lon="-3.208371">
        <ele>216.0</ele>
        <time>2014-11-15T09:11:59Z</time>
      </trkpt>
      <trkpt lat="54.285091" lon="-3.208213">
        <ele>217.0</ele>
        <time>2014-11-15T09:12:03Z</time>
      </trkpt>
      <trkpt lat="54.285203" lon="-3.208108">
        <ele>218.0</ele>
        <time>2014-11-15T09:12:07Z</time>
      </trkpt>
      <trkpt lat="54.285326" lon="-3.208046">
        <ele>218.0</ele>
        <time>2014-11-15T09:12:11Z</time>
      </trkpt>
      <trkpt lat="54.285476" lon="-3.207955">
        <ele>219.0</ele>
        <time>2014-11-15T09:12:15Z</time>
      </trkpt>
      <trkpt lat="54.285605" lon="-3.20784">
        <ele>220.0</ele>
        <time>2014-11-15T09:12:19Z</time>
      </trkpt>
      <trkpt lat="54.285763" lon="-3.207696">
        <ele>220.0</ele>
        <time>2014-11-15T09:12:23Z</time>
      </trkpt>
      <trkpt lat="54.285898" lon="-3.207548">
        <ele>221.0</ele>
        <time>2014-11-15T09:12:27Z</time>
      </trkpt>
      <trkpt lat="54.286051" lon="-3.20736">
        <ele>221.0</ele>
        <time>2014-11-15T09:12:31Z</time>
      </trkpt>
      <trkpt lat="54.286178" lon="-3.20723">
        <ele>222.0</ele>
        <time>2014-11-15T09:12:35Z</time>
      </trkpt>
      <trkpt lat="54.286291" lon="-3.207138">
        <ele>223.0</ele>
        <time>2014-11-15T09:12:39Z</time>
      </trkpt>
      <trkpt lat="54.286376" lon="-3.207055">
        <ele>225.0</ele>
        <time>2014-11-15T09:12:43Z</time>
      </trkpt>
      <trkpt lat="54.286468" lon="-3.206953">
        <ele>227.0</ele>
        <time>2014-11-15T09:12:47Z</time>
      </trkpt>
      <trkpt lat="54.286548" lon="-3.20687">
        <ele>228.0</ele>
        <time>2014-11-15T09:12:51Z</time>
      </trkpt>
      <trkpt lat="54.286631" lon="-3.206813">
        <ele>229.0</ele>
        <time>2014-11-15T09:12:55Z</time>
      </trkpt>
      <trkpt lat="54.286778" lon="-3.20678">
        <ele>230.0</ele>
        <time>2014-11-15T09:12:59Z</time>
      </trkpt>
      <trkpt lat="54.286965" lon="-3.206701">
        <ele>232.0</ele>
        <time>2014-11-15T09:13:03Z</time>
      </trkpt>
      <trkpt lat="54.287131" lon="-3.206566">
        <ele>232.0</ele>
        <time>2014-11-15T09:13:07Z</time>
      </trkpt>
      <trkpt lat="54.287216" lon="-3.206433">
        <ele>233.0</ele>
        <time>2014-11-15T09:13:11Z</time>
      </trkpt>
      <trkpt lat="54.28726" lon="-3.206318">
        <ele>235.0</ele>
        <time>2014-11-15T09:13:15Z</time>
      </trkpt>
      <trkpt lat="54.287281" lon="-3.206208">
        <ele>235.0</ele>
        <time>2014-11-15T09:13:19Z</time>
      </trkpt>
      <trkpt lat="54.287336" lon="-3.206115">
        <ele>237.0</ele>
        <time>2014-11-15T09:13:23Z</time>
      </trkpt>
      <trkpt lat="54.287411" lon="-3.205995">
        <ele>238.0</ele>
        <time>2014-11-15T09:13:27Z</time>
      </trkpt>
      <trkpt lat="54.287501" lon="-3.20586">
        <ele>239.0</ele>
        <time>2014-11-15T09:13:31Z</time>
      </trkpt>
      <trkpt lat="54.287588" lon="-3.205753">
        <ele>240.0</ele>
        <time>2014-11-15T09:13:35Z</time>
      </trkpt>
      <trkpt lat="54.28765" lon="-3.205611">
        <ele>241.0</ele>
        <time>2014-11-15T09:13:39Z</time>
      </trkpt>
      <trkpt lat="54.287743" lon="-3.205498">
        <ele>243.0</ele>
        <time>2014-11-15T09:13:43Z</time>
      </trkpt>
      <trkpt lat="54.287836" lon="-3.205393">
        <ele>244.0</ele>
        <time>2014-11-15T09:13:47Z</time>
      </trkpt>
      <trkpt lat="54.287886" lon="-3.205241">
        <ele>244.0</ele>
        <time>2014-11-15T09:13:51Z</time>
      </trkpt>
      <trkpt lat="54.287955" lon="-3.205141">
        <ele>246.0</ele>
        <time>2014-11-15T09:13:55Z</time>
      </trkpt>
      <trkpt lat="54.288041" lon="-3.205048">
        <ele>247.0</ele>
        <time>2014-11-15T09:13:59Z</time>
      </trkpt>
      <trkpt lat="54.288098" lon="-3.20496">
        <ele>248.0</ele>
        <time>2014-11-15T09:14:03Z</time>
      </trkpt>
      <trkpt lat="54.2882" lon="-3.204861">
        <ele>249.0</ele>
        <time>2014-11-15T09:14:07Z</time>
      </trkpt>
      <trkpt lat="54.288338" lon="-3.204743">
        <ele>250.0</ele>
        <time>2014-11-15T09:14:11Z</time>
      </trkpt>
      <trkpt lat="54.28845" lon="-3.2047">
        <ele>251.0</ele>
        <time>2014-11-15T09:14:15Z</time>
      </trkpt>
      <trkpt lat="54.28864" lon="-3.204721">
        <ele>251.0</ele>
        <time>2014-11-15T09:14:19Z</time>
      </trkpt>
      <trkpt lat="54.288803" lon="-3.204683">
        <ele>251.0</ele>
        <time>2014-11-15T09:14:23Z</time>
      </trkpt>
      <trkpt lat="54.288983" lon="-3.20462">
        <ele>251.0</ele>
        <time>2014-11-15T09:14:27Z</time>
      </trkpt>
      <trkpt lat="54.28913" lon="-3.204541">
        <ele>252.0</ele>
        <time>2014-11-15T09:14:31Z</time>
      </trkpt>
      <trkpt lat="54.28926" lon="-3.204486">
        <ele>252.0</ele>
        <time>2014-11-15T09:14:35Z</time>
      </trkpt>
      <trkpt lat="54.289458" lon="-3.204421">
        <ele>253.0</ele>
        <time>2014-11-15T09:14:39Z</time>
      </trkpt>
      <trkpt lat="54.289626" lon="-3.204476">
        <ele>255.0</ele>
        <time>2014-11-15T09:14:43Z</time>
      </trkpt>
      <trkpt lat="54.289768" lon="-3.204401">
        <ele>255.0</ele>
        <time>2014-11-15T09:14:47Z</time>
      </trkpt>
      <trkpt lat="54.289878" lon="-3.20432">
        <ele>256.0</ele>
        <time>2014-11-15T09:14:51Z</time>
      </trkpt>
      <trkpt lat="54.289986" lon="-3.204223">
        <ele>258.0</ele>
        <time>2014-11-15T09:14:55Z</time>
      </trkpt>
      <trkpt lat="54.290118" lon="-3.20412">
        <ele>258.0</ele>
        <time>2014-11-15T09:14:59Z</time>
      </trkpt>
      <trkpt lat="54.290291" lon="-3.203981">
        <ele>259.0</ele>
        <time>2014-11-15T09:15:03Z</time>
      </trkpt>
      <trkpt lat="54.290425" lon="-3.203845">
        <ele>259.0</ele>
        <time>2014-11-15T09:15:07Z</time>
      </trkpt>
      <trkpt lat="54.29056" lon="-3.203701">
        <ele>260.0</ele>
        <time>2014-11-15T09:15:11Z</time>
      </trkpt>
      <trkpt lat="54.29072" lon="-3.203563">
        <ele>261.0</ele>
        <time>2014-11-15T09:15:15Z</time>
      </trkpt>
      <trkpt lat="54.290891" lon="-3.203371">
        <ele>261.0</ele>
        <time>2014-11-15T09:15:19Z</time>
      </trkpt>
      <trkpt lat="54.291048" lon="-3.203211">
        <ele>262.0</ele>
        <time>2014-11-15T09:15:23Z</time>
      </trkpt>
      <trkpt lat="54.291206" lon="-3.203076">
        <ele>263.0</ele>
        <time>2014-11-15T09:15:27Z</time>
      </trkpt>
      <trkpt lat="54.291356" lon="-3.202875">
        <ele>263.0</ele>
        <time>2014-11-15T09:15:31Z</time>
      </trkpt>
      <trkpt lat="54.291511" lon="-3.202716">
        <ele>264.0</ele>
        <time>2014-11-15T09:15:35Z</time>
      </trkpt>
      <trkpt lat="54.291673" lon="-3.202611">
        <ele>264.0</ele>
        <time>2014-11-15T09:15:39Z</time>
      </trkpt>
      <trkpt lat="54.291813" lon="-3.20247">
        <ele>265.0</ele>
        <time>2014-11-15T09:15:43Z</time>
      </trkpt>
      <trkpt lat="54.291978" lon="-3.202371">
        <ele>266.0</ele>
        <time>2014-11-15T09:15:47Z</time>
      </trkpt>
      <trkpt lat="54.292171" lon="-3.202298">
        <ele>266.0</ele>
        <time>2014-11-15T09:15:51Z</time>
      </trkpt>
      <trkpt lat="54.292318" lon="-3.20224">
        <ele>266.0</ele>
        <time>2014-11-15T09:15:55Z</time>
      </trkpt>
      <trkpt lat="54.292443" lon="-3.202071">
        <ele>268.0</ele>
        <time>2014-11-15T09:15:59Z</time>
      </trkpt>
      <trkpt lat="54.292576" lon="-3.201896">
        <ele>269.0</ele>
        <time>2014-11-15T09:16:03Z</time>
      </trkpt>
      <trkpt lat="54.292686" lon="-3.201748">
        <ele>270.0</ele>
        <time>2014-11-15T09:16:07Z</time>
      </trkpt>
      <trkpt lat="54.292876" lon="-3.201628">
        <ele>270.0</ele>
        <time>2014-11-15T09:16:11Z</time>
      </trkpt>
      <trkpt lat="54.293041" lon="-3.201551">
        <ele>271.0</ele>
        <time>2014-11-15T09:16:15Z</time>
      </trkpt>
      <trkpt lat="54.293178" lon="-3.201493">
        <ele>272.0</ele>
        <time>2014-11-15T09:16:19Z</time>
      </trkpt>
      <trkpt lat="54.293346" lon="-3.201433">
        <ele>273.0</ele>
        <time>2014-11-15T09:16:23Z</time>
      </trkpt>
      <trkpt lat="54.2935" lon="-3.201366">
        <ele>274.0</ele>
        <time>2014-11-15T09:16:27Z</time>
      </trkpt>
      <trkpt lat="54.293645" lon="-3.20132">
        <ele>275.0</ele>
        <time>2014-11-15T09:16:31Z</time>
      </trkpt>
      <trkpt lat="54.293815" lon="-3.201268">
        <ele>276.0</ele>
        <time>2014-11-15T09:16:35Z</time>
      </trkpt>
      <trkpt lat="54.293933" lon="-3.20126">
        <ele>277.0</ele>
        <time>2014-11-15T09:16:39Z</time>
      </trkpt>
      <trkpt lat="54.294058" lon="-3.201226">
        <ele>278.0</ele>
        <time>2014-11-15T09:16:43Z</time>
      </trkpt>
      <trkpt lat="54.2942" lon="-3.201231">
        <ele>279.0</ele>
        <time>2014-11-15T09:16:47Z</time>
      </trkpt>
      <trkpt lat="54.294336" lon="-3.201275">
        <ele>280.0</ele>
        <time>2014-11-15T09:16:51Z</time>
      </trkpt>
      <trkpt lat="54.294505" lon="-3.201366">
        <ele>281.0</ele>
        <time>2014-11-15T09:16:55Z</time>
      </trkpt>
      <trkpt lat="54.294698" lon="-3.201481">
        <ele>282.0</ele>
        <time>2014-11-15T09:16:59Z</time>
      </trkpt>
      <trkpt lat="54.294918" lon="-3.201575">
        <ele>281.0</ele>
        <time>2014-11-15T09:17:03Z</time>
      </trkpt>
      <trkpt lat="54.295181" lon="-3.201638">
        <ele>280.0</ele>
        <time>2014-11-15T09:17:07Z</time>
      </trkpt>
      <trkpt lat="54.295431" lon="-3.201716">
        <ele>279.0</ele>
        <time>2014-11-15T09:17:11Z</time>
      </trkpt>
      <trkpt lat="54.295716" lon="-3.201733">
        <ele>277.0</ele>
        <time>2014-11-15T09:17:15Z</time>
      </trkpt>
      <trkpt lat="54.295946" lon="-3.201728">
        <ele>278.0</ele>
        <time>2014-11-15T09:17:19Z</time>
      </trkpt>
      <trkpt lat="54.296203" lon="-3.201801">
        <ele>278.0</ele>
        <time>2014-11-15T09:17:23Z</time>
      </trkpt>
      <trkpt lat="54.296471" lon="-3.20178">
        <ele>277.0</ele>
        <time>2014-11-15T09:17:27Z</time>
      </trkpt>
      <trkpt lat="54.29692" lon="-3.201636">
        <ele>275.0</ele>
        <time>2014-11-15T09:17:31Z</time>
      </trkpt>
      <trkpt lat="54.297341" lon="-3.201401">
        <ele>271.0</ele>
        <time>2014-11-15T09:17:35Z</time>
      </trkpt>
      <trkpt lat="54.297778" lon="-3.201231">
        <ele>267.0</ele>
        <time>2014-11-15T09:17:39Z</time>
      </trkpt>
      <trkpt lat="54.29809" lon="-3.201131">
        <ele>264.0</ele>
        <time>2014-11-15T09:17:43Z</time>
      </trkpt>
      <trkpt lat="54.298496" lon="-3.200985">
        <ele>262.0</ele>
        <time>2014-11-15T09:17:47Z</time>
      </trkpt>
      <trkpt lat="54.2989" lon="-3.200835">
        <ele>259.0</ele>
        <time>2014-11-15T09:17:51Z</time>
      </trkpt>
      <trkpt lat="54.299291" lon="-3.200778">
        <ele>256.0</ele>
        <time>2014-11-15T09:17:55Z</time>
      </trkpt>
      <trkpt lat="54.29973" lon="-3.200806">
        <ele>251.0</ele>
        <time>2014-11-15T09:17:59Z</time>
      </trkpt>
      <trkpt lat="54.300185" lon="-3.200556">
        <ele>244.0</ele>
        <time>2014-11-15T09:18:03Z</time>
      </trkpt>
      <trkpt lat="54.300508" lon="-3.200111">
        <ele>241.0</ele>
        <time>2014-11-15T09:18:07Z</time>
      </trkpt>
      <trkpt lat="54.300781" lon="-3.199716">
        <ele>240.0</ele>
        <time>2014-11-15T09:18:11Z</time>
      </trkpt>
      <trkpt lat="54.301098" lon="-3.199461">
        <ele>240.0</ele>
        <time>2014-11-15T09:18:15Z</time>
      </trkpt>
      <trkpt lat="54.301385" lon="-3.199163">
        <ele>239.0</ele>
        <time>2014-11-15T09:18:19Z</time>
      </trkpt>
      <trkpt lat="54.301605" lon="-3.198875">
        <ele>240.0</ele>
        <time>2014-11-15T09:18:23Z</time>
      </trkpt>
      <trkpt lat="54.301855" lon="-3.19859">
        <ele>239.0</ele>
        <time>2014-11-15T09:18:27Z</time>
      </trkpt>
      <trkpt lat="54.30212" lon="-3.198355">
        <ele>238.0</ele>
        <time>2014-11-15T09:18:31Z</time>
      </trkpt>
      <trkpt lat="54.302468" lon="-3.198111">
        <ele>236.0</ele>
        <time>2014-11-15T09:18:35Z</time>
      </trkpt>
      <trkpt lat="54.302803" lon="-3.197733">
        <ele>233.0</ele>
        <time>2014-11-15T09:18:39Z</time>
      </trkpt>
      <trkpt lat="54.303093" lon="-3.19739">
        <ele>231.0</ele>
        <time>2014-11-15T09:18:43Z</time>
      </trkpt>
      <trkpt lat="54.30352" lon="-3.197053">
        <ele>230.0</ele>
        <time>2014-11-15T09:18:47Z</time>
      </trkpt>
      <trkpt lat="54.303818" lon="-3.197066">
        <ele>230.0</ele>
        <time>2014-11-15T09:18:51Z</time>
      </trkpt>
      <trkpt lat="54.304076" lon="-3.196933">
        <ele>227.0</ele>
        <time>2014-11-15T09:18:55Z</time>
      </trkpt>
      <trkpt lat="54.304386" lon="-3.19674">
        <ele>225.0</ele>
        <time>2014-11-15T09:18:59Z</time>
      </trkpt>
      <trkpt lat="54.304653" lon="-3.196533">
        <ele>225.0</ele>
        <time>2014-11-15T09:19:03Z</time>
      </trkpt>
      <trkpt lat="54.305041" lon="-3.19643">
        <ele>223.0</ele>
        <time>2014-11-15T09:19:07Z</time>
      </trkpt>
      <trkpt lat="54.305378" lon="-3.196216">
        <ele>221.0</ele>
        <time>2014-11-15T09:19:11Z</time>
      </trkpt>
      <trkpt lat="54.30566" lon="-3.196155">
        <ele>217.0</ele>
        <time>2014-11-15T09:19:15Z</time>
      </trkpt>
      <trkpt lat="54.305921" lon="-3.19644">
        <ele>214.0</ele>
        <time>2014-11-15T09:19:19Z</time>
      </trkpt>
      <trkpt lat="54.306123" lon="-3.196675">
        <ele>213.0</ele>
        <time>2014-11-15T09:19:23Z</time>
      </trkpt>
      <trkpt lat="54.306325" lon="-3.196608">
        <ele>214.0</ele>
        <time>2014-11-15T09:19:27Z</time>
      </trkpt>
      <trkpt lat="54.306506" lon="-3.19636">
        <ele>213.0</ele>
        <time>2014-11-15T09:19:31Z</time>
      </trkpt>
      <trkpt lat="54.306681" lon="-3.196276">
        <ele>213.0</ele>
        <time>2014-11-15T09:19:35Z</time>
      </trkpt>
      <trkpt lat="54.306925" lon="-3.19616">
        <ele>213.0</ele>
        <time>2014-11-15T09:19:39Z</time>
      </trkpt>
      <trkpt lat="54.307111" lon="-3.196011">
        <ele>214.0</ele>
        <time>2014-11-15T09:19:43Z</time>
      </trkpt>
      <trkpt lat="54.307281" lon="-3.195905">
        <ele>215.0</ele>
        <time>2014-11-15T09:19:47Z</time>
      </trkpt>
      <trkpt lat="54.307466" lon="-3.19591">
        <ele>215.0</ele>
        <time>2014-11-15T09:19:51Z</time>
      </trkpt>
      <trkpt lat="54.307665" lon="-3.195848">
        <ele>216.0</ele>
        <time>2014-11-15T09:19:55Z</time>
      </trkpt>
      <trkpt lat="54.307856" lon="-3.195588">
        <ele>217.0</ele>
        <time>2014-11-15T09:19:59Z</time>
      </trkpt>
      <trkpt lat="54.307883" lon="-3.195328">
        <ele>218.0</ele>
        <time>2014-11-15T09:20:03Z</time>
      </trkpt>
      <trkpt lat="54.307873" lon="-3.195068">
        <ele>218.0</ele>
        <time>2014-11-15T09:20:07Z</time>
      </trkpt>
      <trkpt lat="54.307883" lon="-3.194898">
        <ele>221.0</ele>
        <time>2014-11-15T09:20:11Z</time>
      </trkpt>
      <trkpt lat="54.307896" lon="-3.19465">
        <ele>222.0</ele>
        <time>2014-11-15T09:20:15Z</time>
      </trkpt>
      <trkpt lat="54.307916" lon="-3.19447">
        <ele>224.0</ele>
        <time>2014-11-15T09:20:19Z</time>
      </trkpt>
      <trkpt lat="54.307948" lon="-3.19432">
        <ele>225.0</ele>
        <time>2014-11-15T09:20:23Z</time>
      </trkpt>
      <trkpt lat="54.308021" lon="-3.194156">
        <ele>226.0</ele>
        <time>2014-11-15T09:20:27Z</time>
      </trkpt>
      <trkpt lat="54.30815" lon="-3.194003">
        <ele>227.0</ele>
        <time>2014-11-15T09:20:31Z</time>
      </trkpt>
      <trkpt lat="54.308285" lon="-3.193926">
        <ele>227.0</ele>
        <time>2014-11-15T09:20:35Z</time>
      </trkpt>
      <trkpt lat="54.30842" lon="-3.193901">
        <ele>228.0</ele>
        <time>2014-11-15T09:20:39Z</time>
      </trkpt>
      <trkpt lat="54.308515" lon="-3.193855">
        <ele>229.0</ele>
        <time>2014-11-15T09:20:43Z</time>
      </trkpt>
      <trkpt lat="54.30857" lon="-3.193841">
        <ele>229.0</ele>
        <time>2014-11-15T09:20:47Z</time>
      </trkpt>
      <trkpt lat="54.308723" lon="-3.193888">
        <ele>231.0</ele>
        <time>2014-11-15T09:20:51Z</time>
      </trkpt>
      <trkpt lat="54.308853" lon="-3.193851">
        <ele>232.0</ele>
        <time>2014-11-15T09:20:55Z</time>
      </trkpt>
      <trkpt lat="54.308871" lon="-3.193828">
        <ele>234.0</ele>
        <time>2014-11-15T09:20:59Z</time>
      </trkpt>
      <trkpt lat="54.308966" lon="-3.193855">
        <ele>235.0</ele>
        <time>2014-11-15T09:21:03Z</time>
      </trkpt>
      <trkpt lat="54.309073" lon="-3.194016">
        <ele>236.0</ele>
        <time>2014-11-15T09:21:07Z</time>
      </trkpt>
      <trkpt lat="54.309136" lon="-3.19412">
        <ele>237.0</ele>
        <time>2014-11-15T09:21:11Z</time>
      </trkpt>
      <trkpt lat="54.309301" lon="-3.194095">
        <ele>238.0</ele>
        <time>2014-11-15T09:21:15Z</time>
      </trkpt>
      <trkpt lat="54.309351" lon="-3.194163">
        <ele>239.0</ele>
        <time>2014-11-15T09:21:19Z</time>
      </trkpt>
      <trkpt lat="54.309453" lon="-3.19424">
        <ele>241.0</ele>
        <time>2014-11-15T09:21:23Z</time>
      </trkpt>
      <trkpt lat="54.309533" lon="-3.19432">
        <ele>243.0</ele>
        <time>2014-11-15T09:21:27Z</time>
      </trkpt>
      <trkpt lat="54.309585" lon="-3.194368">
        <ele>244.0</ele>
        <time>2014-11-15T09:21:31Z</time>
      </trkpt>
      <trkpt lat="54.309658" lon="-3.194423">
        <ele>245.0</ele>
        <time>2014-11-15T09:21:35Z</time>
      </trkpt>
      <trkpt lat="54.309728" lon="-3.194483">
        <ele>247.0</ele>
        <time>2014-11-15T09:21:39Z</time>
      </trkpt>
      <trkpt lat="54.309793" lon="-3.194491">
        <ele>248.0</ele>
        <time>2014-11-15T09:21:43Z</time>
      </trkpt>
      <trkpt lat="54.30986" lon="-3.194485">
        <ele>249.0</ele>
        <time>2014-11-15T09:21:47Z</time>
      </trkpt>
      <trkpt lat="54.309923" lon="-3.194501">
        <ele>250.0</ele>
        <time>2014-11-15T09:21:51Z</time>
      </trkpt>
      <trkpt lat="54.309968" lon="-3.194521">
        <ele>252.0</ele>
        <time>2014-11-15T09:21:55Z</time>
      </trkpt>
      <trkpt lat="54.310035" lon="-3.194503">
        <ele>253.0</ele>
        <time>2014-11-15T09:21:59Z</time>
      </trkpt>
      <trkpt lat="54.310118" lon="-3.194496">
        <ele>255.0</ele>
        <time>2014-11-15T09:22:03Z</time>
      </trkpt>
      <trkpt lat="54.310188" lon="-3.194481">
        <ele>256.0</ele>
        <time>2014-11-15T09:22:07Z</time>
      </trkpt>
      <trkpt lat="54.310338" lon="-3.194536">
        <ele>257.0</ele>
        <time>2014-11-15T09:22:11Z</time>
      </trkpt>
      <trkpt lat="54.310416" lon="-3.194576">
        <ele>259.0</ele>
        <time>2014-11-15T09:22:15Z</time>
      </trkpt>
      <trkpt lat="54.310496" lon="-3.194641">
        <ele>260.0</ele>
        <time>2014-11-15T09:22:19Z</time>
      </trkpt>
      <trkpt lat="54.310596" lon="-3.194651">
        <ele>261.0</ele>
        <time>2014-11-15T09:22:23Z</time>
      </trkpt>
      <trkpt lat="54.310713" lon="-3.194626">
        <ele>262.0</ele>
        <time>2014-11-15T09:22:27Z</time>
      </trkpt>
      <trkpt lat="54.310828" lon="-3.194648">
        <ele>263.0</ele>
        <time>2014-11-15T09:22:31Z</time>
      </trkpt>
      <trkpt lat="54.31095" lon="-3.194641">
        <ele>264.0</ele>
        <time>2014-11-15T09:22:35Z</time>
      </trkpt>
      <trkpt lat="54.311048" lon="-3.1946">
        <ele>264.0</ele>
        <time>2014-11-15T09:22:39Z</time>
      </trkpt>
      <trkpt lat="54.311113" lon="-3.194538">
        <ele>265.0</ele>
        <time>2014-11-15T09:22:43Z</time>
      </trkpt>
      <trkpt lat="54.311215" lon="-3.194545">
        <ele>266.0</ele>
        <time>2014-11-15T09:22:47Z</time>
      </trkpt>
      <trkpt lat="54.311341" lon="-3.194583">
        <ele>267.0</ele>
        <time>2014-11-15T09:22:51Z</time>
      </trkpt>
      <trkpt lat="54.311475" lon="-3.194673">
        <ele>268.0</ele>
        <time>2014-11-15T09:22:55Z</time>
      </trkpt>
      <trkpt lat="54.31154" lon="-3.194746">
        <ele>269.0</ele>
        <time>2014-11-15T09:22:59Z</time>
      </trkpt>
      <trkpt lat="54.311631" lon="-3.194811">
        <ele>270.0</ele>
        <time>2014-11-15T09:23:03Z</time>
      </trkpt>
      <trkpt lat="54.311756" lon="-3.194863">
        <ele>270.0</ele>
        <time>2014-11-15T09:23:07Z</time>
      </trkpt>
      <trkpt lat="54.311835" lon="-3.195005">
        <ele>271.0</ele>
        <time>2014-11-15T09:23:11Z</time>
      </trkpt>
      <trkpt lat="54.311955" lon="-3.195145">
        <ele>271.0</ele>
        <time>2014-11-15T09:23:15Z</time>
      </trkpt>
      <trkpt lat="54.31209" lon="-3.1953">
        <ele>272.0</ele>
        <time>2014-11-15T09:23:19Z</time>
      </trkpt>
      <trkpt lat="54.31215" lon="-3.195445">
        <ele>272.0</ele>
        <time>2014-11-15T09:23:23Z</time>
      </trkpt>
      <trkpt lat="54.31226" lon="-3.195563">
        <ele>273.0</ele>
        <time>2014-11-15T09:23:27Z</time>
      </trkpt>
      <trkpt lat="54.312423" lon="-3.195738">
        <ele>274.0</ele>
        <time>2014-11-15T09:23:31Z</time>
      </trkpt>
      <trkpt lat="54.312536" lon="-3.195898">
        <ele>275.0</ele>
        <time>2014-11-15T09:23:35Z</time>
      </trkpt>
      <trkpt lat="54.312643" lon="-3.196058">
        <ele>276.0</ele>
        <time>2014-11-15T09:23:39Z</time>
      </trkpt>
      <trkpt lat="54.312766" lon="-3.196281">
        <ele>276.0</ele>
        <time>2014-11-15T09:23:43Z</time>
      </trkpt>
      <trkpt lat="54.31288" lon="-3.196476">
        <ele>277.0</ele>
        <time>2014-11-15T09:23:47Z</time>
      </trkpt>
      <trkpt lat="54.312988" lon="-3.196671">
        <ele>277.0</ele>
        <time>2014-11-15T09:23:51Z</time>
      </trkpt>
      <trkpt lat="54.313013" lon="-3.196898">
        <ele>278.0</ele>
        <time>2014-11-15T09:23:55Z</time>
      </trkpt>
      <trkpt lat="54.31306" lon="-3.197075">
        <ele>279.0</ele>
        <time>2014-11-15T09:23:59Z</time>
      </trkpt>
      <trkpt lat="54.313143" lon="-3.197351">
        <ele>281.0</ele>
        <time>2014-11-15T09:24:03Z</time>
      </trkpt>
      <trkpt lat="54.313133" lon="-3.197518">
        <ele>282.0</ele>
        <time>2014-11-15T09:24:07Z</time>
      </trkpt>
      <trkpt lat="54.31325" lon="-3.19768">
        <ele>284.0</ele>
        <time>2014-11-15T09:24:11Z</time>
      </trkpt>
      <trkpt lat="54.313291" lon="-3.197811">
        <ele>285.0</ele>
        <time>2014-11-15T09:24:15Z</time>
      </trkpt>
      <trkpt lat="54.313376" lon="-3.198013">
        <ele>286.0</ele>
        <time>2014-11-15T09:24:19Z</time>
      </trkpt>
      <trkpt lat="54.313466" lon="-3.198186">
        <ele>287.0</ele>
        <time>2014-11-15T09:24:23Z</time>
      </trkpt>
      <trkpt lat="54.313565" lon="-3.198305">
        <ele>287.0</ele>
        <time>2014-11-15T09:24:27Z</time>
      </trkpt>
      <trkpt lat="54.313685" lon="-3.198443">
        <ele>288.0</ele>
        <time>2014-11-15T09:24:31Z</time>
      </trkpt>
      <trkpt lat="54.31379" lon="-3.198595">
        <ele>289.0</ele>
        <time>2014-11-15T09:24:35Z</time>
      </trkpt>
      <trkpt lat="54.31389" lon="-3.19871">
        <ele>290.0</ele>
        <time>2014-11-15T09:24:39Z</time>
      </trkpt>
      <trkpt lat="54.314013" lon="-3.198876">
        <ele>290.0</ele>
        <time>2014-11-15T09:24:43Z</time>
      </trkpt>
      <trkpt lat="54.314131" lon="-3.198931">
        <ele>291.0</ele>
        <time>2014-11-15T09:24:47Z</time>
      </trkpt>
      <trkpt lat="54.314196" lon="-3.199075">
        <ele>292.0</ele>
        <time>2014-11-15T09:24:51Z</time>
      </trkpt>
      <trkpt lat="54.314303" lon="-3.199073">
        <ele>293.0</ele>
        <time>2014-11-15T09:24:55Z</time>
      </trkpt>
      <trkpt lat="54.314415" lon="-3.199138">
        <ele>294.0</ele>
        <time>2014-11-15T09:24:59Z</time>
      </trkpt>
      <trkpt lat="54.314585" lon="-3.199173">
        <ele>295.0</ele>
        <time>2014-11-15T09:25:03Z</time>
      </trkpt>
      <trkpt lat="54.31467" lon="-3.199253">
        <ele>297.0</ele>
        <time>2014-11-15T09:25:07Z</time>
      </trkpt>
      <trkpt lat="54.31471" lon="-3.199413">
        <ele>299.0</ele>
        <time>2014-11-15T09:25:11Z</time>
      </trkpt>
      <trkpt lat="54.314803" lon="-3.199493">
        <ele>300.0</ele>
        <time>2014-11-15T09:25:15Z</time>
      </trkpt>
      <trkpt lat="54.314935" lon="-3.1996">
        <ele>300.0</ele>
        <time>2014-11-15T09:25:19Z</time>
      </trkpt>
      <trkpt lat="54.315016" lon="-3.199646">
        <ele>301.0</ele>
        <time>2014-11-15T09:25:23Z</time>
      </trkpt>
      <trkpt lat="54.315141" lon="-3.199895">
        <ele>303.0</ele>
        <time>2014-11-15T09:25:27Z</time>
      </trkpt>
      <trkpt lat="54.315228" lon="-3.200033">
        <ele>305.0</ele>
        <time>2014-11-15T09:25:31Z</time>
      </trkpt>
      <trkpt lat="54.315293" lon="-3.200176">
        <ele>306.0</ele>
        <time>2014-11-15T09:25:35Z</time>
      </trkpt>
      <trkpt lat="54.315361" lon="-3.20026">
        <ele>307.0</ele>
        <time>2014-11-15T09:25:39Z</time>
      </trkpt>
      <trkpt lat="54.315458" lon="-3.20032">
        <ele>308.0</ele>
        <time>2014-11-15T09:25:43Z</time>
      </trkpt>
      <trkpt lat="54.315536" lon="-3.20036">
        <ele>309.0</ele>
        <time>2014-11-15T09:25:47Z</time>
      </trkpt>
      <trkpt lat="54.315636" lon="-3.200451">
        <ele>310.0</ele>
        <time>2014-11-15T09:25:51Z</time>
      </trkpt>
      <trkpt lat="54.3157" lon="-3.200461">
        <ele>312.0</ele>
        <time>2014-11-15T09:25:55Z</time>
      </trkpt>
      <trkpt lat="54.315801" lon="-3.200578">
        <ele>313.0</ele>
        <time>2014-11-15T09:25:59Z</time>
      </trkpt>
      <trkpt lat="54.31583" lon="-3.200631">
        <ele>314.0</ele>
        <time>2014-11-15T09:26:03Z</time>
      </trkpt>
      <trkpt lat="54.315918" lon="-3.200713">
        <ele>315.0</ele>
        <time>2014-11-15T09:26:07Z</time>
      </trkpt>
      <trkpt lat="54.315985" lon="-3.200836">
        <ele>317.0</ele>
        <time>2014-11-15T09:26:11Z</time>
      </trkpt>
      <trkpt lat="54.316071" lon="-3.200985">
        <ele>318.0</ele>
        <time>2014-11-15T09:26:15Z</time>
      </trkpt>
      <trkpt lat="54.316138" lon="-3.201068">
        <ele>319.0</ele>
        <time>2014-11-15T09:26:19Z</time>
      </trkpt>
      <trkpt lat="54.316206" lon="-3.201133">
        <ele>321.0</ele>
        <time>2014-11-15T09:26:23Z</time>
      </trkpt>
      <trkpt lat="54.31627" lon="-3.201235">
        <ele>322.0</ele>
        <time>2014-11-15T09:26:27Z</time>
      </trkpt>
      <trkpt lat="54.31636" lon="-3.201285">
        <ele>323.0</ele>
        <time>2014-11-15T09:26:31Z</time>
      </trkpt>
      <trkpt lat="54.316443" lon="-3.201363">
        <ele>324.0</ele>
        <time>2014-11-15T09:26:35Z</time>
      </trkpt>
      <trkpt lat="54.316536" lon="-3.201445">
        <ele>325.0</ele>
        <time>2014-11-15T09:26:39Z</time>
      </trkpt>
      <trkpt lat="54.316646" lon="-3.20153">
        <ele>327.0</ele>
        <time>2014-11-15T09:26:43Z</time>
      </trkpt>
      <trkpt lat="54.316746" lon="-3.20164">
        <ele>328.0</ele>
        <time>2014-11-15T09:26:47Z</time>
      </trkpt>
      <trkpt lat="54.316856" lon="-3.2017">
        <ele>328.0</ele>
        <time>2014-11-15T09:26:51Z</time>
      </trkpt>
      <trkpt lat="54.316896" lon="-3.201776">
        <ele>329.0</ele>
        <time>2014-11-15T09:26:55Z</time>
      </trkpt>
      <trkpt lat="54.317033" lon="-3.201916">
        <ele>329.0</ele>
        <time>2014-11-15T09:26:59Z</time>
      </trkpt>
      <trkpt lat="54.317196" lon="-3.202051">
        <ele>329.0</ele>
        <time>2014-11-15T09:27:03Z</time>
      </trkpt>
      <trkpt lat="54.317258" lon="-3.20211">
        <ele>330.0</ele>
        <time>2014-11-15T09:27:07Z</time>
      </trkpt>
      <trkpt lat="54.317318" lon="-3.202191">
        <ele>331.0</ele>
        <time>2014-11-15T09:27:11Z</time>
      </trkpt>
      <trkpt lat="54.317401" lon="-3.202255">
        <ele>333.0</ele>
        <time>2014-11-15T09:27:15Z</time>
      </trkpt>
      <trkpt lat="54.317505" lon="-3.202353">
        <ele>334.0</ele>
        <time>2014-11-15T09:27:19Z</time>
      </trkpt>
      <trkpt lat="54.317638" lon="-3.202366">
        <ele>335.0</ele>
        <time>2014-11-15T09:27:23Z</time>
      </trkpt>
      <trkpt lat="54.317731" lon="-3.20238">
        <ele>336.0</ele>
        <time>2014-11-15T09:27:27Z</time>
      </trkpt>
      <trkpt lat="54.317858" lon="-3.202345">
        <ele>337.0</ele>
        <time>2014-11-15T09:27:31Z</time>
      </trkpt>
      <trkpt lat="54.317983" lon="-3.202413">
        <ele>338.0</ele>
        <time>2014-11-15T09:27:35Z</time>
      </trkpt>
      <trkpt lat="54.31809" lon="-3.202493">
        <ele>339.0</ele>
        <time>2014-11-15T09:27:39Z</time>
      </trkpt>
      <trkpt lat="54.318221" lon="-3.202565">
        <ele>339.0</ele>
        <time>2014-11-15T09:27:43Z</time>
      </trkpt>
      <trkpt lat="54.318383" lon="-3.20261">
        <ele>340.0</ele>
        <time>2014-11-15T09:27:47Z</time>
      </trkpt>
      <trkpt lat="54.318515" lon="-3.20268">
        <ele>340.0</ele>
        <time>2014-11-15T09:27:51Z</time>
      </trkpt>
      <trkpt lat="54.318616" lon="-3.20275">
        <ele>341.0</ele>
        <time>2014-11-15T09:27:55Z</time>
      </trkpt>
      <trkpt lat="54.318836" lon="-3.202691">
        <ele>342.0</ele>
        <time>2014-11-15T09:27:59Z</time>
      </trkpt>
      <trkpt lat="54.318973" lon="-3.2028">
        <ele>342.0</ele>
        <time>2014-11-15T09:28:03Z</time>
      </trkpt>
      <trkpt lat="54.319066" lon="-3.202911">
        <ele>342.0</ele>
        <time>2014-11-15T09:28:07Z</time>
      </trkpt>
      <trkpt lat="54.319238" lon="-3.202946">
        <ele>343.0</ele>
        <time>2014-11-15T09:28:11Z</time>
      </trkpt>
      <trkpt lat="54.31945" lon="-3.202936">
        <ele>344.0</ele>
        <time>2014-11-15T09:28:15Z</time>
      </trkpt>
      <trkpt lat="54.31967" lon="-3.202993">
        <ele>343.0</ele>
        <time>2014-11-15T09:28:19Z</time>
      </trkpt>
      <trkpt lat="54.319911" lon="-3.203051">
        <ele>343.0</ele>
        <time>2014-11-15T09:28:23Z</time>
      </trkpt>
      <trkpt lat="54.320128" lon="-3.203023">
        <ele>343.0</ele>
        <time>2014-11-15T09:28:27Z</time>
      </trkpt>
      <trkpt lat="54.320363" lon="-3.203061">
        <ele>343.0</ele>
        <time>2014-11-15T09:28:31Z</time>
      </trkpt>
      <trkpt lat="54.32055" lon="-3.20307">
        <ele>343.0</ele>
        <time>2014-11-15T09:28:35Z</time>
      </trkpt>
      <trkpt lat="54.320773" lon="-3.203043">
        <ele>344.0</ele>
        <time>2014-11-15T09:28:39Z</time>
      </trkpt>
      <trkpt lat="54.320941" lon="-3.203068">
        <ele>344.0</ele>
        <time>2014-11-15T09:28:43Z</time>
      </trkpt>
      <trkpt lat="54.321108" lon="-3.203188">
        <ele>344.0</ele>
        <time>2014-11-15T09:28:47Z</time>
      </trkpt>
      <trkpt lat="54.321293" lon="-3.203423">
        <ele>345.0</ele>
        <time>2014-11-15T09:28:51Z</time>
      </trkpt>
      <trkpt lat="54.321451" lon="-3.203695">
        <ele>345.0</ele>
        <time>2014-11-15T09:28:55Z</time>
      </trkpt>
      <trkpt lat="54.321616" lon="-3.203856">
        <ele>345.0</ele>
        <time>2014-11-15T09:28:59Z</time>
      </trkpt>
      <trkpt lat="54.321823" lon="-3.203868">
        <ele>347.0</ele>
        <time>2014-11-15T09:29:03Z</time>
      </trkpt>
      <trkpt lat="54.322045" lon="-3.203866">
        <ele>348.0</ele>
        <time>2014-11-15T09:29:07Z</time>
      </trkpt>
      <trkpt lat="54.322253" lon="-3.20388">
        <ele>348.0</ele>
        <time>2014-11-15T09:29:11Z</time>
      </trkpt>
      <trkpt lat="54.322426" lon="-3.20392">
        <ele>350.0</ele>
        <time>2014-11-15T09:29:15Z</time>
      </trkpt>
      <trkpt lat="54.322596" lon="-3.204071">
        <ele>351.0</ele>
        <time>2014-11-15T09:29:19Z</time>
      </trkpt>
      <trkpt lat="54.322735" lon="-3.20416">
        <ele>352.0</ele>
        <time>2014-11-15T09:29:23Z</time>
      </trkpt>
      <trkpt lat="54.322841" lon="-3.204266">
        <ele>353.0</ele>
        <time>2014-11-15T09:29:27Z</time>
      </trkpt>
      <trkpt lat="54.322923" lon="-3.204366">
        <ele>355.0</ele>
        <time>2014-11-15T09:29:31Z</time>
      </trkpt>
      <trkpt lat="54.32307" lon="-3.204415">
        <ele>356.0</ele>
        <time>2014-11-15T09:29:35Z</time>
      </trkpt>
      <trkpt lat="54.323195" lon="-3.204525">
        <ele>357.0</ele>
        <time>2014-11-15T09:29:39Z</time>
      </trkpt>
      <trkpt lat="54.323293" lon="-3.204698">
        <ele>358.0</ele>
        <time>2014-11-15T09:29:43Z</time>
      </trkpt>
      <trkpt lat="54.3234" lon="-3.204786">
        <ele>360.0</ele>
        <time>2014-11-15T09:29:47Z</time>
      </trkpt>
      <trkpt lat="54.323505" lon="-3.204883">
        <ele>361.0</ele>
        <time>2014-11-15T09:29:51Z</time>
      </trkpt>
      <trkpt lat="54.323605" lon="-3.204961">
        <ele>362.0</ele>
        <time>2014-11-15T09:29:55Z</time>
      </trkpt>
      <trkpt lat="54.323725" lon="-3.205028">
        <ele>363.0</ele>
        <time>2014-11-15T09:29:59Z</time>
      </trkpt>
      <trkpt lat="54.323746" lon="-3.205085">
        <ele>364.0</ele>
        <time>2014-11-15T09:30:03Z</time>
      </trkpt>
      <trkpt lat="54.323836" lon="-3.205211">
        <ele>365.0</ele>
        <time>2014-11-15T09:30:07Z</time>
      </trkpt>
      <trkpt lat="54.323905" lon="-3.205318">
        <ele>367.0</ele>
        <time>2014-11-15T09:30:11Z</time>
      </trkpt>
      <trkpt lat="54.323988" lon="-3.205413">
        <ele>368.0</ele>
        <time>2014-11-15T09:30:15Z</time>
      </trkpt>
      <trkpt lat="54.32407" lon="-3.205491">
        <ele>370.0</ele>
        <time>2014-11-15T09:30:19Z</time>
      </trkpt>
      <trkpt lat="54.324143" lon="-3.205583">
        <ele>371.0</ele>
        <time>2014-11-15T09:30:23Z</time>
      </trkpt>
      <trkpt lat="54.324216" lon="-3.205695">
        <ele>373.0</ele>
        <time>2014-11-15T09:30:27Z</time>
      </trkpt>
      <trkpt lat="54.324295" lon="-3.205818">
        <ele>374.0</ele>
        <time>2014-11-15T09:30:31Z</time>
      </trkpt>
      <trkpt lat="54.324378" lon="-3.205943">
        <ele>375.0</ele>
        <time>2014-11-15T09:30:35Z</time>
      </trkpt>
      <trkpt lat="54.324446" lon="-3.206083">
        <ele>376.0</ele>
        <time>2014-11-15T09:30:39Z</time>
      </trkpt>
      <trkpt lat="54.324546" lon="-3.20632">
        <ele>377.0</ele>
        <time>2014-11-15T09:30:43Z</time>
      </trkpt>
      <trkpt lat="54.324618" lon="-3.20636">
        <ele>377.0</ele>
        <time>2014-11-15T09:30:47Z</time>
      </trkpt>
      <trkpt lat="54.324658" lon="-3.20636">
        <ele>378.0</ele>
        <time>2014-11-15T09:30:51Z</time>
      </trkpt>
      <trkpt lat="54.324748" lon="-3.206383">
        <ele>379.0</ele>
        <time>2014-11-15T09:30:55Z</time>
      </trkpt>
      <trkpt lat="54.324806" lon="-3.206376">
        <ele>379.0</ele>
        <time>2014-11-15T09:30:59Z</time>
      </trkpt>
      <trkpt lat="54.324828" lon="-3.206383">
        <ele>380.0</ele>
        <time>2014-11-15T09:31:03Z</time>
      </trkpt>
      <trkpt lat="54.324843" lon="-3.20638">
        <ele>380.0</ele>
        <time>2014-11-15T09:31:07Z</time>
      </trkpt>
      <trkpt lat="54.324851" lon="-3.206385">
        <ele>380.0</ele>
        <time>2014-11-15T09:31:11Z</time>
      </trkpt>
      <trkpt lat="54.324841" lon="-3.206305">
        <ele>380.0</ele>
        <time>2014-11-15T09:31:15Z</time>
      </trkpt>
      <trkpt lat="54.324821" lon="-3.206306">
        <ele>380.0</ele>
        <time>2014-11-15T09:31:19Z</time>
      </trkpt>
      <trkpt lat="54.32484" lon="-3.206256">
        <ele>380.0</ele>
        <time>2014-11-15T09:31:23Z</time>
      </trkpt>
      <trkpt lat="54.324853" lon="-3.206248">
        <ele>380.0</ele>
        <time>2014-11-15T09:31:27Z</time>
      </trkpt>
      <trkpt lat="54.324861" lon="-3.20632">
        <ele>380.0</ele>
        <time>2014-11-15T09:31:31Z</time>
      </trkpt>
      <trkpt lat="54.324876" lon="-3.206363">
        <ele>380.0</ele>
        <time>2014-11-15T09:31:35Z</time>
      </trkpt>
      <trkpt lat="54.325003" lon="-3.206376">
        <ele>380.0</ele>
        <time>2014-11-15T09:31:39Z</time>
      </trkpt>
      <trkpt lat="54.325141" lon="-3.206423">
        <ele>381.0</ele>
        <time>2014-11-15T09:31:43Z</time>
      </trkpt>
      <trkpt lat="54.32522" lon="-3.206393">
        <ele>381.0</ele>
        <time>2014-11-15T09:31:47Z</time>
      </trkpt>
      <trkpt lat="54.32541" lon="-3.206383">
        <ele>381.0</ele>
        <time>2014-11-15T09:31:51Z</time>
      </trkpt>
      <trkpt lat="54.325613" lon="-3.20639">
        <ele>382.0</ele>
        <time>2014-11-15T09:31:55Z</time>
      </trkpt>
      <trkpt lat="54.32577" lon="-3.20639">
        <ele>383.0</ele>
        <time>2014-11-15T09:31:59Z</time>
      </trkpt>
      <trkpt lat="54.325911" lon="-3.206395">
        <ele>383.0</ele>
        <time>2014-11-15T09:32:03Z</time>
      </trkpt>
      <trkpt lat="54.326036" lon="-3.206486">
        <ele>385.0</ele>
        <time>2014-11-15T09:32:07Z</time>
      </trkpt>
      <trkpt lat="54.326125" lon="-3.20662">
        <ele>386.0</ele>
        <time>2014-11-15T09:32:11Z</time>
      </trkpt>
      <trkpt lat="54.326228" lon="-3.20669">
        <ele>388.0</ele>
        <time>2014-11-15T09:32:15Z</time>
      </trkpt>
      <trkpt lat="54.326326" lon="-3.206776">
        <ele>389.0</ele>
        <time>2014-11-15T09:32:19Z</time>
      </trkpt>
      <trkpt lat="54.326448" lon="-3.20689">
        <ele>391.0</ele>
        <time>2014-11-15T09:32:23Z</time>
      </trkpt>
      <trkpt lat="54.326556" lon="-3.20695">
        <ele>392.0</ele>
        <time>2014-11-15T09:32:27Z</time>
      </trkpt>
      <trkpt lat="54.326573" lon="-3.207015">
        <ele>393.0</ele>
        <time>2014-11-15T09:32:31Z</time>
      </trkpt>
      <trkpt lat="54.326658" lon="-3.207016">
        <ele>395.0</ele>
        <time>2014-11-15T09:32:35Z</time>
      </trkpt>
      <trkpt lat="54.326735" lon="-3.207083">
        <ele>396.0</ele>
        <time>2014-11-15T09:32:39Z</time>
      </trkpt>
      <trkpt lat="54.32676" lon="-3.20711">
        <ele>397.0</ele>
        <time>2014-11-15T09:32:43Z</time>
      </trkpt>
      <trkpt lat="54.326855" lon="-3.207296">
        <ele>398.0</ele>
        <time>2014-11-15T09:32:47Z</time>
      </trkpt>
      <trkpt lat="54.326916" lon="-3.207608">
        <ele>399.0</ele>
        <time>2014-11-15T09:32:51Z</time>
      </trkpt>
      <trkpt lat="54.327005" lon="-3.207723">
        <ele>401.0</ele>
        <time>2014-11-15T09:32:55Z</time>
      </trkpt>
      <trkpt lat="54.327098" lon="-3.207828">
        <ele>402.0</ele>
        <time>2014-11-15T09:32:59Z</time>
      </trkpt>
      <trkpt lat="54.32721" lon="-3.207796">
        <ele>403.0</ele>
        <time>2014-11-15T09:33:03Z</time>
      </trkpt>
      <trkpt lat="54.32732" lon="-3.207885">
        <ele>404.0</ele>
        <time>2014-11-15T09:33:07Z</time>
      </trkpt>
      <trkpt lat="54.327421" lon="-3.207881">
        <ele>405.0</ele>
        <time>2014-11-15T09:33:11Z</time>
      </trkpt>
      <trkpt lat="54.32745" lon="-3.207915">
        <ele>407.0</ele>
        <time>2014-11-15T09:33:15Z</time>
      </trkpt>
      <trkpt lat="54.327561" lon="-3.20804">
        <ele>408.0</ele>
        <time>2014-11-15T09:33:19Z</time>
      </trkpt>
      <trkpt lat="54.327551" lon="-3.208093">
        <ele>410.0</ele>
        <time>2014-11-15T09:33:23Z</time>
      </trkpt>
      <trkpt lat="54.327655" lon="-3.20816">
        <ele>412.0</ele>
        <time>2014-11-15T09:33:27Z</time>
      </trkpt>
      <trkpt lat="54.327723" lon="-3.208195">
        <ele>414.0</ele>
        <time>2014-11-15T09:33:31Z</time>
      </trkpt>
      <trkpt lat="54.327855" lon="-3.208256">
        <ele>415.0</ele>
        <time>2014-11-15T09:33:35Z</time>
      </trkpt>
      <trkpt lat="54.327971" lon="-3.208308">
        <ele>416.0</ele>
        <time>2014-11-15T09:33:39Z</time>
      </trkpt>
      <trkpt lat="54.328046" lon="-3.208406">
        <ele>417.0</ele>
        <time>2014-11-15T09:33:43Z</time>
      </trkpt>
      <trkpt lat="54.328148" lon="-3.208383">
        <ele>419.0</ele>
        <time>2014-11-15T09:33:47Z</time>
      </trkpt>
      <trkpt lat="54.328223" lon="-3.208328">
        <ele>421.0</ele>
        <time>2014-11-15T09:33:51Z</time>
      </trkpt>
      <trkpt lat="54.32831" lon="-3.208358">
        <ele>422.0</ele>
        <time>2014-11-15T09:33:55Z</time>
      </trkpt>
      <trkpt lat="54.328425" lon="-3.208335">
        <ele>423.0</ele>
        <time>2014-11-15T09:33:59Z</time>
      </trkpt>
      <trkpt lat="54.328515" lon="-3.2084">
        <ele>425.0</ele>
        <time>2014-11-15T09:34:03Z</time>
      </trkpt>
      <trkpt lat="54.328626" lon="-3.208436">
        <ele>427.0</ele>
        <time>2014-11-15T09:34:07Z</time>
      </trkpt>
      <trkpt lat="54.328711" lon="-3.208485">
        <ele>428.0</ele>
        <time>2014-11-15T09:34:11Z</time>
      </trkpt>
      <trkpt lat="54.328791" lon="-3.208601">
        <ele>429.0</ele>
        <time>2014-11-15T09:34:15Z</time>
      </trkpt>
      <trkpt lat="54.328873" lon="-3.208676">
        <ele>431.0</ele>
        <time>2014-11-15T09:34:19Z</time>
      </trkpt>
      <trkpt lat="54.328953" lon="-3.20875">
        <ele>432.0</ele>
        <time>2014-11-15T09:34:23Z</time>
      </trkpt>
      <trkpt lat="54.329045" lon="-3.208871">
        <ele>433.0</ele>
        <time>2014-11-15T09:34:27Z</time>
      </trkpt>
      <trkpt lat="54.329125" lon="-3.209021">
        <ele>434.0</ele>
        <time>2014-11-15T09:34:31Z</time>
      </trkpt>
      <trkpt lat="54.329213" lon="-3.209115">
        <ele>434.0</ele>
        <time>2014-11-15T09:34:35Z</time>
      </trkpt>
      <trkpt lat="54.329236" lon="-3.209261">
        <ele>434.0</ele>
        <time>2014-11-15T09:34:39Z</time>
      </trkpt>
      <trkpt lat="54.329238" lon="-3.209481">
        <ele>434.0</ele>
        <time>2014-11-15T09:34:43Z</time>
      </trkpt>
      <trkpt lat="54.329316" lon="-3.209778">
        <ele>432.0</ele>
        <time>2014-11-15T09:34:47Z</time>
      </trkpt>
      <trkpt lat="54.32941" lon="-3.210131">
        <ele>429.0</ele>
        <time>2014-11-15T09:34:51Z</time>
      </trkpt>
      <trkpt lat="54.32963" lon="-3.210508">
        <ele>425.0</ele>
        <time>2014-11-15T09:34:55Z</time>
      </trkpt>
      <trkpt lat="54.329836" lon="-3.21096">
        <ele>419.0</ele>
        <time>2014-11-15T09:34:59Z</time>
      </trkpt>
      <trkpt lat="54.32999" lon="-3.211481">
        <ele>413.0</ele>
        <time>2014-11-15T09:35:03Z</time>
      </trkpt>
      <trkpt lat="54.330195" lon="-3.212033">
        <ele>408.0</ele>
        <time>2014-11-15T09:35:07Z</time>
      </trkpt>
      <trkpt lat="54.33047" lon="-3.21251">
        <ele>401.0</ele>
        <time>2014-11-15T09:35:11Z</time>
      </trkpt>
      <trkpt lat="54.330701" lon="-3.21274">
        <ele>397.0</ele>
        <time>2014-11-15T09:35:15Z</time>
      </trkpt>
      <trkpt lat="54.330861" lon="-3.21281">
        <ele>393.0</ele>
        <time>2014-11-15T09:35:19Z</time>
      </trkpt>
      <trkpt lat="54.331111" lon="-3.212821">
        <ele>388.0</ele>
        <time>2014-11-15T09:35:23Z</time>
      </trkpt>
      <trkpt lat="54.331318" lon="-3.2127">
        <ele>385.0</ele>
        <time>2014-11-15T09:35:27Z</time>
      </trkpt>
      <trkpt lat="54.331511" lon="-3.21222">
        <ele>382.0</ele>
        <time>2014-11-15T09:35:31Z</time>
      </trkpt>
      <trkpt lat="54.331735" lon="-3.211886">
        <ele>377.0</ele>
        <time>2014-11-15T09:35:35Z</time>
      </trkpt>
      <trkpt lat="54.332055" lon="-3.211745">
        <ele>373.0</ele>
        <time>2014-11-15T09:35:39Z</time>
      </trkpt>
      <trkpt lat="54.332398" lon="-3.21144">
        <ele>370.0</ele>
        <time>2014-11-15T09:35:43Z</time>
      </trkpt>
      <trkpt lat="54.332741" lon="-3.211198">
        <ele>366.0</ele>
        <time>2014-11-15T09:35:47Z</time>
      </trkpt>
      <trkpt lat="54.333173" lon="-3.210963">
        <ele>362.0</ele>
        <time>2014-11-15T09:35:51Z</time>
      </trkpt>
      <trkpt lat="54.333576" lon="-3.210793">
        <ele>356.0</ele>
        <time>2014-11-15T09:35:55Z</time>
      </trkpt>
      <trkpt lat="54.333971" lon="-3.210738">
        <ele>351.0</ele>
        <time>2014-11-15T09:35:59Z</time>
      </trkpt>
      <trkpt lat="54.334346" lon="-3.210698">
        <ele>347.0</ele>
        <time>2014-11-15T09:36:03Z</time>
      </trkpt>
      <trkpt lat="54.334701" lon="-3.210678">
        <ele>341.0</ele>
        <time>2014-11-15T09:36:07Z</time>
      </trkpt>
      <trkpt lat="54.334983" lon="-3.210651">
        <ele>336.0</ele>
        <time>2014-11-15T09:36:11Z</time>
      </trkpt>
      <trkpt lat="54.3353" lon="-3.210511">
        <ele>331.0</ele>
        <time>2014-11-15T09:36:15Z</time>
      </trkpt>
      <trkpt lat="54.335536" lon="-3.21036">
        <ele>324.0</ele>
        <time>2014-11-15T09:36:19Z</time>
      </trkpt>
      <trkpt lat="54.33572" lon="-3.210456">
        <ele>320.0</ele>
        <time>2014-11-15T09:36:23Z</time>
      </trkpt>
      <trkpt lat="54.335798" lon="-3.210936">
        <ele>315.0</ele>
        <time>2014-11-15T09:36:27Z</time>
      </trkpt>
      <trkpt lat="54.335818" lon="-3.21124">
        <ele>311.0</ele>
        <time>2014-11-15T09:36:31Z</time>
      </trkpt>
      <trkpt lat="54.335888" lon="-3.211318">
        <ele>305.0</ele>
        <time>2014-11-15T09:36:35Z</time>
      </trkpt>
      <trkpt lat="54.336031" lon="-3.21116">
        <ele>302.0</ele>
        <time>2014-11-15T09:36:39Z</time>
      </trkpt>
      <trkpt lat="54.336185" lon="-3.211123">
        <ele>300.0</ele>
        <time>2014-11-15T09:36:43Z</time>
      </trkpt>
      <trkpt lat="54.336345" lon="-3.211268">
        <ele>297.0</ele>
        <time>2014-11-15T09:36:47Z</time>
      </trkpt>
      <trkpt lat="54.336516" lon="-3.211488">
        <ele>293.0</ele>
        <time>2014-11-15T09:36:51Z</time>
      </trkpt>
      <trkpt lat="54.336671" lon="-3.211755">
        <ele>290.0</ele>
        <time>2014-11-15T09:36:55Z</time>
      </trkpt>
      <trkpt lat="54.336876" lon="-3.212165">
        <ele>289.0</ele>
        <time>2014-11-15T09:36:59Z</time>
      </trkpt>
      <trkpt lat="54.337145" lon="-3.212518">
        <ele>287.0</ele>
        <time>2014-11-15T09:37:03Z</time>
      </trkpt>
      <trkpt lat="54.337326" lon="-3.212836">
        <ele>283.0</ele>
        <time>2014-11-15T09:37:07Z</time>
      </trkpt>
      <trkpt lat="54.33754" lon="-3.21309">
        <ele>280.0</ele>
        <time>2014-11-15T09:37:11Z</time>
      </trkpt>
      <trkpt lat="54.337798" lon="-3.213271">
        <ele>277.0</ele>
        <time>2014-11-15T09:37:15Z</time>
      </trkpt>
      <trkpt lat="54.338033" lon="-3.21353">
        <ele>277.0</ele>
        <time>2014-11-15T09:37:19Z</time>
      </trkpt>
      <trkpt lat="54.338263" lon="-3.213793">
        <ele>278.0</ele>
        <time>2014-11-15T09:37:23Z</time>
      </trkpt>
      <trkpt lat="54.338438" lon="-3.214203">
        <ele>278.0</ele>
        <time>2014-11-15T09:37:27Z</time>
      </trkpt>
      <trkpt lat="54.338641" lon="-3.214688">
        <ele>275.0</ele>
        <time>2014-11-15T09:37:31Z</time>
      </trkpt>
      <trkpt lat="54.338781" lon="-3.215045">
        <ele>274.0</ele>
        <time>2014-11-15T09:37:35Z</time>
      </trkpt>
      <trkpt lat="54.339108" lon="-3.215098">
        <ele>273.0</ele>
        <time>2014-11-15T09:37:39Z</time>
      </trkpt>
      <trkpt lat="54.339448" lon="-3.215346">
        <ele>269.0</ele>
        <time>2014-11-15T09:37:43Z</time>
      </trkpt>
      <trkpt lat="54.339855" lon="-3.215345">
        <ele>264.0</ele>
        <time>2014-11-15T09:37:47Z</time>
      </trkpt>
      <trkpt lat="54.340298" lon="-3.21531">
        <ele>263.0</ele>
        <time>2014-11-15T09:37:51Z</time>
      </trkpt>
      <trkpt lat="54.340588" lon="-3.21507">
        <ele>262.0</ele>
        <time>2014-11-15T09:37:55Z</time>
      </trkpt>
      <trkpt lat="54.340848" lon="-3.21492">
        <ele>261.0</ele>
        <time>2014-11-15T09:37:59Z</time>
      </trkpt>
      <trkpt lat="54.341303" lon="-3.214965">
        <ele>260.0</ele>
        <time>2014-11-15T09:38:03Z</time>
      </trkpt>
      <trkpt lat="54.341735" lon="-3.215138">
        <ele>256.0</ele>
        <time>2014-11-15T09:38:07Z</time>
      </trkpt>
      <trkpt lat="54.342098" lon="-3.21528">
        <ele>254.0</ele>
        <time>2014-11-15T09:38:11Z</time>
      </trkpt>
      <trkpt lat="54.342465" lon="-3.215355">
        <ele>254.0</ele>
        <time>2014-11-15T09:38:15Z</time>
      </trkpt>
      <trkpt lat="54.342776" lon="-3.215291">
        <ele>254.0</ele>
        <time>2014-11-15T09:38:19Z</time>
      </trkpt>
      <trkpt lat="54.343065" lon="-3.215213">
        <ele>254.0</ele>
        <time>2014-11-15T09:38:23Z</time>
      </trkpt>
      <trkpt lat="54.343323" lon="-3.215188">
        <ele>254.0</ele>
        <time>2014-11-15T09:38:27Z</time>
      </trkpt>
      <trkpt lat="54.3436" lon="-3.215213">
        <ele>253.0</ele>
        <time>2014-11-15T09:38:31Z</time>
      </trkpt>
      <trkpt lat="54.343851" lon="-3.21511">
        <ele>254.0</ele>
        <time>2014-11-15T09:38:35Z</time>
      </trkpt>
      <trkpt lat="54.344108" lon="-3.214923">
        <ele>254.0</ele>
        <time>2014-11-15T09:38:39Z</time>
      </trkpt>
      <trkpt lat="54.344341" lon="-3.214745">
        <ele>254.0</ele>
        <time>2014-11-15T09:38:43Z</time>
      </trkpt>
      <trkpt lat="54.344561" lon="-3.2146">
        <ele>255.0</ele>
        <time>2014-11-15T09:38:47Z</time>
      </trkpt>
      <trkpt lat="54.344788" lon="-3.214506">
        <ele>255.0</ele>
        <time>2014-11-15T09:38:51Z</time>
      </trkpt>
      <trkpt lat="54.344998" lon="-3.214368">
        <ele>255.0</ele>
        <time>2014-11-15T09:38:55Z</time>
      </trkpt>
      <trkpt lat="54.345218" lon="-3.214215">
        <ele>256.0</ele>
        <time>2014-11-15T09:38:59Z</time>
      </trkpt>
      <trkpt lat="54.345408" lon="-3.214028">
        <ele>256.0</ele>
        <time>2014-11-15T09:39:03Z</time>
      </trkpt>
      <trkpt lat="54.345611" lon="-3.213848">
        <ele>256.0</ele>
        <time>2014-11-15T09:39:07Z</time>
      </trkpt>
      <trkpt lat="54.345816" lon="-3.21358">
        <ele>256.0</ele>
        <time>2014-11-15T09:39:11Z</time>
      </trkpt>
      <trkpt lat="54.346048" lon="-3.213306">
        <ele>256.0</ele>
        <time>2014-11-15T09:39:15Z</time>
      </trkpt>
      <trkpt lat="54.346201" lon="-3.212968">
        <ele>257.0</ele>
        <time>2014-11-15T09:39:19Z</time>
      </trkpt>
      <trkpt lat="54.346326" lon="-3.212621">
        <ele>257.0</ele>
        <time>2014-11-15T09:39:23Z</time>
      </trkpt>
      <trkpt lat="54.346481" lon="-3.212223">
        <ele>257.0</ele>
        <time>2014-11-15T09:39:27Z</time>
      </trkpt>
      <trkpt lat="54.346666" lon="-3.211961">
        <ele>258.0</ele>
        <time>2014-11-15T09:39:31Z</time>
      </trkpt>
      <trkpt lat="54.346901" lon="-3.211796">
        <ele>258.0</ele>
        <time>2014-11-15T09:39:35Z</time>
      </trkpt>
      <trkpt lat="54.347135" lon="-3.211731">
        <ele>258.0</ele>
        <time>2014-11-15T09:39:39Z</time>
      </trkpt>
      <trkpt lat="54.347386" lon="-3.211666">
        <ele>258.0</ele>
        <time>2014-11-15T09:39:43Z</time>
      </trkpt>
      <trkpt lat="54.347533" lon="-3.211655">
        <ele>258.0</ele>
        <time>2014-11-15T09:39:47Z</time>
      </trkpt>
      <trkpt lat="54.347553" lon="-3.211865">
        <ele>258.0</ele>
        <time>2014-11-15T09:39:51Z</time>
      </trkpt>
      <trkpt lat="54.34754" lon="-3.212191">
        <ele>257.0</ele>
        <time>2014-11-15T09:39:55Z</time>
      </trkpt>
      <trkpt lat="54.347511" lon="-3.21251">
        <ele>257.0</ele>
        <time>2014-11-15T09:39:59Z</time>
      </trkpt>
      <trkpt lat="54.347336" lon="-3.212788">
        <ele>256.0</ele>
        <time>2014-11-15T09:40:03Z</time>
      </trkpt>
      <trkpt lat="54.347145" lon="-3.213093">
        <ele>256.0</ele>
        <time>2014-11-15T09:40:07Z</time>
      </trkpt>
      <trkpt lat="54.346911" lon="-3.21335">
        <ele>256.0</ele>
        <time>2014-11-15T09:40:11Z</time>
      </trkpt>
      <trkpt lat="54.346668" lon="-3.213565">
        <ele>256.0</ele>
        <time>2014-11-15T09:40:15Z</time>
      </trkpt>
      <trkpt lat="54.34643" lon="-3.213805">
        <ele>255.0</ele>
        <time>2014-11-15T09:40:19Z</time>
      </trkpt>
      <trkpt lat="54.346213" lon="-3.214128">
        <ele>255.0</ele>
        <time>2014-11-15T09:40:23Z</time>
      </trkpt>
      <trkpt lat="54.346016" lon="-3.214471">
        <ele>255.0</ele>
        <time>2014-11-15T09:40:27Z</time>
      </trkpt>
      <trkpt lat="54.345853" lon="-3.21488">
        <ele>255.0</ele>
        <time>2014-11-15T09:40:31Z</time>
      </trkpt>
      <trkpt lat="54.34569" lon="-3.215301">
        <ele>254.0</ele>
        <time>2014-11-15T09:40:35Z</time>
      </trkpt>
      <trkpt lat="54.345538" lon="-3.215773">
        <ele>254.0</ele>
        <time>2014-11-15T09:40:39Z</time>
      </trkpt>
      <trkpt lat="54.345441" lon="-3.216258">
        <ele>254.0</ele>
        <time>2014-11-15T09:40:43Z</time>
      </trkpt>
      <trkpt lat="54.345375" lon="-3.216758">
        <ele>254.0</ele>
        <time>2014-11-15T09:40:47Z</time>
      </trkpt>
      <trkpt lat="54.345328" lon="-3.217253">
        <ele>253.0</ele>
        <time>2014-11-15T09:40:51Z</time>
      </trkpt>
      <trkpt lat="54.345308" lon="-3.21767">
        <ele>253.0</ele>
        <time>2014-11-15T09:40:55Z</time>
      </trkpt>
      <trkpt lat="54.345401" lon="-3.218081">
        <ele>253.0</ele>
        <time>2014-11-15T09:40:59Z</time>
      </trkpt>
      <trkpt lat="54.34533" lon="-3.21847">
        <ele>253.0</ele>
        <time>2014-11-15T09:41:03Z</time>
      </trkpt>
      <trkpt lat="54.345186" lon="-3.218793">
        <ele>253.0</ele>
        <time>2014-11-15T09:41:07Z</time>
      </trkpt>
      <trkpt lat="54.345045" lon="-3.219035">
        <ele>254.0</ele>
        <time>2014-11-15T09:41:11Z</time>
      </trkpt>
      <trkpt lat="54.344851" lon="-3.21909">
        <ele>255.0</ele>
        <time>2014-11-15T09:41:15Z</time>
      </trkpt>
      <trkpt lat="54.344666" lon="-3.219078">
        <ele>255.0</ele>
        <time>2014-11-15T09:41:19Z</time>
      </trkpt>
      <trkpt lat="54.344326" lon="-3.219206">
        <ele>256.0</ele>
        <time>2014-11-15T09:41:23Z</time>
      </trkpt>
      <trkpt lat="54.343993" lon="-3.219248">
        <ele>253.0</ele>
        <time>2014-11-15T09:41:27Z</time>
      </trkpt>
      <trkpt lat="54.343705" lon="-3.219285">
        <ele>252.0</ele>
        <time>2014-11-15T09:41:31Z</time>
      </trkpt>
      <trkpt lat="54.343411" lon="-3.219396">
        <ele>252.0</ele>
        <time>2014-11-15T09:41:35Z</time>
      </trkpt>
      <trkpt lat="54.343108" lon="-3.21957">
        <ele>251.0</ele>
        <time>2014-11-15T09:41:39Z</time>
      </trkpt>
      <trkpt lat="54.34282" lon="-3.219686">
        <ele>251.0</ele>
        <time>2014-11-15T09:41:43Z</time>
      </trkpt>
      <trkpt lat="54.342551" lon="-3.219845">
        <ele>251.0</ele>
        <time>2014-11-15T09:41:47Z</time>
      </trkpt>
      <trkpt lat="54.342288" lon="-3.219995">
        <ele>251.0</ele>
        <time>2014-11-15T09:41:51Z</time>
      </trkpt>
      <trkpt lat="54.341991" lon="-3.220106">
        <ele>251.0</ele>
        <time>2014-11-15T09:41:55Z</time>
      </trkpt>
      <trkpt lat="54.341763" lon="-3.220363">
        <ele>250.0</ele>
        <time>2014-11-15T09:41:59Z</time>
      </trkpt>
      <trkpt lat="54.341588" lon="-3.220655">
        <ele>250.0</ele>
        <time>2014-11-15T09:42:03Z</time>
      </trkpt>
      <trkpt lat="54.341418" lon="-3.220981">
        <ele>249.0</ele>
        <time>2014-11-15T09:42:07Z</time>
      </trkpt>
      <trkpt lat="54.341166" lon="-3.221195">
        <ele>249.0</ele>
        <time>2014-11-15T09:42:11Z</time>
      </trkpt>
      <trkpt lat="54.34099" lon="-3.221381">
        <ele>249.0</ele>
        <time>2014-11-15T09:42:15Z</time>
      </trkpt>
      <trkpt lat="54.340806" lon="-3.22153">
        <ele>251.0</ele>
        <time>2014-11-15T09:42:19Z</time>
      </trkpt>
      <trkpt lat="54.340681" lon="-3.221691">
        <ele>252.0</ele>
        <time>2014-11-15T09:42:23Z</time>
      </trkpt>
      <trkpt lat="54.340541" lon="-3.221823">
        <ele>253.0</ele>
        <time>2014-11-15T09:42:27Z</time>
      </trkpt>
      <trkpt lat="54.34039" lon="-3.221983">
        <ele>254.0</ele>
        <time>2014-11-15T09:42:31Z</time>
      </trkpt>
      <trkpt lat="54.340258" lon="-3.222076">
        <ele>256.0</ele>
        <time>2014-11-15T09:42:35Z</time>
      </trkpt>
      <trkpt lat="54.340128" lon="-3.222171">
        <ele>258.0</ele>
        <time>2014-11-15T09:42:39Z</time>
      </trkpt>
      <trkpt lat="54.340038" lon="-3.2223">
        <ele>260.0</ele>
        <time>2014-11-15T09:42:43Z</time>
      </trkpt>
      <trkpt lat="54.339943" lon="-3.222435">
        <ele>260.0</ele>
        <time>2014-11-15T09:42:47Z</time>
      </trkpt>
      <trkpt lat="54.339825" lon="-3.222521">
        <ele>262.0</ele>
        <time>2014-11-15T09:42:51Z</time>
      </trkpt>
      <trkpt lat="54.339718" lon="-3.22262">
        <ele>263.0</ele>
        <time>2014-11-15T09:42:55Z</time>
      </trkpt>
      <trkpt lat="54.339628" lon="-3.222688">
        <ele>265.0</ele>
        <time>2014-11-15T09:42:59Z</time>
      </trkpt>
      <trkpt lat="54.339495" lon="-3.222795">
        <ele>266.0</ele>
        <time>2014-11-15T09:43:03Z</time>
      </trkpt>
      <trkpt lat="54.339388" lon="-3.222915">
        <ele>267.0</ele>
        <time>2014-11-15T09:43:07Z</time>
      </trkpt>
      <trkpt lat="54.339165" lon="-3.22303">
        <ele>266.0</ele>
        <time>2014-11-15T09:43:11Z</time>
      </trkpt>
      <trkpt lat="54.33891" lon="-3.22334">
        <ele>264.0</ele>
        <time>2014-11-15T09:43:15Z</time>
      </trkpt>
      <trkpt lat="54.338598" lon="-3.223615">
        <ele>261.0</ele>
        <time>2014-11-15T09:43:19Z</time>
      </trkpt>
      <trkpt lat="54.338173" lon="-3.22386">
        <ele>259.0</ele>
        <time>2014-11-15T09:43:23Z</time>
      </trkpt>
      <trkpt lat="54.337855" lon="-3.224025">
        <ele>258.0</ele>
        <time>2014-11-15T09:43:27Z</time>
      </trkpt>
      <trkpt lat="54.337713" lon="-3.224151">
        <ele>257.0</ele>
        <time>2014-11-15T09:43:31Z</time>
      </trkpt>
      <trkpt lat="54.33749" lon="-3.22438">
        <ele>256.0</ele>
        <time>2014-11-15T09:43:35Z</time>
      </trkpt>
      <trkpt lat="54.337251" lon="-3.22469">
        <ele>257.0</ele>
        <time>2014-11-15T09:43:39Z</time>
      </trkpt>
      <trkpt lat="54.337043" lon="-3.225106">
        <ele>255.0</ele>
        <time>2014-11-15T09:43:43Z</time>
      </trkpt>
      <trkpt lat="54.336846" lon="-3.225511">
        <ele>256.0</ele>
        <time>2014-11-15T09:43:47Z</time>
      </trkpt>
      <trkpt lat="54.336646" lon="-3.225795">
        <ele>255.0</ele>
        <time>2014-11-15T09:43:51Z</time>
      </trkpt>
      <trkpt lat="54.336426" lon="-3.22606">
        <ele>254.0</ele>
        <time>2014-11-15T09:43:55Z</time>
      </trkpt>
      <trkpt lat="54.336208" lon="-3.226436">
        <ele>253.0</ele>
        <time>2014-11-15T09:43:59Z</time>
      </trkpt>
      <trkpt lat="54.336003" lon="-3.226816">
        <ele>251.0</ele>
        <time>2014-11-15T09:44:03Z</time>
      </trkpt>
      <trkpt lat="54.335851" lon="-3.227156">
        <ele>251.0</ele>
        <time>2014-11-15T09:44:07Z</time>
      </trkpt>
      <trkpt lat="54.335565" lon="-3.227386">
        <ele>250.0</ele>
        <time>2014-11-15T09:44:11Z</time>
      </trkpt>
      <trkpt lat="54.335301" lon="-3.227685">
        <ele>248.0</ele>
        <time>2014-11-15T09:44:15Z</time>
      </trkpt>
      <trkpt lat="54.335028" lon="-3.228196">
        <ele>246.0</ele>
        <time>2014-11-15T09:44:19Z</time>
      </trkpt>
      <trkpt lat="54.334695" lon="-3.228461">
        <ele>245.0</ele>
        <time>2014-11-15T09:44:23Z</time>
      </trkpt>
      <trkpt lat="54.334448" lon="-3.228845">
        <ele>243.0</ele>
        <time>2014-11-15T09:44:27Z</time>
      </trkpt>
      <trkpt lat="54.334146" lon="-3.229313">
        <ele>241.0</ele>
        <time>2014-11-15T09:44:31Z</time>
      </trkpt>
      <trkpt lat="54.333906" lon="-3.229595">
        <ele>239.0</ele>
        <time>2014-11-15T09:44:35Z</time>
      </trkpt>
      <trkpt lat="54.333568" lon="-3.229768">
        <ele>240.0</ele>
        <time>2014-11-15T09:44:39Z</time>
      </trkpt>
      <trkpt lat="54.33329" lon="-3.22983">
        <ele>240.0</ele>
        <time>2014-11-15T09:44:43Z</time>
      </trkpt>
      <trkpt lat="54.33313" lon="-3.229988">
        <ele>238.0</ele>
        <time>2014-11-15T09:44:47Z</time>
      </trkpt>
      <trkpt lat="54.33289" lon="-3.230258">
        <ele>237.0</ele>
        <time>2014-11-15T09:44:51Z</time>
      </trkpt>
      <trkpt lat="54.332701" lon="-3.230563">
        <ele>235.0</ele>
        <time>2014-11-15T09:44:55Z</time>
      </trkpt>
      <trkpt lat="54.332501" lon="-3.230961">
        <ele>235.0</ele>
        <time>2014-11-15T09:44:59Z</time>
      </trkpt>
      <trkpt lat="54.33238" lon="-3.231336">
        <ele>236.0</ele>
        <time>2014-11-15T09:45:03Z</time>
      </trkpt>
      <trkpt lat="54.3323" lon="-3.231745">
        <ele>236.0</ele>
        <time>2014-11-15T09:45:07Z</time>
      </trkpt>
      <trkpt lat="54.332191" lon="-3.232035">
        <ele>236.0</ele>
        <time>2014-11-15T09:45:11Z</time>
      </trkpt>
      <trkpt lat="54.332103" lon="-3.232301">
        <ele>238.0</ele>
        <time>2014-11-15T09:45:15Z</time>
      </trkpt>
      <trkpt lat="54.33198" lon="-3.232516">
        <ele>239.0</ele>
        <time>2014-11-15T09:45:19Z</time>
      </trkpt>
      <trkpt lat="54.331865" lon="-3.23273">
        <ele>241.0</ele>
        <time>2014-11-15T09:45:23Z</time>
      </trkpt>
      <trkpt lat="54.331735" lon="-3.232993">
        <ele>241.0</ele>
        <time>2014-11-15T09:45:27Z</time>
      </trkpt>
      <trkpt lat="54.331631" lon="-3.233181">
        <ele>241.0</ele>
        <time>2014-11-15T09:45:31Z</time>
      </trkpt>
      <trkpt lat="54.3316" lon="-3.233373">
        <ele>242.0</ele>
        <time>2014-11-15T09:45:35Z</time>
      </trkpt>
      <trkpt lat="54.331638" lon="-3.233485">
        <ele>242.0</ele>
        <time>2014-11-15T09:45:39Z</time>
      </trkpt>
      <trkpt lat="54.331723" lon="-3.233515">
        <ele>243.0</ele>
        <time>2014-11-15T09:45:43Z</time>
      </trkpt>
      <trkpt lat="54.331803" lon="-3.2336">
        <ele>245.0</ele>
        <time>2014-11-15T09:45:47Z</time>
      </trkpt>
      <trkpt lat="54.33187" lon="-3.2337">
        <ele>246.0</ele>
        <time>2014-11-15T09:45:51Z</time>
      </trkpt>
      <trkpt lat="54.331966" lon="-3.233783">
        <ele>248.0</ele>
        <time>2014-11-15T09:45:55Z</time>
      </trkpt>
      <trkpt lat="54.332021" lon="-3.233818">
        <ele>249.0</ele>
        <time>2014-11-15T09:45:59Z</time>
      </trkpt>
      <trkpt lat="54.332063" lon="-3.233943">
        <ele>251.0</ele>
        <time>2014-11-15T09:46:03Z</time>
      </trkpt>
      <trkpt lat="54.332055" lon="-3.234061">
        <ele>253.0</ele>
        <time>2014-11-15T09:46:07Z</time>
      </trkpt>
      <trkpt lat="54.33205" lon="-3.234195">
        <ele>255.0</ele>
        <time>2014-11-15T09:46:11Z</time>
      </trkpt>
      <trkpt lat="54.332076" lon="-3.234311">
        <ele>257.0</ele>
        <time>2014-11-15T09:46:15Z</time>
      </trkpt>
      <trkpt lat="54.33213" lon="-3.234406">
        <ele>259.0</ele>
        <time>2014-11-15T09:46:19Z</time>
      </trkpt>
      <trkpt lat="54.332193" lon="-3.234493">
        <ele>260.0</ele>
        <time>2014-11-15T09:46:23Z</time>
      </trkpt>
      <trkpt lat="54.332248" lon="-3.23461">
        <ele>262.0</ele>
        <time>2014-11-15T09:46:27Z</time>
      </trkpt>
      <trkpt lat="54.332265" lon="-3.234725">
        <ele>264.0</ele>
        <time>2014-11-15T09:46:31Z</time>
      </trkpt>
      <trkpt lat="54.332198" lon="-3.234806">
        <ele>266.0</ele>
        <time>2014-11-15T09:46:35Z</time>
      </trkpt>
      <trkpt lat="54.332136" lon="-3.234878">
        <ele>267.0</ele>
        <time>2014-11-15T09:46:39Z</time>
      </trkpt>
      <trkpt lat="54.33209" lon="-3.234988">
        <ele>268.0</ele>
        <time>2014-11-15T09:46:43Z</time>
      </trkpt>
      <trkpt lat="54.332065" lon="-3.235095">
        <ele>269.0</ele>
        <time>2014-11-15T09:46:47Z</time>
      </trkpt>
      <trkpt lat="54.332081" lon="-3.2352">
        <ele>271.0</ele>
        <time>2014-11-15T09:46:51Z</time>
      </trkpt>
      <trkpt lat="54.332128" lon="-3.235263">
        <ele>272.0</ele>
        <time>2014-11-15T09:46:55Z</time>
      </trkpt>
      <trkpt lat="54.332231" lon="-3.23531">
        <ele>274.0</ele>
        <time>2014-11-15T09:46:59Z</time>
      </trkpt>
      <trkpt lat="54.332356" lon="-3.235253">
        <ele>275.0</ele>
        <time>2014-11-15T09:47:03Z</time>
      </trkpt>
      <trkpt lat="54.332413" lon="-3.235391">
        <ele>276.0</ele>
        <time>2014-11-15T09:47:07Z</time>
      </trkpt>
      <trkpt lat="54.332448" lon="-3.23542">
        <ele>277.0</ele>
        <time>2014-11-15T09:47:11Z</time>
      </trkpt>
      <trkpt lat="54.332516" lon="-3.23572">
        <ele>278.0</ele>
        <time>2014-11-15T09:47:15Z</time>
      </trkpt>
      <trkpt lat="54.332498" lon="-3.235535">
        <ele>279.0</ele>
        <time>2014-11-15T09:47:19Z</time>
      </trkpt>
      <trkpt lat="54.332673" lon="-3.235435">
        <ele>281.0</ele>
        <time>2014-11-15T09:47:23Z</time>
      </trkpt>
      <trkpt lat="54.332688" lon="-3.23542">
        <ele>282.0</ele>
        <time>2014-11-15T09:47:27Z</time>
      </trkpt>
      <trkpt lat="54.332766" lon="-3.235483">
        <ele>282.0</ele>
        <time>2014-11-15T09:47:31Z</time>
      </trkpt>
      <trkpt lat="54.332828" lon="-3.235533">
        <ele>285.0</ele>
        <time>2014-11-15T09:47:35Z</time>
      </trkpt>
      <trkpt lat="54.332895" lon="-3.235561">
        <ele>286.0</ele>
        <time>2014-11-15T09:47:39Z</time>
      </trkpt>
      <trkpt lat="54.332976" lon="-3.235595">
        <ele>288.0</ele>
        <time>2014-11-15T09:47:43Z</time>
      </trkpt>
      <trkpt lat="54.333021" lon="-3.235631">
        <ele>289.0</ele>
        <time>2014-11-15T09:47:47Z</time>
      </trkpt>
      <trkpt lat="54.333096" lon="-3.235648">
        <ele>290.0</ele>
        <time>2014-11-15T09:47:51Z</time>
      </trkpt>
      <trkpt lat="54.333168" lon="-3.235678">
        <ele>291.0</ele>
        <time>2014-11-15T09:47:55Z</time>
      </trkpt>
      <trkpt lat="54.33328" lon="-3.235708">
        <ele>292.0</ele>
        <time>2014-11-15T09:47:59Z</time>
      </trkpt>
      <trkpt lat="54.333356" lon="-3.235738">
        <ele>293.0</ele>
        <time>2014-11-15T09:48:03Z</time>
      </trkpt>
      <trkpt lat="54.333441" lon="-3.235755">
        <ele>293.0</ele>
        <time>2014-11-15T09:48:07Z</time>
      </trkpt>
      <trkpt lat="54.333531" lon="-3.235775">
        <ele>294.0</ele>
        <time>2014-11-15T09:48:11Z</time>
      </trkpt>
      <trkpt lat="54.333608" lon="-3.2358">
        <ele>296.0</ele>
        <time>2014-11-15T09:48:15Z</time>
      </trkpt>
      <trkpt lat="54.3337" lon="-3.23581">
        <ele>297.0</ele>
        <time>2014-11-15T09:48:19Z</time>
      </trkpt>
      <trkpt lat="54.333756" lon="-3.235831">
        <ele>298.0</ele>
        <time>2014-11-15T09:48:23Z</time>
      </trkpt>
      <trkpt lat="54.333826" lon="-3.235863">
        <ele>300.0</ele>
        <time>2014-11-15T09:48:27Z</time>
      </trkpt>
      <trkpt lat="54.333896" lon="-3.235951">
        <ele>302.0</ele>
        <time>2014-11-15T09:48:31Z</time>
      </trkpt>
      <trkpt lat="54.333958" lon="-3.236026">
        <ele>303.0</ele>
        <time>2014-11-15T09:48:35Z</time>
      </trkpt>
      <trkpt lat="54.334015" lon="-3.23612">
        <ele>305.0</ele>
        <time>2014-11-15T09:48:39Z</time>
      </trkpt>
      <trkpt lat="54.334061" lon="-3.23619">
        <ele>307.0</ele>
        <time>2014-11-15T09:48:43Z</time>
      </trkpt>
      <trkpt lat="54.334116" lon="-3.23626">
        <ele>308.0</ele>
        <time>2014-11-15T09:48:47Z</time>
      </trkpt>
      <trkpt lat="54.334183" lon="-3.23635">
        <ele>309.0</ele>
        <time>2014-11-15T09:48:51Z</time>
      </trkpt>
      <trkpt lat="54.334233" lon="-3.236438">
        <ele>311.0</ele>
        <time>2014-11-15T09:48:55Z</time>
      </trkpt>
      <trkpt lat="54.334275" lon="-3.236546">
        <ele>312.0</ele>
        <time>2014-11-15T09:48:59Z</time>
      </trkpt>
      <trkpt lat="54.334311" lon="-3.236655">
        <ele>314.0</ele>
        <time>2014-11-15T09:49:03Z</time>
      </trkpt>
      <trkpt lat="54.334346" lon="-3.236735">
        <ele>315.0</ele>
        <time>2014-11-15T09:49:07Z</time>
      </trkpt>
      <trkpt lat="54.334373" lon="-3.236826">
        <ele>317.0</ele>
        <time>2014-11-15T09:49:11Z</time>
      </trkpt>
      <trkpt lat="54.334481" lon="-3.237045">
        <ele>318.0</ele>
        <time>2014-11-15T09:49:15Z</time>
      </trkpt>
      <trkpt lat="54.334553" lon="-3.237185">
        <ele>319.0</ele>
        <time>2014-11-15T09:49:19Z</time>
      </trkpt>
      <trkpt lat="54.334593" lon="-3.237265">
        <ele>321.0</ele>
        <time>2014-11-15T09:49:23Z</time>
      </trkpt>
      <trkpt lat="54.33467" lon="-3.237373">
        <ele>321.0</ele>
        <time>2014-11-15T09:49:27Z</time>
      </trkpt>
      <trkpt lat="54.334681" lon="-3.2375">
        <ele>323.0</ele>
        <time>2014-11-15T09:49:31Z</time>
      </trkpt>
      <trkpt lat="54.334621" lon="-3.2376">
        <ele>324.0</ele>
        <time>2014-11-15T09:49:35Z</time>
      </trkpt>
      <trkpt lat="54.334723" lon="-3.237756">
        <ele>326.0</ele>
        <time>2014-11-15T09:49:39Z</time>
      </trkpt>
      <trkpt lat="54.334778" lon="-3.237873">
        <ele>327.0</ele>
        <time>2014-11-15T09:49:43Z</time>
      </trkpt>
      <trkpt lat="54.334803" lon="-3.23804">
        <ele>328.0</ele>
        <time>2014-11-15T09:49:47Z</time>
      </trkpt>
      <trkpt lat="54.334813" lon="-3.238171">
        <ele>329.0</ele>
        <time>2014-11-15T09:49:51Z</time>
      </trkpt>
      <trkpt lat="54.33484" lon="-3.238276">
        <ele>330.0</ele>
        <time>2014-11-15T09:49:55Z</time>
      </trkpt>
      <trkpt lat="54.334856" lon="-3.238396">
        <ele>331.0</ele>
        <time>2014-11-15T09:49:59Z</time>
      </trkpt>
      <trkpt lat="54.334901" lon="-3.238571">
        <ele>332.0</ele>
        <time>2014-11-15T09:50:03Z</time>
      </trkpt>
      <trkpt lat="54.33496" lon="-3.238716">
        <ele>333.0</ele>
        <time>2014-11-15T09:50:07Z</time>
      </trkpt>
      <trkpt lat="54.335011" lon="-3.238863">
        <ele>334.0</ele>
        <time>2014-11-15T09:50:11Z</time>
      </trkpt>
      <trkpt lat="54.335086" lon="-3.239023">
        <ele>335.0</ele>
        <time>2014-11-15T09:50:15Z</time>
      </trkpt>
      <trkpt lat="54.33515" lon="-3.239196">
        <ele>336.0</ele>
        <time>2014-11-15T09:50:19Z</time>
      </trkpt>
      <trkpt lat="54.335216" lon="-3.239366">
        <ele>337.0</ele>
        <time>2014-11-15T09:50:23Z</time>
      </trkpt>
      <trkpt lat="54.335285" lon="-3.239538">
        <ele>338.0</ele>
        <time>2014-11-15T09:50:27Z</time>
      </trkpt>
      <trkpt lat="54.33538" lon="-3.239708">
        <ele>339.0</ele>
        <time>2014-11-15T09:50:31Z</time>
      </trkpt>
      <trkpt lat="54.335461" lon="-3.239876">
        <ele>340.0</ele>
        <time>2014-11-15T09:50:35Z</time>
      </trkpt>
      <trkpt lat="54.335563" lon="-3.240063">
        <ele>341.0</ele>
        <time>2014-11-15T09:50:39Z</time>
      </trkpt>
      <trkpt lat="54.335706" lon="-3.24025">
        <ele>341.0</ele>
        <time>2014-11-15T09:50:43Z</time>
      </trkpt>
      <trkpt lat="54.335863" lon="-3.240441">
        <ele>341.0</ele>
        <time>2014-11-15T09:50:47Z</time>
      </trkpt>
      <trkpt lat="54.336015" lon="-3.240726">
        <ele>342.0</ele>
        <time>2014-11-15T09:50:51Z</time>
      </trkpt>
      <trkpt lat="54.336111" lon="-3.240906">
        <ele>342.0</ele>
        <time>2014-11-15T09:50:55Z</time>
      </trkpt>
      <trkpt lat="54.336188" lon="-3.241171">
        <ele>343.0</ele>
        <time>2014-11-15T09:50:59Z</time>
      </trkpt>
      <trkpt lat="54.336213" lon="-3.241386">
        <ele>344.0</ele>
        <time>2014-11-15T09:51:03Z</time>
      </trkpt>
      <trkpt lat="54.336233" lon="-3.241583">
        <ele>346.0</ele>
        <time>2014-11-15T09:51:07Z</time>
      </trkpt>
      <trkpt lat="54.336268" lon="-3.241755">
        <ele>347.0</ele>
        <time>2014-11-15T09:51:11Z</time>
      </trkpt>
      <trkpt lat="54.336313" lon="-3.241925">
        <ele>348.0</ele>
        <time>2014-11-15T09:51:15Z</time>
      </trkpt>
      <trkpt lat="54.336403" lon="-3.242081">
        <ele>349.0</ele>
        <time>2014-11-15T09:51:19Z</time>
      </trkpt>
      <trkpt lat="54.336446" lon="-3.242235">
        <ele>350.0</ele>
        <time>2014-11-15T09:51:23Z</time>
      </trkpt>
      <trkpt lat="54.33646" lon="-3.242393">
        <ele>351.0</ele>
        <time>2014-11-15T09:51:27Z</time>
      </trkpt>
      <trkpt lat="54.33653" lon="-3.242533">
        <ele>353.0</ele>
        <time>2014-11-15T09:51:31Z</time>
      </trkpt>
      <trkpt lat="54.336646" lon="-3.242621">
        <ele>355.0</ele>
        <time>2014-11-15T09:51:35Z</time>
      </trkpt>
      <trkpt lat="54.336775" lon="-3.242701">
        <ele>356.0</ele>
        <time>2014-11-15T09:51:39Z</time>
      </trkpt>
      <trkpt lat="54.336856" lon="-3.242743">
        <ele>357.0</ele>
        <time>2014-11-15T09:51:43Z</time>
      </trkpt>
      <trkpt lat="54.337003" lon="-3.242811">
        <ele>357.0</ele>
        <time>2014-11-15T09:51:47Z</time>
      </trkpt>
      <trkpt lat="54.337161" lon="-3.242878">
        <ele>357.0</ele>
        <time>2014-11-15T09:51:51Z</time>
      </trkpt>
      <trkpt lat="54.337343" lon="-3.242976">
        <ele>358.0</ele>
        <time>2014-11-15T09:51:55Z</time>
      </trkpt>
      <trkpt lat="54.337473" lon="-3.243013">
        <ele>359.0</ele>
        <time>2014-11-15T09:51:59Z</time>
      </trkpt>
      <trkpt lat="54.337665" lon="-3.243103">
        <ele>360.0</ele>
        <time>2014-11-15T09:52:03Z</time>
      </trkpt>
      <trkpt lat="54.337813" lon="-3.243205">
        <ele>360.0</ele>
        <time>2014-11-15T09:52:07Z</time>
      </trkpt>
      <trkpt lat="54.337938" lon="-3.243283">
        <ele>362.0</ele>
        <time>2014-11-15T09:52:11Z</time>
      </trkpt>
      <trkpt lat="54.338083" lon="-3.243405">
        <ele>363.0</ele>
        <time>2014-11-15T09:52:15Z</time>
      </trkpt>
      <trkpt lat="54.338255" lon="-3.243536">
        <ele>363.0</ele>
        <time>2014-11-15T09:52:19Z</time>
      </trkpt>
      <trkpt lat="54.33844" lon="-3.24362">
        <ele>364.0</ele>
        <time>2014-11-15T09:52:23Z</time>
      </trkpt>
      <trkpt lat="54.338636" lon="-3.243731">
        <ele>365.0</ele>
        <time>2014-11-15T09:52:27Z</time>
      </trkpt>
      <trkpt lat="54.33878" lon="-3.243931">
        <ele>366.0</ele>
        <time>2014-11-15T09:52:31Z</time>
      </trkpt>
      <trkpt lat="54.338901" lon="-3.2441">
        <ele>366.0</ele>
        <time>2014-11-15T09:52:35Z</time>
      </trkpt>
      <trkpt lat="54.339016" lon="-3.244313">
        <ele>367.0</ele>
        <time>2014-11-15T09:52:39Z</time>
      </trkpt>
      <trkpt lat="54.339113" lon="-3.244456">
        <ele>369.0</ele>
        <time>2014-11-15T09:52:43Z</time>
      </trkpt>
      <trkpt lat="54.339285" lon="-3.2446">
        <ele>369.0</ele>
        <time>2014-11-15T09:52:47Z</time>
      </trkpt>
      <trkpt lat="54.339423" lon="-3.244738">
        <ele>371.0</ele>
        <time>2014-11-15T09:52:51Z</time>
      </trkpt>
      <trkpt lat="54.339568" lon="-3.244828">
        <ele>372.0</ele>
        <time>2014-11-15T09:52:55Z</time>
      </trkpt>
      <trkpt lat="54.339723" lon="-3.244938">
        <ele>373.0</ele>
        <time>2014-11-15T09:52:59Z</time>
      </trkpt>
      <trkpt lat="54.3399" lon="-3.245081">
        <ele>373.0</ele>
        <time>2014-11-15T09:53:03Z</time>
      </trkpt>
      <trkpt lat="54.340043" lon="-3.245225">
        <ele>374.0</ele>
        <time>2014-11-15T09:53:07Z</time>
      </trkpt>
      <trkpt lat="54.340226" lon="-3.245296">
        <ele>375.0</ele>
        <time>2014-11-15T09:53:11Z</time>
      </trkpt>
      <trkpt lat="54.340381" lon="-3.245385">
        <ele>377.0</ele>
        <time>2014-11-15T09:53:15Z</time>
      </trkpt>
      <trkpt lat="54.340508" lon="-3.245471">
        <ele>377.0</ele>
        <time>2014-11-15T09:53:19Z</time>
      </trkpt>
      <trkpt lat="54.34067" lon="-3.245561">
        <ele>378.0</ele>
        <time>2014-11-15T09:53:23Z</time>
      </trkpt>
      <trkpt lat="54.34082" lon="-3.245688">
        <ele>379.0</ele>
        <time>2014-11-15T09:53:27Z</time>
      </trkpt>
      <trkpt lat="54.340953" lon="-3.245785">
        <ele>380.0</ele>
        <time>2014-11-15T09:53:31Z</time>
      </trkpt>
      <trkpt lat="54.341105" lon="-3.245893">
        <ele>381.0</ele>
        <time>2014-11-15T09:53:35Z</time>
      </trkpt>
      <trkpt lat="54.341256" lon="-3.24604">
        <ele>383.0</ele>
        <time>2014-11-15T09:53:39Z</time>
      </trkpt>
      <trkpt lat="54.341375" lon="-3.246223">
        <ele>383.0</ele>
        <time>2014-11-15T09:53:43Z</time>
      </trkpt>
      <trkpt lat="54.341505" lon="-3.246395">
        <ele>384.0</ele>
        <time>2014-11-15T09:53:47Z</time>
      </trkpt>
      <trkpt lat="54.341626" lon="-3.246666">
        <ele>384.0</ele>
        <time>2014-11-15T09:53:51Z</time>
      </trkpt>
      <trkpt lat="54.34171" lon="-3.2469">
        <ele>385.0</ele>
        <time>2014-11-15T09:53:55Z</time>
      </trkpt>
      <trkpt lat="54.34184" lon="-3.247138">
        <ele>385.0</ele>
        <time>2014-11-15T09:53:59Z</time>
      </trkpt>
      <trkpt lat="54.341918" lon="-3.247415">
        <ele>385.0</ele>
        <time>2014-11-15T09:54:03Z</time>
      </trkpt>
      <trkpt lat="54.34208" lon="-3.24765">
        <ele>386.0</ele>
        <time>2014-11-15T09:54:07Z</time>
      </trkpt>
      <trkpt lat="54.342245" lon="-3.247903">
        <ele>386.0</ele>
        <time>2014-11-15T09:54:11Z</time>
      </trkpt>
      <trkpt lat="54.342435" lon="-3.248116">
        <ele>386.0</ele>
        <time>2014-11-15T09:54:15Z</time>
      </trkpt>
      <trkpt lat="54.342605" lon="-3.248385">
        <ele>386.0</ele>
        <time>2014-11-15T09:54:19Z</time>
      </trkpt>
      <trkpt lat="54.342771" lon="-3.248581">
        <ele>386.0</ele>
        <time>2014-11-15T09:54:23Z</time>
      </trkpt>
      <trkpt lat="54.342985" lon="-3.248818">
        <ele>386.0</ele>
        <time>2014-11-15T09:54:27Z</time>
      </trkpt>
      <trkpt lat="54.343236" lon="-3.24897">
        <ele>386.0</ele>
        <time>2014-11-15T09:54:31Z</time>
      </trkpt>
      <trkpt lat="54.34351" lon="-3.248981">
        <ele>386.0</ele>
        <time>2014-11-15T09:54:35Z</time>
      </trkpt>
      <trkpt lat="54.343785" lon="-3.248981">
        <ele>386.0</ele>
        <time>2014-11-15T09:54:39Z</time>
      </trkpt>
      <trkpt lat="54.344065" lon="-3.248973">
        <ele>386.0</ele>
        <time>2014-11-15T09:54:43Z</time>
      </trkpt>
      <trkpt lat="54.344325" lon="-3.248865">
        <ele>386.0</ele>
        <time>2014-11-15T09:54:47Z</time>
      </trkpt>
      <trkpt lat="54.344611" lon="-3.248858">
        <ele>384.0</ele>
        <time>2014-11-15T09:54:51Z</time>
      </trkpt>
      <trkpt lat="54.344811" lon="-3.249173">
        <ele>384.0</ele>
        <time>2014-11-15T09:54:55Z</time>
      </trkpt>
      <trkpt lat="54.34506" lon="-3.249413">
        <ele>384.0</ele>
        <time>2014-11-15T09:54:59Z</time>
      </trkpt>
      <trkpt lat="54.345241" lon="-3.249586">
        <ele>385.0</ele>
        <time>2014-11-15T09:55:03Z</time>
      </trkpt>
      <trkpt lat="54.345383" lon="-3.249723">
        <ele>386.0</ele>
        <time>2014-11-15T09:55:07Z</time>
      </trkpt>
      <trkpt lat="54.345508" lon="-3.24968">
        <ele>388.0</ele>
        <time>2014-11-15T09:55:11Z</time>
      </trkpt>
      <trkpt lat="54.345568" lon="-3.249495">
        <ele>389.0</ele>
        <time>2014-11-15T09:55:15Z</time>
      </trkpt>
      <trkpt lat="54.345655" lon="-3.249303">
        <ele>391.0</ele>
        <time>2014-11-15T09:55:19Z</time>
      </trkpt>
      <trkpt lat="54.345743" lon="-3.249223">
        <ele>392.0</ele>
        <time>2014-11-15T09:55:23Z</time>
      </trkpt>
      <trkpt lat="54.345861" lon="-3.249203">
        <ele>394.0</ele>
        <time>2014-11-15T09:55:27Z</time>
      </trkpt>
      <trkpt lat="54.345973" lon="-3.249233">
        <ele>395.0</ele>
        <time>2014-11-15T09:55:31Z</time>
      </trkpt>
      <trkpt lat="54.346076" lon="-3.249283">
        <ele>396.0</ele>
        <time>2014-11-15T09:55:35Z</time>
      </trkpt>
      <trkpt lat="54.346211" lon="-3.249355">
        <ele>398.0</ele>
        <time>2014-11-15T09:55:39Z</time>
      </trkpt>
      <trkpt lat="54.34628" lon="-3.24946">
        <ele>399.0</ele>
        <time>2014-11-15T09:55:43Z</time>
      </trkpt>
      <trkpt lat="54.346428" lon="-3.249575">
        <ele>400.0</ele>
        <time>2014-11-15T09:55:47Z</time>
      </trkpt>
      <trkpt lat="54.34652" lon="-3.249761">
        <ele>401.0</ele>
        <time>2014-11-15T09:55:51Z</time>
      </trkpt>
      <trkpt lat="54.346626" lon="-3.249941">
        <ele>401.0</ele>
        <time>2014-11-15T09:55:55Z</time>
      </trkpt>
      <trkpt lat="54.34675" lon="-3.250153">
        <ele>401.0</ele>
        <time>2014-11-15T09:55:59Z</time>
      </trkpt>
      <trkpt lat="54.346876" lon="-3.25034">
        <ele>401.0</ele>
        <time>2014-11-15T09:56:03Z</time>
      </trkpt>
      <trkpt lat="54.347028" lon="-3.25051">
        <ele>402.0</ele>
        <time>2014-11-15T09:56:07Z</time>
      </trkpt>
      <trkpt lat="54.347185" lon="-3.25072">
        <ele>402.0</ele>
        <time>2014-11-15T09:56:11Z</time>
      </trkpt>
      <trkpt lat="54.347356" lon="-3.250888">
        <ele>402.0</ele>
        <time>2014-11-15T09:56:15Z</time>
      </trkpt>
      <trkpt lat="54.347541" lon="-3.251041">
        <ele>403.0</ele>
        <time>2014-11-15T09:56:19Z</time>
      </trkpt>
      <trkpt lat="54.347738" lon="-3.251195">
        <ele>402.0</ele>
        <time>2014-11-15T09:56:23Z</time>
      </trkpt>
      <trkpt lat="54.347995" lon="-3.251408">
        <ele>402.0</ele>
        <time>2014-11-15T09:56:27Z</time>
      </trkpt>
      <trkpt lat="54.34818" lon="-3.251656">
        <ele>402.0</ele>
        <time>2014-11-15T09:56:31Z</time>
      </trkpt>
      <trkpt lat="54.348365" lon="-3.251835">
        <ele>403.0</ele>
        <time>2014-11-15T09:56:35Z</time>
      </trkpt>
      <trkpt lat="54.348536" lon="-3.251971">
        <ele>404.0</ele>
        <time>2014-11-15T09:56:39Z</time>
      </trkpt>
      <trkpt lat="54.348713" lon="-3.252023">
        <ele>405.0</ele>
        <time>2014-11-15T09:56:43Z</time>
      </trkpt>
      <trkpt lat="54.34889" lon="-3.252186">
        <ele>406.0</ele>
        <time>2014-11-15T09:56:47Z</time>
      </trkpt>
      <trkpt lat="54.349043" lon="-3.252448">
        <ele>406.0</ele>
        <time>2014-11-15T09:56:51Z</time>
      </trkpt>
      <trkpt lat="54.349168" lon="-3.25276">
        <ele>407.0</ele>
        <time>2014-11-15T09:56:55Z</time>
      </trkpt>
      <trkpt lat="54.349313" lon="-3.253048">
        <ele>406.0</ele>
        <time>2014-11-15T09:56:59Z</time>
      </trkpt>
      <trkpt lat="54.34952" lon="-3.253278">
        <ele>407.0</ele>
        <time>2014-11-15T09:57:03Z</time>
      </trkpt>
      <trkpt lat="54.349726" lon="-3.253466">
        <ele>407.0</ele>
        <time>2014-11-15T09:57:07Z</time>
      </trkpt>
      <trkpt lat="54.349916" lon="-3.253746">
        <ele>408.0</ele>
        <time>2014-11-15T09:57:11Z</time>
      </trkpt>
      <trkpt lat="54.3501" lon="-3.254061">
        <ele>407.0</ele>
        <time>2014-11-15T09:57:15Z</time>
      </trkpt>
      <trkpt lat="54.350265" lon="-3.254425">
        <ele>407.0</ele>
        <time>2014-11-15T09:57:19Z</time>
      </trkpt>
      <trkpt lat="54.350423" lon="-3.254731">
        <ele>408.0</ele>
        <time>2014-11-15T09:57:23Z</time>
      </trkpt>
      <trkpt lat="54.350675" lon="-3.254981">
        <ele>407.0</ele>
        <time>2014-11-15T09:57:27Z</time>
      </trkpt>
      <trkpt lat="54.350928" lon="-3.255123">
        <ele>407.0</ele>
        <time>2014-11-15T09:57:31Z</time>
      </trkpt>
      <trkpt lat="54.351173" lon="-3.255266">
        <ele>407.0</ele>
        <time>2014-11-15T09:57:35Z</time>
      </trkpt>
      <trkpt lat="54.35146" lon="-3.255546">
        <ele>406.0</ele>
        <time>2014-11-15T09:57:39Z</time>
      </trkpt>
      <trkpt lat="54.351693" lon="-3.255856">
        <ele>405.0</ele>
        <time>2014-11-15T09:57:43Z</time>
      </trkpt>
      <trkpt lat="54.351883" lon="-3.256198">
        <ele>405.0</ele>
        <time>2014-11-15T09:57:47Z</time>
      </trkpt>
      <trkpt lat="54.352098" lon="-3.256536">
        <ele>406.0</ele>
        <time>2014-11-15T09:57:51Z</time>
      </trkpt>
      <trkpt lat="54.352251" lon="-3.25685">
        <ele>407.0</ele>
        <time>2014-11-15T09:57:55Z</time>
      </trkpt>
      <trkpt lat="54.352393" lon="-3.257106">
        <ele>408.0</ele>
        <time>2014-11-15T09:57:59Z</time>
      </trkpt>
      <trkpt lat="54.352555" lon="-3.257366">
        <ele>409.0</ele>
        <time>2014-11-15T09:58:03Z</time>
      </trkpt>
      <trkpt lat="54.35274" lon="-3.257655">
        <ele>409.0</ele>
        <time>2014-11-15T09:58:07Z</time>
      </trkpt>
      <trkpt lat="54.352893" lon="-3.257943">
        <ele>410.0</ele>
        <time>2014-11-15T09:58:11Z</time>
      </trkpt>
      <trkpt lat="54.35307" lon="-3.258208">
        <ele>410.0</ele>
        <time>2014-11-15T09:58:15Z</time>
      </trkpt>
      <trkpt lat="54.353238" lon="-3.258426">
        <ele>411.0</ele>
        <time>2014-11-15T09:58:19Z</time>
      </trkpt>
      <trkpt lat="54.353453" lon="-3.258666">
        <ele>412.0</ele>
        <time>2014-11-15T09:58:23Z</time>
      </trkpt>
      <trkpt lat="54.35366" lon="-3.25892">
        <ele>412.0</ele>
        <time>2014-11-15T09:58:27Z</time>
      </trkpt>
      <trkpt lat="54.353863" lon="-3.259155">
        <ele>413.0</ele>
        <time>2014-11-15T09:58:31Z</time>
      </trkpt>
      <trkpt lat="54.354046" lon="-3.25941">
        <ele>414.0</ele>
        <time>2014-11-15T09:58:35Z</time>
      </trkpt>
      <trkpt lat="54.354235" lon="-3.259675">
        <ele>414.0</ele>
        <time>2014-11-15T09:58:39Z</time>
      </trkpt>
      <trkpt lat="54.354425" lon="-3.259945">
        <ele>415.0</ele>
        <time>2014-11-15T09:58:43Z</time>
      </trkpt>
      <trkpt lat="54.354616" lon="-3.260321">
        <ele>415.0</ele>
        <time>2014-11-15T09:58:47Z</time>
      </trkpt>
      <trkpt lat="54.354843" lon="-3.260733">
        <ele>414.0</ele>
        <time>2014-11-15T09:58:51Z</time>
      </trkpt>
      <trkpt lat="54.35498" lon="-3.261101">
        <ele>413.0</ele>
        <time>2014-11-15T09:58:55Z</time>
      </trkpt>
      <trkpt lat="54.355111" lon="-3.261628">
        <ele>414.0</ele>
        <time>2014-11-15T09:58:59Z</time>
      </trkpt>
      <trkpt lat="54.355208" lon="-3.262216">
        <ele>412.0</ele>
        <time>2014-11-15T09:59:03Z</time>
      </trkpt>
      <trkpt lat="54.355311" lon="-3.262763">
        <ele>410.0</ele>
        <time>2014-11-15T09:59:07Z</time>
      </trkpt>
      <trkpt lat="54.355395" lon="-3.263355">
        <ele>410.0</ele>
        <time>2014-11-15T09:59:11Z</time>
      </trkpt>
      <trkpt lat="54.355481" lon="-3.263846">
        <ele>410.0</ele>
        <time>2014-11-15T09:59:15Z</time>
      </trkpt>
      <trkpt lat="54.355711" lon="-3.264285">
        <ele>409.0</ele>
        <time>2014-11-15T09:59:19Z</time>
      </trkpt>
      <trkpt lat="54.355985" lon="-3.26449">
        <ele>410.0</ele>
        <time>2014-11-15T09:59:23Z</time>
      </trkpt>
      <trkpt lat="54.356198" lon="-3.264711">
        <ele>411.0</ele>
        <time>2014-11-15T09:59:27Z</time>
      </trkpt>
      <trkpt lat="54.356473" lon="-3.264986">
        <ele>412.0</ele>
        <time>2014-11-15T09:59:31Z</time>
      </trkpt>
      <trkpt lat="54.356708" lon="-3.26523">
        <ele>412.0</ele>
        <time>2014-11-15T09:59:35Z</time>
      </trkpt>
      <trkpt lat="54.356871" lon="-3.265446">
        <ele>413.0</ele>
        <time>2014-11-15T09:59:39Z</time>
      </trkpt>
      <trkpt lat="54.357061" lon="-3.265685">
        <ele>414.0</ele>
        <time>2014-11-15T09:59:43Z</time>
      </trkpt>
      <trkpt lat="54.3572" lon="-3.26586">
        <ele>416.0</ele>
        <time>2014-11-15T09:59:47Z</time>
      </trkpt>
      <trkpt lat="54.357368" lon="-3.26607">
        <ele>417.0</ele>
        <time>2014-11-15T09:59:51Z</time>
      </trkpt>
      <trkpt lat="54.357566" lon="-3.266281">
        <ele>417.0</ele>
        <time>2014-11-15T09:59:55Z</time>
      </trkpt>
      <trkpt lat="54.357798" lon="-3.266518">
        <ele>417.0</ele>
        <time>2014-11-15T09:59:59Z</time>
      </trkpt>
      <trkpt lat="54.358026" lon="-3.266796">
        <ele>417.0</ele>
        <time>2014-11-15T10:00:03Z</time>
      </trkpt>
      <trkpt lat="54.35825" lon="-3.267038">
        <ele>417.0</ele>
        <time>2014-11-15T10:00:07Z</time>
      </trkpt>
      <trkpt lat="54.358525" lon="-3.26713">
        <ele>417.0</ele>
        <time>2014-11-15T10:00:11Z</time>
      </trkpt>
      <trkpt lat="54.358793" lon="-3.26708">
        <ele>417.0</ele>
        <time>2014-11-15T10:00:15Z</time>
      </trkpt>
      <trkpt lat="54.359063" lon="-3.267056">
        <ele>417.0</ele>
        <time>2014-11-15T10:00:19Z</time>
      </trkpt>
      <trkpt lat="54.359341" lon="-3.26697">
        <ele>417.0</ele>
        <time>2014-11-15T10:00:23Z</time>
      </trkpt>
      <trkpt lat="54.359591" lon="-3.266763">
        <ele>417.0</ele>
        <time>2014-11-15T10:00:27Z</time>
      </trkpt>
      <trkpt lat="54.359818" lon="-3.26654">
        <ele>417.0</ele>
        <time>2014-11-15T10:00:31Z</time>
      </trkpt>
      <trkpt lat="54.360023" lon="-3.266345">
        <ele>418.0</ele>
        <time>2014-11-15T10:00:35Z</time>
      </trkpt>
      <trkpt lat="54.360248" lon="-3.266211">
        <ele>418.0</ele>
        <time>2014-11-15T10:00:39Z</time>
      </trkpt>
      <trkpt lat="54.36042" lon="-3.266081">
        <ele>419.0</ele>
        <time>2014-11-15T10:00:43Z</time>
      </trkpt>
      <trkpt lat="54.360605" lon="-3.266053">
        <ele>420.0</ele>
        <time>2014-11-15T10:00:47Z</time>
      </trkpt>
      <trkpt lat="54.360756" lon="-3.266111">
        <ele>421.0</ele>
        <time>2014-11-15T10:00:51Z</time>
      </trkpt>
      <trkpt lat="54.360908" lon="-3.266341">
        <ele>422.0</ele>
        <time>2014-11-15T10:00:55Z</time>
      </trkpt>
      <trkpt lat="54.361043" lon="-3.266516">
        <ele>424.0</ele>
        <time>2014-11-15T10:00:59Z</time>
      </trkpt>
      <trkpt lat="54.361143" lon="-3.266738">
        <ele>425.0</ele>
        <time>2014-11-15T10:01:03Z</time>
      </trkpt>
      <trkpt lat="54.361283" lon="-3.266963">
        <ele>425.0</ele>
        <time>2014-11-15T10:01:07Z</time>
      </trkpt>
      <trkpt lat="54.361481" lon="-3.267131">
        <ele>426.0</ele>
        <time>2014-11-15T10:01:11Z</time>
      </trkpt>
      <trkpt lat="54.36163" lon="-3.267258">
        <ele>427.0</ele>
        <time>2014-11-15T10:01:15Z</time>
      </trkpt>
      <trkpt lat="54.361755" lon="-3.267371">
        <ele>428.0</ele>
        <time>2014-11-15T10:01:19Z</time>
      </trkpt>
      <trkpt lat="54.36188" lon="-3.267471">
        <ele>430.0</ele>
        <time>2014-11-15T10:01:23Z</time>
      </trkpt>
      <trkpt lat="54.362003" lon="-3.26754">
        <ele>431.0</ele>
        <time>2014-11-15T10:01:27Z</time>
      </trkpt>
      <trkpt lat="54.36212" lon="-3.267713">
        <ele>432.0</ele>
        <time>2014-11-15T10:01:31Z</time>
      </trkpt>
      <trkpt lat="54.362246" lon="-3.267936">
        <ele>433.0</ele>
        <time>2014-11-15T10:01:35Z</time>
      </trkpt>
      <trkpt lat="54.362385" lon="-3.268246">
        <ele>433.0</ele>
        <time>2014-11-15T10:01:39Z</time>
      </trkpt>
      <trkpt lat="54.362511" lon="-3.268536">
        <ele>433.0</ele>
        <time>2014-11-15T10:01:43Z</time>
      </trkpt>
      <trkpt lat="54.36267" lon="-3.268875">
        <ele>433.0</ele>
        <time>2014-11-15T10:01:47Z</time>
      </trkpt>
      <trkpt lat="54.362815" lon="-3.269245">
        <ele>433.0</ele>
        <time>2014-11-15T10:01:51Z</time>
      </trkpt>
      <trkpt lat="54.363" lon="-3.269518">
        <ele>432.0</ele>
        <time>2014-11-15T10:01:55Z</time>
      </trkpt>
      <trkpt lat="54.363231" lon="-3.269726">
        <ele>432.0</ele>
        <time>2014-11-15T10:01:59Z</time>
      </trkpt>
      <trkpt lat="54.36349" lon="-3.269936">
        <ele>433.0</ele>
        <time>2014-11-15T10:02:03Z</time>
      </trkpt>
      <trkpt lat="54.363691" lon="-3.270198">
        <ele>433.0</ele>
        <time>2014-11-15T10:02:07Z</time>
      </trkpt>
      <trkpt lat="54.363888" lon="-3.27052">
        <ele>434.0</ele>
        <time>2014-11-15T10:02:11Z</time>
      </trkpt>
      <trkpt lat="54.36403" lon="-3.270898">
        <ele>434.0</ele>
        <time>2014-11-15T10:02:15Z</time>
      </trkpt>
      <trkpt lat="54.364221" lon="-3.271305">
        <ele>434.0</ele>
        <time>2014-11-15T10:02:19Z</time>
      </trkpt>
      <trkpt lat="54.36437" lon="-3.271691">
        <ele>434.0</ele>
        <time>2014-11-15T10:02:23Z</time>
      </trkpt>
      <trkpt lat="54.364533" lon="-3.272093">
        <ele>433.0</ele>
        <time>2014-11-15T10:02:27Z</time>
      </trkpt>
      <trkpt lat="54.36463" lon="-3.272563">
        <ele>433.0</ele>
        <time>2014-11-15T10:02:31Z</time>
      </trkpt>
      <trkpt lat="54.364743" lon="-3.27301">
        <ele>433.0</ele>
        <time>2014-11-15T10:02:35Z</time>
      </trkpt>
      <trkpt lat="54.3649" lon="-3.273456">
        <ele>434.0</ele>
        <time>2014-11-15T10:02:39Z</time>
      </trkpt>
      <trkpt lat="54.3651" lon="-3.273911">
        <ele>433.0</ele>
        <time>2014-11-15T10:02:43Z</time>
      </trkpt>
      <trkpt lat="54.365383" lon="-3.27434">
        <ele>431.0</ele>
        <time>2014-11-15T10:02:47Z</time>
      </trkpt>
      <trkpt lat="54.365735" lon="-3.274606">
        <ele>429.0</ele>
        <time>2014-11-15T10:02:51Z</time>
      </trkpt>
      <trkpt lat="54.36605" lon="-3.275151">
        <ele>426.0</ele>
        <time>2014-11-15T10:02:55Z</time>
      </trkpt>
      <trkpt lat="54.366308" lon="-3.275853">
        <ele>423.0</ele>
        <time>2014-11-15T10:02:59Z</time>
      </trkpt>
      <trkpt lat="54.366585" lon="-3.276601">
        <ele>419.0</ele>
        <time>2014-11-15T10:03:03Z</time>
      </trkpt>
      <trkpt lat="54.366806" lon="-3.277276">
        <ele>414.0</ele>
        <time>2014-11-15T10:03:07Z</time>
      </trkpt>
      <trkpt lat="54.367163" lon="-3.277528">
        <ele>412.0</ele>
        <time>2014-11-15T10:03:11Z</time>
      </trkpt>
      <trkpt lat="54.367521" lon="-3.277713">
        <ele>412.0</ele>
        <time>2014-11-15T10:03:15Z</time>
      </trkpt>
      <trkpt lat="54.367978" lon="-3.27783">
        <ele>413.0</ele>
        <time>2014-11-15T10:03:19Z</time>
      </trkpt>
      <trkpt lat="54.368348" lon="-3.27798">
        <ele>412.0</ele>
        <time>2014-11-15T10:03:23Z</time>
      </trkpt>
      <trkpt lat="54.368645" lon="-3.278138">
        <ele>413.0</ele>
        <time>2014-11-15T10:03:27Z</time>
      </trkpt>
      <trkpt lat="54.368933" lon="-3.278196">
        <ele>415.0</ele>
        <time>2014-11-15T10:03:31Z</time>
      </trkpt>
      <trkpt lat="54.36919" lon="-3.278301">
        <ele>416.0</ele>
        <time>2014-11-15T10:03:35Z</time>
      </trkpt>
      <trkpt lat="54.369336" lon="-3.278406">
        <ele>418.0</ele>
        <time>2014-11-15T10:03:39Z</time>
      </trkpt>
      <trkpt lat="54.369488" lon="-3.278456">
        <ele>419.0</ele>
        <time>2014-11-15T10:03:43Z</time>
      </trkpt>
      <trkpt lat="54.36961" lon="-3.27847">
        <ele>419.0</ele>
        <time>2014-11-15T10:03:47Z</time>
      </trkpt>
      <trkpt lat="54.369761" lon="-3.278541">
        <ele>419.0</ele>
        <time>2014-11-15T10:03:51Z</time>
      </trkpt>
      <trkpt lat="54.369913" lon="-3.278656">
        <ele>420.0</ele>
        <time>2014-11-15T10:03:55Z</time>
      </trkpt>
      <trkpt lat="54.370086" lon="-3.278898">
        <ele>420.0</ele>
        <time>2014-11-15T10:03:59Z</time>
      </trkpt>
      <trkpt lat="54.370228" lon="-3.279223">
        <ele>420.0</ele>
        <time>2014-11-15T10:04:03Z</time>
      </trkpt>
      <trkpt lat="54.370253" lon="-3.27964">
        <ele>418.0</ele>
        <time>2014-11-15T10:04:07Z</time>
      </trkpt>
      <trkpt lat="54.370283" lon="-3.279996">
        <ele>416.0</ele>
        <time>2014-11-15T10:04:11Z</time>
      </trkpt>
      <trkpt lat="54.370471" lon="-3.280306">
        <ele>413.0</ele>
        <time>2014-11-15T10:04:15Z</time>
      </trkpt>
      <trkpt lat="54.3707" lon="-3.280778">
        <ele>407.0</ele>
        <time>2014-11-15T10:04:19Z</time>
      </trkpt>
      <trkpt lat="54.370905" lon="-3.281331">
        <ele>403.0</ele>
        <time>2014-11-15T10:04:23Z</time>
      </trkpt>
      <trkpt lat="54.371155" lon="-3.281905">
        <ele>398.0</ele>
        <time>2014-11-15T10:04:27Z</time>
      </trkpt>
      <trkpt lat="54.37151" lon="-3.282516">
        <ele>392.0</ele>
        <time>2014-11-15T10:04:31Z</time>
      </trkpt>
      <trkpt lat="54.371943" lon="-3.283118">
        <ele>385.0</ele>
        <time>2014-11-15T10:04:35Z</time>
      </trkpt>
      <trkpt lat="54.37244" lon="-3.283716">
        <ele>378.0</ele>
        <time>2014-11-15T10:04:39Z</time>
      </trkpt>
      <trkpt lat="54.372975" lon="-3.284053">
        <ele>371.0</ele>
        <time>2014-11-15T10:04:43Z</time>
      </trkpt>
      <trkpt lat="54.373486" lon="-3.284175">
        <ele>365.0</ele>
        <time>2014-11-15T10:04:47Z</time>
      </trkpt>
      <trkpt lat="54.373998" lon="-3.284136">
        <ele>361.0</ele>
        <time>2014-11-15T10:04:51Z</time>
      </trkpt>
      <trkpt lat="54.374438" lon="-3.28397">
        <ele>356.0</ele>
        <time>2014-11-15T10:04:55Z</time>
      </trkpt>
      <trkpt lat="54.374725" lon="-3.283901">
        <ele>351.0</ele>
        <time>2014-11-15T10:04:59Z</time>
      </trkpt>
      <trkpt lat="54.37503" lon="-3.284088">
        <ele>345.0</ele>
        <time>2014-11-15T10:05:03Z</time>
      </trkpt>
      <trkpt lat="54.375331" lon="-3.284368">
        <ele>340.0</ele>
        <time>2014-11-15T10:05:07Z</time>
      </trkpt>
      <trkpt lat="54.37574" lon="-3.284371">
        <ele>337.0</ele>
        <time>2014-11-15T10:05:11Z</time>
      </trkpt>
      <trkpt lat="54.376151" lon="-3.284225">
        <ele>333.0</ele>
        <time>2014-11-15T10:05:15Z</time>
      </trkpt>
      <trkpt lat="54.376523" lon="-3.28394">
        <ele>327.0</ele>
        <time>2014-11-15T10:05:19Z</time>
      </trkpt>
      <trkpt lat="54.37688" lon="-3.283906">
        <ele>321.0</ele>
        <time>2014-11-15T10:05:23Z</time>
      </trkpt>
      <trkpt lat="54.377186" lon="-3.28429">
        <ele>318.0</ele>
        <time>2014-11-15T10:05:27Z</time>
      </trkpt>
      <trkpt lat="54.377456" lon="-3.284785">
        <ele>315.0</ele>
        <time>2014-11-15T10:05:31Z</time>
      </trkpt>
      <trkpt lat="54.37769" lon="-3.285318">
        <ele>313.0</ele>
        <time>2014-11-15T10:05:35Z</time>
      </trkpt>
      <trkpt lat="54.377881" lon="-3.285755">
        <ele>315.0</ele>
        <time>2014-11-15T10:05:39Z</time>
      </trkpt>
      <trkpt lat="54.378046" lon="-3.286215">
        <ele>316.0</ele>
        <time>2014-11-15T10:05:43Z</time>
      </trkpt>
      <trkpt lat="54.378245" lon="-3.286638">
        <ele>316.0</ele>
        <time>2014-11-15T10:05:47Z</time>
      </trkpt>
      <trkpt lat="54.378436" lon="-3.287058">
        <ele>315.0</ele>
        <time>2014-11-15T10:05:51Z</time>
      </trkpt>
      <trkpt lat="54.37874" lon="-3.28729">
        <ele>314.0</ele>
        <time>2014-11-15T10:05:55Z</time>
      </trkpt>
      <trkpt lat="54.37907" lon="-3.28764">
        <ele>312.0</ele>
        <time>2014-11-15T10:05:59Z</time>
      </trkpt>
      <trkpt lat="54.37927" lon="-3.28832">
        <ele>309.0</ele>
        <time>2014-11-15T10:06:03Z</time>
      </trkpt>
      <trkpt lat="54.379415" lon="-3.288955">
        <ele>307.0</ele>
        <time>2014-11-15T10:06:07Z</time>
      </trkpt>
      <trkpt lat="54.379603" lon="-3.289496">
        <ele>306.0</ele>
        <time>2014-11-15T10:06:11Z</time>
      </trkpt>
      <trkpt lat="54.379898" lon="-3.290106">
        <ele>302.0</ele>
        <time>2014-11-15T10:06:15Z</time>
      </trkpt>
      <trkpt lat="54.380115" lon="-3.290666">
        <ele>297.0</ele>
        <time>2014-11-15T10:06:19Z</time>
      </trkpt>
      <trkpt lat="54.380208" lon="-3.29139">
        <ele>289.0</ele>
        <time>2014-11-15T10:06:23Z</time>
      </trkpt>
      <trkpt lat="54.380453" lon="-3.29193">
        <ele>285.0</ele>
        <time>2014-11-15T10:06:27Z</time>
      </trkpt>
      <trkpt lat="54.380843" lon="-3.292276">
        <ele>280.0</ele>
        <time>2014-11-15T10:06:31Z</time>
      </trkpt>
      <trkpt lat="54.381193" lon="-3.292545">
        <ele>278.0</ele>
        <time>2014-11-15T10:06:35Z</time>
      </trkpt>
      <trkpt lat="54.381571" lon="-3.29283">
        <ele>278.0</ele>
        <time>2014-11-15T10:06:39Z</time>
      </trkpt>
      <trkpt lat="54.381856" lon="-3.293123">
        <ele>275.0</ele>
        <time>2014-11-15T10:06:43Z</time>
      </trkpt>
      <trkpt lat="54.381923" lon="-3.293643">
        <ele>268.0</ele>
        <time>2014-11-15T10:06:47Z</time>
      </trkpt>
      <trkpt lat="54.381758" lon="-3.294335">
        <ele>262.0</ele>
        <time>2014-11-15T10:06:51Z</time>
      </trkpt>
      <trkpt lat="54.381603" lon="-3.295105">
        <ele>255.0</ele>
        <time>2014-11-15T10:06:55Z</time>
      </trkpt>
      <trkpt lat="54.381433" lon="-3.296018">
        <ele>248.0</ele>
        <time>2014-11-15T10:06:59Z</time>
      </trkpt>
      <trkpt lat="54.381235" lon="-3.29702">
        <ele>239.0</ele>
        <time>2014-11-15T10:07:03Z</time>
      </trkpt>
      <trkpt lat="54.381083" lon="-3.298051">
        <ele>232.0</ele>
        <time>2014-11-15T10:07:07Z</time>
      </trkpt>
      <trkpt lat="54.380873" lon="-3.298778">
        <ele>225.0</ele>
        <time>2014-11-15T10:07:11Z</time>
      </trkpt>
      <trkpt lat="54.380713" lon="-3.299478">
        <ele>219.0</ele>
        <time>2014-11-15T10:07:15Z</time>
      </trkpt>
      <trkpt lat="54.380586" lon="-3.300125">
        <ele>217.0</ele>
        <time>2014-11-15T10:07:19Z</time>
      </trkpt>
      <trkpt lat="54.380473" lon="-3.300845">
        <ele>216.0</ele>
        <time>2014-11-15T10:07:23Z</time>
      </trkpt>
      <trkpt lat="54.380168" lon="-3.301458">
        <ele>214.0</ele>
        <time>2014-11-15T10:07:27Z</time>
      </trkpt>
      <trkpt lat="54.379956" lon="-3.302201">
        <ele>212.0</ele>
        <time>2014-11-15T10:07:31Z</time>
      </trkpt>
      <trkpt lat="54.379848" lon="-3.302966">
        <ele>211.0</ele>
        <time>2014-11-15T10:07:35Z</time>
      </trkpt>
      <trkpt lat="54.3798" lon="-3.303715">
        <ele>210.0</ele>
        <time>2014-11-15T10:07:39Z</time>
      </trkpt>
      <trkpt lat="54.379693" lon="-3.304448">
        <ele>208.0</ele>
        <time>2014-11-15T10:07:43Z</time>
      </trkpt>
      <trkpt lat="54.379588" lon="-3.305128">
        <ele>207.0</ele>
        <time>2014-11-15T10:07:47Z</time>
      </trkpt>
      <trkpt lat="54.379538" lon="-3.305765">
        <ele>206.0</ele>
        <time>2014-11-15T10:07:51Z</time>
      </trkpt>
      <trkpt lat="54.379551" lon="-3.306113">
        <ele>210.0</ele>
        <time>2014-11-15T10:07:55Z</time>
      </trkpt>
      <trkpt lat="54.379581" lon="-3.306315">
        <ele>212.0</ele>
        <time>2014-11-15T10:07:59Z</time>
      </trkpt>
      <trkpt lat="54.379713" lon="-3.306498">
        <ele>214.0</ele>
        <time>2014-11-15T10:08:03Z</time>
      </trkpt>
      <trkpt lat="54.379786" lon="-3.306741">
        <ele>215.0</ele>
        <time>2014-11-15T10:08:07Z</time>
      </trkpt>
      <trkpt lat="54.379828" lon="-3.306965">
        <ele>216.0</ele>
        <time>2014-11-15T10:08:11Z</time>
      </trkpt>
      <trkpt lat="54.379988" lon="-3.307113">
        <ele>217.0</ele>
        <time>2014-11-15T10:08:15Z</time>
      </trkpt>
      <trkpt lat="54.380098" lon="-3.307463">
        <ele>217.0</ele>
        <time>2014-11-15T10:08:19Z</time>
      </trkpt>
      <trkpt lat="54.380113" lon="-3.307828">
        <ele>217.0</ele>
        <time>2014-11-15T10:08:23Z</time>
      </trkpt>
      <trkpt lat="54.380073" lon="-3.308348">
        <ele>216.0</ele>
        <time>2014-11-15T10:08:27Z</time>
      </trkpt>
      <trkpt lat="54.380045" lon="-3.308991">
        <ele>212.0</ele>
        <time>2014-11-15T10:08:31Z</time>
      </trkpt>
      <trkpt lat="54.379991" lon="-3.309705">
        <ele>206.0</ele>
        <time>2014-11-15T10:08:35Z</time>
      </trkpt>
      <trkpt lat="54.379908" lon="-3.310453">
        <ele>202.0</ele>
        <time>2014-11-15T10:08:39Z</time>
      </trkpt>
      <trkpt lat="54.379918" lon="-3.31123">
        <ele>200.0</ele>
        <time>2014-11-15T10:08:43Z</time>
      </trkpt>
      <trkpt lat="54.379991" lon="-3.311956">
        <ele>199.0</ele>
        <time>2014-11-15T10:08:47Z</time>
      </trkpt>
      <trkpt lat="54.380065" lon="-3.312636">
        <ele>197.0</ele>
        <time>2014-11-15T10:08:51Z</time>
      </trkpt>
      <trkpt lat="54.380241" lon="-3.313186">
        <ele>196.0</ele>
        <time>2014-11-15T10:08:55Z</time>
      </trkpt>
      <trkpt lat="54.380451" lon="-3.31364">
        <ele>195.0</ele>
        <time>2014-11-15T10:08:59Z</time>
      </trkpt>
      <trkpt lat="54.380673" lon="-3.314105">
        <ele>195.0</ele>
        <time>2014-11-15T10:09:03Z</time>
      </trkpt>
      <trkpt lat="54.380936" lon="-3.314416">
        <ele>193.0</ele>
        <time>2014-11-15T10:09:07Z</time>
      </trkpt>
      <trkpt lat="54.38118" lon="-3.314595">
        <ele>194.0</ele>
        <time>2014-11-15T10:09:11Z</time>
      </trkpt>
      <trkpt lat="54.381436" lon="-3.31473">
        <ele>195.0</ele>
        <time>2014-11-15T10:09:15Z</time>
      </trkpt>
      <trkpt lat="54.381666" lon="-3.314976">
        <ele>195.0</ele>
        <time>2014-11-15T10:09:19Z</time>
      </trkpt>
      <trkpt lat="54.381918" lon="-3.315151">
        <ele>194.0</ele>
        <time>2014-11-15T10:09:23Z</time>
      </trkpt>
      <trkpt lat="54.382173" lon="-3.315353">
        <ele>193.0</ele>
        <time>2014-11-15T10:09:27Z</time>
      </trkpt>
      <trkpt lat="54.38239" lon="-3.315463">
        <ele>193.0</ele>
        <time>2014-11-15T10:09:31Z</time>
      </trkpt>
      <trkpt lat="54.382631" lon="-3.315251">
        <ele>193.0</ele>
        <time>2014-11-15T10:09:35Z</time>
      </trkpt>
      <trkpt lat="54.382851" lon="-3.315008">
        <ele>193.0</ele>
        <time>2014-11-15T10:09:39Z</time>
      </trkpt>
      <trkpt lat="54.383053" lon="-3.314686">
        <ele>193.0</ele>
        <time>2014-11-15T10:09:43Z</time>
      </trkpt>
      <trkpt lat="54.383171" lon="-3.314311">
        <ele>194.0</ele>
        <time>2014-11-15T10:09:47Z</time>
      </trkpt>
      <trkpt lat="54.383285" lon="-3.31393">
        <ele>195.0</ele>
        <time>2014-11-15T10:09:51Z</time>
      </trkpt>
      <trkpt lat="54.383431" lon="-3.313573">
        <ele>195.0</ele>
        <time>2014-11-15T10:09:55Z</time>
      </trkpt>
      <trkpt lat="54.38357" lon="-3.31319">
        <ele>195.0</ele>
        <time>2014-11-15T10:09:59Z</time>
      </trkpt>
      <trkpt lat="54.383728" lon="-3.312885">
        <ele>195.0</ele>
        <time>2014-11-15T10:10:03Z</time>
      </trkpt>
      <trkpt lat="54.383795" lon="-3.312496">
        <ele>195.0</ele>
        <time>2014-11-15T10:10:07Z</time>
      </trkpt>
      <trkpt lat="54.383876" lon="-3.312128">
        <ele>195.0</ele>
        <time>2014-11-15T10:10:11Z</time>
      </trkpt>
      <trkpt lat="54.383946" lon="-3.311778">
        <ele>196.0</ele>
        <time>2014-11-15T10:10:15Z</time>
      </trkpt>
      <trkpt lat="54.384068" lon="-3.311575">
        <ele>197.0</ele>
        <time>2014-11-15T10:10:19Z</time>
      </trkpt>
      <trkpt lat="54.384261" lon="-3.311536">
        <ele>197.0</ele>
        <time>2014-11-15T10:10:23Z</time>
      </trkpt>
      <trkpt lat="54.384548" lon="-3.311725">
        <ele>197.0</ele>
        <time>2014-11-15T10:10:27Z</time>
      </trkpt>
      <trkpt lat="54.384788" lon="-3.31189">
        <ele>196.0</ele>
        <time>2014-11-15T10:10:31Z</time>
      </trkpt>
      <trkpt lat="54.38503" lon="-3.312068">
        <ele>196.0</ele>
        <time>2014-11-15T10:10:35Z</time>
      </trkpt>
      <trkpt lat="54.385315" lon="-3.312223">
        <ele>196.0</ele>
        <time>2014-11-15T10:10:39Z</time>
      </trkpt>
      <trkpt lat="54.385541" lon="-3.31226">
        <ele>195.0</ele>
        <time>2014-11-15T10:10:43Z</time>
      </trkpt>
      <trkpt lat="54.385741" lon="-3.312041">
        <ele>196.0</ele>
        <time>2014-11-15T10:10:47Z</time>
      </trkpt>
      <trkpt lat="54.385961" lon="-3.311768">
        <ele>196.0</ele>
        <time>2014-11-15T10:10:51Z</time>
      </trkpt>
      <trkpt lat="54.386206" lon="-3.311661">
        <ele>196.0</ele>
        <time>2014-11-15T10:10:55Z</time>
      </trkpt>
      <trkpt lat="54.386368" lon="-3.311658">
        <ele>196.0</ele>
        <time>2014-11-15T10:10:59Z</time>
      </trkpt>
      <trkpt lat="54.386521" lon="-3.311815">
        <ele>197.0</ele>
        <time>2014-11-15T10:11:03Z</time>
      </trkpt>
      <trkpt lat="54.386665" lon="-3.311925">
        <ele>197.0</ele>
        <time>2014-11-15T10:11:07Z</time>
      </trkpt>
      <trkpt lat="54.386755" lon="-3.312138">
        <ele>198.0</ele>
        <time>2014-11-15T10:11:11Z</time>
      </trkpt>
      <trkpt lat="54.386761" lon="-3.312385">
        <ele>199.0</ele>
        <time>2014-11-15T10:11:15Z</time>
      </trkpt>
      <trkpt lat="54.386955" lon="-3.312646">
        <ele>199.0</ele>
        <time>2014-11-15T10:11:19Z</time>
      </trkpt>
      <trkpt lat="54.387075" lon="-3.312986">
        <ele>199.0</ele>
        <time>2014-11-15T10:11:23Z</time>
      </trkpt>
      <trkpt lat="54.387071" lon="-3.3134">
        <ele>198.0</ele>
        <time>2014-11-15T10:11:27Z</time>
      </trkpt>
      <trkpt lat="54.386985" lon="-3.313683">
        <ele>199.0</ele>
        <time>2014-11-15T10:11:31Z</time>
      </trkpt>
      <trkpt lat="54.386926" lon="-3.313928">
        <ele>200.0</ele>
        <time>2014-11-15T10:11:35Z</time>
      </trkpt>
      <trkpt lat="54.38692" lon="-3.3143">
        <ele>201.0</ele>
        <time>2014-11-15T10:11:39Z</time>
      </trkpt>
      <trkpt lat="54.38688" lon="-3.314593">
        <ele>202.0</ele>
        <time>2014-11-15T10:11:43Z</time>
      </trkpt>
      <trkpt lat="54.386871" lon="-3.314795">
        <ele>205.0</ele>
        <time>2014-11-15T10:11:47Z</time>
      </trkpt>
      <trkpt lat="54.386918" lon="-3.315043">
        <ele>206.0</ele>
        <time>2014-11-15T10:11:51Z</time>
      </trkpt>
      <trkpt lat="54.386985" lon="-3.315366">
        <ele>207.0</ele>
        <time>2014-11-15T10:11:55Z</time>
      </trkpt>
      <trkpt lat="54.38694" lon="-3.315791">
        <ele>206.0</ele>
        <time>2014-11-15T10:11:59Z</time>
      </trkpt>
      <trkpt lat="54.38694" lon="-3.316265">
        <ele>204.0</ele>
        <time>2014-11-15T10:12:03Z</time>
      </trkpt>
      <trkpt lat="54.387033" lon="-3.316668">
        <ele>203.0</ele>
        <time>2014-11-15T10:12:07Z</time>
      </trkpt>
      <trkpt lat="54.387066" lon="-3.316905">
        <ele>204.0</ele>
        <time>2014-11-15T10:12:11Z</time>
      </trkpt>
      <trkpt lat="54.38711" lon="-3.31711">
        <ele>206.0</ele>
        <time>2014-11-15T10:12:15Z</time>
      </trkpt>
      <trkpt lat="54.387161" lon="-3.317186">
        <ele>208.0</ele>
        <time>2014-11-15T10:12:19Z</time>
      </trkpt>
      <trkpt lat="54.387128" lon="-3.317143">
        <ele>209.0</ele>
        <time>2014-11-15T10:12:23Z</time>
      </trkpt>
      <trkpt lat="54.38712" lon="-3.317135">
        <ele>209.0</ele>
        <time>2014-11-15T10:12:27Z</time>
      </trkpt>
      <trkpt lat="54.387056" lon="-3.317093">
        <ele>209.0</ele>
        <time>2014-11-15T10:12:31Z</time>
      </trkpt>
      <trkpt lat="54.387105" lon="-3.31711">
        <ele>208.0</ele>
        <time>2014-11-15T10:12:35Z</time>
      </trkpt>
      <trkpt lat="54.387116" lon="-3.317121">
        <ele>208.0</ele>
        <time>2014-11-15T10:12:39Z</time>
      </trkpt>
      <trkpt lat="54.387136" lon="-3.317105">
        <ele>208.0</ele>
        <time>2014-11-15T10:12:43Z</time>
      </trkpt>
      <trkpt lat="54.387138" lon="-3.317125">
        <ele>208.0</ele>
        <time>2014-11-15T10:12:47Z</time>
      </trkpt>
      <trkpt lat="54.387131" lon="-3.317121">
        <ele>208.0</ele>
        <time>2014-11-15T10:12:51Z</time>
      </trkpt>
      <trkpt lat="54.387196" lon="-3.317198">
        <ele>209.0</ele>
        <time>2014-11-15T10:12:55Z</time>
      </trkpt>
      <trkpt lat="54.387293" lon="-3.317308">
        <ele>208.0</ele>
        <time>2014-11-15T10:12:59Z</time>
      </trkpt>
      <trkpt lat="54.387396" lon="-3.317455">
        <ele>208.0</ele>
        <time>2014-11-15T10:13:03Z</time>
      </trkpt>
      <trkpt lat="54.387536" lon="-3.317536">
        <ele>208.0</ele>
        <time>2014-11-15T10:13:07Z</time>
      </trkpt>
      <trkpt lat="54.387626" lon="-3.317618">
        <ele>210.0</ele>
        <time>2014-11-15T10:13:11Z</time>
      </trkpt>
      <trkpt lat="54.387781" lon="-3.317768">
        <ele>210.0</ele>
        <time>2014-11-15T10:13:15Z</time>
      </trkpt>
      <trkpt lat="54.387893" lon="-3.317926">
        <ele>211.0</ele>
        <time>2014-11-15T10:13:19Z</time>
      </trkpt>
      <trkpt lat="54.387976" lon="-3.318091">
        <ele>212.0</ele>
        <time>2014-11-15T10:13:23Z</time>
      </trkpt>
      <trkpt lat="54.388068" lon="-3.318278">
        <ele>213.0</ele>
        <time>2014-11-15T10:13:27Z</time>
      </trkpt>
      <trkpt lat="54.388033" lon="-3.318421">
        <ele>213.0</ele>
        <time>2014-11-15T10:13:31Z</time>
      </trkpt>
      <trkpt lat="54.388138" lon="-3.318616">
        <ele>214.0</ele>
        <time>2014-11-15T10:13:35Z</time>
      </trkpt>
      <trkpt lat="54.388215" lon="-3.318821">
        <ele>215.0</ele>
        <time>2014-11-15T10:13:39Z</time>
      </trkpt>
      <trkpt lat="54.388221" lon="-3.319021">
        <ele>216.0</ele>
        <time>2014-11-15T10:13:43Z</time>
      </trkpt>
      <trkpt lat="54.388301" lon="-3.319195">
        <ele>217.0</ele>
        <time>2014-11-15T10:13:47Z</time>
      </trkpt>
      <trkpt lat="54.388283" lon="-3.319348">
        <ele>218.0</ele>
        <time>2014-11-15T10:13:51Z</time>
      </trkpt>
      <trkpt lat="54.38844" lon="-3.319616">
        <ele>217.0</ele>
        <time>2014-11-15T10:13:55Z</time>
      </trkpt>
      <trkpt lat="54.388598" lon="-3.31987">
        <ele>216.0</ele>
        <time>2014-11-15T10:13:59Z</time>
      </trkpt>
      <trkpt lat="54.388738" lon="-3.32015">
        <ele>217.0</ele>
        <time>2014-11-15T10:14:03Z</time>
      </trkpt>
      <trkpt lat="54.38877" lon="-3.320455">
        <ele>218.0</ele>
        <time>2014-11-15T10:14:07Z</time>
      </trkpt>
      <trkpt lat="54.38886" lon="-3.320808">
        <ele>220.0</ele>
        <time>2014-11-15T10:14:11Z</time>
      </trkpt>
      <trkpt lat="54.388923" lon="-3.321113">
        <ele>221.0</ele>
        <time>2014-11-15T10:14:15Z</time>
      </trkpt>
      <trkpt lat="54.388985" lon="-3.321293">
        <ele>222.0</ele>
        <time>2014-11-15T10:14:19Z</time>
      </trkpt>
      <trkpt lat="54.389046" lon="-3.321548">
        <ele>223.0</ele>
        <time>2014-11-15T10:14:23Z</time>
      </trkpt>
      <trkpt lat="54.389191" lon="-3.321655">
        <ele>224.0</ele>
        <time>2014-11-15T10:14:27Z</time>
      </trkpt>
      <trkpt lat="54.389283" lon="-3.321693">
        <ele>224.0</ele>
        <time>2014-11-15T10:14:31Z</time>
      </trkpt>
      <trkpt lat="54.389315" lon="-3.321736">
        <ele>226.0</ele>
        <time>2014-11-15T10:14:35Z</time>
      </trkpt>
      <trkpt lat="54.389451" lon="-3.321773">
        <ele>227.0</ele>
        <time>2014-11-15T10:14:39Z</time>
      </trkpt>
      <trkpt lat="54.389445" lon="-3.321821">
        <ele>228.0</ele>
        <time>2014-11-15T10:14:43Z</time>
      </trkpt>
      <trkpt lat="54.389613" lon="-3.321925">
        <ele>229.0</ele>
        <time>2014-11-15T10:14:47Z</time>
      </trkpt>
      <trkpt lat="54.389725" lon="-3.322041">
        <ele>230.0</ele>
        <time>2014-11-15T10:14:51Z</time>
      </trkpt>
      <trkpt lat="54.389805" lon="-3.322226">
        <ele>231.0</ele>
        <time>2014-11-15T10:14:55Z</time>
      </trkpt>
      <trkpt lat="54.389885" lon="-3.32248">
        <ele>231.0</ele>
        <time>2014-11-15T10:14:59Z</time>
      </trkpt>
      <trkpt lat="54.389945" lon="-3.322765">
        <ele>231.0</ele>
        <time>2014-11-15T10:15:03Z</time>
      </trkpt>
      <trkpt lat="54.389918" lon="-3.323043">
        <ele>232.0</ele>
        <time>2014-11-15T10:15:07Z</time>
      </trkpt>
      <trkpt lat="54.389821" lon="-3.323308">
        <ele>232.0</ele>
        <time>2014-11-15T10:15:11Z</time>
      </trkpt>
      <trkpt lat="54.389718" lon="-3.323623">
        <ele>233.0</ele>
        <time>2014-11-15T10:15:15Z</time>
      </trkpt>
      <trkpt lat="54.389596" lon="-3.323963">
        <ele>232.0</ele>
        <time>2014-11-15T10:15:19Z</time>
      </trkpt>
      <trkpt lat="54.389485" lon="-3.324323">
        <ele>233.0</ele>
        <time>2014-11-15T10:15:23Z</time>
      </trkpt>
      <trkpt lat="54.389415" lon="-3.324715">
        <ele>233.0</ele>
        <time>2014-11-15T10:15:27Z</time>
      </trkpt>
      <trkpt lat="54.389345" lon="-3.325083">
        <ele>234.0</ele>
        <time>2014-11-15T10:15:31Z</time>
      </trkpt>
      <trkpt lat="54.389335" lon="-3.325486">
        <ele>235.0</ele>
        <time>2014-11-15T10:15:35Z</time>
      </trkpt>
      <trkpt lat="54.38928" lon="-3.326068">
        <ele>234.0</ele>
        <time>2014-11-15T10:15:39Z</time>
      </trkpt>
      <trkpt lat="54.389038" lon="-3.326696">
        <ele>230.0</ele>
        <time>2014-11-15T10:15:43Z</time>
      </trkpt>
      <trkpt lat="54.388885" lon="-3.327331">
        <ele>228.0</ele>
        <time>2014-11-15T10:15:47Z</time>
      </trkpt>
      <trkpt lat="54.388726" lon="-3.328098">
        <ele>225.0</ele>
        <time>2014-11-15T10:15:51Z</time>
      </trkpt>
      <trkpt lat="54.388583" lon="-3.328883">
        <ele>220.0</ele>
        <time>2014-11-15T10:15:55Z</time>
      </trkpt>
      <trkpt lat="54.38854" lon="-3.32972">
        <ele>219.0</ele>
        <time>2014-11-15T10:15:59Z</time>
      </trkpt>
      <trkpt lat="54.388703" lon="-3.330503">
        <ele>215.0</ele>
        <time>2014-11-15T10:16:03Z</time>
      </trkpt>
      <trkpt lat="54.38883" lon="-3.331255">
        <ele>215.0</ele>
        <time>2014-11-15T10:16:07Z</time>
      </trkpt>
      <trkpt lat="54.388956" lon="-3.331901">
        <ele>215.0</ele>
        <time>2014-11-15T10:16:11Z</time>
      </trkpt>
      <trkpt lat="54.389183" lon="-3.332428">
        <ele>216.0</ele>
        <time>2014-11-15T10:16:15Z</time>
      </trkpt>
      <trkpt lat="54.38949" lon="-3.332758">
        <ele>216.0</ele>
        <time>2014-11-15T10:16:19Z</time>
      </trkpt>
      <trkpt lat="54.389775" lon="-3.33294">
        <ele>216.0</ele>
        <time>2014-11-15T10:16:23Z</time>
      </trkpt>
      <trkpt lat="54.389945" lon="-3.333396">
        <ele>217.0</ele>
        <time>2014-11-15T10:16:27Z</time>
      </trkpt>
      <trkpt lat="54.39003" lon="-3.333958">
        <ele>216.0</ele>
        <time>2014-11-15T10:16:31Z</time>
      </trkpt>
      <trkpt lat="54.390118" lon="-3.334496">
        <ele>216.0</ele>
        <time>2014-11-15T10:16:35Z</time>
      </trkpt>
      <trkpt lat="54.390188" lon="-3.334971">
        <ele>217.0</ele>
        <time>2014-11-15T10:16:39Z</time>
      </trkpt>
      <trkpt lat="54.390343" lon="-3.335498">
        <ele>217.0</ele>
        <time>2014-11-15T10:16:43Z</time>
      </trkpt>
      <trkpt lat="54.390488" lon="-3.33603">
        <ele>216.0</ele>
        <time>2014-11-15T10:16:47Z</time>
      </trkpt>
      <trkpt lat="54.390515" lon="-3.336448">
        <ele>216.0</ele>
        <time>2014-11-15T10:16:51Z</time>
      </trkpt>
      <trkpt lat="54.390528" lon="-3.336633">
        <ele>215.0</ele>
        <time>2014-11-15T10:16:55Z</time>
      </trkpt>
      <trkpt lat="54.390526" lon="-3.336716">
        <ele>215.0</ele>
        <time>2014-11-15T10:16:59Z</time>
      </trkpt>
      <trkpt lat="54.39051" lon="-3.336751">
        <ele>215.0</ele>
        <time>2014-11-15T10:17:03Z</time>
      </trkpt>
      <trkpt lat="54.390476" lon="-3.336735">
        <ele>216.0</ele>
        <time>2014-11-15T10:17:07Z</time>
      </trkpt>
      <trkpt lat="54.39051" lon="-3.33679">
        <ele>215.0</ele>
        <time>2014-11-15T10:17:11Z</time>
      </trkpt>
      <trkpt lat="54.390491" lon="-3.336788">
        <ele>215.0</ele>
        <time>2014-11-15T10:17:15Z</time>
      </trkpt>
      <trkpt lat="54.3905" lon="-3.336793">
        <ele>215.0</ele>
        <time>2014-11-15T10:17:19Z</time>
      </trkpt>
      <trkpt lat="54.390485" lon="-3.33678">
        <ele>216.0</ele>
        <time>2014-11-15T10:17:23Z</time>
      </trkpt>
      <trkpt lat="54.39049" lon="-3.336788">
        <ele>216.0</ele>
        <time>2014-11-15T10:17:27Z</time>
      </trkpt>
      <trkpt lat="54.390506" lon="-3.336798">
        <ele>216.0</ele>
        <time>2014-11-15T10:17:31Z</time>
      </trkpt>
      <trkpt lat="54.390518" lon="-3.336798">
        <ele>215.0</ele>
        <time>2014-11-15T10:17:35Z</time>
      </trkpt>
      <trkpt lat="54.39052" lon="-3.336775">
        <ele>215.0</ele>
        <time>2014-11-15T10:17:39Z</time>
      </trkpt>
      <trkpt lat="54.390461" lon="-3.336738">
        <ele>216.0</ele>
        <time>2014-11-15T10:17:43Z</time>
      </trkpt>
      <trkpt lat="54.390463" lon="-3.33669">
        <ele>216.0</ele>
        <time>2014-11-15T10:17:47Z</time>
      </trkpt>
      <trkpt lat="54.390506" lon="-3.336698">
        <ele>215.0</ele>
        <time>2014-11-15T10:17:51Z</time>
      </trkpt>
      <trkpt lat="54.39051" lon="-3.336758">
        <ele>215.0</ele>
        <time>2014-11-15T10:17:55Z</time>
      </trkpt>
      <trkpt lat="54.390516" lon="-3.336785">
        <ele>215.0</ele>
        <time>2014-11-15T10:17:59Z</time>
      </trkpt>
      <trkpt lat="54.390461" lon="-3.336801">
        <ele>215.0</ele>
        <time>2014-11-15T10:18:03Z</time>
      </trkpt>
      <trkpt lat="54.390423" lon="-3.336813">
        <ele>215.0</ele>
        <time>2014-11-15T10:18:07Z</time>
      </trkpt>
      <trkpt lat="54.390445" lon="-3.336861">
        <ele>215.0</ele>
        <time>2014-11-15T10:18:11Z</time>
      </trkpt>
      <trkpt lat="54.390483" lon="-3.33704">
        <ele>215.0</ele>
        <time>2014-11-15T10:18:15Z</time>
      </trkpt>
      <trkpt lat="54.390483" lon="-3.337118">
        <ele>215.0</ele>
        <time>2014-11-15T10:18:19Z</time>
      </trkpt>
      <trkpt lat="54.390486" lon="-3.337166">
        <ele>215.0</ele>
        <time>2014-11-15T10:18:23Z</time>
      </trkpt>
      <trkpt lat="54.39048" lon="-3.337165">
        <ele>215.0</ele>
        <time>2014-11-15T10:18:27Z</time>
      </trkpt>
      <trkpt lat="54.390506" lon="-3.337193">
        <ele>215.0</ele>
        <time>2014-11-15T10:18:31Z</time>
      </trkpt>
      <trkpt lat="54.39051" lon="-3.337315">
        <ele>215.0</ele>
        <time>2014-11-15T10:18:35Z</time>
      </trkpt>
      <trkpt lat="54.390518" lon="-3.337571">
        <ele>215.0</ele>
        <time>2014-11-15T10:18:39Z</time>
      </trkpt>
      <trkpt lat="54.390538" lon="-3.337813">
        <ele>214.0</ele>
        <time>2014-11-15T10:18:43Z</time>
      </trkpt>
      <trkpt lat="54.39052" lon="-3.338041">
        <ele>215.0</ele>
        <time>2014-11-15T10:18:47Z</time>
      </trkpt>
      <trkpt lat="54.390516" lon="-3.338146">
        <ele>214.0</ele>
        <time>2014-11-15T10:18:51Z</time>
      </trkpt>
      <trkpt lat="54.390501" lon="-3.338151">
        <ele>215.0</ele>
        <time>2014-11-15T10:18:55Z</time>
      </trkpt>
      <trkpt lat="54.390545" lon="-3.338126">
        <ele>215.0</ele>
        <time>2014-11-15T10:18:59Z</time>
      </trkpt>
      <trkpt lat="54.39057" lon="-3.338163">
        <ele>215.0</ele>
        <time>2014-11-15T10:19:03Z</time>
      </trkpt>
      <trkpt lat="54.390568" lon="-3.338146">
        <ele>215.0</ele>
        <time>2014-11-15T10:19:07Z</time>
      </trkpt>
      <trkpt lat="54.390558" lon="-3.338181">
        <ele>215.0</ele>
        <time>2014-11-15T10:19:11Z</time>
      </trkpt>
      <trkpt lat="54.390566" lon="-3.338171">
        <ele>214.0</ele>
        <time>2014-11-15T10:19:15Z</time>
      </trkpt>
      <trkpt lat="54.390551" lon="-3.338178">
        <ele>215.0</ele>
        <time>2014-11-15T10:19:19Z</time>
      </trkpt>
      <trkpt lat="54.390558" lon="-3.338171">
        <ele>215.0</ele>
        <time>2014-11-15T10:19:23Z</time>
      </trkpt>
      <trkpt lat="54.390563" lon="-3.33818">
        <ele>215.0</ele>
        <time>2014-11-15T10:19:27Z</time>
      </trkpt>
      <trkpt lat="54.390566" lon="-3.33819">
        <ele>215.0</ele>
        <time>2014-11-15T10:19:31Z</time>
      </trkpt>
      <trkpt lat="54.390561" lon="-3.338185">
        <ele>215.0</ele>
        <time>2014-11-15T10:19:35Z</time>
      </trkpt>
      <trkpt lat="54.390555" lon="-3.338181">
        <ele>215.0</ele>
        <time>2014-11-15T10:19:39Z</time>
      </trkpt>
      <trkpt lat="54.390556" lon="-3.338185">
        <ele>215.0</ele>
        <time>2014-11-15T10:19:43Z</time>
      </trkpt>
      <trkpt lat="54.390556" lon="-3.338176">
        <ele>214.0</ele>
        <time>2014-11-15T10:19:47Z</time>
      </trkpt>
      <trkpt lat="54.390568" lon="-3.338171">
        <ele>215.0</ele>
        <time>2014-11-15T10:19:51Z</time>
      </trkpt>
      <trkpt lat="54.390591" lon="-3.33818">
        <ele>215.0</ele>
        <time>2014-11-15T10:19:55Z</time>
      </trkpt>
      <trkpt lat="54.390571" lon="-3.338185">
        <ele>215.0</ele>
        <time>2014-11-15T10:19:59Z</time>
      </trkpt>
      <trkpt lat="54.390565" lon="-3.33818">
        <ele>215.0</ele>
        <time>2014-11-15T10:20:03Z</time>
      </trkpt>
      <trkpt lat="54.390566" lon="-3.338195">
        <ele>215.0</ele>
        <time>2014-11-15T10:20:07Z</time>
      </trkpt>
      <trkpt lat="54.390556" lon="-3.338201">
        <ele>215.0</ele>
        <time>2014-11-15T10:20:11Z</time>
      </trkpt>
      <trkpt lat="54.390533" lon="-3.338171">
        <ele>215.0</ele>
        <time>2014-11-15T10:20:15Z</time>
      </trkpt>
      <trkpt lat="54.390556" lon="-3.33818">
        <ele>215.0</ele>
        <time>2014-11-15T10:20:19Z</time>
      </trkpt>
      <trkpt lat="54.390513" lon="-3.338155">
        <ele>215.0</ele>
        <time>2014-11-15T10:20:23Z</time>
      </trkpt>
      <trkpt lat="54.390508" lon="-3.338168">
        <ele>215.0</ele>
        <time>2014-11-15T10:20:27Z</time>
      </trkpt>
      <trkpt lat="54.390511" lon="-3.338178">
        <ele>215.0</ele>
        <time>2014-11-15T10:20:31Z</time>
      </trkpt>
      <trkpt lat="54.390498" lon="-3.338168">
        <ele>215.0</ele>
        <time>2014-11-15T10:20:35Z</time>
      </trkpt>
      <trkpt lat="54.390521" lon="-3.338195">
        <ele>215.0</ele>
        <time>2014-11-15T10:20:39Z</time>
      </trkpt>
      <trkpt lat="54.390523" lon="-3.338188">
        <ele>214.0</ele>
        <time>2014-11-15T10:20:43Z</time>
      </trkpt>
      <trkpt lat="54.390523" lon="-3.338196">
        <ele>215.0</ele>
        <time>2014-11-15T10:20:47Z</time>
      </trkpt>
      <trkpt lat="54.39049" lon="-3.338158">
        <ele>215.0</ele>
        <time>2014-11-15T10:20:51Z</time>
      </trkpt>
      <trkpt lat="54.390511" lon="-3.338176">
        <ele>215.0</ele>
        <time>2014-11-15T10:20:55Z</time>
      </trkpt>
      <trkpt lat="54.390486" lon="-3.338158">
        <ele>215.0</ele>
        <time>2014-11-15T10:20:59Z</time>
      </trkpt>
      <trkpt lat="54.390495" lon="-3.33817">
        <ele>214.0</ele>
        <time>2014-11-15T10:21:03Z</time>
      </trkpt>
      <trkpt lat="54.390545" lon="-3.338201">
        <ele>215.0</ele>
        <time>2014-11-15T10:21:07Z</time>
      </trkpt>
      <trkpt lat="54.390548" lon="-3.338196">
        <ele>215.0</ele>
        <time>2014-11-15T10:21:11Z</time>
      </trkpt>
      <trkpt lat="54.390553" lon="-3.338183">
        <ele>214.0</ele>
        <time>2014-11-15T10:21:15Z</time>
      </trkpt>
      <trkpt lat="54.390556" lon="-3.338186">
        <ele>214.0</ele>
        <time>2014-11-15T10:21:19Z</time>
      </trkpt>
      <trkpt lat="54.390565" lon="-3.338195">
        <ele>215.0</ele>
        <time>2014-11-15T10:21:23Z</time>
      </trkpt>
      <trkpt lat="54.390558" lon="-3.338176">
        <ele>215.0</ele>
        <time>2014-11-15T10:21:27Z</time>
      </trkpt>
      <trkpt lat="54.390546" lon="-3.338163">
        <ele>215.0</ele>
        <time>2014-11-15T10:21:31Z</time>
      </trkpt>
      <trkpt lat="54.390541" lon="-3.338173">
        <ele>215.0</ele>
        <time>2014-11-15T10:21:35Z</time>
      </trkpt>
      <trkpt lat="54.390556" lon="-3.338181">
        <ele>215.0</ele>
        <time>2014-11-15T10:21:39Z</time>
      </trkpt>
      <trkpt lat="54.39055" lon="-3.338183">
        <ele>215.0</ele>
        <time>2014-11-15T10:21:43Z</time>
      </trkpt>
      <trkpt lat="54.390583" lon="-3.338191">
        <ele>215.0</ele>
        <time>2014-11-15T10:21:47Z</time>
      </trkpt>
      <trkpt lat="54.390565" lon="-3.338176">
        <ele>214.0</ele>
        <time>2014-11-15T10:21:51Z</time>
      </trkpt>
      <trkpt lat="54.390545" lon="-3.33818">
        <ele>215.0</ele>
        <time>2014-11-15T10:21:55Z</time>
      </trkpt>
      <trkpt lat="54.390521" lon="-3.338163">
        <ele>215.0</ele>
        <time>2014-11-15T10:21:59Z</time>
      </trkpt>
      <trkpt lat="54.390513" lon="-3.338146">
        <ele>215.0</ele>
        <time>2014-11-15T10:22:03Z</time>
      </trkpt>
      <trkpt lat="54.390543" lon="-3.338155">
        <ele>215.0</ele>
        <time>2014-11-15T10:22:07Z</time>
      </trkpt>
      <trkpt lat="54.39055" lon="-3.338161">
        <ele>215.0</ele>
        <time>2014-11-15T10:22:11Z</time>
      </trkpt>
      <trkpt lat="54.390556" lon="-3.33817">
        <ele>215.0</ele>
        <time>2014-11-15T10:22:15Z</time>
      </trkpt>
      <trkpt lat="54.390533" lon="-3.338158">
        <ele>215.0</ele>
        <time>2014-11-15T10:22:19Z</time>
      </trkpt>
      <trkpt lat="54.390493" lon="-3.33816">
        <ele>212.0</ele>
        <time>2014-11-15T10:22:23Z</time>
      </trkpt>
      <trkpt lat="54.390505" lon="-3.338206">
        <ele>212.0</ele>
        <time>2014-11-15T10:22:27Z</time>
      </trkpt>
      <trkpt lat="54.390523" lon="-3.33824">
        <ele>215.0</ele>
        <time>2014-11-15T10:22:31Z</time>
      </trkpt>
      <trkpt lat="54.390528" lon="-3.338263">
        <ele>215.0</ele>
        <time>2014-11-15T10:22:35Z</time>
      </trkpt>
      <trkpt lat="54.390498" lon="-3.338303">
        <ele>215.0</ele>
        <time>2014-11-15T10:22:39Z</time>
      </trkpt>
      <trkpt lat="54.39048" lon="-3.338401">
        <ele>215.0</ele>
        <time>2014-11-15T10:22:43Z</time>
      </trkpt>
      <trkpt lat="54.3905" lon="-3.338533">
        <ele>216.0</ele>
        <time>2014-11-15T10:22:47Z</time>
      </trkpt>
      <trkpt lat="54.390536" lon="-3.33879">
        <ele>215.0</ele>
        <time>2014-11-15T10:22:51Z</time>
      </trkpt>
      <trkpt lat="54.390591" lon="-3.33912">
        <ele>215.0</ele>
        <time>2014-11-15T10:22:55Z</time>
      </trkpt>
      <trkpt lat="54.39061" lon="-3.339413">
        <ele>214.0</ele>
        <time>2014-11-15T10:22:59Z</time>
      </trkpt>
      <trkpt lat="54.390681" lon="-3.33971">
        <ele>214.0</ele>
        <time>2014-11-15T10:23:03Z</time>
      </trkpt>
      <trkpt lat="54.390715" lon="-3.339973">
        <ele>215.0</ele>
        <time>2014-11-15T10:23:07Z</time>
      </trkpt>
      <trkpt lat="54.390783" lon="-3.340228">
        <ele>215.0</ele>
        <time>2014-11-15T10:23:11Z</time>
      </trkpt>
      <trkpt lat="54.390933" lon="-3.340456">
        <ele>215.0</ele>
        <time>2014-11-15T10:23:15Z</time>
      </trkpt>
      <trkpt lat="54.391131" lon="-3.340523">
        <ele>216.0</ele>
        <time>2014-11-15T10:23:19Z</time>
      </trkpt>
      <trkpt lat="54.391285" lon="-3.340575">
        <ele>218.0</ele>
        <time>2014-11-15T10:23:23Z</time>
      </trkpt>
      <trkpt lat="54.391311" lon="-3.340548">
        <ele>219.0</ele>
        <time>2014-11-15T10:23:27Z</time>
      </trkpt>
      <trkpt lat="54.391393" lon="-3.340613">
        <ele>220.0</ele>
        <time>2014-11-15T10:23:31Z</time>
      </trkpt>
      <trkpt lat="54.391476" lon="-3.340676">
        <ele>222.0</ele>
        <time>2014-11-15T10:23:35Z</time>
      </trkpt>
      <trkpt lat="54.391608" lon="-3.340668">
        <ele>225.0</ele>
        <time>2014-11-15T10:23:39Z</time>
      </trkpt>
      <trkpt lat="54.391706" lon="-3.340703">
        <ele>226.0</ele>
        <time>2014-11-15T10:23:43Z</time>
      </trkpt>
      <trkpt lat="54.39186" lon="-3.34085">
        <ele>227.0</ele>
        <time>2014-11-15T10:23:47Z</time>
      </trkpt>
      <trkpt lat="54.391943" lon="-3.340901">
        <ele>229.0</ele>
        <time>2014-11-15T10:23:51Z</time>
      </trkpt>
      <trkpt lat="54.391896" lon="-3.340973">
        <ele>230.0</ele>
        <time>2014-11-15T10:23:55Z</time>
      </trkpt>
      <trkpt lat="54.391913" lon="-3.34112">
        <ele>232.0</ele>
        <time>2014-11-15T10:23:59Z</time>
      </trkpt>
      <trkpt lat="54.392" lon="-3.341198">
        <ele>233.0</ele>
        <time>2014-11-15T10:24:03Z</time>
      </trkpt>
      <trkpt lat="54.392045" lon="-3.34131">
        <ele>235.0</ele>
        <time>2014-11-15T10:24:07Z</time>
      </trkpt>
      <trkpt lat="54.392153" lon="-3.341471">
        <ele>236.0</ele>
        <time>2014-11-15T10:24:11Z</time>
      </trkpt>
      <trkpt lat="54.392231" lon="-3.341638">
        <ele>237.0</ele>
        <time>2014-11-15T10:24:15Z</time>
      </trkpt>
      <trkpt lat="54.392266" lon="-3.341733">
        <ele>238.0</ele>
        <time>2014-11-15T10:24:19Z</time>
      </trkpt>
      <trkpt lat="54.392343" lon="-3.341855">
        <ele>240.0</ele>
        <time>2014-11-15T10:24:23Z</time>
      </trkpt>
      <trkpt lat="54.392398" lon="-3.34198">
        <ele>241.0</ele>
        <time>2014-11-15T10:24:27Z</time>
      </trkpt>
      <trkpt lat="54.392421" lon="-3.342015">
        <ele>242.0</ele>
        <time>2014-11-15T10:24:31Z</time>
      </trkpt>
      <trkpt lat="54.392545" lon="-3.342063">
        <ele>244.0</ele>
        <time>2014-11-15T10:24:35Z</time>
      </trkpt>
      <trkpt lat="54.392626" lon="-3.342071">
        <ele>245.0</ele>
        <time>2014-11-15T10:24:39Z</time>
      </trkpt>
      <trkpt lat="54.392705" lon="-3.341973">
        <ele>246.0</ele>
        <time>2014-11-15T10:24:43Z</time>
      </trkpt>
      <trkpt lat="54.39286" lon="-3.34195">
        <ele>247.0</ele>
        <time>2014-11-15T10:24:47Z</time>
      </trkpt>
      <trkpt lat="54.392998" lon="-3.341933">
        <ele>249.0</ele>
        <time>2014-11-15T10:24:51Z</time>
      </trkpt>
      <trkpt lat="54.393116" lon="-3.341936">
        <ele>250.0</ele>
        <time>2014-11-15T10:24:55Z</time>
      </trkpt>
      <trkpt lat="54.393196" lon="-3.341918">
        <ele>252.0</ele>
        <time>2014-11-15T10:24:59Z</time>
      </trkpt>
      <trkpt lat="54.393303" lon="-3.341955">
        <ele>253.0</ele>
        <time>2014-11-15T10:25:03Z</time>
      </trkpt>
      <trkpt lat="54.393413" lon="-3.341955">
        <ele>254.0</ele>
        <time>2014-11-15T10:25:07Z</time>
      </trkpt>
      <trkpt lat="54.393493" lon="-3.341928">
        <ele>255.0</ele>
        <time>2014-11-15T10:25:11Z</time>
      </trkpt>
      <trkpt lat="54.393621" lon="-3.341916">
        <ele>256.0</ele>
        <time>2014-11-15T10:25:15Z</time>
      </trkpt>
      <trkpt lat="54.393756" lon="-3.341846">
        <ele>257.0</ele>
        <time>2014-11-15T10:25:19Z</time>
      </trkpt>
      <trkpt lat="54.393868" lon="-3.341788">
        <ele>258.0</ele>
        <time>2014-11-15T10:25:23Z</time>
      </trkpt>
      <trkpt lat="54.393965" lon="-3.3418">
        <ele>260.0</ele>
        <time>2014-11-15T10:25:27Z</time>
      </trkpt>
      <trkpt lat="54.393963" lon="-3.341761">
        <ele>261.0</ele>
        <time>2014-11-15T10:25:31Z</time>
      </trkpt>
      <trkpt lat="54.394023" lon="-3.34174">
        <ele>263.0</ele>
        <time>2014-11-15T10:25:35Z</time>
      </trkpt>
      <trkpt lat="54.394108" lon="-3.341758">
        <ele>264.0</ele>
        <time>2014-11-15T10:25:39Z</time>
      </trkpt>
      <trkpt lat="54.394243" lon="-3.341761">
        <ele>265.0</ele>
        <time>2014-11-15T10:25:43Z</time>
      </trkpt>
      <trkpt lat="54.394306" lon="-3.341825">
        <ele>266.0</ele>
        <time>2014-11-15T10:25:47Z</time>
      </trkpt>
      <trkpt lat="54.39435" lon="-3.341906">
        <ele>268.0</ele>
        <time>2014-11-15T10:25:51Z</time>
      </trkpt>
      <trkpt lat="54.394445" lon="-3.34203">
        <ele>269.0</ele>
        <time>2014-11-15T10:25:55Z</time>
      </trkpt>
      <trkpt lat="54.394498" lon="-3.342173">
        <ele>270.0</ele>
        <time>2014-11-15T10:25:59Z</time>
      </trkpt>
      <trkpt lat="54.394548" lon="-3.342328">
        <ele>270.0</ele>
        <time>2014-11-15T10:26:03Z</time>
      </trkpt>
      <trkpt lat="54.394643" lon="-3.342516">
        <ele>271.0</ele>
        <time>2014-11-15T10:26:07Z</time>
      </trkpt>
      <trkpt lat="54.394728" lon="-3.342743">
        <ele>272.0</ele>
        <time>2014-11-15T10:26:11Z</time>
      </trkpt>
      <trkpt lat="54.394806" lon="-3.342991">
        <ele>272.0</ele>
        <time>2014-11-15T10:26:15Z</time>
      </trkpt>
      <trkpt lat="54.394861" lon="-3.343195">
        <ele>273.0</ele>
        <time>2014-11-15T10:26:19Z</time>
      </trkpt>
      <trkpt lat="54.394921" lon="-3.3434">
        <ele>274.0</ele>
        <time>2014-11-15T10:26:23Z</time>
      </trkpt>
      <trkpt lat="54.395045" lon="-3.343613">
        <ele>275.0</ele>
        <time>2014-11-15T10:26:27Z</time>
      </trkpt>
      <trkpt lat="54.395166" lon="-3.343821">
        <ele>275.0</ele>
        <time>2014-11-15T10:26:31Z</time>
      </trkpt>
      <trkpt lat="54.395323" lon="-3.344021">
        <ele>275.0</ele>
        <time>2014-11-15T10:26:35Z</time>
      </trkpt>
      <trkpt lat="54.39547" lon="-3.34422">
        <ele>275.0</ele>
        <time>2014-11-15T10:26:39Z</time>
      </trkpt>
      <trkpt lat="54.39563" lon="-3.34442">
        <ele>275.0</ele>
        <time>2014-11-15T10:26:43Z</time>
      </trkpt>
      <trkpt lat="54.395806" lon="-3.344636">
        <ele>275.0</ele>
        <time>2014-11-15T10:26:47Z</time>
      </trkpt>
      <trkpt lat="54.395988" lon="-3.344815">
        <ele>275.0</ele>
        <time>2014-11-15T10:26:51Z</time>
      </trkpt>
      <trkpt lat="54.396175" lon="-3.34503">
        <ele>275.0</ele>
        <time>2014-11-15T10:26:55Z</time>
      </trkpt>
      <trkpt lat="54.3964" lon="-3.345221">
        <ele>275.0</ele>
        <time>2014-11-15T10:26:59Z</time>
      </trkpt>
      <trkpt lat="54.3967" lon="-3.345391">
        <ele>275.0</ele>
        <time>2014-11-15T10:27:03Z</time>
      </trkpt>
      <trkpt lat="54.396928" lon="-3.345608">
        <ele>276.0</ele>
        <time>2014-11-15T10:27:07Z</time>
      </trkpt>
      <trkpt lat="54.397095" lon="-3.34599">
        <ele>276.0</ele>
        <time>2014-11-15T10:27:11Z</time>
      </trkpt>
      <trkpt lat="54.397185" lon="-3.34648">
        <ele>276.0</ele>
        <time>2014-11-15T10:27:15Z</time>
      </trkpt>
      <trkpt lat="54.397298" lon="-3.346921">
        <ele>276.0</ele>
        <time>2014-11-15T10:27:19Z</time>
      </trkpt>
      <trkpt lat="54.39747" lon="-3.347303">
        <ele>276.0</ele>
        <time>2014-11-15T10:27:23Z</time>
      </trkpt>
      <trkpt lat="54.397633" lon="-3.347601">
        <ele>277.0</ele>
        <time>2014-11-15T10:27:27Z</time>
      </trkpt>
      <trkpt lat="54.397855" lon="-3.347918">
        <ele>278.0</ele>
        <time>2014-11-15T10:27:31Z</time>
      </trkpt>
      <trkpt lat="54.39805" lon="-3.348223">
        <ele>279.0</ele>
        <time>2014-11-15T10:27:35Z</time>
      </trkpt>
      <trkpt lat="54.398205" lon="-3.348518">
        <ele>280.0</ele>
        <time>2014-11-15T10:27:39Z</time>
      </trkpt>
      <trkpt lat="54.398328" lon="-3.348826">
        <ele>281.0</ele>
        <time>2014-11-15T10:27:43Z</time>
      </trkpt>
      <trkpt lat="54.398443" lon="-3.349141">
        <ele>282.0</ele>
        <time>2014-11-15T10:27:47Z</time>
      </trkpt>
      <trkpt lat="54.398585" lon="-3.349491">
        <ele>282.0</ele>
        <time>2014-11-15T10:27:51Z</time>
      </trkpt>
      <trkpt lat="54.39871" lon="-3.34984">
        <ele>283.0</ele>
        <time>2014-11-15T10:27:55Z</time>
      </trkpt>
      <trkpt lat="54.398888" lon="-3.350238">
        <ele>285.0</ele>
        <time>2014-11-15T10:27:59Z</time>
      </trkpt>
      <trkpt lat="54.399025" lon="-3.350468">
        <ele>286.0</ele>
        <time>2014-11-15T10:28:03Z</time>
      </trkpt>
      <trkpt lat="54.399176" lon="-3.350781">
        <ele>286.0</ele>
        <time>2014-11-15T10:28:07Z</time>
      </trkpt>
      <trkpt lat="54.399388" lon="-3.351158">
        <ele>286.0</ele>
        <time>2014-11-15T10:28:11Z</time>
      </trkpt>
      <trkpt lat="54.399436" lon="-3.351405">
        <ele>285.0</ele>
        <time>2014-11-15T10:28:15Z</time>
      </trkpt>
      <trkpt lat="54.399725" lon="-3.351835">
        <ele>283.0</ele>
        <time>2014-11-15T10:28:19Z</time>
      </trkpt>
      <trkpt lat="54.399835" lon="-3.352426">
        <ele>280.0</ele>
        <time>2014-11-15T10:28:23Z</time>
      </trkpt>
      <trkpt lat="54.399663" lon="-3.352853">
        <ele>279.0</ele>
        <time>2014-11-15T10:28:27Z</time>
      </trkpt>
      <trkpt lat="54.399415" lon="-3.353175">
        <ele>278.0</ele>
        <time>2014-11-15T10:28:31Z</time>
      </trkpt>
      <trkpt lat="54.39923" lon="-3.353695">
        <ele>276.0</ele>
        <time>2014-11-15T10:28:35Z</time>
      </trkpt>
      <trkpt lat="54.398981" lon="-3.354171">
        <ele>278.0</ele>
        <time>2014-11-15T10:28:39Z</time>
      </trkpt>
      <trkpt lat="54.398891" lon="-3.354618">
        <ele>280.0</ele>
        <time>2014-11-15T10:28:43Z</time>
      </trkpt>
      <trkpt lat="54.398803" lon="-3.355006">
        <ele>282.0</ele>
        <time>2014-11-15T10:28:47Z</time>
      </trkpt>
      <trkpt lat="54.3987" lon="-3.355346">
        <ele>283.0</ele>
        <time>2014-11-15T10:28:51Z</time>
      </trkpt>
      <trkpt lat="54.398603" lon="-3.355703">
        <ele>284.0</ele>
        <time>2014-11-15T10:28:55Z</time>
      </trkpt>
      <trkpt lat="54.398541" lon="-3.356105">
        <ele>285.0</ele>
        <time>2014-11-15T10:28:59Z</time>
      </trkpt>
      <trkpt lat="54.398581" lon="-3.356638">
        <ele>284.0</ele>
        <time>2014-11-15T10:29:03Z</time>
      </trkpt>
      <trkpt lat="54.398633" lon="-3.357251">
        <ele>282.0</ele>
        <time>2014-11-15T10:29:07Z</time>
      </trkpt>
      <trkpt lat="54.398725" lon="-3.357885">
        <ele>281.0</ele>
        <time>2014-11-15T10:29:11Z</time>
      </trkpt>
      <trkpt lat="54.398788" lon="-3.358426">
        <ele>280.0</ele>
        <time>2014-11-15T10:29:15Z</time>
      </trkpt>
      <trkpt lat="54.398865" lon="-3.358883">
        <ele>282.0</ele>
        <time>2014-11-15T10:29:19Z</time>
      </trkpt>
      <trkpt lat="54.398943" lon="-3.359345">
        <ele>283.0</ele>
        <time>2014-11-15T10:29:23Z</time>
      </trkpt>
      <trkpt lat="54.399031" lon="-3.35982">
        <ele>283.0</ele>
        <time>2014-11-15T10:29:27Z</time>
      </trkpt>
      <trkpt lat="54.399161" lon="-3.360251">
        <ele>282.0</ele>
        <time>2014-11-15T10:29:31Z</time>
      </trkpt>
      <trkpt lat="54.399315" lon="-3.360751">
        <ele>281.0</ele>
        <time>2014-11-15T10:29:35Z</time>
      </trkpt>
      <trkpt lat="54.399433" lon="-3.361325">
        <ele>279.0</ele>
        <time>2014-11-15T10:29:39Z</time>
      </trkpt>
      <trkpt lat="54.399426" lon="-3.362076">
        <ele>276.0</ele>
        <time>2014-11-15T10:29:43Z</time>
      </trkpt>
      <trkpt lat="54.399516" lon="-3.36281">
        <ele>270.0</ele>
        <time>2014-11-15T10:29:47Z</time>
      </trkpt>
      <trkpt lat="54.399721" lon="-3.363478">
        <ele>265.0</ele>
        <time>2014-11-15T10:29:51Z</time>
      </trkpt>
      <trkpt lat="54.40009" lon="-3.364001">
        <ele>261.0</ele>
        <time>2014-11-15T10:29:55Z</time>
      </trkpt>
      <trkpt lat="54.40041" lon="-3.364541">
        <ele>257.0</ele>
        <time>2014-11-15T10:29:59Z</time>
      </trkpt>
      <trkpt lat="54.400701" lon="-3.365258">
        <ele>251.0</ele>
        <time>2014-11-15T10:30:03Z</time>
      </trkpt>
      <trkpt lat="54.400676" lon="-3.365873">
        <ele>244.0</ele>
        <time>2014-11-15T10:30:07Z</time>
      </trkpt>
      <trkpt lat="54.400678" lon="-3.366585">
        <ele>240.0</ele>
        <time>2014-11-15T10:30:11Z</time>
      </trkpt>
      <trkpt lat="54.40072" lon="-3.367431">
        <ele>235.0</ele>
        <time>2014-11-15T10:30:15Z</time>
      </trkpt>
      <trkpt lat="54.400831" lon="-3.368366">
        <ele>229.0</ele>
        <time>2014-11-15T10:30:19Z</time>
      </trkpt>
      <trkpt lat="54.400978" lon="-3.369053">
        <ele>223.0</ele>
        <time>2014-11-15T10:30:23Z</time>
      </trkpt>
      <trkpt lat="54.401115" lon="-3.369505">
        <ele>218.0</ele>
        <time>2014-11-15T10:30:27Z</time>
      </trkpt>
      <trkpt lat="54.401295" lon="-3.369803">
        <ele>214.0</ele>
        <time>2014-11-15T10:30:31Z</time>
      </trkpt>
      <trkpt lat="54.401556" lon="-3.370176">
        <ele>209.0</ele>
        <time>2014-11-15T10:30:35Z</time>
      </trkpt>
      <trkpt lat="54.401798" lon="-3.370696">
        <ele>205.0</ele>
        <time>2014-11-15T10:30:39Z</time>
      </trkpt>
      <trkpt lat="54.402023" lon="-3.371228">
        <ele>203.0</ele>
        <time>2014-11-15T10:30:43Z</time>
      </trkpt>
      <trkpt lat="54.402183" lon="-3.371698">
        <ele>201.0</ele>
        <time>2014-11-15T10:30:47Z</time>
      </trkpt>
      <trkpt lat="54.40221" lon="-3.37218">
        <ele>200.0</ele>
        <time>2014-11-15T10:30:51Z</time>
      </trkpt>
      <trkpt lat="54.40219" lon="-3.372551">
        <ele>202.0</ele>
        <time>2014-11-15T10:30:55Z</time>
      </trkpt>
      <trkpt lat="54.40211" lon="-3.372906">
        <ele>202.0</ele>
        <time>2014-11-15T10:30:59Z</time>
      </trkpt>
      <trkpt lat="54.402018" lon="-3.37325">
        <ele>203.0</ele>
        <time>2014-11-15T10:31:03Z</time>
      </trkpt>
      <trkpt lat="54.402" lon="-3.373626">
        <ele>204.0</ele>
        <time>2014-11-15T10:31:07Z</time>
      </trkpt>
      <trkpt lat="54.401993" lon="-3.373911">
        <ele>207.0</ele>
        <time>2014-11-15T10:31:11Z</time>
      </trkpt>
      <trkpt lat="54.40197" lon="-3.374195">
        <ele>208.0</ele>
        <time>2014-11-15T10:31:15Z</time>
      </trkpt>
      <trkpt lat="54.401988" lon="-3.374498">
        <ele>208.0</ele>
        <time>2014-11-15T10:31:19Z</time>
      </trkpt>
      <trkpt lat="54.401986" lon="-3.374836">
        <ele>208.0</ele>
        <time>2014-11-15T10:31:23Z</time>
      </trkpt>
      <trkpt lat="54.402003" lon="-3.375185">
        <ele>210.0</ele>
        <time>2014-11-15T10:31:27Z</time>
      </trkpt>
      <trkpt lat="54.401918" lon="-3.37574">
        <ele>212.0</ele>
        <time>2014-11-15T10:31:35Z</time>
      </trkpt>
      <trkpt lat="54.401896" lon="-3.376048">
        <ele>213.0</ele>
        <time>2014-11-15T10:31:39Z</time>
      </trkpt>
      <trkpt lat="54.401823" lon="-3.376345">
        <ele>214.0</ele>
        <time>2014-11-15T10:31:43Z</time>
      </trkpt>
      <trkpt lat="54.401756" lon="-3.376655">
        <ele>214.0</ele>
        <time>2014-11-15T10:31:47Z</time>
      </trkpt>
      <trkpt lat="54.401671" lon="-3.37694">
        <ele>215.0</ele>
        <time>2014-11-15T10:31:51Z</time>
      </trkpt>
      <trkpt lat="54.401651" lon="-3.377261">
        <ele>215.0</ele>
        <time>2014-11-15T10:31:55Z</time>
      </trkpt>
      <trkpt lat="54.40166" lon="-3.377638">
        <ele>216.0</ele>
        <time>2014-11-15T10:31:59Z</time>
      </trkpt>
      <trkpt lat="54.40166" lon="-3.378038">
        <ele>216.0</ele>
        <time>2014-11-15T10:32:03Z</time>
      </trkpt>
      <trkpt lat="54.401673" lon="-3.378456">
        <ele>215.0</ele>
        <time>2014-11-15T10:32:07Z</time>
      </trkpt>
      <trkpt lat="54.401713" lon="-3.378881">
        <ele>216.0</ele>
        <time>2014-11-15T10:32:11Z</time>
      </trkpt>
      <trkpt lat="54.401816" lon="-3.379313">
        <ele>216.0</ele>
        <time>2014-11-15T10:32:15Z</time>
      </trkpt>
      <trkpt lat="54.401926" lon="-3.379751">
        <ele>216.0</ele>
        <time>2014-11-15T10:32:19Z</time>
      </trkpt>
      <trkpt lat="54.402013" lon="-3.380193">
        <ele>215.0</ele>
        <time>2014-11-15T10:32:23Z</time>
      </trkpt>
      <trkpt lat="54.402125" lon="-3.380636">
        <ele>215.0</ele>
        <time>2014-11-15T10:32:27Z</time>
      </trkpt>
      <trkpt lat="54.402238" lon="-3.38107">
        <ele>216.0</ele>
        <time>2014-11-15T10:32:31Z</time>
      </trkpt>
      <trkpt lat="54.402341" lon="-3.381505">
        <ele>216.0</ele>
        <time>2014-11-15T10:32:35Z</time>
      </trkpt>
      <trkpt lat="54.402401" lon="-3.381961">
        <ele>217.0</ele>
        <time>2014-11-15T10:32:39Z</time>
      </trkpt>
      <trkpt lat="54.4024" lon="-3.38242">
        <ele>217.0</ele>
        <time>2014-11-15T10:32:43Z</time>
      </trkpt>
      <trkpt lat="54.402383" lon="-3.382876">
        <ele>217.0</ele>
        <time>2014-11-15T10:32:47Z</time>
      </trkpt>
      <trkpt lat="54.40236" lon="-3.38334">
        <ele>217.0</ele>
        <time>2014-11-15T10:32:51Z</time>
      </trkpt>
      <trkpt lat="54.402381" lon="-3.383805">
        <ele>218.0</ele>
        <time>2014-11-15T10:32:55Z</time>
      </trkpt>
      <trkpt lat="54.402431" lon="-3.384295">
        <ele>218.0</ele>
        <time>2014-11-15T10:32:59Z</time>
      </trkpt>
      <trkpt lat="54.402448" lon="-3.384755">
        <ele>218.0</ele>
        <time>2014-11-15T10:33:03Z</time>
      </trkpt>
      <trkpt lat="54.402488" lon="-3.38525">
        <ele>218.0</ele>
        <time>2014-11-15T10:33:07Z</time>
      </trkpt>
      <trkpt lat="54.402476" lon="-3.385726">
        <ele>218.0</ele>
        <time>2014-11-15T10:33:11Z</time>
      </trkpt>
      <trkpt lat="54.402521" lon="-3.386191">
        <ele>218.0</ele>
        <time>2014-11-15T10:33:15Z</time>
      </trkpt>
      <trkpt lat="54.402655" lon="-3.386581">
        <ele>218.0</ele>
        <time>2014-11-15T10:33:19Z</time>
      </trkpt>
      <trkpt lat="54.402873" lon="-3.387298">
        <ele>220.0</ele>
        <time>2014-11-15T10:33:27Z</time>
      </trkpt>
      <trkpt lat="54.403036" lon="-3.387693">
        <ele>220.0</ele>
        <time>2014-11-15T10:33:31Z</time>
      </trkpt>
      <trkpt lat="54.403155" lon="-3.38805">
        <ele>221.0</ele>
        <time>2014-11-15T10:33:35Z</time>
      </trkpt>
      <trkpt lat="54.403303" lon="-3.388465">
        <ele>220.0</ele>
        <time>2014-11-15T10:33:39Z</time>
      </trkpt>
      <trkpt lat="54.403445" lon="-3.388795">
        <ele>219.0</ele>
        <time>2014-11-15T10:33:43Z</time>
      </trkpt>
      <trkpt lat="54.403663" lon="-3.38915">
        <ele>218.0</ele>
        <time>2014-11-15T10:33:47Z</time>
      </trkpt>
      <trkpt lat="54.403901" lon="-3.389533">
        <ele>218.0</ele>
        <time>2014-11-15T10:33:51Z</time>
      </trkpt>
      <trkpt lat="54.404063" lon="-3.389841">
        <ele>218.0</ele>
        <time>2014-11-15T10:33:55Z</time>
      </trkpt>
      <trkpt lat="54.404231" lon="-3.390126">
        <ele>218.0</ele>
        <time>2014-11-15T10:33:59Z</time>
      </trkpt>
      <trkpt lat="54.404405" lon="-3.390323">
        <ele>220.0</ele>
        <time>2014-11-15T10:34:03Z</time>
      </trkpt>
      <trkpt lat="54.40464" lon="-3.390558">
        <ele>222.0</ele>
        <time>2014-11-15T10:34:07Z</time>
      </trkpt>
      <trkpt lat="54.404751" lon="-3.39077">
        <ele>223.0</ele>
        <time>2014-11-15T10:34:11Z</time>
      </trkpt>
      <trkpt lat="54.404945" lon="-3.390973">
        <ele>224.0</ele>
        <time>2014-11-15T10:34:15Z</time>
      </trkpt>
      <trkpt lat="54.405105" lon="-3.391235">
        <ele>224.0</ele>
        <time>2014-11-15T10:34:19Z</time>
      </trkpt>
      <trkpt lat="54.405256" lon="-3.39147">
        <ele>225.0</ele>
        <time>2014-11-15T10:34:23Z</time>
      </trkpt>
      <trkpt lat="54.405451" lon="-3.391745">
        <ele>224.0</ele>
        <time>2014-11-15T10:34:27Z</time>
      </trkpt>
      <trkpt lat="54.405646" lon="-3.392068">
        <ele>222.0</ele>
        <time>2014-11-15T10:34:31Z</time>
      </trkpt>
      <trkpt lat="54.405913" lon="-3.392438">
        <ele>220.0</ele>
        <time>2014-11-15T10:34:35Z</time>
      </trkpt>
      <trkpt lat="54.406173" lon="-3.39282">
        <ele>219.0</ele>
        <time>2014-11-15T10:34:39Z</time>
      </trkpt>
      <trkpt lat="54.406481" lon="-3.393223">
        <ele>218.0</ele>
        <time>2014-11-15T10:34:43Z</time>
      </trkpt>
      <trkpt lat="54.406763" lon="-3.393558">
        <ele>217.0</ele>
        <time>2014-11-15T10:34:47Z</time>
      </trkpt>
      <trkpt lat="54.407018" lon="-3.393985">
        <ele>216.0</ele>
        <time>2014-11-15T10:34:51Z</time>
      </trkpt>
      <trkpt lat="54.40723" lon="-3.394455">
        <ele>216.0</ele>
        <time>2014-11-15T10:34:55Z</time>
      </trkpt>
      <trkpt lat="54.407448" lon="-3.394963">
        <ele>214.0</ele>
        <time>2014-11-15T10:34:59Z</time>
      </trkpt>
      <trkpt lat="54.407663" lon="-3.395408">
        <ele>214.0</ele>
        <time>2014-11-15T10:35:03Z</time>
      </trkpt>
      <trkpt lat="54.407913" lon="-3.395873">
        <ele>213.0</ele>
        <time>2014-11-15T10:35:07Z</time>
      </trkpt>
      <trkpt lat="54.408201" lon="-3.396201">
        <ele>213.0</ele>
        <time>2014-11-15T10:35:11Z</time>
      </trkpt>
      <trkpt lat="54.4085" lon="-3.396605">
        <ele>212.0</ele>
        <time>2014-11-15T10:35:15Z</time>
      </trkpt>
      <trkpt lat="54.408668" lon="-3.397011">
        <ele>211.0</ele>
        <time>2014-11-15T10:35:19Z</time>
      </trkpt>
      <trkpt lat="54.4088" lon="-3.397503">
        <ele>211.0</ele>
        <time>2014-11-15T10:35:23Z</time>
      </trkpt>
      <trkpt lat="54.40886" lon="-3.398026">
        <ele>211.0</ele>
        <time>2014-11-15T10:35:27Z</time>
      </trkpt>
      <trkpt lat="54.408933" lon="-3.398525">
        <ele>211.0</ele>
        <time>2014-11-15T10:35:31Z</time>
      </trkpt>
      <trkpt lat="54.408983" lon="-3.399068">
        <ele>211.0</ele>
        <time>2014-11-15T10:35:35Z</time>
      </trkpt>
      <trkpt lat="54.409065" lon="-3.399575">
        <ele>212.0</ele>
        <time>2014-11-15T10:35:39Z</time>
      </trkpt>
      <trkpt lat="54.40919" lon="-3.400056">
        <ele>212.0</ele>
        <time>2014-11-15T10:35:43Z</time>
      </trkpt>
      <trkpt lat="54.409338" lon="-3.400456">
        <ele>213.0</ele>
        <time>2014-11-15T10:35:47Z</time>
      </trkpt>
      <trkpt lat="54.40945" lon="-3.400878">
        <ele>213.0</ele>
        <time>2014-11-15T10:35:51Z</time>
      </trkpt>
      <trkpt lat="54.409543" lon="-3.401298">
        <ele>214.0</ele>
        <time>2014-11-15T10:35:55Z</time>
      </trkpt>
      <trkpt lat="54.409706" lon="-3.401746">
        <ele>213.0</ele>
        <time>2014-11-15T10:35:59Z</time>
      </trkpt>
      <trkpt lat="54.409866" lon="-3.402175">
        <ele>212.0</ele>
        <time>2014-11-15T10:36:03Z</time>
      </trkpt>
      <trkpt lat="54.410053" lon="-3.402571">
        <ele>213.0</ele>
        <time>2014-11-15T10:36:07Z</time>
      </trkpt>
      <trkpt lat="54.410233" lon="-3.402978">
        <ele>213.0</ele>
        <time>2014-11-15T10:36:11Z</time>
      </trkpt>
      <trkpt lat="54.410406" lon="-3.403386">
        <ele>213.0</ele>
        <time>2014-11-15T10:36:15Z</time>
      </trkpt>
      <trkpt lat="54.41054" lon="-3.40373">
        <ele>214.0</ele>
        <time>2014-11-15T10:36:19Z</time>
      </trkpt>
      <trkpt lat="54.410681" lon="-3.40411">
        <ele>213.0</ele>
        <time>2014-11-15T10:36:23Z</time>
      </trkpt>
      <trkpt lat="54.410825" lon="-3.404501">
        <ele>214.0</ele>
        <time>2014-11-15T10:36:27Z</time>
      </trkpt>
      <trkpt lat="54.410986" lon="-3.404873">
        <ele>213.0</ele>
        <time>2014-11-15T10:36:31Z</time>
      </trkpt>
      <trkpt lat="54.411066" lon="-3.405391">
        <ele>215.0</ele>
        <time>2014-11-15T10:36:35Z</time>
      </trkpt>
      <trkpt lat="54.41116" lon="-3.405856">
        <ele>214.0</ele>
        <time>2014-11-15T10:36:39Z</time>
      </trkpt>
      <trkpt lat="54.411221" lon="-3.406323">
        <ele>215.0</ele>
        <time>2014-11-15T10:36:43Z</time>
      </trkpt>
      <trkpt lat="54.411263" lon="-3.406796">
        <ele>215.0</ele>
        <time>2014-11-15T10:36:47Z</time>
      </trkpt>
      <trkpt lat="54.411313" lon="-3.407218">
        <ele>215.0</ele>
        <time>2014-11-15T10:36:51Z</time>
      </trkpt>
      <trkpt lat="54.411341" lon="-3.407631">
        <ele>216.0</ele>
        <time>2014-11-15T10:36:55Z</time>
      </trkpt>
      <trkpt lat="54.411466" lon="-3.408051">
        <ele>216.0</ele>
        <time>2014-11-15T10:36:59Z</time>
      </trkpt>
      <trkpt lat="54.411636" lon="-3.408451">
        <ele>215.0</ele>
        <time>2014-11-15T10:37:03Z</time>
      </trkpt>
      <trkpt lat="54.411981" lon="-3.408813">
        <ele>214.0</ele>
        <time>2014-11-15T10:37:07Z</time>
      </trkpt>
      <trkpt lat="54.41232" lon="-3.4091">
        <ele>214.0</ele>
        <time>2014-11-15T10:37:11Z</time>
      </trkpt>
      <trkpt lat="54.41259" lon="-3.409398">
        <ele>213.0</ele>
        <time>2014-11-15T10:37:15Z</time>
      </trkpt>
      <trkpt lat="54.41283" lon="-3.409741">
        <ele>212.0</ele>
        <time>2014-11-15T10:37:19Z</time>
      </trkpt>
      <trkpt lat="54.412988" lon="-3.410235">
        <ele>211.0</ele>
        <time>2014-11-15T10:37:23Z</time>
      </trkpt>
      <trkpt lat="54.413141" lon="-3.410775">
        <ele>210.0</ele>
        <time>2014-11-15T10:37:27Z</time>
      </trkpt>
      <trkpt lat="54.413286" lon="-3.411265">
        <ele>210.0</ele>
        <time>2014-11-15T10:37:31Z</time>
      </trkpt>
      <trkpt lat="54.413411" lon="-3.411725">
        <ele>211.0</ele>
        <time>2014-11-15T10:37:35Z</time>
      </trkpt>
      <trkpt lat="54.413543" lon="-3.412178">
        <ele>210.0</ele>
        <time>2014-11-15T10:37:39Z</time>
      </trkpt>
      <trkpt lat="54.413675" lon="-3.412556">
        <ele>212.0</ele>
        <time>2014-11-15T10:37:43Z</time>
      </trkpt>
      <trkpt lat="54.413763" lon="-3.413028">
        <ele>212.0</ele>
        <time>2014-11-15T10:37:47Z</time>
      </trkpt>
      <trkpt lat="54.413823" lon="-3.4135">
        <ele>211.0</ele>
        <time>2014-11-15T10:37:51Z</time>
      </trkpt>
      <trkpt lat="54.413875" lon="-3.413986">
        <ele>211.0</ele>
        <time>2014-11-15T10:37:55Z</time>
      </trkpt>
      <trkpt lat="54.41393" lon="-3.414485">
        <ele>211.0</ele>
        <time>2014-11-15T10:37:59Z</time>
      </trkpt>
      <trkpt lat="54.41398" lon="-3.41497">
        <ele>211.0</ele>
        <time>2014-11-15T10:38:03Z</time>
      </trkpt>
      <trkpt lat="54.414033" lon="-3.415446">
        <ele>211.0</ele>
        <time>2014-11-15T10:38:07Z</time>
      </trkpt>
      <trkpt lat="54.414095" lon="-3.415908">
        <ele>211.0</ele>
        <time>2014-11-15T10:38:11Z</time>
      </trkpt>
      <trkpt lat="54.41417" lon="-3.416351">
        <ele>211.0</ele>
        <time>2014-11-15T10:38:15Z</time>
      </trkpt>
      <trkpt lat="54.414238" lon="-3.416793">
        <ele>212.0</ele>
        <time>2014-11-15T10:38:19Z</time>
      </trkpt>
      <trkpt lat="54.414338" lon="-3.417241">
        <ele>212.0</ele>
        <time>2014-11-15T10:38:23Z</time>
      </trkpt>
      <trkpt lat="54.41452" lon="-3.417578">
        <ele>213.0</ele>
        <time>2014-11-15T10:38:27Z</time>
      </trkpt>
      <trkpt lat="54.414765" lon="-3.41765">
        <ele>213.0</ele>
        <time>2014-11-15T10:38:31Z</time>
      </trkpt>
      <trkpt lat="54.414958" lon="-3.417783">
        <ele>213.0</ele>
        <time>2014-11-15T10:38:35Z</time>
      </trkpt>
      <trkpt lat="54.415098" lon="-3.418101">
        <ele>214.0</ele>
        <time>2014-11-15T10:38:39Z</time>
      </trkpt>
      <trkpt lat="54.41521" lon="-3.418436">
        <ele>214.0</ele>
        <time>2014-11-15T10:38:43Z</time>
      </trkpt>
      <trkpt lat="54.415296" lon="-3.418891">
        <ele>214.0</ele>
        <time>2014-11-15T10:38:47Z</time>
      </trkpt>
      <trkpt lat="54.41543" lon="-3.419288">
        <ele>214.0</ele>
        <time>2014-11-15T10:38:51Z</time>
      </trkpt>
      <trkpt lat="54.41556" lon="-3.419528">
        <ele>215.0</ele>
        <time>2014-11-15T10:38:55Z</time>
      </trkpt>
      <trkpt lat="54.415681" lon="-3.420085">
        <ele>215.0</ele>
        <time>2014-11-15T10:38:59Z</time>
      </trkpt>
      <trkpt lat="54.415743" lon="-3.420495">
        <ele>215.0</ele>
        <time>2014-11-15T10:39:03Z</time>
      </trkpt>
      <trkpt lat="54.415806" lon="-3.420833">
        <ele>216.0</ele>
        <time>2014-11-15T10:39:07Z</time>
      </trkpt>
      <trkpt lat="54.415935" lon="-3.421146">
        <ele>216.0</ele>
        <time>2014-11-15T10:39:11Z</time>
      </trkpt>
      <trkpt lat="54.416158" lon="-3.421386">
        <ele>217.0</ele>
        <time>2014-11-15T10:39:15Z</time>
      </trkpt>
      <trkpt lat="54.416366" lon="-3.42166">
        <ele>217.0</ele>
        <time>2014-11-15T10:39:19Z</time>
      </trkpt>
      <trkpt lat="54.416458" lon="-3.421986">
        <ele>218.0</ele>
        <time>2014-11-15T10:39:23Z</time>
      </trkpt>
      <trkpt lat="54.416581" lon="-3.422343">
        <ele>218.0</ele>
        <time>2014-11-15T10:39:27Z</time>
      </trkpt>
      <trkpt lat="54.416666" lon="-3.42258">
        <ele>219.0</ele>
        <time>2014-11-15T10:39:31Z</time>
      </trkpt>
      <trkpt lat="54.416733" lon="-3.42288">
        <ele>220.0</ele>
        <time>2014-11-15T10:39:35Z</time>
      </trkpt>
      <trkpt lat="54.416758" lon="-3.423278">
        <ele>220.0</ele>
        <time>2014-11-15T10:39:39Z</time>
      </trkpt>
      <trkpt lat="54.41685" lon="-3.423761">
        <ele>219.0</ele>
        <time>2014-11-15T10:39:43Z</time>
      </trkpt>
      <trkpt lat="54.416868" lon="-3.424216">
        <ele>219.0</ele>
        <time>2014-11-15T10:39:47Z</time>
      </trkpt>
      <trkpt lat="54.416881" lon="-3.424643">
        <ele>219.0</ele>
        <time>2014-11-15T10:39:51Z</time>
      </trkpt>
      <trkpt lat="54.416943" lon="-3.425111">
        <ele>219.0</ele>
        <time>2014-11-15T10:39:55Z</time>
      </trkpt>
      <trkpt lat="54.417038" lon="-3.425633">
        <ele>219.0</ele>
        <time>2014-11-15T10:39:59Z</time>
      </trkpt>
      <trkpt lat="54.41711" lon="-3.425961">
        <ele>219.0</ele>
        <time>2014-11-15T10:40:03Z</time>
      </trkpt>
      <trkpt lat="54.417235" lon="-3.426328">
        <ele>220.0</ele>
        <time>2014-11-15T10:40:07Z</time>
      </trkpt>
      <trkpt lat="54.417306" lon="-3.426621">
        <ele>219.0</ele>
        <time>2014-11-15T10:40:11Z</time>
      </trkpt>
      <trkpt lat="54.417351" lon="-3.427136">
        <ele>220.0</ele>
        <time>2014-11-15T10:40:15Z</time>
      </trkpt>
      <trkpt lat="54.417396" lon="-3.427558">
        <ele>219.0</ele>
        <time>2014-11-15T10:40:19Z</time>
      </trkpt>
      <trkpt lat="54.417411" lon="-3.427983">
        <ele>220.0</ele>
        <time>2014-11-15T10:40:23Z</time>
      </trkpt>
      <trkpt lat="54.417383" lon="-3.428401">
        <ele>220.0</ele>
        <time>2014-11-15T10:40:27Z</time>
      </trkpt>
      <trkpt lat="54.417433" lon="-3.428803">
        <ele>220.0</ele>
        <time>2014-11-15T10:40:31Z</time>
      </trkpt>
      <trkpt lat="54.417511" lon="-3.42916">
        <ele>219.0</ele>
        <time>2014-11-15T10:40:35Z</time>
      </trkpt>
      <trkpt lat="54.417611" lon="-3.429428">
        <ele>221.0</ele>
        <time>2014-11-15T10:40:39Z</time>
      </trkpt>
      <trkpt lat="54.417695" lon="-3.429655">
        <ele>223.0</ele>
        <time>2014-11-15T10:40:43Z</time>
      </trkpt>
      <trkpt lat="54.417706" lon="-3.429903">
        <ele>224.0</ele>
        <time>2014-11-15T10:40:47Z</time>
      </trkpt>
      <trkpt lat="54.417721" lon="-3.43014">
        <ele>225.0</ele>
        <time>2014-11-15T10:40:51Z</time>
      </trkpt>
      <trkpt lat="54.417751" lon="-3.43046">
        <ele>226.0</ele>
        <time>2014-11-15T10:40:55Z</time>
      </trkpt>
      <trkpt lat="54.417676" lon="-3.43076">
        <ele>227.0</ele>
        <time>2014-11-15T10:40:59Z</time>
      </trkpt>
      <trkpt lat="54.417665" lon="-3.431056">
        <ele>228.0</ele>
        <time>2014-11-15T10:41:03Z</time>
      </trkpt>
      <trkpt lat="54.417653" lon="-3.431323">
        <ele>228.0</ele>
        <time>2014-11-15T10:41:07Z</time>
      </trkpt>
      <trkpt lat="54.41769" lon="-3.431655">
        <ele>229.0</ele>
        <time>2014-11-15T10:41:11Z</time>
      </trkpt>
      <trkpt lat="54.417825" lon="-3.431843">
        <ele>230.0</ele>
        <time>2014-11-15T10:41:15Z</time>
      </trkpt>
      <trkpt lat="54.417978" lon="-3.431998">
        <ele>230.0</ele>
        <time>2014-11-15T10:41:19Z</time>
      </trkpt>
      <trkpt lat="54.41811" lon="-3.43229">
        <ele>232.0</ele>
        <time>2014-11-15T10:41:23Z</time>
      </trkpt>
      <trkpt lat="54.418155" lon="-3.432535">
        <ele>232.0</ele>
        <time>2014-11-15T10:41:27Z</time>
      </trkpt>
      <trkpt lat="54.418228" lon="-3.432886">
        <ele>233.0</ele>
        <time>2014-11-15T10:41:31Z</time>
      </trkpt>
      <trkpt lat="54.418288" lon="-3.433168">
        <ele>232.0</ele>
        <time>2014-11-15T10:41:35Z</time>
      </trkpt>
      <trkpt lat="54.418353" lon="-3.433463">
        <ele>232.0</ele>
        <time>2014-11-15T10:41:39Z</time>
      </trkpt>
      <trkpt lat="54.418435" lon="-3.433868">
        <ele>232.0</ele>
        <time>2014-11-15T10:41:43Z</time>
      </trkpt>
      <trkpt lat="54.418491" lon="-3.434286">
        <ele>232.0</ele>
        <time>2014-11-15T10:41:47Z</time>
      </trkpt>
      <trkpt lat="54.418566" lon="-3.434671">
        <ele>231.0</ele>
        <time>2014-11-15T10:41:51Z</time>
      </trkpt>
      <trkpt lat="54.418635" lon="-3.434946">
        <ele>229.0</ele>
        <time>2014-11-15T10:41:55Z</time>
      </trkpt>
      <trkpt lat="54.41862" lon="-3.435223">
        <ele>230.0</ele>
        <time>2014-11-15T10:41:59Z</time>
      </trkpt>
      <trkpt lat="54.418688" lon="-3.435561">
        <ele>229.0</ele>
        <time>2014-11-15T10:42:03Z</time>
      </trkpt>
      <trkpt lat="54.418681" lon="-3.435923">
        <ele>229.0</ele>
        <time>2014-11-15T10:42:07Z</time>
      </trkpt>
      <trkpt lat="54.418678" lon="-3.436275">
        <ele>229.0</ele>
        <time>2014-11-15T10:42:11Z</time>
      </trkpt>
      <trkpt lat="54.418686" lon="-3.4366">
        <ele>230.0</ele>
        <time>2014-11-15T10:42:15Z</time>
      </trkpt>
      <trkpt lat="54.418686" lon="-3.436958">
        <ele>230.0</ele>
        <time>2014-11-15T10:42:19Z</time>
      </trkpt>
      <trkpt lat="54.418735" lon="-3.437343">
        <ele>229.0</ele>
        <time>2014-11-15T10:42:23Z</time>
      </trkpt>
      <trkpt lat="54.41873" lon="-3.437741">
        <ele>229.0</ele>
        <time>2014-11-15T10:42:27Z</time>
      </trkpt>
      <trkpt lat="54.418708" lon="-3.438235">
        <ele>229.0</ele>
        <time>2014-11-15T10:42:31Z</time>
      </trkpt>
      <trkpt lat="54.418673" lon="-3.438596">
        <ele>230.0</ele>
        <time>2014-11-15T10:42:35Z</time>
      </trkpt>
      <trkpt lat="54.418646" lon="-3.438851">
        <ele>231.0</ele>
        <time>2014-11-15T10:42:39Z</time>
      </trkpt>
      <trkpt lat="54.418658" lon="-3.439188">
        <ele>231.0</ele>
        <time>2014-11-15T10:42:43Z</time>
      </trkpt>
      <trkpt lat="54.41883" lon="-3.439498">
        <ele>231.0</ele>
        <time>2014-11-15T10:42:47Z</time>
      </trkpt>
      <trkpt lat="54.418923" lon="-3.439793">
        <ele>232.0</ele>
        <time>2014-11-15T10:42:51Z</time>
      </trkpt>
      <trkpt lat="54.418958" lon="-3.44008">
        <ele>232.0</ele>
        <time>2014-11-15T10:42:55Z</time>
      </trkpt>
      <trkpt lat="54.419066" lon="-3.44028">
        <ele>234.0</ele>
        <time>2014-11-15T10:42:59Z</time>
      </trkpt>
      <trkpt lat="54.419165" lon="-3.440461">
        <ele>235.0</ele>
        <time>2014-11-15T10:43:03Z</time>
      </trkpt>
      <trkpt lat="54.419243" lon="-3.440633">
        <ele>236.0</ele>
        <time>2014-11-15T10:43:07Z</time>
      </trkpt>
      <trkpt lat="54.419315" lon="-3.44084">
        <ele>238.0</ele>
        <time>2014-11-15T10:43:11Z</time>
      </trkpt>
      <trkpt lat="54.41937" lon="-3.44103">
        <ele>239.0</ele>
        <time>2014-11-15T10:43:15Z</time>
      </trkpt>
      <trkpt lat="54.419381" lon="-3.441316">
        <ele>240.0</ele>
        <time>2014-11-15T10:43:19Z</time>
      </trkpt>
      <trkpt lat="54.419426" lon="-3.441545">
        <ele>241.0</ele>
        <time>2014-11-15T10:43:23Z</time>
      </trkpt>
      <trkpt lat="54.419451" lon="-3.44178">
        <ele>243.0</ele>
        <time>2014-11-15T10:43:27Z</time>
      </trkpt>
      <trkpt lat="54.419445" lon="-3.442041">
        <ele>244.0</ele>
        <time>2014-11-15T10:43:31Z</time>
      </trkpt>
      <trkpt lat="54.419455" lon="-3.442271">
        <ele>245.0</ele>
        <time>2014-11-15T10:43:35Z</time>
      </trkpt>
      <trkpt lat="54.41949" lon="-3.442451">
        <ele>246.0</ele>
        <time>2014-11-15T10:43:39Z</time>
      </trkpt>
      <trkpt lat="54.419635" lon="-3.442666">
        <ele>247.0</ele>
        <time>2014-11-15T10:43:43Z</time>
      </trkpt>
      <trkpt lat="54.41971" lon="-3.442836">
        <ele>248.0</ele>
        <time>2014-11-15T10:43:47Z</time>
      </trkpt>
      <trkpt lat="54.419815" lon="-3.442973">
        <ele>248.0</ele>
        <time>2014-11-15T10:43:51Z</time>
      </trkpt>
      <trkpt lat="54.419913" lon="-3.443138">
        <ele>249.0</ele>
        <time>2014-11-15T10:43:55Z</time>
      </trkpt>
      <trkpt lat="54.419916" lon="-3.44333">
        <ele>249.0</ele>
        <time>2014-11-15T10:43:59Z</time>
      </trkpt>
      <trkpt lat="54.419866" lon="-3.443488">
        <ele>249.0</ele>
        <time>2014-11-15T10:44:03Z</time>
      </trkpt>
      <trkpt lat="54.419853" lon="-3.4436">
        <ele>249.0</ele>
        <time>2014-11-15T10:44:07Z</time>
      </trkpt>
      <trkpt lat="54.419856" lon="-3.443638">
        <ele>248.0</ele>
        <time>2014-11-15T10:44:11Z</time>
      </trkpt>
      <trkpt lat="54.41984" lon="-3.443648">
        <ele>248.0</ele>
        <time>2014-11-15T10:44:15Z</time>
      </trkpt>
      <trkpt lat="54.419858" lon="-3.443755">
        <ele>248.0</ele>
        <time>2014-11-15T10:44:19Z</time>
      </trkpt>
      <trkpt lat="54.420005" lon="-3.44383">
        <ele>249.0</ele>
        <time>2014-11-15T10:44:23Z</time>
      </trkpt>
      <trkpt lat="54.420118" lon="-3.443956">
        <ele>249.0</ele>
        <time>2014-11-15T10:44:27Z</time>
      </trkpt>
      <trkpt lat="54.420173" lon="-3.444093">
        <ele>251.0</ele>
        <time>2014-11-15T10:44:31Z</time>
      </trkpt>
      <trkpt lat="54.420255" lon="-3.44425">
        <ele>252.0</ele>
        <time>2014-11-15T10:44:35Z</time>
      </trkpt>
      <trkpt lat="54.420323" lon="-3.444371">
        <ele>254.0</ele>
        <time>2014-11-15T10:44:39Z</time>
      </trkpt>
      <trkpt lat="54.420423" lon="-3.444516">
        <ele>256.0</ele>
        <time>2014-11-15T10:44:43Z</time>
      </trkpt>
      <trkpt lat="54.420465" lon="-3.444661">
        <ele>257.0</ele>
        <time>2014-11-15T10:44:47Z</time>
      </trkpt>
      <trkpt lat="54.420553" lon="-3.444806">
        <ele>258.0</ele>
        <time>2014-11-15T10:44:51Z</time>
      </trkpt>
      <trkpt lat="54.420608" lon="-3.444935">
        <ele>259.0</ele>
        <time>2014-11-15T10:44:55Z</time>
      </trkpt>
      <trkpt lat="54.420686" lon="-3.445073">
        <ele>261.0</ele>
        <time>2014-11-15T10:44:59Z</time>
      </trkpt>
      <trkpt lat="54.420761" lon="-3.445225">
        <ele>262.0</ele>
        <time>2014-11-15T10:45:03Z</time>
      </trkpt>
      <trkpt lat="54.420861" lon="-3.445338">
        <ele>263.0</ele>
        <time>2014-11-15T10:45:07Z</time>
      </trkpt>
      <trkpt lat="54.420956" lon="-3.445446">
        <ele>265.0</ele>
        <time>2014-11-15T10:45:11Z</time>
      </trkpt>
      <trkpt lat="54.421103" lon="-3.445586">
        <ele>266.0</ele>
        <time>2014-11-15T10:45:15Z</time>
      </trkpt>
      <trkpt lat="54.421116" lon="-3.445698">
        <ele>267.0</ele>
        <time>2014-11-15T10:45:19Z</time>
      </trkpt>
      <trkpt lat="54.421223" lon="-3.445815">
        <ele>268.0</ele>
        <time>2014-11-15T10:45:23Z</time>
      </trkpt>
      <trkpt lat="54.421273" lon="-3.446033">
        <ele>269.0</ele>
        <time>2014-11-15T10:45:27Z</time>
      </trkpt>
      <trkpt lat="54.421373" lon="-3.446183">
        <ele>270.0</ele>
        <time>2014-11-15T10:45:31Z</time>
      </trkpt>
      <trkpt lat="54.421471" lon="-3.446286">
        <ele>271.0</ele>
        <time>2014-11-15T10:45:35Z</time>
      </trkpt>
      <trkpt lat="54.42154" lon="-3.446465">
        <ele>272.0</ele>
        <time>2014-11-15T10:45:39Z</time>
      </trkpt>
      <trkpt lat="54.42158" lon="-3.446655">
        <ele>273.0</ele>
        <time>2014-11-15T10:45:43Z</time>
      </trkpt>
      <trkpt lat="54.421676" lon="-3.446846">
        <ele>274.0</ele>
        <time>2014-11-15T10:45:47Z</time>
      </trkpt>
      <trkpt lat="54.421798" lon="-3.447073">
        <ele>275.0</ele>
        <time>2014-11-15T10:45:51Z</time>
      </trkpt>
      <trkpt lat="54.421915" lon="-3.447295">
        <ele>276.0</ele>
        <time>2014-11-15T10:45:55Z</time>
      </trkpt>
      <trkpt lat="54.422038" lon="-3.447571">
        <ele>276.0</ele>
        <time>2014-11-15T10:45:59Z</time>
      </trkpt>
      <trkpt lat="54.422171" lon="-3.44783">
        <ele>277.0</ele>
        <time>2014-11-15T10:46:03Z</time>
      </trkpt>
      <trkpt lat="54.422288" lon="-3.448035">
        <ele>277.0</ele>
        <time>2014-11-15T10:46:07Z</time>
      </trkpt>
      <trkpt lat="54.422421" lon="-3.448276">
        <ele>278.0</ele>
        <time>2014-11-15T10:46:11Z</time>
      </trkpt>
      <trkpt lat="54.422551" lon="-3.448516">
        <ele>278.0</ele>
        <time>2014-11-15T10:46:15Z</time>
      </trkpt>
      <trkpt lat="54.422735" lon="-3.448745">
        <ele>279.0</ele>
        <time>2014-11-15T10:46:19Z</time>
      </trkpt>
      <trkpt lat="54.422901" lon="-3.448946">
        <ele>280.0</ele>
        <time>2014-11-15T10:46:23Z</time>
      </trkpt>
      <trkpt lat="54.423068" lon="-3.449165">
        <ele>280.0</ele>
        <time>2014-11-15T10:46:27Z</time>
      </trkpt>
      <trkpt lat="54.423183" lon="-3.449401">
        <ele>282.0</ele>
        <time>2014-11-15T10:46:31Z</time>
      </trkpt>
      <trkpt lat="54.423316" lon="-3.44964">
        <ele>283.0</ele>
        <time>2014-11-15T10:46:35Z</time>
      </trkpt>
      <trkpt lat="54.423486" lon="-3.449883">
        <ele>283.0</ele>
        <time>2014-11-15T10:46:39Z</time>
      </trkpt>
      <trkpt lat="54.423605" lon="-3.450131">
        <ele>285.0</ele>
        <time>2014-11-15T10:46:43Z</time>
      </trkpt>
      <trkpt lat="54.423718" lon="-3.45042">
        <ele>285.0</ele>
        <time>2014-11-15T10:46:47Z</time>
      </trkpt>
      <trkpt lat="54.423875" lon="-3.45068">
        <ele>287.0</ele>
        <time>2014-11-15T10:46:51Z</time>
      </trkpt>
      <trkpt lat="54.42406" lon="-3.45097">
        <ele>286.0</ele>
        <time>2014-11-15T10:46:55Z</time>
      </trkpt>
      <trkpt lat="54.424251" lon="-3.451275">
        <ele>285.0</ele>
        <time>2014-11-15T10:46:59Z</time>
      </trkpt>
      <trkpt lat="54.424425" lon="-3.45161">
        <ele>285.0</ele>
        <time>2014-11-15T10:47:03Z</time>
      </trkpt>
      <trkpt lat="54.424623" lon="-3.451991">
        <ele>284.0</ele>
        <time>2014-11-15T10:47:07Z</time>
      </trkpt>
      <trkpt lat="54.424855" lon="-3.452456">
        <ele>283.0</ele>
        <time>2014-11-15T10:47:11Z</time>
      </trkpt>
      <trkpt lat="54.42508" lon="-3.453005">
        <ele>281.0</ele>
        <time>2014-11-15T10:47:15Z</time>
      </trkpt>
      <trkpt lat="54.425305" lon="-3.453523">
        <ele>281.0</ele>
        <time>2014-11-15T10:47:19Z</time>
      </trkpt>
      <trkpt lat="54.425546" lon="-3.454035">
        <ele>280.0</ele>
        <time>2014-11-15T10:47:23Z</time>
      </trkpt>
      <trkpt lat="54.425715" lon="-3.45456">
        <ele>279.0</ele>
        <time>2014-11-15T10:47:27Z</time>
      </trkpt>
      <trkpt lat="54.425913" lon="-3.455045">
        <ele>279.0</ele>
        <time>2014-11-15T10:47:31Z</time>
      </trkpt>
      <trkpt lat="54.426103" lon="-3.45552">
        <ele>278.0</ele>
        <time>2014-11-15T10:47:35Z</time>
      </trkpt>
      <trkpt lat="54.42637" lon="-3.45598">
        <ele>278.0</ele>
        <time>2014-11-15T10:47:39Z</time>
      </trkpt>
      <trkpt lat="54.42667" lon="-3.456396">
        <ele>278.0</ele>
        <time>2014-11-15T10:47:43Z</time>
      </trkpt>
      <trkpt lat="54.426921" lon="-3.456811">
        <ele>278.0</ele>
        <time>2014-11-15T10:47:47Z</time>
      </trkpt>
      <trkpt lat="54.427201" lon="-3.457208">
        <ele>278.0</ele>
        <time>2014-11-15T10:47:51Z</time>
      </trkpt>
      <trkpt lat="54.427533" lon="-3.457671">
        <ele>276.0</ele>
        <time>2014-11-15T10:47:55Z</time>
      </trkpt>
      <trkpt lat="54.427833" lon="-3.45824">
        <ele>273.0</ele>
        <time>2014-11-15T10:47:59Z</time>
      </trkpt>
      <trkpt lat="54.42808" lon="-3.458941">
        <ele>269.0</ele>
        <time>2014-11-15T10:48:03Z</time>
      </trkpt>
      <trkpt lat="54.428433" lon="-3.45973">
        <ele>267.0</ele>
        <time>2014-11-15T10:48:07Z</time>
      </trkpt>
      <trkpt lat="54.428725" lon="-3.460356">
        <ele>266.0</ele>
        <time>2014-11-15T10:48:11Z</time>
      </trkpt>
      <trkpt lat="54.428931" lon="-3.460861">
        <ele>264.0</ele>
        <time>2014-11-15T10:48:15Z</time>
      </trkpt>
      <trkpt lat="54.429166" lon="-3.461601">
        <ele>262.0</ele>
        <time>2014-11-15T10:48:19Z</time>
      </trkpt>
      <trkpt lat="54.42939" lon="-3.462341">
        <ele>260.0</ele>
        <time>2014-11-15T10:48:23Z</time>
      </trkpt>
      <trkpt lat="54.42963" lon="-3.463123">
        <ele>256.0</ele>
        <time>2014-11-15T10:48:27Z</time>
      </trkpt>
      <trkpt lat="54.429848" lon="-3.463783">
        <ele>255.0</ele>
        <time>2014-11-15T10:48:31Z</time>
      </trkpt>
      <trkpt lat="54.430025" lon="-3.464301">
        <ele>255.0</ele>
        <time>2014-11-15T10:48:35Z</time>
      </trkpt>
      <trkpt lat="54.430281" lon="-3.464663">
        <ele>257.0</ele>
        <time>2014-11-15T10:48:39Z</time>
      </trkpt>
      <trkpt lat="54.43063" lon="-3.464966">
        <ele>258.0</ele>
        <time>2014-11-15T10:48:43Z</time>
      </trkpt>
      <trkpt lat="54.430901" lon="-3.465231">
        <ele>259.0</ele>
        <time>2014-11-15T10:48:47Z</time>
      </trkpt>
      <trkpt lat="54.431171" lon="-3.465511">
        <ele>259.0</ele>
        <time>2014-11-15T10:48:51Z</time>
      </trkpt>
      <trkpt lat="54.43145" lon="-3.465808">
        <ele>259.0</ele>
        <time>2014-11-15T10:48:55Z</time>
      </trkpt>
      <trkpt lat="54.431715" lon="-3.466095">
        <ele>260.0</ele>
        <time>2014-11-15T10:48:59Z</time>
      </trkpt>
      <trkpt lat="54.431973" lon="-3.46634">
        <ele>261.0</ele>
        <time>2014-11-15T10:49:03Z</time>
      </trkpt>
      <trkpt lat="54.43225" lon="-3.466568">
        <ele>261.0</ele>
        <time>2014-11-15T10:49:07Z</time>
      </trkpt>
      <trkpt lat="54.432555" lon="-3.466771">
        <ele>261.0</ele>
        <time>2014-11-15T10:49:11Z</time>
      </trkpt>
      <trkpt lat="54.432853" lon="-3.466955">
        <ele>260.0</ele>
        <time>2014-11-15T10:49:15Z</time>
      </trkpt>
      <trkpt lat="54.433155" lon="-3.46715">
        <ele>260.0</ele>
        <time>2014-11-15T10:49:19Z</time>
      </trkpt>
      <trkpt lat="54.433428" lon="-3.467381">
        <ele>261.0</ele>
        <time>2014-11-15T10:49:23Z</time>
      </trkpt>
      <trkpt lat="54.433741" lon="-3.46781">
        <ele>261.0</ele>
        <time>2014-11-15T10:49:27Z</time>
      </trkpt>
      <trkpt lat="54.433936" lon="-3.468308">
        <ele>260.0</ele>
        <time>2014-11-15T10:49:31Z</time>
      </trkpt>
      <trkpt lat="54.43406" lon="-3.468703">
        <ele>259.0</ele>
        <time>2014-11-15T10:49:35Z</time>
      </trkpt>
      <trkpt lat="54.434246" lon="-3.469246">
        <ele>259.0</ele>
        <time>2014-11-15T10:49:39Z</time>
      </trkpt>
      <trkpt lat="54.434461" lon="-3.46976">
        <ele>259.0</ele>
        <time>2014-11-15T10:49:43Z</time>
      </trkpt>
      <trkpt lat="54.434738" lon="-3.47026">
        <ele>258.0</ele>
        <time>2014-11-15T10:49:47Z</time>
      </trkpt>
      <trkpt lat="54.434983" lon="-3.47079">
        <ele>256.0</ele>
        <time>2014-11-15T10:49:51Z</time>
      </trkpt>
      <trkpt lat="54.435206" lon="-3.471336">
        <ele>256.0</ele>
        <time>2014-11-15T10:49:55Z</time>
      </trkpt>
      <trkpt lat="54.435443" lon="-3.471903">
        <ele>255.0</ele>
        <time>2014-11-15T10:49:59Z</time>
      </trkpt>
      <trkpt lat="54.435745" lon="-3.472383">
        <ele>254.0</ele>
        <time>2014-11-15T10:50:03Z</time>
      </trkpt>
      <trkpt lat="54.436033" lon="-3.472973">
        <ele>252.0</ele>
        <time>2014-11-15T10:50:07Z</time>
      </trkpt>
      <trkpt lat="54.436313" lon="-3.473661">
        <ele>249.0</ele>
        <time>2014-11-15T10:50:11Z</time>
      </trkpt>
      <trkpt lat="54.436616" lon="-3.474315">
        <ele>246.0</ele>
        <time>2014-11-15T10:50:15Z</time>
      </trkpt>
      <trkpt lat="54.437001" lon="-3.474761">
        <ele>244.0</ele>
        <time>2014-11-15T10:50:19Z</time>
      </trkpt>
      <trkpt lat="54.437398" lon="-3.47512">
        <ele>243.0</ele>
        <time>2014-11-15T10:50:23Z</time>
      </trkpt>
      <trkpt lat="54.437776" lon="-3.475416">
        <ele>243.0</ele>
        <time>2014-11-15T10:50:27Z</time>
      </trkpt>
      <trkpt lat="54.438148" lon="-3.475713">
        <ele>242.0</ele>
        <time>2014-11-15T10:50:31Z</time>
      </trkpt>
      <trkpt lat="54.43843" lon="-3.476148">
        <ele>241.0</ele>
        <time>2014-11-15T10:50:35Z</time>
      </trkpt>
      <trkpt lat="54.438831" lon="-3.476718">
        <ele>240.0</ele>
        <time>2014-11-15T10:50:39Z</time>
      </trkpt>
      <trkpt lat="54.439195" lon="-3.477045">
        <ele>238.0</ele>
        <time>2014-11-15T10:50:43Z</time>
      </trkpt>
      <trkpt lat="54.439551" lon="-3.477353">
        <ele>237.0</ele>
        <time>2014-11-15T10:50:47Z</time>
      </trkpt>
      <trkpt lat="54.439871" lon="-3.477723">
        <ele>234.0</ele>
        <time>2014-11-15T10:50:51Z</time>
      </trkpt>
      <trkpt lat="54.440095" lon="-3.478105">
        <ele>232.0</ele>
        <time>2014-11-15T10:50:55Z</time>
      </trkpt>
      <trkpt lat="54.44029" lon="-3.47874">
        <ele>230.0</ele>
        <time>2014-11-15T10:50:59Z</time>
      </trkpt>
      <trkpt lat="54.440365" lon="-3.479328">
        <ele>229.0</ele>
        <time>2014-11-15T10:51:03Z</time>
      </trkpt>
      <trkpt lat="54.440541" lon="-3.47937">
        <ele>228.0</ele>
        <time>2014-11-15T10:51:07Z</time>
      </trkpt>
      <trkpt lat="54.4408" lon="-3.479361">
        <ele>228.0</ele>
        <time>2014-11-15T10:51:11Z</time>
      </trkpt>
      <trkpt lat="54.440968" lon="-3.479413">
        <ele>228.0</ele>
        <time>2014-11-15T10:51:15Z</time>
      </trkpt>
      <trkpt lat="54.441151" lon="-3.479555">
        <ele>229.0</ele>
        <time>2014-11-15T10:51:19Z</time>
      </trkpt>
      <trkpt lat="54.4414" lon="-3.479593">
        <ele>230.0</ele>
        <time>2014-11-15T10:51:23Z</time>
      </trkpt>
      <trkpt lat="54.441625" lon="-3.479573">
        <ele>230.0</ele>
        <time>2014-11-15T10:51:27Z</time>
      </trkpt>
      <trkpt lat="54.441788" lon="-3.479458">
        <ele>231.0</ele>
        <time>2014-11-15T10:51:31Z</time>
      </trkpt>
      <trkpt lat="54.441988" lon="-3.479391">
        <ele>231.0</ele>
        <time>2014-11-15T10:51:35Z</time>
      </trkpt>
      <trkpt lat="54.442238" lon="-3.479223">
        <ele>231.0</ele>
        <time>2014-11-15T10:51:39Z</time>
      </trkpt>
      <trkpt lat="54.44251" lon="-3.479101">
        <ele>231.0</ele>
        <time>2014-11-15T10:51:43Z</time>
      </trkpt>
      <trkpt lat="54.442693" lon="-3.478893">
        <ele>230.0</ele>
        <time>2014-11-15T10:51:47Z</time>
      </trkpt>
      <trkpt lat="54.442835" lon="-3.478671">
        <ele>231.0</ele>
        <time>2014-11-15T10:51:51Z</time>
      </trkpt>
      <trkpt lat="54.442933" lon="-3.478325">
        <ele>232.0</ele>
        <time>2014-11-15T10:51:55Z</time>
      </trkpt>
      <trkpt lat="54.44308" lon="-3.478075">
        <ele>233.0</ele>
        <time>2014-11-15T10:51:59Z</time>
      </trkpt>
      <trkpt lat="54.443276" lon="-3.477801">
        <ele>235.0</ele>
        <time>2014-11-15T10:52:03Z</time>
      </trkpt>
      <trkpt lat="54.4434" lon="-3.4776">
        <ele>236.0</ele>
        <time>2014-11-15T10:52:07Z</time>
      </trkpt>
      <trkpt lat="54.443486" lon="-3.477435">
        <ele>237.0</ele>
        <time>2014-11-15T10:52:11Z</time>
      </trkpt>
      <trkpt lat="54.443566" lon="-3.47724">
        <ele>238.0</ele>
        <time>2014-11-15T10:52:15Z</time>
      </trkpt>
      <trkpt lat="54.443716" lon="-3.477051">
        <ele>239.0</ele>
        <time>2014-11-15T10:52:19Z</time>
      </trkpt>
      <trkpt lat="54.443868" lon="-3.476875">
        <ele>240.0</ele>
        <time>2014-11-15T10:52:23Z</time>
      </trkpt>
      <trkpt lat="54.44404" lon="-3.476726">
        <ele>241.0</ele>
        <time>2014-11-15T10:52:27Z</time>
      </trkpt>
      <trkpt lat="54.444176" lon="-3.476561">
        <ele>242.0</ele>
        <time>2014-11-15T10:52:31Z</time>
      </trkpt>
      <trkpt lat="54.444341" lon="-3.476418">
        <ele>242.0</ele>
        <time>2014-11-15T10:52:35Z</time>
      </trkpt>
      <trkpt lat="54.444406" lon="-3.476093">
        <ele>243.0</ele>
        <time>2014-11-15T10:52:39Z</time>
      </trkpt>
      <trkpt lat="54.44448" lon="-3.47566">
        <ele>243.0</ele>
        <time>2014-11-15T10:52:43Z</time>
      </trkpt>
      <trkpt lat="54.444543" lon="-3.475376">
        <ele>242.0</ele>
        <time>2014-11-15T10:52:47Z</time>
      </trkpt>
      <trkpt lat="54.444625" lon="-3.475">
        <ele>242.0</ele>
        <time>2014-11-15T10:52:51Z</time>
      </trkpt>
      <trkpt lat="54.444581" lon="-3.474565">
        <ele>243.0</ele>
        <time>2014-11-15T10:52:55Z</time>
      </trkpt>
      <trkpt lat="54.444516" lon="-3.474151">
        <ele>243.0</ele>
        <time>2014-11-15T10:52:59Z</time>
      </trkpt>
      <trkpt lat="54.444488" lon="-3.473706">
        <ele>244.0</ele>
        <time>2014-11-15T10:53:03Z</time>
      </trkpt>
      <trkpt lat="54.444478" lon="-3.473355">
        <ele>244.0</ele>
        <time>2014-11-15T10:53:07Z</time>
      </trkpt>
      <trkpt lat="54.444453" lon="-3.472933">
        <ele>243.0</ele>
        <time>2014-11-15T10:53:11Z</time>
      </trkpt>
      <trkpt lat="54.444491" lon="-3.472513">
        <ele>243.0</ele>
        <time>2014-11-15T10:53:15Z</time>
      </trkpt>
      <trkpt lat="54.444575" lon="-3.472026">
        <ele>244.0</ele>
        <time>2014-11-15T10:53:19Z</time>
      </trkpt>
      <trkpt lat="54.444628" lon="-3.47161">
        <ele>244.0</ele>
        <time>2014-11-15T10:53:23Z</time>
      </trkpt>
      <trkpt lat="54.444628" lon="-3.471233">
        <ele>244.0</ele>
        <time>2014-11-15T10:53:27Z</time>
      </trkpt>
      <trkpt lat="54.444638" lon="-3.47094">
        <ele>245.0</ele>
        <time>2014-11-15T10:53:31Z</time>
      </trkpt>
      <trkpt lat="54.444713" lon="-3.470678">
        <ele>245.0</ele>
        <time>2014-11-15T10:53:35Z</time>
      </trkpt>
      <trkpt lat="54.444776" lon="-3.470338">
        <ele>245.0</ele>
        <time>2014-11-15T10:53:39Z</time>
      </trkpt>
      <trkpt lat="54.444866" lon="-3.470028">
        <ele>246.0</ele>
        <time>2014-11-15T10:53:43Z</time>
      </trkpt>
      <trkpt lat="54.444953" lon="-3.469736">
        <ele>247.0</ele>
        <time>2014-11-15T10:53:47Z</time>
      </trkpt>
      <trkpt lat="54.445026" lon="-3.469466">
        <ele>247.0</ele>
        <time>2014-11-15T10:53:51Z</time>
      </trkpt>
      <trkpt lat="54.445086" lon="-3.46928">
        <ele>248.0</ele>
        <time>2014-11-15T10:53:55Z</time>
      </trkpt>
      <trkpt lat="54.445148" lon="-3.469195">
        <ele>249.0</ele>
        <time>2014-11-15T10:53:59Z</time>
      </trkpt>
      <trkpt lat="54.445205" lon="-3.469251">
        <ele>250.0</ele>
        <time>2014-11-15T10:54:03Z</time>
      </trkpt>
      <trkpt lat="54.445263" lon="-3.469338">
        <ele>251.0</ele>
        <time>2014-11-15T10:54:07Z</time>
      </trkpt>
      <trkpt lat="54.445315" lon="-3.46942">
        <ele>253.0</ele>
        <time>2014-11-15T10:54:11Z</time>
      </trkpt>
      <trkpt lat="54.445351" lon="-3.46952">
        <ele>254.0</ele>
        <time>2014-11-15T10:54:15Z</time>
      </trkpt>
      <trkpt lat="54.4454" lon="-3.469616">
        <ele>255.0</ele>
        <time>2014-11-15T10:54:19Z</time>
      </trkpt>
      <trkpt lat="54.445463" lon="-3.469681">
        <ele>256.0</ele>
        <time>2014-11-15T10:54:23Z</time>
      </trkpt>
      <trkpt lat="54.445543" lon="-3.469656">
        <ele>257.0</ele>
        <time>2014-11-15T10:54:27Z</time>
      </trkpt>
      <trkpt lat="54.445606" lon="-3.469601">
        <ele>259.0</ele>
        <time>2014-11-15T10:54:31Z</time>
      </trkpt>
      <trkpt lat="54.445631" lon="-3.469538">
        <ele>260.0</ele>
        <time>2014-11-15T10:54:35Z</time>
      </trkpt>
      <trkpt lat="54.445685" lon="-3.469433">
        <ele>261.0</ele>
        <time>2014-11-15T10:54:39Z</time>
      </trkpt>
      <trkpt lat="54.44576" lon="-3.469381">
        <ele>263.0</ele>
        <time>2014-11-15T10:54:43Z</time>
      </trkpt>
      <trkpt lat="54.445835" lon="-3.469171">
        <ele>264.0</ele>
        <time>2014-11-15T10:54:47Z</time>
      </trkpt>
      <trkpt lat="54.445908" lon="-3.469128">
        <ele>265.0</ele>
        <time>2014-11-15T10:54:51Z</time>
      </trkpt>
      <trkpt lat="54.445953" lon="-3.46901">
        <ele>266.0</ele>
        <time>2014-11-15T10:54:55Z</time>
      </trkpt>
      <trkpt lat="54.446091" lon="-3.468875">
        <ele>267.0</ele>
        <time>2014-11-15T10:54:59Z</time>
      </trkpt>
      <trkpt lat="54.446148" lon="-3.468763">
        <ele>268.0</ele>
        <time>2014-11-15T10:55:03Z</time>
      </trkpt>
      <trkpt lat="54.446256" lon="-3.468713">
        <ele>269.0</ele>
        <time>2014-11-15T10:55:07Z</time>
      </trkpt>
      <trkpt lat="54.446298" lon="-3.468595">
        <ele>270.0</ele>
        <time>2014-11-15T10:55:11Z</time>
      </trkpt>
      <trkpt lat="54.446351" lon="-3.468495">
        <ele>271.0</ele>
        <time>2014-11-15T10:55:15Z</time>
      </trkpt>
      <trkpt lat="54.446401" lon="-3.468473">
        <ele>272.0</ele>
        <time>2014-11-15T10:55:19Z</time>
      </trkpt>
      <trkpt lat="54.446496" lon="-3.468403">
        <ele>274.0</ele>
        <time>2014-11-15T10:55:23Z</time>
      </trkpt>
      <trkpt lat="54.446596" lon="-3.468373">
        <ele>274.0</ele>
        <time>2014-11-15T10:55:27Z</time>
      </trkpt>
      <trkpt lat="54.446645" lon="-3.46833">
        <ele>276.0</ele>
        <time>2014-11-15T10:55:31Z</time>
      </trkpt>
      <trkpt lat="54.446726" lon="-3.468231">
        <ele>277.0</ele>
        <time>2014-11-15T10:55:35Z</time>
      </trkpt>
      <trkpt lat="54.44684" lon="-3.46822">
        <ele>278.0</ele>
        <time>2014-11-15T10:55:39Z</time>
      </trkpt>
      <trkpt lat="54.44694" lon="-3.468198">
        <ele>279.0</ele>
        <time>2014-11-15T10:55:43Z</time>
      </trkpt>
      <trkpt lat="54.447041" lon="-3.468176">
        <ele>281.0</ele>
        <time>2014-11-15T10:55:47Z</time>
      </trkpt>
      <trkpt lat="54.447138" lon="-3.46815">
        <ele>282.0</ele>
        <time>2014-11-15T10:55:51Z</time>
      </trkpt>
      <trkpt lat="54.44724" lon="-3.468131">
        <ele>283.0</ele>
        <time>2014-11-15T10:55:55Z</time>
      </trkpt>
      <trkpt lat="54.447336" lon="-3.468121">
        <ele>285.0</ele>
        <time>2014-11-15T10:55:59Z</time>
      </trkpt>
      <trkpt lat="54.447443" lon="-3.468088">
        <ele>286.0</ele>
        <time>2014-11-15T10:56:03Z</time>
      </trkpt>
      <trkpt lat="54.44758" lon="-3.468051">
        <ele>286.0</ele>
        <time>2014-11-15T10:56:07Z</time>
      </trkpt>
      <trkpt lat="54.447665" lon="-3.46804">
        <ele>287.0</ele>
        <time>2014-11-15T10:56:11Z</time>
      </trkpt>
      <trkpt lat="54.447786" lon="-3.468015">
        <ele>288.0</ele>
        <time>2014-11-15T10:56:15Z</time>
      </trkpt>
      <trkpt lat="54.447885" lon="-3.468001">
        <ele>289.0</ele>
        <time>2014-11-15T10:56:19Z</time>
      </trkpt>
      <trkpt lat="54.448056" lon="-3.467991">
        <ele>289.0</ele>
        <time>2014-11-15T10:56:23Z</time>
      </trkpt>
      <trkpt lat="54.448201" lon="-3.467966">
        <ele>289.0</ele>
        <time>2014-11-15T10:56:27Z</time>
      </trkpt>
      <trkpt lat="54.448345" lon="-3.467936">
        <ele>290.0</ele>
        <time>2014-11-15T10:56:31Z</time>
      </trkpt>
      <trkpt lat="54.448486" lon="-3.4679">
        <ele>291.0</ele>
        <time>2014-11-15T10:56:35Z</time>
      </trkpt>
      <trkpt lat="54.448628" lon="-3.467828">
        <ele>291.0</ele>
        <time>2014-11-15T10:56:39Z</time>
      </trkpt>
      <trkpt lat="54.44877" lon="-3.467711">
        <ele>292.0</ele>
        <time>2014-11-15T10:56:43Z</time>
      </trkpt>
      <trkpt lat="54.448943" lon="-3.467585">
        <ele>293.0</ele>
        <time>2014-11-15T10:56:47Z</time>
      </trkpt>
      <trkpt lat="54.449126" lon="-3.4675">
        <ele>293.0</ele>
        <time>2014-11-15T10:56:51Z</time>
      </trkpt>
      <trkpt lat="54.449275" lon="-3.467395">
        <ele>294.0</ele>
        <time>2014-11-15T10:56:55Z</time>
      </trkpt>
      <trkpt lat="54.44947" lon="-3.467296">
        <ele>294.0</ele>
        <time>2014-11-15T10:56:59Z</time>
      </trkpt>
      <trkpt lat="54.449643" lon="-3.467203">
        <ele>295.0</ele>
        <time>2014-11-15T10:57:03Z</time>
      </trkpt>
      <trkpt lat="54.449808" lon="-3.467058">
        <ele>295.0</ele>
        <time>2014-11-15T10:57:07Z</time>
      </trkpt>
      <trkpt lat="54.449955" lon="-3.46685">
        <ele>296.0</ele>
        <time>2014-11-15T10:57:11Z</time>
      </trkpt>
      <trkpt lat="54.450098" lon="-3.466638">
        <ele>296.0</ele>
        <time>2014-11-15T10:57:15Z</time>
      </trkpt>
      <trkpt lat="54.450241" lon="-3.466375">
        <ele>297.0</ele>
        <time>2014-11-15T10:57:19Z</time>
      </trkpt>
      <trkpt lat="54.450391" lon="-3.466113">
        <ele>297.0</ele>
        <time>2014-11-15T10:57:23Z</time>
      </trkpt>
      <trkpt lat="54.45053" lon="-3.465876">
        <ele>298.0</ele>
        <time>2014-11-15T10:57:27Z</time>
      </trkpt>
      <trkpt lat="54.450698" lon="-3.465631">
        <ele>298.0</ele>
        <time>2014-11-15T10:57:31Z</time>
      </trkpt>
      <trkpt lat="54.450903" lon="-3.46537">
        <ele>298.0</ele>
        <time>2014-11-15T10:57:35Z</time>
      </trkpt>
      <trkpt lat="54.451053" lon="-3.465211">
        <ele>298.0</ele>
        <time>2014-11-15T10:57:39Z</time>
      </trkpt>
      <trkpt lat="54.45129" lon="-3.465196">
        <ele>297.0</ele>
        <time>2014-11-15T10:57:43Z</time>
      </trkpt>
      <trkpt lat="54.45152" lon="-3.465346">
        <ele>297.0</ele>
        <time>2014-11-15T10:57:47Z</time>
      </trkpt>
      <trkpt lat="54.451663" lon="-3.465498">
        <ele>298.0</ele>
        <time>2014-11-15T10:57:51Z</time>
      </trkpt>
      <trkpt lat="54.451826" lon="-3.465585">
        <ele>300.0</ele>
        <time>2014-11-15T10:57:55Z</time>
      </trkpt>
      <trkpt lat="54.451995" lon="-3.46562">
        <ele>301.0</ele>
        <time>2014-11-15T10:57:59Z</time>
      </trkpt>
      <trkpt lat="54.452181" lon="-3.465683">
        <ele>302.0</ele>
        <time>2014-11-15T10:58:03Z</time>
      </trkpt>
      <trkpt lat="54.452351" lon="-3.465728">
        <ele>303.0</ele>
        <time>2014-11-15T10:58:07Z</time>
      </trkpt>
      <trkpt lat="54.452568" lon="-3.465816">
        <ele>303.0</ele>
        <time>2014-11-15T10:58:11Z</time>
      </trkpt>
      <trkpt lat="54.45277" lon="-3.4659">
        <ele>303.0</ele>
        <time>2014-11-15T10:58:15Z</time>
      </trkpt>
      <trkpt lat="54.452945" lon="-3.46601">
        <ele>304.0</ele>
        <time>2014-11-15T10:58:19Z</time>
      </trkpt>
      <trkpt lat="54.453148" lon="-3.466093">
        <ele>305.0</ele>
        <time>2014-11-15T10:58:23Z</time>
      </trkpt>
      <trkpt lat="54.453321" lon="-3.466216">
        <ele>305.0</ele>
        <time>2014-11-15T10:58:27Z</time>
      </trkpt>
      <trkpt lat="54.453523" lon="-3.46635">
        <ele>306.0</ele>
        <time>2014-11-15T10:58:31Z</time>
      </trkpt>
      <trkpt lat="54.453715" lon="-3.466501">
        <ele>306.0</ele>
        <time>2014-11-15T10:58:35Z</time>
      </trkpt>
      <trkpt lat="54.45391" lon="-3.4667">
        <ele>307.0</ele>
        <time>2014-11-15T10:58:39Z</time>
      </trkpt>
      <trkpt lat="54.454143" lon="-3.466818">
        <ele>308.0</ele>
        <time>2014-11-15T10:58:43Z</time>
      </trkpt>
      <trkpt lat="54.454476" lon="-3.466933">
        <ele>307.0</ele>
        <time>2014-11-15T10:58:47Z</time>
      </trkpt>
      <trkpt lat="54.45484" lon="-3.467096">
        <ele>304.0</ele>
        <time>2014-11-15T10:58:51Z</time>
      </trkpt>
      <trkpt lat="54.455155" lon="-3.467255">
        <ele>301.0</ele>
        <time>2014-11-15T10:58:55Z</time>
      </trkpt>
      <trkpt lat="54.455596" lon="-3.467345">
        <ele>297.0</ele>
        <time>2014-11-15T10:58:59Z</time>
      </trkpt>
      <trkpt lat="54.45599" lon="-3.467361">
        <ele>296.0</ele>
        <time>2014-11-15T10:59:03Z</time>
      </trkpt>
      <trkpt lat="54.456343" lon="-3.467331">
        <ele>296.0</ele>
        <time>2014-11-15T10:59:07Z</time>
      </trkpt>
      <trkpt lat="54.45658" lon="-3.467188">
        <ele>297.0</ele>
        <time>2014-11-15T10:59:11Z</time>
      </trkpt>
      <trkpt lat="54.456806" lon="-3.46698">
        <ele>298.0</ele>
        <time>2014-11-15T10:59:15Z</time>
      </trkpt>
      <trkpt lat="54.45703" lon="-3.466815">
        <ele>299.0</ele>
        <time>2014-11-15T10:59:19Z</time>
      </trkpt>
      <trkpt lat="54.457238" lon="-3.466616">
        <ele>300.0</ele>
        <time>2014-11-15T10:59:23Z</time>
      </trkpt>
      <trkpt lat="54.457401" lon="-3.4664">
        <ele>301.0</ele>
        <time>2014-11-15T10:59:27Z</time>
      </trkpt>
      <trkpt lat="54.457548" lon="-3.466241">
        <ele>302.0</ele>
        <time>2014-11-15T10:59:31Z</time>
      </trkpt>
      <trkpt lat="54.45772" lon="-3.466103">
        <ele>303.0</ele>
        <time>2014-11-15T10:59:35Z</time>
      </trkpt>
      <trkpt lat="54.457923" lon="-3.466026">
        <ele>303.0</ele>
        <time>2014-11-15T10:59:39Z</time>
      </trkpt>
      <trkpt lat="54.458085" lon="-3.465905">
        <ele>304.0</ele>
        <time>2014-11-15T10:59:43Z</time>
      </trkpt>
      <trkpt lat="54.458213" lon="-3.465725">
        <ele>305.0</ele>
        <time>2014-11-15T10:59:47Z</time>
      </trkpt>
      <trkpt lat="54.458316" lon="-3.465535">
        <ele>306.0</ele>
        <time>2014-11-15T10:59:51Z</time>
      </trkpt>
      <trkpt lat="54.458373" lon="-3.465343">
        <ele>308.0</ele>
        <time>2014-11-15T10:59:55Z</time>
      </trkpt>
      <trkpt lat="54.45847" lon="-3.46517">
        <ele>309.0</ele>
        <time>2014-11-15T10:59:59Z</time>
      </trkpt>
      <trkpt lat="54.45855" lon="-3.465065">
        <ele>310.0</ele>
        <time>2014-11-15T11:00:03Z</time>
      </trkpt>
      <trkpt lat="54.45867" lon="-3.464991">
        <ele>312.0</ele>
        <time>2014-11-15T11:00:07Z</time>
      </trkpt>
      <trkpt lat="54.458776" lon="-3.464981">
        <ele>314.0</ele>
        <time>2014-11-15T11:00:11Z</time>
      </trkpt>
      <trkpt lat="54.458855" lon="-3.464976">
        <ele>315.0</ele>
        <time>2014-11-15T11:00:15Z</time>
      </trkpt>
      <trkpt lat="54.45896" lon="-3.464968">
        <ele>316.0</ele>
        <time>2014-11-15T11:00:19Z</time>
      </trkpt>
      <trkpt lat="54.45906" lon="-3.464956">
        <ele>317.0</ele>
        <time>2014-11-15T11:00:23Z</time>
      </trkpt>
      <trkpt lat="54.459158" lon="-3.464946">
        <ele>318.0</ele>
        <time>2014-11-15T11:00:27Z</time>
      </trkpt>
      <trkpt lat="54.459258" lon="-3.464945">
        <ele>320.0</ele>
        <time>2014-11-15T11:00:31Z</time>
      </trkpt>
      <trkpt lat="54.459373" lon="-3.464943">
        <ele>321.0</ele>
        <time>2014-11-15T11:00:35Z</time>
      </trkpt>
      <trkpt lat="54.459445" lon="-3.464928">
        <ele>322.0</ele>
        <time>2014-11-15T11:00:39Z</time>
      </trkpt>
      <trkpt lat="54.459561" lon="-3.46495">
        <ele>323.0</ele>
        <time>2014-11-15T11:00:43Z</time>
      </trkpt>
      <trkpt lat="54.459665" lon="-3.464961">
        <ele>324.0</ele>
        <time>2014-11-15T11:00:47Z</time>
      </trkpt>
      <trkpt lat="54.459756" lon="-3.464918">
        <ele>325.0</ele>
        <time>2014-11-15T11:00:51Z</time>
      </trkpt>
      <trkpt lat="54.459838" lon="-3.464896">
        <ele>326.0</ele>
        <time>2014-11-15T11:00:55Z</time>
      </trkpt>
      <trkpt lat="54.459933" lon="-3.464883">
        <ele>327.0</ele>
        <time>2014-11-15T11:00:59Z</time>
      </trkpt>
      <trkpt lat="54.460033" lon="-3.46484">
        <ele>329.0</ele>
        <time>2014-11-15T11:01:03Z</time>
      </trkpt>
      <trkpt lat="54.460121" lon="-3.464876">
        <ele>330.0</ele>
        <time>2014-11-15T11:01:07Z</time>
      </trkpt>
      <trkpt lat="54.460218" lon="-3.464875">
        <ele>331.0</ele>
        <time>2014-11-15T11:01:11Z</time>
      </trkpt>
      <trkpt lat="54.460286" lon="-3.464831">
        <ele>331.0</ele>
        <time>2014-11-15T11:01:15Z</time>
      </trkpt>
      <trkpt lat="54.460415" lon="-3.464795">
        <ele>333.0</ele>
        <time>2014-11-15T11:01:19Z</time>
      </trkpt>
      <trkpt lat="54.460516" lon="-3.46476">
        <ele>334.0</ele>
        <time>2014-11-15T11:01:23Z</time>
      </trkpt>
      <trkpt lat="54.460598" lon="-3.464686">
        <ele>335.0</ele>
        <time>2014-11-15T11:01:27Z</time>
      </trkpt>
      <trkpt lat="54.46069" lon="-3.464583">
        <ele>335.0</ele>
        <time>2014-11-15T11:01:31Z</time>
      </trkpt>
      <trkpt lat="54.460778" lon="-3.464516">
        <ele>336.0</ele>
        <time>2014-11-15T11:01:35Z</time>
      </trkpt>
      <trkpt lat="54.460886" lon="-3.464426">
        <ele>338.0</ele>
        <time>2014-11-15T11:01:39Z</time>
      </trkpt>
      <trkpt lat="54.460955" lon="-3.464351">
        <ele>339.0</ele>
        <time>2014-11-15T11:01:43Z</time>
      </trkpt>
      <trkpt lat="54.461015" lon="-3.464291">
        <ele>339.0</ele>
        <time>2014-11-15T11:01:47Z</time>
      </trkpt>
      <trkpt lat="54.46114" lon="-3.464198">
        <ele>340.0</ele>
        <time>2014-11-15T11:01:51Z</time>
      </trkpt>
      <trkpt lat="54.461205" lon="-3.464161">
        <ele>342.0</ele>
        <time>2014-11-15T11:01:55Z</time>
      </trkpt>
      <trkpt lat="54.461271" lon="-3.46402">
        <ele>343.0</ele>
        <time>2014-11-15T11:01:59Z</time>
      </trkpt>
      <trkpt lat="54.46134" lon="-3.463881">
        <ele>344.0</ele>
        <time>2014-11-15T11:02:03Z</time>
      </trkpt>
      <trkpt lat="54.461401" lon="-3.463758">
        <ele>345.0</ele>
        <time>2014-11-15T11:02:07Z</time>
      </trkpt>
      <trkpt lat="54.46144" lon="-3.463646">
        <ele>346.0</ele>
        <time>2014-11-15T11:02:11Z</time>
      </trkpt>
      <trkpt lat="54.461521" lon="-3.463526">
        <ele>347.0</ele>
        <time>2014-11-15T11:02:15Z</time>
      </trkpt>
      <trkpt lat="54.461596" lon="-3.463438">
        <ele>348.0</ele>
        <time>2014-11-15T11:02:19Z</time>
      </trkpt>
      <trkpt lat="54.461685" lon="-3.463361">
        <ele>349.0</ele>
        <time>2014-11-15T11:02:23Z</time>
      </trkpt>
      <trkpt lat="54.461763" lon="-3.463251">
        <ele>350.0</ele>
        <time>2014-11-15T11:02:27Z</time>
      </trkpt>
      <trkpt lat="54.46184" lon="-3.463143">
        <ele>351.0</ele>
        <time>2014-11-15T11:02:31Z</time>
      </trkpt>
      <trkpt lat="54.461911" lon="-3.463055">
        <ele>352.0</ele>
        <time>2014-11-15T11:02:35Z</time>
      </trkpt>
      <trkpt lat="54.46201" lon="-3.46294">
        <ele>353.0</ele>
        <time>2014-11-15T11:02:39Z</time>
      </trkpt>
      <trkpt lat="54.462093" lon="-3.462856">
        <ele>354.0</ele>
        <time>2014-11-15T11:02:43Z</time>
      </trkpt>
      <trkpt lat="54.462191" lon="-3.462785">
        <ele>355.0</ele>
        <time>2014-11-15T11:02:47Z</time>
      </trkpt>
      <trkpt lat="54.462261" lon="-3.462723">
        <ele>356.0</ele>
        <time>2014-11-15T11:02:51Z</time>
      </trkpt>
      <trkpt lat="54.462346" lon="-3.46264">
        <ele>358.0</ele>
        <time>2014-11-15T11:02:55Z</time>
      </trkpt>
      <trkpt lat="54.462433" lon="-3.462576">
        <ele>358.0</ele>
        <time>2014-11-15T11:02:59Z</time>
      </trkpt>
      <trkpt lat="54.46251" lon="-3.462503">
        <ele>359.0</ele>
        <time>2014-11-15T11:03:03Z</time>
      </trkpt>
      <trkpt lat="54.462591" lon="-3.462425">
        <ele>361.0</ele>
        <time>2014-11-15T11:03:07Z</time>
      </trkpt>
      <trkpt lat="54.46268" lon="-3.462365">
        <ele>362.0</ele>
        <time>2014-11-15T11:03:11Z</time>
      </trkpt>
      <trkpt lat="54.462768" lon="-3.462295">
        <ele>363.0</ele>
        <time>2014-11-15T11:03:15Z</time>
      </trkpt>
      <trkpt lat="54.462858" lon="-3.46224">
        <ele>364.0</ele>
        <time>2014-11-15T11:03:19Z</time>
      </trkpt>
      <trkpt lat="54.462951" lon="-3.462216">
        <ele>364.0</ele>
        <time>2014-11-15T11:03:23Z</time>
      </trkpt>
      <trkpt lat="54.463028" lon="-3.462236">
        <ele>364.0</ele>
        <time>2014-11-15T11:03:27Z</time>
      </trkpt>
      <trkpt lat="54.463121" lon="-3.46218">
        <ele>365.0</ele>
        <time>2014-11-15T11:03:31Z</time>
      </trkpt>
      <trkpt lat="54.463223" lon="-3.462098">
        <ele>366.0</ele>
        <time>2014-11-15T11:03:35Z</time>
      </trkpt>
      <trkpt lat="54.463346" lon="-3.461993">
        <ele>368.0</ele>
        <time>2014-11-15T11:03:39Z</time>
      </trkpt>
      <trkpt lat="54.463386" lon="-3.46196">
        <ele>369.0</ele>
        <time>2014-11-15T11:03:43Z</time>
      </trkpt>
      <trkpt lat="54.463471" lon="-3.461885">
        <ele>370.0</ele>
        <time>2014-11-15T11:03:47Z</time>
      </trkpt>
      <trkpt lat="54.463625" lon="-3.461755">
        <ele>370.0</ele>
        <time>2014-11-15T11:03:51Z</time>
      </trkpt>
      <trkpt lat="54.463735" lon="-3.461676">
        <ele>371.0</ele>
        <time>2014-11-15T11:03:55Z</time>
      </trkpt>
      <trkpt lat="54.46385" lon="-3.461581">
        <ele>372.0</ele>
        <time>2014-11-15T11:03:59Z</time>
      </trkpt>
      <trkpt lat="54.463965" lon="-3.46159">
        <ele>373.0</ele>
        <time>2014-11-15T11:04:03Z</time>
      </trkpt>
      <trkpt lat="54.464071" lon="-3.461568">
        <ele>374.0</ele>
        <time>2014-11-15T11:04:07Z</time>
      </trkpt>
      <trkpt lat="54.464198" lon="-3.461498">
        <ele>374.0</ele>
        <time>2014-11-15T11:04:11Z</time>
      </trkpt>
      <trkpt lat="54.46433" lon="-3.461551">
        <ele>375.0</ele>
        <time>2014-11-15T11:04:15Z</time>
      </trkpt>
      <trkpt lat="54.464478" lon="-3.461618">
        <ele>375.0</ele>
        <time>2014-11-15T11:04:19Z</time>
      </trkpt>
      <trkpt lat="54.464608" lon="-3.461731">
        <ele>376.0</ele>
        <time>2014-11-15T11:04:23Z</time>
      </trkpt>
      <trkpt lat="54.464753" lon="-3.461793">
        <ele>376.0</ele>
        <time>2014-11-15T11:04:27Z</time>
      </trkpt>
      <trkpt lat="54.464908" lon="-3.461843">
        <ele>376.0</ele>
        <time>2014-11-15T11:04:31Z</time>
      </trkpt>
      <trkpt lat="54.465018" lon="-3.461946">
        <ele>377.0</ele>
        <time>2014-11-15T11:04:35Z</time>
      </trkpt>
      <trkpt lat="54.465115" lon="-3.462018">
        <ele>377.0</ele>
        <time>2014-11-15T11:04:39Z</time>
      </trkpt>
      <trkpt lat="54.465233" lon="-3.462068">
        <ele>377.0</ele>
        <time>2014-11-15T11:04:43Z</time>
      </trkpt>
      <trkpt lat="54.465373" lon="-3.462136">
        <ele>378.0</ele>
        <time>2014-11-15T11:04:47Z</time>
      </trkpt>
      <trkpt lat="54.465525" lon="-3.462218">
        <ele>378.0</ele>
        <time>2014-11-15T11:04:51Z</time>
      </trkpt>
      <trkpt lat="54.465693" lon="-3.462373">
        <ele>378.0</ele>
        <time>2014-11-15T11:04:55Z</time>
      </trkpt>
      <trkpt lat="54.465855" lon="-3.462516">
        <ele>378.0</ele>
        <time>2014-11-15T11:04:59Z</time>
      </trkpt>
      <trkpt lat="54.466028" lon="-3.462615">
        <ele>379.0</ele>
        <time>2014-11-15T11:05:03Z</time>
      </trkpt>
      <trkpt lat="54.466196" lon="-3.462745">
        <ele>378.0</ele>
        <time>2014-11-15T11:05:07Z</time>
      </trkpt>
      <trkpt lat="54.466371" lon="-3.46289">
        <ele>378.0</ele>
        <time>2014-11-15T11:05:11Z</time>
      </trkpt>
      <trkpt lat="54.466581" lon="-3.46299">
        <ele>377.0</ele>
        <time>2014-11-15T11:05:15Z</time>
      </trkpt>
      <trkpt lat="54.46688" lon="-3.463058">
        <ele>377.0</ele>
        <time>2014-11-15T11:05:19Z</time>
      </trkpt>
      <trkpt lat="54.467073" lon="-3.463078">
        <ele>376.0</ele>
        <time>2014-11-15T11:05:23Z</time>
      </trkpt>
      <trkpt lat="54.467373" lon="-3.463026">
        <ele>375.0</ele>
        <time>2014-11-15T11:05:27Z</time>
      </trkpt>
      <trkpt lat="54.467658" lon="-3.462951">
        <ele>375.0</ele>
        <time>2014-11-15T11:05:31Z</time>
      </trkpt>
      <trkpt lat="54.467926" lon="-3.462855">
        <ele>375.0</ele>
        <time>2014-11-15T11:05:35Z</time>
      </trkpt>
      <trkpt lat="54.46818" lon="-3.462695">
        <ele>375.0</ele>
        <time>2014-11-15T11:05:39Z</time>
      </trkpt>
      <trkpt lat="54.468425" lon="-3.462558">
        <ele>375.0</ele>
        <time>2014-11-15T11:05:43Z</time>
      </trkpt>
      <trkpt lat="54.46865" lon="-3.46239">
        <ele>375.0</ele>
        <time>2014-11-15T11:05:47Z</time>
      </trkpt>
      <trkpt lat="54.468838" lon="-3.462203">
        <ele>377.0</ele>
        <time>2014-11-15T11:05:51Z</time>
      </trkpt>
      <trkpt lat="54.469021" lon="-3.462071">
        <ele>378.0</ele>
        <time>2014-11-15T11:05:55Z</time>
      </trkpt>
      <trkpt lat="54.469181" lon="-3.461965">
        <ele>379.0</ele>
        <time>2014-11-15T11:05:59Z</time>
      </trkpt>
      <trkpt lat="54.469381" lon="-3.461928">
        <ele>379.0</ele>
        <time>2014-11-15T11:06:03Z</time>
      </trkpt>
      <trkpt lat="54.469556" lon="-3.461915">
        <ele>380.0</ele>
        <time>2014-11-15T11:06:07Z</time>
      </trkpt>
      <trkpt lat="54.46976" lon="-3.461933">
        <ele>380.0</ele>
        <time>2014-11-15T11:06:11Z</time>
      </trkpt>
      <trkpt lat="54.469955" lon="-3.461981">
        <ele>381.0</ele>
        <time>2014-11-15T11:06:15Z</time>
      </trkpt>
      <trkpt lat="54.470113" lon="-3.462005">
        <ele>382.0</ele>
        <time>2014-11-15T11:06:19Z</time>
      </trkpt>
      <trkpt lat="54.47026" lon="-3.462043">
        <ele>385.0</ele>
        <time>2014-11-15T11:06:23Z</time>
      </trkpt>
      <trkpt lat="54.470408" lon="-3.462068">
        <ele>386.0</ele>
        <time>2014-11-15T11:06:27Z</time>
      </trkpt>
      <trkpt lat="54.470515" lon="-3.462136">
        <ele>388.0</ele>
        <time>2014-11-15T11:06:31Z</time>
      </trkpt>
      <trkpt lat="54.470663" lon="-3.462183">
        <ele>389.0</ele>
        <time>2014-11-15T11:06:35Z</time>
      </trkpt>
      <trkpt lat="54.470808" lon="-3.462226">
        <ele>390.0</ele>
        <time>2014-11-15T11:06:39Z</time>
      </trkpt>
      <trkpt lat="54.470911" lon="-3.462283">
        <ele>391.0</ele>
        <time>2014-11-15T11:06:43Z</time>
      </trkpt>
      <trkpt lat="54.471041" lon="-3.462331">
        <ele>392.0</ele>
        <time>2014-11-15T11:06:47Z</time>
      </trkpt>
      <trkpt lat="54.471146" lon="-3.462396">
        <ele>393.0</ele>
        <time>2014-11-15T11:06:51Z</time>
      </trkpt>
      <trkpt lat="54.471291" lon="-3.462415">
        <ele>394.0</ele>
        <time>2014-11-15T11:06:55Z</time>
      </trkpt>
      <trkpt lat="54.47149" lon="-3.462455">
        <ele>394.0</ele>
        <time>2014-11-15T11:06:59Z</time>
      </trkpt>
      <trkpt lat="54.471665" lon="-3.462486">
        <ele>394.0</ele>
        <time>2014-11-15T11:07:03Z</time>
      </trkpt>
      <trkpt lat="54.471856" lon="-3.462491">
        <ele>394.0</ele>
        <time>2014-11-15T11:07:07Z</time>
      </trkpt>
      <trkpt lat="54.472046" lon="-3.462481">
        <ele>395.0</ele>
        <time>2014-11-15T11:07:11Z</time>
      </trkpt>
      <trkpt lat="54.472196" lon="-3.462441">
        <ele>395.0</ele>
        <time>2014-11-15T11:07:15Z</time>
      </trkpt>
      <trkpt lat="54.472376" lon="-3.46244">
        <ele>396.0</ele>
        <time>2014-11-15T11:07:19Z</time>
      </trkpt>
      <trkpt lat="54.472561" lon="-3.462438">
        <ele>397.0</ele>
        <time>2014-11-15T11:07:23Z</time>
      </trkpt>
      <trkpt lat="54.472751" lon="-3.462435">
        <ele>398.0</ele>
        <time>2014-11-15T11:07:27Z</time>
      </trkpt>
      <trkpt lat="54.472968" lon="-3.462405">
        <ele>399.0</ele>
        <time>2014-11-15T11:07:31Z</time>
      </trkpt>
      <trkpt lat="54.473161" lon="-3.462431">
        <ele>399.0</ele>
        <time>2014-11-15T11:07:35Z</time>
      </trkpt>
      <trkpt lat="54.473386" lon="-3.462466">
        <ele>399.0</ele>
        <time>2014-11-15T11:07:39Z</time>
      </trkpt>
      <trkpt lat="54.473586" lon="-3.462478">
        <ele>400.0</ele>
        <time>2014-11-15T11:07:43Z</time>
      </trkpt>
      <trkpt lat="54.473781" lon="-3.462413">
        <ele>401.0</ele>
        <time>2014-11-15T11:07:47Z</time>
      </trkpt>
      <trkpt lat="54.473961" lon="-3.462281">
        <ele>401.0</ele>
        <time>2014-11-15T11:07:51Z</time>
      </trkpt>
      <trkpt lat="54.474143" lon="-3.462111">
        <ele>402.0</ele>
        <time>2014-11-15T11:07:55Z</time>
      </trkpt>
      <trkpt lat="54.474371" lon="-3.462048">
        <ele>403.0</ele>
        <time>2014-11-15T11:07:59Z</time>
      </trkpt>
      <trkpt lat="54.474575" lon="-3.46194">
        <ele>403.0</ele>
        <time>2014-11-15T11:08:03Z</time>
      </trkpt>
      <trkpt lat="54.474766" lon="-3.46173">
        <ele>403.0</ele>
        <time>2014-11-15T11:08:07Z</time>
      </trkpt>
      <trkpt lat="54.474985" lon="-3.461535">
        <ele>403.0</ele>
        <time>2014-11-15T11:08:11Z</time>
      </trkpt>
      <trkpt lat="54.475203" lon="-3.461348">
        <ele>402.0</ele>
        <time>2014-11-15T11:08:15Z</time>
      </trkpt>
      <trkpt lat="54.47544" lon="-3.461063">
        <ele>401.0</ele>
        <time>2014-11-15T11:08:19Z</time>
      </trkpt>
      <trkpt lat="54.475711" lon="-3.460798">
        <ele>400.0</ele>
        <time>2014-11-15T11:08:23Z</time>
      </trkpt>
      <trkpt lat="54.476048" lon="-3.460556">
        <ele>399.0</ele>
        <time>2014-11-15T11:08:27Z</time>
      </trkpt>
      <trkpt lat="54.476403" lon="-3.460308">
        <ele>396.0</ele>
        <time>2014-11-15T11:08:31Z</time>
      </trkpt>
      <trkpt lat="54.476753" lon="-3.459936">
        <ele>394.0</ele>
        <time>2014-11-15T11:08:35Z</time>
      </trkpt>
      <trkpt lat="54.477055" lon="-3.459583">
        <ele>392.0</ele>
        <time>2014-11-15T11:08:39Z</time>
      </trkpt>
      <trkpt lat="54.477406" lon="-3.459245">
        <ele>389.0</ele>
        <time>2014-11-15T11:08:43Z</time>
      </trkpt>
      <trkpt lat="54.477683" lon="-3.458915">
        <ele>388.0</ele>
        <time>2014-11-15T11:08:47Z</time>
      </trkpt>
      <trkpt lat="54.477888" lon="-3.45876">
        <ele>390.0</ele>
        <time>2014-11-15T11:08:51Z</time>
      </trkpt>
      <trkpt lat="54.47803" lon="-3.45862">
        <ele>393.0</ele>
        <time>2014-11-15T11:08:55Z</time>
      </trkpt>
      <trkpt lat="54.478176" lon="-3.458415">
        <ele>394.0</ele>
        <time>2014-11-15T11:08:59Z</time>
      </trkpt>
      <trkpt lat="54.478336" lon="-3.458296">
        <ele>395.0</ele>
        <time>2014-11-15T11:09:03Z</time>
      </trkpt>
      <trkpt lat="54.47847" lon="-3.458188">
        <ele>397.0</ele>
        <time>2014-11-15T11:09:07Z</time>
      </trkpt>
      <trkpt lat="54.478613" lon="-3.458121">
        <ele>399.0</ele>
        <time>2014-11-15T11:09:11Z</time>
      </trkpt>
      <trkpt lat="54.478825" lon="-3.458043">
        <ele>400.0</ele>
        <time>2014-11-15T11:09:15Z</time>
      </trkpt>
      <trkpt lat="54.479026" lon="-3.45806">
        <ele>400.0</ele>
        <time>2014-11-15T11:09:19Z</time>
      </trkpt>
      <trkpt lat="54.479293" lon="-3.45805">
        <ele>399.0</ele>
        <time>2014-11-15T11:09:23Z</time>
      </trkpt>
      <trkpt lat="54.479496" lon="-3.457976">
        <ele>399.0</ele>
        <time>2014-11-15T11:09:27Z</time>
      </trkpt>
      <trkpt lat="54.479743" lon="-3.457918">
        <ele>398.0</ele>
        <time>2014-11-15T11:09:31Z</time>
      </trkpt>
      <trkpt lat="54.480006" lon="-3.457968">
        <ele>399.0</ele>
        <time>2014-11-15T11:09:35Z</time>
      </trkpt>
      <trkpt lat="54.480195" lon="-3.458031">
        <ele>400.0</ele>
        <time>2014-11-15T11:09:39Z</time>
      </trkpt>
      <trkpt lat="54.48037" lon="-3.458081">
        <ele>402.0</ele>
        <time>2014-11-15T11:09:43Z</time>
      </trkpt>
      <trkpt lat="54.480525" lon="-3.458095">
        <ele>402.0</ele>
        <time>2014-11-15T11:09:47Z</time>
      </trkpt>
      <trkpt lat="54.480663" lon="-3.458076">
        <ele>403.0</ele>
        <time>2014-11-15T11:09:51Z</time>
      </trkpt>
      <trkpt lat="54.480796" lon="-3.457995">
        <ele>404.0</ele>
        <time>2014-11-15T11:09:55Z</time>
      </trkpt>
      <trkpt lat="54.480901" lon="-3.457923">
        <ele>406.0</ele>
        <time>2014-11-15T11:09:59Z</time>
      </trkpt>
      <trkpt lat="54.48101" lon="-3.457838">
        <ele>407.0</ele>
        <time>2014-11-15T11:10:03Z</time>
      </trkpt>
      <trkpt lat="54.481148" lon="-3.45777">
        <ele>408.0</ele>
        <time>2014-11-15T11:10:07Z</time>
      </trkpt>
      <trkpt lat="54.48126" lon="-3.457713">
        <ele>409.0</ele>
        <time>2014-11-15T11:10:11Z</time>
      </trkpt>
      <trkpt lat="54.481406" lon="-3.457641">
        <ele>410.0</ele>
        <time>2014-11-15T11:10:15Z</time>
      </trkpt>
      <trkpt lat="54.481521" lon="-3.457631">
        <ele>412.0</ele>
        <time>2014-11-15T11:10:19Z</time>
      </trkpt>
      <trkpt lat="54.481653" lon="-3.45759">
        <ele>412.0</ele>
        <time>2014-11-15T11:10:23Z</time>
      </trkpt>
      <trkpt lat="54.481786" lon="-3.457523">
        <ele>413.0</ele>
        <time>2014-11-15T11:10:27Z</time>
      </trkpt>
      <trkpt lat="54.481885" lon="-3.457481">
        <ele>414.0</ele>
        <time>2014-11-15T11:10:31Z</time>
      </trkpt>
      <trkpt lat="54.482011" lon="-3.457428">
        <ele>416.0</ele>
        <time>2014-11-15T11:10:35Z</time>
      </trkpt>
      <trkpt lat="54.482156" lon="-3.457388">
        <ele>417.0</ele>
        <time>2014-11-15T11:10:39Z</time>
      </trkpt>
      <trkpt lat="54.482306" lon="-3.457311">
        <ele>417.0</ele>
        <time>2014-11-15T11:10:43Z</time>
      </trkpt>
      <trkpt lat="54.48244" lon="-3.457276">
        <ele>418.0</ele>
        <time>2014-11-15T11:10:47Z</time>
      </trkpt>
      <trkpt lat="54.48261" lon="-3.457238">
        <ele>418.0</ele>
        <time>2014-11-15T11:10:51Z</time>
      </trkpt>
      <trkpt lat="54.482763" lon="-3.457148">
        <ele>419.0</ele>
        <time>2014-11-15T11:10:55Z</time>
      </trkpt>
      <trkpt lat="54.482925" lon="-3.457066">
        <ele>420.0</ele>
        <time>2014-11-15T11:10:59Z</time>
      </trkpt>
      <trkpt lat="54.483025" lon="-3.457011">
        <ele>421.0</ele>
        <time>2014-11-15T11:11:03Z</time>
      </trkpt>
      <trkpt lat="54.483166" lon="-3.456971">
        <ele>422.0</ele>
        <time>2014-11-15T11:11:07Z</time>
      </trkpt>
      <trkpt lat="54.483293" lon="-3.456966">
        <ele>422.0</ele>
        <time>2014-11-15T11:11:11Z</time>
      </trkpt>
      <trkpt lat="54.48346" lon="-3.456918">
        <ele>422.0</ele>
        <time>2014-11-15T11:11:15Z</time>
      </trkpt>
      <trkpt lat="54.483573" lon="-3.456881">
        <ele>423.0</ele>
        <time>2014-11-15T11:11:19Z</time>
      </trkpt>
      <trkpt lat="54.483746" lon="-3.456865">
        <ele>423.0</ele>
        <time>2014-11-15T11:11:23Z</time>
      </trkpt>
      <trkpt lat="54.483891" lon="-3.456853">
        <ele>424.0</ele>
        <time>2014-11-15T11:11:27Z</time>
      </trkpt>
      <trkpt lat="54.484056" lon="-3.456848">
        <ele>425.0</ele>
        <time>2014-11-15T11:11:31Z</time>
      </trkpt>
      <trkpt lat="54.484206" lon="-3.456803">
        <ele>426.0</ele>
        <time>2014-11-15T11:11:35Z</time>
      </trkpt>
      <trkpt lat="54.484396" lon="-3.456788">
        <ele>426.0</ele>
        <time>2014-11-15T11:11:39Z</time>
      </trkpt>
      <trkpt lat="54.484555" lon="-3.45673">
        <ele>426.0</ele>
        <time>2014-11-15T11:11:43Z</time>
      </trkpt>
      <trkpt lat="54.484738" lon="-3.45671">
        <ele>427.0</ele>
        <time>2014-11-15T11:11:47Z</time>
      </trkpt>
      <trkpt lat="54.484888" lon="-3.456653">
        <ele>427.0</ele>
        <time>2014-11-15T11:11:51Z</time>
      </trkpt>
      <trkpt lat="54.485078" lon="-3.456598">
        <ele>428.0</ele>
        <time>2014-11-15T11:11:55Z</time>
      </trkpt>
      <trkpt lat="54.485236" lon="-3.456553">
        <ele>429.0</ele>
        <time>2014-11-15T11:11:59Z</time>
      </trkpt>
      <trkpt lat="54.48538" lon="-3.45652">
        <ele>430.0</ele>
        <time>2014-11-15T11:12:03Z</time>
      </trkpt>
      <trkpt lat="54.485528" lon="-3.456501">
        <ele>431.0</ele>
        <time>2014-11-15T11:12:07Z</time>
      </trkpt>
      <trkpt lat="54.485685" lon="-3.45647">
        <ele>431.0</ele>
        <time>2014-11-15T11:12:11Z</time>
      </trkpt>
      <trkpt lat="54.48583" lon="-3.456426">
        <ele>433.0</ele>
        <time>2014-11-15T11:12:15Z</time>
      </trkpt>
      <trkpt lat="54.486015" lon="-3.456365">
        <ele>434.0</ele>
        <time>2014-11-15T11:12:19Z</time>
      </trkpt>
      <trkpt lat="54.486163" lon="-3.456266">
        <ele>435.0</ele>
        <time>2014-11-15T11:12:23Z</time>
      </trkpt>
      <trkpt lat="54.486328" lon="-3.456091">
        <ele>435.0</ele>
        <time>2014-11-15T11:12:27Z</time>
      </trkpt>
      <trkpt lat="54.486505" lon="-3.455891">
        <ele>435.0</ele>
        <time>2014-11-15T11:12:31Z</time>
      </trkpt>
      <trkpt lat="54.486666" lon="-3.455658">
        <ele>435.0</ele>
        <time>2014-11-15T11:12:35Z</time>
      </trkpt>
      <trkpt lat="54.486851" lon="-3.455455">
        <ele>435.0</ele>
        <time>2014-11-15T11:12:39Z</time>
      </trkpt>
      <trkpt lat="54.487041" lon="-3.455305">
        <ele>434.0</ele>
        <time>2014-11-15T11:12:43Z</time>
      </trkpt>
      <trkpt lat="54.487281" lon="-3.45512">
        <ele>434.0</ele>
        <time>2014-11-15T11:12:47Z</time>
      </trkpt>
      <trkpt lat="54.487506" lon="-3.45494">
        <ele>433.0</ele>
        <time>2014-11-15T11:12:51Z</time>
      </trkpt>
      <trkpt lat="54.487738" lon="-3.454835">
        <ele>434.0</ele>
        <time>2014-11-15T11:12:55Z</time>
      </trkpt>
      <trkpt lat="54.487985" lon="-3.454733">
        <ele>433.0</ele>
        <time>2014-11-15T11:12:59Z</time>
      </trkpt>
      <trkpt lat="54.488243" lon="-3.454588">
        <ele>433.0</ele>
        <time>2014-11-15T11:13:03Z</time>
      </trkpt>
      <trkpt lat="54.488476" lon="-3.454546">
        <ele>433.0</ele>
        <time>2014-11-15T11:13:07Z</time>
      </trkpt>
      <trkpt lat="54.488751" lon="-3.454376">
        <ele>433.0</ele>
        <time>2014-11-15T11:13:11Z</time>
      </trkpt>
      <trkpt lat="54.489028" lon="-3.454268">
        <ele>432.0</ele>
        <time>2014-11-15T11:13:15Z</time>
      </trkpt>
      <trkpt lat="54.489308" lon="-3.454253">
        <ele>433.0</ele>
        <time>2014-11-15T11:13:19Z</time>
      </trkpt>
      <trkpt lat="54.489625" lon="-3.454238">
        <ele>431.0</ele>
        <time>2014-11-15T11:13:23Z</time>
      </trkpt>
      <trkpt lat="54.489943" lon="-3.454098">
        <ele>429.0</ele>
        <time>2014-11-15T11:13:27Z</time>
      </trkpt>
      <trkpt lat="54.490161" lon="-3.453945">
        <ele>430.0</ele>
        <time>2014-11-15T11:13:31Z</time>
      </trkpt>
      <trkpt lat="54.49027" lon="-3.45378">
        <ele>432.0</ele>
        <time>2014-11-15T11:13:35Z</time>
      </trkpt>
      <trkpt lat="54.490398" lon="-3.453626">
        <ele>434.0</ele>
        <time>2014-11-15T11:13:39Z</time>
      </trkpt>
      <trkpt lat="54.490541" lon="-3.453466">
        <ele>436.0</ele>
        <time>2014-11-15T11:13:43Z</time>
      </trkpt>
      <trkpt lat="54.490673" lon="-3.45334">
        <ele>437.0</ele>
        <time>2014-11-15T11:13:47Z</time>
      </trkpt>
      <trkpt lat="54.49082" lon="-3.453218">
        <ele>438.0</ele>
        <time>2014-11-15T11:13:51Z</time>
      </trkpt>
      <trkpt lat="54.490973" lon="-3.453116">
        <ele>439.0</ele>
        <time>2014-11-15T11:13:55Z</time>
      </trkpt>
      <trkpt lat="54.491125" lon="-3.453011">
        <ele>440.0</ele>
        <time>2014-11-15T11:13:59Z</time>
      </trkpt>
      <trkpt lat="54.491251" lon="-3.452956">
        <ele>441.0</ele>
        <time>2014-11-15T11:14:03Z</time>
      </trkpt>
      <trkpt lat="54.49136" lon="-3.452888">
        <ele>443.0</ele>
        <time>2014-11-15T11:14:07Z</time>
      </trkpt>
      <trkpt lat="54.491508" lon="-3.452791">
        <ele>443.0</ele>
        <time>2014-11-15T11:14:11Z</time>
      </trkpt>
      <trkpt lat="54.491673" lon="-3.452758">
        <ele>444.0</ele>
        <time>2014-11-15T11:14:15Z</time>
      </trkpt>
      <trkpt lat="54.49181" lon="-3.452721">
        <ele>445.0</ele>
        <time>2014-11-15T11:14:19Z</time>
      </trkpt>
      <trkpt lat="54.491965" lon="-3.452666">
        <ele>446.0</ele>
        <time>2014-11-15T11:14:23Z</time>
      </trkpt>
      <trkpt lat="54.492068" lon="-3.452571">
        <ele>447.0</ele>
        <time>2014-11-15T11:14:27Z</time>
      </trkpt>
      <trkpt lat="54.492201" lon="-3.452501">
        <ele>448.0</ele>
        <time>2014-11-15T11:14:31Z</time>
      </trkpt>
      <trkpt lat="54.492341" lon="-3.452418">
        <ele>449.0</ele>
        <time>2014-11-15T11:14:35Z</time>
      </trkpt>
      <trkpt lat="54.492505" lon="-3.452358">
        <ele>450.0</ele>
        <time>2014-11-15T11:14:39Z</time>
      </trkpt>
      <trkpt lat="54.492646" lon="-3.452286">
        <ele>451.0</ele>
        <time>2014-11-15T11:14:43Z</time>
      </trkpt>
      <trkpt lat="54.492828" lon="-3.452245">
        <ele>451.0</ele>
        <time>2014-11-15T11:14:47Z</time>
      </trkpt>
      <trkpt lat="54.492988" lon="-3.452201">
        <ele>452.0</ele>
        <time>2014-11-15T11:14:51Z</time>
      </trkpt>
      <trkpt lat="54.493108" lon="-3.452141">
        <ele>452.0</ele>
        <time>2014-11-15T11:14:55Z</time>
      </trkpt>
      <trkpt lat="54.493311" lon="-3.452111">
        <ele>452.0</ele>
        <time>2014-11-15T11:14:59Z</time>
      </trkpt>
      <trkpt lat="54.493476" lon="-3.45206">
        <ele>453.0</ele>
        <time>2014-11-15T11:15:03Z</time>
      </trkpt>
      <trkpt lat="54.493633" lon="-3.451978">
        <ele>454.0</ele>
        <time>2014-11-15T11:15:07Z</time>
      </trkpt>
      <trkpt lat="54.493748" lon="-3.451905">
        <ele>455.0</ele>
        <time>2014-11-15T11:15:11Z</time>
      </trkpt>
      <trkpt lat="54.493851" lon="-3.451818">
        <ele>457.0</ele>
        <time>2014-11-15T11:15:15Z</time>
      </trkpt>
      <trkpt lat="54.493926" lon="-3.451785">
        <ele>458.0</ele>
        <time>2014-11-15T11:15:19Z</time>
      </trkpt>
      <trkpt lat="54.494028" lon="-3.45156">
        <ele>459.0</ele>
        <time>2014-11-15T11:15:23Z</time>
      </trkpt>
      <trkpt lat="54.494168" lon="-3.451421">
        <ele>460.0</ele>
        <time>2014-11-15T11:15:27Z</time>
      </trkpt>
      <trkpt lat="54.494251" lon="-3.451261">
        <ele>461.0</ele>
        <time>2014-11-15T11:15:31Z</time>
      </trkpt>
      <trkpt lat="54.494326" lon="-3.451083">
        <ele>462.0</ele>
        <time>2014-11-15T11:15:35Z</time>
      </trkpt>
      <trkpt lat="54.494408" lon="-3.450908">
        <ele>462.0</ele>
        <time>2014-11-15T11:15:39Z</time>
      </trkpt>
      <trkpt lat="54.494545" lon="-3.450821">
        <ele>462.0</ele>
        <time>2014-11-15T11:15:43Z</time>
      </trkpt>
      <trkpt lat="54.494651" lon="-3.450661">
        <ele>462.0</ele>
        <time>2014-11-15T11:15:47Z</time>
      </trkpt>
      <trkpt lat="54.494763" lon="-3.450503">
        <ele>462.0</ele>
        <time>2014-11-15T11:15:51Z</time>
      </trkpt>
      <trkpt lat="54.494888" lon="-3.450346">
        <ele>462.0</ele>
        <time>2014-11-15T11:15:55Z</time>
      </trkpt>
      <trkpt lat="54.49501" lon="-3.450213">
        <ele>462.0</ele>
        <time>2014-11-15T11:15:59Z</time>
      </trkpt>
      <trkpt lat="54.495135" lon="-3.450083">
        <ele>463.0</ele>
        <time>2014-11-15T11:16:03Z</time>
      </trkpt>
      <trkpt lat="54.495263" lon="-3.449955">
        <ele>463.0</ele>
        <time>2014-11-15T11:16:07Z</time>
      </trkpt>
      <trkpt lat="54.495401" lon="-3.449825">
        <ele>463.0</ele>
        <time>2014-11-15T11:16:11Z</time>
      </trkpt>
      <trkpt lat="54.495541" lon="-3.449693">
        <ele>463.0</ele>
        <time>2014-11-15T11:16:15Z</time>
      </trkpt>
      <trkpt lat="54.49569" lon="-3.44956">
        <ele>464.0</ele>
        <time>2014-11-15T11:16:19Z</time>
      </trkpt>
      <trkpt lat="54.495846" lon="-3.449401">
        <ele>464.0</ele>
        <time>2014-11-15T11:16:23Z</time>
      </trkpt>
      <trkpt lat="54.495981" lon="-3.449193">
        <ele>464.0</ele>
        <time>2014-11-15T11:16:27Z</time>
      </trkpt>
      <trkpt lat="54.496106" lon="-3.448961">
        <ele>464.0</ele>
        <time>2014-11-15T11:16:31Z</time>
      </trkpt>
      <trkpt lat="54.49623" lon="-3.448718">
        <ele>464.0</ele>
        <time>2014-11-15T11:16:35Z</time>
      </trkpt>
      <trkpt lat="54.496366" lon="-3.448428">
        <ele>464.0</ele>
        <time>2014-11-15T11:16:39Z</time>
      </trkpt>
      <trkpt lat="54.496515" lon="-3.448128">
        <ele>464.0</ele>
        <time>2014-11-15T11:16:43Z</time>
      </trkpt>
      <trkpt lat="54.496686" lon="-3.447858">
        <ele>463.0</ele>
        <time>2014-11-15T11:16:47Z</time>
      </trkpt>
      <trkpt lat="54.49689" lon="-3.447653">
        <ele>463.0</ele>
        <time>2014-11-15T11:16:51Z</time>
      </trkpt>
      <trkpt lat="54.497055" lon="-3.447416">
        <ele>463.0</ele>
        <time>2014-11-15T11:16:55Z</time>
      </trkpt>
      <trkpt lat="54.497185" lon="-3.447191">
        <ele>464.0</ele>
        <time>2014-11-15T11:16:59Z</time>
      </trkpt>
      <trkpt lat="54.497321" lon="-3.446933">
        <ele>465.0</ele>
        <time>2014-11-15T11:17:03Z</time>
      </trkpt>
      <trkpt lat="54.497481" lon="-3.446726">
        <ele>465.0</ele>
        <time>2014-11-15T11:17:07Z</time>
      </trkpt>
      <trkpt lat="54.497708" lon="-3.44654">
        <ele>465.0</ele>
        <time>2014-11-15T11:17:11Z</time>
      </trkpt>
      <trkpt lat="54.49787" lon="-3.446455">
        <ele>465.0</ele>
        <time>2014-11-15T11:17:15Z</time>
      </trkpt>
      <trkpt lat="54.498098" lon="-3.446423">
        <ele>465.0</ele>
        <time>2014-11-15T11:17:19Z</time>
      </trkpt>
      <trkpt lat="54.498286" lon="-3.446271">
        <ele>465.0</ele>
        <time>2014-11-15T11:17:23Z</time>
      </trkpt>
      <trkpt lat="54.498555" lon="-3.445851">
        <ele>465.0</ele>
        <time>2014-11-15T11:17:27Z</time>
      </trkpt>
      <trkpt lat="54.4987" lon="-3.445743">
        <ele>465.0</ele>
        <time>2014-11-15T11:17:31Z</time>
      </trkpt>
      <trkpt lat="54.49895" lon="-3.445596">
        <ele>465.0</ele>
        <time>2014-11-15T11:17:35Z</time>
      </trkpt>
      <trkpt lat="54.499183" lon="-3.445381">
        <ele>465.0</ele>
        <time>2014-11-15T11:17:39Z</time>
      </trkpt>
      <trkpt lat="54.499383" lon="-3.445155">
        <ele>465.0</ele>
        <time>2014-11-15T11:17:43Z</time>
      </trkpt>
      <trkpt lat="54.499621" lon="-3.444856">
        <ele>464.0</ele>
        <time>2014-11-15T11:17:47Z</time>
      </trkpt>
      <trkpt lat="54.499866" lon="-3.44457">
        <ele>463.0</ele>
        <time>2014-11-15T11:17:51Z</time>
      </trkpt>
      <trkpt lat="54.500075" lon="-3.444386">
        <ele>465.0</ele>
        <time>2014-11-15T11:17:55Z</time>
      </trkpt>
      <trkpt lat="54.500255" lon="-3.444243">
        <ele>466.0</ele>
        <time>2014-11-15T11:17:59Z</time>
      </trkpt>
      <trkpt lat="54.500431" lon="-3.444093">
        <ele>467.0</ele>
        <time>2014-11-15T11:18:03Z</time>
      </trkpt>
      <trkpt lat="54.500601" lon="-3.443953">
        <ele>468.0</ele>
        <time>2014-11-15T11:18:07Z</time>
      </trkpt>
      <trkpt lat="54.500768" lon="-3.443875">
        <ele>468.0</ele>
        <time>2014-11-15T11:18:11Z</time>
      </trkpt>
      <trkpt lat="54.500951" lon="-3.443755">
        <ele>469.0</ele>
        <time>2014-11-15T11:18:15Z</time>
      </trkpt>
      <trkpt lat="54.501138" lon="-3.44367">
        <ele>468.0</ele>
        <time>2014-11-15T11:18:19Z</time>
      </trkpt>
      <trkpt lat="54.501358" lon="-3.44358">
        <ele>468.0</ele>
        <time>2014-11-15T11:18:23Z</time>
      </trkpt>
      <trkpt lat="54.501573" lon="-3.443473">
        <ele>468.0</ele>
        <time>2014-11-15T11:18:27Z</time>
      </trkpt>
      <trkpt lat="54.501768" lon="-3.443375">
        <ele>468.0</ele>
        <time>2014-11-15T11:18:31Z</time>
      </trkpt>
      <trkpt lat="54.502025" lon="-3.443275">
        <ele>469.0</ele>
        <time>2014-11-15T11:18:35Z</time>
      </trkpt>
      <trkpt lat="54.502243" lon="-3.44309">
        <ele>468.0</ele>
        <time>2014-11-15T11:18:39Z</time>
      </trkpt>
      <trkpt lat="54.502526" lon="-3.442921">
        <ele>467.0</ele>
        <time>2014-11-15T11:18:43Z</time>
      </trkpt>
      <trkpt lat="54.502813" lon="-3.442746">
        <ele>466.0</ele>
        <time>2014-11-15T11:18:47Z</time>
      </trkpt>
      <trkpt lat="54.503156" lon="-3.442688">
        <ele>465.0</ele>
        <time>2014-11-15T11:18:51Z</time>
      </trkpt>
      <trkpt lat="54.503461" lon="-3.44268">
        <ele>464.0</ele>
        <time>2014-11-15T11:18:55Z</time>
      </trkpt>
      <trkpt lat="54.503735" lon="-3.442766">
        <ele>464.0</ele>
        <time>2014-11-15T11:18:59Z</time>
      </trkpt>
      <trkpt lat="54.503905" lon="-3.443173">
        <ele>464.0</ele>
        <time>2014-11-15T11:19:03Z</time>
      </trkpt>
      <trkpt lat="54.504061" lon="-3.443728">
        <ele>462.0</ele>
        <time>2014-11-15T11:19:07Z</time>
      </trkpt>
      <trkpt lat="54.504201" lon="-3.444336">
        <ele>460.0</ele>
        <time>2014-11-15T11:19:11Z</time>
      </trkpt>
      <trkpt lat="54.504251" lon="-3.44505">
        <ele>458.0</ele>
        <time>2014-11-15T11:19:15Z</time>
      </trkpt>
      <trkpt lat="54.504275" lon="-3.445875">
        <ele>456.0</ele>
        <time>2014-11-15T11:19:19Z</time>
      </trkpt>
      <trkpt lat="54.504341" lon="-3.4466">
        <ele>454.0</ele>
        <time>2014-11-15T11:19:23Z</time>
      </trkpt>
      <trkpt lat="54.504463" lon="-3.44729">
        <ele>454.0</ele>
        <time>2014-11-15T11:19:27Z</time>
      </trkpt>
      <trkpt lat="54.504751" lon="-3.447866">
        <ele>451.0</ele>
        <time>2014-11-15T11:19:31Z</time>
      </trkpt>
      <trkpt lat="54.505193" lon="-3.44816">
        <ele>447.0</ele>
        <time>2014-11-15T11:19:35Z</time>
      </trkpt>
      <trkpt lat="54.505666" lon="-3.448198">
        <ele>445.0</ele>
        <time>2014-11-15T11:19:39Z</time>
      </trkpt>
      <trkpt lat="54.506148" lon="-3.448225">
        <ele>443.0</ele>
        <time>2014-11-15T11:19:43Z</time>
      </trkpt>
      <trkpt lat="54.506636" lon="-3.448456">
        <ele>441.0</ele>
        <time>2014-11-15T11:19:47Z</time>
      </trkpt>
      <trkpt lat="54.507103" lon="-3.44862">
        <ele>438.0</ele>
        <time>2014-11-15T11:19:51Z</time>
      </trkpt>
      <trkpt lat="54.507533" lon="-3.448958">
        <ele>437.0</ele>
        <time>2014-11-15T11:19:55Z</time>
      </trkpt>
      <trkpt lat="54.507961" lon="-3.449688">
        <ele>435.0</ele>
        <time>2014-11-15T11:19:59Z</time>
      </trkpt>
      <trkpt lat="54.508298" lon="-3.450025">
        <ele>433.0</ele>
        <time>2014-11-15T11:20:03Z</time>
      </trkpt>
      <trkpt lat="54.50869" lon="-3.450535">
        <ele>430.0</ele>
        <time>2014-11-15T11:20:07Z</time>
      </trkpt>
      <trkpt lat="54.509106" lon="-3.451098">
        <ele>426.0</ele>
        <time>2014-11-15T11:20:11Z</time>
      </trkpt>
      <trkpt lat="54.509481" lon="-3.451736">
        <ele>421.0</ele>
        <time>2014-11-15T11:20:15Z</time>
      </trkpt>
      <trkpt lat="54.509908" lon="-3.452468">
        <ele>414.0</ele>
        <time>2014-11-15T11:20:19Z</time>
      </trkpt>
      <trkpt lat="54.510225" lon="-3.45327">
        <ele>407.0</ele>
        <time>2014-11-15T11:20:23Z</time>
      </trkpt>
      <trkpt lat="54.510645" lon="-3.45368">
        <ele>401.0</ele>
        <time>2014-11-15T11:20:27Z</time>
      </trkpt>
      <trkpt lat="54.511123" lon="-3.453698">
        <ele>400.0</ele>
        <time>2014-11-15T11:20:31Z</time>
      </trkpt>
      <trkpt lat="54.511601" lon="-3.453823">
        <ele>398.0</ele>
        <time>2014-11-15T11:20:35Z</time>
      </trkpt>
      <trkpt lat="54.512093" lon="-3.453993">
        <ele>397.0</ele>
        <time>2014-11-15T11:20:39Z</time>
      </trkpt>
      <trkpt lat="54.512515" lon="-3.45401">
        <ele>397.0</ele>
        <time>2014-11-15T11:20:43Z</time>
      </trkpt>
      <trkpt lat="54.512783" lon="-3.45386">
        <ele>400.0</ele>
        <time>2014-11-15T11:20:47Z</time>
      </trkpt>
      <trkpt lat="54.513031" lon="-3.453661">
        <ele>403.0</ele>
        <time>2014-11-15T11:20:51Z</time>
      </trkpt>
      <trkpt lat="54.513278" lon="-3.453496">
        <ele>403.0</ele>
        <time>2014-11-15T11:20:55Z</time>
      </trkpt>
      <trkpt lat="54.51351" lon="-3.453293">
        <ele>403.0</ele>
        <time>2014-11-15T11:20:59Z</time>
      </trkpt>
      <trkpt lat="54.5137" lon="-3.453145">
        <ele>403.0</ele>
        <time>2014-11-15T11:21:03Z</time>
      </trkpt>
      <trkpt lat="54.513995" lon="-3.452948">
        <ele>402.0</ele>
        <time>2014-11-15T11:21:07Z</time>
      </trkpt>
      <trkpt lat="54.514291" lon="-3.452745">
        <ele>401.0</ele>
        <time>2014-11-15T11:21:11Z</time>
      </trkpt>
      <trkpt lat="54.514556" lon="-3.452505">
        <ele>399.0</ele>
        <time>2014-11-15T11:21:15Z</time>
      </trkpt>
      <trkpt lat="54.514793" lon="-3.452321">
        <ele>399.0</ele>
        <time>2014-11-15T11:21:19Z</time>
      </trkpt>
      <trkpt lat="54.515026" lon="-3.452053">
        <ele>399.0</ele>
        <time>2014-11-15T11:21:23Z</time>
      </trkpt>
      <trkpt lat="54.515346" lon="-3.451601">
        <ele>396.0</ele>
        <time>2014-11-15T11:21:27Z</time>
      </trkpt>
      <trkpt lat="54.515668" lon="-3.451201">
        <ele>393.0</ele>
        <time>2014-11-15T11:21:31Z</time>
      </trkpt>
      <trkpt lat="54.516" lon="-3.450976">
        <ele>392.0</ele>
        <time>2014-11-15T11:21:35Z</time>
      </trkpt>
      <trkpt lat="54.51625" lon="-3.450921">
        <ele>391.0</ele>
        <time>2014-11-15T11:21:39Z</time>
      </trkpt>
      <trkpt lat="54.516478" lon="-3.450806">
        <ele>389.0</ele>
        <time>2014-11-15T11:21:43Z</time>
      </trkpt>
      <trkpt lat="54.516768" lon="-3.450595">
        <ele>386.0</ele>
        <time>2014-11-15T11:21:47Z</time>
      </trkpt>
      <trkpt lat="54.517185" lon="-3.450633">
        <ele>381.0</ele>
        <time>2014-11-15T11:21:51Z</time>
      </trkpt>
      <trkpt lat="54.517598" lon="-3.450508">
        <ele>376.0</ele>
        <time>2014-11-15T11:21:55Z</time>
      </trkpt>
      <trkpt lat="54.51799" lon="-3.450315">
        <ele>375.0</ele>
        <time>2014-11-15T11:21:59Z</time>
      </trkpt>
      <trkpt lat="54.518331" lon="-3.450155">
        <ele>374.0</ele>
        <time>2014-11-15T11:22:03Z</time>
      </trkpt>
      <trkpt lat="54.5187" lon="-3.450223">
        <ele>372.0</ele>
        <time>2014-11-15T11:22:07Z</time>
      </trkpt>
      <trkpt lat="54.519135" lon="-3.450271">
        <ele>369.0</ele>
        <time>2014-11-15T11:22:11Z</time>
      </trkpt>
      <trkpt lat="54.519621" lon="-3.450193">
        <ele>365.0</ele>
        <time>2014-11-15T11:22:15Z</time>
      </trkpt>
      <trkpt lat="54.520168" lon="-3.450008">
        <ele>358.0</ele>
        <time>2014-11-15T11:22:19Z</time>
      </trkpt>
      <trkpt lat="54.52071" lon="-3.449783">
        <ele>352.0</ele>
        <time>2014-11-15T11:22:23Z</time>
      </trkpt>
      <trkpt lat="54.521243" lon="-3.449615">
        <ele>346.0</ele>
        <time>2014-11-15T11:22:27Z</time>
      </trkpt>
      <trkpt lat="54.521845" lon="-3.449481">
        <ele>340.0</ele>
        <time>2014-11-15T11:22:31Z</time>
      </trkpt>
      <trkpt lat="54.522471" lon="-3.449358">
        <ele>332.0</ele>
        <time>2014-11-15T11:22:35Z</time>
      </trkpt>
      <trkpt lat="54.52309" lon="-3.449258">
        <ele>324.0</ele>
        <time>2014-11-15T11:22:39Z</time>
      </trkpt>
      <trkpt lat="54.523661" lon="-3.44915">
        <ele>320.0</ele>
        <time>2014-11-15T11:22:43Z</time>
      </trkpt>
      <trkpt lat="54.524216" lon="-3.449023">
        <ele>315.0</ele>
        <time>2014-11-15T11:22:47Z</time>
      </trkpt>
      <trkpt lat="54.524705" lon="-3.448781">
        <ele>311.0</ele>
        <time>2014-11-15T11:22:51Z</time>
      </trkpt>
      <trkpt lat="54.525115" lon="-3.44833">
        <ele>309.0</ele>
        <time>2014-11-15T11:22:55Z</time>
      </trkpt>
      <trkpt lat="54.5255" lon="-3.447998">
        <ele>307.0</ele>
        <time>2014-11-15T11:22:59Z</time>
      </trkpt>
      <trkpt lat="54.525915" lon="-3.447716">
        <ele>305.0</ele>
        <time>2014-11-15T11:23:03Z</time>
      </trkpt>
      <trkpt lat="54.526293" lon="-3.447365">
        <ele>304.0</ele>
        <time>2014-11-15T11:23:07Z</time>
      </trkpt>
      <trkpt lat="54.526671" lon="-3.447215">
        <ele>303.0</ele>
        <time>2014-11-15T11:23:11Z</time>
      </trkpt>
      <trkpt lat="54.526981" lon="-3.44704">
        <ele>301.0</ele>
        <time>2014-11-15T11:23:15Z</time>
      </trkpt>
      <trkpt lat="54.527168" lon="-3.446751">
        <ele>300.0</ele>
        <time>2014-11-15T11:23:19Z</time>
      </trkpt>
      <trkpt lat="54.52723" lon="-3.446355">
        <ele>299.0</ele>
        <time>2014-11-15T11:23:23Z</time>
      </trkpt>
      <trkpt lat="54.527228" lon="-3.445915">
        <ele>299.0</ele>
        <time>2014-11-15T11:23:27Z</time>
      </trkpt>
      <trkpt lat="54.52724" lon="-3.445423">
        <ele>299.0</ele>
        <time>2014-11-15T11:23:31Z</time>
      </trkpt>
      <trkpt lat="54.527281" lon="-3.44494">
        <ele>297.0</ele>
        <time>2014-11-15T11:23:35Z</time>
      </trkpt>
      <trkpt lat="54.52746" lon="-3.444526">
        <ele>296.0</ele>
        <time>2014-11-15T11:23:39Z</time>
      </trkpt>
      <trkpt lat="54.527651" lon="-3.4441">
        <ele>295.0</ele>
        <time>2014-11-15T11:23:43Z</time>
      </trkpt>
      <trkpt lat="54.52785" lon="-3.443685">
        <ele>294.0</ele>
        <time>2014-11-15T11:23:47Z</time>
      </trkpt>
      <trkpt lat="54.52807" lon="-3.443283">
        <ele>292.0</ele>
        <time>2014-11-15T11:23:51Z</time>
      </trkpt>
      <trkpt lat="54.52835" lon="-3.442841">
        <ele>290.0</ele>
        <time>2014-11-15T11:23:55Z</time>
      </trkpt>
      <trkpt lat="54.528601" lon="-3.442205">
        <ele>286.0</ele>
        <time>2014-11-15T11:23:59Z</time>
      </trkpt>
      <trkpt lat="54.528803" lon="-3.441535">
        <ele>283.0</ele>
        <time>2014-11-15T11:24:03Z</time>
      </trkpt>
      <trkpt lat="54.52889" lon="-3.440835">
        <ele>282.0</ele>
        <time>2014-11-15T11:24:07Z</time>
      </trkpt>
      <trkpt lat="54.52894" lon="-3.440246">
        <ele>280.0</ele>
        <time>2014-11-15T11:24:11Z</time>
      </trkpt>
      <trkpt lat="54.528998" lon="-3.439725">
        <ele>279.0</ele>
        <time>2014-11-15T11:24:15Z</time>
      </trkpt>
      <trkpt lat="54.529113" lon="-3.439286">
        <ele>280.0</ele>
        <time>2014-11-15T11:24:19Z</time>
      </trkpt>
      <trkpt lat="54.529171" lon="-3.439016">
        <ele>279.0</ele>
        <time>2014-11-15T11:24:23Z</time>
      </trkpt>
      <trkpt lat="54.529221" lon="-3.438805">
        <ele>278.0</ele>
        <time>2014-11-15T11:24:27Z</time>
      </trkpt>
      <trkpt lat="54.529238" lon="-3.438606">
        <ele>278.0</ele>
        <time>2014-11-15T11:24:31Z</time>
      </trkpt>
      <trkpt lat="54.529223" lon="-3.438385">
        <ele>278.0</ele>
        <time>2014-11-15T11:24:35Z</time>
      </trkpt>
      <trkpt lat="54.529278" lon="-3.438083">
        <ele>279.0</ele>
        <time>2014-11-15T11:24:39Z</time>
      </trkpt>
      <trkpt lat="54.529286" lon="-3.437816">
        <ele>280.0</ele>
        <time>2014-11-15T11:24:43Z</time>
      </trkpt>
      <trkpt lat="54.529303" lon="-3.437516">
        <ele>281.0</ele>
        <time>2014-11-15T11:24:47Z</time>
      </trkpt>
      <trkpt lat="54.529346" lon="-3.437281">
        <ele>281.0</ele>
        <time>2014-11-15T11:24:51Z</time>
      </trkpt>
      <trkpt lat="54.529388" lon="-3.437066">
        <ele>282.0</ele>
        <time>2014-11-15T11:24:55Z</time>
      </trkpt>
      <trkpt lat="54.529398" lon="-3.436796">
        <ele>283.0</ele>
        <time>2014-11-15T11:24:59Z</time>
      </trkpt>
      <trkpt lat="54.529385" lon="-3.436538">
        <ele>284.0</ele>
        <time>2014-11-15T11:25:03Z</time>
      </trkpt>
      <trkpt lat="54.529388" lon="-3.436261">
        <ele>284.0</ele>
        <time>2014-11-15T11:25:07Z</time>
      </trkpt>
      <trkpt lat="54.529346" lon="-3.43601">
        <ele>285.0</ele>
        <time>2014-11-15T11:25:11Z</time>
      </trkpt>
      <trkpt lat="54.529305" lon="-3.435785">
        <ele>287.0</ele>
        <time>2014-11-15T11:25:15Z</time>
      </trkpt>
      <trkpt lat="54.529223" lon="-3.43551">
        <ele>288.0</ele>
        <time>2014-11-15T11:25:19Z</time>
      </trkpt>
      <trkpt lat="54.529181" lon="-3.435118">
        <ele>289.0</ele>
        <time>2014-11-15T11:25:23Z</time>
      </trkpt>
      <trkpt lat="54.529156" lon="-3.434791">
        <ele>289.0</ele>
        <time>2014-11-15T11:25:27Z</time>
      </trkpt>
      <trkpt lat="54.52921" lon="-3.434521">
        <ele>290.0</ele>
        <time>2014-11-15T11:25:31Z</time>
      </trkpt>
      <trkpt lat="54.529286" lon="-3.434293">
        <ele>291.0</ele>
        <time>2014-11-15T11:25:35Z</time>
      </trkpt>
      <trkpt lat="54.529315" lon="-3.434066">
        <ele>292.0</ele>
        <time>2014-11-15T11:25:39Z</time>
      </trkpt>
      <trkpt lat="54.529315" lon="-3.433813">
        <ele>291.0</ele>
        <time>2014-11-15T11:25:43Z</time>
      </trkpt>
      <trkpt lat="54.529328" lon="-3.433481">
        <ele>292.0</ele>
        <time>2014-11-15T11:25:47Z</time>
      </trkpt>
      <trkpt lat="54.529293" lon="-3.433301">
        <ele>292.0</ele>
        <time>2014-11-15T11:25:51Z</time>
      </trkpt>
      <trkpt lat="54.529231" lon="-3.432991">
        <ele>293.0</ele>
        <time>2014-11-15T11:25:55Z</time>
      </trkpt>
      <trkpt lat="54.52924" lon="-3.432718">
        <ele>293.0</ele>
        <time>2014-11-15T11:25:59Z</time>
      </trkpt>
      <trkpt lat="54.529221" lon="-3.432415">
        <ele>293.0</ele>
        <time>2014-11-15T11:26:03Z</time>
      </trkpt>
      <trkpt lat="54.529215" lon="-3.432078">
        <ele>293.0</ele>
        <time>2014-11-15T11:26:07Z</time>
      </trkpt>
      <trkpt lat="54.5292" lon="-3.431766">
        <ele>294.0</ele>
        <time>2014-11-15T11:26:11Z</time>
      </trkpt>
      <trkpt lat="54.529215" lon="-3.431451">
        <ele>294.0</ele>
        <time>2014-11-15T11:26:15Z</time>
      </trkpt>
      <trkpt lat="54.529245" lon="-3.431093">
        <ele>294.0</ele>
        <time>2014-11-15T11:26:19Z</time>
      </trkpt>
      <trkpt lat="54.529308" lon="-3.43079">
        <ele>294.0</ele>
        <time>2014-11-15T11:26:23Z</time>
      </trkpt>
      <trkpt lat="54.529331" lon="-3.430381">
        <ele>295.0</ele>
        <time>2014-11-15T11:26:27Z</time>
      </trkpt>
      <trkpt lat="54.529343" lon="-3.43001">
        <ele>295.0</ele>
        <time>2014-11-15T11:26:31Z</time>
      </trkpt>
      <trkpt lat="54.529371" lon="-3.429593">
        <ele>295.0</ele>
        <time>2014-11-15T11:26:35Z</time>
      </trkpt>
      <trkpt lat="54.529378" lon="-3.429228">
        <ele>296.0</ele>
        <time>2014-11-15T11:26:39Z</time>
      </trkpt>
      <trkpt lat="54.52937" lon="-3.428853">
        <ele>295.0</ele>
        <time>2014-11-15T11:26:43Z</time>
      </trkpt>
      <trkpt lat="54.529403" lon="-3.428453">
        <ele>295.0</ele>
        <time>2014-11-15T11:26:47Z</time>
      </trkpt>
      <trkpt lat="54.529421" lon="-3.42813">
        <ele>296.0</ele>
        <time>2014-11-15T11:26:51Z</time>
      </trkpt>
      <trkpt lat="54.529408" lon="-3.427771">
        <ele>296.0</ele>
        <time>2014-11-15T11:26:55Z</time>
      </trkpt>
      <trkpt lat="54.529425" lon="-3.427413">
        <ele>297.0</ele>
        <time>2014-11-15T11:26:59Z</time>
      </trkpt>
      <trkpt lat="54.529505" lon="-3.427105">
        <ele>297.0</ele>
        <time>2014-11-15T11:27:03Z</time>
      </trkpt>
      <trkpt lat="54.529593" lon="-3.426768">
        <ele>298.0</ele>
        <time>2014-11-15T11:27:07Z</time>
      </trkpt>
      <trkpt lat="54.52969" lon="-3.42647">
        <ele>298.0</ele>
        <time>2014-11-15T11:27:11Z</time>
      </trkpt>
      <trkpt lat="54.529791" lon="-3.42614">
        <ele>298.0</ele>
        <time>2014-11-15T11:27:15Z</time>
      </trkpt>
      <trkpt lat="54.529895" lon="-3.42583">
        <ele>298.0</ele>
        <time>2014-11-15T11:27:19Z</time>
      </trkpt>
      <trkpt lat="54.530016" lon="-3.425458">
        <ele>299.0</ele>
        <time>2014-11-15T11:27:23Z</time>
      </trkpt>
      <trkpt lat="54.530155" lon="-3.425148">
        <ele>299.0</ele>
        <time>2014-11-15T11:27:27Z</time>
      </trkpt>
      <trkpt lat="54.53025" lon="-3.424816">
        <ele>300.0</ele>
        <time>2014-11-15T11:27:31Z</time>
      </trkpt>
      <trkpt lat="54.53033" lon="-3.424486">
        <ele>300.0</ele>
        <time>2014-11-15T11:27:35Z</time>
      </trkpt>
      <trkpt lat="54.530398" lon="-3.424231">
        <ele>301.0</ele>
        <time>2014-11-15T11:27:39Z</time>
      </trkpt>
      <trkpt lat="54.530463" lon="-3.423953">
        <ele>302.0</ele>
        <time>2014-11-15T11:27:43Z</time>
      </trkpt>
      <trkpt lat="54.530543" lon="-3.423646">
        <ele>303.0</ele>
        <time>2014-11-15T11:27:47Z</time>
      </trkpt>
      <trkpt lat="54.530618" lon="-3.423366">
        <ele>303.0</ele>
        <time>2014-11-15T11:27:51Z</time>
      </trkpt>
      <trkpt lat="54.53067" lon="-3.423113">
        <ele>303.0</ele>
        <time>2014-11-15T11:27:55Z</time>
      </trkpt>
      <trkpt lat="54.530726" lon="-3.422848">
        <ele>305.0</ele>
        <time>2014-11-15T11:27:59Z</time>
      </trkpt>
      <trkpt lat="54.530801" lon="-3.422591">
        <ele>306.0</ele>
        <time>2014-11-15T11:28:03Z</time>
      </trkpt>
      <trkpt lat="54.5309" lon="-3.422251">
        <ele>307.0</ele>
        <time>2014-11-15T11:28:07Z</time>
      </trkpt>
      <trkpt lat="54.530946" lon="-3.421971">
        <ele>307.0</ele>
        <time>2014-11-15T11:28:11Z</time>
      </trkpt>
      <trkpt lat="54.531025" lon="-3.42172">
        <ele>308.0</ele>
        <time>2014-11-15T11:28:15Z</time>
      </trkpt>
      <trkpt lat="54.531113" lon="-3.42135">
        <ele>309.0</ele>
        <time>2014-11-15T11:28:19Z</time>
      </trkpt>
      <trkpt lat="54.531156" lon="-3.42111">
        <ele>309.0</ele>
        <time>2014-11-15T11:28:23Z</time>
      </trkpt>
      <trkpt lat="54.531235" lon="-3.420796">
        <ele>310.0</ele>
        <time>2014-11-15T11:28:27Z</time>
      </trkpt>
      <trkpt lat="54.531341" lon="-3.420536">
        <ele>310.0</ele>
        <time>2014-11-15T11:28:31Z</time>
      </trkpt>
      <trkpt lat="54.531466" lon="-3.420236">
        <ele>311.0</ele>
        <time>2014-11-15T11:28:35Z</time>
      </trkpt>
      <trkpt lat="54.531568" lon="-3.419998">
        <ele>311.0</ele>
        <time>2014-11-15T11:28:39Z</time>
      </trkpt>
      <trkpt lat="54.531716" lon="-3.419693">
        <ele>311.0</ele>
        <time>2014-11-15T11:28:43Z</time>
      </trkpt>
      <trkpt lat="54.53188" lon="-3.419355">
        <ele>311.0</ele>
        <time>2014-11-15T11:28:47Z</time>
      </trkpt>
      <trkpt lat="54.532" lon="-3.419061">
        <ele>312.0</ele>
        <time>2014-11-15T11:28:51Z</time>
      </trkpt>
      <trkpt lat="54.532183" lon="-3.418753">
        <ele>312.0</ele>
        <time>2014-11-15T11:28:55Z</time>
      </trkpt>
      <trkpt lat="54.53234" lon="-3.418423">
        <ele>311.0</ele>
        <time>2014-11-15T11:28:59Z</time>
      </trkpt>
      <trkpt lat="54.532481" lon="-3.418096">
        <ele>311.0</ele>
        <time>2014-11-15T11:29:03Z</time>
      </trkpt>
      <trkpt lat="54.532615" lon="-3.417836">
        <ele>311.0</ele>
        <time>2014-11-15T11:29:07Z</time>
      </trkpt>
      <trkpt lat="54.532771" lon="-3.417508">
        <ele>312.0</ele>
        <time>2014-11-15T11:29:11Z</time>
      </trkpt>
      <trkpt lat="54.532866" lon="-3.417208">
        <ele>312.0</ele>
        <time>2014-11-15T11:29:15Z</time>
      </trkpt>
      <trkpt lat="54.532998" lon="-3.416978">
        <ele>313.0</ele>
        <time>2014-11-15T11:29:19Z</time>
      </trkpt>
      <trkpt lat="54.533111" lon="-3.416728">
        <ele>314.0</ele>
        <time>2014-11-15T11:29:23Z</time>
      </trkpt>
      <trkpt lat="54.533255" lon="-3.416333">
        <ele>315.0</ele>
        <time>2014-11-15T11:29:27Z</time>
      </trkpt>
      <trkpt lat="54.533356" lon="-3.416021">
        <ele>316.0</ele>
        <time>2014-11-15T11:29:31Z</time>
      </trkpt>
      <trkpt lat="54.53348" lon="-3.41568">
        <ele>315.0</ele>
        <time>2014-11-15T11:29:35Z</time>
      </trkpt>
      <trkpt lat="54.533623" lon="-3.415435">
        <ele>316.0</ele>
        <time>2014-11-15T11:29:39Z</time>
      </trkpt>
      <trkpt lat="54.533806" lon="-3.415113">
        <ele>315.0</ele>
        <time>2014-11-15T11:29:43Z</time>
      </trkpt>
      <trkpt lat="54.53395" lon="-3.41475">
        <ele>314.0</ele>
        <time>2014-11-15T11:29:47Z</time>
      </trkpt>
      <trkpt lat="54.534106" lon="-3.414423">
        <ele>315.0</ele>
        <time>2014-11-15T11:29:51Z</time>
      </trkpt>
      <trkpt lat="54.534221" lon="-3.414131">
        <ele>316.0</ele>
        <time>2014-11-15T11:29:55Z</time>
      </trkpt>
      <trkpt lat="54.534315" lon="-3.413801">
        <ele>317.0</ele>
        <time>2014-11-15T11:29:59Z</time>
      </trkpt>
      <trkpt lat="54.53439" lon="-3.413548">
        <ele>318.0</ele>
        <time>2014-11-15T11:30:03Z</time>
      </trkpt>
      <trkpt lat="54.534458" lon="-3.413255">
        <ele>318.0</ele>
        <time>2014-11-15T11:30:07Z</time>
      </trkpt>
      <trkpt lat="54.534578" lon="-3.413041">
        <ele>319.0</ele>
        <time>2014-11-15T11:30:11Z</time>
      </trkpt>
      <trkpt lat="54.534708" lon="-3.412915">
        <ele>320.0</ele>
        <time>2014-11-15T11:30:15Z</time>
      </trkpt>
      <trkpt lat="54.53484" lon="-3.4128">
        <ele>322.0</ele>
        <time>2014-11-15T11:30:19Z</time>
      </trkpt>
      <trkpt lat="54.534981" lon="-3.412705">
        <ele>323.0</ele>
        <time>2014-11-15T11:30:23Z</time>
      </trkpt>
      <trkpt lat="54.53513" lon="-3.412605">
        <ele>323.0</ele>
        <time>2014-11-15T11:30:27Z</time>
      </trkpt>
      <trkpt lat="54.535286" lon="-3.412515">
        <ele>324.0</ele>
        <time>2014-11-15T11:30:31Z</time>
      </trkpt>
      <trkpt lat="54.535441" lon="-3.412425">
        <ele>324.0</ele>
        <time>2014-11-15T11:30:35Z</time>
      </trkpt>
      <trkpt lat="54.535645" lon="-3.412405">
        <ele>325.0</ele>
        <time>2014-11-15T11:30:39Z</time>
      </trkpt>
      <trkpt lat="54.535846" lon="-3.412271">
        <ele>325.0</ele>
        <time>2014-11-15T11:30:43Z</time>
      </trkpt>
      <trkpt lat="54.535998" lon="-3.412078">
        <ele>325.0</ele>
        <time>2014-11-15T11:30:47Z</time>
      </trkpt>
      <trkpt lat="54.536125" lon="-3.411851">
        <ele>325.0</ele>
        <time>2014-11-15T11:30:51Z</time>
      </trkpt>
      <trkpt lat="54.536226" lon="-3.411616">
        <ele>326.0</ele>
        <time>2014-11-15T11:30:55Z</time>
      </trkpt>
      <trkpt lat="54.536315" lon="-3.411373">
        <ele>327.0</ele>
        <time>2014-11-15T11:30:59Z</time>
      </trkpt>
      <trkpt lat="54.536503" lon="-3.411203">
        <ele>327.0</ele>
        <time>2014-11-15T11:31:03Z</time>
      </trkpt>
      <trkpt lat="54.5367" lon="-3.411086">
        <ele>328.0</ele>
        <time>2014-11-15T11:31:07Z</time>
      </trkpt>
      <trkpt lat="54.536878" lon="-3.411108">
        <ele>328.0</ele>
        <time>2014-11-15T11:31:11Z</time>
      </trkpt>
      <trkpt lat="54.537098" lon="-3.411391">
        <ele>328.0</ele>
        <time>2014-11-15T11:31:15Z</time>
      </trkpt>
      <trkpt lat="54.53731" lon="-3.411693">
        <ele>326.0</ele>
        <time>2014-11-15T11:31:19Z</time>
      </trkpt>
      <trkpt lat="54.537416" lon="-3.412153">
        <ele>324.0</ele>
        <time>2014-11-15T11:31:23Z</time>
      </trkpt>
      <trkpt lat="54.537655" lon="-3.412535">
        <ele>322.0</ele>
        <time>2014-11-15T11:31:27Z</time>
      </trkpt>
      <trkpt lat="54.53793" lon="-3.412903">
        <ele>320.0</ele>
        <time>2014-11-15T11:31:31Z</time>
      </trkpt>
      <trkpt lat="54.53819" lon="-3.413298">
        <ele>319.0</ele>
        <time>2014-11-15T11:31:35Z</time>
      </trkpt>
      <trkpt lat="54.538366" lon="-3.413758">
        <ele>318.0</ele>
        <time>2014-11-15T11:31:39Z</time>
      </trkpt>
      <trkpt lat="54.538598" lon="-3.414151">
        <ele>316.0</ele>
        <time>2014-11-15T11:31:43Z</time>
      </trkpt>
      <trkpt lat="54.538748" lon="-3.414695">
        <ele>315.0</ele>
        <time>2014-11-15T11:31:47Z</time>
      </trkpt>
      <trkpt lat="54.53887" lon="-3.415153">
        <ele>314.0</ele>
        <time>2014-11-15T11:31:51Z</time>
      </trkpt>
      <trkpt lat="54.539045" lon="-3.415143">
        <ele>312.0</ele>
        <time>2014-11-15T11:31:55Z</time>
      </trkpt>
      <trkpt lat="54.539163" lon="-3.414903">
        <ele>312.0</ele>
        <time>2014-11-15T11:31:59Z</time>
      </trkpt>
      <trkpt lat="54.539285" lon="-3.414671">
        <ele>312.0</ele>
        <time>2014-11-15T11:32:03Z</time>
      </trkpt>
      <trkpt lat="54.539376" lon="-3.41446">
        <ele>314.0</ele>
        <time>2014-11-15T11:32:07Z</time>
      </trkpt>
      <trkpt lat="54.539495" lon="-3.41416">
        <ele>315.0</ele>
        <time>2014-11-15T11:32:11Z</time>
      </trkpt>
      <trkpt lat="54.539631" lon="-3.413978">
        <ele>315.0</ele>
        <time>2014-11-15T11:32:15Z</time>
      </trkpt>
      <trkpt lat="54.539715" lon="-3.413871">
        <ele>317.0</ele>
        <time>2014-11-15T11:32:19Z</time>
      </trkpt>
      <trkpt lat="54.53978" lon="-3.413575">
        <ele>318.0</ele>
        <time>2014-11-15T11:32:23Z</time>
      </trkpt>
      <trkpt lat="54.539801" lon="-3.413203">
        <ele>319.0</ele>
        <time>2014-11-15T11:32:27Z</time>
      </trkpt>
      <trkpt lat="54.539895" lon="-3.412911">
        <ele>320.0</ele>
        <time>2014-11-15T11:32:31Z</time>
      </trkpt>
      <trkpt lat="54.539953" lon="-3.41261">
        <ele>320.0</ele>
        <time>2014-11-15T11:32:35Z</time>
      </trkpt>
      <trkpt lat="54.540033" lon="-3.412333">
        <ele>321.0</ele>
        <time>2014-11-15T11:32:39Z</time>
      </trkpt>
      <trkpt lat="54.540226" lon="-3.412135">
        <ele>321.0</ele>
        <time>2014-11-15T11:32:43Z</time>
      </trkpt>
      <trkpt lat="54.540448" lon="-3.411906">
        <ele>320.0</ele>
        <time>2014-11-15T11:32:47Z</time>
      </trkpt>
      <trkpt lat="54.54069" lon="-3.41164">
        <ele>319.0</ele>
        <time>2014-11-15T11:32:51Z</time>
      </trkpt>
      <trkpt lat="54.540871" lon="-3.411373">
        <ele>319.0</ele>
        <time>2014-11-15T11:32:55Z</time>
      </trkpt>
      <trkpt lat="54.541021" lon="-3.41113">
        <ele>320.0</ele>
        <time>2014-11-15T11:32:59Z</time>
      </trkpt>
      <trkpt lat="54.541158" lon="-3.410863">
        <ele>321.0</ele>
        <time>2014-11-15T11:33:03Z</time>
      </trkpt>
      <trkpt lat="54.54127" lon="-3.410563">
        <ele>321.0</ele>
        <time>2014-11-15T11:33:07Z</time>
      </trkpt>
      <trkpt lat="54.541373" lon="-3.41035">
        <ele>322.0</ele>
        <time>2014-11-15T11:33:11Z</time>
      </trkpt>
      <trkpt lat="54.541483" lon="-3.410098">
        <ele>322.0</ele>
        <time>2014-11-15T11:33:15Z</time>
      </trkpt>
      <trkpt lat="54.541548" lon="-3.409776">
        <ele>323.0</ele>
        <time>2014-11-15T11:33:19Z</time>
      </trkpt>
      <trkpt lat="54.541528" lon="-3.4095">
        <ele>324.0</ele>
        <time>2014-11-15T11:33:23Z</time>
      </trkpt>
      <trkpt lat="54.54146" lon="-3.409231">
        <ele>324.0</ele>
        <time>2014-11-15T11:33:27Z</time>
      </trkpt>
      <trkpt lat="54.541485" lon="-3.408961">
        <ele>324.0</ele>
        <time>2014-11-15T11:33:31Z</time>
      </trkpt>
      <trkpt lat="54.541633" lon="-3.408738">
        <ele>325.0</ele>
        <time>2014-11-15T11:33:35Z</time>
      </trkpt>
      <trkpt lat="54.5418" lon="-3.408525">
        <ele>326.0</ele>
        <time>2014-11-15T11:33:39Z</time>
      </trkpt>
      <trkpt lat="54.541943" lon="-3.408323">
        <ele>326.0</ele>
        <time>2014-11-15T11:33:43Z</time>
      </trkpt>
      <trkpt lat="54.54205" lon="-3.408123">
        <ele>327.0</ele>
        <time>2014-11-15T11:33:47Z</time>
      </trkpt>
      <trkpt lat="54.542176" lon="-3.407885">
        <ele>327.0</ele>
        <time>2014-11-15T11:33:51Z</time>
      </trkpt>
      <trkpt lat="54.542333" lon="-3.407691">
        <ele>328.0</ele>
        <time>2014-11-15T11:33:55Z</time>
      </trkpt>
      <trkpt lat="54.542465" lon="-3.407466">
        <ele>329.0</ele>
        <time>2014-11-15T11:33:59Z</time>
      </trkpt>
      <trkpt lat="54.542586" lon="-3.407256">
        <ele>330.0</ele>
        <time>2014-11-15T11:34:03Z</time>
      </trkpt>
      <trkpt lat="54.542671" lon="-3.407016">
        <ele>331.0</ele>
        <time>2014-11-15T11:34:07Z</time>
      </trkpt>
      <trkpt lat="54.542758" lon="-3.406806">
        <ele>332.0</ele>
        <time>2014-11-15T11:34:11Z</time>
      </trkpt>
      <trkpt lat="54.542883" lon="-3.406575">
        <ele>332.0</ele>
        <time>2014-11-15T11:34:15Z</time>
      </trkpt>
      <trkpt lat="54.542986" lon="-3.40639">
        <ele>333.0</ele>
        <time>2014-11-15T11:34:19Z</time>
      </trkpt>
      <trkpt lat="54.543075" lon="-3.406181">
        <ele>334.0</ele>
        <time>2014-11-15T11:34:23Z</time>
      </trkpt>
      <trkpt lat="54.543146" lon="-3.405996">
        <ele>334.0</ele>
        <time>2014-11-15T11:34:27Z</time>
      </trkpt>
      <trkpt lat="54.543195" lon="-3.405795">
        <ele>334.0</ele>
        <time>2014-11-15T11:34:31Z</time>
      </trkpt>
      <trkpt lat="54.543265" lon="-3.405555">
        <ele>335.0</ele>
        <time>2014-11-15T11:34:35Z</time>
      </trkpt>
      <trkpt lat="54.543336" lon="-3.405368">
        <ele>336.0</ele>
        <time>2014-11-15T11:34:39Z</time>
      </trkpt>
      <trkpt lat="54.54341" lon="-3.405128">
        <ele>337.0</ele>
        <time>2014-11-15T11:34:43Z</time>
      </trkpt>
      <trkpt lat="54.543491" lon="-3.404878">
        <ele>337.0</ele>
        <time>2014-11-15T11:34:47Z</time>
      </trkpt>
      <trkpt lat="54.5436" lon="-3.40471">
        <ele>338.0</ele>
        <time>2014-11-15T11:34:51Z</time>
      </trkpt>
      <trkpt lat="54.54369" lon="-3.404528">
        <ele>338.0</ele>
        <time>2014-11-15T11:34:55Z</time>
      </trkpt>
      <trkpt lat="54.543796" lon="-3.404355">
        <ele>339.0</ele>
        <time>2014-11-15T11:34:59Z</time>
      </trkpt>
      <trkpt lat="54.543878" lon="-3.404148">
        <ele>339.0</ele>
        <time>2014-11-15T11:35:03Z</time>
      </trkpt>
      <trkpt lat="54.543928" lon="-3.403946">
        <ele>340.0</ele>
        <time>2014-11-15T11:35:07Z</time>
      </trkpt>
      <trkpt lat="54.54398" lon="-3.403816">
        <ele>340.0</ele>
        <time>2014-11-15T11:35:11Z</time>
      </trkpt>
      <trkpt lat="54.54405" lon="-3.403771">
        <ele>340.0</ele>
        <time>2014-11-15T11:35:15Z</time>
      </trkpt>
      <trkpt lat="54.544056" lon="-3.403743">
        <ele>340.0</ele>
        <time>2014-11-15T11:35:19Z</time>
      </trkpt>
      <trkpt lat="54.544105" lon="-3.403736">
        <ele>340.0</ele>
        <time>2014-11-15T11:35:23Z</time>
      </trkpt>
      <trkpt lat="54.544158" lon="-3.403726">
        <ele>341.0</ele>
        <time>2014-11-15T11:35:27Z</time>
      </trkpt>
      <trkpt lat="54.544198" lon="-3.403731">
        <ele>340.0</ele>
        <time>2014-11-15T11:35:31Z</time>
      </trkpt>
      <trkpt lat="54.544226" lon="-3.403741">
        <ele>339.0</ele>
        <time>2014-11-15T11:35:35Z</time>
      </trkpt>
      <trkpt lat="54.544181" lon="-3.403801">
        <ele>340.0</ele>
        <time>2014-11-15T11:35:39Z</time>
      </trkpt>
      <trkpt lat="54.54414" lon="-3.403773">
        <ele>341.0</ele>
        <time>2014-11-15T11:35:43Z</time>
      </trkpt>
      <trkpt lat="54.544108" lon="-3.403776">
        <ele>340.0</ele>
        <time>2014-11-15T11:35:47Z</time>
      </trkpt>
      <trkpt lat="54.544103" lon="-3.403795">
        <ele>340.0</ele>
        <time>2014-11-15T11:35:51Z</time>
      </trkpt>
      <trkpt lat="54.544075" lon="-3.403778">
        <ele>340.0</ele>
        <time>2014-11-15T11:35:55Z</time>
      </trkpt>
      <trkpt lat="54.544055" lon="-3.403755">
        <ele>340.0</ele>
        <time>2014-11-15T11:35:59Z</time>
      </trkpt>
      <trkpt lat="54.544056" lon="-3.40378">
        <ele>340.0</ele>
        <time>2014-11-15T11:36:03Z</time>
      </trkpt>
      <trkpt lat="54.544048" lon="-3.403808">
        <ele>340.0</ele>
        <time>2014-11-15T11:36:07Z</time>
      </trkpt>
      <trkpt lat="54.544033" lon="-3.403826">
        <ele>341.0</ele>
        <time>2014-11-15T11:36:11Z</time>
      </trkpt>
      <trkpt lat="54.544023" lon="-3.403831">
        <ele>341.0</ele>
        <time>2014-11-15T11:36:15Z</time>
      </trkpt>
      <trkpt lat="54.544051" lon="-3.403826">
        <ele>341.0</ele>
        <time>2014-11-15T11:36:19Z</time>
      </trkpt>
      <trkpt lat="54.544051" lon="-3.403836">
        <ele>340.0</ele>
        <time>2014-11-15T11:36:23Z</time>
      </trkpt>
      <trkpt lat="54.544041" lon="-3.403843">
        <ele>340.0</ele>
        <time>2014-11-15T11:36:27Z</time>
      </trkpt>
      <trkpt lat="54.544015" lon="-3.403833">
        <ele>340.0</ele>
        <time>2014-11-15T11:36:31Z</time>
      </trkpt>
      <trkpt lat="54.544001" lon="-3.40382">
        <ele>340.0</ele>
        <time>2014-11-15T11:36:35Z</time>
      </trkpt>
      <trkpt lat="54.544003" lon="-3.403865">
        <ele>340.0</ele>
        <time>2014-11-15T11:36:39Z</time>
      </trkpt>
      <trkpt lat="54.544016" lon="-3.403836">
        <ele>341.0</ele>
        <time>2014-11-15T11:36:43Z</time>
      </trkpt>
      <trkpt lat="54.544015" lon="-3.40384">
        <ele>340.0</ele>
        <time>2014-11-15T11:36:47Z</time>
      </trkpt>
      <trkpt lat="54.54402" lon="-3.403881">
        <ele>340.0</ele>
        <time>2014-11-15T11:36:51Z</time>
      </trkpt>
      <trkpt lat="54.544005" lon="-3.403858">
        <ele>340.0</ele>
        <time>2014-11-15T11:36:55Z</time>
      </trkpt>
      <trkpt lat="54.544005" lon="-3.40389">
        <ele>340.0</ele>
        <time>2014-11-15T11:36:59Z</time>
      </trkpt>
      <trkpt lat="54.543993" lon="-3.40386">
        <ele>340.0</ele>
        <time>2014-11-15T11:37:03Z</time>
      </trkpt>
      <trkpt lat="54.544006" lon="-3.40384">
        <ele>340.0</ele>
        <time>2014-11-15T11:37:07Z</time>
      </trkpt>
      <trkpt lat="54.544015" lon="-3.403855">
        <ele>341.0</ele>
        <time>2014-11-15T11:37:11Z</time>
      </trkpt>
      <trkpt lat="54.544011" lon="-3.403846">
        <ele>341.0</ele>
        <time>2014-11-15T11:37:15Z</time>
      </trkpt>
      <trkpt lat="54.544036" lon="-3.40387">
        <ele>341.0</ele>
        <time>2014-11-15T11:37:19Z</time>
      </trkpt>
      <trkpt lat="54.544046" lon="-3.403855">
        <ele>340.0</ele>
        <time>2014-11-15T11:37:23Z</time>
      </trkpt>
      <trkpt lat="54.544053" lon="-3.403828">
        <ele>341.0</ele>
        <time>2014-11-15T11:37:27Z</time>
      </trkpt>
      <trkpt lat="54.544058" lon="-3.403806">
        <ele>341.0</ele>
        <time>2014-11-15T11:37:31Z</time>
      </trkpt>
      <trkpt lat="54.544063" lon="-3.403816">
        <ele>341.0</ele>
        <time>2014-11-15T11:37:35Z</time>
      </trkpt>
      <trkpt lat="54.544065" lon="-3.403856">
        <ele>341.0</ele>
        <time>2014-11-15T11:37:39Z</time>
      </trkpt>
      <trkpt lat="54.544048" lon="-3.403873">
        <ele>341.0</ele>
        <time>2014-11-15T11:37:43Z</time>
      </trkpt>
      <trkpt lat="54.544041" lon="-3.40384">
        <ele>341.0</ele>
        <time>2014-11-15T11:37:47Z</time>
      </trkpt>
      <trkpt lat="54.544051" lon="-3.403875">
        <ele>341.0</ele>
        <time>2014-11-15T11:37:51Z</time>
      </trkpt>
      <trkpt lat="54.544035" lon="-3.403881">
        <ele>341.0</ele>
        <time>2014-11-15T11:37:55Z</time>
      </trkpt>
      <trkpt lat="54.54402" lon="-3.403866">
        <ele>341.0</ele>
        <time>2014-11-15T11:37:59Z</time>
      </trkpt>
      <trkpt lat="54.54404" lon="-3.403856">
        <ele>341.0</ele>
        <time>2014-11-15T11:38:03Z</time>
      </trkpt>
      <trkpt lat="54.544008" lon="-3.403861">
        <ele>341.0</ele>
        <time>2014-11-15T11:38:07Z</time>
      </trkpt>
      <trkpt lat="54.544008" lon="-3.403841">
        <ele>341.0</ele>
        <time>2014-11-15T11:38:11Z</time>
      </trkpt>
      <trkpt lat="54.544008" lon="-3.403816">
        <ele>341.0</ele>
        <time>2014-11-15T11:38:15Z</time>
      </trkpt>
      <trkpt lat="54.544" lon="-3.403808">
        <ele>341.0</ele>
        <time>2014-11-15T11:38:19Z</time>
      </trkpt>
      <trkpt lat="54.544011" lon="-3.403823">
        <ele>341.0</ele>
        <time>2014-11-15T11:38:23Z</time>
      </trkpt>
      <trkpt lat="54.544021" lon="-3.403795">
        <ele>341.0</ele>
        <time>2014-11-15T11:38:27Z</time>
      </trkpt>
      <trkpt lat="54.544018" lon="-3.403805">
        <ele>341.0</ele>
        <time>2014-11-15T11:38:31Z</time>
      </trkpt>
      <trkpt lat="54.543981" lon="-3.40381">
        <ele>341.0</ele>
        <time>2014-11-15T11:38:35Z</time>
      </trkpt>
      <trkpt lat="54.543981" lon="-3.403856">
        <ele>341.0</ele>
        <time>2014-11-15T11:38:39Z</time>
      </trkpt>
      <trkpt lat="54.544001" lon="-3.403858">
        <ele>341.0</ele>
        <time>2014-11-15T11:38:43Z</time>
      </trkpt>
      <trkpt lat="54.543995" lon="-3.403846">
        <ele>341.0</ele>
        <time>2014-11-15T11:38:47Z</time>
      </trkpt>
      <trkpt lat="54.544021" lon="-3.403858">
        <ele>341.0</ele>
        <time>2014-11-15T11:38:51Z</time>
      </trkpt>
      <trkpt lat="54.544035" lon="-3.403841">
        <ele>341.0</ele>
        <time>2014-11-15T11:38:55Z</time>
      </trkpt>
      <trkpt lat="54.544051" lon="-3.403813">
        <ele>341.0</ele>
        <time>2014-11-15T11:38:59Z</time>
      </trkpt>
      <trkpt lat="54.544075" lon="-3.403813">
        <ele>342.0</ele>
        <time>2014-11-15T11:39:03Z</time>
      </trkpt>
      <trkpt lat="54.544101" lon="-3.403761">
        <ele>344.0</ele>
        <time>2014-11-15T11:39:07Z</time>
      </trkpt>
      <trkpt lat="54.544108" lon="-3.403748">
        <ele>341.0</ele>
        <time>2014-11-15T11:39:11Z</time>
      </trkpt>
      <trkpt lat="54.544133" lon="-3.403765">
        <ele>341.0</ele>
        <time>2014-11-15T11:39:15Z</time>
      </trkpt>
      <trkpt lat="54.544168" lon="-3.403765">
        <ele>341.0</ele>
        <time>2014-11-15T11:39:19Z</time>
      </trkpt>
      <trkpt lat="54.544193" lon="-3.403768">
        <ele>341.0</ele>
        <time>2014-11-15T11:39:23Z</time>
      </trkpt>
      <trkpt lat="54.544223" lon="-3.403768">
        <ele>341.0</ele>
        <time>2014-11-15T11:39:27Z</time>
      </trkpt>
      <trkpt lat="54.544246" lon="-3.403771">
        <ele>341.0</ele>
        <time>2014-11-15T11:39:31Z</time>
      </trkpt>
      <trkpt lat="54.54422" lon="-3.403778">
        <ele>341.0</ele>
        <time>2014-11-15T11:39:35Z</time>
      </trkpt>
      <trkpt lat="54.544156" lon="-3.403761">
        <ele>341.0</ele>
        <time>2014-11-15T11:39:39Z</time>
      </trkpt>
      <trkpt lat="54.544076" lon="-3.40377">
        <ele>341.0</ele>
        <time>2014-11-15T11:39:43Z</time>
      </trkpt>
      <trkpt lat="54.544045" lon="-3.40379">
        <ele>341.0</ele>
        <time>2014-11-15T11:39:47Z</time>
      </trkpt>
      <trkpt lat="54.544065" lon="-3.403816">
        <ele>341.0</ele>
        <time>2014-11-15T11:39:51Z</time>
      </trkpt>
      <trkpt lat="54.54409" lon="-3.403821">
        <ele>341.0</ele>
        <time>2014-11-15T11:39:55Z</time>
      </trkpt>
      <trkpt lat="54.544075" lon="-3.403818">
        <ele>341.0</ele>
        <time>2014-11-15T11:39:59Z</time>
      </trkpt>
      <trkpt lat="54.544076" lon="-3.403805">
        <ele>341.0</ele>
        <time>2014-11-15T11:40:03Z</time>
      </trkpt>
      <trkpt lat="54.544078" lon="-3.403783">
        <ele>341.0</ele>
        <time>2014-11-15T11:40:07Z</time>
      </trkpt>
      <trkpt lat="54.544068" lon="-3.403778">
        <ele>341.0</ele>
        <time>2014-11-15T11:40:11Z</time>
      </trkpt>
      <trkpt lat="54.544065" lon="-3.403745">
        <ele>341.0</ele>
        <time>2014-11-15T11:40:15Z</time>
      </trkpt>
      <trkpt lat="54.544066" lon="-3.403711">
        <ele>342.0</ele>
        <time>2014-11-15T11:40:19Z</time>
      </trkpt>
      <trkpt lat="54.544086" lon="-3.403658">
        <ele>342.0</ele>
        <time>2014-11-15T11:40:23Z</time>
      </trkpt>
      <trkpt lat="54.544108" lon="-3.403588">
        <ele>341.0</ele>
        <time>2014-11-15T11:40:27Z</time>
      </trkpt>
      <trkpt lat="54.54415" lon="-3.403391">
        <ele>342.0</ele>
        <time>2014-11-15T11:40:31Z</time>
      </trkpt>
      <trkpt lat="54.544163" lon="-3.403231">
        <ele>343.0</ele>
        <time>2014-11-15T11:40:35Z</time>
      </trkpt>
      <trkpt lat="54.54424" lon="-3.403061">
        <ele>344.0</ele>
        <time>2014-11-15T11:40:39Z</time>
      </trkpt>
      <trkpt lat="54.544345" lon="-3.40289">
        <ele>344.0</ele>
        <time>2014-11-15T11:40:43Z</time>
      </trkpt>
      <trkpt lat="54.544446" lon="-3.402638">
        <ele>345.0</ele>
        <time>2014-11-15T11:40:47Z</time>
      </trkpt>
      <trkpt lat="54.544448" lon="-3.402383">
        <ele>345.0</ele>
        <time>2014-11-15T11:40:51Z</time>
      </trkpt>
      <trkpt lat="54.544458" lon="-3.40236">
        <ele>346.0</ele>
        <time>2014-11-15T11:40:55Z</time>
      </trkpt>
      <trkpt lat="54.544353" lon="-3.402155">
        <ele>347.0</ele>
        <time>2014-11-15T11:40:59Z</time>
      </trkpt>
      <trkpt lat="54.544276" lon="-3.402">
        <ele>347.0</ele>
        <time>2014-11-15T11:41:03Z</time>
      </trkpt>
      <trkpt lat="54.544138" lon="-3.401756">
        <ele>348.0</ele>
        <time>2014-11-15T11:41:07Z</time>
      </trkpt>
      <trkpt lat="54.544015" lon="-3.401581">
        <ele>349.0</ele>
        <time>2014-11-15T11:41:11Z</time>
      </trkpt>
      <trkpt lat="54.543911" lon="-3.401436">
        <ele>350.0</ele>
        <time>2014-11-15T11:41:15Z</time>
      </trkpt>
      <trkpt lat="54.543818" lon="-3.40128">
        <ele>351.0</ele>
        <time>2014-11-15T11:41:19Z</time>
      </trkpt>
      <trkpt lat="54.543703" lon="-3.401083">
        <ele>351.0</ele>
        <time>2014-11-15T11:41:23Z</time>
      </trkpt>
      <trkpt lat="54.543495" lon="-3.400948">
        <ele>351.0</ele>
        <time>2014-11-15T11:41:27Z</time>
      </trkpt>
      <trkpt lat="54.543261" lon="-3.400701">
        <ele>350.0</ele>
        <time>2014-11-15T11:41:31Z</time>
      </trkpt>
      <trkpt lat="54.543013" lon="-3.400365">
        <ele>347.0</ele>
        <time>2014-11-15T11:41:35Z</time>
      </trkpt>
      <trkpt lat="54.542683" lon="-3.400141">
        <ele>344.0</ele>
        <time>2014-11-15T11:41:39Z</time>
      </trkpt>
      <trkpt lat="54.542355" lon="-3.399793">
        <ele>343.0</ele>
        <time>2014-11-15T11:41:43Z</time>
      </trkpt>
      <trkpt lat="54.542046" lon="-3.399503">
        <ele>341.0</ele>
        <time>2014-11-15T11:41:47Z</time>
      </trkpt>
      <trkpt lat="54.54175" lon="-3.39936">
        <ele>341.0</ele>
        <time>2014-11-15T11:41:51Z</time>
      </trkpt>
      <trkpt lat="54.541551" lon="-3.399298">
        <ele>341.0</ele>
        <time>2014-11-15T11:41:55Z</time>
      </trkpt>
      <trkpt lat="54.541368" lon="-3.399231">
        <ele>341.0</ele>
        <time>2014-11-15T11:41:59Z</time>
      </trkpt>
      <trkpt lat="54.541263" lon="-3.399175">
        <ele>341.0</ele>
        <time>2014-11-15T11:42:03Z</time>
      </trkpt>
      <trkpt lat="54.541191" lon="-3.399141">
        <ele>341.0</ele>
        <time>2014-11-15T11:42:07Z</time>
      </trkpt>
      <trkpt lat="54.541081" lon="-3.399101">
        <ele>341.0</ele>
        <time>2014-11-15T11:42:11Z</time>
      </trkpt>
      <trkpt lat="54.54092" lon="-3.398965">
        <ele>342.0</ele>
        <time>2014-11-15T11:42:15Z</time>
      </trkpt>
      <trkpt lat="54.540801" lon="-3.39885">
        <ele>342.0</ele>
        <time>2014-11-15T11:42:19Z</time>
      </trkpt>
      <trkpt lat="54.540753" lon="-3.398793">
        <ele>343.0</ele>
        <time>2014-11-15T11:42:23Z</time>
      </trkpt>
      <trkpt lat="54.540696" lon="-3.398625">
        <ele>343.0</ele>
        <time>2014-11-15T11:42:27Z</time>
      </trkpt>
      <trkpt lat="54.54057" lon="-3.398468">
        <ele>343.0</ele>
        <time>2014-11-15T11:42:31Z</time>
      </trkpt>
      <trkpt lat="54.540433" lon="-3.398258">
        <ele>343.0</ele>
        <time>2014-11-15T11:42:35Z</time>
      </trkpt>
      <trkpt lat="54.540325" lon="-3.397985">
        <ele>344.0</ele>
        <time>2014-11-15T11:42:39Z</time>
      </trkpt>
      <trkpt lat="54.540203" lon="-3.397728">
        <ele>344.0</ele>
        <time>2014-11-15T11:42:43Z</time>
      </trkpt>
      <trkpt lat="54.540078" lon="-3.397438">
        <ele>345.0</ele>
        <time>2014-11-15T11:42:47Z</time>
      </trkpt>
      <trkpt lat="54.539941" lon="-3.397198">
        <ele>347.0</ele>
        <time>2014-11-15T11:42:51Z</time>
      </trkpt>
      <trkpt lat="54.539791" lon="-3.396936">
        <ele>347.0</ele>
        <time>2014-11-15T11:42:55Z</time>
      </trkpt>
      <trkpt lat="54.539683" lon="-3.396658">
        <ele>347.0</ele>
        <time>2014-11-15T11:42:59Z</time>
      </trkpt>
      <trkpt lat="54.539538" lon="-3.396338">
        <ele>348.0</ele>
        <time>2014-11-15T11:43:03Z</time>
      </trkpt>
      <trkpt lat="54.539416" lon="-3.396046">
        <ele>349.0</ele>
        <time>2014-11-15T11:43:07Z</time>
      </trkpt>
      <trkpt lat="54.539225" lon="-3.395783">
        <ele>349.0</ele>
        <time>2014-11-15T11:43:11Z</time>
      </trkpt>
      <trkpt lat="54.539053" lon="-3.395565">
        <ele>350.0</ele>
        <time>2014-11-15T11:43:15Z</time>
      </trkpt>
      <trkpt lat="54.538876" lon="-3.395318">
        <ele>350.0</ele>
        <time>2014-11-15T11:43:19Z</time>
      </trkpt>
      <trkpt lat="54.538776" lon="-3.395143">
        <ele>351.0</ele>
        <time>2014-11-15T11:43:23Z</time>
      </trkpt>
      <trkpt lat="54.53866" lon="-3.395053">
        <ele>352.0</ele>
        <time>2014-11-15T11:43:27Z</time>
      </trkpt>
      <trkpt lat="54.5385" lon="-3.39506">
        <ele>352.0</ele>
        <time>2014-11-15T11:43:31Z</time>
      </trkpt>
      <trkpt lat="54.538318" lon="-3.395226">
        <ele>351.0</ele>
        <time>2014-11-15T11:43:35Z</time>
      </trkpt>
      <trkpt lat="54.538061" lon="-3.395161">
        <ele>351.0</ele>
        <time>2014-11-15T11:43:39Z</time>
      </trkpt>
      <trkpt lat="54.537776" lon="-3.394961">
        <ele>350.0</ele>
        <time>2014-11-15T11:43:43Z</time>
      </trkpt>
      <trkpt lat="54.537473" lon="-3.394646">
        <ele>348.0</ele>
        <time>2014-11-15T11:43:47Z</time>
      </trkpt>
      <trkpt lat="54.53715" lon="-3.39436">
        <ele>345.0</ele>
        <time>2014-11-15T11:43:51Z</time>
      </trkpt>
      <trkpt lat="54.537051" lon="-3.393931">
        <ele>344.0</ele>
        <time>2014-11-15T11:43:55Z</time>
      </trkpt>
      <trkpt lat="54.537041" lon="-3.39346">
        <ele>344.0</ele>
        <time>2014-11-15T11:43:59Z</time>
      </trkpt>
      <trkpt lat="54.536963" lon="-3.393016">
        <ele>343.0</ele>
        <time>2014-11-15T11:44:03Z</time>
      </trkpt>
      <trkpt lat="54.536838" lon="-3.392598">
        <ele>343.0</ele>
        <time>2014-11-15T11:44:07Z</time>
      </trkpt>
      <trkpt lat="54.536718" lon="-3.392208">
        <ele>344.0</ele>
        <time>2014-11-15T11:44:11Z</time>
      </trkpt>
      <trkpt lat="54.536611" lon="-3.391898">
        <ele>343.0</ele>
        <time>2014-11-15T11:44:15Z</time>
      </trkpt>
      <trkpt lat="54.536488" lon="-3.391535">
        <ele>343.0</ele>
        <time>2014-11-15T11:44:19Z</time>
      </trkpt>
      <trkpt lat="54.536328" lon="-3.391265">
        <ele>343.0</ele>
        <time>2014-11-15T11:44:23Z</time>
      </trkpt>
      <trkpt lat="54.536076" lon="-3.39118">
        <ele>342.0</ele>
        <time>2014-11-15T11:44:27Z</time>
      </trkpt>
      <trkpt lat="54.535755" lon="-3.391016">
        <ele>340.0</ele>
        <time>2014-11-15T11:44:31Z</time>
      </trkpt>
      <trkpt lat="54.535465" lon="-3.390616">
        <ele>336.0</ele>
        <time>2014-11-15T11:44:35Z</time>
      </trkpt>
      <trkpt lat="54.535225" lon="-3.390346">
        <ele>330.0</ele>
        <time>2014-11-15T11:44:39Z</time>
      </trkpt>
      <trkpt lat="54.535023" lon="-3.389873">
        <ele>328.0</ele>
        <time>2014-11-15T11:44:43Z</time>
      </trkpt>
      <trkpt lat="54.534883" lon="-3.389296">
        <ele>325.0</ele>
        <time>2014-11-15T11:44:47Z</time>
      </trkpt>
      <trkpt lat="54.534901" lon="-3.388711">
        <ele>323.0</ele>
        <time>2014-11-15T11:44:51Z</time>
      </trkpt>
      <trkpt lat="54.53493" lon="-3.388333">
        <ele>323.0</ele>
        <time>2014-11-15T11:44:55Z</time>
      </trkpt>
      <trkpt lat="54.534873" lon="-3.38782">
        <ele>323.0</ele>
        <time>2014-11-15T11:44:59Z</time>
      </trkpt>
      <trkpt lat="54.53473" lon="-3.387425">
        <ele>322.0</ele>
        <time>2014-11-15T11:45:03Z</time>
      </trkpt>
      <trkpt lat="54.534756" lon="-3.387056">
        <ele>322.0</ele>
        <time>2014-11-15T11:45:07Z</time>
      </trkpt>
      <trkpt lat="54.534793" lon="-3.386453">
        <ele>322.0</ele>
        <time>2014-11-15T11:45:11Z</time>
      </trkpt>
      <trkpt lat="54.53475" lon="-3.386005">
        <ele>321.0</ele>
        <time>2014-11-15T11:45:15Z</time>
      </trkpt>
      <trkpt lat="54.534656" lon="-3.385611">
        <ele>322.0</ele>
        <time>2014-11-15T11:45:19Z</time>
      </trkpt>
      <trkpt lat="54.534441" lon="-3.385311">
        <ele>321.0</ele>
        <time>2014-11-15T11:45:23Z</time>
      </trkpt>
      <trkpt lat="54.534231" lon="-3.384885">
        <ele>320.0</ele>
        <time>2014-11-15T11:45:27Z</time>
      </trkpt>
      <trkpt lat="54.53407" lon="-3.384425">
        <ele>317.0</ele>
        <time>2014-11-15T11:45:31Z</time>
      </trkpt>
      <trkpt lat="54.534" lon="-3.384015">
        <ele>317.0</ele>
        <time>2014-11-15T11:45:35Z</time>
      </trkpt>
      <trkpt lat="54.533958" lon="-3.383565">
        <ele>319.0</ele>
        <time>2014-11-15T11:45:39Z</time>
      </trkpt>
      <trkpt lat="54.53391" lon="-3.383113">
        <ele>319.0</ele>
        <time>2014-11-15T11:45:43Z</time>
      </trkpt>
      <trkpt lat="54.53386" lon="-3.38265">
        <ele>321.0</ele>
        <time>2014-11-15T11:45:47Z</time>
      </trkpt>
      <trkpt lat="54.533745" lon="-3.382205">
        <ele>320.0</ele>
        <time>2014-11-15T11:45:51Z</time>
      </trkpt>
      <trkpt lat="54.533551" lon="-3.381781">
        <ele>320.0</ele>
        <time>2014-11-15T11:45:55Z</time>
      </trkpt>
      <trkpt lat="54.533468" lon="-3.381546">
        <ele>321.0</ele>
        <time>2014-11-15T11:45:59Z</time>
      </trkpt>
      <trkpt lat="54.533281" lon="-3.381198">
        <ele>321.0</ele>
        <time>2014-11-15T11:46:03Z</time>
      </trkpt>
      <trkpt lat="54.533086" lon="-3.380891">
        <ele>320.0</ele>
        <time>2014-11-15T11:46:07Z</time>
      </trkpt>
      <trkpt lat="54.532846" lon="-3.38056">
        <ele>319.0</ele>
        <time>2014-11-15T11:46:11Z</time>
      </trkpt>
      <trkpt lat="54.532616" lon="-3.380135">
        <ele>317.0</ele>
        <time>2014-11-15T11:46:15Z</time>
      </trkpt>
      <trkpt lat="54.532465" lon="-3.37961">
        <ele>315.0</ele>
        <time>2014-11-15T11:46:19Z</time>
      </trkpt>
      <trkpt lat="54.532125" lon="-3.379356">
        <ele>313.0</ele>
        <time>2014-11-15T11:46:23Z</time>
      </trkpt>
      <trkpt lat="54.53175" lon="-3.379006">
        <ele>309.0</ele>
        <time>2014-11-15T11:46:27Z</time>
      </trkpt>
      <trkpt lat="54.531538" lon="-3.378451">
        <ele>306.0</ele>
        <time>2014-11-15T11:46:31Z</time>
      </trkpt>
      <trkpt lat="54.531348" lon="-3.377921">
        <ele>305.0</ele>
        <time>2014-11-15T11:46:35Z</time>
      </trkpt>
      <trkpt lat="54.531158" lon="-3.37744">
        <ele>304.0</ele>
        <time>2014-11-15T11:46:39Z</time>
      </trkpt>
      <trkpt lat="54.53097" lon="-3.37711">
        <ele>305.0</ele>
        <time>2014-11-15T11:46:43Z</time>
      </trkpt>
      <trkpt lat="54.530728" lon="-3.377018">
        <ele>306.0</ele>
        <time>2014-11-15T11:46:47Z</time>
      </trkpt>
      <trkpt lat="54.530431" lon="-3.377011">
        <ele>306.0</ele>
        <time>2014-11-15T11:46:51Z</time>
      </trkpt>
      <trkpt lat="54.530138" lon="-3.377281">
        <ele>305.0</ele>
        <time>2014-11-15T11:46:55Z</time>
      </trkpt>
      <trkpt lat="54.529848" lon="-3.377621">
        <ele>303.0</ele>
        <time>2014-11-15T11:46:59Z</time>
      </trkpt>
      <trkpt lat="54.529583" lon="-3.377866">
        <ele>302.0</ele>
        <time>2014-11-15T11:47:03Z</time>
      </trkpt>
      <trkpt lat="54.529303" lon="-3.378078">
        <ele>303.0</ele>
        <time>2014-11-15T11:47:07Z</time>
      </trkpt>
      <trkpt lat="54.529068" lon="-3.378285">
        <ele>304.0</ele>
        <time>2014-11-15T11:47:11Z</time>
      </trkpt>
      <trkpt lat="54.528856" lon="-3.378443">
        <ele>305.0</ele>
        <time>2014-11-15T11:47:15Z</time>
      </trkpt>
      <trkpt lat="54.528581" lon="-3.378551">
        <ele>305.0</ele>
        <time>2014-11-15T11:47:19Z</time>
      </trkpt>
      <trkpt lat="54.528331" lon="-3.378511">
        <ele>305.0</ele>
        <time>2014-11-15T11:47:23Z</time>
      </trkpt>
      <trkpt lat="54.528116" lon="-3.378465">
        <ele>305.0</ele>
        <time>2014-11-15T11:47:27Z</time>
      </trkpt>
      <trkpt lat="54.527855" lon="-3.378418">
        <ele>305.0</ele>
        <time>2014-11-15T11:47:31Z</time>
      </trkpt>
      <trkpt lat="54.527551" lon="-3.378438">
        <ele>305.0</ele>
        <time>2014-11-15T11:47:35Z</time>
      </trkpt>
      <trkpt lat="54.527338" lon="-3.378325">
        <ele>305.0</ele>
        <time>2014-11-15T11:47:39Z</time>
      </trkpt>
      <trkpt lat="54.527158" lon="-3.378203">
        <ele>305.0</ele>
        <time>2014-11-15T11:47:43Z</time>
      </trkpt>
      <trkpt lat="54.526901" lon="-3.378165">
        <ele>306.0</ele>
        <time>2014-11-15T11:47:47Z</time>
      </trkpt>
      <trkpt lat="54.52666" lon="-3.378113">
        <ele>307.0</ele>
        <time>2014-11-15T11:47:51Z</time>
      </trkpt>
      <trkpt lat="54.526426" lon="-3.377938">
        <ele>307.0</ele>
        <time>2014-11-15T11:47:55Z</time>
      </trkpt>
      <trkpt lat="54.526238" lon="-3.377755">
        <ele>308.0</ele>
        <time>2014-11-15T11:47:59Z</time>
      </trkpt>
      <trkpt lat="54.526096" lon="-3.377655">
        <ele>308.0</ele>
        <time>2014-11-15T11:48:03Z</time>
      </trkpt>
      <trkpt lat="54.525985" lon="-3.377715">
        <ele>309.0</ele>
        <time>2014-11-15T11:48:07Z</time>
      </trkpt>
      <trkpt lat="54.525901" lon="-3.377688">
        <ele>309.0</ele>
        <time>2014-11-15T11:48:11Z</time>
      </trkpt>
      <trkpt lat="54.525863" lon="-3.377615">
        <ele>309.0</ele>
        <time>2014-11-15T11:48:15Z</time>
      </trkpt>
      <trkpt lat="54.525766" lon="-3.377655">
        <ele>310.0</ele>
        <time>2014-11-15T11:48:19Z</time>
      </trkpt>
      <trkpt lat="54.525738" lon="-3.377586">
        <ele>311.0</ele>
        <time>2014-11-15T11:48:23Z</time>
      </trkpt>
      <trkpt lat="54.525743" lon="-3.377691">
        <ele>310.0</ele>
        <time>2014-11-15T11:48:27Z</time>
      </trkpt>
      <trkpt lat="54.525701" lon="-3.377715">
        <ele>310.0</ele>
        <time>2014-11-15T11:48:31Z</time>
      </trkpt>
      <trkpt lat="54.525718" lon="-3.377715">
        <ele>311.0</ele>
        <time>2014-11-15T11:48:35Z</time>
      </trkpt>
      <trkpt lat="54.525728" lon="-3.377683">
        <ele>310.0</ele>
        <time>2014-11-15T11:48:39Z</time>
      </trkpt>
      <trkpt lat="54.525753" lon="-3.377653">
        <ele>310.0</ele>
        <time>2014-11-15T11:48:43Z</time>
      </trkpt>
      <trkpt lat="54.52577" lon="-3.377648">
        <ele>310.0</ele>
        <time>2014-11-15T11:48:47Z</time>
      </trkpt>
      <trkpt lat="54.525743" lon="-3.377713">
        <ele>310.0</ele>
        <time>2014-11-15T11:48:51Z</time>
      </trkpt>
      <trkpt lat="54.525725" lon="-3.37771">
        <ele>310.0</ele>
        <time>2014-11-15T11:48:55Z</time>
      </trkpt>
      <trkpt lat="54.525733" lon="-3.377686">
        <ele>310.0</ele>
        <time>2014-11-15T11:48:59Z</time>
      </trkpt>
      <trkpt lat="54.525746" lon="-3.377688">
        <ele>310.0</ele>
        <time>2014-11-15T11:49:03Z</time>
      </trkpt>
      <trkpt lat="54.525781" lon="-3.37765">
        <ele>310.0</ele>
        <time>2014-11-15T11:49:07Z</time>
      </trkpt>
      <trkpt lat="54.525751" lon="-3.377673">
        <ele>310.0</ele>
        <time>2014-11-15T11:49:11Z</time>
      </trkpt>
      <trkpt lat="54.525731" lon="-3.377641">
        <ele>310.0</ele>
        <time>2014-11-15T11:49:15Z</time>
      </trkpt>
      <trkpt lat="54.525723" lon="-3.37764">
        <ele>310.0</ele>
        <time>2014-11-15T11:49:19Z</time>
      </trkpt>
      <trkpt lat="54.52573" lon="-3.377641">
        <ele>311.0</ele>
        <time>2014-11-15T11:49:23Z</time>
      </trkpt>
      <trkpt lat="54.525725" lon="-3.377681">
        <ele>310.0</ele>
        <time>2014-11-15T11:49:27Z</time>
      </trkpt>
      <trkpt lat="54.525706" lon="-3.37769">
        <ele>310.0</ele>
        <time>2014-11-15T11:49:31Z</time>
      </trkpt>
      <trkpt lat="54.5257" lon="-3.377718">
        <ele>310.0</ele>
        <time>2014-11-15T11:49:35Z</time>
      </trkpt>
      <trkpt lat="54.525705" lon="-3.377703">
        <ele>310.0</ele>
        <time>2014-11-15T11:49:39Z</time>
      </trkpt>
      <trkpt lat="54.525681" lon="-3.377701">
        <ele>310.0</ele>
        <time>2014-11-15T11:49:43Z</time>
      </trkpt>
      <trkpt lat="54.525665" lon="-3.37767">
        <ele>310.0</ele>
        <time>2014-11-15T11:49:47Z</time>
      </trkpt>
      <trkpt lat="54.52572" lon="-3.377655">
        <ele>310.0</ele>
        <time>2014-11-15T11:49:51Z</time>
      </trkpt>
      <trkpt lat="54.525741" lon="-3.377606">
        <ele>310.0</ele>
        <time>2014-11-15T11:49:55Z</time>
      </trkpt>
      <trkpt lat="54.525781" lon="-3.377568">
        <ele>310.0</ele>
        <time>2014-11-15T11:49:59Z</time>
      </trkpt>
      <trkpt lat="54.525783" lon="-3.377545">
        <ele>310.0</ele>
        <time>2014-11-15T11:50:03Z</time>
      </trkpt>
      <trkpt lat="54.525781" lon="-3.37754">
        <ele>310.0</ele>
        <time>2014-11-15T11:50:07Z</time>
      </trkpt>
      <trkpt lat="54.525768" lon="-3.37756">
        <ele>310.0</ele>
        <time>2014-11-15T11:50:11Z</time>
      </trkpt>
      <trkpt lat="54.525736" lon="-3.377576">
        <ele>310.0</ele>
        <time>2014-11-15T11:50:15Z</time>
      </trkpt>
      <trkpt lat="54.525686" lon="-3.377675">
        <ele>310.0</ele>
        <time>2014-11-15T11:50:19Z</time>
      </trkpt>
      <trkpt lat="54.525661" lon="-3.377705">
        <ele>311.0</ele>
        <time>2014-11-15T11:50:23Z</time>
      </trkpt>
      <trkpt lat="54.525678" lon="-3.3777">
        <ele>310.0</ele>
        <time>2014-11-15T11:50:27Z</time>
      </trkpt>
      <trkpt lat="54.52572" lon="-3.377703">
        <ele>310.0</ele>
        <time>2014-11-15T11:50:31Z</time>
      </trkpt>
      <trkpt lat="54.525711" lon="-3.377738">
        <ele>310.0</ele>
        <time>2014-11-15T11:50:35Z</time>
      </trkpt>
      <trkpt lat="54.525676" lon="-3.37777">
        <ele>310.0</ele>
        <time>2014-11-15T11:50:39Z</time>
      </trkpt>
      <trkpt lat="54.525638" lon="-3.377823">
        <ele>310.0</ele>
        <time>2014-11-15T11:50:43Z</time>
      </trkpt>
      <trkpt lat="54.525656" lon="-3.37781">
        <ele>310.0</ele>
        <time>2014-11-15T11:50:47Z</time>
      </trkpt>
      <trkpt lat="54.525693" lon="-3.377791">
        <ele>310.0</ele>
        <time>2014-11-15T11:50:51Z</time>
      </trkpt>
      <trkpt lat="54.525721" lon="-3.3778">
        <ele>310.0</ele>
        <time>2014-11-15T11:50:55Z</time>
      </trkpt>
      <trkpt lat="54.525701" lon="-3.377786">
        <ele>310.0</ele>
        <time>2014-11-15T11:50:59Z</time>
      </trkpt>
      <trkpt lat="54.52572" lon="-3.377746">
        <ele>310.0</ele>
        <time>2014-11-15T11:51:03Z</time>
      </trkpt>
      <trkpt lat="54.52574" lon="-3.377775">
        <ele>310.0</ele>
        <time>2014-11-15T11:51:07Z</time>
      </trkpt>
      <trkpt lat="54.525731" lon="-3.377813">
        <ele>310.0</ele>
        <time>2014-11-15T11:51:11Z</time>
      </trkpt>
      <trkpt lat="54.525686" lon="-3.377823">
        <ele>310.0</ele>
        <time>2014-11-15T11:51:15Z</time>
      </trkpt>
      <trkpt lat="54.525685" lon="-3.377826">
        <ele>310.0</ele>
        <time>2014-11-15T11:51:19Z</time>
      </trkpt>
      <trkpt lat="54.525681" lon="-3.377835">
        <ele>310.0</ele>
        <time>2014-11-15T11:51:23Z</time>
      </trkpt>
      <trkpt lat="54.525685" lon="-3.37784">
        <ele>310.0</ele>
        <time>2014-11-15T11:51:27Z</time>
      </trkpt>
      <trkpt lat="54.525711" lon="-3.377825">
        <ele>310.0</ele>
        <time>2014-11-15T11:51:31Z</time>
      </trkpt>
      <trkpt lat="54.525746" lon="-3.377783">
        <ele>310.0</ele>
        <time>2014-11-15T11:51:35Z</time>
      </trkpt>
      <trkpt lat="54.525771" lon="-3.377763">
        <ele>310.0</ele>
        <time>2014-11-15T11:51:39Z</time>
      </trkpt>
      <trkpt lat="54.525756" lon="-3.37777">
        <ele>310.0</ele>
        <time>2014-11-15T11:51:43Z</time>
      </trkpt>
      <trkpt lat="54.525721" lon="-3.377776">
        <ele>310.0</ele>
        <time>2014-11-15T11:51:47Z</time>
      </trkpt>
      <trkpt lat="54.525721" lon="-3.377765">
        <ele>310.0</ele>
        <time>2014-11-15T11:51:51Z</time>
      </trkpt>
      <trkpt lat="54.525661" lon="-3.377805">
        <ele>310.0</ele>
        <time>2014-11-15T11:51:55Z</time>
      </trkpt>
      <trkpt lat="54.52564" lon="-3.377835">
        <ele>310.0</ele>
        <time>2014-11-15T11:51:59Z</time>
      </trkpt>
      <trkpt lat="54.525708" lon="-3.377723">
        <ele>309.0</ele>
        <time>2014-11-15T11:52:03Z</time>
      </trkpt>
      <trkpt lat="54.525663" lon="-3.377751">
        <ele>310.0</ele>
        <time>2014-11-15T11:52:07Z</time>
      </trkpt>
      <trkpt lat="54.525738" lon="-3.37773">
        <ele>310.0</ele>
        <time>2014-11-15T11:52:11Z</time>
      </trkpt>
      <trkpt lat="54.525775" lon="-3.377745">
        <ele>310.0</ele>
        <time>2014-11-15T11:52:15Z</time>
      </trkpt>
      <trkpt lat="54.525745" lon="-3.377741">
        <ele>310.0</ele>
        <time>2014-11-15T11:52:19Z</time>
      </trkpt>
      <trkpt lat="54.525735" lon="-3.37775">
        <ele>310.0</ele>
        <time>2014-11-15T11:52:23Z</time>
      </trkpt>
      <trkpt lat="54.525735" lon="-3.37781">
        <ele>310.0</ele>
        <time>2014-11-15T11:52:27Z</time>
      </trkpt>
      <trkpt lat="54.525698" lon="-3.377833">
        <ele>310.0</ele>
        <time>2014-11-15T11:52:31Z</time>
      </trkpt>
      <trkpt lat="54.525721" lon="-3.377808">
        <ele>310.0</ele>
        <time>2014-11-15T11:52:35Z</time>
      </trkpt>
      <trkpt lat="54.525731" lon="-3.377785">
        <ele>309.0</ele>
        <time>2014-11-15T11:52:39Z</time>
      </trkpt>
      <trkpt lat="54.525766" lon="-3.377741">
        <ele>309.0</ele>
        <time>2014-11-15T11:52:43Z</time>
      </trkpt>
      <trkpt lat="54.525823" lon="-3.377705">
        <ele>309.0</ele>
        <time>2014-11-15T11:52:47Z</time>
      </trkpt>
      <trkpt lat="54.525856" lon="-3.3777">
        <ele>309.0</ele>
        <time>2014-11-15T11:52:51Z</time>
      </trkpt>
      <trkpt lat="54.525768" lon="-3.377641">
        <ele>309.0</ele>
        <time>2014-11-15T11:52:55Z</time>
      </trkpt>
      <trkpt lat="54.525753" lon="-3.377646">
        <ele>309.0</ele>
        <time>2014-11-15T11:52:59Z</time>
      </trkpt>
      <trkpt lat="54.525723" lon="-3.377686">
        <ele>309.0</ele>
        <time>2014-11-15T11:53:03Z</time>
      </trkpt>
      <trkpt lat="54.52574" lon="-3.37766">
        <ele>310.0</ele>
        <time>2014-11-15T11:53:07Z</time>
      </trkpt>
      <trkpt lat="54.525688" lon="-3.377668">
        <ele>309.0</ele>
        <time>2014-11-15T11:53:11Z</time>
      </trkpt>
      <trkpt lat="54.525703" lon="-3.37762">
        <ele>309.0</ele>
        <time>2014-11-15T11:53:15Z</time>
      </trkpt>
      <trkpt lat="54.525683" lon="-3.377661">
        <ele>309.0</ele>
        <time>2014-11-15T11:53:19Z</time>
      </trkpt>
      <trkpt lat="54.525673" lon="-3.37767">
        <ele>309.0</ele>
        <time>2014-11-15T11:53:23Z</time>
      </trkpt>
      <trkpt lat="54.525686" lon="-3.377718">
        <ele>309.0</ele>
        <time>2014-11-15T11:53:27Z</time>
      </trkpt>
      <trkpt lat="54.525665" lon="-3.37777">
        <ele>309.0</ele>
        <time>2014-11-15T11:53:31Z</time>
      </trkpt>
      <trkpt lat="54.525636" lon="-3.377806">
        <ele>309.0</ele>
        <time>2014-11-15T11:53:35Z</time>
      </trkpt>
      <trkpt lat="54.525686" lon="-3.377761">
        <ele>309.0</ele>
        <time>2014-11-15T11:53:39Z</time>
      </trkpt>
      <trkpt lat="54.525743" lon="-3.377831">
        <ele>309.0</ele>
        <time>2014-11-15T11:53:43Z</time>
      </trkpt>
      <trkpt lat="54.525833" lon="-3.377691">
        <ele>309.0</ele>
        <time>2014-11-15T11:53:47Z</time>
      </trkpt>
      <trkpt lat="54.52581" lon="-3.37772">
        <ele>309.0</ele>
        <time>2014-11-15T11:53:51Z</time>
      </trkpt>
      <trkpt lat="54.525813" lon="-3.377728">
        <ele>310.0</ele>
        <time>2014-11-15T11:53:55Z</time>
      </trkpt>
      <trkpt lat="54.525801" lon="-3.377758">
        <ele>309.0</ele>
        <time>2014-11-15T11:53:59Z</time>
      </trkpt>
      <trkpt lat="54.525766" lon="-3.377775">
        <ele>309.0</ele>
        <time>2014-11-15T11:54:03Z</time>
      </trkpt>
      <trkpt lat="54.525718" lon="-3.377816">
        <ele>309.0</ele>
        <time>2014-11-15T11:54:07Z</time>
      </trkpt>
      <trkpt lat="54.52571" lon="-3.377746">
        <ele>309.0</ele>
        <time>2014-11-15T11:54:11Z</time>
      </trkpt>
      <trkpt lat="54.525603" lon="-3.377836">
        <ele>309.0</ele>
        <time>2014-11-15T11:54:15Z</time>
      </trkpt>
      <trkpt lat="54.525638" lon="-3.377813">
        <ele>309.0</ele>
        <time>2014-11-15T11:54:19Z</time>
      </trkpt>
      <trkpt lat="54.52566" lon="-3.37779">
        <ele>309.0</ele>
        <time>2014-11-15T11:54:23Z</time>
      </trkpt>
      <trkpt lat="54.525668" lon="-3.377828">
        <ele>309.0</ele>
        <time>2014-11-15T11:54:27Z</time>
      </trkpt>
      <trkpt lat="54.525538" lon="-3.37796">
        <ele>310.0</ele>
        <time>2014-11-15T11:54:31Z</time>
      </trkpt>
      <trkpt lat="54.525618" lon="-3.377805">
        <ele>309.0</ele>
        <time>2014-11-15T11:54:35Z</time>
      </trkpt>
      <trkpt lat="54.52568" lon="-3.37765">
        <ele>309.0</ele>
        <time>2014-11-15T11:54:39Z</time>
      </trkpt>
      <trkpt lat="54.525658" lon="-3.377668">
        <ele>310.0</ele>
        <time>2014-11-15T11:54:43Z</time>
      </trkpt>
      <trkpt lat="54.525603" lon="-3.377691">
        <ele>309.0</ele>
        <time>2014-11-15T11:54:47Z</time>
      </trkpt>
      <trkpt lat="54.525646" lon="-3.377625">
        <ele>309.0</ele>
        <time>2014-11-15T11:54:51Z</time>
      </trkpt>
      <trkpt lat="54.525635" lon="-3.377658">
        <ele>309.0</ele>
        <time>2014-11-15T11:54:55Z</time>
      </trkpt>
      <trkpt lat="54.525698" lon="-3.377581">
        <ele>310.0</ele>
        <time>2014-11-15T11:54:59Z</time>
      </trkpt>
      <trkpt lat="54.525703" lon="-3.377618">
        <ele>309.0</ele>
        <time>2014-11-15T11:55:03Z</time>
      </trkpt>
      <trkpt lat="54.525658" lon="-3.377723">
        <ele>310.0</ele>
        <time>2014-11-15T11:55:07Z</time>
      </trkpt>
      <trkpt lat="54.525718" lon="-3.377633">
        <ele>310.0</ele>
        <time>2014-11-15T11:55:11Z</time>
      </trkpt>
      <trkpt lat="54.525741" lon="-3.3776">
        <ele>310.0</ele>
        <time>2014-11-15T11:55:15Z</time>
      </trkpt>
      <trkpt lat="54.525773" lon="-3.377645">
        <ele>310.0</ele>
        <time>2014-11-15T11:55:19Z</time>
      </trkpt>
      <trkpt lat="54.52581" lon="-3.37771">
        <ele>309.0</ele>
        <time>2014-11-15T11:55:23Z</time>
      </trkpt>
      <trkpt lat="54.5258" lon="-3.37767">
        <ele>310.0</ele>
        <time>2014-11-15T11:55:27Z</time>
      </trkpt>
      <trkpt lat="54.525751" lon="-3.377721">
        <ele>310.0</ele>
        <time>2014-11-15T11:55:31Z</time>
      </trkpt>
      <trkpt lat="54.52575" lon="-3.377621">
        <ele>310.0</ele>
        <time>2014-11-15T11:55:35Z</time>
      </trkpt>
      <trkpt lat="54.525693" lon="-3.37756">
        <ele>309.0</ele>
        <time>2014-11-15T11:55:39Z</time>
      </trkpt>
      <trkpt lat="54.525663" lon="-3.377555">
        <ele>309.0</ele>
        <time>2014-11-15T11:55:43Z</time>
      </trkpt>
      <trkpt lat="54.525653" lon="-3.37765">
        <ele>310.0</ele>
        <time>2014-11-15T11:55:47Z</time>
      </trkpt>
      <trkpt lat="54.52566" lon="-3.377723">
        <ele>310.0</ele>
        <time>2014-11-15T11:55:51Z</time>
      </trkpt>
      <trkpt lat="54.52571" lon="-3.377755">
        <ele>310.0</ele>
        <time>2014-11-15T11:55:55Z</time>
      </trkpt>
      <trkpt lat="54.525713" lon="-3.377783">
        <ele>309.0</ele>
        <time>2014-11-15T11:55:59Z</time>
      </trkpt>
      <trkpt lat="54.525705" lon="-3.377731">
        <ele>310.0</ele>
        <time>2014-11-15T11:56:03Z</time>
      </trkpt>
      <trkpt lat="54.525701" lon="-3.377781">
        <ele>310.0</ele>
        <time>2014-11-15T11:56:07Z</time>
      </trkpt>
      <trkpt lat="54.525735" lon="-3.377711">
        <ele>309.0</ele>
        <time>2014-11-15T11:56:11Z</time>
      </trkpt>
      <trkpt lat="54.52571" lon="-3.37768">
        <ele>309.0</ele>
        <time>2014-11-15T11:56:15Z</time>
      </trkpt>
      <trkpt lat="54.525741" lon="-3.377606">
        <ele>310.0</ele>
        <time>2014-11-15T11:56:19Z</time>
      </trkpt>
      <trkpt lat="54.525731" lon="-3.377581">
        <ele>310.0</ele>
        <time>2014-11-15T11:56:23Z</time>
      </trkpt>
      <trkpt lat="54.525688" lon="-3.377601">
        <ele>310.0</ele>
        <time>2014-11-15T11:56:27Z</time>
      </trkpt>
      <trkpt lat="54.525651" lon="-3.377588">
        <ele>310.0</ele>
        <time>2014-11-15T11:56:31Z</time>
      </trkpt>
      <trkpt lat="54.525731" lon="-3.37758">
        <ele>310.0</ele>
        <time>2014-11-15T11:56:35Z</time>
      </trkpt>
      <trkpt lat="54.525768" lon="-3.377533">
        <ele>310.0</ele>
        <time>2014-11-15T11:56:39Z</time>
      </trkpt>
      <trkpt lat="54.52577" lon="-3.377565">
        <ele>309.0</ele>
        <time>2014-11-15T11:56:43Z</time>
      </trkpt>
      <trkpt lat="54.525761" lon="-3.37754">
        <ele>310.0</ele>
        <time>2014-11-15T11:56:47Z</time>
      </trkpt>
      <trkpt lat="54.525776" lon="-3.377546">
        <ele>310.0</ele>
        <time>2014-11-15T11:56:51Z</time>
      </trkpt>
      <trkpt lat="54.525785" lon="-3.377555">
        <ele>310.0</ele>
        <time>2014-11-15T11:56:55Z</time>
      </trkpt>
      <trkpt lat="54.52577" lon="-3.377586">
        <ele>310.0</ele>
        <time>2014-11-15T11:56:59Z</time>
      </trkpt>
      <trkpt lat="54.52577" lon="-3.377606">
        <ele>309.0</ele>
        <time>2014-11-15T11:57:03Z</time>
      </trkpt>
      <trkpt lat="54.525776" lon="-3.37763">
        <ele>310.0</ele>
        <time>2014-11-15T11:57:07Z</time>
      </trkpt>
      <trkpt lat="54.525793" lon="-3.37762">
        <ele>310.0</ele>
        <time>2014-11-15T11:57:11Z</time>
      </trkpt>
      <trkpt lat="54.525821" lon="-3.377603">
        <ele>310.0</ele>
        <time>2014-11-15T11:57:15Z</time>
      </trkpt>
      <trkpt lat="54.525808" lon="-3.377618">
        <ele>310.0</ele>
        <time>2014-11-15T11:57:19Z</time>
      </trkpt>
      <trkpt lat="54.525788" lon="-3.377613">
        <ele>310.0</ele>
        <time>2014-11-15T11:57:23Z</time>
      </trkpt>
      <trkpt lat="54.525708" lon="-3.377706">
        <ele>311.0</ele>
        <time>2014-11-15T11:57:27Z</time>
      </trkpt>
      <trkpt lat="54.525686" lon="-3.377708">
        <ele>310.0</ele>
        <time>2014-11-15T11:57:31Z</time>
      </trkpt>
      <trkpt lat="54.525758" lon="-3.37759">
        <ele>310.0</ele>
        <time>2014-11-15T11:57:35Z</time>
      </trkpt>
      <trkpt lat="54.525756" lon="-3.377618">
        <ele>310.0</ele>
        <time>2014-11-15T11:57:39Z</time>
      </trkpt>
      <trkpt lat="54.525775" lon="-3.377618">
        <ele>310.0</ele>
        <time>2014-11-15T11:57:43Z</time>
      </trkpt>
      <trkpt lat="54.525788" lon="-3.377601">
        <ele>310.0</ele>
        <time>2014-11-15T11:57:47Z</time>
      </trkpt>
      <trkpt lat="54.525775" lon="-3.377596">
        <ele>310.0</ele>
        <time>2014-11-15T11:57:51Z</time>
      </trkpt>
      <trkpt lat="54.525788" lon="-3.37761">
        <ele>310.0</ele>
        <time>2014-11-15T11:57:55Z</time>
      </trkpt>
      <trkpt lat="54.525775" lon="-3.377585">
        <ele>310.0</ele>
        <time>2014-11-15T11:57:59Z</time>
      </trkpt>
      <trkpt lat="54.52576" lon="-3.377585">
        <ele>310.0</ele>
        <time>2014-11-15T11:58:03Z</time>
      </trkpt>
      <trkpt lat="54.525753" lon="-3.377616">
        <ele>310.0</ele>
        <time>2014-11-15T11:58:07Z</time>
      </trkpt>
      <trkpt lat="54.525765" lon="-3.37763">
        <ele>310.0</ele>
        <time>2014-11-15T11:58:11Z</time>
      </trkpt>
      <trkpt lat="54.525781" lon="-3.377631">
        <ele>310.0</ele>
        <time>2014-11-15T11:58:15Z</time>
      </trkpt>
      <trkpt lat="54.525756" lon="-3.377638">
        <ele>310.0</ele>
        <time>2014-11-15T11:58:19Z</time>
      </trkpt>
      <trkpt lat="54.52574" lon="-3.377621">
        <ele>310.0</ele>
        <time>2014-11-15T11:58:23Z</time>
      </trkpt>
      <trkpt lat="54.525728" lon="-3.377645">
        <ele>310.0</ele>
        <time>2014-11-15T11:58:27Z</time>
      </trkpt>
      <trkpt lat="54.525753" lon="-3.377633">
        <ele>310.0</ele>
        <time>2014-11-15T11:58:31Z</time>
      </trkpt>
      <trkpt lat="54.525731" lon="-3.37763">
        <ele>310.0</ele>
        <time>2014-11-15T11:58:35Z</time>
      </trkpt>
      <trkpt lat="54.525708" lon="-3.37764">
        <ele>310.0</ele>
        <time>2014-11-15T11:58:39Z</time>
      </trkpt>
      <trkpt lat="54.52569" lon="-3.377673">
        <ele>310.0</ele>
        <time>2014-11-15T11:58:43Z</time>
      </trkpt>
      <trkpt lat="54.525756" lon="-3.37761">
        <ele>310.0</ele>
        <time>2014-11-15T11:58:47Z</time>
      </trkpt>
      <trkpt lat="54.525773" lon="-3.377633">
        <ele>310.0</ele>
        <time>2014-11-15T11:58:51Z</time>
      </trkpt>
      <trkpt lat="54.525741" lon="-3.377663">
        <ele>310.0</ele>
        <time>2014-11-15T11:58:55Z</time>
      </trkpt>
      <trkpt lat="54.525766" lon="-3.377665">
        <ele>310.0</ele>
        <time>2014-11-15T11:58:59Z</time>
      </trkpt>
      <trkpt lat="54.525741" lon="-3.377625">
        <ele>310.0</ele>
        <time>2014-11-15T11:59:03Z</time>
      </trkpt>
      <trkpt lat="54.52582" lon="-3.377605">
        <ele>310.0</ele>
        <time>2014-11-15T11:59:07Z</time>
      </trkpt>
      <trkpt lat="54.52601" lon="-3.377535">
        <ele>309.0</ele>
        <time>2014-11-15T11:59:11Z</time>
      </trkpt>
      <trkpt lat="54.526278" lon="-3.377523">
        <ele>309.0</ele>
        <time>2014-11-15T11:59:15Z</time>
      </trkpt>
      <trkpt lat="54.526446" lon="-3.377845">
        <ele>309.0</ele>
        <time>2014-11-15T11:59:19Z</time>
      </trkpt>
      <trkpt lat="54.526696" lon="-3.378135">
        <ele>308.0</ele>
        <time>2014-11-15T11:59:23Z</time>
      </trkpt>
      <trkpt lat="54.526886" lon="-3.378266">
        <ele>307.0</ele>
        <time>2014-11-15T11:59:27Z</time>
      </trkpt>
      <trkpt lat="54.527198" lon="-3.37827">
        <ele>306.0</ele>
        <time>2014-11-15T11:59:31Z</time>
      </trkpt>
      <trkpt lat="54.527438" lon="-3.37841">
        <ele>305.0</ele>
        <time>2014-11-15T11:59:35Z</time>
      </trkpt>
      <trkpt lat="54.527691" lon="-3.378536">
        <ele>304.0</ele>
        <time>2014-11-15T11:59:39Z</time>
      </trkpt>
      <trkpt lat="54.527961" lon="-3.378613">
        <ele>304.0</ele>
        <time>2014-11-15T11:59:43Z</time>
      </trkpt>
      <trkpt lat="54.528306" lon="-3.378648">
        <ele>304.0</ele>
        <time>2014-11-15T11:59:47Z</time>
      </trkpt>
      <trkpt lat="54.528556" lon="-3.378626">
        <ele>304.0</ele>
        <time>2014-11-15T11:59:51Z</time>
      </trkpt>
      <trkpt lat="54.528796" lon="-3.378501">
        <ele>304.0</ele>
        <time>2014-11-15T11:59:55Z</time>
      </trkpt>
      <trkpt lat="54.529046" lon="-3.378305">
        <ele>305.0</ele>
        <time>2014-11-15T11:59:59Z</time>
      </trkpt>
      <trkpt lat="54.52931" lon="-3.37809">
        <ele>304.0</ele>
        <time>2014-11-15T12:00:03Z</time>
      </trkpt>
      <trkpt lat="54.52957" lon="-3.377878">
        <ele>303.0</ele>
        <time>2014-11-15T12:00:07Z</time>
      </trkpt>
      <trkpt lat="54.529801" lon="-3.377673">
        <ele>302.0</ele>
        <time>2014-11-15T12:00:11Z</time>
      </trkpt>
      <trkpt lat="54.530008" lon="-3.377398">
        <ele>301.0</ele>
        <time>2014-11-15T12:00:15Z</time>
      </trkpt>
      <trkpt lat="54.530193" lon="-3.37713">
        <ele>302.0</ele>
        <time>2014-11-15T12:00:19Z</time>
      </trkpt>
      <trkpt lat="54.530386" lon="-3.37696">
        <ele>302.0</ele>
        <time>2014-11-15T12:00:23Z</time>
      </trkpt>
      <trkpt lat="54.53057" lon="-3.376968">
        <ele>304.0</ele>
        <time>2014-11-15T12:00:27Z</time>
      </trkpt>
      <trkpt lat="54.530773" lon="-3.376998">
        <ele>305.0</ele>
        <time>2014-11-15T12:00:31Z</time>
      </trkpt>
      <trkpt lat="54.531013" lon="-3.37707">
        <ele>306.0</ele>
        <time>2014-11-15T12:00:35Z</time>
      </trkpt>
      <trkpt lat="54.531163" lon="-3.377393">
        <ele>306.0</ele>
        <time>2014-11-15T12:00:39Z</time>
      </trkpt>
      <trkpt lat="54.531361" lon="-3.37775">
        <ele>305.0</ele>
        <time>2014-11-15T12:00:43Z</time>
      </trkpt>
      <trkpt lat="54.531441" lon="-3.378165">
        <ele>304.0</ele>
        <time>2014-11-15T12:00:47Z</time>
      </trkpt>
      <trkpt lat="54.531605" lon="-3.37859">
        <ele>304.0</ele>
        <time>2014-11-15T12:00:51Z</time>
      </trkpt>
      <trkpt lat="54.531776" lon="-3.378958">
        <ele>304.0</ele>
        <time>2014-11-15T12:00:55Z</time>
      </trkpt>
      <trkpt lat="54.53194" lon="-3.37919">
        <ele>305.0</ele>
        <time>2014-11-15T12:00:59Z</time>
      </trkpt>
      <trkpt lat="54.532068" lon="-3.379321">
        <ele>306.0</ele>
        <time>2014-11-15T12:01:03Z</time>
      </trkpt>
      <trkpt lat="54.532146" lon="-3.379336">
        <ele>307.0</ele>
        <time>2014-11-15T12:01:07Z</time>
      </trkpt>
      <trkpt lat="54.532365" lon="-3.379388">
        <ele>309.0</ele>
        <time>2014-11-15T12:01:11Z</time>
      </trkpt>
      <trkpt lat="54.532486" lon="-3.379515">
        <ele>311.0</ele>
        <time>2014-11-15T12:01:15Z</time>
      </trkpt>
      <trkpt lat="54.532571" lon="-3.379698">
        <ele>312.0</ele>
        <time>2014-11-15T12:01:19Z</time>
      </trkpt>
      <trkpt lat="54.53261" lon="-3.379966">
        <ele>313.0</ele>
        <time>2014-11-15T12:01:23Z</time>
      </trkpt>
      <trkpt lat="54.532703" lon="-3.380183">
        <ele>314.0</ele>
        <time>2014-11-15T12:01:27Z</time>
      </trkpt>
      <trkpt lat="54.532796" lon="-3.380396">
        <ele>315.0</ele>
        <time>2014-11-15T12:01:31Z</time>
      </trkpt>
      <trkpt lat="54.53288" lon="-3.380668">
        <ele>316.0</ele>
        <time>2014-11-15T12:01:35Z</time>
      </trkpt>
      <trkpt lat="54.533021" lon="-3.38083">
        <ele>317.0</ele>
        <time>2014-11-15T12:01:39Z</time>
      </trkpt>
      <trkpt lat="54.533171" lon="-3.380998">
        <ele>318.0</ele>
        <time>2014-11-15T12:01:43Z</time>
      </trkpt>
      <trkpt lat="54.533293" lon="-3.381168">
        <ele>319.0</ele>
        <time>2014-11-15T12:01:47Z</time>
      </trkpt>
      <trkpt lat="54.533425" lon="-3.381368">
        <ele>320.0</ele>
        <time>2014-11-15T12:01:51Z</time>
      </trkpt>
      <trkpt lat="54.533528" lon="-3.381621">
        <ele>320.0</ele>
        <time>2014-11-15T12:01:55Z</time>
      </trkpt>
      <trkpt lat="54.533593" lon="-3.381903">
        <ele>320.0</ele>
        <time>2014-11-15T12:01:59Z</time>
      </trkpt>
      <trkpt lat="54.533716" lon="-3.382235">
        <ele>320.0</ele>
        <time>2014-11-15T12:02:03Z</time>
      </trkpt>
      <trkpt lat="54.53386" lon="-3.382538">
        <ele>320.0</ele>
        <time>2014-11-15T12:02:07Z</time>
      </trkpt>
      <trkpt lat="54.533885" lon="-3.38291">
        <ele>320.0</ele>
        <time>2014-11-15T12:02:11Z</time>
      </trkpt>
      <trkpt lat="54.533953" lon="-3.383301">
        <ele>320.0</ele>
        <time>2014-11-15T12:02:15Z</time>
      </trkpt>
      <trkpt lat="54.534016" lon="-3.383693">
        <ele>320.0</ele>
        <time>2014-11-15T12:02:19Z</time>
      </trkpt>
      <trkpt lat="54.534" lon="-3.384053">
        <ele>320.0</ele>
        <time>2014-11-15T12:02:23Z</time>
      </trkpt>
      <trkpt lat="54.53405" lon="-3.38448">
        <ele>318.0</ele>
        <time>2014-11-15T12:02:27Z</time>
      </trkpt>
      <trkpt lat="54.534161" lon="-3.3849">
        <ele>316.0</ele>
        <time>2014-11-15T12:02:31Z</time>
      </trkpt>
      <trkpt lat="54.534391" lon="-3.385166">
        <ele>317.0</ele>
        <time>2014-11-15T12:02:35Z</time>
      </trkpt>
      <trkpt lat="54.53455" lon="-3.385355">
        <ele>319.0</ele>
        <time>2014-11-15T12:02:39Z</time>
      </trkpt>
      <trkpt lat="54.534715" lon="-3.385513">
        <ele>320.0</ele>
        <time>2014-11-15T12:02:43Z</time>
      </trkpt>
      <trkpt lat="54.534808" lon="-3.385818">
        <ele>322.0</ele>
        <time>2014-11-15T12:02:47Z</time>
      </trkpt>
      <trkpt lat="54.534828" lon="-3.386118">
        <ele>322.0</ele>
        <time>2014-11-15T12:02:51Z</time>
      </trkpt>
      <trkpt lat="54.534773" lon="-3.386436">
        <ele>322.0</ele>
        <time>2014-11-15T12:02:55Z</time>
      </trkpt>
      <trkpt lat="54.53477" lon="-3.38685">
        <ele>321.0</ele>
        <time>2014-11-15T12:02:59Z</time>
      </trkpt>
      <trkpt lat="54.534773" lon="-3.387198">
        <ele>321.0</ele>
        <time>2014-11-15T12:03:03Z</time>
      </trkpt>
      <trkpt lat="54.534878" lon="-3.387513">
        <ele>322.0</ele>
        <time>2014-11-15T12:03:07Z</time>
      </trkpt>
      <trkpt lat="54.534948" lon="-3.387848">
        <ele>322.0</ele>
        <time>2014-11-15T12:03:11Z</time>
      </trkpt>
      <trkpt lat="54.53495" lon="-3.388163">
        <ele>323.0</ele>
        <time>2014-11-15T12:03:15Z</time>
      </trkpt>
      <trkpt lat="54.534881" lon="-3.38854">
        <ele>323.0</ele>
        <time>2014-11-15T12:03:19Z</time>
      </trkpt>
      <trkpt lat="54.534815" lon="-3.388943">
        <ele>323.0</ele>
        <time>2014-11-15T12:03:23Z</time>
      </trkpt>
      <trkpt lat="54.53486" lon="-3.389341">
        <ele>322.0</ele>
        <time>2014-11-15T12:03:27Z</time>
      </trkpt>
      <trkpt lat="54.534943" lon="-3.38975">
        <ele>323.0</ele>
        <time>2014-11-15T12:03:31Z</time>
      </trkpt>
      <trkpt lat="54.534996" lon="-3.389975">
        <ele>324.0</ele>
        <time>2014-11-15T12:03:35Z</time>
      </trkpt>
      <trkpt lat="54.535105" lon="-3.390161">
        <ele>326.0</ele>
        <time>2014-11-15T12:03:39Z</time>
      </trkpt>
      <trkpt lat="54.535186" lon="-3.39023">
        <ele>327.0</ele>
        <time>2014-11-15T12:03:43Z</time>
      </trkpt>
      <trkpt lat="54.53533" lon="-3.39046">
        <ele>329.0</ele>
        <time>2014-11-15T12:03:47Z</time>
      </trkpt>
      <trkpt lat="54.535348" lon="-3.390691">
        <ele>330.0</ele>
        <time>2014-11-15T12:03:51Z</time>
      </trkpt>
      <trkpt lat="54.535446" lon="-3.39081">
        <ele>331.0</ele>
        <time>2014-11-15T12:03:55Z</time>
      </trkpt>
      <trkpt lat="54.535576" lon="-3.390935">
        <ele>332.0</ele>
        <time>2014-11-15T12:03:59Z</time>
      </trkpt>
      <trkpt lat="54.53573" lon="-3.391021">
        <ele>333.0</ele>
        <time>2014-11-15T12:04:03Z</time>
      </trkpt>
      <trkpt lat="54.535828" lon="-3.391046">
        <ele>335.0</ele>
        <time>2014-11-15T12:04:07Z</time>
      </trkpt>
      <trkpt lat="54.535985" lon="-3.391136">
        <ele>337.0</ele>
        <time>2014-11-15T12:04:11Z</time>
      </trkpt>
      <trkpt lat="54.536075" lon="-3.391125">
        <ele>337.0</ele>
        <time>2014-11-15T12:04:15Z</time>
      </trkpt>
      <trkpt lat="54.536161" lon="-3.391188">
        <ele>339.0</ele>
        <time>2014-11-15T12:04:19Z</time>
      </trkpt>
      <trkpt lat="54.536288" lon="-3.39124">
        <ele>340.0</ele>
        <time>2014-11-15T12:04:23Z</time>
      </trkpt>
      <trkpt lat="54.536381" lon="-3.391343">
        <ele>341.0</ele>
        <time>2014-11-15T12:04:27Z</time>
      </trkpt>
      <trkpt lat="54.536468" lon="-3.391521">
        <ele>342.0</ele>
        <time>2014-11-15T12:04:31Z</time>
      </trkpt>
      <trkpt lat="54.53659" lon="-3.391675">
        <ele>343.0</ele>
        <time>2014-11-15T12:04:35Z</time>
      </trkpt>
      <trkpt lat="54.536668" lon="-3.391926">
        <ele>344.0</ele>
        <time>2014-11-15T12:04:39Z</time>
      </trkpt>
      <trkpt lat="54.536731" lon="-3.392168">
        <ele>344.0</ele>
        <time>2014-11-15T12:04:43Z</time>
      </trkpt>
      <trkpt lat="54.53681" lon="-3.392455">
        <ele>344.0</ele>
        <time>2014-11-15T12:04:47Z</time>
      </trkpt>
      <trkpt lat="54.536895" lon="-3.392833">
        <ele>344.0</ele>
        <time>2014-11-15T12:04:51Z</time>
      </trkpt>
      <trkpt lat="54.536985" lon="-3.393235">
        <ele>344.0</ele>
        <time>2014-11-15T12:04:55Z</time>
      </trkpt>
      <trkpt lat="54.537005" lon="-3.393616">
        <ele>344.0</ele>
        <time>2014-11-15T12:04:59Z</time>
      </trkpt>
      <trkpt lat="54.537018" lon="-3.393888">
        <ele>344.0</ele>
        <time>2014-11-15T12:05:03Z</time>
      </trkpt>
      <trkpt lat="54.537045" lon="-3.394295">
        <ele>344.0</ele>
        <time>2014-11-15T12:05:07Z</time>
      </trkpt>
      <trkpt lat="54.537203" lon="-3.394545">
        <ele>344.0</ele>
        <time>2014-11-15T12:05:11Z</time>
      </trkpt>
      <trkpt lat="54.537456" lon="-3.39467">
        <ele>344.0</ele>
        <time>2014-11-15T12:05:15Z</time>
      </trkpt>
      <trkpt lat="54.537638" lon="-3.394771">
        <ele>345.0</ele>
        <time>2014-11-15T12:05:19Z</time>
      </trkpt>
      <trkpt lat="54.537743" lon="-3.394935">
        <ele>346.0</ele>
        <time>2014-11-15T12:05:23Z</time>
      </trkpt>
      <trkpt lat="54.537895" lon="-3.394991">
        <ele>348.0</ele>
        <time>2014-11-15T12:05:27Z</time>
      </trkpt>
      <trkpt lat="54.538026" lon="-3.395158">
        <ele>349.0</ele>
        <time>2014-11-15T12:05:31Z</time>
      </trkpt>
      <trkpt lat="54.538175" lon="-3.395228">
        <ele>350.0</ele>
        <time>2014-11-15T12:05:35Z</time>
      </trkpt>
      <trkpt lat="54.53837" lon="-3.395095">
        <ele>351.0</ele>
        <time>2014-11-15T12:05:39Z</time>
      </trkpt>
      <trkpt lat="54.538461" lon="-3.394933">
        <ele>351.0</ele>
        <time>2014-11-15T12:05:43Z</time>
      </trkpt>
      <trkpt lat="54.538633" lon="-3.39494">
        <ele>352.0</ele>
        <time>2014-11-15T12:05:47Z</time>
      </trkpt>
      <trkpt lat="54.53881" lon="-3.395163">
        <ele>352.0</ele>
        <time>2014-11-15T12:05:51Z</time>
      </trkpt>
      <trkpt lat="54.539006" lon="-3.395456">
        <ele>352.0</ele>
        <time>2014-11-15T12:05:55Z</time>
      </trkpt>
      <trkpt lat="54.539223" lon="-3.39574">
        <ele>351.0</ele>
        <time>2014-11-15T12:05:59Z</time>
      </trkpt>
      <trkpt lat="54.53942" lon="-3.396073">
        <ele>351.0</ele>
        <time>2014-11-15T12:06:03Z</time>
      </trkpt>
      <trkpt lat="54.539706" lon="-3.396476">
        <ele>350.0</ele>
        <time>2014-11-15T12:06:07Z</time>
      </trkpt>
      <trkpt lat="54.5399" lon="-3.397075">
        <ele>350.0</ele>
        <time>2014-11-15T12:06:11Z</time>
      </trkpt>
      <trkpt lat="54.540111" lon="-3.397468">
        <ele>349.0</ele>
        <time>2014-11-15T12:06:15Z</time>
      </trkpt>
      <trkpt lat="54.540355" lon="-3.397911">
        <ele>348.0</ele>
        <time>2014-11-15T12:06:19Z</time>
      </trkpt>
      <trkpt lat="54.540506" lon="-3.398193">
        <ele>346.0</ele>
        <time>2014-11-15T12:06:23Z</time>
      </trkpt>
      <trkpt lat="54.540693" lon="-3.398565">
        <ele>345.0</ele>
        <time>2014-11-15T12:06:27Z</time>
      </trkpt>
      <trkpt lat="54.540871" lon="-3.398865">
        <ele>344.0</ele>
        <time>2014-11-15T12:06:31Z</time>
      </trkpt>
      <trkpt lat="54.541181" lon="-3.39901">
        <ele>344.0</ele>
        <time>2014-11-15T12:06:35Z</time>
      </trkpt>
      <trkpt lat="54.541433" lon="-3.399141">
        <ele>343.0</ele>
        <time>2014-11-15T12:06:39Z</time>
      </trkpt>
      <trkpt lat="54.541668" lon="-3.399283">
        <ele>342.0</ele>
        <time>2014-11-15T12:06:43Z</time>
      </trkpt>
      <trkpt lat="54.541898" lon="-3.399455">
        <ele>342.0</ele>
        <time>2014-11-15T12:06:47Z</time>
      </trkpt>
      <trkpt lat="54.542098" lon="-3.399625">
        <ele>341.0</ele>
        <time>2014-11-15T12:06:51Z</time>
      </trkpt>
      <trkpt lat="54.542336" lon="-3.399915">
        <ele>340.0</ele>
        <time>2014-11-15T12:06:55Z</time>
      </trkpt>
      <trkpt lat="54.542515" lon="-3.400145">
        <ele>340.0</ele>
        <time>2014-11-15T12:06:59Z</time>
      </trkpt>
      <trkpt lat="54.54271" lon="-3.400318">
        <ele>342.0</ele>
        <time>2014-11-15T12:07:03Z</time>
      </trkpt>
      <trkpt lat="54.542871" lon="-3.400355">
        <ele>343.0</ele>
        <time>2014-11-15T12:07:07Z</time>
      </trkpt>
      <trkpt lat="54.54302" lon="-3.400546">
        <ele>344.0</ele>
        <time>2014-11-15T12:07:11Z</time>
      </trkpt>
      <trkpt lat="54.543186" lon="-3.400643">
        <ele>345.0</ele>
        <time>2014-11-15T12:07:15Z</time>
      </trkpt>
      <trkpt lat="54.543288" lon="-3.40074">
        <ele>347.0</ele>
        <time>2014-11-15T12:07:19Z</time>
      </trkpt>
      <trkpt lat="54.543481" lon="-3.400806">
        <ele>349.0</ele>
        <time>2014-11-15T12:07:23Z</time>
      </trkpt>
      <trkpt lat="54.543641" lon="-3.400858">
        <ele>350.0</ele>
        <time>2014-11-15T12:07:27Z</time>
      </trkpt>
      <trkpt lat="54.54375" lon="-3.401045">
        <ele>351.0</ele>
        <time>2014-11-15T12:07:31Z</time>
      </trkpt>
      <trkpt lat="54.543833" lon="-3.401196">
        <ele>352.0</ele>
        <time>2014-11-15T12:07:35Z</time>
      </trkpt>
      <trkpt lat="54.543936" lon="-3.40144">
        <ele>352.0</ele>
        <time>2014-11-15T12:07:39Z</time>
      </trkpt>
      <trkpt lat="54.544065" lon="-3.40168">
        <ele>351.0</ele>
        <time>2014-11-15T12:07:43Z</time>
      </trkpt>
      <trkpt lat="54.544181" lon="-3.40192">
        <ele>350.0</ele>
        <time>2014-11-15T12:07:47Z</time>
      </trkpt>
      <trkpt lat="54.54434" lon="-3.402135">
        <ele>349.0</ele>
        <time>2014-11-15T12:07:51Z</time>
      </trkpt>
      <trkpt lat="54.544473" lon="-3.402228">
        <ele>348.0</ele>
        <time>2014-11-15T12:07:55Z</time>
      </trkpt>
      <trkpt lat="54.544425" lon="-3.402198">
        <ele>347.0</ele>
        <time>2014-11-15T12:07:59Z</time>
      </trkpt>
      <trkpt lat="54.544413" lon="-3.402151">
        <ele>347.0</ele>
        <time>2014-11-15T12:08:03Z</time>
      </trkpt>
      <trkpt lat="54.544431" lon="-3.402188">
        <ele>347.0</ele>
        <time>2014-11-15T12:08:07Z</time>
      </trkpt>
      <trkpt lat="54.544483" lon="-3.402191">
        <ele>347.0</ele>
        <time>2014-11-15T12:08:11Z</time>
      </trkpt>
      <trkpt lat="54.544436" lon="-3.402173">
        <ele>347.0</ele>
        <time>2014-11-15T12:08:15Z</time>
      </trkpt>
      <trkpt lat="54.54448" lon="-3.402188">
        <ele>347.0</ele>
        <time>2014-11-15T12:08:19Z</time>
      </trkpt>
      <trkpt lat="54.544466" lon="-3.402193">
        <ele>347.0</ele>
        <time>2014-11-15T12:08:23Z</time>
      </trkpt>
      <trkpt lat="54.544471" lon="-3.402145">
        <ele>348.0</ele>
        <time>2014-11-15T12:08:27Z</time>
      </trkpt>
      <trkpt lat="54.544491" lon="-3.40212">
        <ele>348.0</ele>
        <time>2014-11-15T12:08:31Z</time>
      </trkpt>
      <trkpt lat="54.544536" lon="-3.402251">
        <ele>348.0</ele>
        <time>2014-11-15T12:08:35Z</time>
      </trkpt>
      <trkpt lat="54.544451" lon="-3.402278">
        <ele>347.0</ele>
        <time>2014-11-15T12:08:39Z</time>
      </trkpt>
      <trkpt lat="54.54446" lon="-3.402308">
        <ele>347.0</ele>
        <time>2014-11-15T12:08:43Z</time>
      </trkpt>
      <trkpt lat="54.544433" lon="-3.402246">
        <ele>347.0</ele>
        <time>2014-11-15T12:08:47Z</time>
      </trkpt>
      <trkpt lat="54.544443" lon="-3.402345">
        <ele>348.0</ele>
        <time>2014-11-15T12:08:51Z</time>
      </trkpt>
      <trkpt lat="54.544461" lon="-3.402381">
        <ele>348.0</ele>
        <time>2014-11-15T12:08:55Z</time>
      </trkpt>
      <trkpt lat="54.544486" lon="-3.402363">
        <ele>348.0</ele>
        <time>2014-11-15T12:08:59Z</time>
      </trkpt>
      <trkpt lat="54.544515" lon="-3.402328">
        <ele>348.0</ele>
        <time>2014-11-15T12:09:03Z</time>
      </trkpt>
      <trkpt lat="54.544508" lon="-3.402316">
        <ele>348.0</ele>
        <time>2014-11-15T12:09:07Z</time>
      </trkpt>
      <trkpt lat="54.54446" lon="-3.402348">
        <ele>347.0</ele>
        <time>2014-11-15T12:09:11Z</time>
      </trkpt>
      <trkpt lat="54.544416" lon="-3.402446">
        <ele>347.0</ele>
        <time>2014-11-15T12:09:15Z</time>
      </trkpt>
      <trkpt lat="54.544458" lon="-3.402415">
        <ele>347.0</ele>
        <time>2014-11-15T12:09:19Z</time>
      </trkpt>
      <trkpt lat="54.54446" lon="-3.402383">
        <ele>348.0</ele>
        <time>2014-11-15T12:09:23Z</time>
      </trkpt>
      <trkpt lat="54.544488" lon="-3.402313">
        <ele>347.0</ele>
        <time>2014-11-15T12:09:27Z</time>
      </trkpt>
      <trkpt lat="54.544495" lon="-3.402255">
        <ele>347.0</ele>
        <time>2014-11-15T12:09:31Z</time>
      </trkpt>
      <trkpt lat="54.544491" lon="-3.402143">
        <ele>347.0</ele>
        <time>2014-11-15T12:09:35Z</time>
      </trkpt>
      <trkpt lat="54.544513" lon="-3.402173">
        <ele>347.0</ele>
        <time>2014-11-15T12:09:39Z</time>
      </trkpt>
      <trkpt lat="54.54453" lon="-3.402223">
        <ele>347.0</ele>
        <time>2014-11-15T12:09:43Z</time>
      </trkpt>
      <trkpt lat="54.5445" lon="-3.402193">
        <ele>347.0</ele>
        <time>2014-11-15T12:09:47Z</time>
      </trkpt>
      <trkpt lat="54.544478" lon="-3.402175">
        <ele>347.0</ele>
        <time>2014-11-15T12:09:51Z</time>
      </trkpt>
      <trkpt lat="54.544521" lon="-3.402178">
        <ele>347.0</ele>
        <time>2014-11-15T12:09:55Z</time>
      </trkpt>
      <trkpt lat="54.54452" lon="-3.402198">
        <ele>347.0</ele>
        <time>2014-11-15T12:09:59Z</time>
      </trkpt>
      <trkpt lat="54.544516" lon="-3.402191">
        <ele>347.0</ele>
        <time>2014-11-15T12:10:03Z</time>
      </trkpt>
      <trkpt lat="54.544521" lon="-3.402186">
        <ele>347.0</ele>
        <time>2014-11-15T12:10:07Z</time>
      </trkpt>
      <trkpt lat="54.544516" lon="-3.402183">
        <ele>347.0</ele>
        <time>2014-11-15T12:10:11Z</time>
      </trkpt>
      <trkpt lat="54.544501" lon="-3.402205">
        <ele>348.0</ele>
        <time>2014-11-15T12:10:15Z</time>
      </trkpt>
      <trkpt lat="54.544491" lon="-3.402211">
        <ele>347.0</ele>
        <time>2014-11-15T12:10:19Z</time>
      </trkpt>
      <trkpt lat="54.544483" lon="-3.402233">
        <ele>347.0</ele>
        <time>2014-11-15T12:10:23Z</time>
      </trkpt>
      <trkpt lat="54.54443" lon="-3.402305">
        <ele>347.0</ele>
        <time>2014-11-15T12:10:27Z</time>
      </trkpt>
      <trkpt lat="54.544408" lon="-3.402403">
        <ele>347.0</ele>
        <time>2014-11-15T12:10:31Z</time>
      </trkpt>
      <trkpt lat="54.544388" lon="-3.402545">
        <ele>346.0</ele>
        <time>2014-11-15T12:10:35Z</time>
      </trkpt>
      <trkpt lat="54.544373" lon="-3.402681">
        <ele>346.0</ele>
        <time>2014-11-15T12:10:39Z</time>
      </trkpt>
      <trkpt lat="54.544333" lon="-3.40282">
        <ele>346.0</ele>
        <time>2014-11-15T12:10:43Z</time>
      </trkpt>
      <trkpt lat="54.544281" lon="-3.402946">
        <ele>345.0</ele>
        <time>2014-11-15T12:10:47Z</time>
      </trkpt>
      <trkpt lat="54.544251" lon="-3.403078">
        <ele>345.0</ele>
        <time>2014-11-15T12:10:51Z</time>
      </trkpt>
      <trkpt lat="54.544215" lon="-3.403176">
        <ele>344.0</ele>
        <time>2014-11-15T12:10:55Z</time>
      </trkpt>
      <trkpt lat="54.544176" lon="-3.403286">
        <ele>344.0</ele>
        <time>2014-11-15T12:10:59Z</time>
      </trkpt>
      <trkpt lat="54.544136" lon="-3.403406">
        <ele>344.0</ele>
        <time>2014-11-15T12:11:03Z</time>
      </trkpt>
      <trkpt lat="54.544085" lon="-3.403556">
        <ele>343.0</ele>
        <time>2014-11-15T12:11:07Z</time>
      </trkpt>
      <trkpt lat="54.544093" lon="-3.403731">
        <ele>343.0</ele>
        <time>2014-11-15T12:11:11Z</time>
      </trkpt>
      <trkpt lat="54.544181" lon="-3.404105">
        <ele>343.0</ele>
        <time>2014-11-15T12:11:15Z</time>
      </trkpt>
      <trkpt lat="54.544221" lon="-3.404498">
        <ele>342.0</ele>
        <time>2014-11-15T12:11:19Z</time>
      </trkpt>
      <trkpt lat="54.544286" lon="-3.404851">
        <ele>342.0</ele>
        <time>2014-11-15T12:11:23Z</time>
      </trkpt>
      <trkpt lat="54.544355" lon="-3.405215">
        <ele>342.0</ele>
        <time>2014-11-15T12:11:27Z</time>
      </trkpt>
      <trkpt lat="54.544541" lon="-3.405316">
        <ele>341.0</ele>
        <time>2014-11-15T12:11:31Z</time>
      </trkpt>
      <trkpt lat="54.54461" lon="-3.405373">
        <ele>343.0</ele>
        <time>2014-11-15T12:11:35Z</time>
      </trkpt>
      <trkpt lat="54.544751" lon="-3.405443">
        <ele>344.0</ele>
        <time>2014-11-15T12:11:39Z</time>
      </trkpt>
      <trkpt lat="54.544855" lon="-3.405448">
        <ele>345.0</ele>
        <time>2014-11-15T12:11:43Z</time>
      </trkpt>
      <trkpt lat="54.544955" lon="-3.405415">
        <ele>347.0</ele>
        <time>2014-11-15T12:11:47Z</time>
      </trkpt>
      <trkpt lat="54.545055" lon="-3.40534">
        <ele>348.0</ele>
        <time>2014-11-15T12:11:51Z</time>
      </trkpt>
      <trkpt lat="54.545195" lon="-3.405273">
        <ele>349.0</ele>
        <time>2014-11-15T12:11:55Z</time>
      </trkpt>
      <trkpt lat="54.54526" lon="-3.40529">
        <ele>351.0</ele>
        <time>2014-11-15T12:11:59Z</time>
      </trkpt>
      <trkpt lat="54.545331" lon="-3.405206">
        <ele>352.0</ele>
        <time>2014-11-15T12:12:03Z</time>
      </trkpt>
      <trkpt lat="54.545465" lon="-3.405121">
        <ele>353.0</ele>
        <time>2014-11-15T12:12:07Z</time>
      </trkpt>
      <trkpt lat="54.545571" lon="-3.405033">
        <ele>354.0</ele>
        <time>2014-11-15T12:12:11Z</time>
      </trkpt>
      <trkpt lat="54.545643" lon="-3.404971">
        <ele>355.0</ele>
        <time>2014-11-15T12:12:15Z</time>
      </trkpt>
      <trkpt lat="54.545741" lon="-3.40494">
        <ele>356.0</ele>
        <time>2014-11-15T12:12:19Z</time>
      </trkpt>
      <trkpt lat="54.545838" lon="-3.404811">
        <ele>357.0</ele>
        <time>2014-11-15T12:12:23Z</time>
      </trkpt>
      <trkpt lat="54.54594" lon="-3.404745">
        <ele>358.0</ele>
        <time>2014-11-15T12:12:27Z</time>
      </trkpt>
      <trkpt lat="54.546045" lon="-3.404731">
        <ele>360.0</ele>
        <time>2014-11-15T12:12:31Z</time>
      </trkpt>
      <trkpt lat="54.546123" lon="-3.404818">
        <ele>361.0</ele>
        <time>2014-11-15T12:12:35Z</time>
      </trkpt>
      <trkpt lat="54.54617" lon="-3.404911">
        <ele>362.0</ele>
        <time>2014-11-15T12:12:39Z</time>
      </trkpt>
      <trkpt lat="54.54619" lon="-3.405023">
        <ele>363.0</ele>
        <time>2014-11-15T12:12:43Z</time>
      </trkpt>
      <trkpt lat="54.54624" lon="-3.405155">
        <ele>364.0</ele>
        <time>2014-11-15T12:12:47Z</time>
      </trkpt>
      <trkpt lat="54.54627" lon="-3.405296">
        <ele>365.0</ele>
        <time>2014-11-15T12:12:51Z</time>
      </trkpt>
      <trkpt lat="54.546303" lon="-3.405438">
        <ele>366.0</ele>
        <time>2014-11-15T12:12:55Z</time>
      </trkpt>
      <trkpt lat="54.546345" lon="-3.405603">
        <ele>367.0</ele>
        <time>2014-11-15T12:12:59Z</time>
      </trkpt>
      <trkpt lat="54.546431" lon="-3.40577">
        <ele>367.0</ele>
        <time>2014-11-15T12:13:03Z</time>
      </trkpt>
      <trkpt lat="54.546565" lon="-3.40587">
        <ele>368.0</ele>
        <time>2014-11-15T12:13:07Z</time>
      </trkpt>
      <trkpt lat="54.546606" lon="-3.405996">
        <ele>369.0</ele>
        <time>2014-11-15T12:13:11Z</time>
      </trkpt>
      <trkpt lat="54.546635" lon="-3.406116">
        <ele>370.0</ele>
        <time>2014-11-15T12:13:15Z</time>
      </trkpt>
      <trkpt lat="54.546778" lon="-3.406245">
        <ele>372.0</ele>
        <time>2014-11-15T12:13:19Z</time>
      </trkpt>
      <trkpt lat="54.54681" lon="-3.406378">
        <ele>373.0</ele>
        <time>2014-11-15T12:13:23Z</time>
      </trkpt>
      <trkpt lat="54.546881" lon="-3.406525">
        <ele>375.0</ele>
        <time>2014-11-15T12:13:27Z</time>
      </trkpt>
      <trkpt lat="54.546925" lon="-3.406656">
        <ele>375.0</ele>
        <time>2014-11-15T12:13:31Z</time>
      </trkpt>
      <trkpt lat="54.547001" lon="-3.406745">
        <ele>376.0</ele>
        <time>2014-11-15T12:13:35Z</time>
      </trkpt>
      <trkpt lat="54.547033" lon="-3.406818">
        <ele>377.0</ele>
        <time>2014-11-15T12:13:39Z</time>
      </trkpt>
      <trkpt lat="54.547098" lon="-3.40687">
        <ele>378.0</ele>
        <time>2014-11-15T12:13:43Z</time>
      </trkpt>
      <trkpt lat="54.547113" lon="-3.40688">
        <ele>380.0</ele>
        <time>2014-11-15T12:13:47Z</time>
      </trkpt>
      <trkpt lat="54.547138" lon="-3.406801">
        <ele>381.0</ele>
        <time>2014-11-15T12:13:51Z</time>
      </trkpt>
      <trkpt lat="54.547183" lon="-3.406675">
        <ele>382.0</ele>
        <time>2014-11-15T12:13:55Z</time>
      </trkpt>
      <trkpt lat="54.547196" lon="-3.406606">
        <ele>384.0</ele>
        <time>2014-11-15T12:13:59Z</time>
      </trkpt>
      <trkpt lat="54.547258" lon="-3.406538">
        <ele>385.0</ele>
        <time>2014-11-15T12:14:03Z</time>
      </trkpt>
      <trkpt lat="54.54728" lon="-3.406403">
        <ele>386.0</ele>
        <time>2014-11-15T12:14:07Z</time>
      </trkpt>
      <trkpt lat="54.547373" lon="-3.406335">
        <ele>387.0</ele>
        <time>2014-11-15T12:14:11Z</time>
      </trkpt>
      <trkpt lat="54.547376" lon="-3.406238">
        <ele>388.0</ele>
        <time>2014-11-15T12:14:15Z</time>
      </trkpt>
      <trkpt lat="54.547441" lon="-3.406165">
        <ele>390.0</ele>
        <time>2014-11-15T12:14:19Z</time>
      </trkpt>
      <trkpt lat="54.54748" lon="-3.406101">
        <ele>391.0</ele>
        <time>2014-11-15T12:14:23Z</time>
      </trkpt>
      <trkpt lat="54.547518" lon="-3.40601">
        <ele>392.0</ele>
        <time>2014-11-15T12:14:27Z</time>
      </trkpt>
      <trkpt lat="54.547583" lon="-3.406085">
        <ele>394.0</ele>
        <time>2014-11-15T12:14:31Z</time>
      </trkpt>
      <trkpt lat="54.547671" lon="-3.40616">
        <ele>394.0</ele>
        <time>2014-11-15T12:14:35Z</time>
      </trkpt>
      <trkpt lat="54.547676" lon="-3.40625">
        <ele>396.0</ele>
        <time>2014-11-15T12:14:39Z</time>
      </trkpt>
      <trkpt lat="54.547741" lon="-3.40639">
        <ele>397.0</ele>
        <time>2014-11-15T12:14:43Z</time>
      </trkpt>
      <trkpt lat="54.547816" lon="-3.406498">
        <ele>398.0</ele>
        <time>2014-11-15T12:14:47Z</time>
      </trkpt>
      <trkpt lat="54.547863" lon="-3.406598">
        <ele>399.0</ele>
        <time>2014-11-15T12:14:51Z</time>
      </trkpt>
      <trkpt lat="54.54787" lon="-3.406681">
        <ele>400.0</ele>
        <time>2014-11-15T12:14:55Z</time>
      </trkpt>
      <trkpt lat="54.54788" lon="-3.406791">
        <ele>401.0</ele>
        <time>2014-11-15T12:14:59Z</time>
      </trkpt>
      <trkpt lat="54.547893" lon="-3.40693">
        <ele>401.0</ele>
        <time>2014-11-15T12:15:03Z</time>
      </trkpt>
      <trkpt lat="54.548026" lon="-3.407078">
        <ele>402.0</ele>
        <time>2014-11-15T12:15:07Z</time>
      </trkpt>
      <trkpt lat="54.548091" lon="-3.407168">
        <ele>403.0</ele>
        <time>2014-11-15T12:15:11Z</time>
      </trkpt>
      <trkpt lat="54.548188" lon="-3.407316">
        <ele>404.0</ele>
        <time>2014-11-15T12:15:15Z</time>
      </trkpt>
      <trkpt lat="54.548246" lon="-3.407503">
        <ele>405.0</ele>
        <time>2014-11-15T12:15:19Z</time>
      </trkpt>
      <trkpt lat="54.548235" lon="-3.407651">
        <ele>406.0</ele>
        <time>2014-11-15T12:15:23Z</time>
      </trkpt>
      <trkpt lat="54.548353" lon="-3.407776">
        <ele>407.0</ele>
        <time>2014-11-15T12:15:27Z</time>
      </trkpt>
      <trkpt lat="54.548403" lon="-3.40798">
        <ele>407.0</ele>
        <time>2014-11-15T12:15:31Z</time>
      </trkpt>
      <trkpt lat="54.548495" lon="-3.408165">
        <ele>408.0</ele>
        <time>2014-11-15T12:15:35Z</time>
      </trkpt>
      <trkpt lat="54.548466" lon="-3.408323">
        <ele>409.0</ele>
        <time>2014-11-15T12:15:39Z</time>
      </trkpt>
      <trkpt lat="54.548443" lon="-3.408531">
        <ele>410.0</ele>
        <time>2014-11-15T12:15:43Z</time>
      </trkpt>
      <trkpt lat="54.548465" lon="-3.408666">
        <ele>411.0</ele>
        <time>2014-11-15T12:15:47Z</time>
      </trkpt>
      <trkpt lat="54.54853" lon="-3.408871">
        <ele>411.0</ele>
        <time>2014-11-15T12:15:51Z</time>
      </trkpt>
      <trkpt lat="54.548556" lon="-3.40907">
        <ele>412.0</ele>
        <time>2014-11-15T12:15:55Z</time>
      </trkpt>
      <trkpt lat="54.54859" lon="-3.409248">
        <ele>413.0</ele>
        <time>2014-11-15T12:15:59Z</time>
      </trkpt>
      <trkpt lat="54.54866" lon="-3.40943">
        <ele>414.0</ele>
        <time>2014-11-15T12:16:03Z</time>
      </trkpt>
      <trkpt lat="54.548765" lon="-3.409613">
        <ele>414.0</ele>
        <time>2014-11-15T12:16:07Z</time>
      </trkpt>
      <trkpt lat="54.548853" lon="-3.409786">
        <ele>415.0</ele>
        <time>2014-11-15T12:16:11Z</time>
      </trkpt>
      <trkpt lat="54.548871" lon="-3.409958">
        <ele>416.0</ele>
        <time>2014-11-15T12:16:15Z</time>
      </trkpt>
      <trkpt lat="54.54897" lon="-3.410098">
        <ele>418.0</ele>
        <time>2014-11-15T12:16:19Z</time>
      </trkpt>
      <trkpt lat="54.549116" lon="-3.410223">
        <ele>419.0</ele>
        <time>2014-11-15T12:16:23Z</time>
      </trkpt>
      <trkpt lat="54.549121" lon="-3.410341">
        <ele>420.0</ele>
        <time>2014-11-15T12:16:27Z</time>
      </trkpt>
      <trkpt lat="54.549121" lon="-3.410478">
        <ele>421.0</ele>
        <time>2014-11-15T12:16:31Z</time>
      </trkpt>
      <trkpt lat="54.549175" lon="-3.410585">
        <ele>422.0</ele>
        <time>2014-11-15T12:16:35Z</time>
      </trkpt>
      <trkpt lat="54.54924" lon="-3.410711">
        <ele>424.0</ele>
        <time>2014-11-15T12:16:39Z</time>
      </trkpt>
      <trkpt lat="54.549288" lon="-3.410825">
        <ele>425.0</ele>
        <time>2014-11-15T12:16:43Z</time>
      </trkpt>
      <trkpt lat="54.549271" lon="-3.410908">
        <ele>426.0</ele>
        <time>2014-11-15T12:16:47Z</time>
      </trkpt>
      <trkpt lat="54.549273" lon="-3.411001">
        <ele>427.0</ele>
        <time>2014-11-15T12:16:51Z</time>
      </trkpt>
      <trkpt lat="54.549406" lon="-3.411171">
        <ele>428.0</ele>
        <time>2014-11-15T12:16:55Z</time>
      </trkpt>
      <trkpt lat="54.549443" lon="-3.411243">
        <ele>429.0</ele>
        <time>2014-11-15T12:16:59Z</time>
      </trkpt>
      <trkpt lat="54.549543" lon="-3.411393">
        <ele>430.0</ele>
        <time>2014-11-15T12:17:03Z</time>
      </trkpt>
      <trkpt lat="54.549605" lon="-3.411518">
        <ele>431.0</ele>
        <time>2014-11-15T12:17:07Z</time>
      </trkpt>
      <trkpt lat="54.54976" lon="-3.411633">
        <ele>432.0</ele>
        <time>2014-11-15T12:17:11Z</time>
      </trkpt>
      <trkpt lat="54.549786" lon="-3.41176">
        <ele>432.0</ele>
        <time>2014-11-15T12:17:15Z</time>
      </trkpt>
      <trkpt lat="54.549816" lon="-3.411891">
        <ele>433.0</ele>
        <time>2014-11-15T12:17:19Z</time>
      </trkpt>
      <trkpt lat="54.549878" lon="-3.412085">
        <ele>434.0</ele>
        <time>2014-11-15T12:17:23Z</time>
      </trkpt>
      <trkpt lat="54.549981" lon="-3.412163">
        <ele>435.0</ele>
        <time>2014-11-15T12:17:27Z</time>
      </trkpt>
      <trkpt lat="54.550113" lon="-3.412228">
        <ele>436.0</ele>
        <time>2014-11-15T12:17:31Z</time>
      </trkpt>
      <trkpt lat="54.55013" lon="-3.412291">
        <ele>436.0</ele>
        <time>2014-11-15T12:17:35Z</time>
      </trkpt>
      <trkpt lat="54.550235" lon="-3.41239">
        <ele>437.0</ele>
        <time>2014-11-15T12:17:39Z</time>
      </trkpt>
      <trkpt lat="54.550348" lon="-3.412511">
        <ele>438.0</ele>
        <time>2014-11-15T12:17:43Z</time>
      </trkpt>
      <trkpt lat="54.550465" lon="-3.412625">
        <ele>438.0</ele>
        <time>2014-11-15T12:17:47Z</time>
      </trkpt>
      <trkpt lat="54.550591" lon="-3.412701">
        <ele>438.0</ele>
        <time>2014-11-15T12:17:51Z</time>
      </trkpt>
      <trkpt lat="54.550743" lon="-3.412816">
        <ele>437.0</ele>
        <time>2014-11-15T12:17:55Z</time>
      </trkpt>
      <trkpt lat="54.550976" lon="-3.412948">
        <ele>436.0</ele>
        <time>2014-11-15T12:17:59Z</time>
      </trkpt>
      <trkpt lat="54.551238" lon="-3.413168">
        <ele>435.0</ele>
        <time>2014-11-15T12:18:03Z</time>
      </trkpt>
      <trkpt lat="54.551658" lon="-3.413438">
        <ele>432.0</ele>
        <time>2014-11-15T12:18:07Z</time>
      </trkpt>
      <trkpt lat="54.552041" lon="-3.413758">
        <ele>428.0</ele>
        <time>2014-11-15T12:18:11Z</time>
      </trkpt>
      <trkpt lat="54.552318" lon="-3.413976">
        <ele>424.0</ele>
        <time>2014-11-15T12:18:15Z</time>
      </trkpt>
      <trkpt lat="54.552675" lon="-3.414263">
        <ele>424.0</ele>
        <time>2014-11-15T12:18:19Z</time>
      </trkpt>
      <trkpt lat="54.552953" lon="-3.414586">
        <ele>423.0</ele>
        <time>2014-11-15T12:18:23Z</time>
      </trkpt>
      <trkpt lat="54.553083" lon="-3.414928">
        <ele>423.0</ele>
        <time>2014-11-15T12:18:27Z</time>
      </trkpt>
      <trkpt lat="54.553156" lon="-3.415223">
        <ele>424.0</ele>
        <time>2014-11-15T12:18:31Z</time>
      </trkpt>
      <trkpt lat="54.55326" lon="-3.41548">
        <ele>426.0</ele>
        <time>2014-11-15T12:18:35Z</time>
      </trkpt>
      <trkpt lat="54.553433" lon="-3.415705">
        <ele>428.0</ele>
        <time>2014-11-15T12:18:39Z</time>
      </trkpt>
      <trkpt lat="54.553561" lon="-3.415846">
        <ele>428.0</ele>
        <time>2014-11-15T12:18:43Z</time>
      </trkpt>
      <trkpt lat="54.55377" lon="-3.415948">
        <ele>428.0</ele>
        <time>2014-11-15T12:18:47Z</time>
      </trkpt>
      <trkpt lat="54.553973" lon="-3.416053">
        <ele>428.0</ele>
        <time>2014-11-15T12:18:51Z</time>
      </trkpt>
      <trkpt lat="54.554281" lon="-3.416123">
        <ele>427.0</ele>
        <time>2014-11-15T12:18:55Z</time>
      </trkpt>
      <trkpt lat="54.554561" lon="-3.416213">
        <ele>427.0</ele>
        <time>2014-11-15T12:18:59Z</time>
      </trkpt>
      <trkpt lat="54.554843" lon="-3.416325">
        <ele>427.0</ele>
        <time>2014-11-15T12:19:03Z</time>
      </trkpt>
      <trkpt lat="54.55516" lon="-3.416495">
        <ele>426.0</ele>
        <time>2014-11-15T12:19:07Z</time>
      </trkpt>
      <trkpt lat="54.555488" lon="-3.416691">
        <ele>424.0</ele>
        <time>2014-11-15T12:19:11Z</time>
      </trkpt>
      <trkpt lat="54.555778" lon="-3.41689">
        <ele>424.0</ele>
        <time>2014-11-15T12:19:15Z</time>
      </trkpt>
      <trkpt lat="54.556071" lon="-3.416976">
        <ele>424.0</ele>
        <time>2014-11-15T12:19:19Z</time>
      </trkpt>
      <trkpt lat="54.55629" lon="-3.417103">
        <ele>426.0</ele>
        <time>2014-11-15T12:19:23Z</time>
      </trkpt>
      <trkpt lat="54.556561" lon="-3.417246">
        <ele>427.0</ele>
        <time>2014-11-15T12:19:27Z</time>
      </trkpt>
      <trkpt lat="54.556713" lon="-3.417223">
        <ele>429.0</ele>
        <time>2014-11-15T12:19:31Z</time>
      </trkpt>
      <trkpt lat="54.556875" lon="-3.417216">
        <ele>429.0</ele>
        <time>2014-11-15T12:19:35Z</time>
      </trkpt>
      <trkpt lat="54.55712" lon="-3.417206">
        <ele>430.0</ele>
        <time>2014-11-15T12:19:39Z</time>
      </trkpt>
      <trkpt lat="54.557348" lon="-3.417258">
        <ele>429.0</ele>
        <time>2014-11-15T12:19:43Z</time>
      </trkpt>
      <trkpt lat="54.55761" lon="-3.417308">
        <ele>429.0</ele>
        <time>2014-11-15T12:19:47Z</time>
      </trkpt>
      <trkpt lat="54.557876" lon="-3.417246">
        <ele>427.0</ele>
        <time>2014-11-15T12:19:51Z</time>
      </trkpt>
      <trkpt lat="54.558191" lon="-3.417143">
        <ele>426.0</ele>
        <time>2014-11-15T12:19:55Z</time>
      </trkpt>
      <trkpt lat="54.558536" lon="-3.417016">
        <ele>425.0</ele>
        <time>2014-11-15T12:19:59Z</time>
      </trkpt>
      <trkpt lat="54.55883" lon="-3.416988">
        <ele>424.0</ele>
        <time>2014-11-15T12:20:03Z</time>
      </trkpt>
      <trkpt lat="54.559166" lon="-3.417005">
        <ele>424.0</ele>
        <time>2014-11-15T12:20:07Z</time>
      </trkpt>
      <trkpt lat="54.559491" lon="-3.41702">
        <ele>424.0</ele>
        <time>2014-11-15T12:20:11Z</time>
      </trkpt>
      <trkpt lat="54.55984" lon="-3.417033">
        <ele>421.0</ele>
        <time>2014-11-15T12:20:15Z</time>
      </trkpt>
      <trkpt lat="54.560236" lon="-3.417063">
        <ele>419.0</ele>
        <time>2014-11-15T12:20:19Z</time>
      </trkpt>
      <trkpt lat="54.5606" lon="-3.417085">
        <ele>417.0</ele>
        <time>2014-11-15T12:20:23Z</time>
      </trkpt>
      <trkpt lat="54.560968" lon="-3.417113">
        <ele>416.0</ele>
        <time>2014-11-15T12:20:27Z</time>
      </trkpt>
      <trkpt lat="54.561358" lon="-3.417106">
        <ele>414.0</ele>
        <time>2014-11-15T12:20:31Z</time>
      </trkpt>
      <trkpt lat="54.561773" lon="-3.416901">
        <ele>411.0</ele>
        <time>2014-11-15T12:20:35Z</time>
      </trkpt>
      <trkpt lat="54.56218" lon="-3.41686">
        <ele>408.0</ele>
        <time>2014-11-15T12:20:39Z</time>
      </trkpt>
      <trkpt lat="54.562598" lon="-3.416918">
        <ele>407.0</ele>
        <time>2014-11-15T12:20:43Z</time>
      </trkpt>
      <trkpt lat="54.563115" lon="-3.417085">
        <ele>404.0</ele>
        <time>2014-11-15T12:20:47Z</time>
      </trkpt>
      <trkpt lat="54.56341" lon="-3.417131">
        <ele>402.0</ele>
        <time>2014-11-15T12:20:51Z</time>
      </trkpt>
      <trkpt lat="54.563806" lon="-3.417206">
        <ele>399.0</ele>
        <time>2014-11-15T12:20:55Z</time>
      </trkpt>
      <trkpt lat="54.564208" lon="-3.41727">
        <ele>394.0</ele>
        <time>2014-11-15T12:20:59Z</time>
      </trkpt>
      <trkpt lat="54.564548" lon="-3.417211">
        <ele>390.0</ele>
        <time>2014-11-15T12:21:03Z</time>
      </trkpt>
      <trkpt lat="54.56495" lon="-3.416933">
        <ele>385.0</ele>
        <time>2014-11-15T12:21:07Z</time>
      </trkpt>
      <trkpt lat="54.565405" lon="-3.416738">
        <ele>381.0</ele>
        <time>2014-11-15T12:21:11Z</time>
      </trkpt>
      <trkpt lat="54.56575" lon="-3.416621">
        <ele>378.0</ele>
        <time>2014-11-15T12:21:15Z</time>
      </trkpt>
      <trkpt lat="54.566091" lon="-3.416773">
        <ele>378.0</ele>
        <time>2014-11-15T12:21:19Z</time>
      </trkpt>
      <trkpt lat="54.566361" lon="-3.417335">
        <ele>374.0</ele>
        <time>2014-11-15T12:21:23Z</time>
      </trkpt>
      <trkpt lat="54.566615" lon="-3.417941">
        <ele>371.0</ele>
        <time>2014-11-15T12:21:27Z</time>
      </trkpt>
      <trkpt lat="54.566661" lon="-3.418665">
        <ele>367.0</ele>
        <time>2014-11-15T12:21:31Z</time>
      </trkpt>
      <trkpt lat="54.566621" lon="-3.419345">
        <ele>364.0</ele>
        <time>2014-11-15T12:21:35Z</time>
      </trkpt>
      <trkpt lat="54.566686" lon="-3.419626">
        <ele>360.0</ele>
        <time>2014-11-15T12:21:39Z</time>
      </trkpt>
      <trkpt lat="54.566891" lon="-3.419551">
        <ele>359.0</ele>
        <time>2014-11-15T12:21:43Z</time>
      </trkpt>
      <trkpt lat="54.567108" lon="-3.419486">
        <ele>360.0</ele>
        <time>2014-11-15T12:21:47Z</time>
      </trkpt>
      <trkpt lat="54.567351" lon="-3.41931">
        <ele>359.0</ele>
        <time>2014-11-15T12:21:51Z</time>
      </trkpt>
      <trkpt lat="54.567655" lon="-3.419541">
        <ele>359.0</ele>
        <time>2014-11-15T12:21:55Z</time>
      </trkpt>
      <trkpt lat="54.56772" lon="-3.419965">
        <ele>358.0</ele>
        <time>2014-11-15T12:21:59Z</time>
      </trkpt>
      <trkpt lat="54.567918" lon="-3.420235">
        <ele>356.0</ele>
        <time>2014-11-15T12:22:03Z</time>
      </trkpt>
      <trkpt lat="54.568231" lon="-3.419983">
        <ele>353.0</ele>
        <time>2014-11-15T12:22:07Z</time>
      </trkpt>
      <trkpt lat="54.568426" lon="-3.419788">
        <ele>353.0</ele>
        <time>2014-11-15T12:22:11Z</time>
      </trkpt>
      <trkpt lat="54.568698" lon="-3.41956">
        <ele>352.0</ele>
        <time>2014-11-15T12:22:15Z</time>
      </trkpt>
      <trkpt lat="54.568963" lon="-3.419368">
        <ele>353.0</ele>
        <time>2014-11-15T12:22:19Z</time>
      </trkpt>
      <trkpt lat="54.569158" lon="-3.419173">
        <ele>354.0</ele>
        <time>2014-11-15T12:22:23Z</time>
      </trkpt>
      <trkpt lat="54.569333" lon="-3.419005">
        <ele>355.0</ele>
        <time>2014-11-15T12:22:27Z</time>
      </trkpt>
      <trkpt lat="54.569598" lon="-3.418945">
        <ele>355.0</ele>
        <time>2014-11-15T12:22:31Z</time>
      </trkpt>
      <trkpt lat="54.569806" lon="-3.418896">
        <ele>356.0</ele>
        <time>2014-11-15T12:22:35Z</time>
      </trkpt>
      <trkpt lat="54.570068" lon="-3.418918">
        <ele>355.0</ele>
        <time>2014-11-15T12:22:39Z</time>
      </trkpt>
      <trkpt lat="54.570385" lon="-3.418751">
        <ele>353.0</ele>
        <time>2014-11-15T12:22:43Z</time>
      </trkpt>
      <trkpt lat="54.570736" lon="-3.41863">
        <ele>350.0</ele>
        <time>2014-11-15T12:22:47Z</time>
      </trkpt>
      <trkpt lat="54.571043" lon="-3.418523">
        <ele>350.0</ele>
        <time>2014-11-15T12:22:51Z</time>
      </trkpt>
      <trkpt lat="54.57131" lon="-3.418168">
        <ele>349.0</ele>
        <time>2014-11-15T12:22:55Z</time>
      </trkpt>
      <trkpt lat="54.571598" lon="-3.417941">
        <ele>347.0</ele>
        <time>2014-11-15T12:22:59Z</time>
      </trkpt>
      <trkpt lat="54.571778" lon="-3.417893">
        <ele>347.0</ele>
        <time>2014-11-15T12:23:03Z</time>
      </trkpt>
      <trkpt lat="54.571925" lon="-3.417755">
        <ele>347.0</ele>
        <time>2014-11-15T12:23:07Z</time>
      </trkpt>
      <trkpt lat="54.57214" lon="-3.417458">
        <ele>346.0</ele>
        <time>2014-11-15T12:23:11Z</time>
      </trkpt>
      <trkpt lat="54.572266" lon="-3.417036">
        <ele>347.0</ele>
        <time>2014-11-15T12:23:15Z</time>
      </trkpt>
      <trkpt lat="54.57239" lon="-3.4167">
        <ele>347.0</ele>
        <time>2014-11-15T12:23:19Z</time>
      </trkpt>
      <trkpt lat="54.572471" lon="-3.416373">
        <ele>347.0</ele>
        <time>2014-11-15T12:23:23Z</time>
      </trkpt>
      <trkpt lat="54.57255" lon="-3.416061">
        <ele>348.0</ele>
        <time>2014-11-15T12:23:27Z</time>
      </trkpt>
      <trkpt lat="54.572693" lon="-3.415781">
        <ele>349.0</ele>
        <time>2014-11-15T12:23:31Z</time>
      </trkpt>
      <trkpt lat="54.572821" lon="-3.415523">
        <ele>349.0</ele>
        <time>2014-11-15T12:23:35Z</time>
      </trkpt>
      <trkpt lat="54.572948" lon="-3.415235">
        <ele>349.0</ele>
        <time>2014-11-15T12:23:39Z</time>
      </trkpt>
      <trkpt lat="54.573045" lon="-3.414933">
        <ele>350.0</ele>
        <time>2014-11-15T12:23:43Z</time>
      </trkpt>
      <trkpt lat="54.573175" lon="-3.414686">
        <ele>352.0</ele>
        <time>2014-11-15T12:23:47Z</time>
      </trkpt>
      <trkpt lat="54.573206" lon="-3.414371">
        <ele>353.0</ele>
        <time>2014-11-15T12:23:51Z</time>
      </trkpt>
      <trkpt lat="54.57326" lon="-3.414075">
        <ele>353.0</ele>
        <time>2014-11-15T12:23:55Z</time>
      </trkpt>
      <trkpt lat="54.573355" lon="-3.413841">
        <ele>354.0</ele>
        <time>2014-11-15T12:23:59Z</time>
      </trkpt>
      <trkpt lat="54.57343" lon="-3.413608">
        <ele>355.0</ele>
        <time>2014-11-15T12:24:03Z</time>
      </trkpt>
      <trkpt lat="54.573503" lon="-3.41344">
        <ele>356.0</ele>
        <time>2014-11-15T12:24:07Z</time>
      </trkpt>
      <trkpt lat="54.573555" lon="-3.41327">
        <ele>357.0</ele>
        <time>2014-11-15T12:24:11Z</time>
      </trkpt>
      <trkpt lat="54.573625" lon="-3.413053">
        <ele>358.0</ele>
        <time>2014-11-15T12:24:15Z</time>
      </trkpt>
      <trkpt lat="54.573718" lon="-3.412916">
        <ele>359.0</ele>
        <time>2014-11-15T12:24:19Z</time>
      </trkpt>
      <trkpt lat="54.573778" lon="-3.412801">
        <ele>360.0</ele>
        <time>2014-11-15T12:24:23Z</time>
      </trkpt>
      <trkpt lat="54.573853" lon="-3.412633">
        <ele>362.0</ele>
        <time>2014-11-15T12:24:27Z</time>
      </trkpt>
      <trkpt lat="54.573833" lon="-3.412326">
        <ele>363.0</ele>
        <time>2014-11-15T12:24:31Z</time>
      </trkpt>
      <trkpt lat="54.573848" lon="-3.412125">
        <ele>364.0</ele>
        <time>2014-11-15T12:24:35Z</time>
      </trkpt>
      <trkpt lat="54.57392" lon="-3.411941">
        <ele>365.0</ele>
        <time>2014-11-15T12:24:39Z</time>
      </trkpt>
      <trkpt lat="54.573928" lon="-3.411703">
        <ele>366.0</ele>
        <time>2014-11-15T12:24:43Z</time>
      </trkpt>
      <trkpt lat="54.573983" lon="-3.411531">
        <ele>367.0</ele>
        <time>2014-11-15T12:24:47Z</time>
      </trkpt>
      <trkpt lat="54.57404" lon="-3.411421">
        <ele>368.0</ele>
        <time>2014-11-15T12:24:51Z</time>
      </trkpt>
      <trkpt lat="54.574028" lon="-3.411211">
        <ele>369.0</ele>
        <time>2014-11-15T12:24:55Z</time>
      </trkpt>
      <trkpt lat="54.574085" lon="-3.411006">
        <ele>369.0</ele>
        <time>2014-11-15T12:24:59Z</time>
      </trkpt>
      <trkpt lat="54.574238" lon="-3.410821">
        <ele>368.0</ele>
        <time>2014-11-15T12:25:03Z</time>
      </trkpt>
      <trkpt lat="54.57445" lon="-3.410708">
        <ele>368.0</ele>
        <time>2014-11-15T12:25:07Z</time>
      </trkpt>
      <trkpt lat="54.574721" lon="-3.410628">
        <ele>367.0</ele>
        <time>2014-11-15T12:25:11Z</time>
      </trkpt>
      <trkpt lat="54.575" lon="-3.410655">
        <ele>366.0</ele>
        <time>2014-11-15T12:25:15Z</time>
      </trkpt>
      <trkpt lat="54.575225" lon="-3.41083">
        <ele>365.0</ele>
        <time>2014-11-15T12:25:19Z</time>
      </trkpt>
      <trkpt lat="54.575488" lon="-3.411173">
        <ele>363.0</ele>
        <time>2014-11-15T12:25:23Z</time>
      </trkpt>
      <trkpt lat="54.575718" lon="-3.41121">
        <ele>363.0</ele>
        <time>2014-11-15T12:25:27Z</time>
      </trkpt>
      <trkpt lat="54.575873" lon="-3.411026">
        <ele>362.0</ele>
        <time>2014-11-15T12:25:31Z</time>
      </trkpt>
      <trkpt lat="54.576081" lon="-3.410825">
        <ele>363.0</ele>
        <time>2014-11-15T12:25:35Z</time>
      </trkpt>
      <trkpt lat="54.57622" lon="-3.41072">
        <ele>363.0</ele>
        <time>2014-11-15T12:25:39Z</time>
      </trkpt>
      <trkpt lat="54.576413" lon="-3.410576">
        <ele>363.0</ele>
        <time>2014-11-15T12:25:43Z</time>
      </trkpt>
      <trkpt lat="54.576626" lon="-3.410368">
        <ele>362.0</ele>
        <time>2014-11-15T12:25:47Z</time>
      </trkpt>
      <trkpt lat="54.57689" lon="-3.410303">
        <ele>363.0</ele>
        <time>2014-11-15T12:25:51Z</time>
      </trkpt>
      <trkpt lat="54.577031" lon="-3.410238">
        <ele>362.0</ele>
        <time>2014-11-15T12:25:55Z</time>
      </trkpt>
      <trkpt lat="54.577271" lon="-3.410145">
        <ele>362.0</ele>
        <time>2014-11-15T12:25:59Z</time>
      </trkpt>
      <trkpt lat="54.577488" lon="-3.409963">
        <ele>360.0</ele>
        <time>2014-11-15T12:26:03Z</time>
      </trkpt>
      <trkpt lat="54.577665" lon="-3.409628">
        <ele>360.0</ele>
        <time>2014-11-15T12:26:07Z</time>
      </trkpt>
      <trkpt lat="54.577831" lon="-3.40953">
        <ele>361.0</ele>
        <time>2014-11-15T12:26:11Z</time>
      </trkpt>
      <trkpt lat="54.577946" lon="-3.409306">
        <ele>362.0</ele>
        <time>2014-11-15T12:26:15Z</time>
      </trkpt>
      <trkpt lat="54.578203" lon="-3.409203">
        <ele>362.0</ele>
        <time>2014-11-15T12:26:19Z</time>
      </trkpt>
      <trkpt lat="54.578435" lon="-3.40907">
        <ele>363.0</ele>
        <time>2014-11-15T12:26:23Z</time>
      </trkpt>
      <trkpt lat="54.57862" lon="-3.409015">
        <ele>362.0</ele>
        <time>2014-11-15T12:26:27Z</time>
      </trkpt>
      <trkpt lat="54.578863" lon="-3.40885">
        <ele>362.0</ele>
        <time>2014-11-15T12:26:31Z</time>
      </trkpt>
      <trkpt lat="54.579066" lon="-3.40877">
        <ele>362.0</ele>
        <time>2014-11-15T12:26:35Z</time>
      </trkpt>
      <trkpt lat="54.579336" lon="-3.408596">
        <ele>362.0</ele>
        <time>2014-11-15T12:26:39Z</time>
      </trkpt>
      <trkpt lat="54.57954" lon="-3.408255">
        <ele>362.0</ele>
        <time>2014-11-15T12:26:43Z</time>
      </trkpt>
      <trkpt lat="54.579733" lon="-3.407896">
        <ele>361.0</ele>
        <time>2014-11-15T12:26:47Z</time>
      </trkpt>
      <trkpt lat="54.57987" lon="-3.407683">
        <ele>362.0</ele>
        <time>2014-11-15T12:26:51Z</time>
      </trkpt>
      <trkpt lat="54.579996" lon="-3.407428">
        <ele>363.0</ele>
        <time>2014-11-15T12:26:55Z</time>
      </trkpt>
      <trkpt lat="54.580123" lon="-3.407295">
        <ele>364.0</ele>
        <time>2014-11-15T12:26:59Z</time>
      </trkpt>
      <trkpt lat="54.580168" lon="-3.407061">
        <ele>365.0</ele>
        <time>2014-11-15T12:27:03Z</time>
      </trkpt>
      <trkpt lat="54.58026" lon="-3.406818">
        <ele>366.0</ele>
        <time>2014-11-15T12:27:07Z</time>
      </trkpt>
      <trkpt lat="54.580415" lon="-3.406656">
        <ele>367.0</ele>
        <time>2014-11-15T12:27:11Z</time>
      </trkpt>
      <trkpt lat="54.580531" lon="-3.406553">
        <ele>367.0</ele>
        <time>2014-11-15T12:27:15Z</time>
      </trkpt>
      <trkpt lat="54.580595" lon="-3.406346">
        <ele>369.0</ele>
        <time>2014-11-15T12:27:19Z</time>
      </trkpt>
      <trkpt lat="54.58066" lon="-3.406193">
        <ele>370.0</ele>
        <time>2014-11-15T12:27:23Z</time>
      </trkpt>
      <trkpt lat="54.580771" lon="-3.40604">
        <ele>371.0</ele>
        <time>2014-11-15T12:27:27Z</time>
      </trkpt>
      <trkpt lat="54.58085" lon="-3.40587">
        <ele>371.0</ele>
        <time>2014-11-15T12:27:31Z</time>
      </trkpt>
      <trkpt lat="54.580913" lon="-3.405646">
        <ele>373.0</ele>
        <time>2014-11-15T12:27:35Z</time>
      </trkpt>
      <trkpt lat="54.581033" lon="-3.40542">
        <ele>372.0</ele>
        <time>2014-11-15T12:27:39Z</time>
      </trkpt>
      <trkpt lat="54.5811" lon="-3.405248">
        <ele>373.0</ele>
        <time>2014-11-15T12:27:43Z</time>
      </trkpt>
      <trkpt lat="54.581231" lon="-3.4051">
        <ele>374.0</ele>
        <time>2014-11-15T12:27:47Z</time>
      </trkpt>
      <trkpt lat="54.58135" lon="-3.404871">
        <ele>375.0</ele>
        <time>2014-11-15T12:27:51Z</time>
      </trkpt>
      <trkpt lat="54.581406" lon="-3.404638">
        <ele>376.0</ele>
        <time>2014-11-15T12:27:55Z</time>
      </trkpt>
      <trkpt lat="54.581378" lon="-3.404401">
        <ele>377.0</ele>
        <time>2014-11-15T12:27:59Z</time>
      </trkpt>
      <trkpt lat="54.581465" lon="-3.404276">
        <ele>377.0</ele>
        <time>2014-11-15T12:28:03Z</time>
      </trkpt>
      <trkpt lat="54.581555" lon="-3.404048">
        <ele>377.0</ele>
        <time>2014-11-15T12:28:07Z</time>
      </trkpt>
      <trkpt lat="54.581603" lon="-3.403731">
        <ele>378.0</ele>
        <time>2014-11-15T12:28:11Z</time>
      </trkpt>
      <trkpt lat="54.581665" lon="-3.403456">
        <ele>377.0</ele>
        <time>2014-11-15T12:28:15Z</time>
      </trkpt>
      <trkpt lat="54.581745" lon="-3.403201">
        <ele>379.0</ele>
        <time>2014-11-15T12:28:19Z</time>
      </trkpt>
      <trkpt lat="54.581848" lon="-3.403053">
        <ele>379.0</ele>
        <time>2014-11-15T12:28:23Z</time>
      </trkpt>
      <trkpt lat="54.581915" lon="-3.402758">
        <ele>379.0</ele>
        <time>2014-11-15T12:28:27Z</time>
      </trkpt>
      <trkpt lat="54.581986" lon="-3.40249">
        <ele>380.0</ele>
        <time>2014-11-15T12:28:31Z</time>
      </trkpt>
      <trkpt lat="54.582098" lon="-3.402231">
        <ele>380.0</ele>
        <time>2014-11-15T12:28:35Z</time>
      </trkpt>
      <trkpt lat="54.582136" lon="-3.401965">
        <ele>381.0</ele>
        <time>2014-11-15T12:28:39Z</time>
      </trkpt>
      <trkpt lat="54.582166" lon="-3.401713">
        <ele>382.0</ele>
        <time>2014-11-15T12:28:43Z</time>
      </trkpt>
      <trkpt lat="54.582203" lon="-3.4014">
        <ele>382.0</ele>
        <time>2014-11-15T12:28:47Z</time>
      </trkpt>
      <trkpt lat="54.582298" lon="-3.40122">
        <ele>383.0</ele>
        <time>2014-11-15T12:28:51Z</time>
      </trkpt>
      <trkpt lat="54.582405" lon="-3.40101">
        <ele>384.0</ele>
        <time>2014-11-15T12:28:55Z</time>
      </trkpt>
      <trkpt lat="54.582455" lon="-3.40066">
        <ele>384.0</ele>
        <time>2014-11-15T12:28:59Z</time>
      </trkpt>
      <trkpt lat="54.582548" lon="-3.400356">
        <ele>385.0</ele>
        <time>2014-11-15T12:29:03Z</time>
      </trkpt>
      <trkpt lat="54.582623" lon="-3.400208">
        <ele>384.0</ele>
        <time>2014-11-15T12:29:07Z</time>
      </trkpt>
      <trkpt lat="54.582721" lon="-3.399985">
        <ele>384.0</ele>
        <time>2014-11-15T12:29:11Z</time>
      </trkpt>
      <trkpt lat="54.582826" lon="-3.399751">
        <ele>385.0</ele>
        <time>2014-11-15T12:29:15Z</time>
      </trkpt>
      <trkpt lat="54.582881" lon="-3.39946">
        <ele>385.0</ele>
        <time>2014-11-15T12:29:19Z</time>
      </trkpt>
      <trkpt lat="54.582986" lon="-3.399201">
        <ele>384.0</ele>
        <time>2014-11-15T12:29:23Z</time>
      </trkpt>
      <trkpt lat="54.583066" lon="-3.399006">
        <ele>385.0</ele>
        <time>2014-11-15T12:29:27Z</time>
      </trkpt>
      <trkpt lat="54.583155" lon="-3.398808">
        <ele>386.0</ele>
        <time>2014-11-15T12:29:31Z</time>
      </trkpt>
      <trkpt lat="54.583236" lon="-3.398615">
        <ele>385.0</ele>
        <time>2014-11-15T12:29:35Z</time>
      </trkpt>
      <trkpt lat="54.583338" lon="-3.398423">
        <ele>386.0</ele>
        <time>2014-11-15T12:29:39Z</time>
      </trkpt>
      <trkpt lat="54.583416" lon="-3.398213">
        <ele>386.0</ele>
        <time>2014-11-15T12:29:43Z</time>
      </trkpt>
      <trkpt lat="54.583588" lon="-3.398048">
        <ele>387.0</ele>
        <time>2014-11-15T12:29:47Z</time>
      </trkpt>
      <trkpt lat="54.583691" lon="-3.397913">
        <ele>387.0</ele>
        <time>2014-11-15T12:29:51Z</time>
      </trkpt>
      <trkpt lat="54.583781" lon="-3.397675">
        <ele>387.0</ele>
        <time>2014-11-15T12:29:55Z</time>
      </trkpt>
      <trkpt lat="54.583913" lon="-3.3975">
        <ele>388.0</ele>
        <time>2014-11-15T12:29:59Z</time>
      </trkpt>
      <trkpt lat="54.584021" lon="-3.397293">
        <ele>388.0</ele>
        <time>2014-11-15T12:30:03Z</time>
      </trkpt>
      <trkpt lat="54.584158" lon="-3.397068">
        <ele>388.0</ele>
        <time>2014-11-15T12:30:07Z</time>
      </trkpt>
      <trkpt lat="54.584286" lon="-3.39678">
        <ele>388.0</ele>
        <time>2014-11-15T12:30:11Z</time>
      </trkpt>
      <trkpt lat="54.584425" lon="-3.396513">
        <ele>388.0</ele>
        <time>2014-11-15T12:30:15Z</time>
      </trkpt>
      <trkpt lat="54.584603" lon="-3.396213">
        <ele>386.0</ele>
        <time>2014-11-15T12:30:19Z</time>
      </trkpt>
      <trkpt lat="54.58482" lon="-3.39595">
        <ele>385.0</ele>
        <time>2014-11-15T12:30:23Z</time>
      </trkpt>
      <trkpt lat="54.585048" lon="-3.395656">
        <ele>385.0</ele>
        <time>2014-11-15T12:30:27Z</time>
      </trkpt>
      <trkpt lat="54.585316" lon="-3.395348">
        <ele>383.0</ele>
        <time>2014-11-15T12:30:31Z</time>
      </trkpt>
      <trkpt lat="54.585555" lon="-3.395086">
        <ele>382.0</ele>
        <time>2014-11-15T12:30:35Z</time>
      </trkpt>
      <trkpt lat="54.585825" lon="-3.39482">
        <ele>382.0</ele>
        <time>2014-11-15T12:30:39Z</time>
      </trkpt>
      <trkpt lat="54.586138" lon="-3.394511">
        <ele>379.0</ele>
        <time>2014-11-15T12:30:43Z</time>
      </trkpt>
      <trkpt lat="54.586393" lon="-3.394291">
        <ele>378.0</ele>
        <time>2014-11-15T12:30:47Z</time>
      </trkpt>
      <trkpt lat="54.586651" lon="-3.394073">
        <ele>378.0</ele>
        <time>2014-11-15T12:30:51Z</time>
      </trkpt>
      <trkpt lat="54.586818" lon="-3.393885">
        <ele>379.0</ele>
        <time>2014-11-15T12:30:55Z</time>
      </trkpt>
      <trkpt lat="54.587001" lon="-3.393698">
        <ele>379.0</ele>
        <time>2014-11-15T12:30:59Z</time>
      </trkpt>
      <trkpt lat="54.587198" lon="-3.393568">
        <ele>379.0</ele>
        <time>2014-11-15T12:31:03Z</time>
      </trkpt>
      <trkpt lat="54.587443" lon="-3.393395">
        <ele>379.0</ele>
        <time>2014-11-15T12:31:07Z</time>
      </trkpt>
      <trkpt lat="54.587796" lon="-3.393156">
        <ele>377.0</ele>
        <time>2014-11-15T12:31:11Z</time>
      </trkpt>
      <trkpt lat="54.588093" lon="-3.392926">
        <ele>376.0</ele>
        <time>2014-11-15T12:31:15Z</time>
      </trkpt>
      <trkpt lat="54.588238" lon="-3.392763">
        <ele>376.0</ele>
        <time>2014-11-15T12:31:19Z</time>
      </trkpt>
      <trkpt lat="54.588438" lon="-3.392561">
        <ele>378.0</ele>
        <time>2014-11-15T12:31:23Z</time>
      </trkpt>
      <trkpt lat="54.588585" lon="-3.392413">
        <ele>380.0</ele>
        <time>2014-11-15T12:31:27Z</time>
      </trkpt>
      <trkpt lat="54.588716" lon="-3.392266">
        <ele>381.0</ele>
        <time>2014-11-15T12:31:31Z</time>
      </trkpt>
      <trkpt lat="54.58881" lon="-3.39208">
        <ele>383.0</ele>
        <time>2014-11-15T12:31:35Z</time>
      </trkpt>
      <trkpt lat="54.588875" lon="-3.391873">
        <ele>384.0</ele>
        <time>2014-11-15T12:31:39Z</time>
      </trkpt>
      <trkpt lat="54.588938" lon="-3.391691">
        <ele>385.0</ele>
        <time>2014-11-15T12:31:43Z</time>
      </trkpt>
      <trkpt lat="54.588953" lon="-3.391531">
        <ele>386.0</ele>
        <time>2014-11-15T12:31:47Z</time>
      </trkpt>
      <trkpt lat="54.588963" lon="-3.391385">
        <ele>387.0</ele>
        <time>2014-11-15T12:31:51Z</time>
      </trkpt>
      <trkpt lat="54.58896" lon="-3.391258">
        <ele>388.0</ele>
        <time>2014-11-15T12:31:55Z</time>
      </trkpt>
      <trkpt lat="54.588946" lon="-3.391128">
        <ele>388.0</ele>
        <time>2014-11-15T12:31:59Z</time>
      </trkpt>
      <trkpt lat="54.58897" lon="-3.390928">
        <ele>389.0</ele>
        <time>2014-11-15T12:32:03Z</time>
      </trkpt>
      <trkpt lat="54.589073" lon="-3.390603">
        <ele>389.0</ele>
        <time>2014-11-15T12:32:07Z</time>
      </trkpt>
      <trkpt lat="54.589165" lon="-3.390488">
        <ele>390.0</ele>
        <time>2014-11-15T12:32:11Z</time>
      </trkpt>
      <trkpt lat="54.5892" lon="-3.390163">
        <ele>390.0</ele>
        <time>2014-11-15T12:32:15Z</time>
      </trkpt>
      <trkpt lat="54.589228" lon="-3.389876">
        <ele>391.0</ele>
        <time>2014-11-15T12:32:19Z</time>
      </trkpt>
      <trkpt lat="54.589225" lon="-3.389638">
        <ele>391.0</ele>
        <time>2014-11-15T12:32:23Z</time>
      </trkpt>
      <trkpt lat="54.589275" lon="-3.389456">
        <ele>392.0</ele>
        <time>2014-11-15T12:32:27Z</time>
      </trkpt>
      <trkpt lat="54.58939" lon="-3.389151">
        <ele>392.0</ele>
        <time>2014-11-15T12:32:31Z</time>
      </trkpt>
      <trkpt lat="54.58949" lon="-3.388801">
        <ele>393.0</ele>
        <time>2014-11-15T12:32:35Z</time>
      </trkpt>
      <trkpt lat="54.589555" lon="-3.388565">
        <ele>393.0</ele>
        <time>2014-11-15T12:32:39Z</time>
      </trkpt>
      <trkpt lat="54.589595" lon="-3.388395">
        <ele>394.0</ele>
        <time>2014-11-15T12:32:43Z</time>
      </trkpt>
      <trkpt lat="54.58967" lon="-3.388246">
        <ele>394.0</ele>
        <time>2014-11-15T12:32:47Z</time>
      </trkpt>
      <trkpt lat="54.589736" lon="-3.388046">
        <ele>395.0</ele>
        <time>2014-11-15T12:32:51Z</time>
      </trkpt>
      <trkpt lat="54.589835" lon="-3.387941">
        <ele>395.0</ele>
        <time>2014-11-15T12:32:55Z</time>
      </trkpt>
      <trkpt lat="54.589911" lon="-3.387848">
        <ele>396.0</ele>
        <time>2014-11-15T12:32:59Z</time>
      </trkpt>
      <trkpt lat="54.590028" lon="-3.387661">
        <ele>397.0</ele>
        <time>2014-11-15T12:33:03Z</time>
      </trkpt>
      <trkpt lat="54.590085" lon="-3.387521">
        <ele>398.0</ele>
        <time>2014-11-15T12:33:07Z</time>
      </trkpt>
      <trkpt lat="54.590183" lon="-3.387355">
        <ele>399.0</ele>
        <time>2014-11-15T12:33:11Z</time>
      </trkpt>
      <trkpt lat="54.590248" lon="-3.387226">
        <ele>399.0</ele>
        <time>2014-11-15T12:33:15Z</time>
      </trkpt>
      <trkpt lat="54.590335" lon="-3.387165">
        <ele>400.0</ele>
        <time>2014-11-15T12:33:19Z</time>
      </trkpt>
      <trkpt lat="54.590381" lon="-3.386985">
        <ele>400.0</ele>
        <time>2014-11-15T12:33:23Z</time>
      </trkpt>
      <trkpt lat="54.590418" lon="-3.38678">
        <ele>401.0</ele>
        <time>2014-11-15T12:33:27Z</time>
      </trkpt>
      <trkpt lat="54.590508" lon="-3.386668">
        <ele>401.0</ele>
        <time>2014-11-15T12:33:31Z</time>
      </trkpt>
      <trkpt lat="54.590605" lon="-3.386451">
        <ele>401.0</ele>
        <time>2014-11-15T12:33:35Z</time>
      </trkpt>
      <trkpt lat="54.590645" lon="-3.38618">
        <ele>401.0</ele>
        <time>2014-11-15T12:33:39Z</time>
      </trkpt>
      <trkpt lat="54.590753" lon="-3.385936">
        <ele>401.0</ele>
        <time>2014-11-15T12:33:43Z</time>
      </trkpt>
      <trkpt lat="54.590936" lon="-3.385793">
        <ele>401.0</ele>
        <time>2014-11-15T12:33:47Z</time>
      </trkpt>
      <trkpt lat="54.59108" lon="-3.38556">
        <ele>401.0</ele>
        <time>2014-11-15T12:33:51Z</time>
      </trkpt>
      <trkpt lat="54.591271" lon="-3.3854">
        <ele>400.0</ele>
        <time>2014-11-15T12:33:55Z</time>
      </trkpt>
      <trkpt lat="54.59146" lon="-3.385221">
        <ele>399.0</ele>
        <time>2014-11-15T12:33:59Z</time>
      </trkpt>
      <trkpt lat="54.591715" lon="-3.385156">
        <ele>399.0</ele>
        <time>2014-11-15T12:34:03Z</time>
      </trkpt>
      <trkpt lat="54.591958" lon="-3.385303">
        <ele>396.0</ele>
        <time>2014-11-15T12:34:07Z</time>
      </trkpt>
      <trkpt lat="54.592278" lon="-3.385708">
        <ele>394.0</ele>
        <time>2014-11-15T12:34:11Z</time>
      </trkpt>
      <trkpt lat="54.592633" lon="-3.386053">
        <ele>393.0</ele>
        <time>2014-11-15T12:34:15Z</time>
      </trkpt>
      <trkpt lat="54.592786" lon="-3.386178">
        <ele>389.0</ele>
        <time>2014-11-15T12:34:19Z</time>
      </trkpt>
      <trkpt lat="54.592955" lon="-3.38602">
        <ele>387.0</ele>
        <time>2014-11-15T12:34:23Z</time>
      </trkpt>
      <trkpt lat="54.593035" lon="-3.38566">
        <ele>385.0</ele>
        <time>2014-11-15T12:34:27Z</time>
      </trkpt>
      <trkpt lat="54.593088" lon="-3.385156">
        <ele>382.0</ele>
        <time>2014-11-15T12:34:31Z</time>
      </trkpt>
      <trkpt lat="54.593083" lon="-3.384545">
        <ele>379.0</ele>
        <time>2014-11-15T12:34:35Z</time>
      </trkpt>
      <trkpt lat="54.593143" lon="-3.383848">
        <ele>376.0</ele>
        <time>2014-11-15T12:34:39Z</time>
      </trkpt>
      <trkpt lat="54.593123" lon="-3.383085">
        <ele>371.0</ele>
        <time>2014-11-15T12:34:43Z</time>
      </trkpt>
      <trkpt lat="54.593095" lon="-3.382308">
        <ele>367.0</ele>
        <time>2014-11-15T12:34:47Z</time>
      </trkpt>
      <trkpt lat="54.593051" lon="-3.381483">
        <ele>361.0</ele>
        <time>2014-11-15T12:34:51Z</time>
      </trkpt>
      <trkpt lat="54.592958" lon="-3.380533">
        <ele>356.0</ele>
        <time>2014-11-15T12:34:55Z</time>
      </trkpt>
      <trkpt lat="54.592871" lon="-3.379758">
        <ele>354.0</ele>
        <time>2014-11-15T12:34:59Z</time>
      </trkpt>
      <trkpt lat="54.592808" lon="-3.379266">
        <ele>353.0</ele>
        <time>2014-11-15T12:35:03Z</time>
      </trkpt>
      <trkpt lat="54.592843" lon="-3.378815">
        <ele>352.0</ele>
        <time>2014-11-15T12:35:07Z</time>
      </trkpt>
      <trkpt lat="54.592906" lon="-3.378033">
        <ele>350.0</ele>
        <time>2014-11-15T12:35:11Z</time>
      </trkpt>
      <trkpt lat="54.593011" lon="-3.377263">
        <ele>346.0</ele>
        <time>2014-11-15T12:35:15Z</time>
      </trkpt>
      <trkpt lat="54.593123" lon="-3.376523">
        <ele>340.0</ele>
        <time>2014-11-15T12:35:19Z</time>
      </trkpt>
      <trkpt lat="54.593171" lon="-3.375791">
        <ele>335.0</ele>
        <time>2014-11-15T12:35:23Z</time>
      </trkpt>
      <trkpt lat="54.593118" lon="-3.375268">
        <ele>330.0</ele>
        <time>2014-11-15T12:35:27Z</time>
      </trkpt>
      <trkpt lat="54.592773" lon="-3.374453">
        <ele>325.0</ele>
        <time>2014-11-15T12:35:31Z</time>
      </trkpt>
      <trkpt lat="54.592451" lon="-3.373896">
        <ele>321.0</ele>
        <time>2014-11-15T12:35:35Z</time>
      </trkpt>
      <trkpt lat="54.592191" lon="-3.373201">
        <ele>316.0</ele>
        <time>2014-11-15T12:35:39Z</time>
      </trkpt>
      <trkpt lat="54.591941" lon="-3.372673">
        <ele>314.0</ele>
        <time>2014-11-15T12:35:43Z</time>
      </trkpt>
      <trkpt lat="54.59184" lon="-3.372108">
        <ele>312.0</ele>
        <time>2014-11-15T12:35:47Z</time>
      </trkpt>
      <trkpt lat="54.591746" lon="-3.371496">
        <ele>311.0</ele>
        <time>2014-11-15T12:35:51Z</time>
      </trkpt>
      <trkpt lat="54.591623" lon="-3.371015">
        <ele>311.0</ele>
        <time>2014-11-15T12:35:55Z</time>
      </trkpt>
      <trkpt lat="54.591493" lon="-3.370563">
        <ele>310.0</ele>
        <time>2014-11-15T12:35:59Z</time>
      </trkpt>
      <trkpt lat="54.591345" lon="-3.370035">
        <ele>310.0</ele>
        <time>2014-11-15T12:36:03Z</time>
      </trkpt>
      <trkpt lat="54.591163" lon="-3.369586">
        <ele>309.0</ele>
        <time>2014-11-15T12:36:07Z</time>
      </trkpt>
      <trkpt lat="54.591051" lon="-3.369141">
        <ele>309.0</ele>
        <time>2014-11-15T12:36:11Z</time>
      </trkpt>
      <trkpt lat="54.590911" lon="-3.368741">
        <ele>309.0</ele>
        <time>2014-11-15T12:36:15Z</time>
      </trkpt>
      <trkpt lat="54.590758" lon="-3.368423">
        <ele>309.0</ele>
        <time>2014-11-15T12:36:19Z</time>
      </trkpt>
      <trkpt lat="54.590596" lon="-3.368136">
        <ele>310.0</ele>
        <time>2014-11-15T12:36:23Z</time>
      </trkpt>
      <trkpt lat="54.590461" lon="-3.367876">
        <ele>311.0</ele>
        <time>2014-11-15T12:36:27Z</time>
      </trkpt>
      <trkpt lat="54.590348" lon="-3.367586">
        <ele>312.0</ele>
        <time>2014-11-15T12:36:31Z</time>
      </trkpt>
      <trkpt lat="54.59022" lon="-3.367303">
        <ele>313.0</ele>
        <time>2014-11-15T12:36:35Z</time>
      </trkpt>
      <trkpt lat="54.590103" lon="-3.367018">
        <ele>313.0</ele>
        <time>2014-11-15T12:36:39Z</time>
      </trkpt>
      <trkpt lat="54.589971" lon="-3.366773">
        <ele>312.0</ele>
        <time>2014-11-15T12:36:43Z</time>
      </trkpt>
      <trkpt lat="54.589881" lon="-3.366388">
        <ele>312.0</ele>
        <time>2014-11-15T12:36:47Z</time>
      </trkpt>
      <trkpt lat="54.58977" lon="-3.365996">
        <ele>312.0</ele>
        <time>2014-11-15T12:36:51Z</time>
      </trkpt>
      <trkpt lat="54.589691" lon="-3.365565">
        <ele>313.0</ele>
        <time>2014-11-15T12:36:55Z</time>
      </trkpt>
      <trkpt lat="54.589613" lon="-3.365138">
        <ele>312.0</ele>
        <time>2014-11-15T12:36:59Z</time>
      </trkpt>
      <trkpt lat="54.589553" lon="-3.364701">
        <ele>310.0</ele>
        <time>2014-11-15T12:37:03Z</time>
      </trkpt>
      <trkpt lat="54.589406" lon="-3.364288">
        <ele>310.0</ele>
        <time>2014-11-15T12:37:07Z</time>
      </trkpt>
      <trkpt lat="54.589196" lon="-3.363905">
        <ele>310.0</ele>
        <time>2014-11-15T12:37:11Z</time>
      </trkpt>
      <trkpt lat="54.589023" lon="-3.363521">
        <ele>310.0</ele>
        <time>2014-11-15T12:37:15Z</time>
      </trkpt>
      <trkpt lat="54.588808" lon="-3.36323">
        <ele>309.0</ele>
        <time>2014-11-15T12:37:19Z</time>
      </trkpt>
      <trkpt lat="54.58869" lon="-3.362966">
        <ele>310.0</ele>
        <time>2014-11-15T12:37:23Z</time>
      </trkpt>
      <trkpt lat="54.588626" lon="-3.3626">
        <ele>310.0</ele>
        <time>2014-11-15T12:37:27Z</time>
      </trkpt>
      <trkpt lat="54.588586" lon="-3.362236">
        <ele>311.0</ele>
        <time>2014-11-15T12:37:31Z</time>
      </trkpt>
      <trkpt lat="54.588595" lon="-3.36186">
        <ele>312.0</ele>
        <time>2014-11-15T12:37:35Z</time>
      </trkpt>
      <trkpt lat="54.588576" lon="-3.361523">
        <ele>312.0</ele>
        <time>2014-11-15T12:37:39Z</time>
      </trkpt>
      <trkpt lat="54.5885" lon="-3.361261">
        <ele>313.0</ele>
        <time>2014-11-15T12:37:43Z</time>
      </trkpt>
      <trkpt lat="54.588451" lon="-3.360968">
        <ele>315.0</ele>
        <time>2014-11-15T12:37:47Z</time>
      </trkpt>
      <trkpt lat="54.588431" lon="-3.360721">
        <ele>315.0</ele>
        <time>2014-11-15T12:37:51Z</time>
      </trkpt>
      <trkpt lat="54.58839" lon="-3.360498">
        <ele>316.0</ele>
        <time>2014-11-15T12:37:55Z</time>
      </trkpt>
      <trkpt lat="54.588243" lon="-3.360283">
        <ele>317.0</ele>
        <time>2014-11-15T12:37:59Z</time>
      </trkpt>
      <trkpt lat="54.588035" lon="-3.360091">
        <ele>317.0</ele>
        <time>2014-11-15T12:38:03Z</time>
      </trkpt>
      <trkpt lat="54.587935" lon="-3.359721">
        <ele>316.0</ele>
        <time>2014-11-15T12:38:07Z</time>
      </trkpt>
      <trkpt lat="54.587788" lon="-3.359321">
        <ele>314.0</ele>
        <time>2014-11-15T12:38:11Z</time>
      </trkpt>
      <trkpt lat="54.587605" lon="-3.358943">
        <ele>314.0</ele>
        <time>2014-11-15T12:38:15Z</time>
      </trkpt>
      <trkpt lat="54.587383" lon="-3.358596">
        <ele>312.0</ele>
        <time>2014-11-15T12:38:19Z</time>
      </trkpt>
      <trkpt lat="54.587168" lon="-3.358258">
        <ele>312.0</ele>
        <time>2014-11-15T12:38:23Z</time>
      </trkpt>
      <trkpt lat="54.586948" lon="-3.358036">
        <ele>312.0</ele>
        <time>2014-11-15T12:38:27Z</time>
      </trkpt>
      <trkpt lat="54.586765" lon="-3.357816">
        <ele>311.0</ele>
        <time>2014-11-15T12:38:31Z</time>
      </trkpt>
      <trkpt lat="54.586625" lon="-3.357491">
        <ele>310.0</ele>
        <time>2014-11-15T12:38:35Z</time>
      </trkpt>
      <trkpt lat="54.586448" lon="-3.35715">
        <ele>309.0</ele>
        <time>2014-11-15T12:38:39Z</time>
      </trkpt>
      <trkpt lat="54.586265" lon="-3.356858">
        <ele>309.0</ele>
        <time>2014-11-15T12:38:43Z</time>
      </trkpt>
      <trkpt lat="54.58608" lon="-3.35646">
        <ele>308.0</ele>
        <time>2014-11-15T12:38:47Z</time>
      </trkpt>
      <trkpt lat="54.58592" lon="-3.356215">
        <ele>307.0</ele>
        <time>2014-11-15T12:38:51Z</time>
      </trkpt>
      <trkpt lat="54.585716" lon="-3.355811">
        <ele>307.0</ele>
        <time>2014-11-15T12:38:55Z</time>
      </trkpt>
      <trkpt lat="54.585595" lon="-3.3554">
        <ele>306.0</ele>
        <time>2014-11-15T12:38:59Z</time>
      </trkpt>
      <trkpt lat="54.585446" lon="-3.355003">
        <ele>307.0</ele>
        <time>2014-11-15T12:39:03Z</time>
      </trkpt>
      <trkpt lat="54.585326" lon="-3.35458">
        <ele>307.0</ele>
        <time>2014-11-15T12:39:07Z</time>
      </trkpt>
      <trkpt lat="54.585131" lon="-3.354133">
        <ele>305.0</ele>
        <time>2014-11-15T12:39:11Z</time>
      </trkpt>
      <trkpt lat="54.584948" lon="-3.353695">
        <ele>304.0</ele>
        <time>2014-11-15T12:39:15Z</time>
      </trkpt>
      <trkpt lat="54.584765" lon="-3.353303">
        <ele>303.0</ele>
        <time>2014-11-15T12:39:19Z</time>
      </trkpt>
      <trkpt lat="54.58465" lon="-3.35301">
        <ele>303.0</ele>
        <time>2014-11-15T12:39:23Z</time>
      </trkpt>
      <trkpt lat="54.584503" lon="-3.352795">
        <ele>304.0</ele>
        <time>2014-11-15T12:39:27Z</time>
      </trkpt>
      <trkpt lat="54.584395" lon="-3.352531">
        <ele>304.0</ele>
        <time>2014-11-15T12:39:31Z</time>
      </trkpt>
      <trkpt lat="54.584178" lon="-3.352291">
        <ele>304.0</ele>
        <time>2014-11-15T12:39:35Z</time>
      </trkpt>
      <trkpt lat="54.584018" lon="-3.35197">
        <ele>304.0</ele>
        <time>2014-11-15T12:39:39Z</time>
      </trkpt>
      <trkpt lat="54.583975" lon="-3.351688">
        <ele>304.0</ele>
        <time>2014-11-15T12:39:43Z</time>
      </trkpt>
      <trkpt lat="54.583925" lon="-3.351446">
        <ele>305.0</ele>
        <time>2014-11-15T12:39:47Z</time>
      </trkpt>
      <trkpt lat="54.583735" lon="-3.351198">
        <ele>307.0</ele>
        <time>2014-11-15T12:39:51Z</time>
      </trkpt>
      <trkpt lat="54.583625" lon="-3.350923">
        <ele>307.0</ele>
        <time>2014-11-15T12:39:55Z</time>
      </trkpt>
      <trkpt lat="54.583493" lon="-3.350685">
        <ele>308.0</ele>
        <time>2014-11-15T12:39:59Z</time>
      </trkpt>
      <trkpt lat="54.58337" lon="-3.350498">
        <ele>308.0</ele>
        <time>2014-11-15T12:40:03Z</time>
      </trkpt>
      <trkpt lat="54.583195" lon="-3.350316">
        <ele>307.0</ele>
        <time>2014-11-15T12:40:07Z</time>
      </trkpt>
      <trkpt lat="54.583073" lon="-3.350023">
        <ele>306.0</ele>
        <time>2014-11-15T12:40:11Z</time>
      </trkpt>
      <trkpt lat="54.582911" lon="-3.349656">
        <ele>304.0</ele>
        <time>2014-11-15T12:40:15Z</time>
      </trkpt>
      <trkpt lat="54.582725" lon="-3.349336">
        <ele>304.0</ele>
        <time>2014-11-15T12:40:19Z</time>
      </trkpt>
      <trkpt lat="54.582536" lon="-3.349085">
        <ele>304.0</ele>
        <time>2014-11-15T12:40:23Z</time>
      </trkpt>
      <trkpt lat="54.582345" lon="-3.34888">
        <ele>304.0</ele>
        <time>2014-11-15T12:40:27Z</time>
      </trkpt>
      <trkpt lat="54.582233" lon="-3.34866">
        <ele>304.0</ele>
        <time>2014-11-15T12:40:31Z</time>
      </trkpt>
      <trkpt lat="54.582081" lon="-3.348383">
        <ele>305.0</ele>
        <time>2014-11-15T12:40:35Z</time>
      </trkpt>
      <trkpt lat="54.581978" lon="-3.348076">
        <ele>306.0</ele>
        <time>2014-11-15T12:40:39Z</time>
      </trkpt>
      <trkpt lat="54.581886" lon="-3.347751">
        <ele>306.0</ele>
        <time>2014-11-15T12:40:43Z</time>
      </trkpt>
      <trkpt lat="54.581785" lon="-3.347413">
        <ele>308.0</ele>
        <time>2014-11-15T12:40:47Z</time>
      </trkpt>
      <trkpt lat="54.581711" lon="-3.347125">
        <ele>308.0</ele>
        <time>2014-11-15T12:40:51Z</time>
      </trkpt>
      <trkpt lat="54.581633" lon="-3.346893">
        <ele>309.0</ele>
        <time>2014-11-15T12:40:55Z</time>
      </trkpt>
      <trkpt lat="54.581568" lon="-3.346693">
        <ele>310.0</ele>
        <time>2014-11-15T12:40:59Z</time>
      </trkpt>
      <trkpt lat="54.581516" lon="-3.34649">
        <ele>311.0</ele>
        <time>2014-11-15T12:41:03Z</time>
      </trkpt>
      <trkpt lat="54.581493" lon="-3.346305">
        <ele>312.0</ele>
        <time>2014-11-15T12:41:07Z</time>
      </trkpt>
      <trkpt lat="54.581461" lon="-3.346133">
        <ele>313.0</ele>
        <time>2014-11-15T12:41:11Z</time>
      </trkpt>
      <trkpt lat="54.58142" lon="-3.34596">
        <ele>315.0</ele>
        <time>2014-11-15T12:41:15Z</time>
      </trkpt>
      <trkpt lat="54.5814" lon="-3.345783">
        <ele>315.0</ele>
        <time>2014-11-15T12:41:19Z</time>
      </trkpt>
      <trkpt lat="54.581338" lon="-3.345533">
        <ele>316.0</ele>
        <time>2014-11-15T12:41:23Z</time>
      </trkpt>
      <trkpt lat="54.581286" lon="-3.345318">
        <ele>317.0</ele>
        <time>2014-11-15T12:41:27Z</time>
      </trkpt>
      <trkpt lat="54.58126" lon="-3.345101">
        <ele>318.0</ele>
        <time>2014-11-15T12:41:31Z</time>
      </trkpt>
      <trkpt lat="54.581261" lon="-3.344811">
        <ele>318.0</ele>
        <time>2014-11-15T12:41:35Z</time>
      </trkpt>
      <trkpt lat="54.581203" lon="-3.344583">
        <ele>318.0</ele>
        <time>2014-11-15T12:41:39Z</time>
      </trkpt>
      <trkpt lat="54.581148" lon="-3.344283">
        <ele>319.0</ele>
        <time>2014-11-15T12:41:43Z</time>
      </trkpt>
      <trkpt lat="54.581076" lon="-3.34401">
        <ele>319.0</ele>
        <time>2014-11-15T12:41:47Z</time>
      </trkpt>
      <trkpt lat="54.581033" lon="-3.343736">
        <ele>320.0</ele>
        <time>2014-11-15T12:41:51Z</time>
      </trkpt>
      <trkpt lat="54.581" lon="-3.343415">
        <ele>320.0</ele>
        <time>2014-11-15T12:41:55Z</time>
      </trkpt>
      <trkpt lat="54.580971" lon="-3.343026">
        <ele>320.0</ele>
        <time>2014-11-15T12:41:59Z</time>
      </trkpt>
      <trkpt lat="54.580903" lon="-3.342683">
        <ele>320.0</ele>
        <time>2014-11-15T12:42:03Z</time>
      </trkpt>
      <trkpt lat="54.58086" lon="-3.34237">
        <ele>320.0</ele>
        <time>2014-11-15T12:42:07Z</time>
      </trkpt>
      <trkpt lat="54.580786" lon="-3.34217">
        <ele>321.0</ele>
        <time>2014-11-15T12:42:11Z</time>
      </trkpt>
      <trkpt lat="54.580663" lon="-3.341948">
        <ele>321.0</ele>
        <time>2014-11-15T12:42:15Z</time>
      </trkpt>
      <trkpt lat="54.580548" lon="-3.341551">
        <ele>320.0</ele>
        <time>2014-11-15T12:42:19Z</time>
      </trkpt>
      <trkpt lat="54.580288" lon="-3.341023">
        <ele>317.0</ele>
        <time>2014-11-15T12:42:23Z</time>
      </trkpt>
      <trkpt lat="54.580141" lon="-3.340635">
        <ele>315.0</ele>
        <time>2014-11-15T12:42:27Z</time>
      </trkpt>
      <trkpt lat="54.579996" lon="-3.340285">
        <ele>315.0</ele>
        <time>2014-11-15T12:42:31Z</time>
      </trkpt>
      <trkpt lat="54.579845" lon="-3.34005">
        <ele>316.0</ele>
        <time>2014-11-15T12:42:35Z</time>
      </trkpt>
      <trkpt lat="54.579701" lon="-3.339736">
        <ele>316.0</ele>
        <time>2014-11-15T12:42:39Z</time>
      </trkpt>
      <trkpt lat="54.579515" lon="-3.339426">
        <ele>316.0</ele>
        <time>2014-11-15T12:42:43Z</time>
      </trkpt>
      <trkpt lat="54.579366" lon="-3.339098">
        <ele>316.0</ele>
        <time>2014-11-15T12:42:47Z</time>
      </trkpt>
      <trkpt lat="54.579166" lon="-3.338706">
        <ele>315.0</ele>
        <time>2014-11-15T12:42:51Z</time>
      </trkpt>
      <trkpt lat="54.579021" lon="-3.338226">
        <ele>314.0</ele>
        <time>2014-11-15T12:42:55Z</time>
      </trkpt>
      <trkpt lat="54.578911" lon="-3.337791">
        <ele>314.0</ele>
        <time>2014-11-15T12:42:59Z</time>
      </trkpt>
      <trkpt lat="54.578873" lon="-3.33742">
        <ele>315.0</ele>
        <time>2014-11-15T12:43:03Z</time>
      </trkpt>
      <trkpt lat="54.578773" lon="-3.337095">
        <ele>316.0</ele>
        <time>2014-11-15T12:43:07Z</time>
      </trkpt>
      <trkpt lat="54.578675" lon="-3.336815">
        <ele>317.0</ele>
        <time>2014-11-15T12:43:11Z</time>
      </trkpt>
      <trkpt lat="54.578643" lon="-3.3365">
        <ele>319.0</ele>
        <time>2014-11-15T12:43:15Z</time>
      </trkpt>
      <trkpt lat="54.578523" lon="-3.336215">
        <ele>320.0</ele>
        <time>2014-11-15T12:43:19Z</time>
      </trkpt>
      <trkpt lat="54.578421" lon="-3.335916">
        <ele>320.0</ele>
        <time>2014-11-15T12:43:23Z</time>
      </trkpt>
      <trkpt lat="54.57832" lon="-3.335671">
        <ele>320.0</ele>
        <time>2014-11-15T12:43:27Z</time>
      </trkpt>
      <trkpt lat="54.578265" lon="-3.335398">
        <ele>321.0</ele>
        <time>2014-11-15T12:43:31Z</time>
      </trkpt>
      <trkpt lat="54.57818" lon="-3.335186">
        <ele>322.0</ele>
        <time>2014-11-15T12:43:35Z</time>
      </trkpt>
      <trkpt lat="54.578123" lon="-3.334978">
        <ele>323.0</ele>
        <time>2014-11-15T12:43:39Z</time>
      </trkpt>
      <trkpt lat="54.57808" lon="-3.334805">
        <ele>323.0</ele>
        <time>2014-11-15T12:43:43Z</time>
      </trkpt>
      <trkpt lat="54.578011" lon="-3.334616">
        <ele>323.0</ele>
        <time>2014-11-15T12:43:47Z</time>
      </trkpt>
      <trkpt lat="54.577941" lon="-3.33434">
        <ele>322.0</ele>
        <time>2014-11-15T12:43:51Z</time>
      </trkpt>
      <trkpt lat="54.577873" lon="-3.334036">
        <ele>321.0</ele>
        <time>2014-11-15T12:43:55Z</time>
      </trkpt>
      <trkpt lat="54.577805" lon="-3.333511">
        <ele>320.0</ele>
        <time>2014-11-15T12:43:59Z</time>
      </trkpt>
      <trkpt lat="54.577725" lon="-3.332901">
        <ele>317.0</ele>
        <time>2014-11-15T12:44:03Z</time>
      </trkpt>
      <trkpt lat="54.577636" lon="-3.332358">
        <ele>316.0</ele>
        <time>2014-11-15T12:44:07Z</time>
      </trkpt>
      <trkpt lat="54.577535" lon="-3.33184">
        <ele>315.0</ele>
        <time>2014-11-15T12:44:11Z</time>
      </trkpt>
      <trkpt lat="54.577513" lon="-3.33142">
        <ele>314.0</ele>
        <time>2014-11-15T12:44:15Z</time>
      </trkpt>
      <trkpt lat="54.57749" lon="-3.331273">
        <ele>312.0</ele>
        <time>2014-11-15T12:44:19Z</time>
      </trkpt>
      <trkpt lat="54.577473" lon="-3.331206">
        <ele>311.0</ele>
        <time>2014-11-15T12:44:23Z</time>
      </trkpt>
      <trkpt lat="54.577481" lon="-3.331228">
        <ele>311.0</ele>
        <time>2014-11-15T12:44:27Z</time>
      </trkpt>
      <trkpt lat="54.577505" lon="-3.331243">
        <ele>311.0</ele>
        <time>2014-11-15T12:44:31Z</time>
      </trkpt>
      <trkpt lat="54.57754" lon="-3.331248">
        <ele>311.0</ele>
        <time>2014-11-15T12:44:35Z</time>
      </trkpt>
      <trkpt lat="54.577533" lon="-3.33129">
        <ele>311.0</ele>
        <time>2014-11-15T12:44:39Z</time>
      </trkpt>
      <trkpt lat="54.577528" lon="-3.331233">
        <ele>311.0</ele>
        <time>2014-11-15T12:44:43Z</time>
      </trkpt>
      <trkpt lat="54.577516" lon="-3.33125">
        <ele>311.0</ele>
        <time>2014-11-15T12:44:47Z</time>
      </trkpt>
      <trkpt lat="54.577503" lon="-3.331295">
        <ele>311.0</ele>
        <time>2014-11-15T12:44:51Z</time>
      </trkpt>
      <trkpt lat="54.577475" lon="-3.331276">
        <ele>311.0</ele>
        <time>2014-11-15T12:44:55Z</time>
      </trkpt>
      <trkpt lat="54.577505" lon="-3.331271">
        <ele>311.0</ele>
        <time>2014-11-15T12:44:59Z</time>
      </trkpt>
      <trkpt lat="54.57751" lon="-3.331276">
        <ele>311.0</ele>
        <time>2014-11-15T12:45:03Z</time>
      </trkpt>
      <trkpt lat="54.577501" lon="-3.331271">
        <ele>311.0</ele>
        <time>2014-11-15T12:45:07Z</time>
      </trkpt>
      <trkpt lat="54.577506" lon="-3.331208">
        <ele>311.0</ele>
        <time>2014-11-15T12:45:11Z</time>
      </trkpt>
      <trkpt lat="54.577518" lon="-3.331215">
        <ele>311.0</ele>
        <time>2014-11-15T12:45:15Z</time>
      </trkpt>
      <trkpt lat="54.577561" lon="-3.331243">
        <ele>311.0</ele>
        <time>2014-11-15T12:45:19Z</time>
      </trkpt>
      <trkpt lat="54.57755" lon="-3.331285">
        <ele>311.0</ele>
        <time>2014-11-15T12:45:23Z</time>
      </trkpt>
      <trkpt lat="54.577558" lon="-3.33124">
        <ele>311.0</ele>
        <time>2014-11-15T12:45:27Z</time>
      </trkpt>
      <trkpt lat="54.577531" lon="-3.331188">
        <ele>311.0</ele>
        <time>2014-11-15T12:45:31Z</time>
      </trkpt>
      <trkpt lat="54.577526" lon="-3.331231">
        <ele>311.0</ele>
        <time>2014-11-15T12:45:35Z</time>
      </trkpt>
      <trkpt lat="54.577518" lon="-3.331251">
        <ele>311.0</ele>
        <time>2014-11-15T12:45:39Z</time>
      </trkpt>
      <trkpt lat="54.57755" lon="-3.331275">
        <ele>311.0</ele>
        <time>2014-11-15T12:45:43Z</time>
      </trkpt>
      <trkpt lat="54.577571" lon="-3.33132">
        <ele>311.0</ele>
        <time>2014-11-15T12:45:47Z</time>
      </trkpt>
      <trkpt lat="54.577573" lon="-3.331285">
        <ele>311.0</ele>
        <time>2014-11-15T12:45:51Z</time>
      </trkpt>
      <trkpt lat="54.577606" lon="-3.33126">
        <ele>311.0</ele>
        <time>2014-11-15T12:45:55Z</time>
      </trkpt>
      <trkpt lat="54.577603" lon="-3.331251">
        <ele>311.0</ele>
        <time>2014-11-15T12:45:59Z</time>
      </trkpt>
      <trkpt lat="54.577571" lon="-3.331203">
        <ele>311.0</ele>
        <time>2014-11-15T12:46:03Z</time>
      </trkpt>
      <trkpt lat="54.577623" lon="-3.33126">
        <ele>311.0</ele>
        <time>2014-11-15T12:46:07Z</time>
      </trkpt>
      <trkpt lat="54.57763" lon="-3.331236">
        <ele>311.0</ele>
        <time>2014-11-15T12:46:11Z</time>
      </trkpt>
      <trkpt lat="54.577558" lon="-3.331245">
        <ele>311.0</ele>
        <time>2014-11-15T12:46:15Z</time>
      </trkpt>
      <trkpt lat="54.57752" lon="-3.331261">
        <ele>311.0</ele>
        <time>2014-11-15T12:46:19Z</time>
      </trkpt>
      <trkpt lat="54.577525" lon="-3.331231">
        <ele>311.0</ele>
        <time>2014-11-15T12:46:23Z</time>
      </trkpt>
      <trkpt lat="54.57755" lon="-3.331291">
        <ele>311.0</ele>
        <time>2014-11-15T12:46:27Z</time>
      </trkpt>
      <trkpt lat="54.577545" lon="-3.331245">
        <ele>311.0</ele>
        <time>2014-11-15T12:46:31Z</time>
      </trkpt>
      <trkpt lat="54.577561" lon="-3.331243">
        <ele>311.0</ele>
        <time>2014-11-15T12:46:35Z</time>
      </trkpt>
      <trkpt lat="54.5776" lon="-3.331281">
        <ele>311.0</ele>
        <time>2014-11-15T12:46:39Z</time>
      </trkpt>
      <trkpt lat="54.577613" lon="-3.331275">
        <ele>311.0</ele>
        <time>2014-11-15T12:46:43Z</time>
      </trkpt>
      <trkpt lat="54.577673" lon="-3.331305">
        <ele>311.0</ele>
        <time>2014-11-15T12:46:47Z</time>
      </trkpt>
      <trkpt lat="54.577648" lon="-3.331295">
        <ele>311.0</ele>
        <time>2014-11-15T12:46:51Z</time>
      </trkpt>
      <trkpt lat="54.57756" lon="-3.331166">
        <ele>311.0</ele>
        <time>2014-11-15T12:46:55Z</time>
      </trkpt>
      <trkpt lat="54.577566" lon="-3.331176">
        <ele>311.0</ele>
        <time>2014-11-15T12:46:59Z</time>
      </trkpt>
      <trkpt lat="54.577551" lon="-3.331143">
        <ele>311.0</ele>
        <time>2014-11-15T12:47:03Z</time>
      </trkpt>
      <trkpt lat="54.577543" lon="-3.331118">
        <ele>311.0</ele>
        <time>2014-11-15T12:47:07Z</time>
      </trkpt>
      <trkpt lat="54.577531" lon="-3.331118">
        <ele>311.0</ele>
        <time>2014-11-15T12:47:11Z</time>
      </trkpt>
      <trkpt lat="54.577551" lon="-3.331118">
        <ele>311.0</ele>
        <time>2014-11-15T12:47:15Z</time>
      </trkpt>
      <trkpt lat="54.577451" lon="-3.331028">
        <ele>311.0</ele>
        <time>2014-11-15T12:47:19Z</time>
      </trkpt>
      <trkpt lat="54.577468" lon="-3.331043">
        <ele>311.0</ele>
        <time>2014-11-15T12:47:23Z</time>
      </trkpt>
      <trkpt lat="54.57747" lon="-3.331035">
        <ele>311.0</ele>
        <time>2014-11-15T12:47:27Z</time>
      </trkpt>
      <trkpt lat="54.577485" lon="-3.330995">
        <ele>310.0</ele>
        <time>2014-11-15T12:47:31Z</time>
      </trkpt>
      <trkpt lat="54.577478" lon="-3.330851">
        <ele>311.0</ele>
        <time>2014-11-15T12:47:35Z</time>
      </trkpt>
      <trkpt lat="54.577521" lon="-3.330643">
        <ele>310.0</ele>
        <time>2014-11-15T12:47:39Z</time>
      </trkpt>
      <trkpt lat="54.577606" lon="-3.330326">
        <ele>310.0</ele>
        <time>2014-11-15T12:47:43Z</time>
      </trkpt>
      <trkpt lat="54.577741" lon="-3.32992">
        <ele>308.0</ele>
        <time>2014-11-15T12:47:47Z</time>
      </trkpt>
      <trkpt lat="54.577901" lon="-3.329488">
        <ele>306.0</ele>
        <time>2014-11-15T12:47:51Z</time>
      </trkpt>
      <trkpt lat="54.578006" lon="-3.328986">
        <ele>305.0</ele>
        <time>2014-11-15T12:47:55Z</time>
      </trkpt>
      <trkpt lat="54.57792" lon="-3.328448">
        <ele>302.0</ele>
        <time>2014-11-15T12:47:59Z</time>
      </trkpt>
      <trkpt lat="54.577891" lon="-3.327781">
        <ele>297.0</ele>
        <time>2014-11-15T12:48:03Z</time>
      </trkpt>
      <trkpt lat="54.577891" lon="-3.32714">
        <ele>294.0</ele>
        <time>2014-11-15T12:48:07Z</time>
      </trkpt>
      <trkpt lat="54.577918" lon="-3.326593">
        <ele>292.0</ele>
        <time>2014-11-15T12:48:11Z</time>
      </trkpt>
      <trkpt lat="54.578018" lon="-3.32607">
        <ele>291.0</ele>
        <time>2014-11-15T12:48:15Z</time>
      </trkpt>
      <trkpt lat="54.578136" lon="-3.325535">
        <ele>290.0</ele>
        <time>2014-11-15T12:48:19Z</time>
      </trkpt>
      <trkpt lat="54.578256" lon="-3.325075">
        <ele>290.0</ele>
        <time>2014-11-15T12:48:23Z</time>
      </trkpt>
      <trkpt lat="54.57838" lon="-3.324626">
        <ele>290.0</ele>
        <time>2014-11-15T12:48:27Z</time>
      </trkpt>
      <trkpt lat="54.578548" lon="-3.324203">
        <ele>290.0</ele>
        <time>2014-11-15T12:48:31Z</time>
      </trkpt>
      <trkpt lat="54.578741" lon="-3.323796">
        <ele>289.0</ele>
        <time>2014-11-15T12:48:35Z</time>
      </trkpt>
      <trkpt lat="54.57895" lon="-3.323383">
        <ele>288.0</ele>
        <time>2014-11-15T12:48:39Z</time>
      </trkpt>
      <trkpt lat="54.579165" lon="-3.322918">
        <ele>286.0</ele>
        <time>2014-11-15T12:48:43Z</time>
      </trkpt>
      <trkpt lat="54.579415" lon="-3.322495">
        <ele>285.0</ele>
        <time>2014-11-15T12:48:47Z</time>
      </trkpt>
      <trkpt lat="54.579681" lon="-3.322046">
        <ele>284.0</ele>
        <time>2014-11-15T12:48:51Z</time>
      </trkpt>
      <trkpt lat="54.579898" lon="-3.321565">
        <ele>284.0</ele>
        <time>2014-11-15T12:48:55Z</time>
      </trkpt>
      <trkpt lat="54.58008" lon="-3.321153">
        <ele>283.0</ele>
        <time>2014-11-15T12:48:59Z</time>
      </trkpt>
      <trkpt lat="54.580213" lon="-3.320841">
        <ele>284.0</ele>
        <time>2014-11-15T12:49:03Z</time>
      </trkpt>
      <trkpt lat="54.580298" lon="-3.320661">
        <ele>283.0</ele>
        <time>2014-11-15T12:49:07Z</time>
      </trkpt>
      <trkpt lat="54.580341" lon="-3.320556">
        <ele>282.0</ele>
        <time>2014-11-15T12:49:11Z</time>
      </trkpt>
      <trkpt lat="54.580406" lon="-3.320536">
        <ele>282.0</ele>
        <time>2014-11-15T12:49:15Z</time>
      </trkpt>
      <trkpt lat="54.580451" lon="-3.32046">
        <ele>281.0</ele>
        <time>2014-11-15T12:49:19Z</time>
      </trkpt>
      <trkpt lat="54.580501" lon="-3.320275">
        <ele>281.0</ele>
        <time>2014-11-15T12:49:23Z</time>
      </trkpt>
      <trkpt lat="54.580621" lon="-3.320068">
        <ele>280.0</ele>
        <time>2014-11-15T12:49:27Z</time>
      </trkpt>
      <trkpt lat="54.58081" lon="-3.319798">
        <ele>279.0</ele>
        <time>2014-11-15T12:49:31Z</time>
      </trkpt>
      <trkpt lat="54.581115" lon="-3.319395">
        <ele>279.0</ele>
        <time>2014-11-15T12:49:35Z</time>
      </trkpt>
      <trkpt lat="54.581291" lon="-3.319153">
        <ele>278.0</ele>
        <time>2014-11-15T12:49:39Z</time>
      </trkpt>
      <trkpt lat="54.58146" lon="-3.318863">
        <ele>279.0</ele>
        <time>2014-11-15T12:49:43Z</time>
      </trkpt>
      <trkpt lat="54.581618" lon="-3.318668">
        <ele>279.0</ele>
        <time>2014-11-15T12:49:47Z</time>
      </trkpt>
      <trkpt lat="54.581703" lon="-3.318416">
        <ele>280.0</ele>
        <time>2014-11-15T12:49:51Z</time>
      </trkpt>
      <trkpt lat="54.581808" lon="-3.318221">
        <ele>281.0</ele>
        <time>2014-11-15T12:49:55Z</time>
      </trkpt>
      <trkpt lat="54.581855" lon="-3.31811">
        <ele>283.0</ele>
        <time>2014-11-15T12:49:59Z</time>
      </trkpt>
      <trkpt lat="54.581988" lon="-3.318005">
        <ele>285.0</ele>
        <time>2014-11-15T12:50:03Z</time>
      </trkpt>
      <trkpt lat="54.582038" lon="-3.317873">
        <ele>286.0</ele>
        <time>2014-11-15T12:50:07Z</time>
      </trkpt>
      <trkpt lat="54.582078" lon="-3.31784">
        <ele>288.0</ele>
        <time>2014-11-15T12:50:11Z</time>
      </trkpt>
      <trkpt lat="54.58215" lon="-3.317746">
        <ele>289.0</ele>
        <time>2014-11-15T12:50:15Z</time>
      </trkpt>
      <trkpt lat="54.582288" lon="-3.317643">
        <ele>290.0</ele>
        <time>2014-11-15T12:50:19Z</time>
      </trkpt>
      <trkpt lat="54.582295" lon="-3.31755">
        <ele>292.0</ele>
        <time>2014-11-15T12:50:23Z</time>
      </trkpt>
      <trkpt lat="54.582323" lon="-3.317408">
        <ele>294.0</ele>
        <time>2014-11-15T12:50:27Z</time>
      </trkpt>
      <trkpt lat="54.582376" lon="-3.317306">
        <ele>295.0</ele>
        <time>2014-11-15T12:50:31Z</time>
      </trkpt>
      <trkpt lat="54.582426" lon="-3.317201">
        <ele>296.0</ele>
        <time>2014-11-15T12:50:35Z</time>
      </trkpt>
      <trkpt lat="54.582475" lon="-3.317101">
        <ele>297.0</ele>
        <time>2014-11-15T12:50:39Z</time>
      </trkpt>
      <trkpt lat="54.582525" lon="-3.317001">
        <ele>299.0</ele>
        <time>2014-11-15T12:50:43Z</time>
      </trkpt>
      <trkpt lat="54.582558" lon="-3.31689">
        <ele>300.0</ele>
        <time>2014-11-15T12:50:47Z</time>
      </trkpt>
      <trkpt lat="54.582595" lon="-3.316778">
        <ele>301.0</ele>
        <time>2014-11-15T12:50:51Z</time>
      </trkpt>
      <trkpt lat="54.582645" lon="-3.316645">
        <ele>302.0</ele>
        <time>2014-11-15T12:50:55Z</time>
      </trkpt>
      <trkpt lat="54.582715" lon="-3.316503">
        <ele>303.0</ele>
        <time>2014-11-15T12:50:59Z</time>
      </trkpt>
      <trkpt lat="54.582793" lon="-3.316368">
        <ele>304.0</ele>
        <time>2014-11-15T12:51:03Z</time>
      </trkpt>
      <trkpt lat="54.582898" lon="-3.316226">
        <ele>303.0</ele>
        <time>2014-11-15T12:51:07Z</time>
      </trkpt>
      <trkpt lat="54.583091" lon="-3.31599">
        <ele>302.0</ele>
        <time>2014-11-15T12:51:11Z</time>
      </trkpt>
      <trkpt lat="54.583338" lon="-3.315723">
        <ele>301.0</ele>
        <time>2014-11-15T12:51:15Z</time>
      </trkpt>
      <trkpt lat="54.583596" lon="-3.315495">
        <ele>299.0</ele>
        <time>2014-11-15T12:51:19Z</time>
      </trkpt>
      <trkpt lat="54.583898" lon="-3.31538">
        <ele>297.0</ele>
        <time>2014-11-15T12:51:23Z</time>
      </trkpt>
      <trkpt lat="54.584256" lon="-3.315403">
        <ele>296.0</ele>
        <time>2014-11-15T12:51:27Z</time>
      </trkpt>
      <trkpt lat="54.584635" lon="-3.315508">
        <ele>295.0</ele>
        <time>2014-11-15T12:51:31Z</time>
      </trkpt>
      <trkpt lat="54.585023" lon="-3.315455">
        <ele>293.0</ele>
        <time>2014-11-15T12:51:35Z</time>
      </trkpt>
      <trkpt lat="54.58531" lon="-3.3153">
        <ele>292.0</ele>
        <time>2014-11-15T12:51:39Z</time>
      </trkpt>
      <trkpt lat="54.585685" lon="-3.315095">
        <ele>292.0</ele>
        <time>2014-11-15T12:51:43Z</time>
      </trkpt>
      <trkpt lat="54.585975" lon="-3.314831">
        <ele>289.0</ele>
        <time>2014-11-15T12:51:47Z</time>
      </trkpt>
      <trkpt lat="54.586323" lon="-3.314386">
        <ele>287.0</ele>
        <time>2014-11-15T12:51:51Z</time>
      </trkpt>
      <trkpt lat="54.586708" lon="-3.314035">
        <ele>285.0</ele>
        <time>2014-11-15T12:51:55Z</time>
      </trkpt>
      <trkpt lat="54.587048" lon="-3.31389">
        <ele>281.0</ele>
        <time>2014-11-15T12:51:59Z</time>
      </trkpt>
      <trkpt lat="54.587286" lon="-3.313485">
        <ele>276.0</ele>
        <time>2014-11-15T12:52:03Z</time>
      </trkpt>
      <trkpt lat="54.587568" lon="-3.313145">
        <ele>274.0</ele>
        <time>2014-11-15T12:52:07Z</time>
      </trkpt>
      <trkpt lat="54.587905" lon="-3.312963">
        <ele>274.0</ele>
        <time>2014-11-15T12:52:11Z</time>
      </trkpt>
      <trkpt lat="54.588203" lon="-3.312663">
        <ele>274.0</ele>
        <time>2014-11-15T12:52:15Z</time>
      </trkpt>
      <trkpt lat="54.588428" lon="-3.31228">
        <ele>274.0</ele>
        <time>2014-11-15T12:52:19Z</time>
      </trkpt>
      <trkpt lat="54.58869" lon="-3.311981">
        <ele>275.0</ele>
        <time>2014-11-15T12:52:23Z</time>
      </trkpt>
      <trkpt lat="54.588996" lon="-3.311743">
        <ele>275.0</ele>
        <time>2014-11-15T12:52:27Z</time>
      </trkpt>
      <trkpt lat="54.589271" lon="-3.311531">
        <ele>274.0</ele>
        <time>2014-11-15T12:52:31Z</time>
      </trkpt>
      <trkpt lat="54.589483" lon="-3.311255">
        <ele>274.0</ele>
        <time>2014-11-15T12:52:35Z</time>
      </trkpt>
      <trkpt lat="54.58974" lon="-3.311121">
        <ele>275.0</ele>
        <time>2014-11-15T12:52:39Z</time>
      </trkpt>
      <trkpt lat="54.590101" lon="-3.310801">
        <ele>275.0</ele>
        <time>2014-11-15T12:52:43Z</time>
      </trkpt>
      <trkpt lat="54.59023" lon="-3.310611">
        <ele>275.0</ele>
        <time>2014-11-15T12:52:47Z</time>
      </trkpt>
      <trkpt lat="54.59048" lon="-3.310295">
        <ele>275.0</ele>
        <time>2014-11-15T12:52:51Z</time>
      </trkpt>
      <trkpt lat="54.590721" lon="-3.310003">
        <ele>274.0</ele>
        <time>2014-11-15T12:52:55Z</time>
      </trkpt>
      <trkpt lat="54.591006" lon="-3.309693">
        <ele>274.0</ele>
        <time>2014-11-15T12:52:59Z</time>
      </trkpt>
      <trkpt lat="54.591318" lon="-3.309455">
        <ele>273.0</ele>
        <time>2014-11-15T12:53:03Z</time>
      </trkpt>
      <trkpt lat="54.591601" lon="-3.309221">
        <ele>273.0</ele>
        <time>2014-11-15T12:53:07Z</time>
      </trkpt>
      <trkpt lat="54.591815" lon="-3.309005">
        <ele>272.0</ele>
        <time>2014-11-15T12:53:11Z</time>
      </trkpt>
      <trkpt lat="54.592086" lon="-3.308903">
        <ele>272.0</ele>
        <time>2014-11-15T12:53:15Z</time>
      </trkpt>
      <trkpt lat="54.592311" lon="-3.308666">
        <ele>271.0</ele>
        <time>2014-11-15T12:53:19Z</time>
      </trkpt>
      <trkpt lat="54.592373" lon="-3.308495">
        <ele>270.0</ele>
        <time>2014-11-15T12:53:23Z</time>
      </trkpt>
      <trkpt lat="54.592348" lon="-3.308496">
        <ele>270.0</ele>
        <time>2014-11-15T12:53:27Z</time>
      </trkpt>
      <trkpt lat="54.592308" lon="-3.308525">
        <ele>270.0</ele>
        <time>2014-11-15T12:53:31Z</time>
      </trkpt>
      <trkpt lat="54.59226" lon="-3.30849">
        <ele>270.0</ele>
        <time>2014-11-15T12:53:35Z</time>
      </trkpt>
      <trkpt lat="54.592258" lon="-3.308496">
        <ele>270.0</ele>
        <time>2014-11-15T12:53:39Z</time>
      </trkpt>
      <trkpt lat="54.592266" lon="-3.308526">
        <ele>270.0</ele>
        <time>2014-11-15T12:53:43Z</time>
      </trkpt>
      <trkpt lat="54.592298" lon="-3.30851">
        <ele>270.0</ele>
        <time>2014-11-15T12:53:47Z</time>
      </trkpt>
      <trkpt lat="54.59233" lon="-3.308488">
        <ele>271.0</ele>
        <time>2014-11-15T12:53:51Z</time>
      </trkpt>
      <trkpt lat="54.592345" lon="-3.308466">
        <ele>270.0</ele>
        <time>2014-11-15T12:53:55Z</time>
      </trkpt>
      <trkpt lat="54.592348" lon="-3.308455">
        <ele>270.0</ele>
        <time>2014-11-15T12:53:59Z</time>
      </trkpt>
      <trkpt lat="54.592363" lon="-3.308465">
        <ele>270.0</ele>
        <time>2014-11-15T12:54:03Z</time>
      </trkpt>
      <trkpt lat="54.592371" lon="-3.308483">
        <ele>270.0</ele>
        <time>2014-11-15T12:54:07Z</time>
      </trkpt>
      <trkpt lat="54.592358" lon="-3.308478">
        <ele>270.0</ele>
        <time>2014-11-15T12:54:11Z</time>
      </trkpt>
      <trkpt lat="54.592396" lon="-3.308423">
        <ele>270.0</ele>
        <time>2014-11-15T12:54:15Z</time>
      </trkpt>
      <trkpt lat="54.592393" lon="-3.308413">
        <ele>270.0</ele>
        <time>2014-11-15T12:54:19Z</time>
      </trkpt>
      <trkpt lat="54.59239" lon="-3.308385">
        <ele>270.0</ele>
        <time>2014-11-15T12:54:23Z</time>
      </trkpt>
      <trkpt lat="54.592388" lon="-3.308403">
        <ele>271.0</ele>
        <time>2014-11-15T12:54:27Z</time>
      </trkpt>
      <trkpt lat="54.59239" lon="-3.308396">
        <ele>271.0</ele>
        <time>2014-11-15T12:54:31Z</time>
      </trkpt>
      <trkpt lat="54.592388" lon="-3.308385">
        <ele>271.0</ele>
        <time>2014-11-15T12:54:35Z</time>
      </trkpt>
      <trkpt lat="54.592356" lon="-3.308395">
        <ele>270.0</ele>
        <time>2014-11-15T12:54:39Z</time>
      </trkpt>
      <trkpt lat="54.59239" lon="-3.308393">
        <ele>270.0</ele>
        <time>2014-11-15T12:54:43Z</time>
      </trkpt>
      <trkpt lat="54.592365" lon="-3.308361">
        <ele>270.0</ele>
        <time>2014-11-15T12:54:47Z</time>
      </trkpt>
      <trkpt lat="54.592388" lon="-3.3084">
        <ele>270.0</ele>
        <time>2014-11-15T12:54:51Z</time>
      </trkpt>
      <trkpt lat="54.592341" lon="-3.308441">
        <ele>270.0</ele>
        <time>2014-11-15T12:54:55Z</time>
      </trkpt>
      <trkpt lat="54.592296" lon="-3.308465">
        <ele>270.0</ele>
        <time>2014-11-15T12:54:59Z</time>
      </trkpt>
      <trkpt lat="54.592313" lon="-3.308466">
        <ele>270.0</ele>
        <time>2014-11-15T12:55:03Z</time>
      </trkpt>
      <trkpt lat="54.59233" lon="-3.30846">
        <ele>270.0</ele>
        <time>2014-11-15T12:55:07Z</time>
      </trkpt>
      <trkpt lat="54.592338" lon="-3.308456">
        <ele>270.0</ele>
        <time>2014-11-15T12:55:11Z</time>
      </trkpt>
      <trkpt lat="54.592308" lon="-3.308458">
        <ele>270.0</ele>
        <time>2014-11-15T12:55:15Z</time>
      </trkpt>
      <trkpt lat="54.5923" lon="-3.308441">
        <ele>270.0</ele>
        <time>2014-11-15T12:55:19Z</time>
      </trkpt>
      <trkpt lat="54.592206" lon="-3.308373">
        <ele>270.0</ele>
        <time>2014-11-15T12:55:23Z</time>
      </trkpt>
      <trkpt lat="54.592158" lon="-3.308351">
        <ele>270.0</ele>
        <time>2014-11-15T12:55:27Z</time>
      </trkpt>
      <trkpt lat="54.592173" lon="-3.308356">
        <ele>271.0</ele>
        <time>2014-11-15T12:55:31Z</time>
      </trkpt>
      <trkpt lat="54.592205" lon="-3.30832">
        <ele>271.0</ele>
        <time>2014-11-15T12:55:35Z</time>
      </trkpt>
      <trkpt lat="54.592186" lon="-3.308331">
        <ele>271.0</ele>
        <time>2014-11-15T12:55:39Z</time>
      </trkpt>
      <trkpt lat="54.592146" lon="-3.308353">
        <ele>270.0</ele>
        <time>2014-11-15T12:55:43Z</time>
      </trkpt>
      <trkpt lat="54.592168" lon="-3.308408">
        <ele>270.0</ele>
        <time>2014-11-15T12:55:47Z</time>
      </trkpt>
      <trkpt lat="54.592148" lon="-3.308446">
        <ele>270.0</ele>
        <time>2014-11-15T12:55:51Z</time>
      </trkpt>
      <trkpt lat="54.592166" lon="-3.308446">
        <ele>271.0</ele>
        <time>2014-11-15T12:55:55Z</time>
      </trkpt>
      <trkpt lat="54.592168" lon="-3.308455">
        <ele>271.0</ele>
        <time>2014-11-15T12:55:59Z</time>
      </trkpt>
      <trkpt lat="54.592115" lon="-3.308408">
        <ele>271.0</ele>
        <time>2014-11-15T12:56:03Z</time>
      </trkpt>
      <trkpt lat="54.592051" lon="-3.308361">
        <ele>271.0</ele>
        <time>2014-11-15T12:56:07Z</time>
      </trkpt>
      <trkpt lat="54.591963" lon="-3.308373">
        <ele>272.0</ele>
        <time>2014-11-15T12:56:11Z</time>
      </trkpt>
      <trkpt lat="54.591855" lon="-3.308393">
        <ele>272.0</ele>
        <time>2014-11-15T12:56:15Z</time>
      </trkpt>
      <trkpt lat="54.59179" lon="-3.308363">
        <ele>272.0</ele>
        <time>2014-11-15T12:56:19Z</time>
      </trkpt>
      <trkpt lat="54.59166" lon="-3.308343">
        <ele>272.0</ele>
        <time>2014-11-15T12:56:23Z</time>
      </trkpt>
      <trkpt lat="54.591548" lon="-3.3083">
        <ele>273.0</ele>
        <time>2014-11-15T12:56:27Z</time>
      </trkpt>
      <trkpt lat="54.591345" lon="-3.308168">
        <ele>274.0</ele>
        <time>2014-11-15T12:56:31Z</time>
      </trkpt>
      <trkpt lat="54.591076" lon="-3.308001">
        <ele>274.0</ele>
        <time>2014-11-15T12:56:35Z</time>
      </trkpt>
      <trkpt lat="54.590973" lon="-3.307936">
        <ele>274.0</ele>
        <time>2014-11-15T12:56:39Z</time>
      </trkpt>
      <trkpt lat="54.590828" lon="-3.307848">
        <ele>275.0</ele>
        <time>2014-11-15T12:56:43Z</time>
      </trkpt>
      <trkpt lat="54.590638" lon="-3.307806">
        <ele>276.0</ele>
        <time>2014-11-15T12:56:47Z</time>
      </trkpt>
      <trkpt lat="54.590538" lon="-3.307798">
        <ele>277.0</ele>
        <time>2014-11-15T12:56:51Z</time>
      </trkpt>
      <trkpt lat="54.59036" lon="-3.307791">
        <ele>277.0</ele>
        <time>2014-11-15T12:56:55Z</time>
      </trkpt>
      <trkpt lat="54.590243" lon="-3.307743">
        <ele>278.0</ele>
        <time>2014-11-15T12:56:59Z</time>
      </trkpt>
      <trkpt lat="54.590056" lon="-3.307753">
        <ele>279.0</ele>
        <time>2014-11-15T12:57:03Z</time>
      </trkpt>
      <trkpt lat="54.589891" lon="-3.307768">
        <ele>279.0</ele>
        <time>2014-11-15T12:57:07Z</time>
      </trkpt>
      <trkpt lat="54.589715" lon="-3.307836">
        <ele>280.0</ele>
        <time>2014-11-15T12:57:11Z</time>
      </trkpt>
      <trkpt lat="54.589515" lon="-3.307828">
        <ele>281.0</ele>
        <time>2014-11-15T12:57:15Z</time>
      </trkpt>
      <trkpt lat="54.589291" lon="-3.307735">
        <ele>281.0</ele>
        <time>2014-11-15T12:57:19Z</time>
      </trkpt>
      <trkpt lat="54.589126" lon="-3.307695">
        <ele>282.0</ele>
        <time>2014-11-15T12:57:23Z</time>
      </trkpt>
      <trkpt lat="54.588943" lon="-3.307521">
        <ele>282.0</ele>
        <time>2014-11-15T12:57:27Z</time>
      </trkpt>
      <trkpt lat="54.588756" lon="-3.307381">
        <ele>283.0</ele>
        <time>2014-11-15T12:57:31Z</time>
      </trkpt>
      <trkpt lat="54.58856" lon="-3.307203">
        <ele>283.0</ele>
        <time>2014-11-15T12:57:35Z</time>
      </trkpt>
      <trkpt lat="54.58845" lon="-3.307091">
        <ele>284.0</ele>
        <time>2014-11-15T12:57:39Z</time>
      </trkpt>
      <trkpt lat="54.588308" lon="-3.307041">
        <ele>285.0</ele>
        <time>2014-11-15T12:57:43Z</time>
      </trkpt>
      <trkpt lat="54.588091" lon="-3.306993">
        <ele>286.0</ele>
        <time>2014-11-15T12:57:47Z</time>
      </trkpt>
      <trkpt lat="54.587923" lon="-3.306915">
        <ele>287.0</ele>
        <time>2014-11-15T12:57:51Z</time>
      </trkpt>
      <trkpt lat="54.58772" lon="-3.306738">
        <ele>287.0</ele>
        <time>2014-11-15T12:57:55Z</time>
      </trkpt>
      <trkpt lat="54.587668" lon="-3.306621">
        <ele>287.0</ele>
        <time>2014-11-15T12:57:59Z</time>
      </trkpt>
      <trkpt lat="54.587486" lon="-3.30649">
        <ele>288.0</ele>
        <time>2014-11-15T12:58:03Z</time>
      </trkpt>
      <trkpt lat="54.587353" lon="-3.306428">
        <ele>288.0</ele>
        <time>2014-11-15T12:58:07Z</time>
      </trkpt>
      <trkpt lat="54.587218" lon="-3.306273">
        <ele>289.0</ele>
        <time>2014-11-15T12:58:11Z</time>
      </trkpt>
      <trkpt lat="54.587103" lon="-3.30621">
        <ele>290.0</ele>
        <time>2014-11-15T12:58:15Z</time>
      </trkpt>
      <trkpt lat="54.586918" lon="-3.30615">
        <ele>292.0</ele>
        <time>2014-11-15T12:58:19Z</time>
      </trkpt>
      <trkpt lat="54.586826" lon="-3.306098">
        <ele>293.0</ele>
        <time>2014-11-15T12:58:23Z</time>
      </trkpt>
      <trkpt lat="54.586643" lon="-3.306021">
        <ele>293.0</ele>
        <time>2014-11-15T12:58:27Z</time>
      </trkpt>
      <trkpt lat="54.586488" lon="-3.306026">
        <ele>294.0</ele>
        <time>2014-11-15T12:58:31Z</time>
      </trkpt>
      <trkpt lat="54.586315" lon="-3.305956">
        <ele>295.0</ele>
        <time>2014-11-15T12:58:35Z</time>
      </trkpt>
      <trkpt lat="54.586195" lon="-3.305915">
        <ele>296.0</ele>
        <time>2014-11-15T12:58:39Z</time>
      </trkpt>
      <trkpt lat="54.586006" lon="-3.305836">
        <ele>296.0</ele>
        <time>2014-11-15T12:58:43Z</time>
      </trkpt>
      <trkpt lat="54.585875" lon="-3.305798">
        <ele>297.0</ele>
        <time>2014-11-15T12:58:47Z</time>
      </trkpt>
      <trkpt lat="54.585725" lon="-3.305766">
        <ele>299.0</ele>
        <time>2014-11-15T12:58:51Z</time>
      </trkpt>
      <trkpt lat="54.585655" lon="-3.305763">
        <ele>299.0</ele>
        <time>2014-11-15T12:58:55Z</time>
      </trkpt>
      <trkpt lat="54.585581" lon="-3.305753">
        <ele>300.0</ele>
        <time>2014-11-15T12:58:59Z</time>
      </trkpt>
      <trkpt lat="54.58544" lon="-3.3057">
        <ele>301.0</ele>
        <time>2014-11-15T12:59:03Z</time>
      </trkpt>
      <trkpt lat="54.585306" lon="-3.305671">
        <ele>302.0</ele>
        <time>2014-11-15T12:59:07Z</time>
      </trkpt>
      <trkpt lat="54.585205" lon="-3.305666">
        <ele>303.0</ele>
        <time>2014-11-15T12:59:11Z</time>
      </trkpt>
      <trkpt lat="54.585068" lon="-3.305715">
        <ele>304.0</ele>
        <time>2014-11-15T12:59:15Z</time>
      </trkpt>
      <trkpt lat="54.584956" lon="-3.305726">
        <ele>306.0</ele>
        <time>2014-11-15T12:59:19Z</time>
      </trkpt>
      <trkpt lat="54.584863" lon="-3.30573">
        <ele>307.0</ele>
        <time>2014-11-15T12:59:23Z</time>
      </trkpt>
      <trkpt lat="54.584748" lon="-3.305701">
        <ele>309.0</ele>
        <time>2014-11-15T12:59:27Z</time>
      </trkpt>
      <trkpt lat="54.58461" lon="-3.305668">
        <ele>309.0</ele>
        <time>2014-11-15T12:59:31Z</time>
      </trkpt>
      <trkpt lat="54.584455" lon="-3.305616">
        <ele>309.0</ele>
        <time>2014-11-15T12:59:35Z</time>
      </trkpt>
      <trkpt lat="54.584301" lon="-3.305573">
        <ele>310.0</ele>
        <time>2014-11-15T12:59:39Z</time>
      </trkpt>
      <trkpt lat="54.584131" lon="-3.305551">
        <ele>310.0</ele>
        <time>2014-11-15T12:59:43Z</time>
      </trkpt>
      <trkpt lat="54.583963" lon="-3.305528">
        <ele>308.0</ele>
        <time>2014-11-15T12:59:47Z</time>
      </trkpt>
      <trkpt lat="54.58377" lon="-3.305433">
        <ele>309.0</ele>
        <time>2014-11-15T12:59:51Z</time>
      </trkpt>
      <trkpt lat="54.583601" lon="-3.305336">
        <ele>309.0</ele>
        <time>2014-11-15T12:59:55Z</time>
      </trkpt>
      <trkpt lat="54.58346" lon="-3.305313">
        <ele>310.0</ele>
        <time>2014-11-15T12:59:59Z</time>
      </trkpt>
      <trkpt lat="54.583321" lon="-3.305293">
        <ele>311.0</ele>
        <time>2014-11-15T13:00:03Z</time>
      </trkpt>
      <trkpt lat="54.583165" lon="-3.305271">
        <ele>312.0</ele>
        <time>2014-11-15T13:00:07Z</time>
      </trkpt>
      <trkpt lat="54.582996" lon="-3.305258">
        <ele>313.0</ele>
        <time>2014-11-15T13:00:11Z</time>
      </trkpt>
      <trkpt lat="54.582843" lon="-3.305251">
        <ele>314.0</ele>
        <time>2014-11-15T13:00:15Z</time>
      </trkpt>
      <trkpt lat="54.582698" lon="-3.30524">
        <ele>315.0</ele>
        <time>2014-11-15T13:00:19Z</time>
      </trkpt>
      <trkpt lat="54.582493" lon="-3.305201">
        <ele>316.0</ele>
        <time>2014-11-15T13:00:23Z</time>
      </trkpt>
      <trkpt lat="54.582328" lon="-3.305181">
        <ele>317.0</ele>
        <time>2014-11-15T13:00:27Z</time>
      </trkpt>
      <trkpt lat="54.582125" lon="-3.305206">
        <ele>319.0</ele>
        <time>2014-11-15T13:00:31Z</time>
      </trkpt>
      <trkpt lat="54.582011" lon="-3.305223">
        <ele>319.0</ele>
        <time>2014-11-15T13:00:35Z</time>
      </trkpt>
      <trkpt lat="54.58184" lon="-3.305278">
        <ele>319.0</ele>
        <time>2014-11-15T13:00:39Z</time>
      </trkpt>
      <trkpt lat="54.581643" lon="-3.305315">
        <ele>319.0</ele>
        <time>2014-11-15T13:00:43Z</time>
      </trkpt>
      <trkpt lat="54.581426" lon="-3.305316">
        <ele>320.0</ele>
        <time>2014-11-15T13:00:47Z</time>
      </trkpt>
      <trkpt lat="54.581236" lon="-3.305331">
        <ele>320.0</ele>
        <time>2014-11-15T13:00:51Z</time>
      </trkpt>
      <trkpt lat="54.581003" lon="-3.305323">
        <ele>320.0</ele>
        <time>2014-11-15T13:00:55Z</time>
      </trkpt>
      <trkpt lat="54.580746" lon="-3.305281">
        <ele>320.0</ele>
        <time>2014-11-15T13:00:59Z</time>
      </trkpt>
      <trkpt lat="54.580501" lon="-3.305195">
        <ele>320.0</ele>
        <time>2014-11-15T13:01:03Z</time>
      </trkpt>
      <trkpt lat="54.580313" lon="-3.305138">
        <ele>321.0</ele>
        <time>2014-11-15T13:01:07Z</time>
      </trkpt>
      <trkpt lat="54.580161" lon="-3.305078">
        <ele>321.0</ele>
        <time>2014-11-15T13:01:11Z</time>
      </trkpt>
      <trkpt lat="54.579978" lon="-3.304993">
        <ele>322.0</ele>
        <time>2014-11-15T13:01:15Z</time>
      </trkpt>
      <trkpt lat="54.579818" lon="-3.304941">
        <ele>324.0</ele>
        <time>2014-11-15T13:01:19Z</time>
      </trkpt>
      <trkpt lat="54.579666" lon="-3.304913">
        <ele>324.0</ele>
        <time>2014-11-15T13:01:23Z</time>
      </trkpt>
      <trkpt lat="54.579505" lon="-3.304898">
        <ele>325.0</ele>
        <time>2014-11-15T13:01:27Z</time>
      </trkpt>
      <trkpt lat="54.579358" lon="-3.304873">
        <ele>326.0</ele>
        <time>2014-11-15T13:01:31Z</time>
      </trkpt>
      <trkpt lat="54.579208" lon="-3.304876">
        <ele>327.0</ele>
        <time>2014-11-15T13:01:35Z</time>
      </trkpt>
      <trkpt lat="54.579055" lon="-3.304848">
        <ele>327.0</ele>
        <time>2014-11-15T13:01:39Z</time>
      </trkpt>
      <trkpt lat="54.578938" lon="-3.30482">
        <ele>327.0</ele>
        <time>2014-11-15T13:01:43Z</time>
      </trkpt>
      <trkpt lat="54.578873" lon="-3.304746">
        <ele>328.0</ele>
        <time>2014-11-15T13:01:47Z</time>
      </trkpt>
      <trkpt lat="54.578775" lon="-3.304715">
        <ele>329.0</ele>
        <time>2014-11-15T13:01:51Z</time>
      </trkpt>
      <trkpt lat="54.578681" lon="-3.304643">
        <ele>330.0</ele>
        <time>2014-11-15T13:01:55Z</time>
      </trkpt>
      <trkpt lat="54.578553" lon="-3.304538">
        <ele>331.0</ele>
        <time>2014-11-15T13:01:59Z</time>
      </trkpt>
      <trkpt lat="54.578451" lon="-3.304475">
        <ele>331.0</ele>
        <time>2014-11-15T13:02:03Z</time>
      </trkpt>
      <trkpt lat="54.578361" lon="-3.304391">
        <ele>332.0</ele>
        <time>2014-11-15T13:02:07Z</time>
      </trkpt>
      <trkpt lat="54.578255" lon="-3.304261">
        <ele>333.0</ele>
        <time>2014-11-15T13:02:11Z</time>
      </trkpt>
      <trkpt lat="54.578191" lon="-3.304136">
        <ele>333.0</ele>
        <time>2014-11-15T13:02:15Z</time>
      </trkpt>
      <trkpt lat="54.578133" lon="-3.304006">
        <ele>334.0</ele>
        <time>2014-11-15T13:02:19Z</time>
      </trkpt>
      <trkpt lat="54.578081" lon="-3.303871">
        <ele>334.0</ele>
        <time>2014-11-15T13:02:23Z</time>
      </trkpt>
      <trkpt lat="54.578001" lon="-3.303761">
        <ele>335.0</ele>
        <time>2014-11-15T13:02:27Z</time>
      </trkpt>
      <trkpt lat="54.577896" lon="-3.303641">
        <ele>336.0</ele>
        <time>2014-11-15T13:02:31Z</time>
      </trkpt>
      <trkpt lat="54.577765" lon="-3.303605">
        <ele>336.0</ele>
        <time>2014-11-15T13:02:35Z</time>
      </trkpt>
      <trkpt lat="54.577643" lon="-3.303548">
        <ele>337.0</ele>
        <time>2014-11-15T13:02:39Z</time>
      </trkpt>
      <trkpt lat="54.577496" lon="-3.303501">
        <ele>337.0</ele>
        <time>2014-11-15T13:02:43Z</time>
      </trkpt>
      <trkpt lat="54.577356" lon="-3.303443">
        <ele>338.0</ele>
        <time>2014-11-15T13:02:47Z</time>
      </trkpt>
      <trkpt lat="54.577228" lon="-3.303341">
        <ele>338.0</ele>
        <time>2014-11-15T13:02:51Z</time>
      </trkpt>
      <trkpt lat="54.577085" lon="-3.303245">
        <ele>338.0</ele>
        <time>2014-11-15T13:02:55Z</time>
      </trkpt>
      <trkpt lat="54.576903" lon="-3.303151">
        <ele>338.0</ele>
        <time>2014-11-15T13:02:59Z</time>
      </trkpt>
      <trkpt lat="54.576696" lon="-3.303061">
        <ele>338.0</ele>
        <time>2014-11-15T13:03:03Z</time>
      </trkpt>
      <trkpt lat="54.576505" lon="-3.30292">
        <ele>338.0</ele>
        <time>2014-11-15T13:03:07Z</time>
      </trkpt>
      <trkpt lat="54.576285" lon="-3.302818">
        <ele>337.0</ele>
        <time>2014-11-15T13:03:11Z</time>
      </trkpt>
      <trkpt lat="54.57609" lon="-3.302688">
        <ele>337.0</ele>
        <time>2014-11-15T13:03:15Z</time>
      </trkpt>
      <trkpt lat="54.575831" lon="-3.302551">
        <ele>337.0</ele>
        <time>2014-11-15T13:03:19Z</time>
      </trkpt>
      <trkpt lat="54.575573" lon="-3.302448">
        <ele>336.0</ele>
        <time>2014-11-15T13:03:23Z</time>
      </trkpt>
      <trkpt lat="54.5753" lon="-3.302378">
        <ele>335.0</ele>
        <time>2014-11-15T13:03:27Z</time>
      </trkpt>
      <trkpt lat="54.575025" lon="-3.302318">
        <ele>333.0</ele>
        <time>2014-11-15T13:03:31Z</time>
      </trkpt>
      <trkpt lat="54.574696" lon="-3.302345">
        <ele>331.0</ele>
        <time>2014-11-15T13:03:35Z</time>
      </trkpt>
      <trkpt lat="54.574308" lon="-3.302543">
        <ele>329.0</ele>
        <time>2014-11-15T13:03:39Z</time>
      </trkpt>
      <trkpt lat="54.573956" lon="-3.302683">
        <ele>327.0</ele>
        <time>2014-11-15T13:03:43Z</time>
      </trkpt>
      <trkpt lat="54.57367" lon="-3.302763">
        <ele>328.0</ele>
        <time>2014-11-15T13:03:47Z</time>
      </trkpt>
      <trkpt lat="54.573398" lon="-3.302793">
        <ele>329.0</ele>
        <time>2014-11-15T13:03:51Z</time>
      </trkpt>
      <trkpt lat="54.573106" lon="-3.30281">
        <ele>327.0</ele>
        <time>2014-11-15T13:03:55Z</time>
      </trkpt>
      <trkpt lat="54.57284" lon="-3.30276">
        <ele>328.0</ele>
        <time>2014-11-15T13:03:59Z</time>
      </trkpt>
      <trkpt lat="54.572565" lon="-3.3027">
        <ele>328.0</ele>
        <time>2014-11-15T13:04:03Z</time>
      </trkpt>
      <trkpt lat="54.572286" lon="-3.302718">
        <ele>328.0</ele>
        <time>2014-11-15T13:04:07Z</time>
      </trkpt>
      <trkpt lat="54.572006" lon="-3.302741">
        <ele>328.0</ele>
        <time>2014-11-15T13:04:11Z</time>
      </trkpt>
      <trkpt lat="54.571705" lon="-3.302698">
        <ele>327.0</ele>
        <time>2014-11-15T13:04:15Z</time>
      </trkpt>
      <trkpt lat="54.571463" lon="-3.302545">
        <ele>327.0</ele>
        <time>2014-11-15T13:04:19Z</time>
      </trkpt>
      <trkpt lat="54.571196" lon="-3.302401">
        <ele>327.0</ele>
        <time>2014-11-15T13:04:23Z</time>
      </trkpt>
      <trkpt lat="54.570923" lon="-3.302341">
        <ele>326.0</ele>
        <time>2014-11-15T13:04:27Z</time>
      </trkpt>
      <trkpt lat="54.570635" lon="-3.302261">
        <ele>325.0</ele>
        <time>2014-11-15T13:04:31Z</time>
      </trkpt>
      <trkpt lat="54.570306" lon="-3.302158">
        <ele>323.0</ele>
        <time>2014-11-15T13:04:35Z</time>
      </trkpt>
      <trkpt lat="54.569961" lon="-3.301973">
        <ele>320.0</ele>
        <time>2014-11-15T13:04:39Z</time>
      </trkpt>
      <trkpt lat="54.569591" lon="-3.301791">
        <ele>317.0</ele>
        <time>2014-11-15T13:04:43Z</time>
      </trkpt>
      <trkpt lat="54.56927" lon="-3.301541">
        <ele>315.0</ele>
        <time>2014-11-15T13:04:47Z</time>
      </trkpt>
      <trkpt lat="54.568963" lon="-3.301201">
        <ele>312.0</ele>
        <time>2014-11-15T13:04:51Z</time>
      </trkpt>
      <trkpt lat="54.568645" lon="-3.300986">
        <ele>310.0</ele>
        <time>2014-11-15T13:04:55Z</time>
      </trkpt>
      <trkpt lat="54.5684" lon="-3.300768">
        <ele>310.0</ele>
        <time>2014-11-15T13:04:59Z</time>
      </trkpt>
      <trkpt lat="54.568101" lon="-3.300543">
        <ele>309.0</ele>
        <time>2014-11-15T13:05:03Z</time>
      </trkpt>
      <trkpt lat="54.56787" lon="-3.300308">
        <ele>308.0</ele>
        <time>2014-11-15T13:05:07Z</time>
      </trkpt>
      <trkpt lat="54.567596" lon="-3.300026">
        <ele>308.0</ele>
        <time>2014-11-15T13:05:11Z</time>
      </trkpt>
      <trkpt lat="54.567293" lon="-3.299816">
        <ele>306.0</ele>
        <time>2014-11-15T13:05:15Z</time>
      </trkpt>
      <trkpt lat="54.567025" lon="-3.299666">
        <ele>304.0</ele>
        <time>2014-11-15T13:05:19Z</time>
      </trkpt>
      <trkpt lat="54.566678" lon="-3.299441">
        <ele>302.0</ele>
        <time>2014-11-15T13:05:23Z</time>
      </trkpt>
      <trkpt lat="54.566235" lon="-3.29935">
        <ele>298.0</ele>
        <time>2014-11-15T13:05:27Z</time>
      </trkpt>
      <trkpt lat="54.565931" lon="-3.299183">
        <ele>296.0</ele>
        <time>2014-11-15T13:05:31Z</time>
      </trkpt>
      <trkpt lat="54.565781" lon="-3.298996">
        <ele>298.0</ele>
        <time>2014-11-15T13:05:35Z</time>
      </trkpt>
      <trkpt lat="54.565656" lon="-3.298811">
        <ele>299.0</ele>
        <time>2014-11-15T13:05:39Z</time>
      </trkpt>
      <trkpt lat="54.565505" lon="-3.29859">
        <ele>300.0</ele>
        <time>2014-11-15T13:05:43Z</time>
      </trkpt>
      <trkpt lat="54.56526" lon="-3.29841">
        <ele>299.0</ele>
        <time>2014-11-15T13:05:47Z</time>
      </trkpt>
      <trkpt lat="54.565003" lon="-3.298258">
        <ele>297.0</ele>
        <time>2014-11-15T13:05:51Z</time>
      </trkpt>
      <trkpt lat="54.564736" lon="-3.298053">
        <ele>297.0</ele>
        <time>2014-11-15T13:05:55Z</time>
      </trkpt>
      <trkpt lat="54.564491" lon="-3.297706">
        <ele>296.0</ele>
        <time>2014-11-15T13:05:59Z</time>
      </trkpt>
      <trkpt lat="54.56415" lon="-3.297433">
        <ele>296.0</ele>
        <time>2014-11-15T13:06:03Z</time>
      </trkpt>
      <trkpt lat="54.563963" lon="-3.297393">
        <ele>296.0</ele>
        <time>2014-11-15T13:06:07Z</time>
      </trkpt>
      <trkpt lat="54.563745" lon="-3.297365">
        <ele>296.0</ele>
        <time>2014-11-15T13:06:11Z</time>
      </trkpt>
      <trkpt lat="54.563505" lon="-3.297296">
        <ele>296.0</ele>
        <time>2014-11-15T13:06:15Z</time>
      </trkpt>
      <trkpt lat="54.563223" lon="-3.29707">
        <ele>295.0</ele>
        <time>2014-11-15T13:06:19Z</time>
      </trkpt>
      <trkpt lat="54.562866" lon="-3.29687">
        <ele>293.0</ele>
        <time>2014-11-15T13:06:23Z</time>
      </trkpt>
      <trkpt lat="54.562516" lon="-3.296961">
        <ele>290.0</ele>
        <time>2014-11-15T13:06:27Z</time>
      </trkpt>
      <trkpt lat="54.562188" lon="-3.297078">
        <ele>291.0</ele>
        <time>2014-11-15T13:06:31Z</time>
      </trkpt>
      <trkpt lat="54.56187" lon="-3.29711">
        <ele>290.0</ele>
        <time>2014-11-15T13:06:35Z</time>
      </trkpt>
      <trkpt lat="54.561583" lon="-3.297071">
        <ele>289.0</ele>
        <time>2014-11-15T13:06:39Z</time>
      </trkpt>
      <trkpt lat="54.561355" lon="-3.297056">
        <ele>288.0</ele>
        <time>2014-11-15T13:06:43Z</time>
      </trkpt>
      <trkpt lat="54.561046" lon="-3.29694">
        <ele>289.0</ele>
        <time>2014-11-15T13:06:47Z</time>
      </trkpt>
      <trkpt lat="54.560756" lon="-3.296721">
        <ele>288.0</ele>
        <time>2014-11-15T13:06:51Z</time>
      </trkpt>
      <trkpt lat="54.560456" lon="-3.29642">
        <ele>286.0</ele>
        <time>2014-11-15T13:06:55Z</time>
      </trkpt>
      <trkpt lat="54.560165" lon="-3.296135">
        <ele>285.0</ele>
        <time>2014-11-15T13:06:59Z</time>
      </trkpt>
      <trkpt lat="54.559856" lon="-3.29594">
        <ele>285.0</ele>
        <time>2014-11-15T13:07:03Z</time>
      </trkpt>
      <trkpt lat="54.559571" lon="-3.295946">
        <ele>285.0</ele>
        <time>2014-11-15T13:07:07Z</time>
      </trkpt>
      <trkpt lat="54.559308" lon="-3.295931">
        <ele>285.0</ele>
        <time>2014-11-15T13:07:11Z</time>
      </trkpt>
      <trkpt lat="54.55903" lon="-3.296015">
        <ele>285.0</ele>
        <time>2014-11-15T13:07:15Z</time>
      </trkpt>
      <trkpt lat="54.558705" lon="-3.296071">
        <ele>285.0</ele>
        <time>2014-11-15T13:07:19Z</time>
      </trkpt>
      <trkpt lat="54.558536" lon="-3.296056">
        <ele>286.0</ele>
        <time>2014-11-15T13:07:23Z</time>
      </trkpt>
      <trkpt lat="54.558306" lon="-3.296038">
        <ele>286.0</ele>
        <time>2014-11-15T13:07:27Z</time>
      </trkpt>
      <trkpt lat="54.558108" lon="-3.296035">
        <ele>287.0</ele>
        <time>2014-11-15T13:07:31Z</time>
      </trkpt>
      <trkpt lat="54.557876" lon="-3.296008">
        <ele>287.0</ele>
        <time>2014-11-15T13:07:35Z</time>
      </trkpt>
      <trkpt lat="54.557626" lon="-3.295991">
        <ele>288.0</ele>
        <time>2014-11-15T13:07:39Z</time>
      </trkpt>
      <trkpt lat="54.55739" lon="-3.295968">
        <ele>288.0</ele>
        <time>2014-11-15T13:07:43Z</time>
      </trkpt>
      <trkpt lat="54.557188" lon="-3.295993">
        <ele>289.0</ele>
        <time>2014-11-15T13:07:47Z</time>
      </trkpt>
      <trkpt lat="54.556943" lon="-3.296025">
        <ele>289.0</ele>
        <time>2014-11-15T13:07:51Z</time>
      </trkpt>
      <trkpt lat="54.556663" lon="-3.296021">
        <ele>289.0</ele>
        <time>2014-11-15T13:07:55Z</time>
      </trkpt>
      <trkpt lat="54.55643" lon="-3.29597">
        <ele>290.0</ele>
        <time>2014-11-15T13:07:59Z</time>
      </trkpt>
      <trkpt lat="54.556215" lon="-3.295931">
        <ele>289.0</ele>
        <time>2014-11-15T13:08:03Z</time>
      </trkpt>
      <trkpt lat="54.556005" lon="-3.295853">
        <ele>289.0</ele>
        <time>2014-11-15T13:08:07Z</time>
      </trkpt>
      <trkpt lat="54.555771" lon="-3.29575">
        <ele>289.0</ele>
        <time>2014-11-15T13:08:11Z</time>
      </trkpt>
      <trkpt lat="54.55553" lon="-3.295653">
        <ele>288.0</ele>
        <time>2014-11-15T13:08:15Z</time>
      </trkpt>
      <trkpt lat="54.555293" lon="-3.295571">
        <ele>288.0</ele>
        <time>2014-11-15T13:08:19Z</time>
      </trkpt>
      <trkpt lat="54.555051" lon="-3.29552">
        <ele>287.0</ele>
        <time>2014-11-15T13:08:23Z</time>
      </trkpt>
      <trkpt lat="54.554721" lon="-3.295528">
        <ele>286.0</ele>
        <time>2014-11-15T13:08:27Z</time>
      </trkpt>
      <trkpt lat="54.554446" lon="-3.29556">
        <ele>285.0</ele>
        <time>2014-11-15T13:08:31Z</time>
      </trkpt>
      <trkpt lat="54.554138" lon="-3.295615">
        <ele>284.0</ele>
        <time>2014-11-15T13:08:35Z</time>
      </trkpt>
      <trkpt lat="54.553738" lon="-3.295575">
        <ele>283.0</ele>
        <time>2014-11-15T13:08:39Z</time>
      </trkpt>
      <trkpt lat="54.553435" lon="-3.295671">
        <ele>283.0</ele>
        <time>2014-11-15T13:08:43Z</time>
      </trkpt>
      <trkpt lat="54.553261" lon="-3.2958">
        <ele>283.0</ele>
        <time>2014-11-15T13:08:47Z</time>
      </trkpt>
      <trkpt lat="54.553063" lon="-3.295956">
        <ele>284.0</ele>
        <time>2014-11-15T13:08:51Z</time>
      </trkpt>
      <trkpt lat="54.552895" lon="-3.296151">
        <ele>286.0</ele>
        <time>2014-11-15T13:08:55Z</time>
      </trkpt>
      <trkpt lat="54.552731" lon="-3.296346">
        <ele>285.0</ele>
        <time>2014-11-15T13:08:59Z</time>
      </trkpt>
      <trkpt lat="54.552538" lon="-3.296605">
        <ele>286.0</ele>
        <time>2014-11-15T13:09:03Z</time>
      </trkpt>
      <trkpt lat="54.552446" lon="-3.296908">
        <ele>286.0</ele>
        <time>2014-11-15T13:09:07Z</time>
      </trkpt>
      <trkpt lat="54.552336" lon="-3.297218">
        <ele>286.0</ele>
        <time>2014-11-15T13:09:11Z</time>
      </trkpt>
      <trkpt lat="54.552223" lon="-3.29748">
        <ele>286.0</ele>
        <time>2014-11-15T13:09:15Z</time>
      </trkpt>
      <trkpt lat="54.552126" lon="-3.297671">
        <ele>287.0</ele>
        <time>2014-11-15T13:09:19Z</time>
      </trkpt>
      <trkpt lat="54.551928" lon="-3.29771">
        <ele>288.0</ele>
        <time>2014-11-15T13:09:23Z</time>
      </trkpt>
      <trkpt lat="54.551801" lon="-3.297586">
        <ele>289.0</ele>
        <time>2014-11-15T13:09:27Z</time>
      </trkpt>
      <trkpt lat="54.551671" lon="-3.29744">
        <ele>290.0</ele>
        <time>2014-11-15T13:09:31Z</time>
      </trkpt>
      <trkpt lat="54.551533" lon="-3.297248">
        <ele>290.0</ele>
        <time>2014-11-15T13:09:35Z</time>
      </trkpt>
      <trkpt lat="54.551436" lon="-3.296988">
        <ele>290.0</ele>
        <time>2014-11-15T13:09:39Z</time>
      </trkpt>
      <trkpt lat="54.551305" lon="-3.296718">
        <ele>290.0</ele>
        <time>2014-11-15T13:09:43Z</time>
      </trkpt>
      <trkpt lat="54.551136" lon="-3.296618">
        <ele>290.0</ele>
        <time>2014-11-15T13:09:47Z</time>
      </trkpt>
      <trkpt lat="54.550966" lon="-3.2965">
        <ele>291.0</ele>
        <time>2014-11-15T13:09:51Z</time>
      </trkpt>
      <trkpt lat="54.550778" lon="-3.29633">
        <ele>291.0</ele>
        <time>2014-11-15T13:09:55Z</time>
      </trkpt>
      <trkpt lat="54.55055" lon="-3.296048">
        <ele>290.0</ele>
        <time>2014-11-15T13:09:59Z</time>
      </trkpt>
      <trkpt lat="54.550408" lon="-3.295868">
        <ele>290.0</ele>
        <time>2014-11-15T13:10:03Z</time>
      </trkpt>
      <trkpt lat="54.550183" lon="-3.295631">
        <ele>289.0</ele>
        <time>2014-11-15T13:10:07Z</time>
      </trkpt>
      <trkpt lat="54.55007" lon="-3.295241">
        <ele>289.0</ele>
        <time>2014-11-15T13:10:11Z</time>
      </trkpt>
      <trkpt lat="54.549998" lon="-3.294896">
        <ele>288.0</ele>
        <time>2014-11-15T13:10:15Z</time>
      </trkpt>
      <trkpt lat="54.549901" lon="-3.294513">
        <ele>288.0</ele>
        <time>2014-11-15T13:10:19Z</time>
      </trkpt>
      <trkpt lat="54.549795" lon="-3.294123">
        <ele>288.0</ele>
        <time>2014-11-15T13:10:23Z</time>
      </trkpt>
      <trkpt lat="54.549715" lon="-3.293776">
        <ele>288.0</ele>
        <time>2014-11-15T13:10:27Z</time>
      </trkpt>
      <trkpt lat="54.549576" lon="-3.293456">
        <ele>288.0</ele>
        <time>2014-11-15T13:10:31Z</time>
      </trkpt>
      <trkpt lat="54.549441" lon="-3.293126">
        <ele>287.0</ele>
        <time>2014-11-15T13:10:35Z</time>
      </trkpt>
      <trkpt lat="54.549261" lon="-3.29283">
        <ele>287.0</ele>
        <time>2014-11-15T13:10:39Z</time>
      </trkpt>
      <trkpt lat="54.549161" lon="-3.292391">
        <ele>286.0</ele>
        <time>2014-11-15T13:10:43Z</time>
      </trkpt>
      <trkpt lat="54.54903" lon="-3.292055">
        <ele>286.0</ele>
        <time>2014-11-15T13:10:47Z</time>
      </trkpt>
      <trkpt lat="54.548918" lon="-3.291661">
        <ele>285.0</ele>
        <time>2014-11-15T13:10:51Z</time>
      </trkpt>
      <trkpt lat="54.548793" lon="-3.29127">
        <ele>285.0</ele>
        <time>2014-11-15T13:10:55Z</time>
      </trkpt>
      <trkpt lat="54.548668" lon="-3.290855">
        <ele>285.0</ele>
        <time>2014-11-15T13:10:59Z</time>
      </trkpt>
      <trkpt lat="54.548548" lon="-3.290481">
        <ele>285.0</ele>
        <time>2014-11-15T13:11:03Z</time>
      </trkpt>
      <trkpt lat="54.548493" lon="-3.290083">
        <ele>285.0</ele>
        <time>2014-11-15T13:11:07Z</time>
      </trkpt>
      <trkpt lat="54.548363" lon="-3.289713">
        <ele>285.0</ele>
        <time>2014-11-15T13:11:11Z</time>
      </trkpt>
      <trkpt lat="54.54821" lon="-3.289428">
        <ele>285.0</ele>
        <time>2014-11-15T13:11:15Z</time>
      </trkpt>
      <trkpt lat="54.548121" lon="-3.288996">
        <ele>286.0</ele>
        <time>2014-11-15T13:11:19Z</time>
      </trkpt>
      <trkpt lat="54.548105" lon="-3.28874">
        <ele>286.0</ele>
        <time>2014-11-15T13:11:23Z</time>
      </trkpt>
      <trkpt lat="54.548023" lon="-3.288465">
        <ele>287.0</ele>
        <time>2014-11-15T13:11:27Z</time>
      </trkpt>
      <trkpt lat="54.547933" lon="-3.288213">
        <ele>287.0</ele>
        <time>2014-11-15T13:11:31Z</time>
      </trkpt>
      <trkpt lat="54.547785" lon="-3.287876">
        <ele>288.0</ele>
        <time>2014-11-15T13:11:35Z</time>
      </trkpt>
      <trkpt lat="54.547725" lon="-3.287536">
        <ele>288.0</ele>
        <time>2014-11-15T13:11:39Z</time>
      </trkpt>
      <trkpt lat="54.547553" lon="-3.287416">
        <ele>289.0</ele>
        <time>2014-11-15T13:11:43Z</time>
      </trkpt>
      <trkpt lat="54.547398" lon="-3.28729">
        <ele>289.0</ele>
        <time>2014-11-15T13:11:47Z</time>
      </trkpt>
      <trkpt lat="54.547303" lon="-3.287163">
        <ele>290.0</ele>
        <time>2014-11-15T13:11:51Z</time>
      </trkpt>
      <trkpt lat="54.54722" lon="-3.287018">
        <ele>292.0</ele>
        <time>2014-11-15T13:11:55Z</time>
      </trkpt>
      <trkpt lat="54.547206" lon="-3.286821">
        <ele>293.0</ele>
        <time>2014-11-15T13:11:59Z</time>
      </trkpt>
      <trkpt lat="54.547208" lon="-3.286613">
        <ele>293.0</ele>
        <time>2014-11-15T13:12:03Z</time>
      </trkpt>
      <trkpt lat="54.547161" lon="-3.28641">
        <ele>294.0</ele>
        <time>2014-11-15T13:12:07Z</time>
      </trkpt>
      <trkpt lat="54.547116" lon="-3.286211">
        <ele>295.0</ele>
        <time>2014-11-15T13:12:11Z</time>
      </trkpt>
      <trkpt lat="54.54712" lon="-3.285961">
        <ele>295.0</ele>
        <time>2014-11-15T13:12:15Z</time>
      </trkpt>
      <trkpt lat="54.547083" lon="-3.285848">
        <ele>296.0</ele>
        <time>2014-11-15T13:12:19Z</time>
      </trkpt>
      <trkpt lat="54.547011" lon="-3.285668">
        <ele>297.0</ele>
        <time>2014-11-15T13:12:23Z</time>
      </trkpt>
      <trkpt lat="54.546966" lon="-3.285523">
        <ele>297.0</ele>
        <time>2014-11-15T13:12:27Z</time>
      </trkpt>
      <trkpt lat="54.54693" lon="-3.285335">
        <ele>298.0</ele>
        <time>2014-11-15T13:12:31Z</time>
      </trkpt>
      <trkpt lat="54.54686" lon="-3.285233">
        <ele>299.0</ele>
        <time>2014-11-15T13:12:35Z</time>
      </trkpt>
      <trkpt lat="54.546773" lon="-3.285058">
        <ele>300.0</ele>
        <time>2014-11-15T13:12:39Z</time>
      </trkpt>
      <trkpt lat="54.546746" lon="-3.285008">
        <ele>301.0</ele>
        <time>2014-11-15T13:12:43Z</time>
      </trkpt>
      <trkpt lat="54.546736" lon="-3.285003">
        <ele>302.0</ele>
        <time>2014-11-15T13:12:47Z</time>
      </trkpt>
      <trkpt lat="54.546673" lon="-3.284943">
        <ele>302.0</ele>
        <time>2014-11-15T13:12:51Z</time>
      </trkpt>
      <trkpt lat="54.546568" lon="-3.284888">
        <ele>303.0</ele>
        <time>2014-11-15T13:12:55Z</time>
      </trkpt>
      <trkpt lat="54.546491" lon="-3.2849">
        <ele>304.0</ele>
        <time>2014-11-15T13:12:59Z</time>
      </trkpt>
      <trkpt lat="54.546398" lon="-3.284893">
        <ele>306.0</ele>
        <time>2014-11-15T13:13:03Z</time>
      </trkpt>
      <trkpt lat="54.546316" lon="-3.284895">
        <ele>305.0</ele>
        <time>2014-11-15T13:13:07Z</time>
      </trkpt>
      <trkpt lat="54.54622" lon="-3.284893">
        <ele>306.0</ele>
        <time>2014-11-15T13:13:11Z</time>
      </trkpt>
      <trkpt lat="54.546091" lon="-3.284881">
        <ele>306.0</ele>
        <time>2014-11-15T13:13:15Z</time>
      </trkpt>
      <trkpt lat="54.545975" lon="-3.284843">
        <ele>307.0</ele>
        <time>2014-11-15T13:13:19Z</time>
      </trkpt>
      <trkpt lat="54.545843" lon="-3.284793">
        <ele>307.0</ele>
        <time>2014-11-15T13:13:23Z</time>
      </trkpt>
      <trkpt lat="54.545723" lon="-3.284713">
        <ele>307.0</ele>
        <time>2014-11-15T13:13:27Z</time>
      </trkpt>
      <trkpt lat="54.545605" lon="-3.284601">
        <ele>307.0</ele>
        <time>2014-11-15T13:13:31Z</time>
      </trkpt>
      <trkpt lat="54.545511" lon="-3.284448">
        <ele>308.0</ele>
        <time>2014-11-15T13:13:35Z</time>
      </trkpt>
      <trkpt lat="54.545455" lon="-3.284191">
        <ele>308.0</ele>
        <time>2014-11-15T13:13:39Z</time>
      </trkpt>
      <trkpt lat="54.545425" lon="-3.283906">
        <ele>307.0</ele>
        <time>2014-11-15T13:13:43Z</time>
      </trkpt>
      <trkpt lat="54.545381" lon="-3.283623">
        <ele>308.0</ele>
        <time>2014-11-15T13:13:47Z</time>
      </trkpt>
      <trkpt lat="54.545356" lon="-3.283401">
        <ele>308.0</ele>
        <time>2014-11-15T13:13:51Z</time>
      </trkpt>
      <trkpt lat="54.545323" lon="-3.283161">
        <ele>308.0</ele>
        <time>2014-11-15T13:13:55Z</time>
      </trkpt>
      <trkpt lat="54.545305" lon="-3.282806">
        <ele>308.0</ele>
        <time>2014-11-15T13:13:59Z</time>
      </trkpt>
      <trkpt lat="54.545266" lon="-3.282516">
        <ele>308.0</ele>
        <time>2014-11-15T13:14:03Z</time>
      </trkpt>
      <trkpt lat="54.54517" lon="-3.282186">
        <ele>308.0</ele>
        <time>2014-11-15T13:14:07Z</time>
      </trkpt>
      <trkpt lat="54.545106" lon="-3.28183">
        <ele>308.0</ele>
        <time>2014-11-15T13:14:11Z</time>
      </trkpt>
      <trkpt lat="54.544988" lon="-3.28148">
        <ele>308.0</ele>
        <time>2014-11-15T13:14:15Z</time>
      </trkpt>
      <trkpt lat="54.544871" lon="-3.28123">
        <ele>308.0</ele>
        <time>2014-11-15T13:14:19Z</time>
      </trkpt>
      <trkpt lat="54.544771" lon="-3.280918">
        <ele>308.0</ele>
        <time>2014-11-15T13:14:23Z</time>
      </trkpt>
      <trkpt lat="54.544635" lon="-3.28076">
        <ele>310.0</ele>
        <time>2014-11-15T13:14:27Z</time>
      </trkpt>
      <trkpt lat="54.544513" lon="-3.280613">
        <ele>311.0</ele>
        <time>2014-11-15T13:14:31Z</time>
      </trkpt>
      <trkpt lat="54.54445" lon="-3.280406">
        <ele>312.0</ele>
        <time>2014-11-15T13:14:35Z</time>
      </trkpt>
      <trkpt lat="54.544358" lon="-3.280251">
        <ele>313.0</ele>
        <time>2014-11-15T13:14:39Z</time>
      </trkpt>
      <trkpt lat="54.544248" lon="-3.28012">
        <ele>314.0</ele>
        <time>2014-11-15T13:14:43Z</time>
      </trkpt>
      <trkpt lat="54.544083" lon="-3.280066">
        <ele>313.0</ele>
        <time>2014-11-15T13:14:47Z</time>
      </trkpt>
      <trkpt lat="54.543898" lon="-3.280063">
        <ele>313.0</ele>
        <time>2014-11-15T13:14:51Z</time>
      </trkpt>
      <trkpt lat="54.54373" lon="-3.279851">
        <ele>312.0</ele>
        <time>2014-11-15T13:14:55Z</time>
      </trkpt>
      <trkpt lat="54.543515" lon="-3.279633">
        <ele>311.0</ele>
        <time>2014-11-15T13:14:59Z</time>
      </trkpt>
      <trkpt lat="54.543351" lon="-3.279523">
        <ele>311.0</ele>
        <time>2014-11-15T13:15:03Z</time>
      </trkpt>
      <trkpt lat="54.543236" lon="-3.279303">
        <ele>312.0</ele>
        <time>2014-11-15T13:15:07Z</time>
      </trkpt>
      <trkpt lat="54.543118" lon="-3.279011">
        <ele>312.0</ele>
        <time>2014-11-15T13:15:11Z</time>
      </trkpt>
      <trkpt lat="54.542925" lon="-3.278816">
        <ele>312.0</ele>
        <time>2014-11-15T13:15:15Z</time>
      </trkpt>
      <trkpt lat="54.542748" lon="-3.278565">
        <ele>312.0</ele>
        <time>2014-11-15T13:15:19Z</time>
      </trkpt>
      <trkpt lat="54.542551" lon="-3.278285">
        <ele>311.0</ele>
        <time>2014-11-15T13:15:23Z</time>
      </trkpt>
      <trkpt lat="54.542421" lon="-3.277938">
        <ele>309.0</ele>
        <time>2014-11-15T13:15:27Z</time>
      </trkpt>
      <trkpt lat="54.542145" lon="-3.277691">
        <ele>306.0</ele>
        <time>2014-11-15T13:15:31Z</time>
      </trkpt>
      <trkpt lat="54.541788" lon="-3.277496">
        <ele>302.0</ele>
        <time>2014-11-15T13:15:35Z</time>
      </trkpt>
      <trkpt lat="54.541551" lon="-3.277155">
        <ele>297.0</ele>
        <time>2014-11-15T13:15:39Z</time>
      </trkpt>
      <trkpt lat="54.541443" lon="-3.276703">
        <ele>294.0</ele>
        <time>2014-11-15T13:15:43Z</time>
      </trkpt>
      <trkpt lat="54.54143" lon="-3.27633">
        <ele>294.0</ele>
        <time>2014-11-15T13:15:47Z</time>
      </trkpt>
      <trkpt lat="54.541378" lon="-3.27606">
        <ele>296.0</ele>
        <time>2014-11-15T13:15:51Z</time>
      </trkpt>
      <trkpt lat="54.541403" lon="-3.275851">
        <ele>298.0</ele>
        <time>2014-11-15T13:15:55Z</time>
      </trkpt>
      <trkpt lat="54.541478" lon="-3.275733">
        <ele>299.0</ele>
        <time>2014-11-15T13:15:59Z</time>
      </trkpt>
      <trkpt lat="54.541498" lon="-3.275621">
        <ele>301.0</ele>
        <time>2014-11-15T13:16:03Z</time>
      </trkpt>
      <trkpt lat="54.541565" lon="-3.275478">
        <ele>303.0</ele>
        <time>2014-11-15T13:16:07Z</time>
      </trkpt>
      <trkpt lat="54.541586" lon="-3.275331">
        <ele>305.0</ele>
        <time>2014-11-15T13:16:11Z</time>
      </trkpt>
      <trkpt lat="54.54161" lon="-3.275206">
        <ele>306.0</ele>
        <time>2014-11-15T13:16:15Z</time>
      </trkpt>
      <trkpt lat="54.541608" lon="-3.27513">
        <ele>308.0</ele>
        <time>2014-11-15T13:16:19Z</time>
      </trkpt>
      <trkpt lat="54.541641" lon="-3.275033">
        <ele>308.0</ele>
        <time>2014-11-15T13:16:23Z</time>
      </trkpt>
      <trkpt lat="54.541658" lon="-3.27497">
        <ele>308.0</ele>
        <time>2014-11-15T13:16:27Z</time>
      </trkpt>
      <trkpt lat="54.54168" lon="-3.274926">
        <ele>308.0</ele>
        <time>2014-11-15T13:16:31Z</time>
      </trkpt>
      <trkpt lat="54.541655" lon="-3.274946">
        <ele>309.0</ele>
        <time>2014-11-15T13:16:35Z</time>
      </trkpt>
      <trkpt lat="54.541671" lon="-3.27489">
        <ele>309.0</ele>
        <time>2014-11-15T13:16:39Z</time>
      </trkpt>
      <trkpt lat="54.541636" lon="-3.274778">
        <ele>309.0</ele>
        <time>2014-11-15T13:16:43Z</time>
      </trkpt>
      <trkpt lat="54.541648" lon="-3.27466">
        <ele>309.0</ele>
        <time>2014-11-15T13:16:47Z</time>
      </trkpt>
      <trkpt lat="54.541688" lon="-3.274543">
        <ele>310.0</ele>
        <time>2014-11-15T13:16:51Z</time>
      </trkpt>
      <trkpt lat="54.541681" lon="-3.274533">
        <ele>310.0</ele>
        <time>2014-11-15T13:16:55Z</time>
      </trkpt>
      <trkpt lat="54.541673" lon="-3.27453">
        <ele>310.0</ele>
        <time>2014-11-15T13:16:59Z</time>
      </trkpt>
      <trkpt lat="54.541653" lon="-3.27454">
        <ele>310.0</ele>
        <time>2014-11-15T13:17:03Z</time>
      </trkpt>
      <trkpt lat="54.541656" lon="-3.274553">
        <ele>310.0</ele>
        <time>2014-11-15T13:17:07Z</time>
      </trkpt>
      <trkpt lat="54.541663" lon="-3.27455">
        <ele>310.0</ele>
        <time>2014-11-15T13:17:11Z</time>
      </trkpt>
      <trkpt lat="54.541651" lon="-3.274486">
        <ele>310.0</ele>
        <time>2014-11-15T13:17:15Z</time>
      </trkpt>
      <trkpt lat="54.541646" lon="-3.274451">
        <ele>310.0</ele>
        <time>2014-11-15T13:17:19Z</time>
      </trkpt>
      <trkpt lat="54.54161" lon="-3.274433">
        <ele>310.0</ele>
        <time>2014-11-15T13:17:23Z</time>
      </trkpt>
      <trkpt lat="54.541605" lon="-3.274458">
        <ele>310.0</ele>
        <time>2014-11-15T13:17:27Z</time>
      </trkpt>
      <trkpt lat="54.541591" lon="-3.274463">
        <ele>310.0</ele>
        <time>2014-11-15T13:17:31Z</time>
      </trkpt>
      <trkpt lat="54.541606" lon="-3.27447">
        <ele>310.0</ele>
        <time>2014-11-15T13:17:35Z</time>
      </trkpt>
      <trkpt lat="54.541625" lon="-3.274496">
        <ele>310.0</ele>
        <time>2014-11-15T13:17:39Z</time>
      </trkpt>
      <trkpt lat="54.541623" lon="-3.274508">
        <ele>310.0</ele>
        <time>2014-11-15T13:17:43Z</time>
      </trkpt>
      <trkpt lat="54.54163" lon="-3.274498">
        <ele>310.0</ele>
        <time>2014-11-15T13:17:47Z</time>
      </trkpt>
      <trkpt lat="54.541638" lon="-3.274495">
        <ele>310.0</ele>
        <time>2014-11-15T13:17:51Z</time>
      </trkpt>
      <trkpt lat="54.54166" lon="-3.274521">
        <ele>310.0</ele>
        <time>2014-11-15T13:17:55Z</time>
      </trkpt>
      <trkpt lat="54.541678" lon="-3.274538">
        <ele>310.0</ele>
        <time>2014-11-15T13:17:59Z</time>
      </trkpt>
      <trkpt lat="54.54167" lon="-3.274543">
        <ele>310.0</ele>
        <time>2014-11-15T13:18:03Z</time>
      </trkpt>
      <trkpt lat="54.541673" lon="-3.274548">
        <ele>310.0</ele>
        <time>2014-11-15T13:18:07Z</time>
      </trkpt>
      <trkpt lat="54.541643" lon="-3.274528">
        <ele>310.0</ele>
        <time>2014-11-15T13:18:11Z</time>
      </trkpt>
      <trkpt lat="54.541676" lon="-3.274533">
        <ele>310.0</ele>
        <time>2014-11-15T13:18:15Z</time>
      </trkpt>
      <trkpt lat="54.541693" lon="-3.274521">
        <ele>310.0</ele>
        <time>2014-11-15T13:18:19Z</time>
      </trkpt>
      <trkpt lat="54.541701" lon="-3.274538">
        <ele>310.0</ele>
        <time>2014-11-15T13:18:23Z</time>
      </trkpt>
      <trkpt lat="54.54172" lon="-3.274523">
        <ele>310.0</ele>
        <time>2014-11-15T13:18:27Z</time>
      </trkpt>
      <trkpt lat="54.541725" lon="-3.274525">
        <ele>310.0</ele>
        <time>2014-11-15T13:18:31Z</time>
      </trkpt>
      <trkpt lat="54.541681" lon="-3.274493">
        <ele>310.0</ele>
        <time>2014-11-15T13:18:35Z</time>
      </trkpt>
      <trkpt lat="54.54168" lon="-3.274478">
        <ele>310.0</ele>
        <time>2014-11-15T13:18:39Z</time>
      </trkpt>
      <trkpt lat="54.541645" lon="-3.274435">
        <ele>310.0</ele>
        <time>2014-11-15T13:18:43Z</time>
      </trkpt>
      <trkpt lat="54.541656" lon="-3.274433">
        <ele>310.0</ele>
        <time>2014-11-15T13:18:47Z</time>
      </trkpt>
      <trkpt lat="54.541638" lon="-3.274453">
        <ele>310.0</ele>
        <time>2014-11-15T13:18:51Z</time>
      </trkpt>
      <trkpt lat="54.541643" lon="-3.274461">
        <ele>310.0</ele>
        <time>2014-11-15T13:18:55Z</time>
      </trkpt>
      <trkpt lat="54.541661" lon="-3.274476">
        <ele>310.0</ele>
        <time>2014-11-15T13:18:59Z</time>
      </trkpt>
      <trkpt lat="54.54165" lon="-3.27447">
        <ele>310.0</ele>
        <time>2014-11-15T13:19:03Z</time>
      </trkpt>
      <trkpt lat="54.541643" lon="-3.274461">
        <ele>310.0</ele>
        <time>2014-11-15T13:19:07Z</time>
      </trkpt>
      <trkpt lat="54.541623" lon="-3.274453">
        <ele>310.0</ele>
        <time>2014-11-15T13:19:11Z</time>
      </trkpt>
      <trkpt lat="54.541631" lon="-3.27446">
        <ele>310.0</ele>
        <time>2014-11-15T13:19:15Z</time>
      </trkpt>
      <trkpt lat="54.541618" lon="-3.274461">
        <ele>310.0</ele>
        <time>2014-11-15T13:19:19Z</time>
      </trkpt>
      <trkpt lat="54.541635" lon="-3.274465">
        <ele>311.0</ele>
        <time>2014-11-15T13:19:23Z</time>
      </trkpt>
      <trkpt lat="54.541655" lon="-3.274486">
        <ele>310.0</ele>
        <time>2014-11-15T13:19:27Z</time>
      </trkpt>
      <trkpt lat="54.541623" lon="-3.27449">
        <ele>310.0</ele>
        <time>2014-11-15T13:19:31Z</time>
      </trkpt>
      <trkpt lat="54.541636" lon="-3.27452">
        <ele>310.0</ele>
        <time>2014-11-15T13:19:35Z</time>
      </trkpt>
      <trkpt lat="54.541628" lon="-3.274526">
        <ele>310.0</ele>
        <time>2014-11-15T13:19:39Z</time>
      </trkpt>
      <trkpt lat="54.54163" lon="-3.274548">
        <ele>310.0</ele>
        <time>2014-11-15T13:19:43Z</time>
      </trkpt>
      <trkpt lat="54.541656" lon="-3.274583">
        <ele>310.0</ele>
        <time>2014-11-15T13:19:47Z</time>
      </trkpt>
      <trkpt lat="54.54165" lon="-3.274583">
        <ele>311.0</ele>
        <time>2014-11-15T13:19:51Z</time>
      </trkpt>
      <trkpt lat="54.54164" lon="-3.27455">
        <ele>311.0</ele>
        <time>2014-11-15T13:19:55Z</time>
      </trkpt>
      <trkpt lat="54.541633" lon="-3.274545">
        <ele>310.0</ele>
        <time>2014-11-15T13:19:59Z</time>
      </trkpt>
      <trkpt lat="54.541638" lon="-3.274546">
        <ele>311.0</ele>
        <time>2014-11-15T13:20:03Z</time>
      </trkpt>
      <trkpt lat="54.541623" lon="-3.274555">
        <ele>310.0</ele>
        <time>2014-11-15T13:20:07Z</time>
      </trkpt>
      <trkpt lat="54.54162" lon="-3.274573">
        <ele>310.0</ele>
        <time>2014-11-15T13:20:11Z</time>
      </trkpt>
      <trkpt lat="54.541615" lon="-3.274561">
        <ele>311.0</ele>
        <time>2014-11-15T13:20:15Z</time>
      </trkpt>
      <trkpt lat="54.541618" lon="-3.27454">
        <ele>311.0</ele>
        <time>2014-11-15T13:20:19Z</time>
      </trkpt>
      <trkpt lat="54.541623" lon="-3.274541">
        <ele>311.0</ele>
        <time>2014-11-15T13:20:23Z</time>
      </trkpt>
      <trkpt lat="54.541605" lon="-3.274533">
        <ele>311.0</ele>
        <time>2014-11-15T13:20:27Z</time>
      </trkpt>
      <trkpt lat="54.54162" lon="-3.274515">
        <ele>311.0</ele>
        <time>2014-11-15T13:20:31Z</time>
      </trkpt>
      <trkpt lat="54.54165" lon="-3.274495">
        <ele>311.0</ele>
        <time>2014-11-15T13:20:35Z</time>
      </trkpt>
      <trkpt lat="54.541661" lon="-3.274475">
        <ele>311.0</ele>
        <time>2014-11-15T13:20:39Z</time>
      </trkpt>
      <trkpt lat="54.541663" lon="-3.274475">
        <ele>311.0</ele>
        <time>2014-11-15T13:20:43Z</time>
      </trkpt>
      <trkpt lat="54.541668" lon="-3.274495">
        <ele>311.0</ele>
        <time>2014-11-15T13:20:47Z</time>
      </trkpt>
      <trkpt lat="54.541668" lon="-3.274501">
        <ele>311.0</ele>
        <time>2014-11-15T13:20:51Z</time>
      </trkpt>
      <trkpt lat="54.54167" lon="-3.274493">
        <ele>311.0</ele>
        <time>2014-11-15T13:20:55Z</time>
      </trkpt>
      <trkpt lat="54.541661" lon="-3.274493">
        <ele>311.0</ele>
        <time>2014-11-15T13:20:59Z</time>
      </trkpt>
      <trkpt lat="54.54166" lon="-3.274473">
        <ele>311.0</ele>
        <time>2014-11-15T13:21:03Z</time>
      </trkpt>
      <trkpt lat="54.541666" lon="-3.2745">
        <ele>311.0</ele>
        <time>2014-11-15T13:21:07Z</time>
      </trkpt>
      <trkpt lat="54.541651" lon="-3.274506">
        <ele>311.0</ele>
        <time>2014-11-15T13:21:11Z</time>
      </trkpt>
      <trkpt lat="54.541661" lon="-3.27451">
        <ele>310.0</ele>
        <time>2014-11-15T13:21:15Z</time>
      </trkpt>
      <trkpt lat="54.54166" lon="-3.274506">
        <ele>311.0</ele>
        <time>2014-11-15T13:21:19Z</time>
      </trkpt>
      <trkpt lat="54.541656" lon="-3.27453">
        <ele>311.0</ele>
        <time>2014-11-15T13:21:23Z</time>
      </trkpt>
      <trkpt lat="54.541676" lon="-3.27453">
        <ele>311.0</ele>
        <time>2014-11-15T13:21:27Z</time>
      </trkpt>
      <trkpt lat="54.54166" lon="-3.274531">
        <ele>311.0</ele>
        <time>2014-11-15T13:21:31Z</time>
      </trkpt>
      <trkpt lat="54.541665" lon="-3.274545">
        <ele>311.0</ele>
        <time>2014-11-15T13:21:35Z</time>
      </trkpt>
      <trkpt lat="54.541655" lon="-3.27456">
        <ele>311.0</ele>
        <time>2014-11-15T13:21:39Z</time>
      </trkpt>
      <trkpt lat="54.541645" lon="-3.274565">
        <ele>311.0</ele>
        <time>2014-11-15T13:21:43Z</time>
      </trkpt>
      <trkpt lat="54.54165" lon="-3.274548">
        <ele>311.0</ele>
        <time>2014-11-15T13:21:47Z</time>
      </trkpt>
      <trkpt lat="54.541651" lon="-3.274548">
        <ele>311.0</ele>
        <time>2014-11-15T13:21:51Z</time>
      </trkpt>
      <trkpt lat="54.541631" lon="-3.274528">
        <ele>311.0</ele>
        <time>2014-11-15T13:21:55Z</time>
      </trkpt>
      <trkpt lat="54.541645" lon="-3.27454">
        <ele>311.0</ele>
        <time>2014-11-15T13:21:59Z</time>
      </trkpt>
      <trkpt lat="54.541643" lon="-3.274545">
        <ele>311.0</ele>
        <time>2014-11-15T13:22:03Z</time>
      </trkpt>
      <trkpt lat="54.541653" lon="-3.274558">
        <ele>311.0</ele>
        <time>2014-11-15T13:22:07Z</time>
      </trkpt>
      <trkpt lat="54.541646" lon="-3.274563">
        <ele>311.0</ele>
        <time>2014-11-15T13:22:11Z</time>
      </trkpt>
      <trkpt lat="54.541646" lon="-3.274568">
        <ele>311.0</ele>
        <time>2014-11-15T13:22:15Z</time>
      </trkpt>
      <trkpt lat="54.541635" lon="-3.274558">
        <ele>311.0</ele>
        <time>2014-11-15T13:22:19Z</time>
      </trkpt>
      <trkpt lat="54.541641" lon="-3.274566">
        <ele>311.0</ele>
        <time>2014-11-15T13:22:23Z</time>
      </trkpt>
      <trkpt lat="54.541671" lon="-3.27456">
        <ele>311.0</ele>
        <time>2014-11-15T13:22:27Z</time>
      </trkpt>
      <trkpt lat="54.54169" lon="-3.274545">
        <ele>311.0</ele>
        <time>2014-11-15T13:22:31Z</time>
      </trkpt>
      <trkpt lat="54.541691" lon="-3.274536">
        <ele>311.0</ele>
        <time>2014-11-15T13:22:35Z</time>
      </trkpt>
      <trkpt lat="54.541681" lon="-3.274535">
        <ele>311.0</ele>
        <time>2014-11-15T13:22:39Z</time>
      </trkpt>
      <trkpt lat="54.541681" lon="-3.274546">
        <ele>311.0</ele>
        <time>2014-11-15T13:22:43Z</time>
      </trkpt>
      <trkpt lat="54.541686" lon="-3.274555">
        <ele>311.0</ele>
        <time>2014-11-15T13:22:47Z</time>
      </trkpt>
      <trkpt lat="54.541665" lon="-3.27458">
        <ele>311.0</ele>
        <time>2014-11-15T13:22:51Z</time>
      </trkpt>
      <trkpt lat="54.541646" lon="-3.27457">
        <ele>311.0</ele>
        <time>2014-11-15T13:22:55Z</time>
      </trkpt>
      <trkpt lat="54.541628" lon="-3.27458">
        <ele>311.0</ele>
        <time>2014-11-15T13:22:59Z</time>
      </trkpt>
      <trkpt lat="54.541616" lon="-3.274583">
        <ele>311.0</ele>
        <time>2014-11-15T13:23:03Z</time>
      </trkpt>
      <trkpt lat="54.54163" lon="-3.274571">
        <ele>311.0</ele>
        <time>2014-11-15T13:23:07Z</time>
      </trkpt>
      <trkpt lat="54.541635" lon="-3.274546">
        <ele>311.0</ele>
        <time>2014-11-15T13:23:11Z</time>
      </trkpt>
      <trkpt lat="54.541636" lon="-3.274546">
        <ele>311.0</ele>
        <time>2014-11-15T13:23:15Z</time>
      </trkpt>
      <trkpt lat="54.541641" lon="-3.27454">
        <ele>311.0</ele>
        <time>2014-11-15T13:23:19Z</time>
      </trkpt>
      <trkpt lat="54.541673" lon="-3.274525">
        <ele>312.0</ele>
        <time>2014-11-15T13:23:23Z</time>
      </trkpt>
      <trkpt lat="54.541665" lon="-3.274525">
        <ele>312.0</ele>
        <time>2014-11-15T13:23:27Z</time>
      </trkpt>
      <trkpt lat="54.541661" lon="-3.274541">
        <ele>312.0</ele>
        <time>2014-11-15T13:23:31Z</time>
      </trkpt>
      <trkpt lat="54.54166" lon="-3.274531">
        <ele>312.0</ele>
        <time>2014-11-15T13:23:35Z</time>
      </trkpt>
      <trkpt lat="54.541665" lon="-3.274548">
        <ele>311.0</ele>
        <time>2014-11-15T13:23:39Z</time>
      </trkpt>
      <trkpt lat="54.541688" lon="-3.274541">
        <ele>311.0</ele>
        <time>2014-11-15T13:23:43Z</time>
      </trkpt>
      <trkpt lat="54.54171" lon="-3.27454">
        <ele>312.0</ele>
        <time>2014-11-15T13:23:47Z</time>
      </trkpt>
      <trkpt lat="54.54169" lon="-3.274526">
        <ele>311.0</ele>
        <time>2014-11-15T13:23:51Z</time>
      </trkpt>
      <trkpt lat="54.541698" lon="-3.274533">
        <ele>312.0</ele>
        <time>2014-11-15T13:23:55Z</time>
      </trkpt>
      <trkpt lat="54.541698" lon="-3.274546">
        <ele>312.0</ele>
        <time>2014-11-15T13:23:59Z</time>
      </trkpt>
      <trkpt lat="54.541698" lon="-3.274525">
        <ele>312.0</ele>
        <time>2014-11-15T13:24:03Z</time>
      </trkpt>
      <trkpt lat="54.54167" lon="-3.274501">
        <ele>312.0</ele>
        <time>2014-11-15T13:24:07Z</time>
      </trkpt>
      <trkpt lat="54.541656" lon="-3.27451">
        <ele>312.0</ele>
        <time>2014-11-15T13:24:11Z</time>
      </trkpt>
      <trkpt lat="54.54167" lon="-3.274505">
        <ele>312.0</ele>
        <time>2014-11-15T13:24:15Z</time>
      </trkpt>
      <trkpt lat="54.541653" lon="-3.274491">
        <ele>312.0</ele>
        <time>2014-11-15T13:24:19Z</time>
      </trkpt>
      <trkpt lat="54.541638" lon="-3.27447">
        <ele>312.0</ele>
        <time>2014-11-15T13:24:23Z</time>
      </trkpt>
      <trkpt lat="54.541658" lon="-3.274453">
        <ele>312.0</ele>
        <time>2014-11-15T13:24:27Z</time>
      </trkpt>
      <trkpt lat="54.54164" lon="-3.274468">
        <ele>312.0</ele>
        <time>2014-11-15T13:24:31Z</time>
      </trkpt>
      <trkpt lat="54.541628" lon="-3.274516">
        <ele>312.0</ele>
        <time>2014-11-15T13:24:35Z</time>
      </trkpt>
      <trkpt lat="54.541655" lon="-3.274536">
        <ele>312.0</ele>
        <time>2014-11-15T13:24:39Z</time>
      </trkpt>
      <trkpt lat="54.541636" lon="-3.274531">
        <ele>312.0</ele>
        <time>2014-11-15T13:24:43Z</time>
      </trkpt>
      <trkpt lat="54.541633" lon="-3.274511">
        <ele>312.0</ele>
        <time>2014-11-15T13:24:47Z</time>
      </trkpt>
      <trkpt lat="54.541621" lon="-3.274508">
        <ele>312.0</ele>
        <time>2014-11-15T13:24:51Z</time>
      </trkpt>
      <trkpt lat="54.54162" lon="-3.274498">
        <ele>312.0</ele>
        <time>2014-11-15T13:24:55Z</time>
      </trkpt>
      <trkpt lat="54.541618" lon="-3.274523">
        <ele>312.0</ele>
        <time>2014-11-15T13:24:59Z</time>
      </trkpt>
      <trkpt lat="54.541621" lon="-3.274508">
        <ele>312.0</ele>
        <time>2014-11-15T13:25:03Z</time>
      </trkpt>
      <trkpt lat="54.54162" lon="-3.274515">
        <ele>312.0</ele>
        <time>2014-11-15T13:25:07Z</time>
      </trkpt>
      <trkpt lat="54.541585" lon="-3.274535">
        <ele>312.0</ele>
        <time>2014-11-15T13:25:11Z</time>
      </trkpt>
      <trkpt lat="54.541591" lon="-3.274531">
        <ele>312.0</ele>
        <time>2014-11-15T13:25:15Z</time>
      </trkpt>
      <trkpt lat="54.541586" lon="-3.274476">
        <ele>312.0</ele>
        <time>2014-11-15T13:25:19Z</time>
      </trkpt>
      <trkpt lat="54.5416" lon="-3.274468">
        <ele>312.0</ele>
        <time>2014-11-15T13:25:23Z</time>
      </trkpt>
      <trkpt lat="54.541626" lon="-3.274491">
        <ele>312.0</ele>
        <time>2014-11-15T13:25:27Z</time>
      </trkpt>
      <trkpt lat="54.541658" lon="-3.274481">
        <ele>312.0</ele>
        <time>2014-11-15T13:25:31Z</time>
      </trkpt>
      <trkpt lat="54.541665" lon="-3.274506">
        <ele>312.0</ele>
        <time>2014-11-15T13:25:35Z</time>
      </trkpt>
      <trkpt lat="54.541666" lon="-3.274536">
        <ele>312.0</ele>
        <time>2014-11-15T13:25:39Z</time>
      </trkpt>
      <trkpt lat="54.541646" lon="-3.274538">
        <ele>312.0</ele>
        <time>2014-11-15T13:25:43Z</time>
      </trkpt>
      <trkpt lat="54.541628" lon="-3.274426">
        <ele>313.0</ele>
        <time>2014-11-15T13:25:47Z</time>
      </trkpt>
      <trkpt lat="54.541591" lon="-3.27433">
        <ele>313.0</ele>
        <time>2014-11-15T13:25:51Z</time>
      </trkpt>
      <trkpt lat="54.541536" lon="-3.274151">
        <ele>314.0</ele>
        <time>2014-11-15T13:25:55Z</time>
      </trkpt>
      <trkpt lat="54.541525" lon="-3.273963">
        <ele>314.0</ele>
        <time>2014-11-15T13:25:59Z</time>
      </trkpt>
      <trkpt lat="54.541478" lon="-3.273853">
        <ele>315.0</ele>
        <time>2014-11-15T13:26:03Z</time>
      </trkpt>
      <trkpt lat="54.541413" lon="-3.273696">
        <ele>316.0</ele>
        <time>2014-11-15T13:26:07Z</time>
      </trkpt>
      <trkpt lat="54.541376" lon="-3.273563">
        <ele>317.0</ele>
        <time>2014-11-15T13:26:11Z</time>
      </trkpt>
      <trkpt lat="54.54132" lon="-3.273423">
        <ele>318.0</ele>
        <time>2014-11-15T13:26:15Z</time>
      </trkpt>
      <trkpt lat="54.54132" lon="-3.273238">
        <ele>318.0</ele>
        <time>2014-11-15T13:26:19Z</time>
      </trkpt>
      <trkpt lat="54.54126" lon="-3.273073">
        <ele>319.0</ele>
        <time>2014-11-15T13:26:23Z</time>
      </trkpt>
      <trkpt lat="54.54116" lon="-3.272988">
        <ele>320.0</ele>
        <time>2014-11-15T13:26:27Z</time>
      </trkpt>
      <trkpt lat="54.541038" lon="-3.272951">
        <ele>320.0</ele>
        <time>2014-11-15T13:26:31Z</time>
      </trkpt>
      <trkpt lat="54.540958" lon="-3.272836">
        <ele>321.0</ele>
        <time>2014-11-15T13:26:35Z</time>
      </trkpt>
      <trkpt lat="54.540851" lon="-3.272711">
        <ele>322.0</ele>
        <time>2014-11-15T13:26:39Z</time>
      </trkpt>
      <trkpt lat="54.540788" lon="-3.272611">
        <ele>322.0</ele>
        <time>2014-11-15T13:26:43Z</time>
      </trkpt>
      <trkpt lat="54.54075" lon="-3.272518">
        <ele>324.0</ele>
        <time>2014-11-15T13:26:47Z</time>
      </trkpt>
      <trkpt lat="54.540681" lon="-3.272446">
        <ele>325.0</ele>
        <time>2014-11-15T13:26:51Z</time>
      </trkpt>
      <trkpt lat="54.540613" lon="-3.272346">
        <ele>326.0</ele>
        <time>2014-11-15T13:26:55Z</time>
      </trkpt>
      <trkpt lat="54.540475" lon="-3.272173">
        <ele>326.0</ele>
        <time>2014-11-15T13:26:59Z</time>
      </trkpt>
      <trkpt lat="54.540406" lon="-3.272016">
        <ele>327.0</ele>
        <time>2014-11-15T13:27:03Z</time>
      </trkpt>
      <trkpt lat="54.540301" lon="-3.27189">
        <ele>327.0</ele>
        <time>2014-11-15T13:27:07Z</time>
      </trkpt>
      <trkpt lat="54.540281" lon="-3.271715">
        <ele>327.0</ele>
        <time>2014-11-15T13:27:11Z</time>
      </trkpt>
      <trkpt lat="54.540071" lon="-3.271573">
        <ele>327.0</ele>
        <time>2014-11-15T13:27:15Z</time>
      </trkpt>
      <trkpt lat="54.539991" lon="-3.27144">
        <ele>328.0</ele>
        <time>2014-11-15T13:27:19Z</time>
      </trkpt>
      <trkpt lat="54.539908" lon="-3.27137">
        <ele>328.0</ele>
        <time>2014-11-15T13:27:23Z</time>
      </trkpt>
      <trkpt lat="54.539731" lon="-3.27124">
        <ele>329.0</ele>
        <time>2014-11-15T13:27:27Z</time>
      </trkpt>
      <trkpt lat="54.539505" lon="-3.271023">
        <ele>327.0</ele>
        <time>2014-11-15T13:27:31Z</time>
      </trkpt>
      <trkpt lat="54.53922" lon="-3.270748">
        <ele>325.0</ele>
        <time>2014-11-15T13:27:35Z</time>
      </trkpt>
      <trkpt lat="54.538891" lon="-3.270608">
        <ele>322.0</ele>
        <time>2014-11-15T13:27:39Z</time>
      </trkpt>
      <trkpt lat="54.538623" lon="-3.270498">
        <ele>321.0</ele>
        <time>2014-11-15T13:27:43Z</time>
      </trkpt>
      <trkpt lat="54.53832" lon="-3.27039">
        <ele>320.0</ele>
        <time>2014-11-15T13:27:47Z</time>
      </trkpt>
      <trkpt lat="54.538046" lon="-3.270171">
        <ele>320.0</ele>
        <time>2014-11-15T13:27:51Z</time>
      </trkpt>
      <trkpt lat="54.537768" lon="-3.269861">
        <ele>319.0</ele>
        <time>2014-11-15T13:27:55Z</time>
      </trkpt>
      <trkpt lat="54.537515" lon="-3.269548">
        <ele>318.0</ele>
        <time>2014-11-15T13:27:59Z</time>
      </trkpt>
      <trkpt lat="54.537315" lon="-3.269173">
        <ele>317.0</ele>
        <time>2014-11-15T13:28:03Z</time>
      </trkpt>
      <trkpt lat="54.537086" lon="-3.268773">
        <ele>316.0</ele>
        <time>2014-11-15T13:28:07Z</time>
      </trkpt>
      <trkpt lat="54.53686" lon="-3.268336">
        <ele>314.0</ele>
        <time>2014-11-15T13:28:11Z</time>
      </trkpt>
      <trkpt lat="54.536658" lon="-3.267913">
        <ele>314.0</ele>
        <time>2014-11-15T13:28:15Z</time>
      </trkpt>
      <trkpt lat="54.536435" lon="-3.267533">
        <ele>313.0</ele>
        <time>2014-11-15T13:28:19Z</time>
      </trkpt>
      <trkpt lat="54.536311" lon="-3.267148">
        <ele>313.0</ele>
        <time>2014-11-15T13:28:23Z</time>
      </trkpt>
      <trkpt lat="54.536135" lon="-3.266695">
        <ele>313.0</ele>
        <time>2014-11-15T13:28:27Z</time>
      </trkpt>
      <trkpt lat="54.536053" lon="-3.26631">
        <ele>312.0</ele>
        <time>2014-11-15T13:28:31Z</time>
      </trkpt>
      <trkpt lat="54.53598" lon="-3.265883">
        <ele>312.0</ele>
        <time>2014-11-15T13:28:35Z</time>
      </trkpt>
      <trkpt lat="54.535845" lon="-3.265638">
        <ele>312.0</ele>
        <time>2014-11-15T13:28:39Z</time>
      </trkpt>
      <trkpt lat="54.535783" lon="-3.265278">
        <ele>313.0</ele>
        <time>2014-11-15T13:28:43Z</time>
      </trkpt>
      <trkpt lat="54.535675" lon="-3.264935">
        <ele>314.0</ele>
        <time>2014-11-15T13:28:47Z</time>
      </trkpt>
      <trkpt lat="54.535596" lon="-3.264591">
        <ele>315.0</ele>
        <time>2014-11-15T13:28:51Z</time>
      </trkpt>
      <trkpt lat="54.535476" lon="-3.264261">
        <ele>315.0</ele>
        <time>2014-11-15T13:28:55Z</time>
      </trkpt>
      <trkpt lat="54.535358" lon="-3.263955">
        <ele>314.0</ele>
        <time>2014-11-15T13:28:59Z</time>
      </trkpt>
      <trkpt lat="54.535198" lon="-3.263548">
        <ele>313.0</ele>
        <time>2014-11-15T13:29:03Z</time>
      </trkpt>
      <trkpt lat="54.53501" lon="-3.263275">
        <ele>314.0</ele>
        <time>2014-11-15T13:29:07Z</time>
      </trkpt>
      <trkpt lat="54.534855" lon="-3.262966">
        <ele>314.0</ele>
        <time>2014-11-15T13:29:11Z</time>
      </trkpt>
      <trkpt lat="54.534706" lon="-3.262573">
        <ele>313.0</ele>
        <time>2014-11-15T13:29:15Z</time>
      </trkpt>
      <trkpt lat="54.534521" lon="-3.262188">
        <ele>312.0</ele>
        <time>2014-11-15T13:29:19Z</time>
      </trkpt>
      <trkpt lat="54.534388" lon="-3.261826">
        <ele>313.0</ele>
        <time>2014-11-15T13:29:23Z</time>
      </trkpt>
      <trkpt lat="54.534226" lon="-3.261566">
        <ele>314.0</ele>
        <time>2014-11-15T13:29:27Z</time>
      </trkpt>
      <trkpt lat="54.534103" lon="-3.26134">
        <ele>315.0</ele>
        <time>2014-11-15T13:29:31Z</time>
      </trkpt>
      <trkpt lat="54.534005" lon="-3.261086">
        <ele>316.0</ele>
        <time>2014-11-15T13:29:35Z</time>
      </trkpt>
      <trkpt lat="54.533866" lon="-3.260741">
        <ele>315.0</ele>
        <time>2014-11-15T13:29:39Z</time>
      </trkpt>
      <trkpt lat="54.533696" lon="-3.260358">
        <ele>314.0</ele>
        <time>2014-11-15T13:29:43Z</time>
      </trkpt>
      <trkpt lat="54.533571" lon="-3.259933">
        <ele>313.0</ele>
        <time>2014-11-15T13:29:47Z</time>
      </trkpt>
      <trkpt lat="54.533471" lon="-3.25954">
        <ele>313.0</ele>
        <time>2014-11-15T13:29:51Z</time>
      </trkpt>
      <trkpt lat="54.533396" lon="-3.259163">
        <ele>314.0</ele>
        <time>2014-11-15T13:29:55Z</time>
      </trkpt>
      <trkpt lat="54.533286" lon="-3.258821">
        <ele>314.0</ele>
        <time>2014-11-15T13:29:59Z</time>
      </trkpt>
      <trkpt lat="54.533145" lon="-3.258526">
        <ele>315.0</ele>
        <time>2014-11-15T13:30:03Z</time>
      </trkpt>
      <trkpt lat="54.533013" lon="-3.258226">
        <ele>315.0</ele>
        <time>2014-11-15T13:30:07Z</time>
      </trkpt>
      <trkpt lat="54.532898" lon="-3.25792">
        <ele>316.0</ele>
        <time>2014-11-15T13:30:11Z</time>
      </trkpt>
      <trkpt lat="54.532841" lon="-3.257585">
        <ele>316.0</ele>
        <time>2014-11-15T13:30:15Z</time>
      </trkpt>
      <trkpt lat="54.53275" lon="-3.257266">
        <ele>316.0</ele>
        <time>2014-11-15T13:30:19Z</time>
      </trkpt>
      <trkpt lat="54.532571" lon="-3.257113">
        <ele>316.0</ele>
        <time>2014-11-15T13:30:23Z</time>
      </trkpt>
      <trkpt lat="54.532341" lon="-3.257155">
        <ele>315.0</ele>
        <time>2014-11-15T13:30:27Z</time>
      </trkpt>
      <trkpt lat="54.532096" lon="-3.25731">
        <ele>315.0</ele>
        <time>2014-11-15T13:30:31Z</time>
      </trkpt>
      <trkpt lat="54.531795" lon="-3.257243">
        <ele>313.0</ele>
        <time>2014-11-15T13:30:35Z</time>
      </trkpt>
      <trkpt lat="54.531503" lon="-3.256655">
        <ele>308.0</ele>
        <time>2014-11-15T13:30:39Z</time>
      </trkpt>
      <trkpt lat="54.531188" lon="-3.256185">
        <ele>305.0</ele>
        <time>2014-11-15T13:30:43Z</time>
      </trkpt>
      <trkpt lat="54.530975" lon="-3.255845">
        <ele>305.0</ele>
        <time>2014-11-15T13:30:47Z</time>
      </trkpt>
      <trkpt lat="54.530803" lon="-3.255498">
        <ele>306.0</ele>
        <time>2014-11-15T13:30:51Z</time>
      </trkpt>
      <trkpt lat="54.530651" lon="-3.255106">
        <ele>305.0</ele>
        <time>2014-11-15T13:30:55Z</time>
      </trkpt>
      <trkpt lat="54.53049" lon="-3.254721">
        <ele>305.0</ele>
        <time>2014-11-15T13:30:59Z</time>
      </trkpt>
      <trkpt lat="54.530171" lon="-3.254483">
        <ele>304.0</ele>
        <time>2014-11-15T13:31:03Z</time>
      </trkpt>
      <trkpt lat="54.529855" lon="-3.254263">
        <ele>301.0</ele>
        <time>2014-11-15T13:31:07Z</time>
      </trkpt>
      <trkpt lat="54.529441" lon="-3.253943">
        <ele>299.0</ele>
        <time>2014-11-15T13:31:11Z</time>
      </trkpt>
      <trkpt lat="54.52907" lon="-3.253648">
        <ele>297.0</ele>
        <time>2014-11-15T13:31:15Z</time>
      </trkpt>
      <trkpt lat="54.528851" lon="-3.253176">
        <ele>295.0</ele>
        <time>2014-11-15T13:31:19Z</time>
      </trkpt>
      <trkpt lat="54.528701" lon="-3.252576">
        <ele>294.0</ele>
        <time>2014-11-15T13:31:23Z</time>
      </trkpt>
      <trkpt lat="54.5285" lon="-3.252011">
        <ele>291.0</ele>
        <time>2014-11-15T13:31:27Z</time>
      </trkpt>
      <trkpt lat="54.528281" lon="-3.251513">
        <ele>290.0</ele>
        <time>2014-11-15T13:31:31Z</time>
      </trkpt>
      <trkpt lat="54.528046" lon="-3.251188">
        <ele>289.0</ele>
        <time>2014-11-15T13:31:35Z</time>
      </trkpt>
      <trkpt lat="54.527691" lon="-3.251073">
        <ele>287.0</ele>
        <time>2014-11-15T13:31:39Z</time>
      </trkpt>
      <trkpt lat="54.527313" lon="-3.251213">
        <ele>285.0</ele>
        <time>2014-11-15T13:31:43Z</time>
      </trkpt>
      <trkpt lat="54.526986" lon="-3.2513">
        <ele>285.0</ele>
        <time>2014-11-15T13:31:47Z</time>
      </trkpt>
      <trkpt lat="54.526775" lon="-3.251243">
        <ele>286.0</ele>
        <time>2014-11-15T13:31:51Z</time>
      </trkpt>
      <trkpt lat="54.526591" lon="-3.251006">
        <ele>286.0</ele>
        <time>2014-11-15T13:31:55Z</time>
      </trkpt>
      <trkpt lat="54.526471" lon="-3.250725">
        <ele>287.0</ele>
        <time>2014-11-15T13:31:59Z</time>
      </trkpt>
      <trkpt lat="54.526378" lon="-3.250533">
        <ele>289.0</ele>
        <time>2014-11-15T13:32:03Z</time>
      </trkpt>
      <trkpt lat="54.52635" lon="-3.250255">
        <ele>291.0</ele>
        <time>2014-11-15T13:32:07Z</time>
      </trkpt>
      <trkpt lat="54.526208" lon="-3.250066">
        <ele>291.0</ele>
        <time>2014-11-15T13:32:11Z</time>
      </trkpt>
      <trkpt lat="54.526013" lon="-3.249868">
        <ele>291.0</ele>
        <time>2014-11-15T13:32:15Z</time>
      </trkpt>
      <trkpt lat="54.525865" lon="-3.24967">
        <ele>293.0</ele>
        <time>2014-11-15T13:32:19Z</time>
      </trkpt>
      <trkpt lat="54.525873" lon="-3.249368">
        <ele>294.0</ele>
        <time>2014-11-15T13:32:23Z</time>
      </trkpt>
      <trkpt lat="54.525743" lon="-3.249115">
        <ele>294.0</ele>
        <time>2014-11-15T13:32:27Z</time>
      </trkpt>
      <trkpt lat="54.525681" lon="-3.248803">
        <ele>293.0</ele>
        <time>2014-11-15T13:32:31Z</time>
      </trkpt>
      <trkpt lat="54.525556" lon="-3.248483">
        <ele>293.0</ele>
        <time>2014-11-15T13:32:35Z</time>
      </trkpt>
      <trkpt lat="54.525436" lon="-3.248231">
        <ele>293.0</ele>
        <time>2014-11-15T13:32:39Z</time>
      </trkpt>
      <trkpt lat="54.52538" lon="-3.24803">
        <ele>294.0</ele>
        <time>2014-11-15T13:32:43Z</time>
      </trkpt>
      <trkpt lat="54.525301" lon="-3.24778">
        <ele>294.0</ele>
        <time>2014-11-15T13:32:47Z</time>
      </trkpt>
      <trkpt lat="54.52509" lon="-3.247615">
        <ele>296.0</ele>
        <time>2014-11-15T13:32:51Z</time>
      </trkpt>
      <trkpt lat="54.524981" lon="-3.247456">
        <ele>297.0</ele>
        <time>2014-11-15T13:32:55Z</time>
      </trkpt>
      <trkpt lat="54.524873" lon="-3.247296">
        <ele>298.0</ele>
        <time>2014-11-15T13:32:59Z</time>
      </trkpt>
      <trkpt lat="54.52474" lon="-3.247218">
        <ele>299.0</ele>
        <time>2014-11-15T13:33:03Z</time>
      </trkpt>
      <trkpt lat="54.524616" lon="-3.247096">
        <ele>299.0</ele>
        <time>2014-11-15T13:33:07Z</time>
      </trkpt>
      <trkpt lat="54.524436" lon="-3.246931">
        <ele>298.0</ele>
        <time>2014-11-15T13:33:11Z</time>
      </trkpt>
      <trkpt lat="54.524161" lon="-3.24667">
        <ele>297.0</ele>
        <time>2014-11-15T13:33:15Z</time>
      </trkpt>
      <trkpt lat="54.523863" lon="-3.246261">
        <ele>292.0</ele>
        <time>2014-11-15T13:33:19Z</time>
      </trkpt>
      <trkpt lat="54.523631" lon="-3.245795">
        <ele>291.0</ele>
        <time>2014-11-15T13:33:23Z</time>
      </trkpt>
      <trkpt lat="54.523503" lon="-3.245418">
        <ele>291.0</ele>
        <time>2014-11-15T13:33:27Z</time>
      </trkpt>
      <trkpt lat="54.523463" lon="-3.245206">
        <ele>292.0</ele>
        <time>2014-11-15T13:33:31Z</time>
      </trkpt>
      <trkpt lat="54.523438" lon="-3.244976">
        <ele>294.0</ele>
        <time>2014-11-15T13:33:35Z</time>
      </trkpt>
      <trkpt lat="54.523393" lon="-3.244746">
        <ele>295.0</ele>
        <time>2014-11-15T13:33:39Z</time>
      </trkpt>
      <trkpt lat="54.523338" lon="-3.24454">
        <ele>296.0</ele>
        <time>2014-11-15T13:33:43Z</time>
      </trkpt>
      <trkpt lat="54.52331" lon="-3.24435">
        <ele>297.0</ele>
        <time>2014-11-15T13:33:47Z</time>
      </trkpt>
      <trkpt lat="54.523286" lon="-3.244156">
        <ele>298.0</ele>
        <time>2014-11-15T13:33:51Z</time>
      </trkpt>
      <trkpt lat="54.523235" lon="-3.243983">
        <ele>299.0</ele>
        <time>2014-11-15T13:33:55Z</time>
      </trkpt>
      <trkpt lat="54.523183" lon="-3.24381">
        <ele>301.0</ele>
        <time>2014-11-15T13:33:59Z</time>
      </trkpt>
      <trkpt lat="54.52313" lon="-3.243628">
        <ele>302.0</ele>
        <time>2014-11-15T13:34:03Z</time>
      </trkpt>
      <trkpt lat="54.523081" lon="-3.243436">
        <ele>303.0</ele>
        <time>2014-11-15T13:34:07Z</time>
      </trkpt>
      <trkpt lat="54.523041" lon="-3.24323">
        <ele>303.0</ele>
        <time>2014-11-15T13:34:11Z</time>
      </trkpt>
      <trkpt lat="54.52303" lon="-3.243018">
        <ele>304.0</ele>
        <time>2014-11-15T13:34:15Z</time>
      </trkpt>
      <trkpt lat="54.522975" lon="-3.242775">
        <ele>304.0</ele>
        <time>2014-11-15T13:34:19Z</time>
      </trkpt>
      <trkpt lat="54.522973" lon="-3.242505">
        <ele>304.0</ele>
        <time>2014-11-15T13:34:23Z</time>
      </trkpt>
      <trkpt lat="54.523043" lon="-3.242095">
        <ele>303.0</ele>
        <time>2014-11-15T13:34:27Z</time>
      </trkpt>
      <trkpt lat="54.523088" lon="-3.241633">
        <ele>302.0</ele>
        <time>2014-11-15T13:34:31Z</time>
      </trkpt>
      <trkpt lat="54.523065" lon="-3.241241">
        <ele>302.0</ele>
        <time>2014-11-15T13:34:35Z</time>
      </trkpt>
      <trkpt lat="54.523011" lon="-3.240935">
        <ele>302.0</ele>
        <time>2014-11-15T13:34:39Z</time>
      </trkpt>
      <trkpt lat="54.522933" lon="-3.240695">
        <ele>303.0</ele>
        <time>2014-11-15T13:34:43Z</time>
      </trkpt>
      <trkpt lat="54.522883" lon="-3.240331">
        <ele>304.0</ele>
        <time>2014-11-15T13:34:47Z</time>
      </trkpt>
      <trkpt lat="54.52286" lon="-3.240005">
        <ele>304.0</ele>
        <time>2014-11-15T13:34:51Z</time>
      </trkpt>
      <trkpt lat="54.522848" lon="-3.239708">
        <ele>304.0</ele>
        <time>2014-11-15T13:34:55Z</time>
      </trkpt>
      <trkpt lat="54.522838" lon="-3.239353">
        <ele>304.0</ele>
        <time>2014-11-15T13:34:59Z</time>
      </trkpt>
      <trkpt lat="54.522865" lon="-3.239071">
        <ele>305.0</ele>
        <time>2014-11-15T13:35:03Z</time>
      </trkpt>
      <trkpt lat="54.52284" lon="-3.238875">
        <ele>305.0</ele>
        <time>2014-11-15T13:35:07Z</time>
      </trkpt>
      <trkpt lat="54.522855" lon="-3.238616">
        <ele>306.0</ele>
        <time>2014-11-15T13:35:11Z</time>
      </trkpt>
      <trkpt lat="54.522808" lon="-3.238361">
        <ele>308.0</ele>
        <time>2014-11-15T13:35:15Z</time>
      </trkpt>
      <trkpt lat="54.522728" lon="-3.238148">
        <ele>309.0</ele>
        <time>2014-11-15T13:35:19Z</time>
      </trkpt>
      <trkpt lat="54.522701" lon="-3.237836">
        <ele>309.0</ele>
        <time>2014-11-15T13:35:23Z</time>
      </trkpt>
      <trkpt lat="54.522698" lon="-3.237521">
        <ele>309.0</ele>
        <time>2014-11-15T13:35:27Z</time>
      </trkpt>
      <trkpt lat="54.522745" lon="-3.23724">
        <ele>309.0</ele>
        <time>2014-11-15T13:35:31Z</time>
      </trkpt>
      <trkpt lat="54.522696" lon="-3.236895">
        <ele>309.0</ele>
        <time>2014-11-15T13:35:35Z</time>
      </trkpt>
      <trkpt lat="54.522645" lon="-3.236665">
        <ele>310.0</ele>
        <time>2014-11-15T13:35:39Z</time>
      </trkpt>
      <trkpt lat="54.52267" lon="-3.236431">
        <ele>309.0</ele>
        <time>2014-11-15T13:35:43Z</time>
      </trkpt>
      <trkpt lat="54.522668" lon="-3.236145">
        <ele>310.0</ele>
        <time>2014-11-15T13:35:47Z</time>
      </trkpt>
      <trkpt lat="54.522666" lon="-3.235895">
        <ele>310.0</ele>
        <time>2014-11-15T13:35:51Z</time>
      </trkpt>
      <trkpt lat="54.522635" lon="-3.235551">
        <ele>310.0</ele>
        <time>2014-11-15T13:35:55Z</time>
      </trkpt>
      <trkpt lat="54.522578" lon="-3.235238">
        <ele>311.0</ele>
        <time>2014-11-15T13:35:59Z</time>
      </trkpt>
      <trkpt lat="54.522631" lon="-3.234951">
        <ele>311.0</ele>
        <time>2014-11-15T13:36:03Z</time>
      </trkpt>
      <trkpt lat="54.52264" lon="-3.234691">
        <ele>311.0</ele>
        <time>2014-11-15T13:36:07Z</time>
      </trkpt>
      <trkpt lat="54.52262" lon="-3.234413">
        <ele>311.0</ele>
        <time>2014-11-15T13:36:11Z</time>
      </trkpt>
      <trkpt lat="54.522588" lon="-3.234105">
        <ele>312.0</ele>
        <time>2014-11-15T13:36:15Z</time>
      </trkpt>
      <trkpt lat="54.522625" lon="-3.23385">
        <ele>312.0</ele>
        <time>2014-11-15T13:36:19Z</time>
      </trkpt>
      <trkpt lat="54.522681" lon="-3.233575">
        <ele>313.0</ele>
        <time>2014-11-15T13:36:23Z</time>
      </trkpt>
      <trkpt lat="54.522741" lon="-3.233266">
        <ele>313.0</ele>
        <time>2014-11-15T13:36:27Z</time>
      </trkpt>
      <trkpt lat="54.522793" lon="-3.232961">
        <ele>313.0</ele>
        <time>2014-11-15T13:36:31Z</time>
      </trkpt>
      <trkpt lat="54.522815" lon="-3.232698">
        <ele>313.0</ele>
        <time>2014-11-15T13:36:35Z</time>
      </trkpt>
      <trkpt lat="54.522791" lon="-3.232406">
        <ele>314.0</ele>
        <time>2014-11-15T13:36:39Z</time>
      </trkpt>
      <trkpt lat="54.522768" lon="-3.23213">
        <ele>314.0</ele>
        <time>2014-11-15T13:36:43Z</time>
      </trkpt>
      <trkpt lat="54.522755" lon="-3.231903">
        <ele>314.0</ele>
        <time>2014-11-15T13:36:47Z</time>
      </trkpt>
      <trkpt lat="54.522718" lon="-3.231656">
        <ele>315.0</ele>
        <time>2014-11-15T13:36:51Z</time>
      </trkpt>
      <trkpt lat="54.522685" lon="-3.231373">
        <ele>316.0</ele>
        <time>2014-11-15T13:36:55Z</time>
      </trkpt>
      <trkpt lat="54.522695" lon="-3.23113">
        <ele>317.0</ele>
        <time>2014-11-15T13:36:59Z</time>
      </trkpt>
      <trkpt lat="54.522743" lon="-3.230861">
        <ele>317.0</ele>
        <time>2014-11-15T13:37:03Z</time>
      </trkpt>
      <trkpt lat="54.522791" lon="-3.230626">
        <ele>317.0</ele>
        <time>2014-11-15T13:37:07Z</time>
      </trkpt>
      <trkpt lat="54.522858" lon="-3.230423">
        <ele>318.0</ele>
        <time>2014-11-15T13:37:11Z</time>
      </trkpt>
      <trkpt lat="54.522886" lon="-3.230253">
        <ele>319.0</ele>
        <time>2014-11-15T13:37:15Z</time>
      </trkpt>
      <trkpt lat="54.52289" lon="-3.230068">
        <ele>320.0</ele>
        <time>2014-11-15T13:37:19Z</time>
      </trkpt>
      <trkpt lat="54.522948" lon="-3.22985">
        <ele>320.0</ele>
        <time>2014-11-15T13:37:23Z</time>
      </trkpt>
      <trkpt lat="54.522931" lon="-3.229618">
        <ele>321.0</ele>
        <time>2014-11-15T13:37:27Z</time>
      </trkpt>
      <trkpt lat="54.522948" lon="-3.229381">
        <ele>321.0</ele>
        <time>2014-11-15T13:37:31Z</time>
      </trkpt>
      <trkpt lat="54.522946" lon="-3.2292">
        <ele>322.0</ele>
        <time>2014-11-15T13:37:35Z</time>
      </trkpt>
      <trkpt lat="54.522926" lon="-3.229033">
        <ele>323.0</ele>
        <time>2014-11-15T13:37:39Z</time>
      </trkpt>
      <trkpt lat="54.52289" lon="-3.228861">
        <ele>323.0</ele>
        <time>2014-11-15T13:37:43Z</time>
      </trkpt>
      <trkpt lat="54.522863" lon="-3.228676">
        <ele>322.0</ele>
        <time>2014-11-15T13:37:47Z</time>
      </trkpt>
      <trkpt lat="54.522701" lon="-3.228473">
        <ele>321.0</ele>
        <time>2014-11-15T13:37:51Z</time>
      </trkpt>
      <trkpt lat="54.52273" lon="-3.22817">
        <ele>320.0</ele>
        <time>2014-11-15T13:37:55Z</time>
      </trkpt>
      <trkpt lat="54.522733" lon="-3.227815">
        <ele>321.0</ele>
        <time>2014-11-15T13:37:59Z</time>
      </trkpt>
      <trkpt lat="54.522785" lon="-3.22747">
        <ele>321.0</ele>
        <time>2014-11-15T13:38:03Z</time>
      </trkpt>
      <trkpt lat="54.522811" lon="-3.227185">
        <ele>322.0</ele>
        <time>2014-11-15T13:38:07Z</time>
      </trkpt>
      <trkpt lat="54.522778" lon="-3.226976">
        <ele>321.0</ele>
        <time>2014-11-15T13:38:11Z</time>
      </trkpt>
      <trkpt lat="54.5228" lon="-3.226788">
        <ele>322.0</ele>
        <time>2014-11-15T13:38:15Z</time>
      </trkpt>
      <trkpt lat="54.522851" lon="-3.226523">
        <ele>322.0</ele>
        <time>2014-11-15T13:38:19Z</time>
      </trkpt>
      <trkpt lat="54.522856" lon="-3.226366">
        <ele>323.0</ele>
        <time>2014-11-15T13:38:23Z</time>
      </trkpt>
      <trkpt lat="54.522878" lon="-3.226093">
        <ele>324.0</ele>
        <time>2014-11-15T13:38:27Z</time>
      </trkpt>
      <trkpt lat="54.522875" lon="-3.225841">
        <ele>323.0</ele>
        <time>2014-11-15T13:38:31Z</time>
      </trkpt>
      <trkpt lat="54.522886" lon="-3.225606">
        <ele>324.0</ele>
        <time>2014-11-15T13:38:35Z</time>
      </trkpt>
      <trkpt lat="54.522915" lon="-3.22544">
        <ele>324.0</ele>
        <time>2014-11-15T13:38:39Z</time>
      </trkpt>
      <trkpt lat="54.52286" lon="-3.225253">
        <ele>326.0</ele>
        <time>2014-11-15T13:38:43Z</time>
      </trkpt>
      <trkpt lat="54.522853" lon="-3.225021">
        <ele>326.0</ele>
        <time>2014-11-15T13:38:47Z</time>
      </trkpt>
      <trkpt lat="54.522825" lon="-3.224761">
        <ele>326.0</ele>
        <time>2014-11-15T13:38:51Z</time>
      </trkpt>
      <trkpt lat="54.52281" lon="-3.224501">
        <ele>326.0</ele>
        <time>2014-11-15T13:38:55Z</time>
      </trkpt>
      <trkpt lat="54.522816" lon="-3.224293">
        <ele>325.0</ele>
        <time>2014-11-15T13:38:59Z</time>
      </trkpt>
      <trkpt lat="54.522861" lon="-3.224095">
        <ele>325.0</ele>
        <time>2014-11-15T13:39:03Z</time>
      </trkpt>
      <trkpt lat="54.522835" lon="-3.223816">
        <ele>325.0</ele>
        <time>2014-11-15T13:39:07Z</time>
      </trkpt>
      <trkpt lat="54.522796" lon="-3.22357">
        <ele>326.0</ele>
        <time>2014-11-15T13:39:11Z</time>
      </trkpt>
      <trkpt lat="54.52273" lon="-3.223303">
        <ele>326.0</ele>
        <time>2014-11-15T13:39:15Z</time>
      </trkpt>
      <trkpt lat="54.522695" lon="-3.2231">
        <ele>327.0</ele>
        <time>2014-11-15T13:39:19Z</time>
      </trkpt>
      <trkpt lat="54.522583" lon="-3.222868">
        <ele>326.0</ele>
        <time>2014-11-15T13:39:23Z</time>
      </trkpt>
      <trkpt lat="54.52257" lon="-3.222591">
        <ele>327.0</ele>
        <time>2014-11-15T13:39:27Z</time>
      </trkpt>
      <trkpt lat="54.522531" lon="-3.222288">
        <ele>327.0</ele>
        <time>2014-11-15T13:39:31Z</time>
      </trkpt>
      <trkpt lat="54.522531" lon="-3.222046">
        <ele>328.0</ele>
        <time>2014-11-15T13:39:35Z</time>
      </trkpt>
      <trkpt lat="54.52257" lon="-3.221758">
        <ele>328.0</ele>
        <time>2014-11-15T13:39:39Z</time>
      </trkpt>
      <trkpt lat="54.522575" lon="-3.221446">
        <ele>328.0</ele>
        <time>2014-11-15T13:39:43Z</time>
      </trkpt>
      <trkpt lat="54.522606" lon="-3.221335">
        <ele>329.0</ele>
        <time>2014-11-15T13:39:47Z</time>
      </trkpt>
      <trkpt lat="54.522656" lon="-3.221166">
        <ele>329.0</ele>
        <time>2014-11-15T13:39:51Z</time>
      </trkpt>
      <trkpt lat="54.522708" lon="-3.221061">
        <ele>329.0</ele>
        <time>2014-11-15T13:39:55Z</time>
      </trkpt>
      <trkpt lat="54.52272" lon="-3.220898">
        <ele>330.0</ele>
        <time>2014-11-15T13:39:59Z</time>
      </trkpt>
      <trkpt lat="54.522705" lon="-3.220686">
        <ele>331.0</ele>
        <time>2014-11-15T13:40:03Z</time>
      </trkpt>
      <trkpt lat="54.522685" lon="-3.220523">
        <ele>331.0</ele>
        <time>2014-11-15T13:40:07Z</time>
      </trkpt>
      <trkpt lat="54.522668" lon="-3.220295">
        <ele>332.0</ele>
        <time>2014-11-15T13:40:11Z</time>
      </trkpt>
      <trkpt lat="54.522673" lon="-3.220173">
        <ele>334.0</ele>
        <time>2014-11-15T13:40:15Z</time>
      </trkpt>
      <trkpt lat="54.522695" lon="-3.22003">
        <ele>335.0</ele>
        <time>2014-11-15T13:40:19Z</time>
      </trkpt>
      <trkpt lat="54.522781" lon="-3.219986">
        <ele>335.0</ele>
        <time>2014-11-15T13:40:23Z</time>
      </trkpt>
      <trkpt lat="54.522731" lon="-3.220006">
        <ele>334.0</ele>
        <time>2014-11-15T13:40:27Z</time>
      </trkpt>
      <trkpt lat="54.522753" lon="-3.220006">
        <ele>334.0</ele>
        <time>2014-11-15T13:40:31Z</time>
      </trkpt>
      <trkpt lat="54.52268" lon="-3.22006">
        <ele>334.0</ele>
        <time>2014-11-15T13:40:35Z</time>
      </trkpt>
      <trkpt lat="54.522708" lon="-3.220071">
        <ele>334.0</ele>
        <time>2014-11-15T13:40:39Z</time>
      </trkpt>
      <trkpt lat="54.522678" lon="-3.22012">
        <ele>334.0</ele>
        <time>2014-11-15T13:40:43Z</time>
      </trkpt>
      <trkpt lat="54.522726" lon="-3.220111">
        <ele>334.0</ele>
        <time>2014-11-15T13:40:47Z</time>
      </trkpt>
      <trkpt lat="54.522756" lon="-3.220075">
        <ele>335.0</ele>
        <time>2014-11-15T13:40:51Z</time>
      </trkpt>
      <trkpt lat="54.52274" lon="-3.220091">
        <ele>335.0</ele>
        <time>2014-11-15T13:40:55Z</time>
      </trkpt>
      <trkpt lat="54.52277" lon="-3.220008">
        <ele>334.0</ele>
        <time>2014-11-15T13:40:59Z</time>
      </trkpt>
      <trkpt lat="54.522806" lon="-3.219978">
        <ele>335.0</ele>
        <time>2014-11-15T13:41:03Z</time>
      </trkpt>
      <trkpt lat="54.522765" lon="-3.2199">
        <ele>335.0</ele>
        <time>2014-11-15T13:41:07Z</time>
      </trkpt>
      <trkpt lat="54.522763" lon="-3.219795">
        <ele>335.0</ele>
        <time>2014-11-15T13:41:11Z</time>
      </trkpt>
      <trkpt lat="54.52275" lon="-3.219706">
        <ele>335.0</ele>
        <time>2014-11-15T13:41:15Z</time>
      </trkpt>
      <trkpt lat="54.522715" lon="-3.219561">
        <ele>335.0</ele>
        <time>2014-11-15T13:41:19Z</time>
      </trkpt>
      <trkpt lat="54.522626" lon="-3.21944">
        <ele>334.0</ele>
        <time>2014-11-15T13:41:23Z</time>
      </trkpt>
      <trkpt lat="54.52262" lon="-3.219406">
        <ele>334.0</ele>
        <time>2014-11-15T13:41:27Z</time>
      </trkpt>
      <trkpt lat="54.522581" lon="-3.219421">
        <ele>334.0</ele>
        <time>2014-11-15T13:41:31Z</time>
      </trkpt>
      <trkpt lat="54.52262" lon="-3.21941">
        <ele>335.0</ele>
        <time>2014-11-15T13:41:35Z</time>
      </trkpt>
      <trkpt lat="54.522578" lon="-3.219441">
        <ele>334.0</ele>
        <time>2014-11-15T13:41:39Z</time>
      </trkpt>
      <trkpt lat="54.522551" lon="-3.219431">
        <ele>334.0</ele>
        <time>2014-11-15T13:41:43Z</time>
      </trkpt>
      <trkpt lat="54.52266" lon="-3.219433">
        <ele>335.0</ele>
        <time>2014-11-15T13:41:47Z</time>
      </trkpt>
      <trkpt lat="54.522665" lon="-3.219355">
        <ele>334.0</ele>
        <time>2014-11-15T13:41:51Z</time>
      </trkpt>
      <trkpt lat="54.522643" lon="-3.219308">
        <ele>335.0</ele>
        <time>2014-11-15T13:41:55Z</time>
      </trkpt>
      <trkpt lat="54.522598" lon="-3.21942">
        <ele>335.0</ele>
        <time>2014-11-15T13:41:59Z</time>
      </trkpt>
      <trkpt lat="54.522545" lon="-3.21944">
        <ele>334.0</ele>
        <time>2014-11-15T13:42:03Z</time>
      </trkpt>
      <trkpt lat="54.522503" lon="-3.21946">
        <ele>334.0</ele>
        <time>2014-11-15T13:42:07Z</time>
      </trkpt>
      <trkpt lat="54.522511" lon="-3.219503">
        <ele>335.0</ele>
        <time>2014-11-15T13:42:11Z</time>
      </trkpt>
      <trkpt lat="54.522496" lon="-3.219436">
        <ele>335.0</ele>
        <time>2014-11-15T13:42:15Z</time>
      </trkpt>
      <trkpt lat="54.522541" lon="-3.219473">
        <ele>335.0</ele>
        <time>2014-11-15T13:42:19Z</time>
      </trkpt>
      <trkpt lat="54.522633" lon="-3.219468">
        <ele>335.0</ele>
        <time>2014-11-15T13:42:23Z</time>
      </trkpt>
      <trkpt lat="54.522628" lon="-3.219541">
        <ele>335.0</ele>
        <time>2014-11-15T13:42:27Z</time>
      </trkpt>
      <trkpt lat="54.522625" lon="-3.219518">
        <ele>335.0</ele>
        <time>2014-11-15T13:42:31Z</time>
      </trkpt>
      <trkpt lat="54.522613" lon="-3.219486">
        <ele>335.0</ele>
        <time>2014-11-15T13:42:35Z</time>
      </trkpt>
      <trkpt lat="54.522566" lon="-3.219516">
        <ele>335.0</ele>
        <time>2014-11-15T13:42:39Z</time>
      </trkpt>
      <trkpt lat="54.5226" lon="-3.219361">
        <ele>334.0</ele>
        <time>2014-11-15T13:42:43Z</time>
      </trkpt>
      <trkpt lat="54.52259" lon="-3.219346">
        <ele>335.0</ele>
        <time>2014-11-15T13:42:47Z</time>
      </trkpt>
      <trkpt lat="54.522566" lon="-3.219328">
        <ele>335.0</ele>
        <time>2014-11-15T13:42:51Z</time>
      </trkpt>
      <trkpt lat="54.522561" lon="-3.219383">
        <ele>334.0</ele>
        <time>2014-11-15T13:42:55Z</time>
      </trkpt>
      <trkpt lat="54.52256" lon="-3.219388">
        <ele>334.0</ele>
        <time>2014-11-15T13:42:59Z</time>
      </trkpt>
      <trkpt lat="54.522571" lon="-3.219346">
        <ele>334.0</ele>
        <time>2014-11-15T13:43:03Z</time>
      </trkpt>
      <trkpt lat="54.522576" lon="-3.219353">
        <ele>335.0</ele>
        <time>2014-11-15T13:43:07Z</time>
      </trkpt>
      <trkpt lat="54.52256" lon="-3.219411">
        <ele>335.0</ele>
        <time>2014-11-15T13:43:11Z</time>
      </trkpt>
      <trkpt lat="54.522573" lon="-3.219388">
        <ele>335.0</ele>
        <time>2014-11-15T13:43:15Z</time>
      </trkpt>
      <trkpt lat="54.522548" lon="-3.219395">
        <ele>334.0</ele>
        <time>2014-11-15T13:43:19Z</time>
      </trkpt>
      <trkpt lat="54.52253" lon="-3.219406">
        <ele>334.0</ele>
        <time>2014-11-15T13:43:23Z</time>
      </trkpt>
      <trkpt lat="54.522513" lon="-3.219405">
        <ele>335.0</ele>
        <time>2014-11-15T13:43:27Z</time>
      </trkpt>
      <trkpt lat="54.522475" lon="-3.219455">
        <ele>334.0</ele>
        <time>2014-11-15T13:43:31Z</time>
      </trkpt>
      <trkpt lat="54.522481" lon="-3.219411">
        <ele>335.0</ele>
        <time>2014-11-15T13:43:35Z</time>
      </trkpt>
      <trkpt lat="54.52256" lon="-3.219458">
        <ele>335.0</ele>
        <time>2014-11-15T13:43:39Z</time>
      </trkpt>
      <trkpt lat="54.52255" lon="-3.219398">
        <ele>335.0</ele>
        <time>2014-11-15T13:43:43Z</time>
      </trkpt>
      <trkpt lat="54.522545" lon="-3.21926">
        <ele>335.0</ele>
        <time>2014-11-15T13:43:47Z</time>
      </trkpt>
      <trkpt lat="54.522498" lon="-3.219123">
        <ele>335.0</ele>
        <time>2014-11-15T13:43:51Z</time>
      </trkpt>
      <trkpt lat="54.522446" lon="-3.218978">
        <ele>335.0</ele>
        <time>2014-11-15T13:43:55Z</time>
      </trkpt>
      <trkpt lat="54.522386" lon="-3.218853">
        <ele>336.0</ele>
        <time>2014-11-15T13:43:59Z</time>
      </trkpt>
      <trkpt lat="54.522346" lon="-3.218658">
        <ele>337.0</ele>
        <time>2014-11-15T13:44:03Z</time>
      </trkpt>
      <trkpt lat="54.522296" lon="-3.218448">
        <ele>337.0</ele>
        <time>2014-11-15T13:44:07Z</time>
      </trkpt>
      <trkpt lat="54.522215" lon="-3.218316">
        <ele>337.0</ele>
        <time>2014-11-15T13:44:11Z</time>
      </trkpt>
      <trkpt lat="54.522133" lon="-3.21819">
        <ele>338.0</ele>
        <time>2014-11-15T13:44:15Z</time>
      </trkpt>
      <trkpt lat="54.52205" lon="-3.21803">
        <ele>339.0</ele>
        <time>2014-11-15T13:44:19Z</time>
      </trkpt>
      <trkpt lat="54.522018" lon="-3.217871">
        <ele>339.0</ele>
        <time>2014-11-15T13:44:23Z</time>
      </trkpt>
      <trkpt lat="54.522031" lon="-3.217748">
        <ele>340.0</ele>
        <time>2014-11-15T13:44:27Z</time>
      </trkpt>
      <trkpt lat="54.522011" lon="-3.217616">
        <ele>341.0</ele>
        <time>2014-11-15T13:44:31Z</time>
      </trkpt>
      <trkpt lat="54.522003" lon="-3.217435">
        <ele>342.0</ele>
        <time>2014-11-15T13:44:35Z</time>
      </trkpt>
      <trkpt lat="54.521948" lon="-3.217341">
        <ele>343.0</ele>
        <time>2014-11-15T13:44:39Z</time>
      </trkpt>
      <trkpt lat="54.521921" lon="-3.217225">
        <ele>344.0</ele>
        <time>2014-11-15T13:44:43Z</time>
      </trkpt>
      <trkpt lat="54.521816" lon="-3.217083">
        <ele>345.0</ele>
        <time>2014-11-15T13:44:47Z</time>
      </trkpt>
      <trkpt lat="54.521738" lon="-3.216935">
        <ele>346.0</ele>
        <time>2014-11-15T13:44:51Z</time>
      </trkpt>
      <trkpt lat="54.521691" lon="-3.21677">
        <ele>346.0</ele>
        <time>2014-11-15T13:44:55Z</time>
      </trkpt>
      <trkpt lat="54.521598" lon="-3.216608">
        <ele>347.0</ele>
        <time>2014-11-15T13:44:59Z</time>
      </trkpt>
      <trkpt lat="54.52154" lon="-3.21646">
        <ele>347.0</ele>
        <time>2014-11-15T13:45:03Z</time>
      </trkpt>
      <trkpt lat="54.521465" lon="-3.216326">
        <ele>348.0</ele>
        <time>2014-11-15T13:45:07Z</time>
      </trkpt>
      <trkpt lat="54.521375" lon="-3.216141">
        <ele>348.0</ele>
        <time>2014-11-15T13:45:11Z</time>
      </trkpt>
      <trkpt lat="54.521281" lon="-3.215948">
        <ele>349.0</ele>
        <time>2014-11-15T13:45:15Z</time>
      </trkpt>
      <trkpt lat="54.521155" lon="-3.215861">
        <ele>349.0</ele>
        <time>2014-11-15T13:45:19Z</time>
      </trkpt>
      <trkpt lat="54.521075" lon="-3.215691">
        <ele>349.0</ele>
        <time>2014-11-15T13:45:23Z</time>
      </trkpt>
      <trkpt lat="54.521015" lon="-3.215485">
        <ele>350.0</ele>
        <time>2014-11-15T13:45:27Z</time>
      </trkpt>
      <trkpt lat="54.520916" lon="-3.215285">
        <ele>351.0</ele>
        <time>2014-11-15T13:45:31Z</time>
      </trkpt>
      <trkpt lat="54.520875" lon="-3.215163">
        <ele>352.0</ele>
        <time>2014-11-15T13:45:35Z</time>
      </trkpt>
      <trkpt lat="54.520806" lon="-3.215055">
        <ele>352.0</ele>
        <time>2014-11-15T13:45:39Z</time>
      </trkpt>
      <trkpt lat="54.5207" lon="-3.214878">
        <ele>353.0</ele>
        <time>2014-11-15T13:45:43Z</time>
      </trkpt>
      <trkpt lat="54.520603" lon="-3.214746">
        <ele>353.0</ele>
        <time>2014-11-15T13:45:47Z</time>
      </trkpt>
      <trkpt lat="54.520531" lon="-3.214635">
        <ele>354.0</ele>
        <time>2014-11-15T13:45:51Z</time>
      </trkpt>
      <trkpt lat="54.520411" lon="-3.214516">
        <ele>355.0</ele>
        <time>2014-11-15T13:45:55Z</time>
      </trkpt>
      <trkpt lat="54.520323" lon="-3.21435">
        <ele>356.0</ele>
        <time>2014-11-15T13:45:59Z</time>
      </trkpt>
      <trkpt lat="54.520303" lon="-3.214186">
        <ele>356.0</ele>
        <time>2014-11-15T13:46:03Z</time>
      </trkpt>
      <trkpt lat="54.52026" lon="-3.214035">
        <ele>357.0</ele>
        <time>2014-11-15T13:46:07Z</time>
      </trkpt>
      <trkpt lat="54.520236" lon="-3.213841">
        <ele>358.0</ele>
        <time>2014-11-15T13:46:11Z</time>
      </trkpt>
      <trkpt lat="54.52018" lon="-3.213776">
        <ele>359.0</ele>
        <time>2014-11-15T13:46:15Z</time>
      </trkpt>
      <trkpt lat="54.520108" lon="-3.213623">
        <ele>360.0</ele>
        <time>2014-11-15T13:46:19Z</time>
      </trkpt>
      <trkpt lat="54.520023" lon="-3.213545">
        <ele>361.0</ele>
        <time>2014-11-15T13:46:23Z</time>
      </trkpt>
      <trkpt lat="54.519978" lon="-3.21339">
        <ele>362.0</ele>
        <time>2014-11-15T13:46:27Z</time>
      </trkpt>
      <trkpt lat="54.519916" lon="-3.213283">
        <ele>363.0</ele>
        <time>2014-11-15T13:46:31Z</time>
      </trkpt>
      <trkpt lat="54.519905" lon="-3.213091">
        <ele>364.0</ele>
        <time>2014-11-15T13:46:35Z</time>
      </trkpt>
      <trkpt lat="54.519861" lon="-3.212988">
        <ele>366.0</ele>
        <time>2014-11-15T13:46:39Z</time>
      </trkpt>
      <trkpt lat="54.519778" lon="-3.212906">
        <ele>367.0</ele>
        <time>2014-11-15T13:46:43Z</time>
      </trkpt>
      <trkpt lat="54.519723" lon="-3.212788">
        <ele>367.0</ele>
        <time>2014-11-15T13:46:47Z</time>
      </trkpt>
      <trkpt lat="54.519615" lon="-3.212656">
        <ele>368.0</ele>
        <time>2014-11-15T13:46:51Z</time>
      </trkpt>
      <trkpt lat="54.519571" lon="-3.21252">
        <ele>369.0</ele>
        <time>2014-11-15T13:46:55Z</time>
      </trkpt>
      <trkpt lat="54.519538" lon="-3.212411">
        <ele>370.0</ele>
        <time>2014-11-15T13:46:59Z</time>
      </trkpt>
      <trkpt lat="54.519503" lon="-3.21231">
        <ele>371.0</ele>
        <time>2014-11-15T13:47:03Z</time>
      </trkpt>
      <trkpt lat="54.519428" lon="-3.212233">
        <ele>372.0</ele>
        <time>2014-11-15T13:47:07Z</time>
      </trkpt>
      <trkpt lat="54.519318" lon="-3.212028">
        <ele>373.0</ele>
        <time>2014-11-15T13:47:11Z</time>
      </trkpt>
      <trkpt lat="54.519248" lon="-3.211883">
        <ele>374.0</ele>
        <time>2014-11-15T13:47:15Z</time>
      </trkpt>
      <trkpt lat="54.519216" lon="-3.211706">
        <ele>374.0</ele>
        <time>2014-11-15T13:47:19Z</time>
      </trkpt>
      <trkpt lat="54.519133" lon="-3.211645">
        <ele>376.0</ele>
        <time>2014-11-15T13:47:23Z</time>
      </trkpt>
      <trkpt lat="54.51908" lon="-3.211573">
        <ele>377.0</ele>
        <time>2014-11-15T13:47:27Z</time>
      </trkpt>
      <trkpt lat="54.519005" lon="-3.211475">
        <ele>377.0</ele>
        <time>2014-11-15T13:47:31Z</time>
      </trkpt>
      <trkpt lat="54.51889" lon="-3.211361">
        <ele>377.0</ele>
        <time>2014-11-15T13:47:35Z</time>
      </trkpt>
      <trkpt lat="54.518813" lon="-3.211341">
        <ele>378.0</ele>
        <time>2014-11-15T13:47:39Z</time>
      </trkpt>
      <trkpt lat="54.518683" lon="-3.211216">
        <ele>378.0</ele>
        <time>2014-11-15T13:47:43Z</time>
      </trkpt>
      <trkpt lat="54.518613" lon="-3.211155">
        <ele>379.0</ele>
        <time>2014-11-15T13:47:47Z</time>
      </trkpt>
      <trkpt lat="54.518521" lon="-3.211073">
        <ele>380.0</ele>
        <time>2014-11-15T13:47:51Z</time>
      </trkpt>
      <trkpt lat="54.518498" lon="-3.210961">
        <ele>381.0</ele>
        <time>2014-11-15T13:47:55Z</time>
      </trkpt>
      <trkpt lat="54.518443" lon="-3.210838">
        <ele>382.0</ele>
        <time>2014-11-15T13:47:59Z</time>
      </trkpt>
      <trkpt lat="54.518391" lon="-3.210736">
        <ele>383.0</ele>
        <time>2014-11-15T13:48:03Z</time>
      </trkpt>
      <trkpt lat="54.51833" lon="-3.2107">
        <ele>385.0</ele>
        <time>2014-11-15T13:48:07Z</time>
      </trkpt>
      <trkpt lat="54.518251" lon="-3.210603">
        <ele>385.0</ele>
        <time>2014-11-15T13:48:11Z</time>
      </trkpt>
      <trkpt lat="54.518173" lon="-3.210466">
        <ele>386.0</ele>
        <time>2014-11-15T13:48:15Z</time>
      </trkpt>
      <trkpt lat="54.5181" lon="-3.210376">
        <ele>387.0</ele>
        <time>2014-11-15T13:48:19Z</time>
      </trkpt>
      <trkpt lat="54.518011" lon="-3.210231">
        <ele>387.0</ele>
        <time>2014-11-15T13:48:23Z</time>
      </trkpt>
      <trkpt lat="54.517933" lon="-3.210108">
        <ele>388.0</ele>
        <time>2014-11-15T13:48:27Z</time>
      </trkpt>
      <trkpt lat="54.517843" lon="-3.209988">
        <ele>388.0</ele>
        <time>2014-11-15T13:48:31Z</time>
      </trkpt>
      <trkpt lat="54.51777" lon="-3.209878">
        <ele>389.0</ele>
        <time>2014-11-15T13:48:35Z</time>
      </trkpt>
      <trkpt lat="54.517726" lon="-3.20974">
        <ele>390.0</ele>
        <time>2014-11-15T13:48:39Z</time>
      </trkpt>
      <trkpt lat="54.517713" lon="-3.209591">
        <ele>390.0</ele>
        <time>2014-11-15T13:48:43Z</time>
      </trkpt>
      <trkpt lat="54.517631" lon="-3.209518">
        <ele>391.0</ele>
        <time>2014-11-15T13:48:47Z</time>
      </trkpt>
      <trkpt lat="54.51754" lon="-3.209403">
        <ele>391.0</ele>
        <time>2014-11-15T13:48:51Z</time>
      </trkpt>
      <trkpt lat="54.517481" lon="-3.209265">
        <ele>392.0</ele>
        <time>2014-11-15T13:48:55Z</time>
      </trkpt>
      <trkpt lat="54.517421" lon="-3.209138">
        <ele>393.0</ele>
        <time>2014-11-15T13:48:59Z</time>
      </trkpt>
      <trkpt lat="54.51735" lon="-3.20905">
        <ele>394.0</ele>
        <time>2014-11-15T13:49:03Z</time>
      </trkpt>
      <trkpt lat="54.517326" lon="-3.208878">
        <ele>395.0</ele>
        <time>2014-11-15T13:49:07Z</time>
      </trkpt>
      <trkpt lat="54.517281" lon="-3.208733">
        <ele>396.0</ele>
        <time>2014-11-15T13:49:11Z</time>
      </trkpt>
      <trkpt lat="54.51725" lon="-3.208588">
        <ele>397.0</ele>
        <time>2014-11-15T13:49:15Z</time>
      </trkpt>
      <trkpt lat="54.51722" lon="-3.208501">
        <ele>397.0</ele>
        <time>2014-11-15T13:49:19Z</time>
      </trkpt>
      <trkpt lat="54.517136" lon="-3.208423">
        <ele>398.0</ele>
        <time>2014-11-15T13:49:23Z</time>
      </trkpt>
      <trkpt lat="54.517055" lon="-3.208388">
        <ele>399.0</ele>
        <time>2014-11-15T13:49:27Z</time>
      </trkpt>
      <trkpt lat="54.516935" lon="-3.208465">
        <ele>399.0</ele>
        <time>2014-11-15T13:49:31Z</time>
      </trkpt>
      <trkpt lat="54.516756" lon="-3.208465">
        <ele>399.0</ele>
        <time>2014-11-15T13:49:35Z</time>
      </trkpt>
      <trkpt lat="54.516691" lon="-3.208405">
        <ele>399.0</ele>
        <time>2014-11-15T13:49:39Z</time>
      </trkpt>
      <trkpt lat="54.516655" lon="-3.208283">
        <ele>400.0</ele>
        <time>2014-11-15T13:49:43Z</time>
      </trkpt>
      <trkpt lat="54.516616" lon="-3.208135">
        <ele>401.0</ele>
        <time>2014-11-15T13:49:47Z</time>
      </trkpt>
      <trkpt lat="54.516556" lon="-3.208058">
        <ele>402.0</ele>
        <time>2014-11-15T13:49:51Z</time>
      </trkpt>
      <trkpt lat="54.516506" lon="-3.207855">
        <ele>403.0</ele>
        <time>2014-11-15T13:49:55Z</time>
      </trkpt>
      <trkpt lat="54.51641" lon="-3.20767">
        <ele>404.0</ele>
        <time>2014-11-15T13:49:59Z</time>
      </trkpt>
      <trkpt lat="54.516353" lon="-3.207513">
        <ele>405.0</ele>
        <time>2014-11-15T13:50:03Z</time>
      </trkpt>
      <trkpt lat="54.516316" lon="-3.207383">
        <ele>406.0</ele>
        <time>2014-11-15T13:50:07Z</time>
      </trkpt>
      <trkpt lat="54.51631" lon="-3.20732">
        <ele>407.0</ele>
        <time>2014-11-15T13:50:11Z</time>
      </trkpt>
      <trkpt lat="54.516321" lon="-3.207343">
        <ele>407.0</ele>
        <time>2014-11-15T13:50:15Z</time>
      </trkpt>
      <trkpt lat="54.516306" lon="-3.207466">
        <ele>408.0</ele>
        <time>2014-11-15T13:50:19Z</time>
      </trkpt>
      <trkpt lat="54.516303" lon="-3.207393">
        <ele>408.0</ele>
        <time>2014-11-15T13:50:23Z</time>
      </trkpt>
      <trkpt lat="54.516328" lon="-3.207316">
        <ele>410.0</ele>
        <time>2014-11-15T13:50:27Z</time>
      </trkpt>
      <trkpt lat="54.516278" lon="-3.207261">
        <ele>410.0</ele>
        <time>2014-11-15T13:50:31Z</time>
      </trkpt>
      <trkpt lat="54.516201" lon="-3.207215">
        <ele>411.0</ele>
        <time>2014-11-15T13:50:35Z</time>
      </trkpt>
      <trkpt lat="54.516181" lon="-3.20717">
        <ele>413.0</ele>
        <time>2014-11-15T13:50:39Z</time>
      </trkpt>
      <trkpt lat="54.516153" lon="-3.20713">
        <ele>413.0</ele>
        <time>2014-11-15T13:50:43Z</time>
      </trkpt>
      <trkpt lat="54.51618" lon="-3.20708">
        <ele>413.0</ele>
        <time>2014-11-15T13:50:47Z</time>
      </trkpt>
      <trkpt lat="54.516113" lon="-3.207023">
        <ele>414.0</ele>
        <time>2014-11-15T13:50:51Z</time>
      </trkpt>
      <trkpt lat="54.51608" lon="-3.207085">
        <ele>415.0</ele>
        <time>2014-11-15T13:50:55Z</time>
      </trkpt>
      <trkpt lat="54.516013" lon="-3.207075">
        <ele>415.0</ele>
        <time>2014-11-15T13:50:59Z</time>
      </trkpt>
      <trkpt lat="54.516015" lon="-3.207025">
        <ele>417.0</ele>
        <time>2014-11-15T13:51:03Z</time>
      </trkpt>
      <trkpt lat="54.516015" lon="-3.206983">
        <ele>418.0</ele>
        <time>2014-11-15T13:51:07Z</time>
      </trkpt>
      <trkpt lat="54.51593" lon="-3.206985">
        <ele>419.0</ele>
        <time>2014-11-15T13:51:11Z</time>
      </trkpt>
      <trkpt lat="54.515928" lon="-3.20695">
        <ele>419.0</ele>
        <time>2014-11-15T13:51:15Z</time>
      </trkpt>
      <trkpt lat="54.515928" lon="-3.206941">
        <ele>419.0</ele>
        <time>2014-11-15T13:51:19Z</time>
      </trkpt>
      <trkpt lat="54.515906" lon="-3.206965">
        <ele>420.0</ele>
        <time>2014-11-15T13:51:23Z</time>
      </trkpt>
      <trkpt lat="54.515908" lon="-3.206856">
        <ele>421.0</ele>
        <time>2014-11-15T13:51:27Z</time>
      </trkpt>
      <trkpt lat="54.51593" lon="-3.206793">
        <ele>422.0</ele>
        <time>2014-11-15T13:51:31Z</time>
      </trkpt>
      <trkpt lat="54.515866" lon="-3.206733">
        <ele>422.0</ele>
        <time>2014-11-15T13:51:35Z</time>
      </trkpt>
      <trkpt lat="54.515826" lon="-3.20666">
        <ele>423.0</ele>
        <time>2014-11-15T13:51:39Z</time>
      </trkpt>
      <trkpt lat="54.515835" lon="-3.206601">
        <ele>424.0</ele>
        <time>2014-11-15T13:51:43Z</time>
      </trkpt>
      <trkpt lat="54.515801" lon="-3.206565">
        <ele>425.0</ele>
        <time>2014-11-15T13:51:47Z</time>
      </trkpt>
      <trkpt lat="54.515763" lon="-3.20642">
        <ele>425.0</ele>
        <time>2014-11-15T13:51:51Z</time>
      </trkpt>
      <trkpt lat="54.51576" lon="-3.20637">
        <ele>426.0</ele>
        <time>2014-11-15T13:51:55Z</time>
      </trkpt>
      <trkpt lat="54.51575" lon="-3.206281">
        <ele>427.0</ele>
        <time>2014-11-15T13:51:59Z</time>
      </trkpt>
      <trkpt lat="54.51571" lon="-3.206213">
        <ele>427.0</ele>
        <time>2014-11-15T13:52:03Z</time>
      </trkpt>
      <trkpt lat="54.515666" lon="-3.206191">
        <ele>428.0</ele>
        <time>2014-11-15T13:52:07Z</time>
      </trkpt>
      <trkpt lat="54.515661" lon="-3.206183">
        <ele>429.0</ele>
        <time>2014-11-15T13:52:11Z</time>
      </trkpt>
      <trkpt lat="54.515628" lon="-3.206135">
        <ele>429.0</ele>
        <time>2014-11-15T13:52:15Z</time>
      </trkpt>
      <trkpt lat="54.5156" lon="-3.206086">
        <ele>429.0</ele>
        <time>2014-11-15T13:52:19Z</time>
      </trkpt>
      <trkpt lat="54.51566" lon="-3.205961">
        <ele>430.0</ele>
        <time>2014-11-15T13:52:23Z</time>
      </trkpt>
      <trkpt lat="54.515633" lon="-3.205886">
        <ele>431.0</ele>
        <time>2014-11-15T13:52:27Z</time>
      </trkpt>
      <trkpt lat="54.51559" lon="-3.205856">
        <ele>432.0</ele>
        <time>2014-11-15T13:52:31Z</time>
      </trkpt>
      <trkpt lat="54.515551" lon="-3.20577">
        <ele>433.0</ele>
        <time>2014-11-15T13:52:35Z</time>
      </trkpt>
      <trkpt lat="54.515488" lon="-3.205713">
        <ele>433.0</ele>
        <time>2014-11-15T13:52:39Z</time>
      </trkpt>
      <trkpt lat="54.515455" lon="-3.205685">
        <ele>434.0</ele>
        <time>2014-11-15T13:52:43Z</time>
      </trkpt>
      <trkpt lat="54.515395" lon="-3.205641">
        <ele>435.0</ele>
        <time>2014-11-15T13:52:47Z</time>
      </trkpt>
      <trkpt lat="54.515445" lon="-3.20557">
        <ele>436.0</ele>
        <time>2014-11-15T13:52:51Z</time>
      </trkpt>
      <trkpt lat="54.515453" lon="-3.20558">
        <ele>436.0</ele>
        <time>2014-11-15T13:52:55Z</time>
      </trkpt>
      <trkpt lat="54.515433" lon="-3.205551">
        <ele>436.0</ele>
        <time>2014-11-15T13:52:59Z</time>
      </trkpt>
      <trkpt lat="54.515423" lon="-3.205476">
        <ele>437.0</ele>
        <time>2014-11-15T13:53:03Z</time>
      </trkpt>
      <trkpt lat="54.515431" lon="-3.205418">
        <ele>438.0</ele>
        <time>2014-11-15T13:53:07Z</time>
      </trkpt>
      <trkpt lat="54.515358" lon="-3.205383">
        <ele>439.0</ele>
        <time>2014-11-15T13:53:11Z</time>
      </trkpt>
      <trkpt lat="54.515278" lon="-3.20537">
        <ele>440.0</ele>
        <time>2014-11-15T13:53:15Z</time>
      </trkpt>
      <trkpt lat="54.51528" lon="-3.205351">
        <ele>441.0</ele>
        <time>2014-11-15T13:53:19Z</time>
      </trkpt>
      <trkpt lat="54.515241" lon="-3.205305">
        <ele>442.0</ele>
        <time>2014-11-15T13:53:23Z</time>
      </trkpt>
      <trkpt lat="54.51523" lon="-3.205243">
        <ele>443.0</ele>
        <time>2014-11-15T13:53:27Z</time>
      </trkpt>
      <trkpt lat="54.515238" lon="-3.205213">
        <ele>443.0</ele>
        <time>2014-11-15T13:53:31Z</time>
      </trkpt>
      <trkpt lat="54.515208" lon="-3.2052">
        <ele>443.0</ele>
        <time>2014-11-15T13:53:35Z</time>
      </trkpt>
      <trkpt lat="54.51521" lon="-3.205125">
        <ele>443.0</ele>
        <time>2014-11-15T13:53:39Z</time>
      </trkpt>
      <trkpt lat="54.515165" lon="-3.205083">
        <ele>443.0</ele>
        <time>2014-11-15T13:53:43Z</time>
      </trkpt>
      <trkpt lat="54.515165" lon="-3.205036">
        <ele>444.0</ele>
        <time>2014-11-15T13:53:47Z</time>
      </trkpt>
      <trkpt lat="54.515116" lon="-3.204968">
        <ele>444.0</ele>
        <time>2014-11-15T13:53:51Z</time>
      </trkpt>
      <trkpt lat="54.515055" lon="-3.204901">
        <ele>444.0</ele>
        <time>2014-11-15T13:53:55Z</time>
      </trkpt>
      <trkpt lat="54.515021" lon="-3.204858">
        <ele>445.0</ele>
        <time>2014-11-15T13:53:59Z</time>
      </trkpt>
      <trkpt lat="54.515015" lon="-3.204763">
        <ele>446.0</ele>
        <time>2014-11-15T13:54:03Z</time>
      </trkpt>
      <trkpt lat="54.514976" lon="-3.204685">
        <ele>447.0</ele>
        <time>2014-11-15T13:54:07Z</time>
      </trkpt>
      <trkpt lat="54.514948" lon="-3.204653">
        <ele>447.0</ele>
        <time>2014-11-15T13:54:11Z</time>
      </trkpt>
      <trkpt lat="54.514896" lon="-3.204598">
        <ele>448.0</ele>
        <time>2014-11-15T13:54:15Z</time>
      </trkpt>
      <trkpt lat="54.514811" lon="-3.204563">
        <ele>449.0</ele>
        <time>2014-11-15T13:54:19Z</time>
      </trkpt>
      <trkpt lat="54.514796" lon="-3.204456">
        <ele>449.0</ele>
        <time>2014-11-15T13:54:23Z</time>
      </trkpt>
      <trkpt lat="54.514826" lon="-3.204341">
        <ele>450.0</ele>
        <time>2014-11-15T13:54:27Z</time>
      </trkpt>
      <trkpt lat="54.514788" lon="-3.20426">
        <ele>450.0</ele>
        <time>2014-11-15T13:54:31Z</time>
      </trkpt>
      <trkpt lat="54.514736" lon="-3.204203">
        <ele>450.0</ele>
        <time>2014-11-15T13:54:35Z</time>
      </trkpt>
      <trkpt lat="54.514721" lon="-3.204146">
        <ele>451.0</ele>
        <time>2014-11-15T13:54:39Z</time>
      </trkpt>
      <trkpt lat="54.514703" lon="-3.204138">
        <ele>451.0</ele>
        <time>2014-11-15T13:54:43Z</time>
      </trkpt>
      <trkpt lat="54.514655" lon="-3.204095">
        <ele>452.0</ele>
        <time>2014-11-15T13:54:47Z</time>
      </trkpt>
      <trkpt lat="54.514573" lon="-3.203998">
        <ele>453.0</ele>
        <time>2014-11-15T13:54:51Z</time>
      </trkpt>
      <trkpt lat="54.514565" lon="-3.20389">
        <ele>453.0</ele>
        <time>2014-11-15T13:54:55Z</time>
      </trkpt>
      <trkpt lat="54.51451" lon="-3.20383">
        <ele>453.0</ele>
        <time>2014-11-15T13:54:59Z</time>
      </trkpt>
      <trkpt lat="54.514473" lon="-3.20382">
        <ele>454.0</ele>
        <time>2014-11-15T13:55:03Z</time>
      </trkpt>
      <trkpt lat="54.514408" lon="-3.203826">
        <ele>455.0</ele>
        <time>2014-11-15T13:55:07Z</time>
      </trkpt>
      <trkpt lat="54.514448" lon="-3.203666">
        <ele>456.0</ele>
        <time>2014-11-15T13:55:11Z</time>
      </trkpt>
      <trkpt lat="54.514413" lon="-3.203645">
        <ele>457.0</ele>
        <time>2014-11-15T13:55:15Z</time>
      </trkpt>
      <trkpt lat="54.51439" lon="-3.203588">
        <ele>457.0</ele>
        <time>2014-11-15T13:55:19Z</time>
      </trkpt>
      <trkpt lat="54.514335" lon="-3.203556">
        <ele>458.0</ele>
        <time>2014-11-15T13:55:23Z</time>
      </trkpt>
      <trkpt lat="54.514276" lon="-3.20351">
        <ele>459.0</ele>
        <time>2014-11-15T13:55:27Z</time>
      </trkpt>
      <trkpt lat="54.514258" lon="-3.203445">
        <ele>460.0</ele>
        <time>2014-11-15T13:55:31Z</time>
      </trkpt>
      <trkpt lat="54.514235" lon="-3.203396">
        <ele>460.0</ele>
        <time>2014-11-15T13:55:35Z</time>
      </trkpt>
      <trkpt lat="54.514216" lon="-3.203353">
        <ele>461.0</ele>
        <time>2014-11-15T13:55:39Z</time>
      </trkpt>
      <trkpt lat="54.514205" lon="-3.203291">
        <ele>462.0</ele>
        <time>2014-11-15T13:55:43Z</time>
      </trkpt>
      <trkpt lat="54.514171" lon="-3.203228">
        <ele>462.0</ele>
        <time>2014-11-15T13:55:47Z</time>
      </trkpt>
      <trkpt lat="54.514186" lon="-3.203185">
        <ele>463.0</ele>
        <time>2014-11-15T13:55:51Z</time>
      </trkpt>
      <trkpt lat="54.514185" lon="-3.20317">
        <ele>463.0</ele>
        <time>2014-11-15T13:55:55Z</time>
      </trkpt>
      <trkpt lat="54.514198" lon="-3.203155">
        <ele>463.0</ele>
        <time>2014-11-15T13:55:59Z</time>
      </trkpt>
      <trkpt lat="54.514125" lon="-3.203216">
        <ele>463.0</ele>
        <time>2014-11-15T13:56:03Z</time>
      </trkpt>
      <trkpt lat="54.514116" lon="-3.203196">
        <ele>463.0</ele>
        <time>2014-11-15T13:56:07Z</time>
      </trkpt>
      <trkpt lat="54.514108" lon="-3.203138">
        <ele>463.0</ele>
        <time>2014-11-15T13:56:11Z</time>
      </trkpt>
      <trkpt lat="54.514093" lon="-3.20309">
        <ele>464.0</ele>
        <time>2014-11-15T13:56:15Z</time>
      </trkpt>
      <trkpt lat="54.514056" lon="-3.203008">
        <ele>464.0</ele>
        <time>2014-11-15T13:56:19Z</time>
      </trkpt>
      <trkpt lat="54.514075" lon="-3.202983">
        <ele>466.0</ele>
        <time>2014-11-15T13:56:23Z</time>
      </trkpt>
      <trkpt lat="54.51409" lon="-3.202946">
        <ele>466.0</ele>
        <time>2014-11-15T13:56:27Z</time>
      </trkpt>
      <trkpt lat="54.51412" lon="-3.202841">
        <ele>467.0</ele>
        <time>2014-11-15T13:56:31Z</time>
      </trkpt>
      <trkpt lat="54.514098" lon="-3.202763">
        <ele>468.0</ele>
        <time>2014-11-15T13:56:35Z</time>
      </trkpt>
      <trkpt lat="54.514071" lon="-3.202715">
        <ele>469.0</ele>
        <time>2014-11-15T13:56:39Z</time>
      </trkpt>
      <trkpt lat="54.51401" lon="-3.202693">
        <ele>470.0</ele>
        <time>2014-11-15T13:56:43Z</time>
      </trkpt>
      <trkpt lat="54.513993" lon="-3.20269">
        <ele>471.0</ele>
        <time>2014-11-15T13:56:47Z</time>
      </trkpt>
      <trkpt lat="54.513973" lon="-3.20266">
        <ele>472.0</ele>
        <time>2014-11-15T13:56:51Z</time>
      </trkpt>
      <trkpt lat="54.513965" lon="-3.202608">
        <ele>472.0</ele>
        <time>2014-11-15T13:56:55Z</time>
      </trkpt>
      <trkpt lat="54.51398" lon="-3.202558">
        <ele>472.0</ele>
        <time>2014-11-15T13:56:59Z</time>
      </trkpt>
      <trkpt lat="54.513948" lon="-3.20251">
        <ele>473.0</ele>
        <time>2014-11-15T13:57:03Z</time>
      </trkpt>
      <trkpt lat="54.513933" lon="-3.202533">
        <ele>474.0</ele>
        <time>2014-11-15T13:57:07Z</time>
      </trkpt>
      <trkpt lat="54.513886" lon="-3.202465">
        <ele>475.0</ele>
        <time>2014-11-15T13:57:11Z</time>
      </trkpt>
      <trkpt lat="54.51379" lon="-3.20242">
        <ele>476.0</ele>
        <time>2014-11-15T13:57:15Z</time>
      </trkpt>
      <trkpt lat="54.51386" lon="-3.202416">
        <ele>476.0</ele>
        <time>2014-11-15T13:57:19Z</time>
      </trkpt>
      <trkpt lat="54.51389" lon="-3.202458">
        <ele>477.0</ele>
        <time>2014-11-15T13:57:23Z</time>
      </trkpt>
      <trkpt lat="54.513871" lon="-3.202406">
        <ele>477.0</ele>
        <time>2014-11-15T13:57:27Z</time>
      </trkpt>
      <trkpt lat="54.51385" lon="-3.202365">
        <ele>478.0</ele>
        <time>2014-11-15T13:57:31Z</time>
      </trkpt>
      <trkpt lat="54.513836" lon="-3.20234">
        <ele>478.0</ele>
        <time>2014-11-15T13:57:35Z</time>
      </trkpt>
      <trkpt lat="54.513778" lon="-3.202293">
        <ele>479.0</ele>
        <time>2014-11-15T13:57:39Z</time>
      </trkpt>
      <trkpt lat="54.513743" lon="-3.202255">
        <ele>480.0</ele>
        <time>2014-11-15T13:57:43Z</time>
      </trkpt>
      <trkpt lat="54.513708" lon="-3.202181">
        <ele>481.0</ele>
        <time>2014-11-15T13:57:47Z</time>
      </trkpt>
      <trkpt lat="54.513715" lon="-3.20217">
        <ele>482.0</ele>
        <time>2014-11-15T13:57:51Z</time>
      </trkpt>
      <trkpt lat="54.513665" lon="-3.202156">
        <ele>482.0</ele>
        <time>2014-11-15T13:57:55Z</time>
      </trkpt>
      <trkpt lat="54.513615" lon="-3.202155">
        <ele>482.0</ele>
        <time>2014-11-15T13:57:59Z</time>
      </trkpt>
      <trkpt lat="54.513595" lon="-3.202161">
        <ele>484.0</ele>
        <time>2014-11-15T13:58:03Z</time>
      </trkpt>
      <trkpt lat="54.51359" lon="-3.202155">
        <ele>484.0</ele>
        <time>2014-11-15T13:58:07Z</time>
      </trkpt>
      <trkpt lat="54.513523" lon="-3.202158">
        <ele>485.0</ele>
        <time>2014-11-15T13:58:11Z</time>
      </trkpt>
      <trkpt lat="54.513471" lon="-3.202068">
        <ele>486.0</ele>
        <time>2014-11-15T13:58:15Z</time>
      </trkpt>
      <trkpt lat="54.51337" lon="-3.202068">
        <ele>487.0</ele>
        <time>2014-11-15T13:58:19Z</time>
      </trkpt>
      <trkpt lat="54.513383" lon="-3.202013">
        <ele>487.0</ele>
        <time>2014-11-15T13:58:23Z</time>
      </trkpt>
      <trkpt lat="54.513405" lon="-3.201976">
        <ele>488.0</ele>
        <time>2014-11-15T13:58:27Z</time>
      </trkpt>
      <trkpt lat="54.513415" lon="-3.201968">
        <ele>490.0</ele>
        <time>2014-11-15T13:58:31Z</time>
      </trkpt>
      <trkpt lat="54.513315" lon="-3.202026">
        <ele>490.0</ele>
        <time>2014-11-15T13:58:35Z</time>
      </trkpt>
      <trkpt lat="54.513111" lon="-3.202078">
        <ele>491.0</ele>
        <time>2014-11-15T13:58:39Z</time>
      </trkpt>
      <trkpt lat="54.513103" lon="-3.202016">
        <ele>492.0</ele>
        <time>2014-11-15T13:58:43Z</time>
      </trkpt>
      <trkpt lat="54.513143" lon="-3.201961">
        <ele>492.0</ele>
        <time>2014-11-15T13:58:47Z</time>
      </trkpt>
      <trkpt lat="54.513086" lon="-3.20199">
        <ele>492.0</ele>
        <time>2014-11-15T13:58:51Z</time>
      </trkpt>
      <trkpt lat="54.513071" lon="-3.201881">
        <ele>492.0</ele>
        <time>2014-11-15T13:58:55Z</time>
      </trkpt>
      <trkpt lat="54.513345" lon="-3.201678">
        <ele>493.0</ele>
        <time>2014-11-15T13:58:59Z</time>
      </trkpt>
      <trkpt lat="54.5133" lon="-3.201623">
        <ele>493.0</ele>
        <time>2014-11-15T13:59:03Z</time>
      </trkpt>
      <trkpt lat="54.513273" lon="-3.201578">
        <ele>494.0</ele>
        <time>2014-11-15T13:59:07Z</time>
      </trkpt>
      <trkpt lat="54.513263" lon="-3.20153">
        <ele>495.0</ele>
        <time>2014-11-15T13:59:11Z</time>
      </trkpt>
      <trkpt lat="54.513201" lon="-3.201518">
        <ele>495.0</ele>
        <time>2014-11-15T13:59:15Z</time>
      </trkpt>
      <trkpt lat="54.51317" lon="-3.201491">
        <ele>496.0</ele>
        <time>2014-11-15T13:59:19Z</time>
      </trkpt>
      <trkpt lat="54.513108" lon="-3.201431">
        <ele>497.0</ele>
        <time>2014-11-15T13:59:23Z</time>
      </trkpt>
      <trkpt lat="54.513118" lon="-3.20145">
        <ele>497.0</ele>
        <time>2014-11-15T13:59:27Z</time>
      </trkpt>
      <trkpt lat="54.513091" lon="-3.201461">
        <ele>497.0</ele>
        <time>2014-11-15T13:59:31Z</time>
      </trkpt>
      <trkpt lat="54.513083" lon="-3.20143">
        <ele>497.0</ele>
        <time>2014-11-15T13:59:35Z</time>
      </trkpt>
      <trkpt lat="54.513045" lon="-3.201448">
        <ele>498.0</ele>
        <time>2014-11-15T13:59:39Z</time>
      </trkpt>
      <trkpt lat="54.512921" lon="-3.201478">
        <ele>498.0</ele>
        <time>2014-11-15T13:59:43Z</time>
      </trkpt>
      <trkpt lat="54.51303" lon="-3.201271">
        <ele>499.0</ele>
        <time>2014-11-15T13:59:47Z</time>
      </trkpt>
      <trkpt lat="54.512978" lon="-3.201273">
        <ele>500.0</ele>
        <time>2014-11-15T13:59:51Z</time>
      </trkpt>
      <trkpt lat="54.512936" lon="-3.201248">
        <ele>501.0</ele>
        <time>2014-11-15T13:59:55Z</time>
      </trkpt>
      <trkpt lat="54.512866" lon="-3.20118">
        <ele>501.0</ele>
        <time>2014-11-15T13:59:59Z</time>
      </trkpt>
      <trkpt lat="54.512855" lon="-3.201095">
        <ele>502.0</ele>
        <time>2014-11-15T14:00:03Z</time>
      </trkpt>
      <trkpt lat="54.512816" lon="-3.20109">
        <ele>502.0</ele>
        <time>2014-11-15T14:00:07Z</time>
      </trkpt>
      <trkpt lat="54.512788" lon="-3.201076">
        <ele>503.0</ele>
        <time>2014-11-15T14:00:11Z</time>
      </trkpt>
      <trkpt lat="54.512755" lon="-3.201051">
        <ele>503.0</ele>
        <time>2014-11-15T14:00:15Z</time>
      </trkpt>
      <trkpt lat="54.512718" lon="-3.201023">
        <ele>504.0</ele>
        <time>2014-11-15T14:00:19Z</time>
      </trkpt>
      <trkpt lat="54.512678" lon="-3.200995">
        <ele>505.0</ele>
        <time>2014-11-15T14:00:23Z</time>
      </trkpt>
      <trkpt lat="54.512641" lon="-3.200973">
        <ele>506.0</ele>
        <time>2014-11-15T14:00:27Z</time>
      </trkpt>
      <trkpt lat="54.512608" lon="-3.200943">
        <ele>507.0</ele>
        <time>2014-11-15T14:00:31Z</time>
      </trkpt>
      <trkpt lat="54.512583" lon="-3.200935">
        <ele>507.0</ele>
        <time>2014-11-15T14:00:35Z</time>
      </trkpt>
      <trkpt lat="54.512538" lon="-3.200885">
        <ele>508.0</ele>
        <time>2014-11-15T14:00:39Z</time>
      </trkpt>
      <trkpt lat="54.512533" lon="-3.200865">
        <ele>509.0</ele>
        <time>2014-11-15T14:00:43Z</time>
      </trkpt>
      <trkpt lat="54.512496" lon="-3.200856">
        <ele>510.0</ele>
        <time>2014-11-15T14:00:47Z</time>
      </trkpt>
      <trkpt lat="54.512453" lon="-3.200825">
        <ele>510.0</ele>
        <time>2014-11-15T14:00:51Z</time>
      </trkpt>
      <trkpt lat="54.512446" lon="-3.200796">
        <ele>511.0</ele>
        <time>2014-11-15T14:00:55Z</time>
      </trkpt>
      <trkpt lat="54.512433" lon="-3.200718">
        <ele>512.0</ele>
        <time>2014-11-15T14:00:59Z</time>
      </trkpt>
      <trkpt lat="54.512358" lon="-3.200678">
        <ele>512.0</ele>
        <time>2014-11-15T14:01:03Z</time>
      </trkpt>
      <trkpt lat="54.51232" lon="-3.200666">
        <ele>513.0</ele>
        <time>2014-11-15T14:01:07Z</time>
      </trkpt>
      <trkpt lat="54.512298" lon="-3.200575">
        <ele>514.0</ele>
        <time>2014-11-15T14:01:11Z</time>
      </trkpt>
      <trkpt lat="54.51228" lon="-3.200521">
        <ele>514.0</ele>
        <time>2014-11-15T14:01:15Z</time>
      </trkpt>
      <trkpt lat="54.51225" lon="-3.200521">
        <ele>515.0</ele>
        <time>2014-11-15T14:01:19Z</time>
      </trkpt>
      <trkpt lat="54.512221" lon="-3.200486">
        <ele>516.0</ele>
        <time>2014-11-15T14:01:23Z</time>
      </trkpt>
      <trkpt lat="54.5122" lon="-3.200413">
        <ele>516.0</ele>
        <time>2014-11-15T14:01:27Z</time>
      </trkpt>
      <trkpt lat="54.512153" lon="-3.200355">
        <ele>516.0</ele>
        <time>2014-11-15T14:01:31Z</time>
      </trkpt>
      <trkpt lat="54.512108" lon="-3.200336">
        <ele>517.0</ele>
        <time>2014-11-15T14:01:35Z</time>
      </trkpt>
      <trkpt lat="54.51201" lon="-3.200323">
        <ele>518.0</ele>
        <time>2014-11-15T14:01:39Z</time>
      </trkpt>
      <trkpt lat="54.511988" lon="-3.200291">
        <ele>519.0</ele>
        <time>2014-11-15T14:01:43Z</time>
      </trkpt>
      <trkpt lat="54.511993" lon="-3.200276">
        <ele>519.0</ele>
        <time>2014-11-15T14:01:47Z</time>
      </trkpt>
      <trkpt lat="54.511955" lon="-3.200226">
        <ele>520.0</ele>
        <time>2014-11-15T14:01:51Z</time>
      </trkpt>
      <trkpt lat="54.51195" lon="-3.200148">
        <ele>521.0</ele>
        <time>2014-11-15T14:01:55Z</time>
      </trkpt>
      <trkpt lat="54.511941" lon="-3.200065">
        <ele>522.0</ele>
        <time>2014-11-15T14:01:59Z</time>
      </trkpt>
      <trkpt lat="54.51189" lon="-3.20008">
        <ele>522.0</ele>
        <time>2014-11-15T14:02:03Z</time>
      </trkpt>
      <trkpt lat="54.511831" lon="-3.200013">
        <ele>523.0</ele>
        <time>2014-11-15T14:02:07Z</time>
      </trkpt>
      <trkpt lat="54.511835" lon="-3.199918">
        <ele>524.0</ele>
        <time>2014-11-15T14:02:11Z</time>
      </trkpt>
      <trkpt lat="54.511843" lon="-3.199935">
        <ele>524.0</ele>
        <time>2014-11-15T14:02:15Z</time>
      </trkpt>
      <trkpt lat="54.511791" lon="-3.199955">
        <ele>526.0</ele>
        <time>2014-11-15T14:02:19Z</time>
      </trkpt>
      <trkpt lat="54.511771" lon="-3.199958">
        <ele>527.0</ele>
        <time>2014-11-15T14:02:23Z</time>
      </trkpt>
      <trkpt lat="54.511698" lon="-3.19992">
        <ele>528.0</ele>
        <time>2014-11-15T14:02:27Z</time>
      </trkpt>
      <trkpt lat="54.51164" lon="-3.19985">
        <ele>529.0</ele>
        <time>2014-11-15T14:02:31Z</time>
      </trkpt>
      <trkpt lat="54.511605" lon="-3.19977">
        <ele>530.0</ele>
        <time>2014-11-15T14:02:35Z</time>
      </trkpt>
      <trkpt lat="54.511545" lon="-3.19972">
        <ele>530.0</ele>
        <time>2014-11-15T14:02:39Z</time>
      </trkpt>
      <trkpt lat="54.511525" lon="-3.199673">
        <ele>531.0</ele>
        <time>2014-11-15T14:02:43Z</time>
      </trkpt>
      <trkpt lat="54.511516" lon="-3.199628">
        <ele>532.0</ele>
        <time>2014-11-15T14:02:47Z</time>
      </trkpt>
      <trkpt lat="54.511498" lon="-3.199598">
        <ele>532.0</ele>
        <time>2014-11-15T14:02:51Z</time>
      </trkpt>
      <trkpt lat="54.511473" lon="-3.19952">
        <ele>534.0</ele>
        <time>2014-11-15T14:02:55Z</time>
      </trkpt>
      <trkpt lat="54.511465" lon="-3.19941">
        <ele>534.0</ele>
        <time>2014-11-15T14:02:59Z</time>
      </trkpt>
      <trkpt lat="54.511423" lon="-3.19937">
        <ele>535.0</ele>
        <time>2014-11-15T14:03:03Z</time>
      </trkpt>
      <trkpt lat="54.511433" lon="-3.199325">
        <ele>536.0</ele>
        <time>2014-11-15T14:03:07Z</time>
      </trkpt>
      <trkpt lat="54.51141" lon="-3.19924">
        <ele>536.0</ele>
        <time>2014-11-15T14:03:11Z</time>
      </trkpt>
      <trkpt lat="54.51141" lon="-3.199225">
        <ele>536.0</ele>
        <time>2014-11-15T14:03:15Z</time>
      </trkpt>
      <trkpt lat="54.511376" lon="-3.199181">
        <ele>537.0</ele>
        <time>2014-11-15T14:03:19Z</time>
      </trkpt>
      <trkpt lat="54.51134" lon="-3.1992">
        <ele>537.0</ele>
        <time>2014-11-15T14:03:23Z</time>
      </trkpt>
      <trkpt lat="54.511333" lon="-3.199148">
        <ele>538.0</ele>
        <time>2014-11-15T14:03:27Z</time>
      </trkpt>
      <trkpt lat="54.511333" lon="-3.199086">
        <ele>538.0</ele>
        <time>2014-11-15T14:03:31Z</time>
      </trkpt>
      <trkpt lat="54.511296" lon="-3.199091">
        <ele>538.0</ele>
        <time>2014-11-15T14:03:35Z</time>
      </trkpt>
      <trkpt lat="54.511338" lon="-3.199078">
        <ele>537.0</ele>
        <time>2014-11-15T14:03:39Z</time>
      </trkpt>
      <trkpt lat="54.511391" lon="-3.199128">
        <ele>537.0</ele>
        <time>2014-11-15T14:03:43Z</time>
      </trkpt>
      <trkpt lat="54.511356" lon="-3.199183">
        <ele>538.0</ele>
        <time>2014-11-15T14:03:47Z</time>
      </trkpt>
      <trkpt lat="54.511365" lon="-3.199195">
        <ele>537.0</ele>
        <time>2014-11-15T14:03:51Z</time>
      </trkpt>
      <trkpt lat="54.511401" lon="-3.199216">
        <ele>537.0</ele>
        <time>2014-11-15T14:03:55Z</time>
      </trkpt>
      <trkpt lat="54.511398" lon="-3.199241">
        <ele>537.0</ele>
        <time>2014-11-15T14:03:59Z</time>
      </trkpt>
      <trkpt lat="54.511393" lon="-3.199253">
        <ele>537.0</ele>
        <time>2014-11-15T14:04:03Z</time>
      </trkpt>
      <trkpt lat="54.511378" lon="-3.199256">
        <ele>537.0</ele>
        <time>2014-11-15T14:04:07Z</time>
      </trkpt>
      <trkpt lat="54.51137" lon="-3.199258">
        <ele>537.0</ele>
        <time>2014-11-15T14:04:11Z</time>
      </trkpt>
      <trkpt lat="54.511371" lon="-3.19926">
        <ele>537.0</ele>
        <time>2014-11-15T14:04:15Z</time>
      </trkpt>
      <trkpt lat="54.511375" lon="-3.199261">
        <ele>537.0</ele>
        <time>2014-11-15T14:04:19Z</time>
      </trkpt>
      <trkpt lat="54.511391" lon="-3.199265">
        <ele>537.0</ele>
        <time>2014-11-15T14:04:23Z</time>
      </trkpt>
      <trkpt lat="54.511405" lon="-3.199266">
        <ele>537.0</ele>
        <time>2014-11-15T14:04:27Z</time>
      </trkpt>
      <trkpt lat="54.511416" lon="-3.19927">
        <ele>537.0</ele>
        <time>2014-11-15T14:04:31Z</time>
      </trkpt>
      <trkpt lat="54.511421" lon="-3.19927">
        <ele>538.0</ele>
        <time>2014-11-15T14:04:35Z</time>
      </trkpt>
      <trkpt lat="54.511428" lon="-3.199271">
        <ele>537.0</ele>
        <time>2014-11-15T14:04:39Z</time>
      </trkpt>
      <trkpt lat="54.511425" lon="-3.199271">
        <ele>537.0</ele>
        <time>2014-11-15T14:04:43Z</time>
      </trkpt>
      <trkpt lat="54.511418" lon="-3.19927">
        <ele>537.0</ele>
        <time>2014-11-15T14:04:47Z</time>
      </trkpt>
      <trkpt lat="54.511425" lon="-3.199271">
        <ele>537.0</ele>
        <time>2014-11-15T14:04:51Z</time>
      </trkpt>
      <trkpt lat="54.511413" lon="-3.19927">
        <ele>537.0</ele>
        <time>2014-11-15T14:04:55Z</time>
      </trkpt>
      <trkpt lat="54.511408" lon="-3.19927">
        <ele>537.0</ele>
        <time>2014-11-15T14:04:59Z</time>
      </trkpt>
      <trkpt lat="54.511431" lon="-3.199281">
        <ele>537.0</ele>
        <time>2014-11-15T14:05:03Z</time>
      </trkpt>
      <trkpt lat="54.511408" lon="-3.199293">
        <ele>537.0</ele>
        <time>2014-11-15T14:05:07Z</time>
      </trkpt>
      <trkpt lat="54.51141" lon="-3.199293">
        <ele>537.0</ele>
        <time>2014-11-15T14:05:11Z</time>
      </trkpt>
      <trkpt lat="54.511446" lon="-3.199305">
        <ele>537.0</ele>
        <time>2014-11-15T14:05:15Z</time>
      </trkpt>
      <trkpt lat="54.5114" lon="-3.199308">
        <ele>537.0</ele>
        <time>2014-11-15T14:05:19Z</time>
      </trkpt>
      <trkpt lat="54.511396" lon="-3.199318">
        <ele>537.0</ele>
        <time>2014-11-15T14:05:23Z</time>
      </trkpt>
      <trkpt lat="54.511383" lon="-3.199295">
        <ele>538.0</ele>
        <time>2014-11-15T14:05:27Z</time>
      </trkpt>
      <trkpt lat="54.511383" lon="-3.199286">
        <ele>537.0</ele>
        <time>2014-11-15T14:05:31Z</time>
      </trkpt>
      <trkpt lat="54.511378" lon="-3.19928">
        <ele>537.0</ele>
        <time>2014-11-15T14:05:35Z</time>
      </trkpt>
      <trkpt lat="54.511373" lon="-3.199275">
        <ele>538.0</ele>
        <time>2014-11-15T14:05:39Z</time>
      </trkpt>
      <trkpt lat="54.511375" lon="-3.199271">
        <ele>537.0</ele>
        <time>2014-11-15T14:05:43Z</time>
      </trkpt>
      <trkpt lat="54.511373" lon="-3.199271">
        <ele>537.0</ele>
        <time>2014-11-15T14:05:47Z</time>
      </trkpt>
      <trkpt lat="54.511395" lon="-3.199276">
        <ele>537.0</ele>
        <time>2014-11-15T14:05:51Z</time>
      </trkpt>
      <trkpt lat="54.511388" lon="-3.199275">
        <ele>537.0</ele>
        <time>2014-11-15T14:05:55Z</time>
      </trkpt>
      <trkpt lat="54.511376" lon="-3.19927">
        <ele>537.0</ele>
        <time>2014-11-15T14:05:59Z</time>
      </trkpt>
      <trkpt lat="54.511371" lon="-3.199266">
        <ele>537.0</ele>
        <time>2014-11-15T14:06:03Z</time>
      </trkpt>
      <trkpt lat="54.511378" lon="-3.199268">
        <ele>537.0</ele>
        <time>2014-11-15T14:06:07Z</time>
      </trkpt>
      <trkpt lat="54.511396" lon="-3.199271">
        <ele>537.0</ele>
        <time>2014-11-15T14:06:11Z</time>
      </trkpt>
      <trkpt lat="54.5114" lon="-3.199273">
        <ele>537.0</ele>
        <time>2014-11-15T14:06:15Z</time>
      </trkpt>
      <trkpt lat="54.511416" lon="-3.199276">
        <ele>537.0</ele>
        <time>2014-11-15T14:06:19Z</time>
      </trkpt>
      <trkpt lat="54.511421" lon="-3.199278">
        <ele>538.0</ele>
        <time>2014-11-15T14:06:23Z</time>
      </trkpt>
      <trkpt lat="54.511423" lon="-3.19928">
        <ele>538.0</ele>
        <time>2014-11-15T14:06:27Z</time>
      </trkpt>
      <trkpt lat="54.511416" lon="-3.19928">
        <ele>537.0</ele>
        <time>2014-11-15T14:06:31Z</time>
      </trkpt>
      <trkpt lat="54.511415" lon="-3.199278">
        <ele>537.0</ele>
        <time>2014-11-15T14:06:35Z</time>
      </trkpt>
      <trkpt lat="54.51143" lon="-3.199281">
        <ele>537.0</ele>
        <time>2014-11-15T14:06:39Z</time>
      </trkpt>
      <trkpt lat="54.511478" lon="-3.199295">
        <ele>537.0</ele>
        <time>2014-11-15T14:06:43Z</time>
      </trkpt>
      <trkpt lat="54.51148" lon="-3.199293">
        <ele>537.0</ele>
        <time>2014-11-15T14:06:47Z</time>
      </trkpt>
      <trkpt lat="54.511486" lon="-3.199296">
        <ele>538.0</ele>
        <time>2014-11-15T14:06:51Z</time>
      </trkpt>
      <trkpt lat="54.511525" lon="-3.199305">
        <ele>538.0</ele>
        <time>2014-11-15T14:06:55Z</time>
      </trkpt>
      <trkpt lat="54.511528" lon="-3.199328">
        <ele>538.0</ele>
        <time>2014-11-15T14:06:59Z</time>
      </trkpt>
      <trkpt lat="54.511605" lon="-3.19935">
        <ele>538.0</ele>
        <time>2014-11-15T14:07:03Z</time>
      </trkpt>
      <trkpt lat="54.511568" lon="-3.199333">
        <ele>538.0</ele>
        <time>2014-11-15T14:07:07Z</time>
      </trkpt>
      <trkpt lat="54.511533" lon="-3.199328">
        <ele>538.0</ele>
        <time>2014-11-15T14:07:11Z</time>
      </trkpt>
      <trkpt lat="54.511603" lon="-3.199326">
        <ele>538.0</ele>
        <time>2014-11-15T14:07:15Z</time>
      </trkpt>
      <trkpt lat="54.511581" lon="-3.199318">
        <ele>538.0</ele>
        <time>2014-11-15T14:07:19Z</time>
      </trkpt>
      <trkpt lat="54.511495" lon="-3.199308">
        <ele>538.0</ele>
        <time>2014-11-15T14:07:23Z</time>
      </trkpt>
      <trkpt lat="54.51149" lon="-3.199293">
        <ele>538.0</ele>
        <time>2014-11-15T14:07:27Z</time>
      </trkpt>
      <trkpt lat="54.511518" lon="-3.199291">
        <ele>537.0</ele>
        <time>2014-11-15T14:07:31Z</time>
      </trkpt>
      <trkpt lat="54.511488" lon="-3.19928">
        <ele>538.0</ele>
        <time>2014-11-15T14:07:35Z</time>
      </trkpt>
      <trkpt lat="54.511483" lon="-3.19928">
        <ele>538.0</ele>
        <time>2014-11-15T14:07:39Z</time>
      </trkpt>
      <trkpt lat="54.511513" lon="-3.199271">
        <ele>538.0</ele>
        <time>2014-11-15T14:07:43Z</time>
      </trkpt>
      <trkpt lat="54.511518" lon="-3.199288">
        <ele>538.0</ele>
        <time>2014-11-15T14:07:47Z</time>
      </trkpt>
      <trkpt lat="54.511513" lon="-3.19929">
        <ele>538.0</ele>
        <time>2014-11-15T14:07:51Z</time>
      </trkpt>
      <trkpt lat="54.511528" lon="-3.19929">
        <ele>538.0</ele>
        <time>2014-11-15T14:07:55Z</time>
      </trkpt>
      <trkpt lat="54.51158" lon="-3.199316">
        <ele>538.0</ele>
        <time>2014-11-15T14:07:59Z</time>
      </trkpt>
      <trkpt lat="54.511555" lon="-3.199296">
        <ele>538.0</ele>
        <time>2014-11-15T14:08:03Z</time>
      </trkpt>
      <trkpt lat="54.511541" lon="-3.199296">
        <ele>538.0</ele>
        <time>2014-11-15T14:08:07Z</time>
      </trkpt>
      <trkpt lat="54.511526" lon="-3.199298">
        <ele>537.0</ele>
        <time>2014-11-15T14:08:11Z</time>
      </trkpt>
      <trkpt lat="54.511461" lon="-3.199283">
        <ele>537.0</ele>
        <time>2014-11-15T14:08:15Z</time>
      </trkpt>
      <trkpt lat="54.511451" lon="-3.199271">
        <ele>537.0</ele>
        <time>2014-11-15T14:08:19Z</time>
      </trkpt>
      <trkpt lat="54.511413" lon="-3.199263">
        <ele>538.0</ele>
        <time>2014-11-15T14:08:23Z</time>
      </trkpt>
      <trkpt lat="54.511366" lon="-3.199223">
        <ele>538.0</ele>
        <time>2014-11-15T14:08:27Z</time>
      </trkpt>
      <trkpt lat="54.511336" lon="-3.199216">
        <ele>538.0</ele>
        <time>2014-11-15T14:08:31Z</time>
      </trkpt>
      <trkpt lat="54.51131" lon="-3.199225">
        <ele>538.0</ele>
        <time>2014-11-15T14:08:35Z</time>
      </trkpt>
      <trkpt lat="54.511366" lon="-3.199245">
        <ele>538.0</ele>
        <time>2014-11-15T14:08:39Z</time>
      </trkpt>
      <trkpt lat="54.511411" lon="-3.19925">
        <ele>538.0</ele>
        <time>2014-11-15T14:08:43Z</time>
      </trkpt>
      <trkpt lat="54.511431" lon="-3.199265">
        <ele>538.0</ele>
        <time>2014-11-15T14:08:47Z</time>
      </trkpt>
      <trkpt lat="54.51136" lon="-3.19926">
        <ele>538.0</ele>
        <time>2014-11-15T14:08:51Z</time>
      </trkpt>
      <trkpt lat="54.511331" lon="-3.199275">
        <ele>538.0</ele>
        <time>2014-11-15T14:08:55Z</time>
      </trkpt>
      <trkpt lat="54.511333" lon="-3.199243">
        <ele>538.0</ele>
        <time>2014-11-15T14:08:59Z</time>
      </trkpt>
      <trkpt lat="54.511375" lon="-3.199256">
        <ele>538.0</ele>
        <time>2014-11-15T14:09:03Z</time>
      </trkpt>
      <trkpt lat="54.511428" lon="-3.199241">
        <ele>538.0</ele>
        <time>2014-11-15T14:09:07Z</time>
      </trkpt>
      <trkpt lat="54.511356" lon="-3.199238">
        <ele>538.0</ele>
        <time>2014-11-15T14:09:11Z</time>
      </trkpt>
      <trkpt lat="54.511373" lon="-3.199238">
        <ele>538.0</ele>
        <time>2014-11-15T14:09:15Z</time>
      </trkpt>
      <trkpt lat="54.511368" lon="-3.199231">
        <ele>538.0</ele>
        <time>2014-11-15T14:09:19Z</time>
      </trkpt>
      <trkpt lat="54.511353" lon="-3.199235">
        <ele>538.0</ele>
        <time>2014-11-15T14:09:23Z</time>
      </trkpt>
      <trkpt lat="54.511325" lon="-3.199226">
        <ele>538.0</ele>
        <time>2014-11-15T14:09:27Z</time>
      </trkpt>
      <trkpt lat="54.511306" lon="-3.19926">
        <ele>538.0</ele>
        <time>2014-11-15T14:09:31Z</time>
      </trkpt>
      <trkpt lat="54.51134" lon="-3.199275">
        <ele>538.0</ele>
        <time>2014-11-15T14:09:35Z</time>
      </trkpt>
      <trkpt lat="54.511398" lon="-3.199315">
        <ele>538.0</ele>
        <time>2014-11-15T14:09:39Z</time>
      </trkpt>
      <trkpt lat="54.511353" lon="-3.19927">
        <ele>538.0</ele>
        <time>2014-11-15T14:09:43Z</time>
      </trkpt>
      <trkpt lat="54.511416" lon="-3.199278">
        <ele>538.0</ele>
        <time>2014-11-15T14:09:47Z</time>
      </trkpt>
      <trkpt lat="54.511426" lon="-3.199283">
        <ele>538.0</ele>
        <time>2014-11-15T14:09:51Z</time>
      </trkpt>
      <trkpt lat="54.511448" lon="-3.19929">
        <ele>538.0</ele>
        <time>2014-11-15T14:09:55Z</time>
      </trkpt>
      <trkpt lat="54.511441" lon="-3.199275">
        <ele>538.0</ele>
        <time>2014-11-15T14:09:59Z</time>
      </trkpt>
      <trkpt lat="54.511371" lon="-3.199255">
        <ele>538.0</ele>
        <time>2014-11-15T14:10:03Z</time>
      </trkpt>
      <trkpt lat="54.511315" lon="-3.199261">
        <ele>538.0</ele>
        <time>2014-11-15T14:10:07Z</time>
      </trkpt>
      <trkpt lat="54.511251" lon="-3.199233">
        <ele>538.0</ele>
        <time>2014-11-15T14:10:11Z</time>
      </trkpt>
      <trkpt lat="54.511253" lon="-3.199233">
        <ele>538.0</ele>
        <time>2014-11-15T14:10:15Z</time>
      </trkpt>
      <trkpt lat="54.511225" lon="-3.199236">
        <ele>538.0</ele>
        <time>2014-11-15T14:10:19Z</time>
      </trkpt>
      <trkpt lat="54.511255" lon="-3.199266">
        <ele>538.0</ele>
        <time>2014-11-15T14:10:23Z</time>
      </trkpt>
      <trkpt lat="54.511208" lon="-3.199281">
        <ele>538.0</ele>
        <time>2014-11-15T14:10:27Z</time>
      </trkpt>
      <trkpt lat="54.511225" lon="-3.19931">
        <ele>538.0</ele>
        <time>2014-11-15T14:10:31Z</time>
      </trkpt>
      <trkpt lat="54.511296" lon="-3.199338">
        <ele>538.0</ele>
        <time>2014-11-15T14:10:35Z</time>
      </trkpt>
      <trkpt lat="54.51134" lon="-3.199323">
        <ele>538.0</ele>
        <time>2014-11-15T14:10:39Z</time>
      </trkpt>
      <trkpt lat="54.511356" lon="-3.199328">
        <ele>538.0</ele>
        <time>2014-11-15T14:10:43Z</time>
      </trkpt>
      <trkpt lat="54.511336" lon="-3.199318">
        <ele>538.0</ele>
        <time>2014-11-15T14:10:47Z</time>
      </trkpt>
      <trkpt lat="54.511386" lon="-3.199335">
        <ele>538.0</ele>
        <time>2014-11-15T14:10:51Z</time>
      </trkpt>
      <trkpt lat="54.511401" lon="-3.199323">
        <ele>539.0</ele>
        <time>2014-11-15T14:10:55Z</time>
      </trkpt>
      <trkpt lat="54.511393" lon="-3.19932">
        <ele>538.0</ele>
        <time>2014-11-15T14:10:59Z</time>
      </trkpt>
      <trkpt lat="54.511423" lon="-3.199315">
        <ele>539.0</ele>
        <time>2014-11-15T14:11:03Z</time>
      </trkpt>
      <trkpt lat="54.511315" lon="-3.199293">
        <ele>538.0</ele>
        <time>2014-11-15T14:11:07Z</time>
      </trkpt>
      <trkpt lat="54.511258" lon="-3.199288">
        <ele>539.0</ele>
        <time>2014-11-15T14:11:11Z</time>
      </trkpt>
      <trkpt lat="54.511265" lon="-3.199271">
        <ele>538.0</ele>
        <time>2014-11-15T14:11:15Z</time>
      </trkpt>
      <trkpt lat="54.511288" lon="-3.199291">
        <ele>538.0</ele>
        <time>2014-11-15T14:11:19Z</time>
      </trkpt>
      <trkpt lat="54.511295" lon="-3.199296">
        <ele>538.0</ele>
        <time>2014-11-15T14:11:23Z</time>
      </trkpt>
      <trkpt lat="54.511263" lon="-3.199266">
        <ele>538.0</ele>
        <time>2014-11-15T14:11:27Z</time>
      </trkpt>
      <trkpt lat="54.511241" lon="-3.199253">
        <ele>538.0</ele>
        <time>2014-11-15T14:11:31Z</time>
      </trkpt>
      <trkpt lat="54.511311" lon="-3.19926">
        <ele>538.0</ele>
        <time>2014-11-15T14:11:35Z</time>
      </trkpt>
      <trkpt lat="54.511335" lon="-3.199253">
        <ele>538.0</ele>
        <time>2014-11-15T14:11:39Z</time>
      </trkpt>
      <trkpt lat="54.511381" lon="-3.199245">
        <ele>538.0</ele>
        <time>2014-11-15T14:11:43Z</time>
      </trkpt>
      <trkpt lat="54.511201" lon="-3.199218">
        <ele>538.0</ele>
        <time>2014-11-15T14:11:47Z</time>
      </trkpt>
      <trkpt lat="54.51108" lon="-3.199191">
        <ele>538.0</ele>
        <time>2014-11-15T14:11:51Z</time>
      </trkpt>
      <trkpt lat="54.511146" lon="-3.199201">
        <ele>538.0</ele>
        <time>2014-11-15T14:11:55Z</time>
      </trkpt>
      <trkpt lat="54.511211" lon="-3.199213">
        <ele>538.0</ele>
        <time>2014-11-15T14:11:59Z</time>
      </trkpt>
      <trkpt lat="54.511238" lon="-3.199215">
        <ele>538.0</ele>
        <time>2014-11-15T14:12:03Z</time>
      </trkpt>
      <trkpt lat="54.511291" lon="-3.199225">
        <ele>538.0</ele>
        <time>2014-11-15T14:12:07Z</time>
      </trkpt>
      <trkpt lat="54.511311" lon="-3.199225">
        <ele>538.0</ele>
        <time>2014-11-15T14:12:11Z</time>
      </trkpt>
      <trkpt lat="54.511323" lon="-3.19923">
        <ele>538.0</ele>
        <time>2014-11-15T14:12:15Z</time>
      </trkpt>
      <trkpt lat="54.51135" lon="-3.19924">
        <ele>538.0</ele>
        <time>2014-11-15T14:12:19Z</time>
      </trkpt>
      <trkpt lat="54.511366" lon="-3.199273">
        <ele>538.0</ele>
        <time>2014-11-15T14:12:23Z</time>
      </trkpt>
      <trkpt lat="54.511393" lon="-3.199271">
        <ele>538.0</ele>
        <time>2014-11-15T14:12:27Z</time>
      </trkpt>
      <trkpt lat="54.511373" lon="-3.199258">
        <ele>538.0</ele>
        <time>2014-11-15T14:12:31Z</time>
      </trkpt>
      <trkpt lat="54.511401" lon="-3.199291">
        <ele>538.0</ele>
        <time>2014-11-15T14:12:35Z</time>
      </trkpt>
      <trkpt lat="54.511463" lon="-3.199333">
        <ele>539.0</ele>
        <time>2014-11-15T14:12:39Z</time>
      </trkpt>
      <trkpt lat="54.511466" lon="-3.199345">
        <ele>538.0</ele>
        <time>2014-11-15T14:12:43Z</time>
      </trkpt>
      <trkpt lat="54.51146" lon="-3.19935">
        <ele>539.0</ele>
        <time>2014-11-15T14:12:47Z</time>
      </trkpt>
      <trkpt lat="54.511498" lon="-3.199311">
        <ele>539.0</ele>
        <time>2014-11-15T14:12:51Z</time>
      </trkpt>
      <trkpt lat="54.51141" lon="-3.19933">
        <ele>538.0</ele>
        <time>2014-11-15T14:12:55Z</time>
      </trkpt>
      <trkpt lat="54.511456" lon="-3.199303">
        <ele>538.0</ele>
        <time>2014-11-15T14:12:59Z</time>
      </trkpt>
      <trkpt lat="54.511448" lon="-3.199281">
        <ele>538.0</ele>
        <time>2014-11-15T14:13:03Z</time>
      </trkpt>
      <trkpt lat="54.511485" lon="-3.199283">
        <ele>538.0</ele>
        <time>2014-11-15T14:13:07Z</time>
      </trkpt>
      <trkpt lat="54.511486" lon="-3.199276">
        <ele>538.0</ele>
        <time>2014-11-15T14:13:11Z</time>
      </trkpt>
      <trkpt lat="54.511538" lon="-3.199256">
        <ele>539.0</ele>
        <time>2014-11-15T14:13:15Z</time>
      </trkpt>
      <trkpt lat="54.511566" lon="-3.199275">
        <ele>538.0</ele>
        <time>2014-11-15T14:13:19Z</time>
      </trkpt>
      <trkpt lat="54.511531" lon="-3.199245">
        <ele>538.0</ele>
        <time>2014-11-15T14:13:23Z</time>
      </trkpt>
      <trkpt lat="54.51152" lon="-3.199208">
        <ele>539.0</ele>
        <time>2014-11-15T14:13:27Z</time>
      </trkpt>
      <trkpt lat="54.511533" lon="-3.199225">
        <ele>538.0</ele>
        <time>2014-11-15T14:13:31Z</time>
      </trkpt>
      <trkpt lat="54.511566" lon="-3.199231">
        <ele>538.0</ele>
        <time>2014-11-15T14:13:35Z</time>
      </trkpt>
      <trkpt lat="54.511485" lon="-3.19918">
        <ele>538.0</ele>
        <time>2014-11-15T14:13:39Z</time>
      </trkpt>
      <trkpt lat="54.511465" lon="-3.199211">
        <ele>539.0</ele>
        <time>2014-11-15T14:13:43Z</time>
      </trkpt>
      <trkpt lat="54.511498" lon="-3.199246">
        <ele>539.0</ele>
        <time>2014-11-15T14:13:47Z</time>
      </trkpt>
      <trkpt lat="54.511515" lon="-3.199261">
        <ele>538.0</ele>
        <time>2014-11-15T14:13:51Z</time>
      </trkpt>
      <trkpt lat="54.511521" lon="-3.199268">
        <ele>538.0</ele>
        <time>2014-11-15T14:13:55Z</time>
      </trkpt>
      <trkpt lat="54.511456" lon="-3.199268">
        <ele>539.0</ele>
        <time>2014-11-15T14:13:59Z</time>
      </trkpt>
      <trkpt lat="54.511516" lon="-3.199316">
        <ele>538.0</ele>
        <time>2014-11-15T14:14:03Z</time>
      </trkpt>
      <trkpt lat="54.511528" lon="-3.199326">
        <ele>539.0</ele>
        <time>2014-11-15T14:14:07Z</time>
      </trkpt>
      <trkpt lat="54.51148" lon="-3.199295">
        <ele>538.0</ele>
        <time>2014-11-15T14:14:11Z</time>
      </trkpt>
      <trkpt lat="54.51148" lon="-3.19927">
        <ele>538.0</ele>
        <time>2014-11-15T14:14:15Z</time>
      </trkpt>
      <trkpt lat="54.511486" lon="-3.199311">
        <ele>538.0</ele>
        <time>2014-11-15T14:14:19Z</time>
      </trkpt>
      <trkpt lat="54.511485" lon="-3.199308">
        <ele>538.0</ele>
        <time>2014-11-15T14:14:23Z</time>
      </trkpt>
      <trkpt lat="54.511391" lon="-3.19928">
        <ele>538.0</ele>
        <time>2014-11-15T14:14:27Z</time>
      </trkpt>
      <trkpt lat="54.511366" lon="-3.199263">
        <ele>538.0</ele>
        <time>2014-11-15T14:14:31Z</time>
      </trkpt>
      <trkpt lat="54.51139" lon="-3.199256">
        <ele>538.0</ele>
        <time>2014-11-15T14:14:35Z</time>
      </trkpt>
      <trkpt lat="54.511431" lon="-3.19926">
        <ele>539.0</ele>
        <time>2014-11-15T14:14:39Z</time>
      </trkpt>
      <trkpt lat="54.51143" lon="-3.19924">
        <ele>539.0</ele>
        <time>2014-11-15T14:14:43Z</time>
      </trkpt>
      <trkpt lat="54.511368" lon="-3.199235">
        <ele>539.0</ele>
        <time>2014-11-15T14:14:47Z</time>
      </trkpt>
      <trkpt lat="54.511363" lon="-3.199231">
        <ele>539.0</ele>
        <time>2014-11-15T14:14:51Z</time>
      </trkpt>
      <trkpt lat="54.511386" lon="-3.1992">
        <ele>539.0</ele>
        <time>2014-11-15T14:14:55Z</time>
      </trkpt>
      <trkpt lat="54.51139" lon="-3.199193">
        <ele>539.0</ele>
        <time>2014-11-15T14:14:59Z</time>
      </trkpt>
      <trkpt lat="54.511388" lon="-3.199191">
        <ele>539.0</ele>
        <time>2014-11-15T14:15:07Z</time>
      </trkpt>
      <trkpt lat="54.51134" lon="-3.19921">
        <ele>539.0</ele>
        <time>2014-11-15T14:15:15Z</time>
      </trkpt>
      <trkpt lat="54.511358" lon="-3.199216">
        <ele>539.0</ele>
        <time>2014-11-15T14:15:19Z</time>
      </trkpt>
      <trkpt lat="54.511363" lon="-3.199223">
        <ele>538.0</ele>
        <time>2014-11-15T14:15:23Z</time>
      </trkpt>
      <trkpt lat="54.511346" lon="-3.199218">
        <ele>539.0</ele>
        <time>2014-11-15T14:15:27Z</time>
      </trkpt>
      <trkpt lat="54.511333" lon="-3.199215">
        <ele>539.0</ele>
        <time>2014-11-15T14:15:31Z</time>
      </trkpt>
      <trkpt lat="54.511338" lon="-3.199215">
        <ele>538.0</ele>
        <time>2014-11-15T14:15:35Z</time>
      </trkpt>
      <trkpt lat="54.511345" lon="-3.199216">
        <ele>539.0</ele>
        <time>2014-11-15T14:15:39Z</time>
      </trkpt>
      <trkpt lat="54.511353" lon="-3.199218">
        <ele>538.0</ele>
        <time>2014-11-15T14:15:47Z</time>
      </trkpt>
      <trkpt lat="54.511345" lon="-3.199231">
        <ele>539.0</ele>
        <time>2014-11-15T14:15:51Z</time>
      </trkpt>
      <trkpt lat="54.51135" lon="-3.199241">
        <ele>539.0</ele>
        <time>2014-11-15T14:15:55Z</time>
      </trkpt>
      <trkpt lat="54.511368" lon="-3.19924">
        <ele>539.0</ele>
        <time>2014-11-15T14:15:59Z</time>
      </trkpt>
      <trkpt lat="54.511356" lon="-3.19923">
        <ele>539.0</ele>
        <time>2014-11-15T14:16:03Z</time>
      </trkpt>
      <trkpt lat="54.511353" lon="-3.199245">
        <ele>538.0</ele>
        <time>2014-11-15T14:16:07Z</time>
      </trkpt>
      <trkpt lat="54.5114" lon="-3.199248">
        <ele>539.0</ele>
        <time>2014-11-15T14:16:11Z</time>
      </trkpt>
      <trkpt lat="54.511396" lon="-3.199228">
        <ele>539.0</ele>
        <time>2014-11-15T14:16:15Z</time>
      </trkpt>
      <trkpt lat="54.511376" lon="-3.19922">
        <ele>539.0</ele>
        <time>2014-11-15T14:16:19Z</time>
      </trkpt>
      <trkpt lat="54.511405" lon="-3.199236">
        <ele>539.0</ele>
        <time>2014-11-15T14:16:23Z</time>
      </trkpt>
      <trkpt lat="54.511428" lon="-3.199216">
        <ele>538.0</ele>
        <time>2014-11-15T14:16:27Z</time>
      </trkpt>
      <trkpt lat="54.511363" lon="-3.199211">
        <ele>539.0</ele>
        <time>2014-11-15T14:16:31Z</time>
      </trkpt>
      <trkpt lat="54.511388" lon="-3.199211">
        <ele>539.0</ele>
        <time>2014-11-15T14:16:35Z</time>
      </trkpt>
      <trkpt lat="54.511395" lon="-3.19921">
        <ele>539.0</ele>
        <time>2014-11-15T14:16:39Z</time>
      </trkpt>
      <trkpt lat="54.511383" lon="-3.19921">
        <ele>539.0</ele>
        <time>2014-11-15T14:16:43Z</time>
      </trkpt>
      <trkpt lat="54.511445" lon="-3.19923">
        <ele>539.0</ele>
        <time>2014-11-15T14:16:47Z</time>
      </trkpt>
      <trkpt lat="54.511486" lon="-3.199235">
        <ele>539.0</ele>
        <time>2014-11-15T14:16:51Z</time>
      </trkpt>
      <trkpt lat="54.511516" lon="-3.199238">
        <ele>539.0</ele>
        <time>2014-11-15T14:16:55Z</time>
      </trkpt>
      <trkpt lat="54.511503" lon="-3.199251">
        <ele>539.0</ele>
        <time>2014-11-15T14:16:59Z</time>
      </trkpt>
      <trkpt lat="54.511433" lon="-3.199235">
        <ele>539.0</ele>
        <time>2014-11-15T14:17:03Z</time>
      </trkpt>
      <trkpt lat="54.511411" lon="-3.199231">
        <ele>539.0</ele>
        <time>2014-11-15T14:17:07Z</time>
      </trkpt>
      <trkpt lat="54.511428" lon="-3.199226">
        <ele>539.0</ele>
        <time>2014-11-15T14:17:11Z</time>
      </trkpt>
      <trkpt lat="54.511461" lon="-3.19926">
        <ele>539.0</ele>
        <time>2014-11-15T14:17:15Z</time>
      </trkpt>
      <trkpt lat="54.51145" lon="-3.199266">
        <ele>539.0</ele>
        <time>2014-11-15T14:17:19Z</time>
      </trkpt>
      <trkpt lat="54.511455" lon="-3.199256">
        <ele>539.0</ele>
        <time>2014-11-15T14:17:23Z</time>
      </trkpt>
      <trkpt lat="54.511465" lon="-3.199273">
        <ele>539.0</ele>
        <time>2014-11-15T14:17:27Z</time>
      </trkpt>
      <trkpt lat="54.511441" lon="-3.199263">
        <ele>539.0</ele>
        <time>2014-11-15T14:17:31Z</time>
      </trkpt>
      <trkpt lat="54.51145" lon="-3.199276">
        <ele>539.0</ele>
        <time>2014-11-15T14:17:35Z</time>
      </trkpt>
      <trkpt lat="54.511493" lon="-3.199301">
        <ele>539.0</ele>
        <time>2014-11-15T14:17:39Z</time>
      </trkpt>
      <trkpt lat="54.511521" lon="-3.199321">
        <ele>539.0</ele>
        <time>2014-11-15T14:17:43Z</time>
      </trkpt>
      <trkpt lat="54.511501" lon="-3.199323">
        <ele>538.0</ele>
        <time>2014-11-15T14:17:47Z</time>
      </trkpt>
      <trkpt lat="54.511471" lon="-3.199301">
        <ele>538.0</ele>
        <time>2014-11-15T14:17:51Z</time>
      </trkpt>
      <trkpt lat="54.511453" lon="-3.199293">
        <ele>539.0</ele>
        <time>2014-11-15T14:17:55Z</time>
      </trkpt>
      <trkpt lat="54.511448" lon="-3.199288">
        <ele>539.0</ele>
        <time>2014-11-15T14:17:59Z</time>
      </trkpt>
      <trkpt lat="54.511461" lon="-3.199291">
        <ele>538.0</ele>
        <time>2014-11-15T14:18:03Z</time>
      </trkpt>
      <trkpt lat="54.51146" lon="-3.199298">
        <ele>539.0</ele>
        <time>2014-11-15T14:18:07Z</time>
      </trkpt>
      <trkpt lat="54.511503" lon="-3.199333">
        <ele>539.0</ele>
        <time>2014-11-15T14:18:11Z</time>
      </trkpt>
      <trkpt lat="54.51147" lon="-3.199316">
        <ele>539.0</ele>
        <time>2014-11-15T14:18:15Z</time>
      </trkpt>
      <trkpt lat="54.511465" lon="-3.199268">
        <ele>538.0</ele>
        <time>2014-11-15T14:18:19Z</time>
      </trkpt>
      <trkpt lat="54.511456" lon="-3.199263">
        <ele>539.0</ele>
        <time>2014-11-15T14:18:23Z</time>
      </trkpt>
      <trkpt lat="54.511466" lon="-3.199295">
        <ele>539.0</ele>
        <time>2014-11-15T14:18:27Z</time>
      </trkpt>
      <trkpt lat="54.511481" lon="-3.199295">
        <ele>539.0</ele>
        <time>2014-11-15T14:18:31Z</time>
      </trkpt>
      <trkpt lat="54.51153" lon="-3.199305">
        <ele>539.0</ele>
        <time>2014-11-15T14:18:35Z</time>
      </trkpt>
      <trkpt lat="54.511508" lon="-3.1993">
        <ele>539.0</ele>
        <time>2014-11-15T14:18:39Z</time>
      </trkpt>
      <trkpt lat="54.51149" lon="-3.1993">
        <ele>539.0</ele>
        <time>2014-11-15T14:18:43Z</time>
      </trkpt>
      <trkpt lat="54.511438" lon="-3.199263">
        <ele>539.0</ele>
        <time>2014-11-15T14:18:47Z</time>
      </trkpt>
      <trkpt lat="54.511486" lon="-3.199256">
        <ele>539.0</ele>
        <time>2014-11-15T14:18:51Z</time>
      </trkpt>
      <trkpt lat="54.511476" lon="-3.199246">
        <ele>539.0</ele>
        <time>2014-11-15T14:18:55Z</time>
      </trkpt>
      <trkpt lat="54.511458" lon="-3.199223">
        <ele>539.0</ele>
        <time>2014-11-15T14:18:59Z</time>
      </trkpt>
      <trkpt lat="54.51142" lon="-3.199171">
        <ele>539.0</ele>
        <time>2014-11-15T14:19:03Z</time>
      </trkpt>
      <trkpt lat="54.511406" lon="-3.199186">
        <ele>539.0</ele>
        <time>2014-11-15T14:19:07Z</time>
      </trkpt>
      <trkpt lat="54.511415" lon="-3.199215">
        <ele>539.0</ele>
        <time>2014-11-15T14:19:11Z</time>
      </trkpt>
      <trkpt lat="54.511408" lon="-3.199215">
        <ele>539.0</ele>
        <time>2014-11-15T14:19:15Z</time>
      </trkpt>
      <trkpt lat="54.511395" lon="-3.199206">
        <ele>539.0</ele>
        <time>2014-11-15T14:19:19Z</time>
      </trkpt>
      <trkpt lat="54.511351" lon="-3.199201">
        <ele>539.0</ele>
        <time>2014-11-15T14:19:23Z</time>
      </trkpt>
      <trkpt lat="54.511345" lon="-3.199211">
        <ele>539.0</ele>
        <time>2014-11-15T14:19:27Z</time>
      </trkpt>
      <trkpt lat="54.511361" lon="-3.199223">
        <ele>539.0</ele>
        <time>2014-11-15T14:19:31Z</time>
      </trkpt>
      <trkpt lat="54.51139" lon="-3.199206">
        <ele>539.0</ele>
        <time>2014-11-15T14:19:35Z</time>
      </trkpt>
      <trkpt lat="54.511411" lon="-3.199216">
        <ele>538.0</ele>
        <time>2014-11-15T14:19:39Z</time>
      </trkpt>
      <trkpt lat="54.511396" lon="-3.19922">
        <ele>539.0</ele>
        <time>2014-11-15T14:19:43Z</time>
      </trkpt>
      <trkpt lat="54.511383" lon="-3.199215">
        <ele>539.0</ele>
        <time>2014-11-15T14:19:47Z</time>
      </trkpt>
      <trkpt lat="54.511436" lon="-3.199218">
        <ele>539.0</ele>
        <time>2014-11-15T14:19:51Z</time>
      </trkpt>
      <trkpt lat="54.51141" lon="-3.199198">
        <ele>538.0</ele>
        <time>2014-11-15T14:19:55Z</time>
      </trkpt>
      <trkpt lat="54.511378" lon="-3.199193">
        <ele>539.0</ele>
        <time>2014-11-15T14:19:59Z</time>
      </trkpt>
      <trkpt lat="54.511436" lon="-3.199193">
        <ele>539.0</ele>
        <time>2014-11-15T14:20:03Z</time>
      </trkpt>
      <trkpt lat="54.511468" lon="-3.199211">
        <ele>539.0</ele>
        <time>2014-11-15T14:20:07Z</time>
      </trkpt>
      <trkpt lat="54.511475" lon="-3.1992">
        <ele>539.0</ele>
        <time>2014-11-15T14:20:11Z</time>
      </trkpt>
      <trkpt lat="54.511516" lon="-3.199216">
        <ele>538.0</ele>
        <time>2014-11-15T14:20:15Z</time>
      </trkpt>
      <trkpt lat="54.511511" lon="-3.199265">
        <ele>538.0</ele>
        <time>2014-11-15T14:20:19Z</time>
      </trkpt>
      <trkpt lat="54.511501" lon="-3.199266">
        <ele>538.0</ele>
        <time>2014-11-15T14:20:23Z</time>
      </trkpt>
      <trkpt lat="54.511533" lon="-3.199283">
        <ele>539.0</ele>
        <time>2014-11-15T14:20:27Z</time>
      </trkpt>
      <trkpt lat="54.511548" lon="-3.19926">
        <ele>538.0</ele>
        <time>2014-11-15T14:20:31Z</time>
      </trkpt>
      <trkpt lat="54.511588" lon="-3.19927">
        <ele>538.0</ele>
        <time>2014-11-15T14:20:35Z</time>
      </trkpt>
      <trkpt lat="54.511581" lon="-3.199238">
        <ele>538.0</ele>
        <time>2014-11-15T14:20:39Z</time>
      </trkpt>
      <trkpt lat="54.51153" lon="-3.199235">
        <ele>538.0</ele>
        <time>2014-11-15T14:20:43Z</time>
      </trkpt>
      <trkpt lat="54.51147" lon="-3.199235">
        <ele>539.0</ele>
        <time>2014-11-15T14:20:47Z</time>
      </trkpt>
      <trkpt lat="54.511493" lon="-3.19926">
        <ele>539.0</ele>
        <time>2014-11-15T14:20:51Z</time>
      </trkpt>
      <trkpt lat="54.511441" lon="-3.199271">
        <ele>538.0</ele>
        <time>2014-11-15T14:20:55Z</time>
      </trkpt>
      <trkpt lat="54.51146" lon="-3.199253">
        <ele>538.0</ele>
        <time>2014-11-15T14:20:59Z</time>
      </trkpt>
      <trkpt lat="54.511433" lon="-3.199231">
        <ele>538.0</ele>
        <time>2014-11-15T14:21:03Z</time>
      </trkpt>
      <trkpt lat="54.511413" lon="-3.199221">
        <ele>538.0</ele>
        <time>2014-11-15T14:21:07Z</time>
      </trkpt>
      <trkpt lat="54.511398" lon="-3.199216">
        <ele>538.0</ele>
        <time>2014-11-15T14:21:11Z</time>
      </trkpt>
      <trkpt lat="54.511376" lon="-3.199208">
        <ele>538.0</ele>
        <time>2014-11-15T14:21:15Z</time>
      </trkpt>
      <trkpt lat="54.511353" lon="-3.1992">
        <ele>539.0</ele>
        <time>2014-11-15T14:21:19Z</time>
      </trkpt>
      <trkpt lat="54.51135" lon="-3.1992">
        <ele>539.0</ele>
        <time>2014-11-15T14:21:23Z</time>
      </trkpt>
      <trkpt lat="54.51136" lon="-3.199205">
        <ele>539.0</ele>
        <time>2014-11-15T14:21:27Z</time>
      </trkpt>
      <trkpt lat="54.511365" lon="-3.199211">
        <ele>539.0</ele>
        <time>2014-11-15T14:21:31Z</time>
      </trkpt>
      <trkpt lat="54.511326" lon="-3.199208">
        <ele>538.0</ele>
        <time>2014-11-15T14:21:35Z</time>
      </trkpt>
      <trkpt lat="54.511385" lon="-3.199226">
        <ele>538.0</ele>
        <time>2014-11-15T14:21:39Z</time>
      </trkpt>
      <trkpt lat="54.511403" lon="-3.199221">
        <ele>539.0</ele>
        <time>2014-11-15T14:21:43Z</time>
      </trkpt>
      <trkpt lat="54.511396" lon="-3.199223">
        <ele>539.0</ele>
        <time>2014-11-15T14:21:47Z</time>
      </trkpt>
      <trkpt lat="54.511345" lon="-3.199215">
        <ele>539.0</ele>
        <time>2014-11-15T14:21:51Z</time>
      </trkpt>
      <trkpt lat="54.511371" lon="-3.199236">
        <ele>539.0</ele>
        <time>2014-11-15T14:21:55Z</time>
      </trkpt>
      <trkpt lat="54.511336" lon="-3.199255">
        <ele>539.0</ele>
        <time>2014-11-15T14:21:59Z</time>
      </trkpt>
      <trkpt lat="54.511295" lon="-3.19924">
        <ele>539.0</ele>
        <time>2014-11-15T14:22:03Z</time>
      </trkpt>
      <trkpt lat="54.511275" lon="-3.199235">
        <ele>538.0</ele>
        <time>2014-11-15T14:22:07Z</time>
      </trkpt>
      <trkpt lat="54.511266" lon="-3.199218">
        <ele>538.0</ele>
        <time>2014-11-15T14:22:11Z</time>
      </trkpt>
      <trkpt lat="54.511211" lon="-3.199203">
        <ele>538.0</ele>
        <time>2014-11-15T14:22:15Z</time>
      </trkpt>
      <trkpt lat="54.511178" lon="-3.199203">
        <ele>539.0</ele>
        <time>2014-11-15T14:22:19Z</time>
      </trkpt>
      <trkpt lat="54.511155" lon="-3.199203">
        <ele>538.0</ele>
        <time>2014-11-15T14:22:23Z</time>
      </trkpt>
      <trkpt lat="54.511163" lon="-3.199206">
        <ele>538.0</ele>
        <time>2014-11-15T14:22:27Z</time>
      </trkpt>
      <trkpt lat="54.511188" lon="-3.19923">
        <ele>539.0</ele>
        <time>2014-11-15T14:22:31Z</time>
      </trkpt>
      <trkpt lat="54.511238" lon="-3.199246">
        <ele>538.0</ele>
        <time>2014-11-15T14:22:35Z</time>
      </trkpt>
      <trkpt lat="54.511251" lon="-3.199241">
        <ele>538.0</ele>
        <time>2014-11-15T14:22:39Z</time>
      </trkpt>
      <trkpt lat="54.511276" lon="-3.199246">
        <ele>538.0</ele>
        <time>2014-11-15T14:22:43Z</time>
      </trkpt>
      <trkpt lat="54.511266" lon="-3.199275">
        <ele>538.0</ele>
        <time>2014-11-15T14:22:47Z</time>
      </trkpt>
      <trkpt lat="54.511231" lon="-3.199276">
        <ele>538.0</ele>
        <time>2014-11-15T14:22:51Z</time>
      </trkpt>
      <trkpt lat="54.511235" lon="-3.199253">
        <ele>538.0</ele>
        <time>2014-11-15T14:22:55Z</time>
      </trkpt>
      <trkpt lat="54.511243" lon="-3.199255">
        <ele>538.0</ele>
        <time>2014-11-15T14:22:59Z</time>
      </trkpt>
      <trkpt lat="54.511283" lon="-3.199286">
        <ele>538.0</ele>
        <time>2014-11-15T14:23:03Z</time>
      </trkpt>
      <trkpt lat="54.511256" lon="-3.199295">
        <ele>538.0</ele>
        <time>2014-11-15T14:23:07Z</time>
      </trkpt>
      <trkpt lat="54.51126" lon="-3.199268">
        <ele>539.0</ele>
        <time>2014-11-15T14:23:11Z</time>
      </trkpt>
      <trkpt lat="54.511286" lon="-3.199296">
        <ele>539.0</ele>
        <time>2014-11-15T14:23:15Z</time>
      </trkpt>
      <trkpt lat="54.51132" lon="-3.199268">
        <ele>538.0</ele>
        <time>2014-11-15T14:23:19Z</time>
      </trkpt>
      <trkpt lat="54.511343" lon="-3.199255">
        <ele>538.0</ele>
        <time>2014-11-15T14:23:23Z</time>
      </trkpt>
      <trkpt lat="54.511303" lon="-3.199256">
        <ele>539.0</ele>
        <time>2014-11-15T14:23:27Z</time>
      </trkpt>
      <trkpt lat="54.511298" lon="-3.199238">
        <ele>538.0</ele>
        <time>2014-11-15T14:23:31Z</time>
      </trkpt>
      <trkpt lat="54.511321" lon="-3.199238">
        <ele>538.0</ele>
        <time>2014-11-15T14:23:35Z</time>
      </trkpt>
      <trkpt lat="54.511315" lon="-3.199255">
        <ele>539.0</ele>
        <time>2014-11-15T14:23:39Z</time>
      </trkpt>
      <trkpt lat="54.511316" lon="-3.19925">
        <ele>539.0</ele>
        <time>2014-11-15T14:23:43Z</time>
      </trkpt>
      <trkpt lat="54.511326" lon="-3.199255">
        <ele>538.0</ele>
        <time>2014-11-15T14:23:47Z</time>
      </trkpt>
      <trkpt lat="54.511335" lon="-3.199256">
        <ele>539.0</ele>
        <time>2014-11-15T14:23:51Z</time>
      </trkpt>
      <trkpt lat="54.511343" lon="-3.199236">
        <ele>539.0</ele>
        <time>2014-11-15T14:23:55Z</time>
      </trkpt>
      <trkpt lat="54.511375" lon="-3.199238">
        <ele>539.0</ele>
        <time>2014-11-15T14:23:59Z</time>
      </trkpt>
      <trkpt lat="54.51138" lon="-3.199266">
        <ele>539.0</ele>
        <time>2014-11-15T14:24:03Z</time>
      </trkpt>
      <trkpt lat="54.511378" lon="-3.199276">
        <ele>539.0</ele>
        <time>2014-11-15T14:24:07Z</time>
      </trkpt>
      <trkpt lat="54.511408" lon="-3.19926">
        <ele>539.0</ele>
        <time>2014-11-15T14:24:11Z</time>
      </trkpt>
      <trkpt lat="54.511453" lon="-3.199196">
        <ele>538.0</ele>
        <time>2014-11-15T14:24:15Z</time>
      </trkpt>
      <trkpt lat="54.511428" lon="-3.199196">
        <ele>538.0</ele>
        <time>2014-11-15T14:24:19Z</time>
      </trkpt>
      <trkpt lat="54.511436" lon="-3.199206">
        <ele>538.0</ele>
        <time>2014-11-15T14:24:23Z</time>
      </trkpt>
      <trkpt lat="54.511448" lon="-3.199175">
        <ele>538.0</ele>
        <time>2014-11-15T14:24:27Z</time>
      </trkpt>
      <trkpt lat="54.511421" lon="-3.199148">
        <ele>539.0</ele>
        <time>2014-11-15T14:24:31Z</time>
      </trkpt>
      <trkpt lat="54.511358" lon="-3.199195">
        <ele>539.0</ele>
        <time>2014-11-15T14:24:35Z</time>
      </trkpt>
      <trkpt lat="54.511421" lon="-3.1992">
        <ele>538.0</ele>
        <time>2014-11-15T14:24:39Z</time>
      </trkpt>
      <trkpt lat="54.511463" lon="-3.199213">
        <ele>538.0</ele>
        <time>2014-11-15T14:24:43Z</time>
      </trkpt>
      <trkpt lat="54.511486" lon="-3.199228">
        <ele>538.0</ele>
        <time>2014-11-15T14:24:47Z</time>
      </trkpt>
      <trkpt lat="54.511485" lon="-3.199215">
        <ele>538.0</ele>
        <time>2014-11-15T14:24:51Z</time>
      </trkpt>
      <trkpt lat="54.51144" lon="-3.19929">
        <ele>539.0</ele>
        <time>2014-11-15T14:24:55Z</time>
      </trkpt>
      <trkpt lat="54.511415" lon="-3.199283">
        <ele>538.0</ele>
        <time>2014-11-15T14:24:59Z</time>
      </trkpt>
      <trkpt lat="54.511411" lon="-3.199265">
        <ele>540.0</ele>
        <time>2014-11-15T14:25:03Z</time>
      </trkpt>
      <trkpt lat="54.511416" lon="-3.199265">
        <ele>538.0</ele>
        <time>2014-11-15T14:25:07Z</time>
      </trkpt>
      <trkpt lat="54.511403" lon="-3.199245">
        <ele>538.0</ele>
        <time>2014-11-15T14:25:11Z</time>
      </trkpt>
      <trkpt lat="54.51142" lon="-3.19921">
        <ele>539.0</ele>
        <time>2014-11-15T14:25:15Z</time>
      </trkpt>
      <trkpt lat="54.511415" lon="-3.199213">
        <ele>538.0</ele>
        <time>2014-11-15T14:25:19Z</time>
      </trkpt>
      <trkpt lat="54.51142" lon="-3.199218">
        <ele>538.0</ele>
        <time>2014-11-15T14:25:23Z</time>
      </trkpt>
      <trkpt lat="54.511411" lon="-3.199226">
        <ele>539.0</ele>
        <time>2014-11-15T14:25:27Z</time>
      </trkpt>
      <trkpt lat="54.511386" lon="-3.199256">
        <ele>538.0</ele>
        <time>2014-11-15T14:25:31Z</time>
      </trkpt>
      <trkpt lat="54.511415" lon="-3.1993">
        <ele>538.0</ele>
        <time>2014-11-15T14:25:35Z</time>
      </trkpt>
      <trkpt lat="54.511388" lon="-3.199415">
        <ele>538.0</ele>
        <time>2014-11-15T14:25:39Z</time>
      </trkpt>
      <trkpt lat="54.511381" lon="-3.199305">
        <ele>538.0</ele>
        <time>2014-11-15T14:25:43Z</time>
      </trkpt>
      <trkpt lat="54.511396" lon="-3.19918">
        <ele>538.0</ele>
        <time>2014-11-15T14:25:47Z</time>
      </trkpt>
      <trkpt lat="54.511466" lon="-3.1991">
        <ele>538.0</ele>
        <time>2014-11-15T14:25:51Z</time>
      </trkpt>
      <trkpt lat="54.511496" lon="-3.198958">
        <ele>538.0</ele>
        <time>2014-11-15T14:25:55Z</time>
      </trkpt>
      <trkpt lat="54.511498" lon="-3.198805">
        <ele>540.0</ele>
        <time>2014-11-15T14:25:59Z</time>
      </trkpt>
      <trkpt lat="54.511478" lon="-3.198646">
        <ele>541.0</ele>
        <time>2014-11-15T14:26:03Z</time>
      </trkpt>
      <trkpt lat="54.511461" lon="-3.198485">
        <ele>542.0</ele>
        <time>2014-11-15T14:26:07Z</time>
      </trkpt>
      <trkpt lat="54.511471" lon="-3.198298">
        <ele>543.0</ele>
        <time>2014-11-15T14:26:11Z</time>
      </trkpt>
      <trkpt lat="54.511533" lon="-3.198093">
        <ele>543.0</ele>
        <time>2014-11-15T14:26:15Z</time>
      </trkpt>
      <trkpt lat="54.511591" lon="-3.197813">
        <ele>543.0</ele>
        <time>2014-11-15T14:26:19Z</time>
      </trkpt>
      <trkpt lat="54.51164" lon="-3.197513">
        <ele>543.0</ele>
        <time>2014-11-15T14:26:23Z</time>
      </trkpt>
      <trkpt lat="54.511696" lon="-3.197173">
        <ele>542.0</ele>
        <time>2014-11-15T14:26:27Z</time>
      </trkpt>
      <trkpt lat="54.51174" lon="-3.196801">
        <ele>541.0</ele>
        <time>2014-11-15T14:26:31Z</time>
      </trkpt>
      <trkpt lat="54.511806" lon="-3.1964">
        <ele>540.0</ele>
        <time>2014-11-15T14:26:35Z</time>
      </trkpt>
      <trkpt lat="54.511913" lon="-3.19597">
        <ele>539.0</ele>
        <time>2014-11-15T14:26:39Z</time>
      </trkpt>
      <trkpt lat="54.512121" lon="-3.195663">
        <ele>535.0</ele>
        <time>2014-11-15T14:26:43Z</time>
      </trkpt>
      <trkpt lat="54.512315" lon="-3.19535">
        <ele>531.0</ele>
        <time>2014-11-15T14:26:47Z</time>
      </trkpt>
      <trkpt lat="54.512533" lon="-3.194846">
        <ele>527.0</ele>
        <time>2014-11-15T14:26:51Z</time>
      </trkpt>
      <trkpt lat="54.512738" lon="-3.19431">
        <ele>521.0</ele>
        <time>2014-11-15T14:26:55Z</time>
      </trkpt>
      <trkpt lat="54.51291" lon="-3.193958">
        <ele>515.0</ele>
        <time>2014-11-15T14:26:59Z</time>
      </trkpt>
      <trkpt lat="54.512955" lon="-3.193326">
        <ele>510.0</ele>
        <time>2014-11-15T14:27:03Z</time>
      </trkpt>
      <trkpt lat="54.512943" lon="-3.192553">
        <ele>506.0</ele>
        <time>2014-11-15T14:27:07Z</time>
      </trkpt>
      <trkpt lat="54.51289" lon="-3.19176">
        <ele>499.0</ele>
        <time>2014-11-15T14:27:11Z</time>
      </trkpt>
      <trkpt lat="54.512721" lon="-3.191115">
        <ele>495.0</ele>
        <time>2014-11-15T14:27:15Z</time>
      </trkpt>
      <trkpt lat="54.51242" lon="-3.190613">
        <ele>490.0</ele>
        <time>2014-11-15T14:27:19Z</time>
      </trkpt>
      <trkpt lat="54.512213" lon="-3.189996">
        <ele>486.0</ele>
        <time>2014-11-15T14:27:23Z</time>
      </trkpt>
      <trkpt lat="54.512221" lon="-3.189301">
        <ele>483.0</ele>
        <time>2014-11-15T14:27:27Z</time>
      </trkpt>
      <trkpt lat="54.51237" lon="-3.188695">
        <ele>480.0</ele>
        <time>2014-11-15T14:27:31Z</time>
      </trkpt>
      <trkpt lat="54.512463" lon="-3.188108">
        <ele>480.0</ele>
        <time>2014-11-15T14:27:35Z</time>
      </trkpt>
      <trkpt lat="54.512496" lon="-3.187563">
        <ele>480.0</ele>
        <time>2014-11-15T14:27:39Z</time>
      </trkpt>
      <trkpt lat="54.512476" lon="-3.186938">
        <ele>478.0</ele>
        <time>2014-11-15T14:27:43Z</time>
      </trkpt>
      <trkpt lat="54.512603" lon="-3.186446">
        <ele>478.0</ele>
        <time>2014-11-15T14:27:47Z</time>
      </trkpt>
      <trkpt lat="54.512755" lon="-3.185991">
        <ele>475.0</ele>
        <time>2014-11-15T14:27:51Z</time>
      </trkpt>
      <trkpt lat="54.51294" lon="-3.185535">
        <ele>474.0</ele>
        <time>2014-11-15T14:27:55Z</time>
      </trkpt>
      <trkpt lat="54.51304" lon="-3.184938">
        <ele>472.0</ele>
        <time>2014-11-15T14:27:59Z</time>
      </trkpt>
      <trkpt lat="54.513215" lon="-3.184423">
        <ele>469.0</ele>
        <time>2014-11-15T14:28:03Z</time>
      </trkpt>
      <trkpt lat="54.513533" lon="-3.184216">
        <ele>464.0</ele>
        <time>2014-11-15T14:28:07Z</time>
      </trkpt>
      <trkpt lat="54.513716" lon="-3.183853">
        <ele>463.0</ele>
        <time>2014-11-15T14:28:11Z</time>
      </trkpt>
      <trkpt lat="54.51377" lon="-3.183315">
        <ele>460.0</ele>
        <time>2014-11-15T14:28:15Z</time>
      </trkpt>
      <trkpt lat="54.513808" lon="-3.18275">
        <ele>455.0</ele>
        <time>2014-11-15T14:28:19Z</time>
      </trkpt>
      <trkpt lat="54.514046" lon="-3.182221">
        <ele>451.0</ele>
        <time>2014-11-15T14:28:23Z</time>
      </trkpt>
      <trkpt lat="54.514218" lon="-3.181651">
        <ele>446.0</ele>
        <time>2014-11-15T14:28:27Z</time>
      </trkpt>
      <trkpt lat="54.514353" lon="-3.181141">
        <ele>444.0</ele>
        <time>2014-11-15T14:28:31Z</time>
      </trkpt>
      <trkpt lat="54.514501" lon="-3.180543">
        <ele>441.0</ele>
        <time>2014-11-15T14:28:35Z</time>
      </trkpt>
      <trkpt lat="54.51463" lon="-3.18002">
        <ele>437.0</ele>
        <time>2014-11-15T14:28:39Z</time>
      </trkpt>
      <trkpt lat="54.514658" lon="-3.179406">
        <ele>432.0</ele>
        <time>2014-11-15T14:28:43Z</time>
      </trkpt>
      <trkpt lat="54.51473" lon="-3.17882">
        <ele>427.0</ele>
        <time>2014-11-15T14:28:47Z</time>
      </trkpt>
      <trkpt lat="54.514711" lon="-3.178348">
        <ele>421.0</ele>
        <time>2014-11-15T14:28:51Z</time>
      </trkpt>
      <trkpt lat="54.51463" lon="-3.177775">
        <ele>415.0</ele>
        <time>2014-11-15T14:28:55Z</time>
      </trkpt>
      <trkpt lat="54.514686" lon="-3.177188">
        <ele>408.0</ele>
        <time>2014-11-15T14:28:59Z</time>
      </trkpt>
      <trkpt lat="54.514661" lon="-3.176608">
        <ele>400.0</ele>
        <time>2014-11-15T14:29:03Z</time>
      </trkpt>
      <trkpt lat="54.5146" lon="-3.176053">
        <ele>393.0</ele>
        <time>2014-11-15T14:29:07Z</time>
      </trkpt>
      <trkpt lat="54.514598" lon="-3.175435">
        <ele>386.0</ele>
        <time>2014-11-15T14:29:11Z</time>
      </trkpt>
      <trkpt lat="54.514663" lon="-3.174703">
        <ele>376.0</ele>
        <time>2014-11-15T14:29:15Z</time>
      </trkpt>
      <trkpt lat="54.514815" lon="-3.174045">
        <ele>368.0</ele>
        <time>2014-11-15T14:29:19Z</time>
      </trkpt>
      <trkpt lat="54.514898" lon="-3.173416">
        <ele>363.0</ele>
        <time>2014-11-15T14:29:23Z</time>
      </trkpt>
      <trkpt lat="54.514918" lon="-3.1728">
        <ele>357.0</ele>
        <time>2014-11-15T14:29:27Z</time>
      </trkpt>
      <trkpt lat="54.514951" lon="-3.172246">
        <ele>350.0</ele>
        <time>2014-11-15T14:29:31Z</time>
      </trkpt>
      <trkpt lat="54.514905" lon="-3.171743">
        <ele>345.0</ele>
        <time>2014-11-15T14:29:35Z</time>
      </trkpt>
      <trkpt lat="54.514861" lon="-3.17109">
        <ele>339.0</ele>
        <time>2014-11-15T14:29:39Z</time>
      </trkpt>
      <trkpt lat="54.51489" lon="-3.170435">
        <ele>334.0</ele>
        <time>2014-11-15T14:29:43Z</time>
      </trkpt>
      <trkpt lat="54.514915" lon="-3.169815">
        <ele>331.0</ele>
        <time>2014-11-15T14:29:47Z</time>
      </trkpt>
      <trkpt lat="54.514916" lon="-3.169346">
        <ele>327.0</ele>
        <time>2014-11-15T14:29:51Z</time>
      </trkpt>
      <trkpt lat="54.514683" lon="-3.168998">
        <ele>323.0</ele>
        <time>2014-11-15T14:29:55Z</time>
      </trkpt>
      <trkpt lat="54.514291" lon="-3.16866">
        <ele>317.0</ele>
        <time>2014-11-15T14:29:59Z</time>
      </trkpt>
      <trkpt lat="54.513946" lon="-3.168416">
        <ele>310.0</ele>
        <time>2014-11-15T14:30:03Z</time>
      </trkpt>
      <trkpt lat="54.51369" lon="-3.168005">
        <ele>305.0</ele>
        <time>2014-11-15T14:30:07Z</time>
      </trkpt>
      <trkpt lat="54.513603" lon="-3.167536">
        <ele>302.0</ele>
        <time>2014-11-15T14:30:11Z</time>
      </trkpt>
      <trkpt lat="54.513451" lon="-3.167135">
        <ele>300.0</ele>
        <time>2014-11-15T14:30:15Z</time>
      </trkpt>
      <trkpt lat="54.51322" lon="-3.166735">
        <ele>298.0</ele>
        <time>2014-11-15T14:30:19Z</time>
      </trkpt>
      <trkpt lat="54.512965" lon="-3.166341">
        <ele>297.0</ele>
        <time>2014-11-15T14:30:23Z</time>
      </trkpt>
      <trkpt lat="54.512888" lon="-3.165815">
        <ele>295.0</ele>
        <time>2014-11-15T14:30:27Z</time>
      </trkpt>
      <trkpt lat="54.512915" lon="-3.165218">
        <ele>294.0</ele>
        <time>2014-11-15T14:30:31Z</time>
      </trkpt>
      <trkpt lat="54.512923" lon="-3.1646">
        <ele>293.0</ele>
        <time>2014-11-15T14:30:35Z</time>
      </trkpt>
      <trkpt lat="54.512886" lon="-3.164043">
        <ele>291.0</ele>
        <time>2014-11-15T14:30:39Z</time>
      </trkpt>
      <trkpt lat="54.512853" lon="-3.163443">
        <ele>290.0</ele>
        <time>2014-11-15T14:30:43Z</time>
      </trkpt>
      <trkpt lat="54.512871" lon="-3.16283">
        <ele>289.0</ele>
        <time>2014-11-15T14:30:47Z</time>
      </trkpt>
      <trkpt lat="54.51287" lon="-3.162215">
        <ele>288.0</ele>
        <time>2014-11-15T14:30:51Z</time>
      </trkpt>
      <trkpt lat="54.512981" lon="-3.161658">
        <ele>287.0</ele>
        <time>2014-11-15T14:30:55Z</time>
      </trkpt>
      <trkpt lat="54.513053" lon="-3.161018">
        <ele>287.0</ele>
        <time>2014-11-15T14:30:59Z</time>
      </trkpt>
      <trkpt lat="54.51312" lon="-3.16049">
        <ele>285.0</ele>
        <time>2014-11-15T14:31:03Z</time>
      </trkpt>
      <trkpt lat="54.51316" lon="-3.159905">
        <ele>285.0</ele>
        <time>2014-11-15T14:31:07Z</time>
      </trkpt>
      <trkpt lat="54.513195" lon="-3.159346">
        <ele>284.0</ele>
        <time>2014-11-15T14:31:11Z</time>
      </trkpt>
      <trkpt lat="54.513233" lon="-3.158831">
        <ele>284.0</ele>
        <time>2014-11-15T14:31:15Z</time>
      </trkpt>
      <trkpt lat="54.513255" lon="-3.158296">
        <ele>285.0</ele>
        <time>2014-11-15T14:31:19Z</time>
      </trkpt>
      <trkpt lat="54.513288" lon="-3.15783">
        <ele>284.0</ele>
        <time>2014-11-15T14:31:23Z</time>
      </trkpt>
      <trkpt lat="54.513445" lon="-3.157408">
        <ele>283.0</ele>
        <time>2014-11-15T14:31:27Z</time>
      </trkpt>
      <trkpt lat="54.513726" lon="-3.157208">
        <ele>283.0</ele>
        <time>2014-11-15T14:31:31Z</time>
      </trkpt>
      <trkpt lat="54.513928" lon="-3.15685">
        <ele>283.0</ele>
        <time>2014-11-15T14:31:35Z</time>
      </trkpt>
      <trkpt lat="54.514148" lon="-3.15654">
        <ele>284.0</ele>
        <time>2014-11-15T14:31:39Z</time>
      </trkpt>
      <trkpt lat="54.514321" lon="-3.15614">
        <ele>283.0</ele>
        <time>2014-11-15T14:31:43Z</time>
      </trkpt>
      <trkpt lat="54.514456" lon="-3.155678">
        <ele>283.0</ele>
        <time>2014-11-15T14:31:47Z</time>
      </trkpt>
      <trkpt lat="54.514585" lon="-3.155223">
        <ele>283.0</ele>
        <time>2014-11-15T14:31:51Z</time>
      </trkpt>
      <trkpt lat="54.514671" lon="-3.154743">
        <ele>283.0</ele>
        <time>2014-11-15T14:31:55Z</time>
      </trkpt>
      <trkpt lat="54.514791" lon="-3.154296">
        <ele>283.0</ele>
        <time>2014-11-15T14:31:59Z</time>
      </trkpt>
      <trkpt lat="54.514886" lon="-3.153811">
        <ele>282.0</ele>
        <time>2014-11-15T14:32:03Z</time>
      </trkpt>
      <trkpt lat="54.515048" lon="-3.153393">
        <ele>282.0</ele>
        <time>2014-11-15T14:32:07Z</time>
      </trkpt>
      <trkpt lat="54.515233" lon="-3.153026">
        <ele>281.0</ele>
        <time>2014-11-15T14:32:11Z</time>
      </trkpt>
      <trkpt lat="54.51543" lon="-3.152725">
        <ele>281.0</ele>
        <time>2014-11-15T14:32:15Z</time>
      </trkpt>
      <trkpt lat="54.515531" lon="-3.152306">
        <ele>282.0</ele>
        <time>2014-11-15T14:32:19Z</time>
      </trkpt>
      <trkpt lat="54.515563" lon="-3.151908">
        <ele>283.0</ele>
        <time>2014-11-15T14:32:23Z</time>
      </trkpt>
      <trkpt lat="54.515661" lon="-3.15147">
        <ele>283.0</ele>
        <time>2014-11-15T14:32:27Z</time>
      </trkpt>
      <trkpt lat="54.51583" lon="-3.151021">
        <ele>282.0</ele>
        <time>2014-11-15T14:32:31Z</time>
      </trkpt>
      <trkpt lat="54.51597" lon="-3.150641">
        <ele>282.0</ele>
        <time>2014-11-15T14:32:35Z</time>
      </trkpt>
      <trkpt lat="54.516096" lon="-3.150328">
        <ele>282.0</ele>
        <time>2014-11-15T14:32:39Z</time>
      </trkpt>
      <trkpt lat="54.51635" lon="-3.150133">
        <ele>282.0</ele>
        <time>2014-11-15T14:32:43Z</time>
      </trkpt>
      <trkpt lat="54.516613" lon="-3.149888">
        <ele>281.0</ele>
        <time>2014-11-15T14:32:47Z</time>
      </trkpt>
      <trkpt lat="54.516901" lon="-3.149646">
        <ele>280.0</ele>
        <time>2014-11-15T14:32:51Z</time>
      </trkpt>
      <trkpt lat="54.517136" lon="-3.149358">
        <ele>280.0</ele>
        <time>2014-11-15T14:32:55Z</time>
      </trkpt>
      <trkpt lat="54.517398" lon="-3.149108">
        <ele>279.0</ele>
        <time>2014-11-15T14:32:59Z</time>
      </trkpt>
      <trkpt lat="54.517628" lon="-3.148891">
        <ele>279.0</ele>
        <time>2014-11-15T14:33:03Z</time>
      </trkpt>
      <trkpt lat="54.51784" lon="-3.148595">
        <ele>279.0</ele>
        <time>2014-11-15T14:33:07Z</time>
      </trkpt>
      <trkpt lat="54.518098" lon="-3.148371">
        <ele>279.0</ele>
        <time>2014-11-15T14:33:11Z</time>
      </trkpt>
      <trkpt lat="54.518323" lon="-3.148108">
        <ele>278.0</ele>
        <time>2014-11-15T14:33:15Z</time>
      </trkpt>
      <trkpt lat="54.518553" lon="-3.147821">
        <ele>278.0</ele>
        <time>2014-11-15T14:33:19Z</time>
      </trkpt>
      <trkpt lat="54.518791" lon="-3.147606">
        <ele>278.0</ele>
        <time>2014-11-15T14:33:23Z</time>
      </trkpt>
      <trkpt lat="54.519068" lon="-3.147391">
        <ele>277.0</ele>
        <time>2014-11-15T14:33:27Z</time>
      </trkpt>
      <trkpt lat="54.519358" lon="-3.147175">
        <ele>277.0</ele>
        <time>2014-11-15T14:33:31Z</time>
      </trkpt>
      <trkpt lat="54.519685" lon="-3.147048">
        <ele>276.0</ele>
        <time>2014-11-15T14:33:35Z</time>
      </trkpt>
      <trkpt lat="54.52002" lon="-3.147015">
        <ele>276.0</ele>
        <time>2014-11-15T14:33:39Z</time>
      </trkpt>
      <trkpt lat="54.52028" lon="-3.147006">
        <ele>276.0</ele>
        <time>2014-11-15T14:33:43Z</time>
      </trkpt>
      <trkpt lat="54.520526" lon="-3.147105">
        <ele>276.0</ele>
        <time>2014-11-15T14:33:47Z</time>
      </trkpt>
      <trkpt lat="54.520805" lon="-3.147168">
        <ele>276.0</ele>
        <time>2014-11-15T14:33:51Z</time>
      </trkpt>
      <trkpt lat="54.521083" lon="-3.147056">
        <ele>276.0</ele>
        <time>2014-11-15T14:33:55Z</time>
      </trkpt>
      <trkpt lat="54.52127" lon="-3.146851">
        <ele>277.0</ele>
        <time>2014-11-15T14:33:59Z</time>
      </trkpt>
      <trkpt lat="54.521528" lon="-3.146723">
        <ele>278.0</ele>
        <time>2014-11-15T14:34:03Z</time>
      </trkpt>
      <trkpt lat="54.521783" lon="-3.146726">
        <ele>277.0</ele>
        <time>2014-11-15T14:34:07Z</time>
      </trkpt>
      <trkpt lat="54.522101" lon="-3.14666">
        <ele>276.0</ele>
        <time>2014-11-15T14:34:11Z</time>
      </trkpt>
      <trkpt lat="54.522441" lon="-3.14655">
        <ele>274.0</ele>
        <time>2014-11-15T14:34:15Z</time>
      </trkpt>
      <trkpt lat="54.522793" lon="-3.146546">
        <ele>272.0</ele>
        <time>2014-11-15T14:34:19Z</time>
      </trkpt>
      <trkpt lat="54.523068" lon="-3.146818">
        <ele>272.0</ele>
        <time>2014-11-15T14:34:23Z</time>
      </trkpt>
      <trkpt lat="54.523336" lon="-3.146948">
        <ele>271.0</ele>
        <time>2014-11-15T14:34:27Z</time>
      </trkpt>
      <trkpt lat="54.523605" lon="-3.146918">
        <ele>271.0</ele>
        <time>2014-11-15T14:34:31Z</time>
      </trkpt>
      <trkpt lat="54.523885" lon="-3.147058">
        <ele>270.0</ele>
        <time>2014-11-15T14:34:35Z</time>
      </trkpt>
      <trkpt lat="54.524098" lon="-3.14738">
        <ele>269.0</ele>
        <time>2014-11-15T14:34:39Z</time>
      </trkpt>
      <trkpt lat="54.524316" lon="-3.147763">
        <ele>269.0</ele>
        <time>2014-11-15T14:34:43Z</time>
      </trkpt>
      <trkpt lat="54.524501" lon="-3.148163">
        <ele>269.0</ele>
        <time>2014-11-15T14:34:47Z</time>
      </trkpt>
      <trkpt lat="54.52471" lon="-3.14852">
        <ele>269.0</ele>
        <time>2014-11-15T14:34:51Z</time>
      </trkpt>
      <trkpt lat="54.524975" lon="-3.148818">
        <ele>269.0</ele>
        <time>2014-11-15T14:34:55Z</time>
      </trkpt>
      <trkpt lat="54.525228" lon="-3.149113">
        <ele>268.0</ele>
        <time>2014-11-15T14:34:59Z</time>
      </trkpt>
      <trkpt lat="54.525471" lon="-3.149433">
        <ele>268.0</ele>
        <time>2014-11-15T14:35:03Z</time>
      </trkpt>
      <trkpt lat="54.525716" lon="-3.1496">
        <ele>268.0</ele>
        <time>2014-11-15T14:35:07Z</time>
      </trkpt>
      <trkpt lat="54.525961" lon="-3.149738">
        <ele>269.0</ele>
        <time>2014-11-15T14:35:11Z</time>
      </trkpt>
      <trkpt lat="54.526228" lon="-3.149926">
        <ele>269.0</ele>
        <time>2014-11-15T14:35:15Z</time>
      </trkpt>
      <trkpt lat="54.526483" lon="-3.150265">
        <ele>268.0</ele>
        <time>2014-11-15T14:35:19Z</time>
      </trkpt>
      <trkpt lat="54.526708" lon="-3.150578">
        <ele>267.0</ele>
        <time>2014-11-15T14:35:23Z</time>
      </trkpt>
      <trkpt lat="54.526981" lon="-3.150838">
        <ele>266.0</ele>
        <time>2014-11-15T14:35:27Z</time>
      </trkpt>
      <trkpt lat="54.527286" lon="-3.151083">
        <ele>266.0</ele>
        <time>2014-11-15T14:35:31Z</time>
      </trkpt>
      <trkpt lat="54.527561" lon="-3.151318">
        <ele>265.0</ele>
        <time>2014-11-15T14:35:35Z</time>
      </trkpt>
      <trkpt lat="54.527848" lon="-3.151416">
        <ele>266.0</ele>
        <time>2014-11-15T14:35:39Z</time>
      </trkpt>
      <trkpt lat="54.528141" lon="-3.151463">
        <ele>265.0</ele>
        <time>2014-11-15T14:35:43Z</time>
      </trkpt>
      <trkpt lat="54.528433" lon="-3.151485">
        <ele>265.0</ele>
        <time>2014-11-15T14:35:47Z</time>
      </trkpt>
      <trkpt lat="54.52874" lon="-3.15154">
        <ele>264.0</ele>
        <time>2014-11-15T14:35:51Z</time>
      </trkpt>
      <trkpt lat="54.529036" lon="-3.151593">
        <ele>265.0</ele>
        <time>2014-11-15T14:35:55Z</time>
      </trkpt>
      <trkpt lat="54.529363" lon="-3.151668">
        <ele>263.0</ele>
        <time>2014-11-15T14:35:59Z</time>
      </trkpt>
      <trkpt lat="54.529675" lon="-3.15179">
        <ele>263.0</ele>
        <time>2014-11-15T14:36:03Z</time>
      </trkpt>
      <trkpt lat="54.52999" lon="-3.151896">
        <ele>264.0</ele>
        <time>2014-11-15T14:36:07Z</time>
      </trkpt>
      <trkpt lat="54.530313" lon="-3.151931">
        <ele>264.0</ele>
        <time>2014-11-15T14:36:11Z</time>
      </trkpt>
      <trkpt lat="54.530611" lon="-3.151743">
        <ele>264.0</ele>
        <time>2014-11-15T14:36:15Z</time>
      </trkpt>
      <trkpt lat="54.530863" lon="-3.151525">
        <ele>264.0</ele>
        <time>2014-11-15T14:36:19Z</time>
      </trkpt>
      <trkpt lat="54.531123" lon="-3.151373">
        <ele>264.0</ele>
        <time>2014-11-15T14:36:23Z</time>
      </trkpt>
      <trkpt lat="54.531436" lon="-3.151258">
        <ele>264.0</ele>
        <time>2014-11-15T14:36:27Z</time>
      </trkpt>
      <trkpt lat="54.531703" lon="-3.15119">
        <ele>264.0</ele>
        <time>2014-11-15T14:36:31Z</time>
      </trkpt>
      <trkpt lat="54.53199" lon="-3.151125">
        <ele>264.0</ele>
        <time>2014-11-15T14:36:35Z</time>
      </trkpt>
      <trkpt lat="54.532245" lon="-3.15114">
        <ele>264.0</ele>
        <time>2014-11-15T14:36:39Z</time>
      </trkpt>
      <trkpt lat="54.532551" lon="-3.151238">
        <ele>264.0</ele>
        <time>2014-11-15T14:36:43Z</time>
      </trkpt>
      <trkpt lat="54.532778" lon="-3.151473">
        <ele>264.0</ele>
        <time>2014-11-15T14:36:47Z</time>
      </trkpt>
      <trkpt lat="54.532828" lon="-3.151826">
        <ele>265.0</ele>
        <time>2014-11-15T14:36:51Z</time>
      </trkpt>
      <trkpt lat="54.532833" lon="-3.152128">
        <ele>267.0</ele>
        <time>2014-11-15T14:36:55Z</time>
      </trkpt>
      <trkpt lat="54.532915" lon="-3.1524">
        <ele>268.0</ele>
        <time>2014-11-15T14:36:59Z</time>
      </trkpt>
      <trkpt lat="54.533086" lon="-3.152635">
        <ele>269.0</ele>
        <time>2014-11-15T14:37:03Z</time>
      </trkpt>
      <trkpt lat="54.533325" lon="-3.152776">
        <ele>269.0</ele>
        <time>2014-11-15T14:37:07Z</time>
      </trkpt>
      <trkpt lat="54.533565" lon="-3.152853">
        <ele>268.0</ele>
        <time>2014-11-15T14:37:11Z</time>
      </trkpt>
      <trkpt lat="54.533736" lon="-3.152965">
        <ele>268.0</ele>
        <time>2014-11-15T14:37:15Z</time>
      </trkpt>
      <trkpt lat="54.533953" lon="-3.153218">
        <ele>270.0</ele>
        <time>2014-11-15T14:37:19Z</time>
      </trkpt>
      <trkpt lat="54.53411" lon="-3.153445">
        <ele>271.0</ele>
        <time>2014-11-15T14:37:23Z</time>
      </trkpt>
      <trkpt lat="54.534338" lon="-3.153595">
        <ele>271.0</ele>
        <time>2014-11-15T14:37:27Z</time>
      </trkpt>
      <trkpt lat="54.534661" lon="-3.153715">
        <ele>269.0</ele>
        <time>2014-11-15T14:37:31Z</time>
      </trkpt>
      <trkpt lat="54.53503" lon="-3.15386">
        <ele>266.0</ele>
        <time>2014-11-15T14:37:35Z</time>
      </trkpt>
      <trkpt lat="54.535393" lon="-3.153988">
        <ele>264.0</ele>
        <time>2014-11-15T14:37:39Z</time>
      </trkpt>
      <trkpt lat="54.535708" lon="-3.153933">
        <ele>263.0</ele>
        <time>2014-11-15T14:37:43Z</time>
      </trkpt>
      <trkpt lat="54.535948" lon="-3.153888">
        <ele>264.0</ele>
        <time>2014-11-15T14:37:47Z</time>
      </trkpt>
      <trkpt lat="54.536191" lon="-3.154036">
        <ele>264.0</ele>
        <time>2014-11-15T14:37:51Z</time>
      </trkpt>
      <trkpt lat="54.536333" lon="-3.154238">
        <ele>266.0</ele>
        <time>2014-11-15T14:37:55Z</time>
      </trkpt>
      <trkpt lat="54.536415" lon="-3.154421">
        <ele>267.0</ele>
        <time>2014-11-15T14:37:59Z</time>
      </trkpt>
      <trkpt lat="54.536556" lon="-3.154573">
        <ele>268.0</ele>
        <time>2014-11-15T14:38:03Z</time>
      </trkpt>
      <trkpt lat="54.536693" lon="-3.154806">
        <ele>268.0</ele>
        <time>2014-11-15T14:38:07Z</time>
      </trkpt>
      <trkpt lat="54.536816" lon="-3.155061">
        <ele>269.0</ele>
        <time>2014-11-15T14:38:11Z</time>
      </trkpt>
      <trkpt lat="54.536983" lon="-3.155323">
        <ele>268.0</ele>
        <time>2014-11-15T14:38:15Z</time>
      </trkpt>
      <trkpt lat="54.537306" lon="-3.15559">
        <ele>265.0</ele>
        <time>2014-11-15T14:38:19Z</time>
      </trkpt>
      <trkpt lat="54.53758" lon="-3.155895">
        <ele>264.0</ele>
        <time>2014-11-15T14:38:23Z</time>
      </trkpt>
      <trkpt lat="54.537953" lon="-3.15612">
        <ele>263.0</ele>
        <time>2014-11-15T14:38:27Z</time>
      </trkpt>
      <trkpt lat="54.538155" lon="-3.156305">
        <ele>262.0</ele>
        <time>2014-11-15T14:38:31Z</time>
      </trkpt>
      <trkpt lat="54.538425" lon="-3.156558">
        <ele>263.0</ele>
        <time>2014-11-15T14:38:35Z</time>
      </trkpt>
      <trkpt lat="54.538565" lon="-3.156943">
        <ele>264.0</ele>
        <time>2014-11-15T14:38:39Z</time>
      </trkpt>
      <trkpt lat="54.53873" lon="-3.157245">
        <ele>264.0</ele>
        <time>2014-11-15T14:38:43Z</time>
      </trkpt>
      <trkpt lat="54.538845" lon="-3.157516">
        <ele>266.0</ele>
        <time>2014-11-15T14:38:47Z</time>
      </trkpt>
      <trkpt lat="54.538938" lon="-3.157771">
        <ele>267.0</ele>
        <time>2014-11-15T14:38:51Z</time>
      </trkpt>
      <trkpt lat="54.53909" lon="-3.15794">
        <ele>268.0</ele>
        <time>2014-11-15T14:38:55Z</time>
      </trkpt>
      <trkpt lat="54.539223" lon="-3.158133">
        <ele>269.0</ele>
        <time>2014-11-15T14:38:59Z</time>
      </trkpt>
      <trkpt lat="54.539406" lon="-3.158248">
        <ele>269.0</ele>
        <time>2014-11-15T14:39:03Z</time>
      </trkpt>
      <trkpt lat="54.53963" lon="-3.158241">
        <ele>270.0</ele>
        <time>2014-11-15T14:39:07Z</time>
      </trkpt>
      <trkpt lat="54.539845" lon="-3.158183">
        <ele>270.0</ele>
        <time>2014-11-15T14:39:11Z</time>
      </trkpt>
      <trkpt lat="54.54002" lon="-3.158078">
        <ele>271.0</ele>
        <time>2014-11-15T14:39:15Z</time>
      </trkpt>
      <trkpt lat="54.540291" lon="-3.15787">
        <ele>270.0</ele>
        <time>2014-11-15T14:39:19Z</time>
      </trkpt>
      <trkpt lat="54.540496" lon="-3.157581">
        <ele>270.0</ele>
        <time>2014-11-15T14:39:23Z</time>
      </trkpt>
      <trkpt lat="54.540685" lon="-3.157243">
        <ele>270.0</ele>
        <time>2014-11-15T14:39:27Z</time>
      </trkpt>
      <trkpt lat="54.54081" lon="-3.156855">
        <ele>269.0</ele>
        <time>2014-11-15T14:39:31Z</time>
      </trkpt>
      <trkpt lat="54.541011" lon="-3.156456">
        <ele>268.0</ele>
        <time>2014-11-15T14:39:35Z</time>
      </trkpt>
      <trkpt lat="54.541463" lon="-3.156278">
        <ele>265.0</ele>
        <time>2014-11-15T14:39:39Z</time>
      </trkpt>
      <trkpt lat="54.54165" lon="-3.156296">
        <ele>264.0</ele>
        <time>2014-11-15T14:39:43Z</time>
      </trkpt>
      <trkpt lat="54.542068" lon="-3.156523">
        <ele>263.0</ele>
        <time>2014-11-15T14:39:47Z</time>
      </trkpt>
      <trkpt lat="54.542351" lon="-3.156623">
        <ele>264.0</ele>
        <time>2014-11-15T14:39:51Z</time>
      </trkpt>
      <trkpt lat="54.542645" lon="-3.156338">
        <ele>264.0</ele>
        <time>2014-11-15T14:39:55Z</time>
      </trkpt>
      <trkpt lat="54.542838" lon="-3.155995">
        <ele>264.0</ele>
        <time>2014-11-15T14:39:59Z</time>
      </trkpt>
      <trkpt lat="54.542943" lon="-3.155605">
        <ele>264.0</ele>
        <time>2014-11-15T14:40:03Z</time>
      </trkpt>
      <trkpt lat="54.543075" lon="-3.155326">
        <ele>265.0</ele>
        <time>2014-11-15T14:40:07Z</time>
      </trkpt>
      <trkpt lat="54.543255" lon="-3.155158">
        <ele>265.0</ele>
        <time>2014-11-15T14:40:11Z</time>
      </trkpt>
      <trkpt lat="54.543496" lon="-3.155186">
        <ele>266.0</ele>
        <time>2014-11-15T14:40:15Z</time>
      </trkpt>
      <trkpt lat="54.543688" lon="-3.155193">
        <ele>267.0</ele>
        <time>2014-11-15T14:40:19Z</time>
      </trkpt>
      <trkpt lat="54.54381" lon="-3.155178">
        <ele>268.0</ele>
        <time>2014-11-15T14:40:23Z</time>
      </trkpt>
      <trkpt lat="54.544026" lon="-3.155098">
        <ele>269.0</ele>
        <time>2014-11-15T14:40:27Z</time>
      </trkpt>
      <trkpt lat="54.54436" lon="-3.155091">
        <ele>267.0</ele>
        <time>2014-11-15T14:40:31Z</time>
      </trkpt>
      <trkpt lat="54.544675" lon="-3.155161">
        <ele>266.0</ele>
        <time>2014-11-15T14:40:35Z</time>
      </trkpt>
      <trkpt lat="54.54499" lon="-3.155126">
        <ele>265.0</ele>
        <time>2014-11-15T14:40:39Z</time>
      </trkpt>
      <trkpt lat="54.54528" lon="-3.154898">
        <ele>264.0</ele>
        <time>2014-11-15T14:40:43Z</time>
      </trkpt>
      <trkpt lat="54.54565" lon="-3.15479">
        <ele>262.0</ele>
        <time>2014-11-15T14:40:47Z</time>
      </trkpt>
      <trkpt lat="54.546041" lon="-3.154583">
        <ele>260.0</ele>
        <time>2014-11-15T14:40:51Z</time>
      </trkpt>
      <trkpt lat="54.546358" lon="-3.154381">
        <ele>259.0</ele>
        <time>2014-11-15T14:40:55Z</time>
      </trkpt>
      <trkpt lat="54.54663" lon="-3.15413">
        <ele>258.0</ele>
        <time>2014-11-15T14:40:59Z</time>
      </trkpt>
      <trkpt lat="54.546815" lon="-3.153926">
        <ele>258.0</ele>
        <time>2014-11-15T14:41:03Z</time>
      </trkpt>
      <trkpt lat="54.547061" lon="-3.153651">
        <ele>257.0</ele>
        <time>2014-11-15T14:41:07Z</time>
      </trkpt>
      <trkpt lat="54.547378" lon="-3.153366">
        <ele>258.0</ele>
        <time>2014-11-15T14:41:11Z</time>
      </trkpt>
      <trkpt lat="54.54763" lon="-3.15314">
        <ele>258.0</ele>
        <time>2014-11-15T14:41:15Z</time>
      </trkpt>
      <trkpt lat="54.54787" lon="-3.1529">
        <ele>258.0</ele>
        <time>2014-11-15T14:41:19Z</time>
      </trkpt>
      <trkpt lat="54.5481" lon="-3.15265">
        <ele>258.0</ele>
        <time>2014-11-15T14:41:23Z</time>
      </trkpt>
      <trkpt lat="54.548323" lon="-3.152435">
        <ele>258.0</ele>
        <time>2014-11-15T14:41:27Z</time>
      </trkpt>
      <trkpt lat="54.548508" lon="-3.15221">
        <ele>258.0</ele>
        <time>2014-11-15T14:41:31Z</time>
      </trkpt>
      <trkpt lat="54.548603" lon="-3.151961">
        <ele>261.0</ele>
        <time>2014-11-15T14:41:35Z</time>
      </trkpt>
      <trkpt lat="54.5487" lon="-3.151698">
        <ele>261.0</ele>
        <time>2014-11-15T14:41:39Z</time>
      </trkpt>
      <trkpt lat="54.54878" lon="-3.151393">
        <ele>262.0</ele>
        <time>2014-11-15T14:41:43Z</time>
      </trkpt>
      <trkpt lat="54.548861" lon="-3.151051">
        <ele>262.0</ele>
        <time>2014-11-15T14:41:47Z</time>
      </trkpt>
      <trkpt lat="54.548985" lon="-3.150731">
        <ele>263.0</ele>
        <time>2014-11-15T14:41:51Z</time>
      </trkpt>
      <trkpt lat="54.54919" lon="-3.15051">
        <ele>262.0</ele>
        <time>2014-11-15T14:41:55Z</time>
      </trkpt>
      <trkpt lat="54.549398" lon="-3.150295">
        <ele>262.0</ele>
        <time>2014-11-15T14:41:59Z</time>
      </trkpt>
      <trkpt lat="54.549615" lon="-3.15005">
        <ele>262.0</ele>
        <time>2014-11-15T14:42:03Z</time>
      </trkpt>
      <trkpt lat="54.549796" lon="-3.149733">
        <ele>263.0</ele>
        <time>2014-11-15T14:42:07Z</time>
      </trkpt>
      <trkpt lat="54.550075" lon="-3.14953">
        <ele>263.0</ele>
        <time>2014-11-15T14:42:11Z</time>
      </trkpt>
      <trkpt lat="54.550393" lon="-3.149293">
        <ele>261.0</ele>
        <time>2014-11-15T14:42:15Z</time>
      </trkpt>
      <trkpt lat="54.55058" lon="-3.149098">
        <ele>260.0</ele>
        <time>2014-11-15T14:42:19Z</time>
      </trkpt>
      <trkpt lat="54.550846" lon="-3.148868">
        <ele>260.0</ele>
        <time>2014-11-15T14:42:23Z</time>
      </trkpt>
      <trkpt lat="54.55113" lon="-3.148645">
        <ele>261.0</ele>
        <time>2014-11-15T14:42:27Z</time>
      </trkpt>
      <trkpt lat="54.551365" lon="-3.14844">
        <ele>260.0</ele>
        <time>2014-11-15T14:42:31Z</time>
      </trkpt>
      <trkpt lat="54.551603" lon="-3.148231">
        <ele>259.0</ele>
        <time>2014-11-15T14:42:35Z</time>
      </trkpt>
      <trkpt lat="54.551858" lon="-3.14802">
        <ele>259.0</ele>
        <time>2014-11-15T14:42:39Z</time>
      </trkpt>
      <trkpt lat="54.552098" lon="-3.147728">
        <ele>259.0</ele>
        <time>2014-11-15T14:42:43Z</time>
      </trkpt>
      <trkpt lat="54.552291" lon="-3.147391">
        <ele>259.0</ele>
        <time>2014-11-15T14:42:47Z</time>
      </trkpt>
      <trkpt lat="54.55248" lon="-3.147006">
        <ele>258.0</ele>
        <time>2014-11-15T14:42:51Z</time>
      </trkpt>
      <trkpt lat="54.552696" lon="-3.14668">
        <ele>258.0</ele>
        <time>2014-11-15T14:42:55Z</time>
      </trkpt>
      <trkpt lat="54.552871" lon="-3.146333">
        <ele>258.0</ele>
        <time>2014-11-15T14:42:59Z</time>
      </trkpt>
      <trkpt lat="54.552991" lon="-3.145985">
        <ele>258.0</ele>
        <time>2014-11-15T14:43:03Z</time>
      </trkpt>
      <trkpt lat="54.553178" lon="-3.145628">
        <ele>257.0</ele>
        <time>2014-11-15T14:43:07Z</time>
      </trkpt>
      <trkpt lat="54.553425" lon="-3.145406">
        <ele>257.0</ele>
        <time>2014-11-15T14:43:11Z</time>
      </trkpt>
      <trkpt lat="54.553631" lon="-3.145046">
        <ele>256.0</ele>
        <time>2014-11-15T14:43:15Z</time>
      </trkpt>
      <trkpt lat="54.553706" lon="-3.144631">
        <ele>257.0</ele>
        <time>2014-11-15T14:43:19Z</time>
      </trkpt>
      <trkpt lat="54.553861" lon="-3.14436">
        <ele>257.0</ele>
        <time>2014-11-15T14:43:23Z</time>
      </trkpt>
      <trkpt lat="54.554041" lon="-3.144053">
        <ele>259.0</ele>
        <time>2014-11-15T14:43:27Z</time>
      </trkpt>
      <trkpt lat="54.554208" lon="-3.143755">
        <ele>260.0</ele>
        <time>2014-11-15T14:43:31Z</time>
      </trkpt>
      <trkpt lat="54.554433" lon="-3.143435">
        <ele>260.0</ele>
        <time>2014-11-15T14:43:35Z</time>
      </trkpt>
      <trkpt lat="54.554543" lon="-3.143233">
        <ele>261.0</ele>
        <time>2014-11-15T14:43:39Z</time>
      </trkpt>
      <trkpt lat="54.554676" lon="-3.143126">
        <ele>262.0</ele>
        <time>2014-11-15T14:43:43Z</time>
      </trkpt>
      <trkpt lat="54.554853" lon="-3.143053">
        <ele>263.0</ele>
        <time>2014-11-15T14:43:47Z</time>
      </trkpt>
      <trkpt lat="54.554975" lon="-3.143011">
        <ele>264.0</ele>
        <time>2014-11-15T14:43:51Z</time>
      </trkpt>
      <trkpt lat="54.5551" lon="-3.142905">
        <ele>266.0</ele>
        <time>2014-11-15T14:43:55Z</time>
      </trkpt>
      <trkpt lat="54.555268" lon="-3.14283">
        <ele>267.0</ele>
        <time>2014-11-15T14:43:59Z</time>
      </trkpt>
      <trkpt lat="54.555433" lon="-3.142821">
        <ele>267.0</ele>
        <time>2014-11-15T14:44:03Z</time>
      </trkpt>
      <trkpt lat="54.555636" lon="-3.142795">
        <ele>267.0</ele>
        <time>2014-11-15T14:44:07Z</time>
      </trkpt>
      <trkpt lat="54.555971" lon="-3.142718">
        <ele>265.0</ele>
        <time>2014-11-15T14:44:11Z</time>
      </trkpt>
      <trkpt lat="54.556341" lon="-3.142656">
        <ele>261.0</ele>
        <time>2014-11-15T14:44:15Z</time>
      </trkpt>
      <trkpt lat="54.55669" lon="-3.142483">
        <ele>258.0</ele>
        <time>2014-11-15T14:44:19Z</time>
      </trkpt>
      <trkpt lat="54.557008" lon="-3.142348">
        <ele>257.0</ele>
        <time>2014-11-15T14:44:23Z</time>
      </trkpt>
      <trkpt lat="54.557298" lon="-3.142188">
        <ele>257.0</ele>
        <time>2014-11-15T14:44:27Z</time>
      </trkpt>
      <trkpt lat="54.557523" lon="-3.142">
        <ele>257.0</ele>
        <time>2014-11-15T14:44:31Z</time>
      </trkpt>
      <trkpt lat="54.557741" lon="-3.141795">
        <ele>258.0</ele>
        <time>2014-11-15T14:44:35Z</time>
      </trkpt>
      <trkpt lat="54.557963" lon="-3.141638">
        <ele>258.0</ele>
        <time>2014-11-15T14:44:39Z</time>
      </trkpt>
      <trkpt lat="54.55822" lon="-3.141493">
        <ele>258.0</ele>
        <time>2014-11-15T14:44:43Z</time>
      </trkpt>
      <trkpt lat="54.558441" lon="-3.141326">
        <ele>258.0</ele>
        <time>2014-11-15T14:44:47Z</time>
      </trkpt>
      <trkpt lat="54.558576" lon="-3.141168">
        <ele>259.0</ele>
        <time>2014-11-15T14:44:51Z</time>
      </trkpt>
      <trkpt lat="54.558691" lon="-3.141026">
        <ele>261.0</ele>
        <time>2014-11-15T14:44:55Z</time>
      </trkpt>
      <trkpt lat="54.558781" lon="-3.140923">
        <ele>263.0</ele>
        <time>2014-11-15T14:44:59Z</time>
      </trkpt>
      <trkpt lat="54.558976" lon="-3.140758">
        <ele>264.0</ele>
        <time>2014-11-15T14:45:03Z</time>
      </trkpt>
      <trkpt lat="54.559141" lon="-3.140608">
        <ele>264.0</ele>
        <time>2014-11-15T14:45:07Z</time>
      </trkpt>
      <trkpt lat="54.55936" lon="-3.140335">
        <ele>263.0</ele>
        <time>2014-11-15T14:45:11Z</time>
      </trkpt>
      <trkpt lat="54.559608" lon="-3.139986">
        <ele>261.0</ele>
        <time>2014-11-15T14:45:15Z</time>
      </trkpt>
      <trkpt lat="54.559896" lon="-3.139601">
        <ele>258.0</ele>
        <time>2014-11-15T14:45:19Z</time>
      </trkpt>
      <trkpt lat="54.560168" lon="-3.139235">
        <ele>258.0</ele>
        <time>2014-11-15T14:45:23Z</time>
      </trkpt>
      <trkpt lat="54.560418" lon="-3.138891">
        <ele>258.0</ele>
        <time>2014-11-15T14:45:27Z</time>
      </trkpt>
      <trkpt lat="54.560583" lon="-3.138558">
        <ele>258.0</ele>
        <time>2014-11-15T14:45:31Z</time>
      </trkpt>
      <trkpt lat="54.560716" lon="-3.138211">
        <ele>259.0</ele>
        <time>2014-11-15T14:45:35Z</time>
      </trkpt>
      <trkpt lat="54.56085" lon="-3.137778">
        <ele>258.0</ele>
        <time>2014-11-15T14:45:39Z</time>
      </trkpt>
      <trkpt lat="54.561013" lon="-3.137383">
        <ele>258.0</ele>
        <time>2014-11-15T14:45:43Z</time>
      </trkpt>
      <trkpt lat="54.56116" lon="-3.137041">
        <ele>259.0</ele>
        <time>2014-11-15T14:45:47Z</time>
      </trkpt>
      <trkpt lat="54.561293" lon="-3.136791">
        <ele>259.0</ele>
        <time>2014-11-15T14:45:51Z</time>
      </trkpt>
      <trkpt lat="54.56158" lon="-3.136553">
        <ele>261.0</ele>
        <time>2014-11-15T14:45:55Z</time>
      </trkpt>
      <trkpt lat="54.5617" lon="-3.136411">
        <ele>262.0</ele>
        <time>2014-11-15T14:45:59Z</time>
      </trkpt>
      <trkpt lat="54.561856" lon="-3.136178">
        <ele>263.0</ele>
        <time>2014-11-15T14:46:03Z</time>
      </trkpt>
      <trkpt lat="54.56201" lon="-3.135988">
        <ele>262.0</ele>
        <time>2014-11-15T14:46:07Z</time>
      </trkpt>
      <trkpt lat="54.563016" lon="-3.135583">
        <ele>258.0</ele>
        <time>2014-11-15T14:46:19Z</time>
      </trkpt>
      <trkpt lat="54.563381" lon="-3.135561">
        <ele>258.0</ele>
        <time>2014-11-15T14:46:23Z</time>
      </trkpt>
      <trkpt lat="54.5636" lon="-3.135378">
        <ele>257.0</ele>
        <time>2014-11-15T14:46:27Z</time>
      </trkpt>
      <trkpt lat="54.563945" lon="-3.135208">
        <ele>257.0</ele>
        <time>2014-11-15T14:46:31Z</time>
      </trkpt>
      <trkpt lat="54.564226" lon="-3.135316">
        <ele>257.0</ele>
        <time>2014-11-15T14:46:35Z</time>
      </trkpt>
      <trkpt lat="54.564468" lon="-3.135395">
        <ele>259.0</ele>
        <time>2014-11-15T14:46:39Z</time>
      </trkpt>
      <trkpt lat="54.564715" lon="-3.135346">
        <ele>259.0</ele>
        <time>2014-11-15T14:46:43Z</time>
      </trkpt>
      <trkpt lat="54.564903" lon="-3.135241">
        <ele>259.0</ele>
        <time>2014-11-15T14:46:47Z</time>
      </trkpt>
      <trkpt lat="54.565103" lon="-3.135066">
        <ele>259.0</ele>
        <time>2014-11-15T14:46:51Z</time>
      </trkpt>
      <trkpt lat="54.565296" lon="-3.134838">
        <ele>258.0</ele>
        <time>2014-11-15T14:46:55Z</time>
      </trkpt>
      <trkpt lat="54.565578" lon="-3.134645">
        <ele>258.0</ele>
        <time>2014-11-15T14:46:59Z</time>
      </trkpt>
      <trkpt lat="54.565861" lon="-3.13454">
        <ele>257.0</ele>
        <time>2014-11-15T14:47:03Z</time>
      </trkpt>
      <trkpt lat="54.56617" lon="-3.134525">
        <ele>258.0</ele>
        <time>2014-11-15T14:47:07Z</time>
      </trkpt>
      <trkpt lat="54.56646" lon="-3.134506">
        <ele>258.0</ele>
        <time>2014-11-15T14:47:11Z</time>
      </trkpt>
      <trkpt lat="54.566746" lon="-3.134453">
        <ele>257.0</ele>
        <time>2014-11-15T14:47:15Z</time>
      </trkpt>
      <trkpt lat="54.567023" lon="-3.134416">
        <ele>257.0</ele>
        <time>2014-11-15T14:47:19Z</time>
      </trkpt>
      <trkpt lat="54.567295" lon="-3.134335">
        <ele>257.0</ele>
        <time>2014-11-15T14:47:23Z</time>
      </trkpt>
      <trkpt lat="54.567545" lon="-3.134278">
        <ele>257.0</ele>
        <time>2014-11-15T14:47:27Z</time>
      </trkpt>
      <trkpt lat="54.567818" lon="-3.134231">
        <ele>257.0</ele>
        <time>2014-11-15T14:47:31Z</time>
      </trkpt>
      <trkpt lat="54.5681" lon="-3.134243">
        <ele>258.0</ele>
        <time>2014-11-15T14:47:35Z</time>
      </trkpt>
      <trkpt lat="54.568376" lon="-3.134273">
        <ele>258.0</ele>
        <time>2014-11-15T14:47:39Z</time>
      </trkpt>
      <trkpt lat="54.568688" lon="-3.13433">
        <ele>259.0</ele>
        <time>2014-11-15T14:47:43Z</time>
      </trkpt>
      <trkpt lat="54.568853" lon="-3.134363">
        <ele>260.0</ele>
        <time>2014-11-15T14:47:47Z</time>
      </trkpt>
      <trkpt lat="54.56908" lon="-3.134365">
        <ele>261.0</ele>
        <time>2014-11-15T14:47:51Z</time>
      </trkpt>
      <trkpt lat="54.569275" lon="-3.13436">
        <ele>263.0</ele>
        <time>2014-11-15T14:47:55Z</time>
      </trkpt>
      <trkpt lat="54.56949" lon="-3.134325">
        <ele>263.0</ele>
        <time>2014-11-15T14:47:59Z</time>
      </trkpt>
      <trkpt lat="54.56971" lon="-3.134278">
        <ele>265.0</ele>
        <time>2014-11-15T14:48:03Z</time>
      </trkpt>
      <trkpt lat="54.569973" lon="-3.134143">
        <ele>265.0</ele>
        <time>2014-11-15T14:48:07Z</time>
      </trkpt>
      <trkpt lat="54.570226" lon="-3.134051">
        <ele>265.0</ele>
        <time>2014-11-15T14:48:11Z</time>
      </trkpt>
      <trkpt lat="54.570473" lon="-3.133921">
        <ele>264.0</ele>
        <time>2014-11-15T14:48:15Z</time>
      </trkpt>
      <trkpt lat="54.570745" lon="-3.133813">
        <ele>263.0</ele>
        <time>2014-11-15T14:48:19Z</time>
      </trkpt>
      <trkpt lat="54.571068" lon="-3.133705">
        <ele>262.0</ele>
        <time>2014-11-15T14:48:23Z</time>
      </trkpt>
      <trkpt lat="54.5714" lon="-3.133555">
        <ele>261.0</ele>
        <time>2014-11-15T14:48:27Z</time>
      </trkpt>
      <trkpt lat="54.571723" lon="-3.133285">
        <ele>259.0</ele>
        <time>2014-11-15T14:48:31Z</time>
      </trkpt>
      <trkpt lat="54.572048" lon="-3.133133">
        <ele>258.0</ele>
        <time>2014-11-15T14:48:35Z</time>
      </trkpt>
      <trkpt lat="54.572386" lon="-3.132968">
        <ele>257.0</ele>
        <time>2014-11-15T14:48:39Z</time>
      </trkpt>
      <trkpt lat="54.572675" lon="-3.132755">
        <ele>258.0</ele>
        <time>2014-11-15T14:48:43Z</time>
      </trkpt>
      <trkpt lat="54.572948" lon="-3.132661">
        <ele>258.0</ele>
        <time>2014-11-15T14:48:47Z</time>
      </trkpt>
      <trkpt lat="54.573178" lon="-3.132543">
        <ele>259.0</ele>
        <time>2014-11-15T14:48:51Z</time>
      </trkpt>
      <trkpt lat="54.573405" lon="-3.132316">
        <ele>259.0</ele>
        <time>2014-11-15T14:48:55Z</time>
      </trkpt>
      <trkpt lat="54.573611" lon="-3.132185">
        <ele>260.0</ele>
        <time>2014-11-15T14:48:59Z</time>
      </trkpt>
      <trkpt lat="54.573845" lon="-3.13216">
        <ele>260.0</ele>
        <time>2014-11-15T14:49:03Z</time>
      </trkpt>
      <trkpt lat="54.574096" lon="-3.13214">
        <ele>260.0</ele>
        <time>2014-11-15T14:49:07Z</time>
      </trkpt>
      <trkpt lat="54.574245" lon="-3.132058">
        <ele>261.0</ele>
        <time>2014-11-15T14:49:11Z</time>
      </trkpt>
      <trkpt lat="54.574441" lon="-3.132056">
        <ele>261.0</ele>
        <time>2014-11-15T14:49:15Z</time>
      </trkpt>
      <trkpt lat="54.57473" lon="-3.132005">
        <ele>262.0</ele>
        <time>2014-11-15T14:49:19Z</time>
      </trkpt>
      <trkpt lat="54.574971" lon="-3.131891">
        <ele>261.0</ele>
        <time>2014-11-15T14:49:23Z</time>
      </trkpt>
      <trkpt lat="54.575266" lon="-3.131858">
        <ele>261.0</ele>
        <time>2014-11-15T14:49:27Z</time>
      </trkpt>
      <trkpt lat="54.575561" lon="-3.1319">
        <ele>262.0</ele>
        <time>2014-11-15T14:49:31Z</time>
      </trkpt>
      <trkpt lat="54.575801" lon="-3.13192">
        <ele>263.0</ele>
        <time>2014-11-15T14:49:35Z</time>
      </trkpt>
      <trkpt lat="54.576018" lon="-3.131898">
        <ele>264.0</ele>
        <time>2014-11-15T14:49:39Z</time>
      </trkpt>
      <trkpt lat="54.57624" lon="-3.131858">
        <ele>265.0</ele>
        <time>2014-11-15T14:49:43Z</time>
      </trkpt>
      <trkpt lat="54.576448" lon="-3.131795">
        <ele>265.0</ele>
        <time>2014-11-15T14:49:47Z</time>
      </trkpt>
      <trkpt lat="54.576643" lon="-3.13176">
        <ele>267.0</ele>
        <time>2014-11-15T14:49:51Z</time>
      </trkpt>
      <trkpt lat="54.57687" lon="-3.131708">
        <ele>267.0</ele>
        <time>2014-11-15T14:49:55Z</time>
      </trkpt>
      <trkpt lat="54.577098" lon="-3.131631">
        <ele>268.0</ele>
        <time>2014-11-15T14:49:59Z</time>
      </trkpt>
      <trkpt lat="54.577336" lon="-3.131575">
        <ele>268.0</ele>
        <time>2014-11-15T14:50:03Z</time>
      </trkpt>
      <trkpt lat="54.577551" lon="-3.131525">
        <ele>268.0</ele>
        <time>2014-11-15T14:50:07Z</time>
      </trkpt>
      <trkpt lat="54.577753" lon="-3.131478">
        <ele>269.0</ele>
        <time>2014-11-15T14:50:11Z</time>
      </trkpt>
      <trkpt lat="54.577921" lon="-3.131453">
        <ele>268.0</ele>
        <time>2014-11-15T14:50:15Z</time>
      </trkpt>
      <trkpt lat="54.578198" lon="-3.131418">
        <ele>267.0</ele>
        <time>2014-11-15T14:50:19Z</time>
      </trkpt>
      <trkpt lat="54.578523" lon="-3.131405">
        <ele>265.0</ele>
        <time>2014-11-15T14:50:23Z</time>
      </trkpt>
      <trkpt lat="54.578913" lon="-3.1313">
        <ele>263.0</ele>
        <time>2014-11-15T14:50:27Z</time>
      </trkpt>
      <trkpt lat="54.579321" lon="-3.131166">
        <ele>262.0</ele>
        <time>2014-11-15T14:50:31Z</time>
      </trkpt>
      <trkpt lat="54.579595" lon="-3.131093">
        <ele>262.0</ele>
        <time>2014-11-15T14:50:35Z</time>
      </trkpt>
      <trkpt lat="54.579943" lon="-3.131161">
        <ele>262.0</ele>
        <time>2014-11-15T14:50:39Z</time>
      </trkpt>
      <trkpt lat="54.580245" lon="-3.131131">
        <ele>262.0</ele>
        <time>2014-11-15T14:50:43Z</time>
      </trkpt>
      <trkpt lat="54.580555" lon="-3.131106">
        <ele>262.0</ele>
        <time>2014-11-15T14:50:47Z</time>
      </trkpt>
      <trkpt lat="54.580846" lon="-3.130966">
        <ele>262.0</ele>
        <time>2014-11-15T14:50:51Z</time>
      </trkpt>
      <trkpt lat="54.581075" lon="-3.130943">
        <ele>263.0</ele>
        <time>2014-11-15T14:50:55Z</time>
      </trkpt>
      <trkpt lat="54.581348" lon="-3.130675">
        <ele>262.0</ele>
        <time>2014-11-15T14:50:59Z</time>
      </trkpt>
      <trkpt lat="54.581655" lon="-3.130436">
        <ele>261.0</ele>
        <time>2014-11-15T14:51:03Z</time>
      </trkpt>
      <trkpt lat="54.581908" lon="-3.130286">
        <ele>261.0</ele>
        <time>2014-11-15T14:51:07Z</time>
      </trkpt>
      <trkpt lat="54.58219" lon="-3.130145">
        <ele>262.0</ele>
        <time>2014-11-15T14:51:11Z</time>
      </trkpt>
      <trkpt lat="54.582471" lon="-3.129925">
        <ele>261.0</ele>
        <time>2014-11-15T14:51:15Z</time>
      </trkpt>
      <trkpt lat="54.582721" lon="-3.12957">
        <ele>261.0</ele>
        <time>2014-11-15T14:51:19Z</time>
      </trkpt>
      <trkpt lat="54.58301" lon="-3.129266">
        <ele>260.0</ele>
        <time>2014-11-15T14:51:23Z</time>
      </trkpt>
      <trkpt lat="54.58332" lon="-3.129173">
        <ele>260.0</ele>
        <time>2014-11-15T14:51:27Z</time>
      </trkpt>
      <trkpt lat="54.583613" lon="-3.12906">
        <ele>260.0</ele>
        <time>2014-11-15T14:51:31Z</time>
      </trkpt>
      <trkpt lat="54.583911" lon="-3.12896">
        <ele>261.0</ele>
        <time>2014-11-15T14:51:35Z</time>
      </trkpt>
      <trkpt lat="54.584191" lon="-3.128903">
        <ele>261.0</ele>
        <time>2014-11-15T14:51:39Z</time>
      </trkpt>
      <trkpt lat="54.584443" lon="-3.128848">
        <ele>262.0</ele>
        <time>2014-11-15T14:51:43Z</time>
      </trkpt>
      <trkpt lat="54.58473" lon="-3.128793">
        <ele>262.0</ele>
        <time>2014-11-15T14:51:47Z</time>
      </trkpt>
      <trkpt lat="54.584905" lon="-3.128751">
        <ele>263.0</ele>
        <time>2014-11-15T14:51:51Z</time>
      </trkpt>
      <trkpt lat="54.585133" lon="-3.128721">
        <ele>265.0</ele>
        <time>2014-11-15T14:51:55Z</time>
      </trkpt>
      <trkpt lat="54.585368" lon="-3.128693">
        <ele>265.0</ele>
        <time>2014-11-15T14:51:59Z</time>
      </trkpt>
      <trkpt lat="54.585606" lon="-3.128635">
        <ele>266.0</ele>
        <time>2014-11-15T14:52:03Z</time>
      </trkpt>
      <trkpt lat="54.585843" lon="-3.128581">
        <ele>266.0</ele>
        <time>2014-11-15T14:52:07Z</time>
      </trkpt>
      <trkpt lat="54.586061" lon="-3.128595">
        <ele>266.0</ele>
        <time>2014-11-15T14:52:11Z</time>
      </trkpt>
      <trkpt lat="54.586271" lon="-3.128656">
        <ele>267.0</ele>
        <time>2014-11-15T14:52:15Z</time>
      </trkpt>
      <trkpt lat="54.586481" lon="-3.12873">
        <ele>268.0</ele>
        <time>2014-11-15T14:52:19Z</time>
      </trkpt>
      <trkpt lat="54.586681" lon="-3.12882">
        <ele>268.0</ele>
        <time>2014-11-15T14:52:23Z</time>
      </trkpt>
      <trkpt lat="54.586865" lon="-3.128851">
        <ele>268.0</ele>
        <time>2014-11-15T14:52:27Z</time>
      </trkpt>
      <trkpt lat="54.58705" lon="-3.128885">
        <ele>269.0</ele>
        <time>2014-11-15T14:52:31Z</time>
      </trkpt>
      <trkpt lat="54.587261" lon="-3.128956">
        <ele>270.0</ele>
        <time>2014-11-15T14:52:35Z</time>
      </trkpt>
      <trkpt lat="54.587463" lon="-3.128955">
        <ele>270.0</ele>
        <time>2014-11-15T14:52:39Z</time>
      </trkpt>
      <trkpt lat="54.58771" lon="-3.129031">
        <ele>270.0</ele>
        <time>2014-11-15T14:52:43Z</time>
      </trkpt>
      <trkpt lat="54.587996" lon="-3.129091">
        <ele>268.0</ele>
        <time>2014-11-15T14:52:47Z</time>
      </trkpt>
      <trkpt lat="54.588313" lon="-3.129218">
        <ele>266.0</ele>
        <time>2014-11-15T14:52:51Z</time>
      </trkpt>
      <trkpt lat="54.588541" lon="-3.12932">
        <ele>266.0</ele>
        <time>2014-11-15T14:52:55Z</time>
      </trkpt>
      <trkpt lat="54.588801" lon="-3.129525">
        <ele>267.0</ele>
        <time>2014-11-15T14:52:59Z</time>
      </trkpt>
      <trkpt lat="54.58905" lon="-3.129766">
        <ele>267.0</ele>
        <time>2014-11-15T14:53:03Z</time>
      </trkpt>
      <trkpt lat="54.589248" lon="-3.129968">
        <ele>267.0</ele>
        <time>2014-11-15T14:53:07Z</time>
      </trkpt>
      <trkpt lat="54.58948" lon="-3.130108">
        <ele>267.0</ele>
        <time>2014-11-15T14:53:11Z</time>
      </trkpt>
      <trkpt lat="54.589823" lon="-3.130161">
        <ele>267.0</ele>
        <time>2014-11-15T14:53:15Z</time>
      </trkpt>
      <trkpt lat="54.590146" lon="-3.130253">
        <ele>266.0</ele>
        <time>2014-11-15T14:53:19Z</time>
      </trkpt>
      <trkpt lat="54.590378" lon="-3.130423">
        <ele>266.0</ele>
        <time>2014-11-15T14:53:23Z</time>
      </trkpt>
      <trkpt lat="54.59065" lon="-3.130556">
        <ele>266.0</ele>
        <time>2014-11-15T14:53:27Z</time>
      </trkpt>
      <trkpt lat="54.590915" lon="-3.130713">
        <ele>266.0</ele>
        <time>2014-11-15T14:53:31Z</time>
      </trkpt>
      <trkpt lat="54.591215" lon="-3.130845">
        <ele>266.0</ele>
        <time>2014-11-15T14:53:35Z</time>
      </trkpt>
      <trkpt lat="54.59153" lon="-3.130976">
        <ele>267.0</ele>
        <time>2014-11-15T14:53:39Z</time>
      </trkpt>
      <trkpt lat="54.591783" lon="-3.131155">
        <ele>266.0</ele>
        <time>2014-11-15T14:53:43Z</time>
      </trkpt>
      <trkpt lat="54.592073" lon="-3.131293">
        <ele>265.0</ele>
        <time>2014-11-15T14:53:47Z</time>
      </trkpt>
      <trkpt lat="54.59229" lon="-3.131505">
        <ele>265.0</ele>
        <time>2014-11-15T14:53:51Z</time>
      </trkpt>
      <trkpt lat="54.592543" lon="-3.13181">
        <ele>265.0</ele>
        <time>2014-11-15T14:53:55Z</time>
      </trkpt>
      <trkpt lat="54.592755" lon="-3.132163">
        <ele>266.0</ele>
        <time>2014-11-15T14:53:59Z</time>
      </trkpt>
      <trkpt lat="54.592886" lon="-3.132473">
        <ele>266.0</ele>
        <time>2014-11-15T14:54:03Z</time>
      </trkpt>
      <trkpt lat="54.593068" lon="-3.13274">
        <ele>266.0</ele>
        <time>2014-11-15T14:54:07Z</time>
      </trkpt>
      <trkpt lat="54.593228" lon="-3.132978">
        <ele>267.0</ele>
        <time>2014-11-15T14:54:11Z</time>
      </trkpt>
      <trkpt lat="54.593438" lon="-3.133123">
        <ele>268.0</ele>
        <time>2014-11-15T14:54:15Z</time>
      </trkpt>
      <trkpt lat="54.593653" lon="-3.13324">
        <ele>268.0</ele>
        <time>2014-11-15T14:54:19Z</time>
      </trkpt>
      <trkpt lat="54.593816" lon="-3.133386">
        <ele>269.0</ele>
        <time>2014-11-15T14:54:23Z</time>
      </trkpt>
      <trkpt lat="54.593938" lon="-3.133515">
        <ele>270.0</ele>
        <time>2014-11-15T14:54:27Z</time>
      </trkpt>
      <trkpt lat="54.594061" lon="-3.133656">
        <ele>271.0</ele>
        <time>2014-11-15T14:54:31Z</time>
      </trkpt>
      <trkpt lat="54.594195" lon="-3.13375">
        <ele>273.0</ele>
        <time>2014-11-15T14:54:35Z</time>
      </trkpt>
      <trkpt lat="54.594333" lon="-3.133846">
        <ele>274.0</ele>
        <time>2014-11-15T14:54:39Z</time>
      </trkpt>
      <trkpt lat="54.594476" lon="-3.133955">
        <ele>275.0</ele>
        <time>2014-11-15T14:54:43Z</time>
      </trkpt>
      <trkpt lat="54.594638" lon="-3.134051">
        <ele>275.0</ele>
        <time>2014-11-15T14:54:47Z</time>
      </trkpt>
      <trkpt lat="54.594773" lon="-3.13413">
        <ele>275.0</ele>
        <time>2014-11-15T14:54:51Z</time>
      </trkpt>
      <trkpt lat="54.595003" lon="-3.134286">
        <ele>275.0</ele>
        <time>2014-11-15T14:54:55Z</time>
      </trkpt>
      <trkpt lat="54.595188" lon="-3.134433">
        <ele>276.0</ele>
        <time>2014-11-15T14:54:59Z</time>
      </trkpt>
      <trkpt lat="54.595371" lon="-3.134585">
        <ele>276.0</ele>
        <time>2014-11-15T14:55:03Z</time>
      </trkpt>
      <trkpt lat="54.595565" lon="-3.13475">
        <ele>276.0</ele>
        <time>2014-11-15T14:55:07Z</time>
      </trkpt>
      <trkpt lat="54.595753" lon="-3.134888">
        <ele>276.0</ele>
        <time>2014-11-15T14:55:11Z</time>
      </trkpt>
      <trkpt lat="54.595928" lon="-3.135001">
        <ele>277.0</ele>
        <time>2014-11-15T14:55:15Z</time>
      </trkpt>
      <trkpt lat="54.596103" lon="-3.135116">
        <ele>277.0</ele>
        <time>2014-11-15T14:55:19Z</time>
      </trkpt>
      <trkpt lat="54.596283" lon="-3.13523">
        <ele>276.0</ele>
        <time>2014-11-15T14:55:23Z</time>
      </trkpt>
      <trkpt lat="54.596485" lon="-3.135411">
        <ele>277.0</ele>
        <time>2014-11-15T14:55:27Z</time>
      </trkpt>
      <trkpt lat="54.596673" lon="-3.135681">
        <ele>276.0</ele>
        <time>2014-11-15T14:55:31Z</time>
      </trkpt>
      <trkpt lat="54.596746" lon="-3.135981">
        <ele>275.0</ele>
        <time>2014-11-15T14:55:35Z</time>
      </trkpt>
      <trkpt lat="54.596861" lon="-3.136383">
        <ele>274.0</ele>
        <time>2014-11-15T14:55:39Z</time>
      </trkpt>
      <trkpt lat="54.597071" lon="-3.136705">
        <ele>273.0</ele>
        <time>2014-11-15T14:55:43Z</time>
      </trkpt>
      <trkpt lat="54.597291" lon="-3.136891">
        <ele>271.0</ele>
        <time>2014-11-15T14:55:47Z</time>
      </trkpt>
      <trkpt lat="54.597666" lon="-3.137076">
        <ele>269.0</ele>
        <time>2014-11-15T14:55:51Z</time>
      </trkpt>
      <trkpt lat="54.597948" lon="-3.137313">
        <ele>268.0</ele>
        <time>2014-11-15T14:55:55Z</time>
      </trkpt>
      <trkpt lat="54.598153" lon="-3.137501">
        <ele>266.0</ele>
        <time>2014-11-15T14:55:59Z</time>
      </trkpt>
      <trkpt lat="54.598443" lon="-3.137605">
        <ele>264.0</ele>
        <time>2014-11-15T14:56:03Z</time>
      </trkpt>
      <trkpt lat="54.598765" lon="-3.137818">
        <ele>263.0</ele>
        <time>2014-11-15T14:56:07Z</time>
      </trkpt>
      <trkpt lat="54.59913" lon="-3.138093">
        <ele>261.0</ele>
        <time>2014-11-15T14:56:11Z</time>
      </trkpt>
      <trkpt lat="54.599385" lon="-3.13841">
        <ele>261.0</ele>
        <time>2014-11-15T14:56:15Z</time>
      </trkpt>
      <trkpt lat="54.599595" lon="-3.138751">
        <ele>261.0</ele>
        <time>2014-11-15T14:56:19Z</time>
      </trkpt>
      <trkpt lat="54.59982" lon="-3.139085">
        <ele>262.0</ele>
        <time>2014-11-15T14:56:23Z</time>
      </trkpt>
      <trkpt lat="54.600081" lon="-3.139281">
        <ele>263.0</ele>
        <time>2014-11-15T14:56:27Z</time>
      </trkpt>
      <trkpt lat="54.600373" lon="-3.139306">
        <ele>263.0</ele>
        <time>2014-11-15T14:56:31Z</time>
      </trkpt>
      <trkpt lat="54.600661" lon="-3.139283">
        <ele>263.0</ele>
        <time>2014-11-15T14:56:35Z</time>
      </trkpt>
      <trkpt lat="54.60091" lon="-3.139441">
        <ele>262.0</ele>
        <time>2014-11-15T14:56:39Z</time>
      </trkpt>
      <trkpt lat="54.601091" lon="-3.139815">
        <ele>261.0</ele>
        <time>2014-11-15T14:56:43Z</time>
      </trkpt>
      <trkpt lat="54.601213" lon="-3.140143">
        <ele>260.0</ele>
        <time>2014-11-15T14:56:47Z</time>
      </trkpt>
      <trkpt lat="54.601338" lon="-3.140471">
        <ele>259.0</ele>
        <time>2014-11-15T14:56:51Z</time>
      </trkpt>
      <trkpt lat="54.601465" lon="-3.140748">
        <ele>259.0</ele>
        <time>2014-11-15T14:56:55Z</time>
      </trkpt>
      <trkpt lat="54.601546" lon="-3.140916">
        <ele>258.0</ele>
        <time>2014-11-15T14:56:59Z</time>
      </trkpt>
      <trkpt lat="54.601561" lon="-3.141018">
        <ele>258.0</ele>
        <time>2014-11-15T14:57:03Z</time>
      </trkpt>
      <trkpt lat="54.601563" lon="-3.141016">
        <ele>258.0</ele>
        <time>2014-11-15T14:57:07Z</time>
      </trkpt>
      <trkpt lat="54.601551" lon="-3.141038">
        <ele>258.0</ele>
        <time>2014-11-15T14:57:11Z</time>
      </trkpt>
      <trkpt lat="54.601545" lon="-3.141048">
        <ele>258.0</ele>
        <time>2014-11-15T14:57:15Z</time>
      </trkpt>
      <trkpt lat="54.601541" lon="-3.141035">
        <ele>258.0</ele>
        <time>2014-11-15T14:57:19Z</time>
      </trkpt>
      <trkpt lat="54.601541" lon="-3.141031">
        <ele>258.0</ele>
        <time>2014-11-15T14:57:23Z</time>
      </trkpt>
      <trkpt lat="54.601528" lon="-3.141023">
        <ele>258.0</ele>
        <time>2014-11-15T14:57:27Z</time>
      </trkpt>
      <trkpt lat="54.601526" lon="-3.14104">
        <ele>258.0</ele>
        <time>2014-11-15T14:57:31Z</time>
      </trkpt>
      <trkpt lat="54.601521" lon="-3.141045">
        <ele>258.0</ele>
        <time>2014-11-15T14:57:35Z</time>
      </trkpt>
      <trkpt lat="54.601525" lon="-3.14107">
        <ele>258.0</ele>
        <time>2014-11-15T14:57:39Z</time>
      </trkpt>
      <trkpt lat="54.601528" lon="-3.141073">
        <ele>258.0</ele>
        <time>2014-11-15T14:57:43Z</time>
      </trkpt>
      <trkpt lat="54.601528" lon="-3.141056">
        <ele>258.0</ele>
        <time>2014-11-15T14:57:47Z</time>
      </trkpt>
      <trkpt lat="54.601538" lon="-3.141075">
        <ele>258.0</ele>
        <time>2014-11-15T14:57:51Z</time>
      </trkpt>
      <trkpt lat="54.601513" lon="-3.14107">
        <ele>258.0</ele>
        <time>2014-11-15T14:57:55Z</time>
      </trkpt>
      <trkpt lat="54.601496" lon="-3.141056">
        <ele>258.0</ele>
        <time>2014-11-15T14:57:59Z</time>
      </trkpt>
      <trkpt lat="54.601468" lon="-3.141036">
        <ele>258.0</ele>
        <time>2014-11-15T14:58:03Z</time>
      </trkpt>
      <trkpt lat="54.601475" lon="-3.141053">
        <ele>258.0</ele>
        <time>2014-11-15T14:58:07Z</time>
      </trkpt>
      <trkpt lat="54.601501" lon="-3.141076">
        <ele>258.0</ele>
        <time>2014-11-15T14:58:11Z</time>
      </trkpt>
      <trkpt lat="54.601486" lon="-3.141068">
        <ele>258.0</ele>
        <time>2014-11-15T14:58:15Z</time>
      </trkpt>
      <trkpt lat="54.601506" lon="-3.14108">
        <ele>258.0</ele>
        <time>2014-11-15T14:58:19Z</time>
      </trkpt>
      <trkpt lat="54.60152" lon="-3.14109">
        <ele>258.0</ele>
        <time>2014-11-15T14:58:23Z</time>
      </trkpt>
      <trkpt lat="54.601516" lon="-3.141086">
        <ele>258.0</ele>
        <time>2014-11-15T14:58:27Z</time>
      </trkpt>
      <trkpt lat="54.601525" lon="-3.141075">
        <ele>258.0</ele>
        <time>2014-11-15T14:58:31Z</time>
      </trkpt>
      <trkpt lat="54.60153" lon="-3.141083">
        <ele>258.0</ele>
        <time>2014-11-15T14:58:35Z</time>
      </trkpt>
      <trkpt lat="54.60154" lon="-3.14105">
        <ele>258.0</ele>
        <time>2014-11-15T14:58:39Z</time>
      </trkpt>
      <trkpt lat="54.601533" lon="-3.141021">
        <ele>258.0</ele>
        <time>2014-11-15T14:58:43Z</time>
      </trkpt>
      <trkpt lat="54.601535" lon="-3.141053">
        <ele>258.0</ele>
        <time>2014-11-15T14:58:47Z</time>
      </trkpt>
      <trkpt lat="54.601545" lon="-3.141098">
        <ele>258.0</ele>
        <time>2014-11-15T14:58:51Z</time>
      </trkpt>
      <trkpt lat="54.60151" lon="-3.141078">
        <ele>258.0</ele>
        <time>2014-11-15T14:58:55Z</time>
      </trkpt>
      <trkpt lat="54.601508" lon="-3.141088">
        <ele>258.0</ele>
        <time>2014-11-15T14:58:59Z</time>
      </trkpt>
      <trkpt lat="54.601515" lon="-3.141083">
        <ele>258.0</ele>
        <time>2014-11-15T14:59:03Z</time>
      </trkpt>
      <trkpt lat="54.601513" lon="-3.141131">
        <ele>258.0</ele>
        <time>2014-11-15T14:59:07Z</time>
      </trkpt>
      <trkpt lat="54.60151" lon="-3.141113">
        <ele>258.0</ele>
        <time>2014-11-15T14:59:11Z</time>
      </trkpt>
      <trkpt lat="54.601481" lon="-3.141085">
        <ele>258.0</ele>
        <time>2014-11-15T14:59:15Z</time>
      </trkpt>
      <trkpt lat="54.601483" lon="-3.141111">
        <ele>258.0</ele>
        <time>2014-11-15T14:59:19Z</time>
      </trkpt>
      <trkpt lat="54.601501" lon="-3.141096">
        <ele>258.0</ele>
        <time>2014-11-15T14:59:23Z</time>
      </trkpt>
      <trkpt lat="54.601491" lon="-3.141131">
        <ele>258.0</ele>
        <time>2014-11-15T14:59:27Z</time>
      </trkpt>
      <trkpt lat="54.6015" lon="-3.141128">
        <ele>258.0</ele>
        <time>2014-11-15T14:59:31Z</time>
      </trkpt>
      <trkpt lat="54.601521" lon="-3.14109">
        <ele>258.0</ele>
        <time>2014-11-15T14:59:35Z</time>
      </trkpt>
      <trkpt lat="54.601511" lon="-3.141033">
        <ele>258.0</ele>
        <time>2014-11-15T14:59:39Z</time>
      </trkpt>
      <trkpt lat="54.60152" lon="-3.140995">
        <ele>258.0</ele>
        <time>2014-11-15T14:59:43Z</time>
      </trkpt>
      <trkpt lat="54.601548" lon="-3.140948">
        <ele>258.0</ele>
        <time>2014-11-15T14:59:47Z</time>
      </trkpt>
      <trkpt lat="54.601531" lon="-3.14093">
        <ele>258.0</ele>
        <time>2014-11-15T14:59:51Z</time>
      </trkpt>
      <trkpt lat="54.601555" lon="-3.140948">
        <ele>258.0</ele>
        <time>2014-11-15T14:59:55Z</time>
      </trkpt>
      <trkpt lat="54.601588" lon="-3.14096">
        <ele>258.0</ele>
        <time>2014-11-15T14:59:59Z</time>
      </trkpt>
      <trkpt lat="54.601603" lon="-3.14095">
        <ele>258.0</ele>
        <time>2014-11-15T15:00:03Z</time>
      </trkpt>
      <trkpt lat="54.60158" lon="-3.140943">
        <ele>258.0</ele>
        <time>2014-11-15T15:00:07Z</time>
      </trkpt>
      <trkpt lat="54.601578" lon="-3.140833">
        <ele>258.0</ele>
        <time>2014-11-15T15:00:11Z</time>
      </trkpt>
      <trkpt lat="54.601498" lon="-3.140673">
        <ele>258.0</ele>
        <time>2014-11-15T15:00:15Z</time>
      </trkpt>
      <trkpt lat="54.601405" lon="-3.140461">
        <ele>259.0</ele>
        <time>2014-11-15T15:00:19Z</time>
      </trkpt>
      <trkpt lat="54.60131" lon="-3.14023">
        <ele>259.0</ele>
        <time>2014-11-15T15:00:23Z</time>
      </trkpt>
      <trkpt lat="54.60122" lon="-3.14005">
        <ele>259.0</ele>
        <time>2014-11-15T15:00:27Z</time>
      </trkpt>
      <trkpt lat="54.601121" lon="-3.139836">
        <ele>259.0</ele>
        <time>2014-11-15T15:00:31Z</time>
      </trkpt>
      <trkpt lat="54.60102" lon="-3.139616">
        <ele>260.0</ele>
        <time>2014-11-15T15:00:35Z</time>
      </trkpt>
      <trkpt lat="54.600916" lon="-3.139413">
        <ele>261.0</ele>
        <time>2014-11-15T15:00:39Z</time>
      </trkpt>
      <trkpt lat="54.600785" lon="-3.139288">
        <ele>261.0</ele>
        <time>2014-11-15T15:00:43Z</time>
      </trkpt>
      <trkpt lat="54.600618" lon="-3.139233">
        <ele>262.0</ele>
        <time>2014-11-15T15:00:47Z</time>
      </trkpt>
      <trkpt lat="54.600443" lon="-3.13924">
        <ele>262.0</ele>
        <time>2014-11-15T15:00:51Z</time>
      </trkpt>
      <trkpt lat="54.600271" lon="-3.139226">
        <ele>262.0</ele>
        <time>2014-11-15T15:00:55Z</time>
      </trkpt>
      <trkpt lat="54.600086" lon="-3.139165">
        <ele>262.0</ele>
        <time>2014-11-15T15:00:59Z</time>
      </trkpt>
      <trkpt lat="54.599938" lon="-3.139008">
        <ele>262.0</ele>
        <time>2014-11-15T15:01:03Z</time>
      </trkpt>
      <trkpt lat="54.599785" lon="-3.138786">
        <ele>262.0</ele>
        <time>2014-11-15T15:01:07Z</time>
      </trkpt>
      <trkpt lat="54.59964" lon="-3.138533">
        <ele>262.0</ele>
        <time>2014-11-15T15:01:11Z</time>
      </trkpt>
      <trkpt lat="54.599466" lon="-3.138235">
        <ele>262.0</ele>
        <time>2014-11-15T15:01:15Z</time>
      </trkpt>
      <trkpt lat="54.599318" lon="-3.138001">
        <ele>261.0</ele>
        <time>2014-11-15T15:01:19Z</time>
      </trkpt>
      <trkpt lat="54.599353" lon="-3.137656">
        <ele>261.0</ele>
        <time>2014-11-15T15:01:23Z</time>
      </trkpt>
      <trkpt lat="54.599493" lon="-3.137493">
        <ele>260.0</ele>
        <time>2014-11-15T15:01:27Z</time>
      </trkpt>
      <trkpt lat="54.599651" lon="-3.13751">
        <ele>261.0</ele>
        <time>2014-11-15T15:01:31Z</time>
      </trkpt>
      <trkpt lat="54.599771" lon="-3.137568">
        <ele>260.0</ele>
        <time>2014-11-15T15:01:35Z</time>
      </trkpt>
      <trkpt lat="54.599848" lon="-3.137686">
        <ele>260.0</ele>
        <time>2014-11-15T15:01:39Z</time>
      </trkpt>
      <trkpt lat="54.599926" lon="-3.13781">
        <ele>260.0</ele>
        <time>2014-11-15T15:01:43Z</time>
      </trkpt>
      <trkpt lat="54.599981" lon="-3.137938">
        <ele>260.0</ele>
        <time>2014-11-15T15:01:47Z</time>
      </trkpt>
      <trkpt lat="54.600085" lon="-3.138001">
        <ele>260.0</ele>
        <time>2014-11-15T15:01:51Z</time>
      </trkpt>
      <trkpt lat="54.600233" lon="-3.138088">
        <ele>260.0</ele>
        <time>2014-11-15T15:01:55Z</time>
      </trkpt>
      <trkpt lat="54.600343" lon="-3.138088">
        <ele>260.0</ele>
        <time>2014-11-15T15:01:59Z</time>
      </trkpt>
      <trkpt lat="54.600416" lon="-3.138023">
        <ele>260.0</ele>
        <time>2014-11-15T15:02:03Z</time>
      </trkpt>
      <trkpt lat="54.600416" lon="-3.138043">
        <ele>261.0</ele>
        <time>2014-11-15T15:02:07Z</time>
      </trkpt>
      <trkpt lat="54.600395" lon="-3.138041">
        <ele>261.0</ele>
        <time>2014-11-15T15:02:11Z</time>
      </trkpt>
      <trkpt lat="54.600383" lon="-3.138035">
        <ele>260.0</ele>
        <time>2014-11-15T15:02:15Z</time>
      </trkpt>
      <trkpt lat="54.600401" lon="-3.138051">
        <ele>261.0</ele>
        <time>2014-11-15T15:02:19Z</time>
      </trkpt>
      <trkpt lat="54.600411" lon="-3.138016">
        <ele>260.0</ele>
        <time>2014-11-15T15:02:23Z</time>
      </trkpt>
      <trkpt lat="54.600408" lon="-3.138031">
        <ele>261.0</ele>
        <time>2014-11-15T15:02:27Z</time>
      </trkpt>
      <trkpt lat="54.600413" lon="-3.138008">
        <ele>261.0</ele>
        <time>2014-11-15T15:02:31Z</time>
      </trkpt>
      <trkpt lat="54.600373" lon="-3.138005">
        <ele>260.0</ele>
        <time>2014-11-15T15:02:35Z</time>
      </trkpt>
      <trkpt lat="54.600423" lon="-3.13804">
        <ele>260.0</ele>
        <time>2014-11-15T15:02:39Z</time>
      </trkpt>
      <trkpt lat="54.600455" lon="-3.138028">
        <ele>260.0</ele>
        <time>2014-11-15T15:02:43Z</time>
      </trkpt>
      <trkpt lat="54.600435" lon="-3.138013">
        <ele>261.0</ele>
        <time>2014-11-15T15:02:47Z</time>
      </trkpt>
      <trkpt lat="54.600423" lon="-3.138021">
        <ele>260.0</ele>
        <time>2014-11-15T15:02:51Z</time>
      </trkpt>
      <trkpt lat="54.600438" lon="-3.13799">
        <ele>260.0</ele>
        <time>2014-11-15T15:02:55Z</time>
      </trkpt>
      <trkpt lat="54.600461" lon="-3.138048">
        <ele>260.0</ele>
        <time>2014-11-15T15:02:59Z</time>
      </trkpt>
      <trkpt lat="54.600451" lon="-3.138043">
        <ele>260.0</ele>
        <time>2014-11-15T15:03:03Z</time>
      </trkpt>
      <trkpt lat="54.600421" lon="-3.13807">
        <ele>260.0</ele>
        <time>2014-11-15T15:03:07Z</time>
      </trkpt>
      <trkpt lat="54.600415" lon="-3.138153">
        <ele>260.0</ele>
        <time>2014-11-15T15:03:11Z</time>
      </trkpt>
      <trkpt lat="54.600436" lon="-3.1383">
        <ele>260.0</ele>
        <time>2014-11-15T15:03:15Z</time>
      </trkpt>
      <trkpt lat="54.600503" lon="-3.13845">
        <ele>260.0</ele>
        <time>2014-11-15T15:03:19Z</time>
      </trkpt>
      <trkpt lat="54.600591" lon="-3.138631">
        <ele>260.0</ele>
        <time>2014-11-15T15:03:23Z</time>
      </trkpt>
      <trkpt lat="54.600646" lon="-3.138781">
        <ele>260.0</ele>
        <time>2014-11-15T15:03:27Z</time>
      </trkpt>
      <trkpt lat="54.600721" lon="-3.138996">
        <ele>260.0</ele>
        <time>2014-11-15T15:03:31Z</time>
      </trkpt>
      <trkpt lat="54.600681" lon="-3.139201">
        <ele>261.0</ele>
        <time>2014-11-15T15:03:35Z</time>
      </trkpt>
      <trkpt lat="54.600733" lon="-3.139405">
        <ele>262.0</ele>
        <time>2014-11-15T15:03:39Z</time>
      </trkpt>
      <trkpt lat="54.600866" lon="-3.139581">
        <ele>261.0</ele>
        <time>2014-11-15T15:03:43Z</time>
      </trkpt>
      <trkpt lat="54.601003" lon="-3.139801">
        <ele>261.0</ele>
        <time>2014-11-15T15:03:47Z</time>
      </trkpt>
      <trkpt lat="54.601143" lon="-3.14006">
        <ele>260.0</ele>
        <time>2014-11-15T15:03:51Z</time>
      </trkpt>
      <trkpt lat="54.60128" lon="-3.140371">
        <ele>260.0</ele>
        <time>2014-11-15T15:03:55Z</time>
      </trkpt>
      <trkpt lat="54.601453" lon="-3.140665">
        <ele>259.0</ele>
        <time>2014-11-15T15:03:59Z</time>
      </trkpt>
      <trkpt lat="54.601608" lon="-3.14089">
        <ele>258.0</ele>
        <time>2014-11-15T15:04:03Z</time>
      </trkpt>
      <trkpt lat="54.601633" lon="-3.14114">
        <ele>258.0</ele>
        <time>2014-11-15T15:04:07Z</time>
      </trkpt>
      <trkpt lat="54.601563" lon="-3.141413">
        <ele>258.0</ele>
        <time>2014-11-15T15:04:11Z</time>
      </trkpt>
      <trkpt lat="54.601506" lon="-3.141638">
        <ele>258.0</ele>
        <time>2014-11-15T15:04:15Z</time>
      </trkpt>
      <trkpt lat="54.60148" lon="-3.14187">
        <ele>258.0</ele>
        <time>2014-11-15T15:04:19Z</time>
      </trkpt>
      <trkpt lat="54.601536" lon="-3.142075">
        <ele>258.0</ele>
        <time>2014-11-15T15:04:23Z</time>
      </trkpt>
      <trkpt lat="54.601633" lon="-3.141961">
        <ele>258.0</ele>
        <time>2014-11-15T15:04:27Z</time>
      </trkpt>
      <trkpt lat="54.60165" lon="-3.141906">
        <ele>258.0</ele>
        <time>2014-11-15T15:04:31Z</time>
      </trkpt>
      <trkpt lat="54.60166" lon="-3.141953">
        <ele>258.0</ele>
        <time>2014-11-15T15:04:35Z</time>
      </trkpt>
      <trkpt lat="54.60165" lon="-3.14197">
        <ele>258.0</ele>
        <time>2014-11-15T15:04:39Z</time>
      </trkpt>
      <trkpt lat="54.60167" lon="-3.142001">
        <ele>258.0</ele>
        <time>2014-11-15T15:04:43Z</time>
      </trkpt>
      <trkpt lat="54.601665" lon="-3.142016">
        <ele>258.0</ele>
        <time>2014-11-15T15:04:47Z</time>
      </trkpt>
      <trkpt lat="54.601635" lon="-3.14199">
        <ele>258.0</ele>
        <time>2014-11-15T15:04:51Z</time>
      </trkpt>
      <trkpt lat="54.601635" lon="-3.142011">
        <ele>258.0</ele>
        <time>2014-11-15T15:04:55Z</time>
      </trkpt>
      <trkpt lat="54.601648" lon="-3.141938">
        <ele>258.0</ele>
        <time>2014-11-15T15:04:59Z</time>
      </trkpt>
      <trkpt lat="54.60165" lon="-3.141913">
        <ele>258.0</ele>
        <time>2014-11-15T15:05:03Z</time>
      </trkpt>
      <trkpt lat="54.601658" lon="-3.141866">
        <ele>258.0</ele>
        <time>2014-11-15T15:05:07Z</time>
      </trkpt>
      <trkpt lat="54.601648" lon="-3.141826">
        <ele>258.0</ele>
        <time>2014-11-15T15:05:11Z</time>
      </trkpt>
      <trkpt lat="54.601633" lon="-3.141838">
        <ele>258.0</ele>
        <time>2014-11-15T15:05:15Z</time>
      </trkpt>
      <trkpt lat="54.601638" lon="-3.14185">
        <ele>258.0</ele>
        <time>2014-11-15T15:05:19Z</time>
      </trkpt>
      <trkpt lat="54.601645" lon="-3.14184">
        <ele>258.0</ele>
        <time>2014-11-15T15:05:23Z</time>
      </trkpt>
      <trkpt lat="54.601658" lon="-3.141848">
        <ele>259.0</ele>
        <time>2014-11-15T15:05:27Z</time>
      </trkpt>
      <trkpt lat="54.601673" lon="-3.141825">
        <ele>259.0</ele>
        <time>2014-11-15T15:05:31Z</time>
      </trkpt>
      <trkpt lat="54.60169" lon="-3.141816">
        <ele>259.0</ele>
        <time>2014-11-15T15:05:35Z</time>
      </trkpt>
      <trkpt lat="54.601698" lon="-3.141816">
        <ele>259.0</ele>
        <time>2014-11-15T15:05:39Z</time>
      </trkpt>
      <trkpt lat="54.601718" lon="-3.141813">
        <ele>258.0</ele>
        <time>2014-11-15T15:05:43Z</time>
      </trkpt>
      <trkpt lat="54.601705" lon="-3.141831">
        <ele>258.0</ele>
        <time>2014-11-15T15:05:47Z</time>
      </trkpt>
      <trkpt lat="54.601736" lon="-3.141805">
        <ele>258.0</ele>
        <time>2014-11-15T15:05:51Z</time>
      </trkpt>
      <trkpt lat="54.601753" lon="-3.141793">
        <ele>258.0</ele>
        <time>2014-11-15T15:05:55Z</time>
      </trkpt>
      <trkpt lat="54.601746" lon="-3.141823">
        <ele>258.0</ele>
        <time>2014-11-15T15:05:59Z</time>
      </trkpt>
      <trkpt lat="54.601693" lon="-3.14182">
        <ele>258.0</ele>
        <time>2014-11-15T15:06:03Z</time>
      </trkpt>
      <trkpt lat="54.601673" lon="-3.141823">
        <ele>258.0</ele>
        <time>2014-11-15T15:06:07Z</time>
      </trkpt>
      <trkpt lat="54.601658" lon="-3.141856">
        <ele>258.0</ele>
        <time>2014-11-15T15:06:11Z</time>
      </trkpt>
      <trkpt lat="54.601668" lon="-3.141833">
        <ele>258.0</ele>
        <time>2014-11-15T15:06:15Z</time>
      </trkpt>
      <trkpt lat="54.601681" lon="-3.1418">
        <ele>258.0</ele>
        <time>2014-11-15T15:06:19Z</time>
      </trkpt>
      <trkpt lat="54.601636" lon="-3.1418">
        <ele>258.0</ele>
        <time>2014-11-15T15:06:23Z</time>
      </trkpt>
      <trkpt lat="54.601668" lon="-3.141821">
        <ele>258.0</ele>
        <time>2014-11-15T15:06:27Z</time>
      </trkpt>
      <trkpt lat="54.601681" lon="-3.14184">
        <ele>258.0</ele>
        <time>2014-11-15T15:06:31Z</time>
      </trkpt>
      <trkpt lat="54.601653" lon="-3.141805">
        <ele>258.0</ele>
        <time>2014-11-15T15:06:35Z</time>
      </trkpt>
      <trkpt lat="54.601628" lon="-3.141816">
        <ele>258.0</ele>
        <time>2014-11-15T15:06:39Z</time>
      </trkpt>
      <trkpt lat="54.601628" lon="-3.14183">
        <ele>258.0</ele>
        <time>2014-11-15T15:06:43Z</time>
      </trkpt>
      <trkpt lat="54.601671" lon="-3.141846">
        <ele>258.0</ele>
        <time>2014-11-15T15:06:47Z</time>
      </trkpt>
      <trkpt lat="54.601673" lon="-3.141865">
        <ele>258.0</ele>
        <time>2014-11-15T15:06:51Z</time>
      </trkpt>
      <trkpt lat="54.601661" lon="-3.14186">
        <ele>258.0</ele>
        <time>2014-11-15T15:06:55Z</time>
      </trkpt>
      <trkpt lat="54.601655" lon="-3.141905">
        <ele>258.0</ele>
        <time>2014-11-15T15:06:59Z</time>
      </trkpt>
      <trkpt lat="54.60166" lon="-3.14193">
        <ele>259.0</ele>
        <time>2014-11-15T15:07:03Z</time>
      </trkpt>
      <trkpt lat="54.601691" lon="-3.14193">
        <ele>259.0</ele>
        <time>2014-11-15T15:07:07Z</time>
      </trkpt>
      <trkpt lat="54.601671" lon="-3.141951">
        <ele>258.0</ele>
        <time>2014-11-15T15:07:11Z</time>
      </trkpt>
      <trkpt lat="54.60167" lon="-3.141966">
        <ele>258.0</ele>
        <time>2014-11-15T15:07:15Z</time>
      </trkpt>
      <trkpt lat="54.60169" lon="-3.141961">
        <ele>258.0</ele>
        <time>2014-11-15T15:07:19Z</time>
      </trkpt>
      <trkpt lat="54.601656" lon="-3.141975">
        <ele>259.0</ele>
        <time>2014-11-15T15:07:23Z</time>
      </trkpt>
      <trkpt lat="54.601655" lon="-3.141958">
        <ele>259.0</ele>
        <time>2014-11-15T15:07:27Z</time>
      </trkpt>
      <trkpt lat="54.601688" lon="-3.141901">
        <ele>258.0</ele>
        <time>2014-11-15T15:07:31Z</time>
      </trkpt>
      <trkpt lat="54.601666" lon="-3.141876">
        <ele>258.0</ele>
        <time>2014-11-15T15:07:35Z</time>
      </trkpt>
      <trkpt lat="54.601645" lon="-3.141886">
        <ele>259.0</ele>
        <time>2014-11-15T15:07:39Z</time>
      </trkpt>
      <trkpt lat="54.60167" lon="-3.141851">
        <ele>259.0</ele>
        <time>2014-11-15T15:07:43Z</time>
      </trkpt>
      <trkpt lat="54.601643" lon="-3.141908">
        <ele>258.0</ele>
        <time>2014-11-15T15:07:47Z</time>
      </trkpt>
      <trkpt lat="54.601636" lon="-3.141935">
        <ele>259.0</ele>
        <time>2014-11-15T15:07:51Z</time>
      </trkpt>
      <trkpt lat="54.601635" lon="-3.141971">
        <ele>259.0</ele>
        <time>2014-11-15T15:07:55Z</time>
      </trkpt>
      <trkpt lat="54.601666" lon="-3.142013">
        <ele>258.0</ele>
        <time>2014-11-15T15:07:59Z</time>
      </trkpt>
      <trkpt lat="54.601651" lon="-3.142036">
        <ele>258.0</ele>
        <time>2014-11-15T15:08:03Z</time>
      </trkpt>
      <trkpt lat="54.60162" lon="-3.142025">
        <ele>259.0</ele>
        <time>2014-11-15T15:08:07Z</time>
      </trkpt>
      <trkpt lat="54.601596" lon="-3.142001">
        <ele>258.0</ele>
        <time>2014-11-15T15:08:11Z</time>
      </trkpt>
      <trkpt lat="54.601636" lon="-3.141985">
        <ele>259.0</ele>
        <time>2014-11-15T15:08:15Z</time>
      </trkpt>
      <trkpt lat="54.601648" lon="-3.141958">
        <ele>258.0</ele>
        <time>2014-11-15T15:08:19Z</time>
      </trkpt>
      <trkpt lat="54.60164" lon="-3.141918">
        <ele>258.0</ele>
        <time>2014-11-15T15:08:23Z</time>
      </trkpt>
      <trkpt lat="54.60162" lon="-3.141903">
        <ele>259.0</ele>
        <time>2014-11-15T15:08:27Z</time>
      </trkpt>
      <trkpt lat="54.601605" lon="-3.141873">
        <ele>259.0</ele>
        <time>2014-11-15T15:08:31Z</time>
      </trkpt>
      <trkpt lat="54.601616" lon="-3.141883">
        <ele>258.0</ele>
        <time>2014-11-15T15:08:35Z</time>
      </trkpt>
      <trkpt lat="54.60162" lon="-3.14187">
        <ele>258.0</ele>
        <time>2014-11-15T15:08:39Z</time>
      </trkpt>
      <trkpt lat="54.60161" lon="-3.14189">
        <ele>259.0</ele>
        <time>2014-11-15T15:08:43Z</time>
      </trkpt>
      <trkpt lat="54.601596" lon="-3.1419">
        <ele>258.0</ele>
        <time>2014-11-15T15:08:47Z</time>
      </trkpt>
      <trkpt lat="54.601603" lon="-3.141875">
        <ele>258.0</ele>
        <time>2014-11-15T15:08:51Z</time>
      </trkpt>
      <trkpt lat="54.601608" lon="-3.14189">
        <ele>258.0</ele>
        <time>2014-11-15T15:08:55Z</time>
      </trkpt>
      <trkpt lat="54.601606" lon="-3.141876">
        <ele>258.0</ele>
        <time>2014-11-15T15:08:59Z</time>
      </trkpt>
      <trkpt lat="54.601605" lon="-3.14187">
        <ele>258.0</ele>
        <time>2014-11-15T15:09:03Z</time>
      </trkpt>
      <trkpt lat="54.601623" lon="-3.141861">
        <ele>258.0</ele>
        <time>2014-11-15T15:09:07Z</time>
      </trkpt>
      <trkpt lat="54.601708" lon="-3.141853">
        <ele>258.0</ele>
        <time>2014-11-15T15:09:11Z</time>
      </trkpt>
      <trkpt lat="54.601741" lon="-3.141856">
        <ele>258.0</ele>
        <time>2014-11-15T15:09:15Z</time>
      </trkpt>
      <trkpt lat="54.601781" lon="-3.141861">
        <ele>258.0</ele>
        <time>2014-11-15T15:09:19Z</time>
      </trkpt>
      <trkpt lat="54.60173" lon="-3.141905">
        <ele>258.0</ele>
        <time>2014-11-15T15:09:23Z</time>
      </trkpt>
      <trkpt lat="54.601733" lon="-3.1419">
        <ele>258.0</ele>
        <time>2014-11-15T15:09:27Z</time>
      </trkpt>
      <trkpt lat="54.601701" lon="-3.14191">
        <ele>259.0</ele>
        <time>2014-11-15T15:09:31Z</time>
      </trkpt>
      <trkpt lat="54.601711" lon="-3.141885">
        <ele>258.0</ele>
        <time>2014-11-15T15:09:35Z</time>
      </trkpt>
      <trkpt lat="54.601718" lon="-3.141886">
        <ele>258.0</ele>
        <time>2014-11-15T15:09:39Z</time>
      </trkpt>
      <trkpt lat="54.601725" lon="-3.14184">
        <ele>258.0</ele>
        <time>2014-11-15T15:09:43Z</time>
      </trkpt>
      <trkpt lat="54.601706" lon="-3.141831">
        <ele>258.0</ele>
        <time>2014-11-15T15:09:47Z</time>
      </trkpt>
      <trkpt lat="54.601651" lon="-3.141856">
        <ele>259.0</ele>
        <time>2014-11-15T15:09:51Z</time>
      </trkpt>
      <trkpt lat="54.601638" lon="-3.141898">
        <ele>258.0</ele>
        <time>2014-11-15T15:09:55Z</time>
      </trkpt>
      <trkpt lat="54.601645" lon="-3.141903">
        <ele>258.0</ele>
        <time>2014-11-15T15:09:59Z</time>
      </trkpt>
      <trkpt lat="54.601643" lon="-3.141883">
        <ele>258.0</ele>
        <time>2014-11-15T15:10:03Z</time>
      </trkpt>
      <trkpt lat="54.601641" lon="-3.141873">
        <ele>258.0</ele>
        <time>2014-11-15T15:10:07Z</time>
      </trkpt>
      <trkpt lat="54.60165" lon="-3.141886">
        <ele>258.0</ele>
        <time>2014-11-15T15:10:11Z</time>
      </trkpt>
      <trkpt lat="54.601653" lon="-3.141883">
        <ele>258.0</ele>
        <time>2014-11-15T15:10:15Z</time>
      </trkpt>
      <trkpt lat="54.601656" lon="-3.141878">
        <ele>258.0</ele>
        <time>2014-11-15T15:10:19Z</time>
      </trkpt>
      <trkpt lat="54.60166" lon="-3.141876">
        <ele>259.0</ele>
        <time>2014-11-15T15:10:23Z</time>
      </trkpt>
      <trkpt lat="54.601666" lon="-3.141875">
        <ele>258.0</ele>
        <time>2014-11-15T15:10:27Z</time>
      </trkpt>
      <trkpt lat="54.601668" lon="-3.141876">
        <ele>259.0</ele>
        <time>2014-11-15T15:10:31Z</time>
      </trkpt>
      <trkpt lat="54.601666" lon="-3.14188">
        <ele>259.0</ele>
        <time>2014-11-15T15:10:35Z</time>
      </trkpt>
      <trkpt lat="54.601686" lon="-3.141903">
        <ele>258.0</ele>
        <time>2014-11-15T15:10:39Z</time>
      </trkpt>
      <trkpt lat="54.601683" lon="-3.141916">
        <ele>259.0</ele>
        <time>2014-11-15T15:10:43Z</time>
      </trkpt>
      <trkpt lat="54.601665" lon="-3.14192">
        <ele>259.0</ele>
        <time>2014-11-15T15:10:47Z</time>
      </trkpt>
      <trkpt lat="54.601658" lon="-3.141931">
        <ele>258.0</ele>
        <time>2014-11-15T15:10:51Z</time>
      </trkpt>
      <trkpt lat="54.601641" lon="-3.141933">
        <ele>259.0</ele>
        <time>2014-11-15T15:10:55Z</time>
      </trkpt>
      <trkpt lat="54.601653" lon="-3.141935">
        <ele>259.0</ele>
        <time>2014-11-15T15:10:59Z</time>
      </trkpt>
      <trkpt lat="54.601631" lon="-3.141901">
        <ele>259.0</ele>
        <time>2014-11-15T15:11:03Z</time>
      </trkpt>
      <trkpt lat="54.601646" lon="-3.141918">
        <ele>259.0</ele>
        <time>2014-11-15T15:11:07Z</time>
      </trkpt>
      <trkpt lat="54.601668" lon="-3.141935">
        <ele>259.0</ele>
        <time>2014-11-15T15:11:11Z</time>
      </trkpt>
      <trkpt lat="54.601658" lon="-3.141948">
        <ele>258.0</ele>
        <time>2014-11-15T15:11:15Z</time>
      </trkpt>
      <trkpt lat="54.601638" lon="-3.141968">
        <ele>259.0</ele>
        <time>2014-11-15T15:11:19Z</time>
      </trkpt>
      <trkpt lat="54.601643" lon="-3.141941">
        <ele>259.0</ele>
        <time>2014-11-15T15:11:23Z</time>
      </trkpt>
      <trkpt lat="54.601633" lon="-3.141908">
        <ele>259.0</ele>
        <time>2014-11-15T15:11:27Z</time>
      </trkpt>
      <trkpt lat="54.601666" lon="-3.141878">
        <ele>258.0</ele>
        <time>2014-11-15T15:11:31Z</time>
      </trkpt>
      <trkpt lat="54.601673" lon="-3.141861">
        <ele>259.0</ele>
        <time>2014-11-15T15:11:35Z</time>
      </trkpt>
      <trkpt lat="54.601673" lon="-3.141843">
        <ele>259.0</ele>
        <time>2014-11-15T15:11:39Z</time>
      </trkpt>
      <trkpt lat="54.601671" lon="-3.141841">
        <ele>259.0</ele>
        <time>2014-11-15T15:11:43Z</time>
      </trkpt>
      <trkpt lat="54.601648" lon="-3.141846">
        <ele>259.0</ele>
        <time>2014-11-15T15:11:47Z</time>
      </trkpt>
      <trkpt lat="54.601646" lon="-3.141853">
        <ele>259.0</ele>
        <time>2014-11-15T15:11:51Z</time>
      </trkpt>
      <trkpt lat="54.60163" lon="-3.141881">
        <ele>259.0</ele>
        <time>2014-11-15T15:11:55Z</time>
      </trkpt>
      <trkpt lat="54.601641" lon="-3.141885">
        <ele>259.0</ele>
        <time>2014-11-15T15:11:59Z</time>
      </trkpt>
      <trkpt lat="54.601633" lon="-3.1419">
        <ele>259.0</ele>
        <time>2014-11-15T15:12:03Z</time>
      </trkpt>
      <trkpt lat="54.60166" lon="-3.1419">
        <ele>259.0</ele>
        <time>2014-11-15T15:12:07Z</time>
      </trkpt>
      <trkpt lat="54.601658" lon="-3.14191">
        <ele>259.0</ele>
        <time>2014-11-15T15:12:11Z</time>
      </trkpt>
      <trkpt lat="54.601643" lon="-3.141908">
        <ele>259.0</ele>
        <time>2014-11-15T15:12:15Z</time>
      </trkpt>
      <trkpt lat="54.60166" lon="-3.141918">
        <ele>259.0</ele>
        <time>2014-11-15T15:12:19Z</time>
      </trkpt>
      <trkpt lat="54.601648" lon="-3.141868">
        <ele>259.0</ele>
        <time>2014-11-15T15:12:23Z</time>
      </trkpt>
      <trkpt lat="54.601633" lon="-3.141895">
        <ele>259.0</ele>
        <time>2014-11-15T15:12:27Z</time>
      </trkpt>
      <trkpt lat="54.601596" lon="-3.141901">
        <ele>258.0</ele>
        <time>2014-11-15T15:12:31Z</time>
      </trkpt>
      <trkpt lat="54.601608" lon="-3.141903">
        <ele>258.0</ele>
        <time>2014-11-15T15:12:35Z</time>
      </trkpt>
      <trkpt lat="54.601611" lon="-3.141871">
        <ele>259.0</ele>
        <time>2014-11-15T15:12:39Z</time>
      </trkpt>
      <trkpt lat="54.601606" lon="-3.141903">
        <ele>259.0</ele>
        <time>2014-11-15T15:12:43Z</time>
      </trkpt>
      <trkpt lat="54.601633" lon="-3.14189">
        <ele>259.0</ele>
        <time>2014-11-15T15:12:47Z</time>
      </trkpt>
      <trkpt lat="54.601645" lon="-3.141895">
        <ele>259.0</ele>
        <time>2014-11-15T15:12:51Z</time>
      </trkpt>
      <trkpt lat="54.601658" lon="-3.14188">
        <ele>259.0</ele>
        <time>2014-11-15T15:12:55Z</time>
      </trkpt>
      <trkpt lat="54.601686" lon="-3.141886">
        <ele>259.0</ele>
        <time>2014-11-15T15:12:59Z</time>
      </trkpt>
      <trkpt lat="54.601685" lon="-3.141888">
        <ele>259.0</ele>
        <time>2014-11-15T15:13:03Z</time>
      </trkpt>
      <trkpt lat="54.601678" lon="-3.141885">
        <ele>259.0</ele>
        <time>2014-11-15T15:13:07Z</time>
      </trkpt>
      <trkpt lat="54.60167" lon="-3.1419">
        <ele>259.0</ele>
        <time>2014-11-15T15:13:11Z</time>
      </trkpt>
      <trkpt lat="54.601668" lon="-3.141866">
        <ele>259.0</ele>
        <time>2014-11-15T15:13:15Z</time>
      </trkpt>
      <trkpt lat="54.601645" lon="-3.141918">
        <ele>259.0</ele>
        <time>2014-11-15T15:13:19Z</time>
      </trkpt>
      <trkpt lat="54.60163" lon="-3.141915">
        <ele>259.0</ele>
        <time>2014-11-15T15:13:23Z</time>
      </trkpt>
      <trkpt lat="54.601635" lon="-3.14194">
        <ele>259.0</ele>
        <time>2014-11-15T15:13:27Z</time>
      </trkpt>
      <trkpt lat="54.60165" lon="-3.141946">
        <ele>259.0</ele>
        <time>2014-11-15T15:13:31Z</time>
      </trkpt>
      <trkpt lat="54.601631" lon="-3.141956">
        <ele>259.0</ele>
        <time>2014-11-15T15:13:35Z</time>
      </trkpt>
      <trkpt lat="54.601646" lon="-3.141953">
        <ele>259.0</ele>
        <time>2014-11-15T15:13:39Z</time>
      </trkpt>
      <trkpt lat="54.601656" lon="-3.141948">
        <ele>259.0</ele>
        <time>2014-11-15T15:13:43Z</time>
      </trkpt>
      <trkpt lat="54.601646" lon="-3.142001">
        <ele>259.0</ele>
        <time>2014-11-15T15:13:47Z</time>
      </trkpt>
      <trkpt lat="54.601633" lon="-3.141988">
        <ele>259.0</ele>
        <time>2014-11-15T15:13:51Z</time>
      </trkpt>
      <trkpt lat="54.601655" lon="-3.141941">
        <ele>259.0</ele>
        <time>2014-11-15T15:13:55Z</time>
      </trkpt>
      <trkpt lat="54.601651" lon="-3.14192">
        <ele>259.0</ele>
        <time>2014-11-15T15:13:59Z</time>
      </trkpt>
      <trkpt lat="54.601651" lon="-3.141911">
        <ele>259.0</ele>
        <time>2014-11-15T15:14:03Z</time>
      </trkpt>
      <trkpt lat="54.601678" lon="-3.141885">
        <ele>259.0</ele>
        <time>2014-11-15T15:14:07Z</time>
      </trkpt>
      <trkpt lat="54.601665" lon="-3.141881">
        <ele>259.0</ele>
        <time>2014-11-15T15:14:11Z</time>
      </trkpt>
      <trkpt lat="54.601656" lon="-3.141895">
        <ele>259.0</ele>
        <time>2014-11-15T15:14:15Z</time>
      </trkpt>
      <trkpt lat="54.601686" lon="-3.141883">
        <ele>259.0</ele>
        <time>2014-11-15T15:14:19Z</time>
      </trkpt>
      <trkpt lat="54.60165" lon="-3.141903">
        <ele>259.0</ele>
        <time>2014-11-15T15:14:23Z</time>
      </trkpt>
      <trkpt lat="54.601656" lon="-3.14191">
        <ele>259.0</ele>
        <time>2014-11-15T15:14:27Z</time>
      </trkpt>
      <trkpt lat="54.601636" lon="-3.141931">
        <ele>259.0</ele>
        <time>2014-11-15T15:14:31Z</time>
      </trkpt>
      <trkpt lat="54.601676" lon="-3.141893">
        <ele>259.0</ele>
        <time>2014-11-15T15:14:35Z</time>
      </trkpt>
      <trkpt lat="54.601676" lon="-3.141906">
        <ele>259.0</ele>
        <time>2014-11-15T15:14:39Z</time>
      </trkpt>
      <trkpt lat="54.60167" lon="-3.141896">
        <ele>259.0</ele>
        <time>2014-11-15T15:14:43Z</time>
      </trkpt>
      <trkpt lat="54.60168" lon="-3.141888">
        <ele>259.0</ele>
        <time>2014-11-15T15:14:47Z</time>
      </trkpt>
      <trkpt lat="54.601658" lon="-3.14191">
        <ele>259.0</ele>
        <time>2014-11-15T15:14:51Z</time>
      </trkpt>
      <trkpt lat="54.601658" lon="-3.141906">
        <ele>259.0</ele>
        <time>2014-11-15T15:14:55Z</time>
      </trkpt>
    </trkseg>
  </trk>
</gpx>
